<?xml version="1.0" encoding="UTF-8" standalone="no" ?>
<gpx xmlns="http://www.topografix.com/GPX/1/1" xmlns:xsi="http://www.w3.org/2001/XMLSchema-instance" xsi:schemaLocation="http://www.topografix.com/GPX/1/1 http://www.topografix.com/GPX/1/1/gpx.xsd" version="1.1" creator="VisuGPX - https://www.visugpx.com">
  <metadata>
    <name>J6 Ljubjana - Tarvisio</name>
  </metadata>
  <trk>
    <name><![CDATA[J6 Ljubjana - Tarvisio]]></name>
    <trkseg>
      <trkpt lat="46.1008" lon="14.45951">
        <ele>352.704676</ele>
        <time>2026-07-12T06:53:08.000Z</time>
      </trkpt>
      <trkpt lat="46.1008" lon="14.45951">
        <ele>352.704676</ele>
        <time>2026-07-12T06:53:16.000Z</time>
      </trkpt>
      <trkpt lat="46.10081" lon="14.4595">
        <ele>352.704676</ele>
        <time>2026-07-12T06:53:17.000Z</time>
      </trkpt>
      <trkpt lat="46.10064" lon="14.45947">
        <ele>352.704676</ele>
        <time>2026-07-12T06:54:19.000Z</time>
      </trkpt>
      <trkpt lat="46.10062" lon="14.45946">
        <ele>352.704676</ele>
        <time>2026-07-12T06:54:20.000Z</time>
      </trkpt>
      <trkpt lat="46.10058" lon="14.45939">
        <ele>352.704676</ele>
        <time>2026-07-12T06:54:23.000Z</time>
      </trkpt>
      <trkpt lat="46.10057" lon="14.45936">
        <ele>352.704676</ele>
        <time>2026-07-12T06:54:25.000Z</time>
      </trkpt>
      <trkpt lat="46.10059" lon="14.45931">
        <ele>352.704676</ele>
        <time>2026-07-12T06:54:27.000Z</time>
      </trkpt>
      <trkpt lat="46.10066" lon="14.45918">
        <ele>352.704676</ele>
        <time>2026-07-12T06:54:33.000Z</time>
      </trkpt>
      <trkpt lat="46.10069" lon="14.4591">
        <ele>352.704676</ele>
        <time>2026-07-12T06:54:37.000Z</time>
      </trkpt>
      <trkpt lat="46.10074" lon="14.45902">
        <ele>352.704676</ele>
        <time>2026-07-12T06:54:41.000Z</time>
      </trkpt>
      <trkpt lat="46.10083" lon="14.45889">
        <ele>352.704676</ele>
        <time>2026-07-12T06:54:47.000Z</time>
      </trkpt>
      <trkpt lat="46.1009" lon="14.45875">
        <ele>352.704676</ele>
        <time>2026-07-12T06:54:54.000Z</time>
      </trkpt>
      <trkpt lat="46.101" lon="14.4586">
        <ele>352.414097</ele>
        <time>2026-07-12T06:55:01.000Z</time>
      </trkpt>
      <trkpt lat="46.10102" lon="14.45858">
        <ele>352.325903</ele>
        <time>2026-07-12T06:55:02.000Z</time>
      </trkpt>
      <trkpt lat="46.10115" lon="14.45836">
        <ele>351.508877</ele>
        <time>2026-07-12T06:55:11.000Z</time>
      </trkpt>
      <trkpt lat="46.10123" lon="14.45825">
        <ele>351.016544</ele>
        <time>2026-07-12T06:55:16.000Z</time>
      </trkpt>
      <trkpt lat="46.10127" lon="14.45825">
        <ele>350.859895</ele>
        <time>2026-07-12T06:55:18.000Z</time>
      </trkpt>
      <trkpt lat="46.10141" lon="14.45837">
        <ele>350.190596</ele>
        <time>2026-07-12T06:55:24.000Z</time>
      </trkpt>
      <trkpt lat="46.1016" lon="14.45855">
        <ele>349.225247</ele>
        <time>2026-07-12T06:55:31.000Z</time>
      </trkpt>
      <trkpt lat="46.10183" lon="14.45877">
        <ele>348.101228</ele>
        <time>2026-07-12T06:55:39.000Z</time>
      </trkpt>
      <trkpt lat="46.10206" lon="14.459">
        <ele>346.962618</ele>
        <time>2026-07-12T06:55:47.000Z</time>
      </trkpt>
      <trkpt lat="46.10228" lon="14.45924">
        <ele>345.822305</ele>
        <time>2026-07-12T06:55:56.000Z</time>
      </trkpt>
      <trkpt lat="46.1023" lon="14.45926">
        <ele>345.721601</ele>
        <time>2026-07-12T06:56:00.000Z</time>
      </trkpt>
      <trkpt lat="46.10234" lon="14.45926">
        <ele>345.548085</ele>
        <time>2026-07-12T06:57:05.000Z</time>
      </trkpt>
      <trkpt lat="46.10236" lon="14.45927">
        <ele>345.470937</ele>
        <time>2026-07-12T06:57:06.000Z</time>
      </trkpt>
      <trkpt lat="46.10238" lon="14.45929">
        <ele>345.368954</ele>
        <time>2026-07-12T06:57:07.000Z</time>
      </trkpt>
      <trkpt lat="46.10252" lon="14.45946">
        <ele>344.925663</ele>
        <time>2026-07-12T06:57:14.000Z</time>
      </trkpt>
      <trkpt lat="46.10256" lon="14.45951">
        <ele>344.805811</ele>
        <time>2026-07-12T06:57:17.000Z</time>
      </trkpt>
      <trkpt lat="46.10257" lon="14.45953">
        <ele>344.765545</ele>
        <time>2026-07-12T06:57:18.000Z</time>
      </trkpt>
      <trkpt lat="46.10258" lon="14.4596">
        <ele>344.66615</ele>
        <time>2026-07-12T06:57:20.000Z</time>
      </trkpt>
      <trkpt lat="46.10256" lon="14.45963">
        <ele>344.603175</ele>
        <time>2026-07-12T06:57:22.000Z</time>
      </trkpt>
      <trkpt lat="46.10246" lon="14.45985">
        <ele>344.205326</ele>
        <time>2026-07-12T06:57:26.000Z</time>
      </trkpt>
      <trkpt lat="46.10237" lon="14.46002">
        <ele>343.86863</ele>
        <time>2026-07-12T06:57:30.000Z</time>
      </trkpt>
      <trkpt lat="46.1023" lon="14.46016">
        <ele>343.609694</ele>
        <time>2026-07-12T06:57:33.000Z</time>
      </trkpt>
      <trkpt lat="46.10228" lon="14.46021">
        <ele>343.523374</ele>
        <time>2026-07-12T06:57:34.000Z</time>
      </trkpt>
      <trkpt lat="46.10206" lon="14.4606">
        <ele>342.759517</ele>
        <time>2026-07-12T06:57:43.000Z</time>
      </trkpt>
      <trkpt lat="46.10185" lon="14.46107">
        <ele>341.913667</ele>
        <time>2026-07-12T06:57:52.000Z</time>
      </trkpt>
      <trkpt lat="46.10173" lon="14.46139">
        <ele>341.352236</ele>
        <time>2026-07-12T06:58:00.000Z</time>
      </trkpt>
      <trkpt lat="46.10171" lon="14.46157">
        <ele>340.93859</ele>
        <time>2026-07-12T06:58:04.000Z</time>
      </trkpt>
      <trkpt lat="46.10178" lon="14.4617">
        <ele>340.554415</ele>
        <time>2026-07-12T06:58:07.000Z</time>
      </trkpt>
      <trkpt lat="46.10182" lon="14.46173">
        <ele>340.408793</ele>
        <time>2026-07-12T06:58:08.000Z</time>
      </trkpt>
      <trkpt lat="46.10203" lon="14.46187">
        <ele>339.639763</ele>
        <time>2026-07-12T06:58:13.000Z</time>
      </trkpt>
      <trkpt lat="46.10211" lon="14.4619">
        <ele>339.377445</ele>
        <time>2026-07-12T06:58:15.000Z</time>
      </trkpt>
      <trkpt lat="46.10218" lon="14.46194">
        <ele>339.128783</ele>
        <time>2026-07-12T06:58:17.000Z</time>
      </trkpt>
      <trkpt lat="46.10257" lon="14.46216">
        <ele>337.731179</ele>
        <time>2026-07-12T06:58:26.000Z</time>
      </trkpt>
      <trkpt lat="46.10259" lon="14.46217">
        <ele>337.661128</ele>
        <time>2026-07-12T06:58:27.000Z</time>
      </trkpt>
      <trkpt lat="46.10296" lon="14.46228">
        <ele>336.408083</ele>
        <time>2026-07-12T06:58:36.000Z</time>
      </trkpt>
      <trkpt lat="46.10326" lon="14.46238">
        <ele>335.385961</ele>
        <time>2026-07-12T06:58:44.000Z</time>
      </trkpt>
      <trkpt lat="46.10344" lon="14.46248">
        <ele>334.72557</ele>
        <time>2026-07-12T06:58:51.000Z</time>
      </trkpt>
      <trkpt lat="46.10353" lon="14.46254">
        <ele>334.361752</ele>
        <time>2026-07-12T06:58:55.000Z</time>
      </trkpt>
      <trkpt lat="46.10363" lon="14.46261">
        <ele>333.981218</ele>
        <time>2026-07-12T06:58:59.000Z</time>
      </trkpt>
      <trkpt lat="46.10366" lon="14.46263">
        <ele>333.871062</ele>
        <time>2026-07-12T06:59:00.000Z</time>
      </trkpt>
      <trkpt lat="46.10374" lon="14.46266">
        <ele>333.590794</ele>
        <time>2026-07-12T06:59:03.000Z</time>
      </trkpt>
      <trkpt lat="46.10389" lon="14.46274">
        <ele>333.022138</ele>
        <time>2026-07-12T06:59:09.000Z</time>
      </trkpt>
      <trkpt lat="46.10406" lon="14.46283">
        <ele>332.385241</ele>
        <time>2026-07-12T06:59:15.000Z</time>
      </trkpt>
      <trkpt lat="46.10416" lon="14.46286">
        <ele>332.047988</ele>
        <time>2026-07-12T06:59:18.000Z</time>
      </trkpt>
      <trkpt lat="46.1044" lon="14.46299">
        <ele>331.151919</ele>
        <time>2026-07-12T06:59:26.000Z</time>
      </trkpt>
      <trkpt lat="46.10458" lon="14.46311">
        <ele>330.456686</ele>
        <time>2026-07-12T06:59:31.000Z</time>
      </trkpt>
      <trkpt lat="46.1047" lon="14.46319">
        <ele>330.01329</ele>
        <time>2026-07-12T06:59:34.000Z</time>
      </trkpt>
      <trkpt lat="46.10485" lon="14.46328">
        <ele>329.424332</ele>
        <time>2026-07-12T06:59:38.000Z</time>
      </trkpt>
      <trkpt lat="46.10505" lon="14.46344">
        <ele>328.703965</ele>
        <time>2026-07-12T06:59:44.000Z</time>
      </trkpt>
      <trkpt lat="46.10506" lon="14.46345">
        <ele>328.65825</ele>
        <time>2026-07-12T06:59:45.000Z</time>
      </trkpt>
      <trkpt lat="46.10506" lon="14.46345">
        <ele>328.645926</ele>
        <time>2026-07-12T06:59:47.000Z</time>
      </trkpt>
      <trkpt lat="46.10511" lon="14.46348">
        <ele>328.477033</ele>
        <time>2026-07-12T07:00:08.000Z</time>
      </trkpt>
      <trkpt lat="46.10524" lon="14.46356">
        <ele>328.053538</ele>
        <time>2026-07-12T07:00:13.000Z</time>
      </trkpt>
      <trkpt lat="46.10536" lon="14.46352">
        <ele>327.681622</ele>
        <time>2026-07-12T07:00:16.000Z</time>
      </trkpt>
      <trkpt lat="46.10539" lon="14.46349">
        <ele>327.558374</ele>
        <time>2026-07-12T07:00:17.000Z</time>
      </trkpt>
      <trkpt lat="46.10564" lon="14.46316">
        <ele>326.552447</ele>
        <time>2026-07-12T07:00:24.000Z</time>
      </trkpt>
      <trkpt lat="46.10575" lon="14.46302">
        <ele>326.09975</ele>
        <time>2026-07-12T07:00:27.000Z</time>
      </trkpt>
      <trkpt lat="46.10588" lon="14.46288">
        <ele>325.602143</ele>
        <time>2026-07-12T07:00:30.000Z</time>
      </trkpt>
      <trkpt lat="46.10605" lon="14.4627">
        <ele>324.954482</ele>
        <time>2026-07-12T07:00:34.000Z</time>
      </trkpt>
      <trkpt lat="46.10613" lon="14.46262">
        <ele>324.661335</ele>
        <time>2026-07-12T07:00:36.000Z</time>
      </trkpt>
      <trkpt lat="46.10623" lon="14.46255">
        <ele>324.322035</ele>
        <time>2026-07-12T07:00:38.000Z</time>
      </trkpt>
      <trkpt lat="46.10662" lon="14.4623">
        <ele>322.895134</ele>
        <time>2026-07-12T07:00:45.000Z</time>
      </trkpt>
      <trkpt lat="46.10696" lon="14.46216">
        <ele>321.53779</ele>
        <time>2026-07-12T07:00:50.000Z</time>
      </trkpt>
      <trkpt lat="46.1074" lon="14.46208">
        <ele>319.871357</ele>
        <time>2026-07-12T07:00:55.000Z</time>
      </trkpt>
      <trkpt lat="46.10795" lon="14.46196">
        <ele>317.743809</ele>
        <time>2026-07-12T07:01:02.000Z</time>
      </trkpt>
      <trkpt lat="46.10803" lon="14.46194">
        <ele>317.453186</ele>
        <time>2026-07-12T07:01:03.000Z</time>
      </trkpt>
      <trkpt lat="46.10838" lon="14.46188">
        <ele>315.978779</ele>
        <time>2026-07-12T07:01:08.000Z</time>
      </trkpt>
      <trkpt lat="46.10875" lon="14.46187">
        <ele>314.354076</ele>
        <time>2026-07-12T07:01:14.000Z</time>
      </trkpt>
      <trkpt lat="46.10891" lon="14.4619">
        <ele>313.640081</ele>
        <time>2026-07-12T07:01:17.000Z</time>
      </trkpt>
      <trkpt lat="46.10911" lon="14.46191">
        <ele>312.798995</ele>
        <time>2026-07-12T07:01:21.000Z</time>
      </trkpt>
      <trkpt lat="46.10919" lon="14.46191">
        <ele>312.432527</ele>
        <time>2026-07-12T07:01:23.000Z</time>
      </trkpt>
      <trkpt lat="46.10936" lon="14.46189">
        <ele>311.666051</ele>
        <time>2026-07-12T07:01:27.000Z</time>
      </trkpt>
      <trkpt lat="46.10953" lon="14.46186">
        <ele>310.913368</ele>
        <time>2026-07-12T07:01:31.000Z</time>
      </trkpt>
      <trkpt lat="46.10964" lon="14.46185">
        <ele>310.448806</ele>
        <time>2026-07-12T07:01:34.000Z</time>
      </trkpt>
      <trkpt lat="46.10991" lon="14.46183">
        <ele>309.263299</ele>
        <time>2026-07-12T07:01:40.000Z</time>
      </trkpt>
      <trkpt lat="46.11004" lon="14.46183">
        <ele>308.943117</ele>
        <time>2026-07-12T07:01:43.000Z</time>
      </trkpt>
      <trkpt lat="46.11013" lon="14.46183">
        <ele>308.961393</ele>
        <time>2026-07-12T07:01:44.000Z</time>
      </trkpt>
      <trkpt lat="46.11022" lon="14.46183">
        <ele>308.979302</ele>
        <time>2026-07-12T07:01:47.000Z</time>
      </trkpt>
      <trkpt lat="46.11037" lon="14.46183">
        <ele>309.010101</ele>
        <time>2026-07-12T07:01:51.000Z</time>
      </trkpt>
      <trkpt lat="46.11045" lon="14.46183">
        <ele>309.026322</ele>
        <time>2026-07-12T07:01:53.000Z</time>
      </trkpt>
      <trkpt lat="46.11063" lon="14.46183">
        <ele>309.062666</ele>
        <time>2026-07-12T07:01:57.000Z</time>
      </trkpt>
      <trkpt lat="46.11097" lon="14.46186">
        <ele>309.133409</ele>
        <time>2026-07-12T07:02:05.000Z</time>
      </trkpt>
      <trkpt lat="46.11127" lon="14.46186">
        <ele>309.195826</ele>
        <time>2026-07-12T07:02:12.000Z</time>
      </trkpt>
      <trkpt lat="46.1115" lon="14.46187">
        <ele>309.241826</ele>
        <time>2026-07-12T07:02:18.000Z</time>
      </trkpt>
      <trkpt lat="46.11176" lon="14.46187">
        <ele>309.295209</ele>
        <time>2026-07-12T07:02:25.000Z</time>
      </trkpt>
      <trkpt lat="46.11211" lon="14.46185">
        <ele>309.534639</ele>
        <time>2026-07-12T07:02:34.000Z</time>
      </trkpt>
      <trkpt lat="46.11232" lon="14.46189">
        <ele>309.678063</ele>
        <time>2026-07-12T07:02:39.000Z</time>
      </trkpt>
      <trkpt lat="46.11243" lon="14.46192">
        <ele>309.757091</ele>
        <time>2026-07-12T07:02:42.000Z</time>
      </trkpt>
      <trkpt lat="46.11255" lon="14.46192">
        <ele>309.843565</ele>
        <time>2026-07-12T07:02:45.000Z</time>
      </trkpt>
      <trkpt lat="46.11263" lon="14.4619">
        <ele>309.904528</ele>
        <time>2026-07-12T07:02:47.000Z</time>
      </trkpt>
      <trkpt lat="46.11267" lon="14.46189">
        <ele>309.932147</ele>
        <time>2026-07-12T07:02:48.000Z</time>
      </trkpt>
      <trkpt lat="46.11272" lon="14.46189">
        <ele>309.963832</ele>
        <time>2026-07-12T07:02:49.000Z</time>
      </trkpt>
      <trkpt lat="46.11295" lon="14.46187">
        <ele>310.12425</ele>
        <time>2026-07-12T07:02:54.000Z</time>
      </trkpt>
      <trkpt lat="46.11328" lon="14.46187">
        <ele>310.359676</ele>
        <time>2026-07-12T07:03:02.000Z</time>
      </trkpt>
      <trkpt lat="46.1136" lon="14.46187">
        <ele>310.524632</ele>
        <time>2026-07-12T07:03:09.000Z</time>
      </trkpt>
      <trkpt lat="46.11373" lon="14.46188">
        <ele>310.328096</ele>
        <time>2026-07-12T07:03:12.000Z</time>
      </trkpt>
      <trkpt lat="46.11398" lon="14.46186">
        <ele>309.955527</ele>
        <time>2026-07-12T07:03:18.000Z</time>
      </trkpt>
      <trkpt lat="46.11402" lon="14.46185">
        <ele>309.898861</ele>
        <time>2026-07-12T07:03:19.000Z</time>
      </trkpt>
      <trkpt lat="46.11421" lon="14.46186">
        <ele>309.610318</ele>
        <time>2026-07-12T07:03:24.000Z</time>
      </trkpt>
      <trkpt lat="46.11449" lon="14.46186">
        <ele>309.201323</ele>
        <time>2026-07-12T07:03:31.000Z</time>
      </trkpt>
      <trkpt lat="46.11477" lon="14.46185">
        <ele>308.774402</ele>
        <time>2026-07-12T07:03:37.000Z</time>
      </trkpt>
      <trkpt lat="46.11486" lon="14.46185">
        <ele>308.649405</ele>
        <time>2026-07-12T07:03:40.000Z</time>
      </trkpt>
      <trkpt lat="46.11519" lon="14.46185">
        <ele>308.161582</ele>
        <time>2026-07-12T07:03:48.000Z</time>
      </trkpt>
      <trkpt lat="46.11526" lon="14.46185">
        <ele>308.044017</ele>
        <time>2026-07-12T07:03:50.000Z</time>
      </trkpt>
      <trkpt lat="46.11551" lon="14.46186">
        <ele>307.811154</ele>
        <time>2026-07-12T07:03:56.000Z</time>
      </trkpt>
      <trkpt lat="46.1156" lon="14.46187">
        <ele>307.762617</ele>
        <time>2026-07-12T07:03:58.000Z</time>
      </trkpt>
      <trkpt lat="46.11572" lon="14.46187">
        <ele>307.694417</ele>
        <time>2026-07-12T07:04:01.000Z</time>
      </trkpt>
      <trkpt lat="46.116" lon="14.46184">
        <ele>307.541008</ele>
        <time>2026-07-12T07:04:08.000Z</time>
      </trkpt>
      <trkpt lat="46.11631" lon="14.46182">
        <ele>307.37256</ele>
        <time>2026-07-12T07:04:15.000Z</time>
      </trkpt>
      <trkpt lat="46.11639" lon="14.46181">
        <ele>307.325087</ele>
        <time>2026-07-12T07:04:17.000Z</time>
      </trkpt>
      <trkpt lat="46.11661" lon="14.4618">
        <ele>307.204658</ele>
        <time>2026-07-12T07:04:22.000Z</time>
      </trkpt>
      <trkpt lat="46.11691" lon="14.4618">
        <ele>307.041899</ele>
        <time>2026-07-12T07:04:29.000Z</time>
      </trkpt>
      <trkpt lat="46.11697" lon="14.46181">
        <ele>307.004933</ele>
        <time>2026-07-12T07:04:33.000Z</time>
      </trkpt>
      <trkpt lat="46.11697" lon="14.46181">
        <ele>307.004933</ele>
        <time>2026-07-12T07:04:34.000Z</time>
      </trkpt>
      <trkpt lat="46.11702" lon="14.4618">
        <ele>306.977818</ele>
        <time>2026-07-12T07:04:53.000Z</time>
      </trkpt>
      <trkpt lat="46.11707" lon="14.4618">
        <ele>306.954146</ele>
        <time>2026-07-12T07:04:55.000Z</time>
      </trkpt>
      <trkpt lat="46.11724" lon="14.4618">
        <ele>307.039189</ele>
        <time>2026-07-12T07:05:00.000Z</time>
      </trkpt>
      <trkpt lat="46.1175" lon="14.46181">
        <ele>307.512436</ele>
        <time>2026-07-12T07:05:08.000Z</time>
      </trkpt>
      <trkpt lat="46.11753" lon="14.46179">
        <ele>307.562136</ele>
        <time>2026-07-12T07:05:09.000Z</time>
      </trkpt>
      <trkpt lat="46.11756" lon="14.46173">
        <ele>307.65583</ele>
        <time>2026-07-12T07:05:11.000Z</time>
      </trkpt>
      <trkpt lat="46.11757" lon="14.46168">
        <ele>307.726216</ele>
        <time>2026-07-12T07:05:13.000Z</time>
      </trkpt>
      <trkpt lat="46.11759" lon="14.46166">
        <ele>307.762573</ele>
        <time>2026-07-12T07:05:14.000Z</time>
      </trkpt>
      <trkpt lat="46.11774" lon="14.46159">
        <ele>308.042959</ele>
        <time>2026-07-12T07:05:19.000Z</time>
      </trkpt>
      <trkpt lat="46.11787" lon="14.46159">
        <ele>308.286815</ele>
        <time>2026-07-12T07:05:23.000Z</time>
      </trkpt>
      <trkpt lat="46.11804" lon="14.46149">
        <ele>308.621022</ele>
        <time>2026-07-12T07:05:28.000Z</time>
      </trkpt>
      <trkpt lat="46.11806" lon="14.46144">
        <ele>308.697354</ele>
        <time>2026-07-12T07:05:30.000Z</time>
      </trkpt>
      <trkpt lat="46.11809" lon="14.46122">
        <ele>308.971001</ele>
        <time>2026-07-12T07:05:33.000Z</time>
      </trkpt>
      <trkpt lat="46.11818" lon="14.46062">
        <ele>309.748895</ele>
        <time>2026-07-12T07:05:41.000Z</time>
      </trkpt>
      <trkpt lat="46.1183" lon="14.4599">
        <ele>310.153559</ele>
        <time>2026-07-12T07:05:50.000Z</time>
      </trkpt>
      <trkpt lat="46.1185" lon="14.45952">
        <ele>310.160045</ele>
        <time>2026-07-12T07:05:56.000Z</time>
      </trkpt>
      <trkpt lat="46.11869" lon="14.459">
        <ele>310.167902</ele>
        <time>2026-07-12T07:06:03.000Z</time>
      </trkpt>
      <trkpt lat="46.11874" lon="14.45878">
        <ele>310.171149</ele>
        <time>2026-07-12T07:06:06.000Z</time>
      </trkpt>
      <trkpt lat="46.11884" lon="14.4585">
        <ele>310.175369</ele>
        <time>2026-07-12T07:06:10.000Z</time>
      </trkpt>
      <trkpt lat="46.11887" lon="14.45843">
        <ele>310.176461</ele>
        <time>2026-07-12T07:06:11.000Z</time>
      </trkpt>
      <trkpt lat="46.1191" lon="14.4579">
        <ele>310.195774</ele>
        <time>2026-07-12T07:06:19.000Z</time>
      </trkpt>
      <trkpt lat="46.11915" lon="14.45776">
        <ele>310.210242</ele>
        <time>2026-07-12T07:06:21.000Z</time>
      </trkpt>
      <trkpt lat="46.1192" lon="14.45752">
        <ele>310.23295</ele>
        <time>2026-07-12T07:06:24.000Z</time>
      </trkpt>
      <trkpt lat="46.11924" lon="14.45738">
        <ele>310.246855</ele>
        <time>2026-07-12T07:06:26.000Z</time>
      </trkpt>
      <trkpt lat="46.1193" lon="14.45708">
        <ele>310.275401</ele>
        <time>2026-07-12T07:06:30.000Z</time>
      </trkpt>
      <trkpt lat="46.11931" lon="14.45702">
        <ele>310.280668</ele>
        <time>2026-07-12T07:06:31.000Z</time>
      </trkpt>
      <trkpt lat="46.11938" lon="14.45689">
        <ele>310.295618</ele>
        <time>2026-07-12T07:06:33.000Z</time>
      </trkpt>
      <trkpt lat="46.11942" lon="14.45684">
        <ele>310.302912</ele>
        <time>2026-07-12T07:06:34.000Z</time>
      </trkpt>
      <trkpt lat="46.11957" lon="14.45664">
        <ele>310.329194</ele>
        <time>2026-07-12T07:06:38.000Z</time>
      </trkpt>
      <trkpt lat="46.11967" lon="14.45646">
        <ele>310.350716</ele>
        <time>2026-07-12T07:06:41.000Z</time>
      </trkpt>
      <trkpt lat="46.11989" lon="14.45612">
        <ele>310.393408</ele>
        <time>2026-07-12T07:06:48.000Z</time>
      </trkpt>
      <trkpt lat="46.11993" lon="14.45607">
        <ele>310.400527</ele>
        <time>2026-07-12T07:06:49.000Z</time>
      </trkpt>
      <trkpt lat="46.12005" lon="14.45591">
        <ele>310.423027</ele>
        <time>2026-07-12T07:06:53.000Z</time>
      </trkpt>
      <trkpt lat="46.12013" lon="14.45578">
        <ele>310.448088</ele>
        <time>2026-07-12T07:06:56.000Z</time>
      </trkpt>
      <trkpt lat="46.12016" lon="14.45573">
        <ele>310.455993</ele>
        <time>2026-07-12T07:06:57.000Z</time>
      </trkpt>
      <trkpt lat="46.12017" lon="14.45569">
        <ele>310.463443</ele>
        <time>2026-07-12T07:06:58.000Z</time>
      </trkpt>
      <trkpt lat="46.12024" lon="14.45549">
        <ele>310.49465</ele>
        <time>2026-07-12T07:07:02.000Z</time>
      </trkpt>
      <trkpt lat="46.12034" lon="14.4552">
        <ele>310.540011</ele>
        <time>2026-07-12T07:07:09.000Z</time>
      </trkpt>
      <trkpt lat="46.12046" lon="14.45473">
        <ele>310.611351</ele>
        <time>2026-07-12T07:07:18.000Z</time>
      </trkpt>
      <trkpt lat="46.12056" lon="14.45431">
        <ele>310.674344</ele>
        <time>2026-07-12T07:07:25.000Z</time>
      </trkpt>
      <trkpt lat="46.1206" lon="14.45407">
        <ele>310.708978</ele>
        <time>2026-07-12T07:07:29.000Z</time>
      </trkpt>
      <trkpt lat="46.12061" lon="14.454">
        <ele>310.719397</ele>
        <time>2026-07-12T07:07:30.000Z</time>
      </trkpt>
      <trkpt lat="46.12062" lon="14.45389">
        <ele>310.735288</ele>
        <time>2026-07-12T07:07:32.000Z</time>
      </trkpt>
      <trkpt lat="46.12067" lon="14.45361">
        <ele>310.775673</ele>
        <time>2026-07-12T07:07:36.000Z</time>
      </trkpt>
      <trkpt lat="46.12081" lon="14.45309">
        <ele>311.144586</ele>
        <time>2026-07-12T07:07:44.000Z</time>
      </trkpt>
      <trkpt lat="46.12084" lon="14.45293">
        <ele>311.277306</ele>
        <time>2026-07-12T07:07:47.000Z</time>
      </trkpt>
      <trkpt lat="46.12085" lon="14.4528">
        <ele>311.374018</ele>
        <time>2026-07-12T07:07:49.000Z</time>
      </trkpt>
      <trkpt lat="46.12085" lon="14.45269">
        <ele>311.453562</ele>
        <time>2026-07-12T07:07:51.000Z</time>
      </trkpt>
      <trkpt lat="46.12086" lon="14.45258">
        <ele>311.537007</ele>
        <time>2026-07-12T07:07:53.000Z</time>
      </trkpt>
      <trkpt lat="46.12092" lon="14.45218">
        <ele>311.848168</ele>
        <time>2026-07-12T07:07:59.000Z</time>
      </trkpt>
      <trkpt lat="46.12093" lon="14.45208">
        <ele>311.930591</ele>
        <time>2026-07-12T07:08:01.000Z</time>
      </trkpt>
      <trkpt lat="46.121" lon="14.45176">
        <ele>312.182631</ele>
        <time>2026-07-12T07:08:06.000Z</time>
      </trkpt>
      <trkpt lat="46.12108" lon="14.45151">
        <ele>312.389635</ele>
        <time>2026-07-12T07:08:10.000Z</time>
      </trkpt>
      <trkpt lat="46.12113" lon="14.45134">
        <ele>312.527785</ele>
        <time>2026-07-12T07:08:13.000Z</time>
      </trkpt>
      <trkpt lat="46.12115" lon="14.45122">
        <ele>312.625926</ele>
        <time>2026-07-12T07:08:15.000Z</time>
      </trkpt>
      <trkpt lat="46.12118" lon="14.45102">
        <ele>312.771171</ele>
        <time>2026-07-12T07:08:18.000Z</time>
      </trkpt>
      <trkpt lat="46.12123" lon="14.45079">
        <ele>312.917596</ele>
        <time>2026-07-12T07:08:22.000Z</time>
      </trkpt>
      <trkpt lat="46.12124" lon="14.45073">
        <ele>312.955525</ele>
        <time>2026-07-12T07:08:23.000Z</time>
      </trkpt>
      <trkpt lat="46.12136" lon="14.45039">
        <ele>313.182339</ele>
        <time>2026-07-12T07:08:29.000Z</time>
      </trkpt>
      <trkpt lat="46.12138" lon="14.45031">
        <ele>313.230014</ele>
        <time>2026-07-12T07:08:30.000Z</time>
      </trkpt>
      <trkpt lat="46.12149" lon="14.45004">
        <ele>313.421995</ele>
        <time>2026-07-12T07:08:35.000Z</time>
      </trkpt>
      <trkpt lat="46.12153" lon="14.44995">
        <ele>313.484001</ele>
        <time>2026-07-12T07:08:37.000Z</time>
      </trkpt>
      <trkpt lat="46.12156" lon="14.4499">
        <ele>313.519926</ele>
        <time>2026-07-12T07:08:38.000Z</time>
      </trkpt>
      <trkpt lat="46.12176" lon="14.44941">
        <ele>313.859913</ele>
        <time>2026-07-12T07:08:46.000Z</time>
      </trkpt>
      <trkpt lat="46.12178" lon="14.44936">
        <ele>313.896822</ele>
        <time>2026-07-12T07:08:47.000Z</time>
      </trkpt>
      <trkpt lat="46.12191" lon="14.44915">
        <ele>314.065136</ele>
        <time>2026-07-12T07:08:52.000Z</time>
      </trkpt>
      <trkpt lat="46.122" lon="14.44901">
        <ele>314.182091</ele>
        <time>2026-07-12T07:08:55.000Z</time>
      </trkpt>
      <trkpt lat="46.12205" lon="14.44887">
        <ele>314.275926</ele>
        <time>2026-07-12T07:08:57.000Z</time>
      </trkpt>
      <trkpt lat="46.12207" lon="14.4488">
        <ele>314.272613</ele>
        <time>2026-07-12T07:08:58.000Z</time>
      </trkpt>
      <trkpt lat="46.12213" lon="14.44857">
        <ele>313.977671</ele>
        <time>2026-07-12T07:09:01.000Z</time>
      </trkpt>
      <trkpt lat="46.12215" lon="14.44848">
        <ele>313.856672</ele>
        <time>2026-07-12T07:09:02.000Z</time>
      </trkpt>
      <trkpt lat="46.12223" lon="14.44817">
        <ele>313.445525</ele>
        <time>2026-07-12T07:09:06.000Z</time>
      </trkpt>
      <trkpt lat="46.12233" lon="14.44801">
        <ele>313.187046</ele>
        <time>2026-07-12T07:09:08.000Z</time>
      </trkpt>
      <trkpt lat="46.12243" lon="14.44775">
        <ele>312.82736</ele>
        <time>2026-07-12T07:09:11.000Z</time>
      </trkpt>
      <trkpt lat="46.12246" lon="14.44754">
        <ele>312.562143</ele>
        <time>2026-07-12T07:09:13.000Z</time>
      </trkpt>
      <trkpt lat="46.12245" lon="14.44736">
        <ele>312.335632</ele>
        <time>2026-07-12T07:09:15.000Z</time>
      </trkpt>
      <trkpt lat="46.12242" lon="14.44721">
        <ele>312.145641</ele>
        <time>2026-07-12T07:09:17.000Z</time>
      </trkpt>
      <trkpt lat="46.1224" lon="14.44713">
        <ele>312.032366</ele>
        <time>2026-07-12T07:09:18.000Z</time>
      </trkpt>
      <trkpt lat="46.12235" lon="14.44703">
        <ele>311.88352</ele>
        <time>2026-07-12T07:09:20.000Z</time>
      </trkpt>
      <trkpt lat="46.1222" lon="14.4469">
        <ele>311.580246</ele>
        <time>2026-07-12T07:09:24.000Z</time>
      </trkpt>
      <trkpt lat="46.12213" lon="14.44684">
        <ele>311.434348</ele>
        <time>2026-07-12T07:09:26.000Z</time>
      </trkpt>
      <trkpt lat="46.12208" lon="14.44676">
        <ele>311.29869</ele>
        <time>2026-07-12T07:09:28.000Z</time>
      </trkpt>
      <trkpt lat="46.12207" lon="14.44671">
        <ele>311.232243</ele>
        <time>2026-07-12T07:09:29.000Z</time>
      </trkpt>
      <trkpt lat="46.12208" lon="14.44666">
        <ele>311.169761</ele>
        <time>2026-07-12T07:09:30.000Z</time>
      </trkpt>
      <trkpt lat="46.12212" lon="14.44656">
        <ele>311.209612</ele>
        <time>2026-07-12T07:09:32.000Z</time>
      </trkpt>
      <trkpt lat="46.12221" lon="14.4464">
        <ele>311.514305</ele>
        <time>2026-07-12T07:09:35.000Z</time>
      </trkpt>
      <trkpt lat="46.1224" lon="14.4461">
        <ele>312.105933</ele>
        <time>2026-07-12T07:09:41.000Z</time>
      </trkpt>
      <trkpt lat="46.12259" lon="14.44587">
        <ele>312.627271</ele>
        <time>2026-07-12T07:09:46.000Z</time>
      </trkpt>
      <trkpt lat="46.1227" lon="14.44578">
        <ele>312.902218</ele>
        <time>2026-07-12T07:09:49.000Z</time>
      </trkpt>
      <trkpt lat="46.12296" lon="14.44564">
        <ele>313.493354</ele>
        <time>2026-07-12T07:09:55.000Z</time>
      </trkpt>
      <trkpt lat="46.12318" lon="14.44557">
        <ele>313.965347</ele>
        <time>2026-07-12T07:10:00.000Z</time>
      </trkpt>
      <trkpt lat="46.12327" lon="14.44557">
        <ele>314.151539</ele>
        <time>2026-07-12T07:10:02.000Z</time>
      </trkpt>
      <trkpt lat="46.12373" lon="14.44565">
        <ele>315.294684</ele>
        <time>2026-07-12T07:10:12.000Z</time>
      </trkpt>
      <trkpt lat="46.12404" lon="14.4458">
        <ele>316.574682</ele>
        <time>2026-07-12T07:10:20.000Z</time>
      </trkpt>
      <trkpt lat="46.12424" lon="14.4459">
        <ele>317.396335</ele>
        <time>2026-07-12T07:10:26.000Z</time>
      </trkpt>
      <trkpt lat="46.12435" lon="14.44594">
        <ele>317.803215</ele>
        <time>2026-07-12T07:10:29.000Z</time>
      </trkpt>
      <trkpt lat="46.12465" lon="14.446">
        <ele>318.969445</ele>
        <time>2026-07-12T07:10:38.000Z</time>
      </trkpt>
      <trkpt lat="46.12494" lon="14.44599">
        <ele>320.086822</ele>
        <time>2026-07-12T07:10:48.000Z</time>
      </trkpt>
      <trkpt lat="46.1252" lon="14.44594">
        <ele>321.088057</ele>
        <time>2026-07-12T07:10:58.000Z</time>
      </trkpt>
      <trkpt lat="46.1254" lon="14.44589">
        <ele>321.880992</ele>
        <time>2026-07-12T07:11:06.000Z</time>
      </trkpt>
      <trkpt lat="46.12542" lon="14.44589">
        <ele>322.035151</ele>
        <time>2026-07-12T07:11:07.000Z</time>
      </trkpt>
      <trkpt lat="46.12561" lon="14.44581">
        <ele>323.100942</ele>
        <time>2026-07-12T07:11:14.000Z</time>
      </trkpt>
      <trkpt lat="46.12569" lon="14.44578">
        <ele>323.563819</ele>
        <time>2026-07-12T07:11:17.000Z</time>
      </trkpt>
      <trkpt lat="46.12587" lon="14.44568">
        <ele>324.657633</ele>
        <time>2026-07-12T07:11:24.000Z</time>
      </trkpt>
      <trkpt lat="46.1261" lon="14.44555">
        <ele>326.010429</ele>
        <time>2026-07-12T07:11:32.000Z</time>
      </trkpt>
      <trkpt lat="46.12635" lon="14.44543">
        <ele>327.490366</ele>
        <time>2026-07-12T07:11:41.000Z</time>
      </trkpt>
      <trkpt lat="46.12654" lon="14.44537">
        <ele>328.548704</ele>
        <time>2026-07-12T07:11:47.000Z</time>
      </trkpt>
      <trkpt lat="46.12672" lon="14.44534">
        <ele>329.589053</ele>
        <time>2026-07-12T07:11:53.000Z</time>
      </trkpt>
      <trkpt lat="46.12684" lon="14.44533">
        <ele>330.235106</ele>
        <time>2026-07-12T07:11:57.000Z</time>
      </trkpt>
      <trkpt lat="46.12698" lon="14.44534">
        <ele>331.03086</ele>
        <time>2026-07-12T07:12:02.000Z</time>
      </trkpt>
      <trkpt lat="46.12731" lon="14.44535">
        <ele>332.156644</ele>
        <time>2026-07-12T07:12:13.000Z</time>
      </trkpt>
      <trkpt lat="46.12757" lon="14.44528">
        <ele>332.621552</ele>
        <time>2026-07-12T07:12:22.000Z</time>
      </trkpt>
      <trkpt lat="46.12782" lon="14.44514">
        <ele>333.105606</ele>
        <time>2026-07-12T07:12:31.000Z</time>
      </trkpt>
      <trkpt lat="46.12801" lon="14.44498">
        <ele>333.49605</ele>
        <time>2026-07-12T07:12:38.000Z</time>
      </trkpt>
      <trkpt lat="46.12819" lon="14.44481">
        <ele>333.879762</ele>
        <time>2026-07-12T07:12:45.000Z</time>
      </trkpt>
      <trkpt lat="46.1284" lon="14.44468">
        <ele>334.282069</ele>
        <time>2026-07-12T07:12:52.000Z</time>
      </trkpt>
      <trkpt lat="46.12842" lon="14.44466">
        <ele>334.336483</ele>
        <time>2026-07-12T07:12:53.000Z</time>
      </trkpt>
      <trkpt lat="46.12866" lon="14.44452">
        <ele>334.788457</ele>
        <time>2026-07-12T07:13:01.000Z</time>
      </trkpt>
      <trkpt lat="46.12893" lon="14.44446">
        <ele>335.702642</ele>
        <time>2026-07-12T07:13:10.000Z</time>
      </trkpt>
      <trkpt lat="46.12916" lon="14.44451">
        <ele>336.784725</ele>
        <time>2026-07-12T07:13:17.000Z</time>
      </trkpt>
      <trkpt lat="46.12936" lon="14.4446">
        <ele>337.761022</ele>
        <time>2026-07-12T07:13:22.000Z</time>
      </trkpt>
      <trkpt lat="46.1295" lon="14.44471">
        <ele>338.518136</ele>
        <time>2026-07-12T07:13:28.000Z</time>
      </trkpt>
      <trkpt lat="46.12969" lon="14.44478">
        <ele>339.424072</ele>
        <time>2026-07-12T07:13:35.000Z</time>
      </trkpt>
      <trkpt lat="46.12983" lon="14.44484">
        <ele>340.10648</ele>
        <time>2026-07-12T07:13:40.000Z</time>
      </trkpt>
      <trkpt lat="46.13001" lon="14.44488">
        <ele>340.951783</ele>
        <time>2026-07-12T07:13:46.000Z</time>
      </trkpt>
      <trkpt lat="46.1302" lon="14.44488">
        <ele>341.816115</ele>
        <time>2026-07-12T07:13:53.000Z</time>
      </trkpt>
      <trkpt lat="46.13022" lon="14.44487">
        <ele>341.918952</ele>
        <time>2026-07-12T07:13:54.000Z</time>
      </trkpt>
      <trkpt lat="46.13028" lon="14.44485">
        <ele>342.202866</ele>
        <time>2026-07-12T07:13:57.000Z</time>
      </trkpt>
      <trkpt lat="46.13049" lon="14.44491">
        <ele>343.212159</ele>
        <time>2026-07-12T07:14:03.000Z</time>
      </trkpt>
      <trkpt lat="46.13069" lon="14.44492">
        <ele>343.567601</ele>
        <time>2026-07-12T07:14:08.000Z</time>
      </trkpt>
      <trkpt lat="46.13071" lon="14.44492">
        <ele>343.594333</ele>
        <time>2026-07-12T07:14:09.000Z</time>
      </trkpt>
      <trkpt lat="46.1309" lon="14.44491">
        <ele>343.76847</ele>
        <time>2026-07-12T07:14:17.000Z</time>
      </trkpt>
      <trkpt lat="46.13109" lon="14.44486">
        <ele>343.947434</ele>
        <time>2026-07-12T07:14:23.000Z</time>
      </trkpt>
      <trkpt lat="46.13137" lon="14.44477">
        <ele>344.209083</ele>
        <time>2026-07-12T07:14:32.000Z</time>
      </trkpt>
      <trkpt lat="46.13163" lon="14.44464">
        <ele>344.460742</ele>
        <time>2026-07-12T07:14:42.000Z</time>
      </trkpt>
      <trkpt lat="46.13187" lon="14.44453">
        <ele>344.68734</ele>
        <time>2026-07-12T07:14:51.000Z</time>
      </trkpt>
      <trkpt lat="46.13216" lon="14.44432">
        <ele>344.988561</ele>
        <time>2026-07-12T07:15:02.000Z</time>
      </trkpt>
      <trkpt lat="46.13244" lon="14.44407">
        <ele>345.153086</ele>
        <time>2026-07-12T07:15:13.000Z</time>
      </trkpt>
      <trkpt lat="46.1327" lon="14.44387">
        <ele>345.241244</ele>
        <time>2026-07-12T07:15:23.000Z</time>
      </trkpt>
      <trkpt lat="46.13274" lon="14.44384">
        <ele>345.252842</ele>
        <time>2026-07-12T07:15:24.000Z</time>
      </trkpt>
      <trkpt lat="46.13295" lon="14.44373">
        <ele>345.320251</ele>
        <time>2026-07-12T07:15:32.000Z</time>
      </trkpt>
      <trkpt lat="46.1332" lon="14.44367">
        <ele>345.394556</ele>
        <time>2026-07-12T07:15:40.000Z</time>
      </trkpt>
      <trkpt lat="46.13334" lon="14.44367">
        <ele>345.434921</ele>
        <time>2026-07-12T07:15:44.000Z</time>
      </trkpt>
      <trkpt lat="46.13344" lon="14.44366">
        <ele>345.465592</ele>
        <time>2026-07-12T07:15:47.000Z</time>
      </trkpt>
      <trkpt lat="46.13374" lon="14.4437">
        <ele>345.553935</ele>
        <time>2026-07-12T07:15:56.000Z</time>
      </trkpt>
      <trkpt lat="46.13402" lon="14.44376">
        <ele>345.566491</ele>
        <time>2026-07-12T07:16:04.000Z</time>
      </trkpt>
      <trkpt lat="46.13406" lon="14.44377">
        <ele>345.536629</ele>
        <time>2026-07-12T07:16:05.000Z</time>
      </trkpt>
      <trkpt lat="46.13429" lon="14.44383">
        <ele>345.358946</ele>
        <time>2026-07-12T07:16:11.000Z</time>
      </trkpt>
      <trkpt lat="46.13453" lon="14.44388">
        <ele>345.178207</ele>
        <time>2026-07-12T07:16:17.000Z</time>
      </trkpt>
      <trkpt lat="46.135" lon="14.444">
        <ele>344.821183</ele>
        <time>2026-07-12T07:16:29.000Z</time>
      </trkpt>
      <trkpt lat="46.13515" lon="14.44403">
        <ele>344.706491</ele>
        <time>2026-07-12T07:16:33.000Z</time>
      </trkpt>
      <trkpt lat="46.13522" lon="14.44405">
        <ele>344.651808</ele>
        <time>2026-07-12T07:16:35.000Z</time>
      </trkpt>
      <trkpt lat="46.13538" lon="14.4441">
        <ele>344.527191</ele>
        <time>2026-07-12T07:16:39.000Z</time>
      </trkpt>
      <trkpt lat="46.13574" lon="14.4442">
        <ele>344.269378</ele>
        <time>2026-07-12T07:16:48.000Z</time>
      </trkpt>
      <trkpt lat="46.13578" lon="14.44421">
        <ele>344.282424</ele>
        <time>2026-07-12T07:16:49.000Z</time>
      </trkpt>
      <trkpt lat="46.1362" lon="14.44436">
        <ele>344.424344</ele>
        <time>2026-07-12T07:17:00.000Z</time>
      </trkpt>
      <trkpt lat="46.13644" lon="14.44447">
        <ele>344.50877</ele>
        <time>2026-07-12T07:17:07.000Z</time>
      </trkpt>
      <trkpt lat="46.13659" lon="14.44452">
        <ele>344.558768</ele>
        <time>2026-07-12T07:17:11.000Z</time>
      </trkpt>
      <trkpt lat="46.13681" lon="14.44461">
        <ele>344.632632</ele>
        <time>2026-07-12T07:17:17.000Z</time>
      </trkpt>
      <trkpt lat="46.13719" lon="14.44476">
        <ele>344.761221</ele>
        <time>2026-07-12T07:17:27.000Z</time>
      </trkpt>
      <trkpt lat="46.13734" lon="14.44482">
        <ele>344.810822</ele>
        <time>2026-07-12T07:17:31.000Z</time>
      </trkpt>
      <trkpt lat="46.13757" lon="14.44492">
        <ele>344.659779</ele>
        <time>2026-07-12T07:17:37.000Z</time>
      </trkpt>
      <trkpt lat="46.13796" lon="14.44513">
        <ele>343.915118</ele>
        <time>2026-07-12T07:17:48.000Z</time>
      </trkpt>
      <trkpt lat="46.13816" lon="14.44524">
        <ele>343.553712</ele>
        <time>2026-07-12T07:17:53.000Z</time>
      </trkpt>
      <trkpt lat="46.13827" lon="14.44531">
        <ele>343.331581</ele>
        <time>2026-07-12T07:17:56.000Z</time>
      </trkpt>
      <trkpt lat="46.13859" lon="14.44557">
        <ele>342.691586</ele>
        <time>2026-07-12T07:18:04.000Z</time>
      </trkpt>
      <trkpt lat="46.13901" lon="14.44591">
        <ele>341.847612</ele>
        <time>2026-07-12T07:18:14.000Z</time>
      </trkpt>
      <trkpt lat="46.13922" lon="14.44608">
        <ele>341.588552</ele>
        <time>2026-07-12T07:18:19.000Z</time>
      </trkpt>
      <trkpt lat="46.13934" lon="14.44619">
        <ele>341.49279</ele>
        <time>2026-07-12T07:18:22.000Z</time>
      </trkpt>
      <trkpt lat="46.13957" lon="14.44639">
        <ele>341.323124</ele>
        <time>2026-07-12T07:18:27.000Z</time>
      </trkpt>
      <trkpt lat="46.14002" lon="14.44678">
        <ele>340.981455</ele>
        <time>2026-07-12T07:18:38.000Z</time>
      </trkpt>
      <trkpt lat="46.14033" lon="14.44704">
        <ele>340.753132</ele>
        <time>2026-07-12T07:18:46.000Z</time>
      </trkpt>
      <trkpt lat="46.14041" lon="14.44709">
        <ele>340.694805</ele>
        <time>2026-07-12T07:18:48.000Z</time>
      </trkpt>
      <trkpt lat="46.14053" lon="14.44717">
        <ele>340.609662</ele>
        <time>2026-07-12T07:18:51.000Z</time>
      </trkpt>
      <trkpt lat="46.14064" lon="14.44723">
        <ele>340.528399</ele>
        <time>2026-07-12T07:18:54.000Z</time>
      </trkpt>
      <trkpt lat="46.14068" lon="14.44725">
        <ele>340.669571</ele>
        <time>2026-07-12T07:18:55.000Z</time>
      </trkpt>
      <trkpt lat="46.14075" lon="14.44729">
        <ele>341.011335</ele>
        <time>2026-07-12T07:18:57.000Z</time>
      </trkpt>
      <trkpt lat="46.14082" lon="14.4473">
        <ele>341.354442</ele>
        <time>2026-07-12T07:18:59.000Z</time>
      </trkpt>
      <trkpt lat="46.14089" lon="14.4473">
        <ele>341.676497</ele>
        <time>2026-07-12T07:19:01.000Z</time>
      </trkpt>
      <trkpt lat="46.14116" lon="14.44728">
        <ele>342.974785</ele>
        <time>2026-07-12T07:19:07.000Z</time>
      </trkpt>
      <trkpt lat="46.14129" lon="14.44726">
        <ele>343.59805</ele>
        <time>2026-07-12T07:19:10.000Z</time>
      </trkpt>
      <trkpt lat="46.14135" lon="14.44726">
        <ele>343.859158</ele>
        <time>2026-07-12T07:19:11.000Z</time>
      </trkpt>
      <trkpt lat="46.14156" lon="14.44721">
        <ele>344.871922</ele>
        <time>2026-07-12T07:19:15.000Z</time>
      </trkpt>
      <trkpt lat="46.14167" lon="14.44719">
        <ele>345.420661</ele>
        <time>2026-07-12T07:19:17.000Z</time>
      </trkpt>
      <trkpt lat="46.14193" lon="14.44722">
        <ele>346.636268</ele>
        <time>2026-07-12T07:19:21.000Z</time>
      </trkpt>
      <trkpt lat="46.14213" lon="14.44727">
        <ele>347.616365</ele>
        <time>2026-07-12T07:19:25.000Z</time>
      </trkpt>
      <trkpt lat="46.14223" lon="14.4473">
        <ele>348.105064</ele>
        <time>2026-07-12T07:19:27.000Z</time>
      </trkpt>
      <trkpt lat="46.14229" lon="14.44733">
        <ele>348.359003</ele>
        <time>2026-07-12T07:19:28.000Z</time>
      </trkpt>
      <trkpt lat="46.14251" lon="14.44741">
        <ele>349.271387</ele>
        <time>2026-07-12T07:19:33.000Z</time>
      </trkpt>
      <trkpt lat="46.14256" lon="14.44741">
        <ele>349.389236</ele>
        <time>2026-07-12T07:19:34.000Z</time>
      </trkpt>
      <trkpt lat="46.14286" lon="14.44751">
        <ele>350.169474</ele>
        <time>2026-07-12T07:19:40.000Z</time>
      </trkpt>
      <trkpt lat="46.1429" lon="14.44754">
        <ele>350.287108</ele>
        <time>2026-07-12T07:19:41.000Z</time>
      </trkpt>
      <trkpt lat="46.14295" lon="14.44756">
        <ele>350.414104</ele>
        <time>2026-07-12T07:19:42.000Z</time>
      </trkpt>
      <trkpt lat="46.143" lon="14.44758">
        <ele>350.545574</ele>
        <time>2026-07-12T07:19:43.000Z</time>
      </trkpt>
      <trkpt lat="46.14308" lon="14.44763">
        <ele>350.776089</ele>
        <time>2026-07-12T07:19:45.000Z</time>
      </trkpt>
      <trkpt lat="46.14313" lon="14.44763">
        <ele>350.904106</ele>
        <time>2026-07-12T07:19:46.000Z</time>
      </trkpt>
      <trkpt lat="46.14331" lon="14.44769">
        <ele>351.368015</ele>
        <time>2026-07-12T07:19:49.000Z</time>
      </trkpt>
      <trkpt lat="46.14336" lon="14.44771">
        <ele>351.512313</ele>
        <time>2026-07-12T07:19:50.000Z</time>
      </trkpt>
      <trkpt lat="46.14341" lon="14.44773">
        <ele>351.63354</ele>
        <time>2026-07-12T07:19:51.000Z</time>
      </trkpt>
      <trkpt lat="46.14352" lon="14.44778">
        <ele>351.923416</ele>
        <time>2026-07-12T07:19:53.000Z</time>
      </trkpt>
      <trkpt lat="46.14357" lon="14.44781">
        <ele>352.069059</ele>
        <time>2026-07-12T07:19:54.000Z</time>
      </trkpt>
      <trkpt lat="46.14386" lon="14.44791">
        <ele>352.830239</ele>
        <time>2026-07-12T07:20:00.000Z</time>
      </trkpt>
      <trkpt lat="46.14409" lon="14.44804">
        <ele>353.455736</ele>
        <time>2026-07-12T07:20:04.000Z</time>
      </trkpt>
      <trkpt lat="46.14414" lon="14.44807">
        <ele>353.606953</ele>
        <time>2026-07-12T07:20:05.000Z</time>
      </trkpt>
      <trkpt lat="46.14421" lon="14.44812">
        <ele>353.532851</ele>
        <time>2026-07-12T07:20:06.000Z</time>
      </trkpt>
      <trkpt lat="46.14442" lon="14.4483">
        <ele>353.167313</ele>
        <time>2026-07-12T07:20:09.000Z</time>
      </trkpt>
      <trkpt lat="46.14479" lon="14.44871">
        <ele>352.461044</ele>
        <time>2026-07-12T07:20:14.000Z</time>
      </trkpt>
      <trkpt lat="46.1452" lon="14.44938">
        <ele>351.526199</ele>
        <time>2026-07-12T07:20:21.000Z</time>
      </trkpt>
      <trkpt lat="46.14526" lon="14.44946">
        <ele>351.402372</ele>
        <time>2026-07-12T07:20:22.000Z</time>
      </trkpt>
      <trkpt lat="46.14533" lon="14.44952">
        <ele>351.277029</ele>
        <time>2026-07-12T07:20:23.000Z</time>
      </trkpt>
      <trkpt lat="46.14546" lon="14.44966">
        <ele>351.036858</ele>
        <time>2026-07-12T07:20:25.000Z</time>
      </trkpt>
      <trkpt lat="46.14559" lon="14.4497">
        <ele>350.668164</ele>
        <time>2026-07-12T07:20:27.000Z</time>
      </trkpt>
      <trkpt lat="46.1457" lon="14.44975">
        <ele>350.049815</ele>
        <time>2026-07-12T07:20:29.000Z</time>
      </trkpt>
      <trkpt lat="46.14582" lon="14.44978">
        <ele>349.478699</ele>
        <time>2026-07-12T07:20:31.000Z</time>
      </trkpt>
      <trkpt lat="46.14598" lon="14.4498">
        <ele>348.649346</ele>
        <time>2026-07-12T07:20:34.000Z</time>
      </trkpt>
      <trkpt lat="46.14614" lon="14.44975">
        <ele>347.856338</ele>
        <time>2026-07-12T07:20:37.000Z</time>
      </trkpt>
      <trkpt lat="46.14624" lon="14.4497">
        <ele>347.313194</ele>
        <time>2026-07-12T07:20:39.000Z</time>
      </trkpt>
      <trkpt lat="46.14628" lon="14.44967">
        <ele>347.051976</ele>
        <time>2026-07-12T07:20:40.000Z</time>
      </trkpt>
      <trkpt lat="46.14643" lon="14.44959">
        <ele>346.256157</ele>
        <time>2026-07-12T07:20:43.000Z</time>
      </trkpt>
      <trkpt lat="46.14658" lon="14.44951">
        <ele>345.48751</ele>
        <time>2026-07-12T07:20:46.000Z</time>
      </trkpt>
      <trkpt lat="46.14667" lon="14.44946">
        <ele>344.96772</ele>
        <time>2026-07-12T07:20:48.000Z</time>
      </trkpt>
      <trkpt lat="46.1468" lon="14.44938">
        <ele>344.266202</ele>
        <time>2026-07-12T07:20:51.000Z</time>
      </trkpt>
      <trkpt lat="46.14718" lon="14.44916">
        <ele>342.234141</ele>
        <time>2026-07-12T07:20:59.000Z</time>
      </trkpt>
      <trkpt lat="46.14732" lon="14.4491">
        <ele>341.827006</ele>
        <time>2026-07-12T07:21:02.000Z</time>
      </trkpt>
      <trkpt lat="46.14758" lon="14.44895">
        <ele>341.597265</ele>
        <time>2026-07-12T07:21:08.000Z</time>
      </trkpt>
      <trkpt lat="46.14767" lon="14.4489">
        <ele>341.521892</ele>
        <time>2026-07-12T07:21:10.000Z</time>
      </trkpt>
      <trkpt lat="46.14786" lon="14.44881">
        <ele>341.365516</ele>
        <time>2026-07-12T07:21:14.000Z</time>
      </trkpt>
      <trkpt lat="46.14794" lon="14.44876">
        <ele>341.293843</ele>
        <time>2026-07-12T07:21:16.000Z</time>
      </trkpt>
      <trkpt lat="46.14831" lon="14.44854">
        <ele>340.975169</ele>
        <time>2026-07-12T07:21:25.000Z</time>
      </trkpt>
      <trkpt lat="46.14835" lon="14.44851">
        <ele>340.939876</ele>
        <time>2026-07-12T07:21:26.000Z</time>
      </trkpt>
      <trkpt lat="46.14852" lon="14.44838">
        <ele>340.786112</ele>
        <time>2026-07-12T07:21:31.000Z</time>
      </trkpt>
      <trkpt lat="46.14859" lon="14.4483">
        <ele>340.714676</ele>
        <time>2026-07-12T07:21:33.000Z</time>
      </trkpt>
      <trkpt lat="46.14886" lon="14.44795">
        <ele>340.409586</ele>
        <time>2026-07-12T07:21:42.000Z</time>
      </trkpt>
      <trkpt lat="46.14912" lon="14.44757">
        <ele>339.974539</ele>
        <time>2026-07-12T07:21:51.000Z</time>
      </trkpt>
      <trkpt lat="46.14942" lon="14.4472">
        <ele>339.513449</ele>
        <time>2026-07-12T07:22:01.000Z</time>
      </trkpt>
      <trkpt lat="46.14973" lon="14.44679">
        <ele>339.011642</ele>
        <time>2026-07-12T07:22:12.000Z</time>
      </trkpt>
      <trkpt lat="46.14997" lon="14.44649">
        <ele>338.645539</ele>
        <time>2026-07-12T07:22:20.000Z</time>
      </trkpt>
      <trkpt lat="46.15017" lon="14.44632">
        <ele>338.373163</ele>
        <time>2026-07-12T07:22:26.000Z</time>
      </trkpt>
      <trkpt lat="46.15029" lon="14.44609">
        <ele>339.020345</ele>
        <time>2026-07-12T07:22:31.000Z</time>
      </trkpt>
      <trkpt lat="46.15049" lon="14.4458">
        <ele>340.198049</ele>
        <time>2026-07-12T07:22:38.000Z</time>
      </trkpt>
      <trkpt lat="46.1508" lon="14.44546">
        <ele>341.786477</ele>
        <time>2026-07-12T07:22:48.000Z</time>
      </trkpt>
      <trkpt lat="46.15105" lon="14.44528">
        <ele>342.959314</ele>
        <time>2026-07-12T07:22:56.000Z</time>
      </trkpt>
      <trkpt lat="46.15134" lon="14.44521">
        <ele>344.140247</ele>
        <time>2026-07-12T07:23:05.000Z</time>
      </trkpt>
      <trkpt lat="46.15137" lon="14.44521">
        <ele>344.275995</ele>
        <time>2026-07-12T07:23:06.000Z</time>
      </trkpt>
      <trkpt lat="46.15163" lon="14.44522">
        <ele>345.357456</ele>
        <time>2026-07-12T07:23:14.000Z</time>
      </trkpt>
      <trkpt lat="46.1517" lon="14.44523">
        <ele>345.633059</ele>
        <time>2026-07-12T07:23:16.000Z</time>
      </trkpt>
      <trkpt lat="46.15186" lon="14.44527">
        <ele>346.654639</ele>
        <time>2026-07-12T07:23:21.000Z</time>
      </trkpt>
      <trkpt lat="46.15189" lon="14.44528">
        <ele>346.872435</ele>
        <time>2026-07-12T07:23:22.000Z</time>
      </trkpt>
      <trkpt lat="46.15219" lon="14.44536">
        <ele>348.942299</ele>
        <time>2026-07-12T07:23:32.000Z</time>
      </trkpt>
      <trkpt lat="46.15252" lon="14.44543">
        <ele>351.167254</ele>
        <time>2026-07-12T07:23:43.000Z</time>
      </trkpt>
      <trkpt lat="46.15269" lon="14.44547">
        <ele>352.300322</ele>
        <time>2026-07-12T07:23:49.000Z</time>
      </trkpt>
      <trkpt lat="46.15277" lon="14.44547">
        <ele>352.844247</ele>
        <time>2026-07-12T07:23:52.000Z</time>
      </trkpt>
      <trkpt lat="46.15296" lon="14.44549">
        <ele>354.135549</ele>
        <time>2026-07-12T07:23:59.000Z</time>
      </trkpt>
      <trkpt lat="46.15324" lon="14.44559">
        <ele>356.061202</ele>
        <time>2026-07-12T07:24:09.000Z</time>
      </trkpt>
      <trkpt lat="46.1534" lon="14.44561">
        <ele>357.151589</ele>
        <time>2026-07-12T07:24:15.000Z</time>
      </trkpt>
      <trkpt lat="46.15361" lon="14.4456">
        <ele>358.109256</ele>
        <time>2026-07-12T07:24:22.000Z</time>
      </trkpt>
      <trkpt lat="46.15391" lon="14.44553">
        <ele>358.944693</ele>
        <time>2026-07-12T07:24:32.000Z</time>
      </trkpt>
      <trkpt lat="46.15418" lon="14.44545">
        <ele>359.705539</ele>
        <time>2026-07-12T07:24:41.000Z</time>
      </trkpt>
      <trkpt lat="46.15452" lon="14.44534">
        <ele>360.644759</ele>
        <time>2026-07-12T07:24:52.000Z</time>
      </trkpt>
      <trkpt lat="46.15478" lon="14.44527">
        <ele>361.396763</ele>
        <time>2026-07-12T07:25:01.000Z</time>
      </trkpt>
      <trkpt lat="46.1551" lon="14.44519">
        <ele>362.284799</ele>
        <time>2026-07-12T07:25:11.000Z</time>
      </trkpt>
      <trkpt lat="46.15536" lon="14.44517">
        <ele>362.900913</ele>
        <time>2026-07-12T07:25:19.000Z</time>
      </trkpt>
      <trkpt lat="46.15564" lon="14.44515">
        <ele>363.393377</ele>
        <time>2026-07-12T07:25:28.000Z</time>
      </trkpt>
      <trkpt lat="46.15586" lon="14.44511">
        <ele>363.770861</ele>
        <time>2026-07-12T07:25:35.000Z</time>
      </trkpt>
      <trkpt lat="46.15613" lon="14.44499">
        <ele>364.257409</ele>
        <time>2026-07-12T07:25:44.000Z</time>
      </trkpt>
      <trkpt lat="46.15627" lon="14.44483">
        <ele>364.57648</ele>
        <time>2026-07-12T07:25:50.000Z</time>
      </trkpt>
      <trkpt lat="46.15648" lon="14.44458">
        <ele>365.044863</ele>
        <time>2026-07-12T07:25:59.000Z</time>
      </trkpt>
      <trkpt lat="46.15672" lon="14.44435">
        <ele>365.544325</ele>
        <time>2026-07-12T07:26:07.000Z</time>
      </trkpt>
      <trkpt lat="46.15694" lon="14.44418">
        <ele>365.71033</ele>
        <time>2026-07-12T07:26:14.000Z</time>
      </trkpt>
      <trkpt lat="46.15702" lon="14.44416">
        <ele>365.520017</ele>
        <time>2026-07-12T07:26:16.000Z</time>
      </trkpt>
      <trkpt lat="46.15714" lon="14.44413">
        <ele>365.240217</ele>
        <time>2026-07-12T07:26:19.000Z</time>
      </trkpt>
      <trkpt lat="46.15722" lon="14.4441">
        <ele>365.041467</ele>
        <time>2026-07-12T07:26:21.000Z</time>
      </trkpt>
      <trkpt lat="46.15746" lon="14.44398">
        <ele>364.436148</ele>
        <time>2026-07-12T07:26:27.000Z</time>
      </trkpt>
      <trkpt lat="46.1575" lon="14.44394">
        <ele>364.333654</ele>
        <time>2026-07-12T07:26:28.000Z</time>
      </trkpt>
      <trkpt lat="46.15757" lon="14.44385">
        <ele>364.116237</ele>
        <time>2026-07-12T07:26:30.000Z</time>
      </trkpt>
      <trkpt lat="46.15765" lon="14.44368">
        <ele>363.78141</ele>
        <time>2026-07-12T07:26:33.000Z</time>
      </trkpt>
      <trkpt lat="46.15766" lon="14.44362">
        <ele>363.666008</ele>
        <time>2026-07-12T07:26:34.000Z</time>
      </trkpt>
      <trkpt lat="46.15776" lon="14.44313">
        <ele>362.824154</ele>
        <time>2026-07-12T07:26:41.000Z</time>
      </trkpt>
      <trkpt lat="46.15789" lon="14.44255">
        <ele>361.83265</ele>
        <time>2026-07-12T07:26:50.000Z</time>
      </trkpt>
      <trkpt lat="46.15797" lon="14.4423">
        <ele>361.781167</ele>
        <time>2026-07-12T07:26:55.000Z</time>
      </trkpt>
      <trkpt lat="46.158" lon="14.44225">
        <ele>361.848708</ele>
        <time>2026-07-12T07:26:56.000Z</time>
      </trkpt>
      <trkpt lat="46.15815" lon="14.44199">
        <ele>362.231808</ele>
        <time>2026-07-12T07:27:02.000Z</time>
      </trkpt>
      <trkpt lat="46.15834" lon="14.44175">
        <ele>362.643446</ele>
        <time>2026-07-12T07:27:09.000Z</time>
      </trkpt>
      <trkpt lat="46.15853" lon="14.44154">
        <ele>363.03321</ele>
        <time>2026-07-12T07:27:16.000Z</time>
      </trkpt>
      <trkpt lat="46.15859" lon="14.44148">
        <ele>363.143793</ele>
        <time>2026-07-12T07:27:18.000Z</time>
      </trkpt>
      <trkpt lat="46.15885" lon="14.44123">
        <ele>363.653029</ele>
        <time>2026-07-12T07:27:27.000Z</time>
      </trkpt>
      <trkpt lat="46.15907" lon="14.44101">
        <ele>364.079584</ele>
        <time>2026-07-12T07:27:35.000Z</time>
      </trkpt>
      <trkpt lat="46.15928" lon="14.4408">
        <ele>364.496959</ele>
        <time>2026-07-12T07:27:43.000Z</time>
      </trkpt>
      <trkpt lat="46.1594" lon="14.44066">
        <ele>365.356216</ele>
        <time>2026-07-12T07:27:48.000Z</time>
      </trkpt>
      <trkpt lat="46.15959" lon="14.44048">
        <ele>366.691932</ele>
        <time>2026-07-12T07:27:55.000Z</time>
      </trkpt>
      <trkpt lat="46.15986" lon="14.44019">
        <ele>368.7389</ele>
        <time>2026-07-12T07:28:06.000Z</time>
      </trkpt>
      <trkpt lat="46.1601" lon="14.43997">
        <ele>370.423831</ele>
        <time>2026-07-12T07:28:15.000Z</time>
      </trkpt>
      <trkpt lat="46.16034" lon="14.43972">
        <ele>372.200851</ele>
        <time>2026-07-12T07:28:24.000Z</time>
      </trkpt>
      <trkpt lat="46.16057" lon="14.43948">
        <ele>373.938369</ele>
        <time>2026-07-12T07:28:33.000Z</time>
      </trkpt>
      <trkpt lat="46.16078" lon="14.43926">
        <ele>375.419054</ele>
        <time>2026-07-12T07:28:41.000Z</time>
      </trkpt>
      <trkpt lat="46.16103" lon="14.439">
        <ele>376.372703</ele>
        <time>2026-07-12T07:28:50.000Z</time>
      </trkpt>
      <trkpt lat="46.16117" lon="14.43885">
        <ele>376.912736</ele>
        <time>2026-07-12T07:28:55.000Z</time>
      </trkpt>
      <trkpt lat="46.16131" lon="14.43865">
        <ele>377.530474</ele>
        <time>2026-07-12T07:29:01.000Z</time>
      </trkpt>
      <trkpt lat="46.16143" lon="14.43843">
        <ele>378.138231</ele>
        <time>2026-07-12T07:29:06.000Z</time>
      </trkpt>
      <trkpt lat="46.16163" lon="14.43804">
        <ele>379.195029</ele>
        <time>2026-07-12T07:29:14.000Z</time>
      </trkpt>
      <trkpt lat="46.16175" lon="14.43773">
        <ele>379.968887</ele>
        <time>2026-07-12T07:29:19.000Z</time>
      </trkpt>
      <trkpt lat="46.16185" lon="14.43755">
        <ele>380.456392</ele>
        <time>2026-07-12T07:29:22.000Z</time>
      </trkpt>
      <trkpt lat="46.1619" lon="14.43743">
        <ele>380.781</ele>
        <time>2026-07-12T07:29:24.000Z</time>
      </trkpt>
      <trkpt lat="46.16199" lon="14.43725">
        <ele>380.793988</ele>
        <time>2026-07-12T07:29:27.000Z</time>
      </trkpt>
      <trkpt lat="46.16221" lon="14.43682">
        <ele>380.015384</ele>
        <time>2026-07-12T07:29:35.000Z</time>
      </trkpt>
      <trkpt lat="46.16251" lon="14.43618">
        <ele>378.882556</ele>
        <time>2026-07-12T07:29:47.000Z</time>
      </trkpt>
      <trkpt lat="46.16265" lon="14.43587">
        <ele>378.341998</ele>
        <time>2026-07-12T07:29:53.000Z</time>
      </trkpt>
      <trkpt lat="46.16267" lon="14.43582">
        <ele>378.251843</ele>
        <time>2026-07-12T07:29:54.000Z</time>
      </trkpt>
      <trkpt lat="46.16271" lon="14.43571">
        <ele>378.075388</ele>
        <time>2026-07-12T07:29:56.000Z</time>
      </trkpt>
      <trkpt lat="46.16275" lon="14.43561">
        <ele>377.904863</ele>
        <time>2026-07-12T07:29:58.000Z</time>
      </trkpt>
      <trkpt lat="46.16279" lon="14.43551">
        <ele>377.740062</ele>
        <time>2026-07-12T07:30:00.000Z</time>
      </trkpt>
      <trkpt lat="46.16286" lon="14.43545">
        <ele>377.570684</ele>
        <time>2026-07-12T07:30:02.000Z</time>
      </trkpt>
      <trkpt lat="46.1629" lon="14.43542">
        <ele>377.468642</ele>
        <time>2026-07-12T07:30:03.000Z</time>
      </trkpt>
      <trkpt lat="46.163" lon="14.43533">
        <ele>377.219011</ele>
        <time>2026-07-12T07:30:06.000Z</time>
      </trkpt>
      <trkpt lat="46.16312" lon="14.43526">
        <ele>377.328188</ele>
        <time>2026-07-12T07:30:09.000Z</time>
      </trkpt>
      <trkpt lat="46.16316" lon="14.43526">
        <ele>377.385956</ele>
        <time>2026-07-12T07:30:10.000Z</time>
      </trkpt>
      <trkpt lat="46.16324" lon="14.43525">
        <ele>377.496283</ele>
        <time>2026-07-12T07:30:12.000Z</time>
      </trkpt>
      <trkpt lat="46.16339" lon="14.43528">
        <ele>377.698379</ele>
        <time>2026-07-12T07:30:16.000Z</time>
      </trkpt>
      <trkpt lat="46.16349" lon="14.43533">
        <ele>377.837419</ele>
        <time>2026-07-12T07:30:20.000Z</time>
      </trkpt>
      <trkpt lat="46.16356" lon="14.43536">
        <ele>377.941757</ele>
        <time>2026-07-12T07:30:23.000Z</time>
      </trkpt>
      <trkpt lat="46.16365" lon="14.43542">
        <ele>378.0662</ele>
        <time>2026-07-12T07:30:26.000Z</time>
      </trkpt>
      <trkpt lat="46.16369" lon="14.43544">
        <ele>378.124186</ele>
        <time>2026-07-12T07:30:28.000Z</time>
      </trkpt>
      <trkpt lat="46.1637" lon="14.43544">
        <ele>378.145625</ele>
        <time>2026-07-12T07:30:30.000Z</time>
      </trkpt>
      <trkpt lat="46.1637" lon="14.43544">
        <ele>378.145625</ele>
        <time>2026-07-12T07:30:31.000Z</time>
      </trkpt>
      <trkpt lat="46.16369" lon="14.43538">
        <ele>378.198425</ele>
        <time>2026-07-12T07:30:34.000Z</time>
      </trkpt>
      <trkpt lat="46.16367" lon="14.43537">
        <ele>378.227914</ele>
        <time>2026-07-12T07:30:35.000Z</time>
      </trkpt>
      <trkpt lat="46.16349" lon="14.43524">
        <ele>378.491671</ele>
        <time>2026-07-12T07:30:42.000Z</time>
      </trkpt>
      <trkpt lat="46.1633" lon="14.43518">
        <ele>378.760092</ele>
        <time>2026-07-12T07:30:48.000Z</time>
      </trkpt>
      <trkpt lat="46.16315" lon="14.43518">
        <ele>378.965317</ele>
        <time>2026-07-12T07:30:55.000Z</time>
      </trkpt>
      <trkpt lat="46.16315" lon="14.43518">
        <ele>378.965317</ele>
        <time>2026-07-12T07:30:57.000Z</time>
      </trkpt>
      <trkpt lat="46.16313" lon="14.43522">
        <ele>379.008373</ele>
        <time>2026-07-12T07:32:06.000Z</time>
      </trkpt>
      <trkpt lat="46.16314" lon="14.43524">
        <ele>379.03438</ele>
        <time>2026-07-12T07:32:07.000Z</time>
      </trkpt>
      <trkpt lat="46.16323" lon="14.43526">
        <ele>379.153671</ele>
        <time>2026-07-12T07:32:11.000Z</time>
      </trkpt>
      <trkpt lat="46.16338" lon="14.43526">
        <ele>379.362817</ele>
        <time>2026-07-12T07:32:17.000Z</time>
      </trkpt>
      <trkpt lat="46.16357" lon="14.43537">
        <ele>379.497071</ele>
        <time>2026-07-12T07:32:22.000Z</time>
      </trkpt>
      <trkpt lat="46.16361" lon="14.43539">
        <ele>379.334239</ele>
        <time>2026-07-12T07:32:23.000Z</time>
      </trkpt>
      <trkpt lat="46.16376" lon="14.43541">
        <ele>378.764675</ele>
        <time>2026-07-12T07:32:26.000Z</time>
      </trkpt>
      <trkpt lat="46.16386" lon="14.43536">
        <ele>378.378737</ele>
        <time>2026-07-12T07:32:28.000Z</time>
      </trkpt>
      <trkpt lat="46.16394" lon="14.43525">
        <ele>377.995127</ele>
        <time>2026-07-12T07:32:30.000Z</time>
      </trkpt>
      <trkpt lat="46.16406" lon="14.43502">
        <ele>377.229532</ele>
        <time>2026-07-12T07:32:33.000Z</time>
      </trkpt>
      <trkpt lat="46.16413" lon="14.43487">
        <ele>376.769159</ele>
        <time>2026-07-12T07:32:35.000Z</time>
      </trkpt>
      <trkpt lat="46.16422" lon="14.43472">
        <ele>376.265613</ele>
        <time>2026-07-12T07:32:37.000Z</time>
      </trkpt>
      <trkpt lat="46.16434" lon="14.43461">
        <ele>375.739179</ele>
        <time>2026-07-12T07:32:39.000Z</time>
      </trkpt>
      <trkpt lat="46.16441" lon="14.43455">
        <ele>375.4477</ele>
        <time>2026-07-12T07:32:40.000Z</time>
      </trkpt>
      <trkpt lat="46.16465" lon="14.4344">
        <ele>374.473738</ele>
        <time>2026-07-12T07:32:43.000Z</time>
      </trkpt>
      <trkpt lat="46.16502" lon="14.43418">
        <ele>373.014676</ele>
        <time>2026-07-12T07:32:47.000Z</time>
      </trkpt>
      <trkpt lat="46.16511" lon="14.43413">
        <ele>372.55567</ele>
        <time>2026-07-12T07:32:48.000Z</time>
      </trkpt>
      <trkpt lat="46.1656" lon="14.43401">
        <ele>370.223447</ele>
        <time>2026-07-12T07:32:53.000Z</time>
      </trkpt>
      <trkpt lat="46.166" lon="14.43385">
        <ele>368.239243</ele>
        <time>2026-07-12T07:32:57.000Z</time>
      </trkpt>
      <trkpt lat="46.16609" lon="14.43381">
        <ele>367.771011</ele>
        <time>2026-07-12T07:32:58.000Z</time>
      </trkpt>
      <trkpt lat="46.16648" lon="14.43375">
        <ele>365.914773</ele>
        <time>2026-07-12T07:33:02.000Z</time>
      </trkpt>
      <trkpt lat="46.16693" lon="14.4338">
        <ele>364.164643</ele>
        <time>2026-07-12T07:33:07.000Z</time>
      </trkpt>
      <trkpt lat="46.16709" lon="14.43382">
        <ele>363.855879</ele>
        <time>2026-07-12T07:33:09.000Z</time>
      </trkpt>
      <trkpt lat="46.16732" lon="14.43386">
        <ele>363.433355</ele>
        <time>2026-07-12T07:33:12.000Z</time>
      </trkpt>
      <trkpt lat="46.16771" lon="14.43378">
        <ele>362.716853</ele>
        <time>2026-07-12T07:33:17.000Z</time>
      </trkpt>
      <trkpt lat="46.16805" lon="14.43364">
        <ele>362.070956</ele>
        <time>2026-07-12T07:33:22.000Z</time>
      </trkpt>
      <trkpt lat="46.16813" lon="14.43364">
        <ele>361.935755</ele>
        <time>2026-07-12T07:33:23.000Z</time>
      </trkpt>
      <trkpt lat="46.16846" lon="14.4337">
        <ele>361.326046</ele>
        <time>2026-07-12T07:33:28.000Z</time>
      </trkpt>
      <trkpt lat="46.16862" lon="14.43373">
        <ele>360.984786</ele>
        <time>2026-07-12T07:33:32.000Z</time>
      </trkpt>
      <trkpt lat="46.16867" lon="14.43374">
        <ele>360.848145</ele>
        <time>2026-07-12T07:33:36.000Z</time>
      </trkpt>
      <trkpt lat="46.16866" lon="14.43381">
        <ele>360.721949</ele>
        <time>2026-07-12T07:33:48.000Z</time>
      </trkpt>
      <trkpt lat="46.16867" lon="14.43382">
        <ele>360.69448</ele>
        <time>2026-07-12T07:33:50.000Z</time>
      </trkpt>
      <trkpt lat="46.16871" lon="14.43385">
        <ele>360.57559</ele>
        <time>2026-07-12T07:33:54.000Z</time>
      </trkpt>
      <trkpt lat="46.16874" lon="14.43378">
        <ele>360.425536</ele>
        <time>2026-07-12T07:33:56.000Z</time>
      </trkpt>
      <trkpt lat="46.16876" lon="14.4336">
        <ele>360.0916</ele>
        <time>2026-07-12T07:33:59.000Z</time>
      </trkpt>
      <trkpt lat="46.16876" lon="14.43353">
        <ele>359.967648</ele>
        <time>2026-07-12T07:34:00.000Z</time>
      </trkpt>
      <trkpt lat="46.16876" lon="14.43346">
        <ele>359.844137</ele>
        <time>2026-07-12T07:34:01.000Z</time>
      </trkpt>
      <trkpt lat="46.16869" lon="14.43317">
        <ele>359.279039</ele>
        <time>2026-07-12T07:34:05.000Z</time>
      </trkpt>
      <trkpt lat="46.16859" lon="14.43264">
        <ele>358.285058</ele>
        <time>2026-07-12T07:34:11.000Z</time>
      </trkpt>
      <trkpt lat="46.1685" lon="14.43191">
        <ele>356.924414</ele>
        <time>2026-07-12T07:34:19.000Z</time>
      </trkpt>
      <trkpt lat="46.16834" lon="14.43136">
        <ele>355.730653</ele>
        <time>2026-07-12T07:34:26.000Z</time>
      </trkpt>
      <trkpt lat="46.16809" lon="14.43079">
        <ele>354.254419</ele>
        <time>2026-07-12T07:34:34.000Z</time>
      </trkpt>
      <trkpt lat="46.16803" lon="14.43065">
        <ele>353.897606</ele>
        <time>2026-07-12T07:34:36.000Z</time>
      </trkpt>
      <trkpt lat="46.16774" lon="14.43">
        <ele>352.218673</ele>
        <time>2026-07-12T07:34:45.000Z</time>
      </trkpt>
      <trkpt lat="46.16751" lon="14.42937">
        <ele>350.709454</ele>
        <time>2026-07-12T07:34:54.000Z</time>
      </trkpt>
      <trkpt lat="46.16737" lon="14.42897">
        <ele>350.399906</ele>
        <time>2026-07-12T07:35:01.000Z</time>
      </trkpt>
      <trkpt lat="46.16733" lon="14.42877">
        <ele>350.255744</ele>
        <time>2026-07-12T07:35:05.000Z</time>
      </trkpt>
      <trkpt lat="46.16734" lon="14.42872">
        <ele>350.221281</ele>
        <time>2026-07-12T07:35:06.000Z</time>
      </trkpt>
      <trkpt lat="46.16737" lon="14.42864">
        <ele>350.158085</ele>
        <time>2026-07-12T07:35:08.000Z</time>
      </trkpt>
      <trkpt lat="46.16737" lon="14.42849">
        <ele>350.050739</ele>
        <time>2026-07-12T07:35:12.000Z</time>
      </trkpt>
      <trkpt lat="46.16728" lon="14.42827">
        <ele>349.877382</ele>
        <time>2026-07-12T07:35:17.000Z</time>
      </trkpt>
      <trkpt lat="46.16716" lon="14.42823">
        <ele>349.751161</ele>
        <time>2026-07-12T07:35:22.000Z</time>
      </trkpt>
      <trkpt lat="46.16706" lon="14.42806">
        <ele>349.595165</ele>
        <time>2026-07-12T07:35:27.000Z</time>
      </trkpt>
      <trkpt lat="46.16696" lon="14.42785">
        <ele>349.426586</ele>
        <time>2026-07-12T07:35:31.000Z</time>
      </trkpt>
      <trkpt lat="46.16693" lon="14.42776">
        <ele>349.351599</ele>
        <time>2026-07-12T07:35:33.000Z</time>
      </trkpt>
      <trkpt lat="46.16667" lon="14.42709">
        <ele>348.571798</ele>
        <time>2026-07-12T07:35:44.000Z</time>
      </trkpt>
      <trkpt lat="46.16645" lon="14.42665">
        <ele>347.376994</ele>
        <time>2026-07-12T07:35:50.000Z</time>
      </trkpt>
      <trkpt lat="46.16633" lon="14.42652">
        <ele>346.91559</ele>
        <time>2026-07-12T07:35:52.000Z</time>
      </trkpt>
      <trkpt lat="46.16621" lon="14.42644">
        <ele>346.477136</ele>
        <time>2026-07-12T07:35:54.000Z</time>
      </trkpt>
      <trkpt lat="46.16607" lon="14.42641">
        <ele>346.020616</ele>
        <time>2026-07-12T07:35:56.000Z</time>
      </trkpt>
      <trkpt lat="46.16591" lon="14.42643">
        <ele>345.525467</ele>
        <time>2026-07-12T07:35:58.000Z</time>
      </trkpt>
      <trkpt lat="46.16567" lon="14.42656">
        <ele>344.703873</ele>
        <time>2026-07-12T07:36:02.000Z</time>
      </trkpt>
      <trkpt lat="46.16551" lon="14.42661">
        <ele>344.183244</ele>
        <time>2026-07-12T07:36:03.000Z</time>
      </trkpt>
      <trkpt lat="46.16543" lon="14.42661">
        <ele>343.930919</ele>
        <time>2026-07-12T07:36:05.000Z</time>
      </trkpt>
      <trkpt lat="46.1653" lon="14.42654">
        <ele>343.471299</ele>
        <time>2026-07-12T07:36:06.000Z</time>
      </trkpt>
      <trkpt lat="46.16525" lon="14.42648">
        <ele>343.289306</ele>
        <time>2026-07-12T07:36:07.000Z</time>
      </trkpt>
      <trkpt lat="46.16514" lon="14.42634">
        <ele>343.139608</ele>
        <time>2026-07-12T07:36:09.000Z</time>
      </trkpt>
      <trkpt lat="46.16504" lon="14.42618">
        <ele>343.070464</ele>
        <time>2026-07-12T07:36:11.000Z</time>
      </trkpt>
      <trkpt lat="46.16475" lon="14.42571">
        <ele>342.867077</ele>
        <time>2026-07-12T07:36:18.000Z</time>
      </trkpt>
      <trkpt lat="46.1645" lon="14.42528">
        <ele>342.688361</ele>
        <time>2026-07-12T07:36:25.000Z</time>
      </trkpt>
      <trkpt lat="46.16434" lon="14.42511">
        <ele>342.593491</ele>
        <time>2026-07-12T07:36:30.000Z</time>
      </trkpt>
      <trkpt lat="46.1642" lon="14.42507">
        <ele>342.530207</ele>
        <time>2026-07-12T07:36:34.000Z</time>
      </trkpt>
      <trkpt lat="46.16398" lon="14.42511">
        <ele>342.425906</ele>
        <time>2026-07-12T07:36:39.000Z</time>
      </trkpt>
      <trkpt lat="46.16383" lon="14.4252">
        <ele>342.504649</ele>
        <time>2026-07-12T07:36:43.000Z</time>
      </trkpt>
      <trkpt lat="46.16375" lon="14.42526">
        <ele>343.082651</ele>
        <time>2026-07-12T07:36:45.000Z</time>
      </trkpt>
      <trkpt lat="46.16368" lon="14.42529">
        <ele>343.497109</ele>
        <time>2026-07-12T07:36:47.000Z</time>
      </trkpt>
      <trkpt lat="46.16365" lon="14.42527">
        <ele>343.74467</ele>
        <time>2026-07-12T07:36:49.000Z</time>
      </trkpt>
      <trkpt lat="46.16366" lon="14.42523">
        <ele>343.934121</ele>
        <time>2026-07-12T07:36:51.000Z</time>
      </trkpt>
      <trkpt lat="46.16367" lon="14.42521">
        <ele>344.044266</ele>
        <time>2026-07-12T07:36:53.000Z</time>
      </trkpt>
      <trkpt lat="46.16367" lon="14.42521">
        <ele>344.044266</ele>
        <time>2026-07-12T07:36:54.000Z</time>
      </trkpt>
      <trkpt lat="46.1637" lon="14.42512">
        <ele>344.485575</ele>
        <time>2026-07-12T07:40:52.000Z</time>
      </trkpt>
      <trkpt lat="46.16375" lon="14.42509">
        <ele>344.841426</ele>
        <time>2026-07-12T07:40:54.000Z</time>
      </trkpt>
      <trkpt lat="46.16385" lon="14.42497">
        <ele>345.634952</ele>
        <time>2026-07-12T07:40:59.000Z</time>
      </trkpt>
      <trkpt lat="46.16387" lon="14.42494">
        <ele>345.821968</ele>
        <time>2026-07-12T07:41:00.000Z</time>
      </trkpt>
      <trkpt lat="46.16402" lon="14.42473">
        <ele>347.0961</ele>
        <time>2026-07-12T07:41:06.000Z</time>
      </trkpt>
      <trkpt lat="46.16404" lon="14.4247">
        <ele>347.317454</ele>
        <time>2026-07-12T07:41:07.000Z</time>
      </trkpt>
      <trkpt lat="46.16424" lon="14.42443">
        <ele>349.019298</ele>
        <time>2026-07-12T07:41:14.000Z</time>
      </trkpt>
      <trkpt lat="46.16439" lon="14.42417">
        <ele>350.47608</ele>
        <time>2026-07-12T07:41:20.000Z</time>
      </trkpt>
      <trkpt lat="46.16455" lon="14.42395">
        <ele>351.829528</ele>
        <time>2026-07-12T07:41:26.000Z</time>
      </trkpt>
      <trkpt lat="46.1647" lon="14.42367">
        <ele>353.375967</ele>
        <time>2026-07-12T07:41:33.000Z</time>
      </trkpt>
      <trkpt lat="46.16485" lon="14.42348">
        <ele>354.115553</ele>
        <time>2026-07-12T07:41:39.000Z</time>
      </trkpt>
      <trkpt lat="46.165" lon="14.42325">
        <ele>354.825541</ele>
        <time>2026-07-12T07:41:45.000Z</time>
      </trkpt>
      <trkpt lat="46.16511" lon="14.42312">
        <ele>355.298563</ele>
        <time>2026-07-12T07:41:49.000Z</time>
      </trkpt>
      <trkpt lat="46.16523" lon="14.42292">
        <ele>355.90057</ele>
        <time>2026-07-12T07:41:53.000Z</time>
      </trkpt>
      <trkpt lat="46.16538" lon="14.42265">
        <ele>356.685266</ele>
        <time>2026-07-12T07:41:59.000Z</time>
      </trkpt>
      <trkpt lat="46.16541" lon="14.4226">
        <ele>356.827151</ele>
        <time>2026-07-12T07:42:00.000Z</time>
      </trkpt>
      <trkpt lat="46.16545" lon="14.4225">
        <ele>357.092236</ele>
        <time>2026-07-12T07:42:02.000Z</time>
      </trkpt>
      <trkpt lat="46.16568" lon="14.42223">
        <ele>358.060982</ele>
        <time>2026-07-12T07:42:09.000Z</time>
      </trkpt>
      <trkpt lat="46.16582" lon="14.42211">
        <ele>358.593381</ele>
        <time>2026-07-12T07:42:13.000Z</time>
      </trkpt>
      <trkpt lat="46.16586" lon="14.42206">
        <ele>358.743907</ele>
        <time>2026-07-12T07:42:14.000Z</time>
      </trkpt>
      <trkpt lat="46.16603" lon="14.42184">
        <ele>359.467188</ele>
        <time>2026-07-12T07:42:19.000Z</time>
      </trkpt>
      <trkpt lat="46.16616" lon="14.42163">
        <ele>359.651241</ele>
        <time>2026-07-12T07:42:23.000Z</time>
      </trkpt>
      <trkpt lat="46.16621" lon="14.42156">
        <ele>359.716112</ele>
        <time>2026-07-12T07:42:25.000Z</time>
      </trkpt>
      <trkpt lat="46.1663" lon="14.42132">
        <ele>359.892884</ele>
        <time>2026-07-12T07:42:29.000Z</time>
      </trkpt>
      <trkpt lat="46.16639" lon="14.42103">
        <ele>360.09319</ele>
        <time>2026-07-12T07:42:34.000Z</time>
      </trkpt>
      <trkpt lat="46.16647" lon="14.42077">
        <ele>360.278872</ele>
        <time>2026-07-12T07:42:39.000Z</time>
      </trkpt>
      <trkpt lat="46.1666" lon="14.42046">
        <ele>360.517415</ele>
        <time>2026-07-12T07:42:46.000Z</time>
      </trkpt>
      <trkpt lat="46.16676" lon="14.42019">
        <ele>360.743057</ele>
        <time>2026-07-12T07:42:53.000Z</time>
      </trkpt>
      <trkpt lat="46.16681" lon="14.42011">
        <ele>360.810991</ele>
        <time>2026-07-12T07:42:55.000Z</time>
      </trkpt>
      <trkpt lat="46.16687" lon="14.42">
        <ele>360.904835</ele>
        <time>2026-07-12T07:42:58.000Z</time>
      </trkpt>
      <trkpt lat="46.1669" lon="14.41997">
        <ele>360.934306</ele>
        <time>2026-07-12T07:42:59.000Z</time>
      </trkpt>
      <trkpt lat="46.16692" lon="14.41995">
        <ele>360.959233</ele>
        <time>2026-07-12T07:43:00.000Z</time>
      </trkpt>
      <trkpt lat="46.16709" lon="14.41969">
        <ele>360.853521</ele>
        <time>2026-07-12T07:43:06.000Z</time>
      </trkpt>
      <trkpt lat="46.16724" lon="14.41952">
        <ele>360.127651</ele>
        <time>2026-07-12T07:43:11.000Z</time>
      </trkpt>
      <trkpt lat="46.16735" lon="14.41932">
        <ele>359.427515</ele>
        <time>2026-07-12T07:43:15.000Z</time>
      </trkpt>
      <trkpt lat="46.16748" lon="14.41903">
        <ele>358.524672</ele>
        <time>2026-07-12T07:43:21.000Z</time>
      </trkpt>
      <trkpt lat="46.16753" lon="14.41893">
        <ele>358.195847</ele>
        <time>2026-07-12T07:43:23.000Z</time>
      </trkpt>
      <trkpt lat="46.16771" lon="14.41871">
        <ele>357.268362</ele>
        <time>2026-07-12T07:43:28.000Z</time>
      </trkpt>
      <trkpt lat="46.16793" lon="14.41837">
        <ele>356.014971</ele>
        <time>2026-07-12T07:43:36.000Z</time>
      </trkpt>
      <trkpt lat="46.16805" lon="14.41803">
        <ele>355.013978</ele>
        <time>2026-07-12T07:43:42.000Z</time>
      </trkpt>
      <trkpt lat="46.16815" lon="14.4178">
        <ele>354.27355</ele>
        <time>2026-07-12T07:43:47.000Z</time>
      </trkpt>
      <trkpt lat="46.16823" lon="14.41754">
        <ele>354.129897</ele>
        <time>2026-07-12T07:43:52.000Z</time>
      </trkpt>
      <trkpt lat="46.16824" lon="14.4175">
        <ele>354.12327</ele>
        <time>2026-07-12T07:43:53.000Z</time>
      </trkpt>
      <trkpt lat="46.16828" lon="14.41723">
        <ele>354.08731</ele>
        <time>2026-07-12T07:43:58.000Z</time>
      </trkpt>
      <trkpt lat="46.1683" lon="14.41702">
        <ele>354.059295</ele>
        <time>2026-07-12T07:44:02.000Z</time>
      </trkpt>
      <trkpt lat="46.16835" lon="14.41686">
        <ele>354.036981</ele>
        <time>2026-07-12T07:44:05.000Z</time>
      </trkpt>
      <trkpt lat="46.1684" lon="14.41675">
        <ele>354.019672</ele>
        <time>2026-07-12T07:44:07.000Z</time>
      </trkpt>
      <trkpt lat="46.16847" lon="14.41659">
        <ele>353.995312</ele>
        <time>2026-07-12T07:44:10.000Z</time>
      </trkpt>
      <trkpt lat="46.16858" lon="14.41638">
        <ele>353.961527</ele>
        <time>2026-07-12T07:44:15.000Z</time>
      </trkpt>
      <trkpt lat="46.16864" lon="14.41631">
        <ele>353.946289</ele>
        <time>2026-07-12T07:44:19.000Z</time>
      </trkpt>
      <trkpt lat="46.16864" lon="14.41631">
        <ele>353.946289</ele>
        <time>2026-07-12T07:44:20.000Z</time>
      </trkpt>
      <trkpt lat="46.16864" lon="14.41626">
        <ele>353.940769</ele>
        <time>2026-07-12T07:55:52.000Z</time>
      </trkpt>
      <trkpt lat="46.16865" lon="14.41624">
        <ele>353.937605</ele>
        <time>2026-07-12T07:55:53.000Z</time>
      </trkpt>
      <trkpt lat="46.16867" lon="14.41619">
        <ele>353.930035</ele>
        <time>2026-07-12T07:55:55.000Z</time>
      </trkpt>
      <trkpt lat="46.16875" lon="14.41598">
        <ele>353.897852</ele>
        <time>2026-07-12T07:56:00.000Z</time>
      </trkpt>
      <trkpt lat="46.16893" lon="14.41561">
        <ele>353.838742</ele>
        <time>2026-07-12T07:56:09.000Z</time>
      </trkpt>
      <trkpt lat="46.16897" lon="14.41551">
        <ele>353.824339</ele>
        <time>2026-07-12T07:56:11.000Z</time>
      </trkpt>
      <trkpt lat="46.16912" lon="14.41521">
        <ele>354.182807</ele>
        <time>2026-07-12T07:56:18.000Z</time>
      </trkpt>
      <trkpt lat="46.16927" lon="14.41488">
        <ele>354.59432</ele>
        <time>2026-07-12T07:56:25.000Z</time>
      </trkpt>
      <trkpt lat="46.16929" lon="14.41482">
        <ele>354.655808</ele>
        <time>2026-07-12T07:56:26.000Z</time>
      </trkpt>
      <trkpt lat="46.16931" lon="14.41477">
        <ele>354.715672</ele>
        <time>2026-07-12T07:56:27.000Z</time>
      </trkpt>
      <trkpt lat="46.16936" lon="14.41467">
        <ele>354.839019</ele>
        <time>2026-07-12T07:56:29.000Z</time>
      </trkpt>
      <trkpt lat="46.16941" lon="14.41451">
        <ele>355.02434</ele>
        <time>2026-07-12T07:56:32.000Z</time>
      </trkpt>
      <trkpt lat="46.16942" lon="14.4144">
        <ele>355.144348</ele>
        <time>2026-07-12T07:56:34.000Z</time>
      </trkpt>
      <trkpt lat="46.16939" lon="14.41399">
        <ele>355.571411</ele>
        <time>2026-07-12T07:56:41.000Z</time>
      </trkpt>
      <trkpt lat="46.16936" lon="14.41382">
        <ele>355.749367</ele>
        <time>2026-07-12T07:56:44.000Z</time>
      </trkpt>
      <trkpt lat="46.16934" lon="14.41366">
        <ele>355.914952</ele>
        <time>2026-07-12T07:56:47.000Z</time>
      </trkpt>
      <trkpt lat="46.16932" lon="14.4135">
        <ele>356.082511</ele>
        <time>2026-07-12T07:56:51.000Z</time>
      </trkpt>
      <trkpt lat="46.16933" lon="14.41345">
        <ele>356.142353</ele>
        <time>2026-07-12T07:56:53.000Z</time>
      </trkpt>
      <trkpt lat="46.16937" lon="14.4134">
        <ele>356.214108</ele>
        <time>2026-07-12T07:56:55.000Z</time>
      </trkpt>
      <trkpt lat="46.16955" lon="14.41327">
        <ele>356.527706</ele>
        <time>2026-07-12T07:57:01.000Z</time>
      </trkpt>
      <trkpt lat="46.16984" lon="14.41305">
        <ele>357.151256</ele>
        <time>2026-07-12T07:57:09.000Z</time>
      </trkpt>
      <trkpt lat="46.16999" lon="14.41292">
        <ele>357.482707</ele>
        <time>2026-07-12T07:57:13.000Z</time>
      </trkpt>
      <trkpt lat="46.17019" lon="14.41277">
        <ele>357.901129</ele>
        <time>2026-07-12T07:57:18.000Z</time>
      </trkpt>
      <trkpt lat="46.17023" lon="14.41275">
        <ele>357.986293</ele>
        <time>2026-07-12T07:57:19.000Z</time>
      </trkpt>
      <trkpt lat="46.17039" lon="14.41267">
        <ele>358.30992</ele>
        <time>2026-07-12T07:57:23.000Z</time>
      </trkpt>
      <trkpt lat="46.17073" lon="14.41248">
        <ele>359.014227</ele>
        <time>2026-07-12T07:57:32.000Z</time>
      </trkpt>
      <trkpt lat="46.17085" lon="14.41242">
        <ele>359.248659</ele>
        <time>2026-07-12T07:57:35.000Z</time>
      </trkpt>
      <trkpt lat="46.17101" lon="14.41234">
        <ele>359.574592</ele>
        <time>2026-07-12T07:57:39.000Z</time>
      </trkpt>
      <trkpt lat="46.17117" lon="14.41228">
        <ele>359.895229</ele>
        <time>2026-07-12T07:57:43.000Z</time>
      </trkpt>
      <trkpt lat="46.17133" lon="14.41217">
        <ele>359.967869</ele>
        <time>2026-07-12T07:57:47.000Z</time>
      </trkpt>
      <trkpt lat="46.17167" lon="14.41187">
        <ele>360.055026</ele>
        <time>2026-07-12T07:57:56.000Z</time>
      </trkpt>
      <trkpt lat="46.17198" lon="14.4117">
        <ele>360.128359</ele>
        <time>2026-07-12T07:58:03.000Z</time>
      </trkpt>
      <trkpt lat="46.17226" lon="14.41158">
        <ele>360.191094</ele>
        <time>2026-07-12T07:58:09.000Z</time>
      </trkpt>
      <trkpt lat="46.17237" lon="14.41153">
        <ele>360.216014</ele>
        <time>2026-07-12T07:58:12.000Z</time>
      </trkpt>
      <trkpt lat="46.17259" lon="14.41143">
        <ele>360.268024</ele>
        <time>2026-07-12T07:58:18.000Z</time>
      </trkpt>
      <trkpt lat="46.17281" lon="14.41132">
        <ele>360.318366</ele>
        <time>2026-07-12T07:58:24.000Z</time>
      </trkpt>
      <trkpt lat="46.17284" lon="14.4113">
        <ele>360.326654</ele>
        <time>2026-07-12T07:58:25.000Z</time>
      </trkpt>
      <trkpt lat="46.17311" lon="14.41113">
        <ele>361.282007</ele>
        <time>2026-07-12T07:58:33.000Z</time>
      </trkpt>
      <trkpt lat="46.17344" lon="14.411">
        <ele>362.410457</ele>
        <time>2026-07-12T07:58:42.000Z</time>
      </trkpt>
      <trkpt lat="46.1736" lon="14.41095">
        <ele>362.957519</ele>
        <time>2026-07-12T07:58:46.000Z</time>
      </trkpt>
      <trkpt lat="46.17374" lon="14.41094">
        <ele>363.402259</ele>
        <time>2026-07-12T07:58:49.000Z</time>
      </trkpt>
      <trkpt lat="46.17382" lon="14.41093">
        <ele>363.691502</ele>
        <time>2026-07-12T07:58:51.000Z</time>
      </trkpt>
      <trkpt lat="46.17408" lon="14.4109">
        <ele>364.540926</ele>
        <time>2026-07-12T07:58:57.000Z</time>
      </trkpt>
      <trkpt lat="46.17446" lon="14.41082">
        <ele>365.803229</ele>
        <time>2026-07-12T07:59:06.000Z</time>
      </trkpt>
      <trkpt lat="46.17479" lon="14.41075">
        <ele>366.589015</ele>
        <time>2026-07-12T07:59:14.000Z</time>
      </trkpt>
      <trkpt lat="46.17504" lon="14.41068">
        <ele>366.986827</ele>
        <time>2026-07-12T07:59:20.000Z</time>
      </trkpt>
      <trkpt lat="46.17516" lon="14.41066">
        <ele>367.172505</ele>
        <time>2026-07-12T07:59:23.000Z</time>
      </trkpt>
      <trkpt lat="46.17529" lon="14.41064">
        <ele>367.373448</ele>
        <time>2026-07-12T07:59:26.000Z</time>
      </trkpt>
      <trkpt lat="46.17538" lon="14.41063">
        <ele>367.515705</ele>
        <time>2026-07-12T07:59:28.000Z</time>
      </trkpt>
      <trkpt lat="46.17575" lon="14.41049">
        <ele>368.096262</ele>
        <time>2026-07-12T07:59:36.000Z</time>
      </trkpt>
      <trkpt lat="46.17609" lon="14.41033">
        <ele>368.656197</ele>
        <time>2026-07-12T07:59:44.000Z</time>
      </trkpt>
      <trkpt lat="46.17618" lon="14.41028">
        <ele>368.80416</ele>
        <time>2026-07-12T07:59:46.000Z</time>
      </trkpt>
      <trkpt lat="46.17627" lon="14.41023">
        <ele>368.950623</ele>
        <time>2026-07-12T07:59:48.000Z</time>
      </trkpt>
      <trkpt lat="46.17636" lon="14.41018">
        <ele>369.058141</ele>
        <time>2026-07-12T07:59:50.000Z</time>
      </trkpt>
      <trkpt lat="46.17654" lon="14.41009">
        <ele>368.784093</ele>
        <time>2026-07-12T07:59:54.000Z</time>
      </trkpt>
      <trkpt lat="46.17681" lon="14.40993">
        <ele>368.377965</ele>
        <time>2026-07-12T08:00:00.000Z</time>
      </trkpt>
      <trkpt lat="46.17723" lon="14.40972">
        <ele>367.770478</ele>
        <time>2026-07-12T08:00:09.000Z</time>
      </trkpt>
      <trkpt lat="46.17732" lon="14.40967">
        <ele>367.633811</ele>
        <time>2026-07-12T08:00:11.000Z</time>
      </trkpt>
      <trkpt lat="46.17741" lon="14.40962">
        <ele>367.498134</ele>
        <time>2026-07-12T08:00:13.000Z</time>
      </trkpt>
      <trkpt lat="46.1776" lon="14.40952">
        <ele>367.222473</ele>
        <time>2026-07-12T08:00:17.000Z</time>
      </trkpt>
      <trkpt lat="46.17773" lon="14.40945">
        <ele>367.019778</ele>
        <time>2026-07-12T08:00:20.000Z</time>
      </trkpt>
      <trkpt lat="46.17787" lon="14.40938">
        <ele>366.816418</ele>
        <time>2026-07-12T08:00:23.000Z</time>
      </trkpt>
      <trkpt lat="46.17824" lon="14.40919">
        <ele>366.527482</ele>
        <time>2026-07-12T08:00:31.000Z</time>
      </trkpt>
      <trkpt lat="46.17849" lon="14.40904">
        <ele>366.463873</ele>
        <time>2026-07-12T08:00:37.000Z</time>
      </trkpt>
      <trkpt lat="46.17858" lon="14.40898">
        <ele>366.442623</ele>
        <time>2026-07-12T08:00:39.000Z</time>
      </trkpt>
      <trkpt lat="46.17894" lon="14.40876">
        <ele>366.352352</ele>
        <time>2026-07-12T08:00:47.000Z</time>
      </trkpt>
      <trkpt lat="46.17931" lon="14.40857">
        <ele>366.262424</ele>
        <time>2026-07-12T08:00:55.000Z</time>
      </trkpt>
      <trkpt lat="46.1794" lon="14.40852">
        <ele>366.239129</ele>
        <time>2026-07-12T08:00:57.000Z</time>
      </trkpt>
      <trkpt lat="46.17949" lon="14.40845">
        <ele>366.216376</ele>
        <time>2026-07-12T08:00:59.000Z</time>
      </trkpt>
      <trkpt lat="46.17954" lon="14.40842">
        <ele>366.204485</ele>
        <time>2026-07-12T08:01:00.000Z</time>
      </trkpt>
      <trkpt lat="46.17976" lon="14.40829">
        <ele>366.161096</ele>
        <time>2026-07-12T08:01:05.000Z</time>
      </trkpt>
      <trkpt lat="46.17981" lon="14.40826">
        <ele>366.158732</ele>
        <time>2026-07-12T08:01:06.000Z</time>
      </trkpt>
      <trkpt lat="46.17994" lon="14.40818">
        <ele>366.152258</ele>
        <time>2026-07-12T08:01:09.000Z</time>
      </trkpt>
      <trkpt lat="46.1803" lon="14.40797">
        <ele>366.133835</ele>
        <time>2026-07-12T08:01:17.000Z</time>
      </trkpt>
      <trkpt lat="46.18067" lon="14.40771">
        <ele>366.11438</ele>
        <time>2026-07-12T08:01:25.000Z</time>
      </trkpt>
      <trkpt lat="46.18118" lon="14.40736">
        <ele>366.087615</ele>
        <time>2026-07-12T08:01:36.000Z</time>
      </trkpt>
      <trkpt lat="46.18165" lon="14.40709">
        <ele>366.128822</ele>
        <time>2026-07-12T08:01:46.000Z</time>
      </trkpt>
      <trkpt lat="46.1817" lon="14.40706">
        <ele>366.136458</ele>
        <time>2026-07-12T08:01:47.000Z</time>
      </trkpt>
      <trkpt lat="46.18214" lon="14.40683">
        <ele>366.204482</ele>
        <time>2026-07-12T08:01:56.000Z</time>
      </trkpt>
      <trkpt lat="46.18228" lon="14.40676">
        <ele>366.226719</ele>
        <time>2026-07-12T08:01:59.000Z</time>
      </trkpt>
      <trkpt lat="46.18237" lon="14.40669">
        <ele>366.241787</ele>
        <time>2026-07-12T08:02:01.000Z</time>
      </trkpt>
      <trkpt lat="46.18242" lon="14.40667">
        <ele>366.249249</ele>
        <time>2026-07-12T08:02:02.000Z</time>
      </trkpt>
      <trkpt lat="46.18257" lon="14.40658">
        <ele>366.273035</ele>
        <time>2026-07-12T08:02:05.000Z</time>
      </trkpt>
      <trkpt lat="46.18287" lon="14.40634">
        <ele>366.324014</ele>
        <time>2026-07-12T08:02:11.000Z</time>
      </trkpt>
      <trkpt lat="46.18306" lon="14.4062">
        <ele>366.329843</ele>
        <time>2026-07-12T08:02:15.000Z</time>
      </trkpt>
      <trkpt lat="46.18311" lon="14.40618">
        <ele>366.320344</ele>
        <time>2026-07-12T08:02:16.000Z</time>
      </trkpt>
      <trkpt lat="46.18321" lon="14.40616">
        <ele>366.300291</ele>
        <time>2026-07-12T08:02:18.000Z</time>
      </trkpt>
      <trkpt lat="46.18335" lon="14.40617">
        <ele>366.273411</ele>
        <time>2026-07-12T08:02:21.000Z</time>
      </trkpt>
      <trkpt lat="46.18343" lon="14.40617">
        <ele>366.256865</ele>
        <time>2026-07-12T08:02:23.000Z</time>
      </trkpt>
      <trkpt lat="46.18355" lon="14.40617">
        <ele>366.233898</ele>
        <time>2026-07-12T08:02:26.000Z</time>
      </trkpt>
      <trkpt lat="46.18363" lon="14.40619">
        <ele>366.217618</ele>
        <time>2026-07-12T08:02:28.000Z</time>
      </trkpt>
      <trkpt lat="46.18381" lon="14.4062">
        <ele>366.183131</ele>
        <time>2026-07-12T08:02:32.000Z</time>
      </trkpt>
      <trkpt lat="46.18399" lon="14.4062">
        <ele>366.148097</ele>
        <time>2026-07-12T08:02:36.000Z</time>
      </trkpt>
      <trkpt lat="46.18416" lon="14.40619">
        <ele>366.115741</ele>
        <time>2026-07-12T08:02:40.000Z</time>
      </trkpt>
      <trkpt lat="46.18423" lon="14.40618">
        <ele>366.101881</ele>
        <time>2026-07-12T08:02:42.000Z</time>
      </trkpt>
      <trkpt lat="46.18426" lon="14.40618">
        <ele>366.09604</ele>
        <time>2026-07-12T08:02:43.000Z</time>
      </trkpt>
      <trkpt lat="46.18431" lon="14.40621">
        <ele>366.084628</ele>
        <time>2026-07-12T08:02:45.000Z</time>
      </trkpt>
      <trkpt lat="46.1844" lon="14.4063">
        <ele>366.06285</ele>
        <time>2026-07-12T08:02:50.000Z</time>
      </trkpt>
      <trkpt lat="46.18446" lon="14.40629">
        <ele>366.052621</ele>
        <time>2026-07-12T08:02:53.000Z</time>
      </trkpt>
      <trkpt lat="46.18448" lon="14.40627">
        <ele>366.046782</ele>
        <time>2026-07-12T08:02:55.000Z</time>
      </trkpt>
      <trkpt lat="46.18449" lon="14.40624">
        <ele>366.043533</ele>
        <time>2026-07-12T08:02:56.000Z</time>
      </trkpt>
      <trkpt lat="46.18448" lon="14.40614">
        <ele>366.028979</ele>
        <time>2026-07-12T08:03:01.000Z</time>
      </trkpt>
      <trkpt lat="46.1845" lon="14.40612">
        <ele>366.026213</ele>
        <time>2026-07-12T08:03:02.000Z</time>
      </trkpt>
      <trkpt lat="46.1846" lon="14.40604">
        <ele>366.003045</ele>
        <time>2026-07-12T08:03:07.000Z</time>
      </trkpt>
      <trkpt lat="46.18475" lon="14.40598">
        <ele>366.006177</ele>
        <time>2026-07-12T08:03:12.000Z</time>
      </trkpt>
      <trkpt lat="46.18486" lon="14.40595">
        <ele>366.018287</ele>
        <time>2026-07-12T08:03:15.000Z</time>
      </trkpt>
      <trkpt lat="46.18499" lon="14.4059">
        <ele>366.031562</ele>
        <time>2026-07-12T08:03:18.000Z</time>
      </trkpt>
      <trkpt lat="46.18508" lon="14.40587">
        <ele>366.041157</ele>
        <time>2026-07-12T08:03:20.000Z</time>
      </trkpt>
      <trkpt lat="46.18526" lon="14.40578">
        <ele>366.061402</ele>
        <time>2026-07-12T08:03:24.000Z</time>
      </trkpt>
      <trkpt lat="46.18558" lon="14.40556">
        <ele>366.098154</ele>
        <time>2026-07-12T08:03:32.000Z</time>
      </trkpt>
      <trkpt lat="46.18565" lon="14.4055">
        <ele>366.106703</ele>
        <time>2026-07-12T08:03:34.000Z</time>
      </trkpt>
      <trkpt lat="46.18596" lon="14.40531">
        <ele>366.141725</ele>
        <time>2026-07-12T08:03:42.000Z</time>
      </trkpt>
      <trkpt lat="46.18623" lon="14.40522">
        <ele>366.17081</ele>
        <time>2026-07-12T08:03:50.000Z</time>
      </trkpt>
      <trkpt lat="46.1865" lon="14.40511">
        <ele>366.385961</ele>
        <time>2026-07-12T08:03:57.000Z</time>
      </trkpt>
      <trkpt lat="46.1867" lon="14.40501">
        <ele>366.637343</ele>
        <time>2026-07-12T08:04:02.000Z</time>
      </trkpt>
      <trkpt lat="46.18687" lon="14.40491">
        <ele>366.849977</ele>
        <time>2026-07-12T08:04:06.000Z</time>
      </trkpt>
      <trkpt lat="46.18698" lon="14.40483">
        <ele>367.004297</ele>
        <time>2026-07-12T08:04:09.000Z</time>
      </trkpt>
      <trkpt lat="46.18711" lon="14.40475">
        <ele>367.161944</ele>
        <time>2026-07-12T08:04:12.000Z</time>
      </trkpt>
      <trkpt lat="46.18715" lon="14.40473">
        <ele>367.213989</ele>
        <time>2026-07-12T08:04:13.000Z</time>
      </trkpt>
      <trkpt lat="46.18722" lon="14.40469">
        <ele>367.310541</ele>
        <time>2026-07-12T08:04:15.000Z</time>
      </trkpt>
      <trkpt lat="46.18742" lon="14.4046">
        <ele>367.555456</ele>
        <time>2026-07-12T08:04:20.000Z</time>
      </trkpt>
      <trkpt lat="46.18753" lon="14.40454">
        <ele>367.695264</ele>
        <time>2026-07-12T08:04:23.000Z</time>
      </trkpt>
      <trkpt lat="46.18757" lon="14.40452">
        <ele>367.742139</ele>
        <time>2026-07-12T08:04:24.000Z</time>
      </trkpt>
      <trkpt lat="46.18765" lon="14.40448">
        <ele>367.84432</ele>
        <time>2026-07-12T08:04:26.000Z</time>
      </trkpt>
      <trkpt lat="46.18769" lon="14.40446">
        <ele>367.894545</ele>
        <time>2026-07-12T08:04:27.000Z</time>
      </trkpt>
      <trkpt lat="46.18793" lon="14.40433">
        <ele>368.2037</ele>
        <time>2026-07-12T08:04:33.000Z</time>
      </trkpt>
      <trkpt lat="46.18803" lon="14.40428">
        <ele>368.31446</ele>
        <time>2026-07-12T08:04:35.000Z</time>
      </trkpt>
      <trkpt lat="46.18824" lon="14.40418">
        <ele>368.273891</ele>
        <time>2026-07-12T08:04:39.000Z</time>
      </trkpt>
      <trkpt lat="46.18872" lon="14.40395">
        <ele>368.180166</ele>
        <time>2026-07-12T08:04:48.000Z</time>
      </trkpt>
      <trkpt lat="46.18919" lon="14.40374">
        <ele>368.089576</ele>
        <time>2026-07-12T08:04:57.000Z</time>
      </trkpt>
      <trkpt lat="46.18929" lon="14.4037">
        <ele>368.069814</ele>
        <time>2026-07-12T08:04:59.000Z</time>
      </trkpt>
      <trkpt lat="46.18944" lon="14.40364">
        <ele>368.040752</ele>
        <time>2026-07-12T08:05:02.000Z</time>
      </trkpt>
      <trkpt lat="46.18973" lon="14.40356">
        <ele>367.985809</ele>
        <time>2026-07-12T08:05:08.000Z</time>
      </trkpt>
      <trkpt lat="46.19013" lon="14.40346">
        <ele>368.433703</ele>
        <time>2026-07-12T08:05:16.000Z</time>
      </trkpt>
      <trkpt lat="46.19046" lon="14.40336">
        <ele>368.819606</ele>
        <time>2026-07-12T08:05:23.000Z</time>
      </trkpt>
      <trkpt lat="46.1905" lon="14.40334">
        <ele>368.865736</ele>
        <time>2026-07-12T08:05:24.000Z</time>
      </trkpt>
      <trkpt lat="46.19085" lon="14.4032">
        <ele>369.28671</ele>
        <time>2026-07-12T08:05:32.000Z</time>
      </trkpt>
      <trkpt lat="46.1909" lon="14.40318">
        <ele>369.343903</ele>
        <time>2026-07-12T08:05:33.000Z</time>
      </trkpt>
      <trkpt lat="46.19128" lon="14.40301">
        <ele>369.807198</ele>
        <time>2026-07-12T08:05:41.000Z</time>
      </trkpt>
      <trkpt lat="46.19142" lon="14.40296">
        <ele>369.975278</ele>
        <time>2026-07-12T08:05:44.000Z</time>
      </trkpt>
      <trkpt lat="46.19155" lon="14.40289">
        <ele>369.913182</ele>
        <time>2026-07-12T08:05:47.000Z</time>
      </trkpt>
      <trkpt lat="46.19193" lon="14.40274">
        <ele>369.045719</ele>
        <time>2026-07-12T08:05:55.000Z</time>
      </trkpt>
      <trkpt lat="46.19229" lon="14.40257">
        <ele>368.214386</ele>
        <time>2026-07-12T08:06:03.000Z</time>
      </trkpt>
      <trkpt lat="46.19268" lon="14.40234">
        <ele>367.313987</ele>
        <time>2026-07-12T08:06:11.000Z</time>
      </trkpt>
      <trkpt lat="46.19298" lon="14.40207">
        <ele>366.521345</ele>
        <time>2026-07-12T08:06:18.000Z</time>
      </trkpt>
      <trkpt lat="46.19338" lon="14.40169">
        <ele>366.426476</ele>
        <time>2026-07-12T08:06:27.000Z</time>
      </trkpt>
      <trkpt lat="46.19356" lon="14.40153">
        <ele>366.637993</ele>
        <time>2026-07-12T08:06:31.000Z</time>
      </trkpt>
      <trkpt lat="46.1937" lon="14.40145">
        <ele>366.793266</ele>
        <time>2026-07-12T08:06:34.000Z</time>
      </trkpt>
      <trkpt lat="46.19394" lon="14.40135">
        <ele>367.047278</ele>
        <time>2026-07-12T08:06:39.000Z</time>
      </trkpt>
      <trkpt lat="46.19404" lon="14.40133">
        <ele>367.146407</ele>
        <time>2026-07-12T08:06:41.000Z</time>
      </trkpt>
      <trkpt lat="46.19409" lon="14.40133">
        <ele>367.198424</ele>
        <time>2026-07-12T08:06:42.000Z</time>
      </trkpt>
      <trkpt lat="46.19429" lon="14.40134">
        <ele>367.406838</ele>
        <time>2026-07-12T08:06:46.000Z</time>
      </trkpt>
      <trkpt lat="46.19461" lon="14.40138">
        <ele>367.724583</ele>
        <time>2026-07-12T08:06:52.000Z</time>
      </trkpt>
      <trkpt lat="46.19476" lon="14.40138">
        <ele>367.881049</ele>
        <time>2026-07-12T08:06:55.000Z</time>
      </trkpt>
      <trkpt lat="46.19515" lon="14.40138">
        <ele>367.624704</ele>
        <time>2026-07-12T08:07:03.000Z</time>
      </trkpt>
      <trkpt lat="46.19524" lon="14.40138">
        <ele>367.529906</ele>
        <time>2026-07-12T08:07:05.000Z</time>
      </trkpt>
      <trkpt lat="46.19542" lon="14.40138">
        <ele>367.345483</ele>
        <time>2026-07-12T08:07:09.000Z</time>
      </trkpt>
      <trkpt lat="46.1955" lon="14.40136">
        <ele>367.260567</ele>
        <time>2026-07-12T08:07:11.000Z</time>
      </trkpt>
      <trkpt lat="46.19554" lon="14.40137">
        <ele>367.226504</ele>
        <time>2026-07-12T08:07:12.000Z</time>
      </trkpt>
      <trkpt lat="46.19558" lon="14.40143">
        <ele>367.162678</ele>
        <time>2026-07-12T08:07:14.000Z</time>
      </trkpt>
      <trkpt lat="46.19559" lon="14.40149">
        <ele>367.122534</ele>
        <time>2026-07-12T08:07:15.000Z</time>
      </trkpt>
      <trkpt lat="46.19564" lon="14.40188">
        <ele>366.836873</ele>
        <time>2026-07-12T08:07:21.000Z</time>
      </trkpt>
      <trkpt lat="46.19566" lon="14.40209">
        <ele>366.685697</ele>
        <time>2026-07-12T08:07:24.000Z</time>
      </trkpt>
      <trkpt lat="46.19571" lon="14.40221">
        <ele>366.58588</ele>
        <time>2026-07-12T08:07:26.000Z</time>
      </trkpt>
      <trkpt lat="46.1958" lon="14.40231">
        <ele>366.472696</ele>
        <time>2026-07-12T08:07:28.000Z</time>
      </trkpt>
      <trkpt lat="46.1959" lon="14.40237">
        <ele>366.357253</ele>
        <time>2026-07-12T08:07:30.000Z</time>
      </trkpt>
      <trkpt lat="46.1961" lon="14.4025">
        <ele>366.134911</ele>
        <time>2026-07-12T08:07:34.000Z</time>
      </trkpt>
      <trkpt lat="46.19618" lon="14.40257">
        <ele>365.779351</ele>
        <time>2026-07-12T08:07:36.000Z</time>
      </trkpt>
      <trkpt lat="46.1963" lon="14.40269">
        <ele>365.148922</ele>
        <time>2026-07-12T08:07:39.000Z</time>
      </trkpt>
      <trkpt lat="46.19634" lon="14.40278">
        <ele>364.802972</ele>
        <time>2026-07-12T08:07:41.000Z</time>
      </trkpt>
      <trkpt lat="46.19637" lon="14.40296">
        <ele>364.225809</ele>
        <time>2026-07-12T08:07:45.000Z</time>
      </trkpt>
      <trkpt lat="46.19641" lon="14.40325">
        <ele>363.28889</ele>
        <time>2026-07-12T08:07:52.000Z</time>
      </trkpt>
      <trkpt lat="46.19644" lon="14.40336">
        <ele>362.919512</ele>
        <time>2026-07-12T08:07:54.000Z</time>
      </trkpt>
      <trkpt lat="46.19651" lon="14.40362">
        <ele>362.04174</ele>
        <time>2026-07-12T08:07:58.000Z</time>
      </trkpt>
      <trkpt lat="46.1966" lon="14.40402">
        <ele>360.742014</ele>
        <time>2026-07-12T08:08:04.000Z</time>
      </trkpt>
      <trkpt lat="46.19661" lon="14.40409">
        <ele>360.518703</ele>
        <time>2026-07-12T08:08:05.000Z</time>
      </trkpt>
      <trkpt lat="46.19663" lon="14.4043">
        <ele>359.850625</ele>
        <time>2026-07-12T08:08:08.000Z</time>
      </trkpt>
      <trkpt lat="46.19665" lon="14.40442">
        <ele>359.441806</ele>
        <time>2026-07-12T08:08:10.000Z</time>
      </trkpt>
      <trkpt lat="46.19666" lon="14.40448">
        <ele>359.268933</ele>
        <time>2026-07-12T08:08:11.000Z</time>
      </trkpt>
      <trkpt lat="46.19665" lon="14.40463">
        <ele>358.791745</ele>
        <time>2026-07-12T08:08:15.000Z</time>
      </trkpt>
      <trkpt lat="46.19667" lon="14.40465">
        <ele>358.708666</ele>
        <time>2026-07-12T08:08:16.000Z</time>
      </trkpt>
      <trkpt lat="46.19669" lon="14.40462">
        <ele>358.565222</ele>
        <time>2026-07-12T08:08:18.000Z</time>
      </trkpt>
      <trkpt lat="46.19666" lon="14.40447">
        <ele>358.0794</ele>
        <time>2026-07-12T08:08:22.000Z</time>
      </trkpt>
      <trkpt lat="46.19663" lon="14.40421">
        <ele>358.144909</ele>
        <time>2026-07-12T08:08:27.000Z</time>
      </trkpt>
      <trkpt lat="46.19654" lon="14.40379">
        <ele>358.536385</ele>
        <time>2026-07-12T08:08:34.000Z</time>
      </trkpt>
      <trkpt lat="46.19644" lon="14.40338">
        <ele>358.93053</ele>
        <time>2026-07-12T08:08:41.000Z</time>
      </trkpt>
      <trkpt lat="46.19641" lon="14.40327">
        <ele>359.031604</ele>
        <time>2026-07-12T08:08:43.000Z</time>
      </trkpt>
      <trkpt lat="46.19638" lon="14.40314">
        <ele>359.156275</ele>
        <time>2026-07-12T08:08:45.000Z</time>
      </trkpt>
      <trkpt lat="46.19637" lon="14.40301">
        <ele>359.269049</ele>
        <time>2026-07-12T08:08:47.000Z</time>
      </trkpt>
      <trkpt lat="46.19636" lon="14.40296">
        <ele>359.320806</ele>
        <time>2026-07-12T08:08:48.000Z</time>
      </trkpt>
      <trkpt lat="46.19633" lon="14.40272">
        <ele>359.533575</ele>
        <time>2026-07-12T08:08:53.000Z</time>
      </trkpt>
      <trkpt lat="46.19626" lon="14.40262">
        <ele>359.666354</ele>
        <time>2026-07-12T08:08:57.000Z</time>
      </trkpt>
      <trkpt lat="46.19624" lon="14.4026">
        <ele>359.694116</ele>
        <time>2026-07-12T08:08:58.000Z</time>
      </trkpt>
      <trkpt lat="46.19622" lon="14.40258">
        <ele>359.723223</ele>
        <time>2026-07-12T08:08:59.000Z</time>
      </trkpt>
      <trkpt lat="46.19615" lon="14.40254">
        <ele>359.816322</ele>
        <time>2026-07-12T08:09:03.000Z</time>
      </trkpt>
      <trkpt lat="46.19613" lon="14.40251">
        <ele>359.859779</ele>
        <time>2026-07-12T08:09:05.000Z</time>
      </trkpt>
      <trkpt lat="46.19608" lon="14.40247">
        <ele>359.92622</ele>
        <time>2026-07-12T08:09:09.000Z</time>
      </trkpt>
      <trkpt lat="46.19606" lon="14.40244">
        <ele>359.967078</ele>
        <time>2026-07-12T08:09:11.000Z</time>
      </trkpt>
      <trkpt lat="46.19598" lon="14.40239">
        <ele>360.083454</ele>
        <time>2026-07-12T08:09:17.000Z</time>
      </trkpt>
      <trkpt lat="46.19584" lon="14.40232">
        <ele>360.264466</ele>
        <time>2026-07-12T08:09:26.000Z</time>
      </trkpt>
      <trkpt lat="46.19567" lon="14.40217">
        <ele>361.040326</ele>
        <time>2026-07-12T08:09:37.000Z</time>
      </trkpt>
      <trkpt lat="46.19562" lon="14.40198">
        <ele>361.565657</ele>
        <time>2026-07-12T08:09:44.000Z</time>
      </trkpt>
      <trkpt lat="46.19559" lon="14.40169">
        <ele>362.365553</ele>
        <time>2026-07-12T08:09:54.000Z</time>
      </trkpt>
      <trkpt lat="46.19557" lon="14.40149">
        <ele>362.896956</ele>
        <time>2026-07-12T08:10:00.000Z</time>
      </trkpt>
      <trkpt lat="46.19557" lon="14.4014">
        <ele>363.142477</ele>
        <time>2026-07-12T08:10:03.000Z</time>
      </trkpt>
      <trkpt lat="46.19558" lon="14.40134">
        <ele>363.303976</ele>
        <time>2026-07-12T08:10:05.000Z</time>
      </trkpt>
      <trkpt lat="46.19564" lon="14.40127">
        <ele>363.586972</ele>
        <time>2026-07-12T08:10:08.000Z</time>
      </trkpt>
      <trkpt lat="46.19574" lon="14.40104">
        <ele>364.332351</ele>
        <time>2026-07-12T08:10:15.000Z</time>
      </trkpt>
      <trkpt lat="46.19583" lon="14.40075">
        <ele>365.16003</ele>
        <time>2026-07-12T08:10:22.000Z</time>
      </trkpt>
      <trkpt lat="46.19593" lon="14.40046">
        <ele>366.023593</ele>
        <time>2026-07-12T08:10:30.000Z</time>
      </trkpt>
      <trkpt lat="46.19598" lon="14.4004">
        <ele>366.258727</ele>
        <time>2026-07-12T08:10:32.000Z</time>
      </trkpt>
      <trkpt lat="46.19607" lon="14.40034">
        <ele>366.640453</ele>
        <time>2026-07-12T08:10:35.000Z</time>
      </trkpt>
      <trkpt lat="46.19615" lon="14.40029">
        <ele>367.011181</ele>
        <time>2026-07-12T08:10:38.000Z</time>
      </trkpt>
      <trkpt lat="46.19623" lon="14.40026">
        <ele>367.22065</ele>
        <time>2026-07-12T08:10:40.000Z</time>
      </trkpt>
      <trkpt lat="46.19639" lon="14.40019">
        <ele>367.388938</ele>
        <time>2026-07-12T08:10:44.000Z</time>
      </trkpt>
      <trkpt lat="46.19667" lon="14.40003">
        <ele>367.683416</ele>
        <time>2026-07-12T08:10:51.000Z</time>
      </trkpt>
      <trkpt lat="46.19675" lon="14.39999">
        <ele>367.768381</ele>
        <time>2026-07-12T08:10:53.000Z</time>
      </trkpt>
      <trkpt lat="46.1971" lon="14.39977">
        <ele>368.147314</ele>
        <time>2026-07-12T08:11:02.000Z</time>
      </trkpt>
      <trkpt lat="46.19718" lon="14.39972">
        <ele>368.230618</ele>
        <time>2026-07-12T08:11:04.000Z</time>
      </trkpt>
      <trkpt lat="46.19734" lon="14.39962">
        <ele>368.406659</ele>
        <time>2026-07-12T08:11:08.000Z</time>
      </trkpt>
      <trkpt lat="46.19753" lon="14.39952">
        <ele>368.603422</ele>
        <time>2026-07-12T08:11:12.000Z</time>
      </trkpt>
      <trkpt lat="46.19762" lon="14.39948">
        <ele>368.69484</ele>
        <time>2026-07-12T08:11:14.000Z</time>
      </trkpt>
      <trkpt lat="46.19788" lon="14.39936">
        <ele>368.968106</ele>
        <time>2026-07-12T08:11:20.000Z</time>
      </trkpt>
      <trkpt lat="46.19806" lon="14.39926">
        <ele>368.699908</ele>
        <time>2026-07-12T08:11:24.000Z</time>
      </trkpt>
      <trkpt lat="46.19829" lon="14.39911">
        <ele>368.350571</ele>
        <time>2026-07-12T08:11:29.000Z</time>
      </trkpt>
      <trkpt lat="46.19833" lon="14.39909">
        <ele>368.288528</ele>
        <time>2026-07-12T08:11:30.000Z</time>
      </trkpt>
      <trkpt lat="46.1984" lon="14.39907">
        <ele>368.195487</ele>
        <time>2026-07-12T08:11:31.000Z</time>
      </trkpt>
      <trkpt lat="46.19863" lon="14.39905">
        <ele>367.860626</ele>
        <time>2026-07-12T08:11:35.000Z</time>
      </trkpt>
      <trkpt lat="46.1987" lon="14.39905">
        <ele>367.770831</ele>
        <time>2026-07-12T08:11:36.000Z</time>
      </trkpt>
      <trkpt lat="46.19898" lon="14.39909">
        <ele>367.368809</ele>
        <time>2026-07-12T08:11:40.000Z</time>
      </trkpt>
      <trkpt lat="46.19914" lon="14.39908">
        <ele>367.152533</ele>
        <time>2026-07-12T08:11:42.000Z</time>
      </trkpt>
      <trkpt lat="46.19921" lon="14.39907">
        <ele>367.047557</ele>
        <time>2026-07-12T08:11:43.000Z</time>
      </trkpt>
      <trkpt lat="46.19935" lon="14.39899">
        <ele>366.842625</ele>
        <time>2026-07-12T08:11:45.000Z</time>
      </trkpt>
      <trkpt lat="46.19963" lon="14.39872">
        <ele>366.406955</ele>
        <time>2026-07-12T08:11:50.000Z</time>
      </trkpt>
      <trkpt lat="46.20005" lon="14.39829">
        <ele>366.044678</ele>
        <time>2026-07-12T08:11:58.000Z</time>
      </trkpt>
      <trkpt lat="46.20043" lon="14.39789">
        <ele>365.706066</ele>
        <time>2026-07-12T08:12:05.000Z</time>
      </trkpt>
      <trkpt lat="46.20049" lon="14.39784">
        <ele>365.658906</ele>
        <time>2026-07-12T08:12:06.000Z</time>
      </trkpt>
      <trkpt lat="46.20089" lon="14.39757">
        <ele>365.341144</ele>
        <time>2026-07-12T08:12:13.000Z</time>
      </trkpt>
      <trkpt lat="46.20128" lon="14.39732">
        <ele>364.920596</ele>
        <time>2026-07-12T08:12:19.000Z</time>
      </trkpt>
      <trkpt lat="46.20134" lon="14.39727">
        <ele>364.812748</ele>
        <time>2026-07-12T08:12:20.000Z</time>
      </trkpt>
      <trkpt lat="46.20153" lon="14.39708">
        <ele>364.492737</ele>
        <time>2026-07-12T08:12:23.000Z</time>
      </trkpt>
      <trkpt lat="46.20165" lon="14.39697">
        <ele>364.289458</ele>
        <time>2026-07-12T08:12:25.000Z</time>
      </trkpt>
      <trkpt lat="46.20171" lon="14.39691">
        <ele>364.189862</ele>
        <time>2026-07-12T08:12:26.000Z</time>
      </trkpt>
      <trkpt lat="46.20189" lon="14.39666">
        <ele>363.832709</ele>
        <time>2026-07-12T08:12:30.000Z</time>
      </trkpt>
      <trkpt lat="46.20199" lon="14.39655">
        <ele>363.66242</ele>
        <time>2026-07-12T08:12:32.000Z</time>
      </trkpt>
      <trkpt lat="46.20214" lon="14.39642">
        <ele>363.414548</ele>
        <time>2026-07-12T08:12:35.000Z</time>
      </trkpt>
      <trkpt lat="46.20255" lon="14.39603">
        <ele>362.716534</ele>
        <time>2026-07-12T08:12:43.000Z</time>
      </trkpt>
      <trkpt lat="46.20285" lon="14.3958">
        <ele>362.918721</ele>
        <time>2026-07-12T08:12:49.000Z</time>
      </trkpt>
      <trkpt lat="46.20304" lon="14.3957">
        <ele>363.135812</ele>
        <time>2026-07-12T08:12:53.000Z</time>
      </trkpt>
      <trkpt lat="46.20308" lon="14.39567">
        <ele>363.182009</ele>
        <time>2026-07-12T08:12:54.000Z</time>
      </trkpt>
      <trkpt lat="46.20316" lon="14.39562">
        <ele>363.277229</ele>
        <time>2026-07-12T08:12:56.000Z</time>
      </trkpt>
      <trkpt lat="46.2034" lon="14.39552">
        <ele>363.53978</ele>
        <time>2026-07-12T08:13:01.000Z</time>
      </trkpt>
      <trkpt lat="46.20378" lon="14.39529">
        <ele>363.97089</ele>
        <time>2026-07-12T08:13:09.000Z</time>
      </trkpt>
      <trkpt lat="46.20428" lon="14.39497">
        <ele>364.609327</ele>
        <time>2026-07-12T08:13:20.000Z</time>
      </trkpt>
      <trkpt lat="46.20461" lon="14.39478">
        <ele>365.980734</ele>
        <time>2026-07-12T08:13:27.000Z</time>
      </trkpt>
      <trkpt lat="46.20471" lon="14.39474">
        <ele>366.35473</ele>
        <time>2026-07-12T08:13:29.000Z</time>
      </trkpt>
      <trkpt lat="46.2048" lon="14.3947">
        <ele>366.730097</ele>
        <time>2026-07-12T08:13:31.000Z</time>
      </trkpt>
      <trkpt lat="46.20498" lon="14.39464">
        <ele>367.410133</ele>
        <time>2026-07-12T08:13:35.000Z</time>
      </trkpt>
      <trkpt lat="46.20509" lon="14.39458">
        <ele>367.860515</ele>
        <time>2026-07-12T08:13:38.000Z</time>
      </trkpt>
      <trkpt lat="46.20516" lon="14.39455">
        <ele>368.136293</ele>
        <time>2026-07-12T08:13:40.000Z</time>
      </trkpt>
      <trkpt lat="46.20547" lon="14.39435">
        <ele>369.449307</ele>
        <time>2026-07-12T08:13:48.000Z</time>
      </trkpt>
      <trkpt lat="46.20568" lon="14.39422">
        <ele>370.314401</ele>
        <time>2026-07-12T08:13:53.000Z</time>
      </trkpt>
      <trkpt lat="46.20576" lon="14.39418">
        <ele>370.617153</ele>
        <time>2026-07-12T08:13:55.000Z</time>
      </trkpt>
      <trkpt lat="46.20608" lon="14.39393">
        <ele>371.257874</ele>
        <time>2026-07-12T08:14:03.000Z</time>
      </trkpt>
      <trkpt lat="46.20637" lon="14.39367">
        <ele>371.010079</ele>
        <time>2026-07-12T08:14:10.000Z</time>
      </trkpt>
      <trkpt lat="46.20652" lon="14.39348">
        <ele>370.858326</ele>
        <time>2026-07-12T08:14:14.000Z</time>
      </trkpt>
      <trkpt lat="46.2066" lon="14.39339">
        <ele>370.784751</ele>
        <time>2026-07-12T08:14:16.000Z</time>
      </trkpt>
      <trkpt lat="46.20675" lon="14.39321">
        <ele>370.635293</ele>
        <time>2026-07-12T08:14:20.000Z</time>
      </trkpt>
      <trkpt lat="46.20683" lon="14.3931">
        <ele>370.553851</ele>
        <time>2026-07-12T08:14:22.000Z</time>
      </trkpt>
      <trkpt lat="46.20693" lon="14.39293">
        <ele>370.439234</ele>
        <time>2026-07-12T08:14:25.000Z</time>
      </trkpt>
      <trkpt lat="46.20705" lon="14.39277">
        <ele>370.315175</ele>
        <time>2026-07-12T08:14:28.000Z</time>
      </trkpt>
      <trkpt lat="46.20709" lon="14.39271">
        <ele>370.27472</ele>
        <time>2026-07-12T08:14:29.000Z</time>
      </trkpt>
      <trkpt lat="46.20729" lon="14.39244">
        <ele>370.071074</ele>
        <time>2026-07-12T08:14:34.000Z</time>
      </trkpt>
      <trkpt lat="46.20764" lon="14.39203">
        <ele>369.371545</ele>
        <time>2026-07-12T08:14:43.000Z</time>
      </trkpt>
      <trkpt lat="46.20793" lon="14.39171">
        <ele>368.771855</ele>
        <time>2026-07-12T08:14:51.000Z</time>
      </trkpt>
      <trkpt lat="46.20821" lon="14.3914">
        <ele>368.196555</ele>
        <time>2026-07-12T08:14:58.000Z</time>
      </trkpt>
      <trkpt lat="46.20838" lon="14.39123">
        <ele>367.868965</ele>
        <time>2026-07-12T08:15:02.000Z</time>
      </trkpt>
      <trkpt lat="46.20852" lon="14.39105">
        <ele>367.555011</ele>
        <time>2026-07-12T08:15:06.000Z</time>
      </trkpt>
      <trkpt lat="46.20877" lon="14.39076">
        <ele>367.164992</ele>
        <time>2026-07-12T08:15:12.000Z</time>
      </trkpt>
      <trkpt lat="46.20892" lon="14.39058">
        <ele>367.394509</ele>
        <time>2026-07-12T08:15:16.000Z</time>
      </trkpt>
      <trkpt lat="46.20911" lon="14.39034">
        <ele>367.693716</ele>
        <time>2026-07-12T08:15:21.000Z</time>
      </trkpt>
      <trkpt lat="46.20922" lon="14.39019">
        <ele>367.874074</ele>
        <time>2026-07-12T08:15:24.000Z</time>
      </trkpt>
      <trkpt lat="46.20955" lon="14.38976">
        <ele>368.396646</ele>
        <time>2026-07-12T08:15:33.000Z</time>
      </trkpt>
      <trkpt lat="46.20966" lon="14.38961">
        <ele>368.574219</ele>
        <time>2026-07-12T08:15:36.000Z</time>
      </trkpt>
      <trkpt lat="46.20973" lon="14.3895">
        <ele>368.68929</ele>
        <time>2026-07-12T08:15:38.000Z</time>
      </trkpt>
      <trkpt lat="46.20982" lon="14.38935">
        <ele>368.855149</ele>
        <time>2026-07-12T08:15:41.000Z</time>
      </trkpt>
      <trkpt lat="46.20988" lon="14.38923">
        <ele>368.976591</ele>
        <time>2026-07-12T08:15:43.000Z</time>
      </trkpt>
      <trkpt lat="46.20993" lon="14.3891">
        <ele>369.101219</ele>
        <time>2026-07-12T08:15:45.000Z</time>
      </trkpt>
      <trkpt lat="46.20994" lon="14.38902">
        <ele>369.162069</ele>
        <time>2026-07-12T08:15:46.000Z</time>
      </trkpt>
      <trkpt lat="46.20998" lon="14.38874">
        <ele>369.328457</ele>
        <time>2026-07-12T08:15:50.000Z</time>
      </trkpt>
      <trkpt lat="46.21001" lon="14.38848">
        <ele>369.460183</ele>
        <time>2026-07-12T08:15:54.000Z</time>
      </trkpt>
      <trkpt lat="46.21006" lon="14.38835">
        <ele>369.535169</ele>
        <time>2026-07-12T08:15:56.000Z</time>
      </trkpt>
      <trkpt lat="46.21013" lon="14.38824">
        <ele>369.608239</ele>
        <time>2026-07-12T08:15:58.000Z</time>
      </trkpt>
      <trkpt lat="46.21022" lon="14.38817">
        <ele>369.682666</ele>
        <time>2026-07-12T08:16:00.000Z</time>
      </trkpt>
      <trkpt lat="46.21033" lon="14.38812">
        <ele>369.760048</ele>
        <time>2026-07-12T08:16:02.000Z</time>
      </trkpt>
      <trkpt lat="46.21053" lon="14.38801">
        <ele>369.915448</ele>
        <time>2026-07-12T08:16:06.000Z</time>
      </trkpt>
      <trkpt lat="46.21061" lon="14.38793">
        <ele>369.987559</ele>
        <time>2026-07-12T08:16:08.000Z</time>
      </trkpt>
      <trkpt lat="46.21082" lon="14.38775">
        <ele>370.157117</ele>
        <time>2026-07-12T08:16:13.000Z</time>
      </trkpt>
      <trkpt lat="46.21093" lon="14.38762">
        <ele>370.257303</ele>
        <time>2026-07-12T08:16:16.000Z</time>
      </trkpt>
      <trkpt lat="46.21104" lon="14.3875">
        <ele>370.359268</ele>
        <time>2026-07-12T08:16:19.000Z</time>
      </trkpt>
      <trkpt lat="46.21117" lon="14.38732">
        <ele>370.488573</ele>
        <time>2026-07-12T08:16:23.000Z</time>
      </trkpt>
      <trkpt lat="46.2115" lon="14.38699">
        <ele>371.196243</ele>
        <time>2026-07-12T08:16:31.000Z</time>
      </trkpt>
      <trkpt lat="46.21184" lon="14.38666">
        <ele>371.960542</ele>
        <time>2026-07-12T08:16:39.000Z</time>
      </trkpt>
      <trkpt lat="46.21188" lon="14.38662">
        <ele>372.055584</ele>
        <time>2026-07-12T08:16:40.000Z</time>
      </trkpt>
      <trkpt lat="46.21201" lon="14.38643">
        <ele>372.402243</ele>
        <time>2026-07-12T08:16:44.000Z</time>
      </trkpt>
      <trkpt lat="46.21213" lon="14.3862">
        <ele>372.768628</ele>
        <time>2026-07-12T08:16:48.000Z</time>
      </trkpt>
      <trkpt lat="46.21219" lon="14.3861">
        <ele>372.954263</ele>
        <time>2026-07-12T08:16:50.000Z</time>
      </trkpt>
      <trkpt lat="46.21236" lon="14.38591">
        <ele>373.353564</ele>
        <time>2026-07-12T08:16:54.000Z</time>
      </trkpt>
      <trkpt lat="46.21249" lon="14.38578">
        <ele>373.646145</ele>
        <time>2026-07-12T08:16:57.000Z</time>
      </trkpt>
      <trkpt lat="46.21268" lon="14.38557">
        <ele>373.819919</ele>
        <time>2026-07-12T08:17:02.000Z</time>
      </trkpt>
      <trkpt lat="46.21275" lon="14.38547">
        <ele>373.769119</ele>
        <time>2026-07-12T08:17:04.000Z</time>
      </trkpt>
      <trkpt lat="46.21302" lon="14.38496">
        <ele>373.525833</ele>
        <time>2026-07-12T08:17:13.000Z</time>
      </trkpt>
      <trkpt lat="46.21316" lon="14.38459">
        <ele>373.369972</ele>
        <time>2026-07-12T08:17:19.000Z</time>
      </trkpt>
      <trkpt lat="46.2132" lon="14.38439">
        <ele>373.289252</ele>
        <time>2026-07-12T08:17:22.000Z</time>
      </trkpt>
      <trkpt lat="46.21325" lon="14.38417">
        <ele>373.203388</ele>
        <time>2026-07-12T08:17:25.000Z</time>
      </trkpt>
      <trkpt lat="46.21331" lon="14.38389">
        <ele>373.092034</ele>
        <time>2026-07-12T08:17:29.000Z</time>
      </trkpt>
      <trkpt lat="46.21334" lon="14.38376">
        <ele>373.039372</ele>
        <time>2026-07-12T08:17:31.000Z</time>
      </trkpt>
      <trkpt lat="46.21346" lon="14.38338">
        <ele>372.893372</ele>
        <time>2026-07-12T08:17:37.000Z</time>
      </trkpt>
      <trkpt lat="46.21362" lon="14.38287">
        <ele>372.763424</ele>
        <time>2026-07-12T08:17:45.000Z</time>
      </trkpt>
      <trkpt lat="46.21371" lon="14.38246">
        <ele>372.665522</ele>
        <time>2026-07-12T08:17:51.000Z</time>
      </trkpt>
      <trkpt lat="46.21376" lon="14.38191">
        <ele>372.539738</ele>
        <time>2026-07-12T08:17:58.000Z</time>
      </trkpt>
      <trkpt lat="46.21385" lon="14.38133">
        <ele>372.402748</ele>
        <time>2026-07-12T08:18:06.000Z</time>
      </trkpt>
      <trkpt lat="46.21386" lon="14.38125">
        <ele>372.384962</ele>
        <time>2026-07-12T08:18:07.000Z</time>
      </trkpt>
      <trkpt lat="46.21392" lon="14.38078">
        <ele>372.16363</ele>
        <time>2026-07-12T08:18:13.000Z</time>
      </trkpt>
      <trkpt lat="46.21398" lon="14.38033">
        <ele>371.730825</ele>
        <time>2026-07-12T08:18:19.000Z</time>
      </trkpt>
      <trkpt lat="46.21399" lon="14.38026">
        <ele>371.658869</ele>
        <time>2026-07-12T08:18:20.000Z</time>
      </trkpt>
      <trkpt lat="46.21406" lon="14.37988">
        <ele>371.290368</ele>
        <time>2026-07-12T08:18:25.000Z</time>
      </trkpt>
      <trkpt lat="46.21408" lon="14.37981">
        <ele>371.216916</ele>
        <time>2026-07-12T08:18:26.000Z</time>
      </trkpt>
      <trkpt lat="46.21421" lon="14.37928">
        <ele>370.689935</ele>
        <time>2026-07-12T08:18:33.000Z</time>
      </trkpt>
      <trkpt lat="46.21429" lon="14.37899">
        <ele>370.386177</ele>
        <time>2026-07-12T08:18:37.000Z</time>
      </trkpt>
      <trkpt lat="46.21437" lon="14.3787">
        <ele>370.08714</ele>
        <time>2026-07-12T08:18:41.000Z</time>
      </trkpt>
      <trkpt lat="46.21454" lon="14.37811">
        <ele>370.265111</ele>
        <time>2026-07-12T08:18:49.000Z</time>
      </trkpt>
      <trkpt lat="46.21462" lon="14.37783">
        <ele>370.578922</ele>
        <time>2026-07-12T08:18:53.000Z</time>
      </trkpt>
      <trkpt lat="46.21463" lon="14.37777">
        <ele>370.647107</ele>
        <time>2026-07-12T08:18:54.000Z</time>
      </trkpt>
      <trkpt lat="46.21465" lon="14.37772">
        <ele>370.71281</ele>
        <time>2026-07-12T08:18:55.000Z</time>
      </trkpt>
      <trkpt lat="46.21473" lon="14.37751">
        <ele>370.9696</ele>
        <time>2026-07-12T08:18:59.000Z</time>
      </trkpt>
      <trkpt lat="46.21475" lon="14.37745">
        <ele>371.03578</ele>
        <time>2026-07-12T08:19:00.000Z</time>
      </trkpt>
      <trkpt lat="46.21477" lon="14.37733">
        <ele>371.163723</ele>
        <time>2026-07-12T08:19:02.000Z</time>
      </trkpt>
      <trkpt lat="46.21481" lon="14.37715">
        <ele>371.367274</ele>
        <time>2026-07-12T08:19:05.000Z</time>
      </trkpt>
      <trkpt lat="46.215" lon="14.3767">
        <ele>371.935271</ele>
        <time>2026-07-12T08:19:13.000Z</time>
      </trkpt>
      <trkpt lat="46.21515" lon="14.37643">
        <ele>372.29774</ele>
        <time>2026-07-12T08:19:19.000Z</time>
      </trkpt>
      <trkpt lat="46.21519" lon="14.37634">
        <ele>372.415001</ele>
        <time>2026-07-12T08:19:21.000Z</time>
      </trkpt>
      <trkpt lat="46.2153" lon="14.37615">
        <ele>372.692382</ele>
        <time>2026-07-12T08:19:25.000Z</time>
      </trkpt>
      <trkpt lat="46.21553" lon="14.37578">
        <ele>373.328049</ele>
        <time>2026-07-12T08:19:32.000Z</time>
      </trkpt>
      <trkpt lat="46.21561" lon="14.37561">
        <ele>373.59453</ele>
        <time>2026-07-12T08:19:35.000Z</time>
      </trkpt>
      <trkpt lat="46.21568" lon="14.37544">
        <ele>373.843434</ele>
        <time>2026-07-12T08:19:38.000Z</time>
      </trkpt>
      <trkpt lat="46.21571" lon="14.37539">
        <ele>373.923491</ele>
        <time>2026-07-12T08:19:39.000Z</time>
      </trkpt>
      <trkpt lat="46.2158" lon="14.37519">
        <ele>374.238144</ele>
        <time>2026-07-12T08:19:43.000Z</time>
      </trkpt>
      <trkpt lat="46.21588" lon="14.37504">
        <ele>374.469736</ele>
        <time>2026-07-12T08:19:46.000Z</time>
      </trkpt>
      <trkpt lat="46.21596" lon="14.37492">
        <ele>374.694401</ele>
        <time>2026-07-12T08:19:49.000Z</time>
      </trkpt>
      <trkpt lat="46.21607" lon="14.37479">
        <ele>374.950291</ele>
        <time>2026-07-12T08:19:52.000Z</time>
      </trkpt>
      <trkpt lat="46.21617" lon="14.37465">
        <ele>375.208666</ele>
        <time>2026-07-12T08:19:55.000Z</time>
      </trkpt>
      <trkpt lat="46.21637" lon="14.37436">
        <ele>375.730389</ele>
        <time>2026-07-12T08:20:01.000Z</time>
      </trkpt>
      <trkpt lat="46.21662" lon="14.37395">
        <ele>375.529534</ele>
        <time>2026-07-12T08:20:09.000Z</time>
      </trkpt>
      <trkpt lat="46.21671" lon="14.37378">
        <ele>375.279057</ele>
        <time>2026-07-12T08:20:12.000Z</time>
      </trkpt>
      <trkpt lat="46.21678" lon="14.37358">
        <ele>375.025859</ele>
        <time>2026-07-12T08:20:15.000Z</time>
      </trkpt>
      <trkpt lat="46.2168" lon="14.37352">
        <ele>374.936268</ele>
        <time>2026-07-12T08:20:16.000Z</time>
      </trkpt>
      <trkpt lat="46.21689" lon="14.37325">
        <ele>374.591594</ele>
        <time>2026-07-12T08:20:20.000Z</time>
      </trkpt>
      <trkpt lat="46.21698" lon="14.37299">
        <ele>374.254681</ele>
        <time>2026-07-12T08:20:24.000Z</time>
      </trkpt>
      <trkpt lat="46.21713" lon="14.37266">
        <ele>373.795767</ele>
        <time>2026-07-12T08:20:29.000Z</time>
      </trkpt>
      <trkpt lat="46.21717" lon="14.3726">
        <ele>373.70495</ele>
        <time>2026-07-12T08:20:30.000Z</time>
      </trkpt>
      <trkpt lat="46.21721" lon="14.37254">
        <ele>373.614182</ele>
        <time>2026-07-12T08:20:31.000Z</time>
      </trkpt>
      <trkpt lat="46.21743" lon="14.37231">
        <ele>373.155292</ele>
        <time>2026-07-12T08:20:36.000Z</time>
      </trkpt>
      <trkpt lat="46.21748" lon="14.37227">
        <ele>373.062259</ele>
        <time>2026-07-12T08:20:37.000Z</time>
      </trkpt>
      <trkpt lat="46.21762" lon="14.37213">
        <ele>373.217917</ele>
        <time>2026-07-12T08:20:40.000Z</time>
      </trkpt>
      <trkpt lat="46.21766" lon="14.37207">
        <ele>373.371481</ele>
        <time>2026-07-12T08:20:41.000Z</time>
      </trkpt>
      <trkpt lat="46.21769" lon="14.37201">
        <ele>373.518775</ele>
        <time>2026-07-12T08:20:42.000Z</time>
      </trkpt>
      <trkpt lat="46.2178" lon="14.37174">
        <ele>374.093098</ele>
        <time>2026-07-12T08:20:46.000Z</time>
      </trkpt>
      <trkpt lat="46.21782" lon="14.37168">
        <ele>374.231438</ele>
        <time>2026-07-12T08:20:47.000Z</time>
      </trkpt>
      <trkpt lat="46.21787" lon="14.37148">
        <ele>374.626477</ele>
        <time>2026-07-12T08:20:50.000Z</time>
      </trkpt>
      <trkpt lat="46.21788" lon="14.37141">
        <ele>374.753772</ele>
        <time>2026-07-12T08:20:51.000Z</time>
      </trkpt>
      <trkpt lat="46.2179" lon="14.37121">
        <ele>375.129217</ele>
        <time>2026-07-12T08:20:54.000Z</time>
      </trkpt>
      <trkpt lat="46.21796" lon="14.37089">
        <ele>375.743636</ele>
        <time>2026-07-12T08:20:59.000Z</time>
      </trkpt>
      <trkpt lat="46.21798" lon="14.37076">
        <ele>375.993937</ele>
        <time>2026-07-12T08:21:01.000Z</time>
      </trkpt>
      <trkpt lat="46.21804" lon="14.3703">
        <ele>376.875466</ele>
        <time>2026-07-12T08:21:08.000Z</time>
      </trkpt>
      <trkpt lat="46.21808" lon="14.36978">
        <ele>377.821385</ele>
        <time>2026-07-12T08:21:15.000Z</time>
      </trkpt>
      <trkpt lat="46.2182" lon="14.36916">
        <ele>378.336829</ele>
        <time>2026-07-12T08:21:24.000Z</time>
      </trkpt>
      <trkpt lat="46.21822" lon="14.3691">
        <ele>378.392054</ele>
        <time>2026-07-12T08:21:25.000Z</time>
      </trkpt>
      <trkpt lat="46.21841" lon="14.36856">
        <ele>378.881717</ele>
        <time>2026-07-12T08:21:34.000Z</time>
      </trkpt>
      <trkpt lat="46.21843" lon="14.36851">
        <ele>378.92977</ele>
        <time>2026-07-12T08:21:35.000Z</time>
      </trkpt>
      <trkpt lat="46.21848" lon="14.36842">
        <ele>379.023206</ele>
        <time>2026-07-12T08:21:37.000Z</time>
      </trkpt>
      <trkpt lat="46.21856" lon="14.36828">
        <ele>379.174318</ele>
        <time>2026-07-12T08:21:40.000Z</time>
      </trkpt>
      <trkpt lat="46.21874" lon="14.36805">
        <ele>379.457955</ele>
        <time>2026-07-12T08:21:46.000Z</time>
      </trkpt>
      <trkpt lat="46.2188" lon="14.36797">
        <ele>379.547822</ele>
        <time>2026-07-12T08:21:48.000Z</time>
      </trkpt>
      <trkpt lat="46.21907" lon="14.36771">
        <ele>379.903962</ele>
        <time>2026-07-12T08:21:56.000Z</time>
      </trkpt>
      <trkpt lat="46.21929" lon="14.36748">
        <ele>379.887828</ele>
        <time>2026-07-12T08:22:03.000Z</time>
      </trkpt>
      <trkpt lat="46.21952" lon="14.3672">
        <ele>379.870011</ele>
        <time>2026-07-12T08:22:10.000Z</time>
      </trkpt>
      <trkpt lat="46.21977" lon="14.36681">
        <ele>379.848756</ele>
        <time>2026-07-12T08:22:18.000Z</time>
      </trkpt>
      <trkpt lat="46.22007" lon="14.3663">
        <ele>379.821347</ele>
        <time>2026-07-12T08:22:27.000Z</time>
      </trkpt>
      <trkpt lat="46.22036" lon="14.36595">
        <ele>379.799203</ele>
        <time>2026-07-12T08:22:33.000Z</time>
      </trkpt>
      <trkpt lat="46.22059" lon="14.36574">
        <ele>379.775058</ele>
        <time>2026-07-12T08:22:37.000Z</time>
      </trkpt>
      <trkpt lat="46.22071" lon="14.36565">
        <ele>379.762949</ele>
        <time>2026-07-12T08:22:39.000Z</time>
      </trkpt>
      <trkpt lat="46.22115" lon="14.36531">
        <ele>379.718719</ele>
        <time>2026-07-12T08:22:47.000Z</time>
      </trkpt>
      <trkpt lat="46.22142" lon="14.36504">
        <ele>379.690086</ele>
        <time>2026-07-12T08:22:53.000Z</time>
      </trkpt>
      <trkpt lat="46.2216" lon="14.36479">
        <ele>379.667865</ele>
        <time>2026-07-12T08:22:58.000Z</time>
      </trkpt>
      <trkpt lat="46.22167" lon="14.36469">
        <ele>379.658967</ele>
        <time>2026-07-12T08:23:00.000Z</time>
      </trkpt>
      <trkpt lat="46.222" lon="14.36424">
        <ele>380.316921</ele>
        <time>2026-07-12T08:23:09.000Z</time>
      </trkpt>
      <trkpt lat="46.22231" lon="14.36382">
        <ele>381.480136</ele>
        <time>2026-07-12T08:23:18.000Z</time>
      </trkpt>
      <trkpt lat="46.22265" lon="14.36336">
        <ele>382.75278</ele>
        <time>2026-07-12T08:23:28.000Z</time>
      </trkpt>
      <trkpt lat="46.22283" lon="14.36311">
        <ele>383.437344</ele>
        <time>2026-07-12T08:23:33.000Z</time>
      </trkpt>
      <trkpt lat="46.22297" lon="14.36291">
        <ele>383.991469</ele>
        <time>2026-07-12T08:23:37.000Z</time>
      </trkpt>
      <trkpt lat="46.22319" lon="14.36263">
        <ele>384.544178</ele>
        <time>2026-07-12T08:23:43.000Z</time>
      </trkpt>
      <trkpt lat="46.22333" lon="14.36242">
        <ele>384.384838</ele>
        <time>2026-07-12T08:23:47.000Z</time>
      </trkpt>
      <trkpt lat="46.22359" lon="14.36207">
        <ele>384.104012</ele>
        <time>2026-07-12T08:23:54.000Z</time>
      </trkpt>
      <trkpt lat="46.22379" lon="14.36184">
        <ele>383.905141</ele>
        <time>2026-07-12T08:23:59.000Z</time>
      </trkpt>
      <trkpt lat="46.22392" lon="14.36173">
        <ele>383.787817</ele>
        <time>2026-07-12T08:24:02.000Z</time>
      </trkpt>
      <trkpt lat="46.22423" lon="14.3615">
        <ele>383.514245</ele>
        <time>2026-07-12T08:24:09.000Z</time>
      </trkpt>
      <trkpt lat="46.22436" lon="14.36142">
        <ele>383.396979</ele>
        <time>2026-07-12T08:24:12.000Z</time>
      </trkpt>
      <trkpt lat="46.22468" lon="14.3612">
        <ele>383.147406</ele>
        <time>2026-07-12T08:24:19.000Z</time>
      </trkpt>
      <trkpt lat="46.22496" lon="14.36091">
        <ele>382.975669</ele>
        <time>2026-07-12T08:24:26.000Z</time>
      </trkpt>
      <trkpt lat="46.22529" lon="14.36056">
        <ele>382.778506</ele>
        <time>2026-07-12T08:24:34.000Z</time>
      </trkpt>
      <trkpt lat="46.22563" lon="14.36026">
        <ele>382.58637</ele>
        <time>2026-07-12T08:24:42.000Z</time>
      </trkpt>
      <trkpt lat="46.2258" lon="14.36013">
        <ele>382.489648</ele>
        <time>2026-07-12T08:24:46.000Z</time>
      </trkpt>
      <trkpt lat="46.22617" lon="14.35989">
        <ele>382.370873</ele>
        <time>2026-07-12T08:24:54.000Z</time>
      </trkpt>
      <trkpt lat="46.2266" lon="14.35961">
        <ele>383.130292</ele>
        <time>2026-07-12T08:25:03.000Z</time>
      </trkpt>
      <trkpt lat="46.22687" lon="14.35943">
        <ele>383.61926</ele>
        <time>2026-07-12T08:25:09.000Z</time>
      </trkpt>
      <trkpt lat="46.22701" lon="14.35935">
        <ele>383.865743</ele>
        <time>2026-07-12T08:25:12.000Z</time>
      </trkpt>
      <trkpt lat="46.22705" lon="14.35932">
        <ele>383.946575</ele>
        <time>2026-07-12T08:25:13.000Z</time>
      </trkpt>
      <trkpt lat="46.22741" lon="14.35906">
        <ele>384.593641</ele>
        <time>2026-07-12T08:25:21.000Z</time>
      </trkpt>
      <trkpt lat="46.2275" lon="14.359">
        <ele>384.755862</ele>
        <time>2026-07-12T08:25:23.000Z</time>
      </trkpt>
      <trkpt lat="46.22771" lon="14.35886">
        <ele>385.134985</ele>
        <time>2026-07-12T08:25:28.000Z</time>
      </trkpt>
      <trkpt lat="46.22801" lon="14.35867">
        <ele>384.947116</ele>
        <time>2026-07-12T08:25:35.000Z</time>
      </trkpt>
      <trkpt lat="46.22842" lon="14.35841">
        <ele>384.441954</ele>
        <time>2026-07-12T08:25:43.000Z</time>
      </trkpt>
      <trkpt lat="46.22869" lon="14.35821">
        <ele>384.106195</ele>
        <time>2026-07-12T08:25:48.000Z</time>
      </trkpt>
      <trkpt lat="46.2289" lon="14.35803">
        <ele>383.829009</ele>
        <time>2026-07-12T08:25:52.000Z</time>
      </trkpt>
      <trkpt lat="46.22925" lon="14.35769">
        <ele>383.359953</ele>
        <time>2026-07-12T08:25:59.000Z</time>
      </trkpt>
      <trkpt lat="46.22954" lon="14.35736">
        <ele>383.493864</ele>
        <time>2026-07-12T08:26:06.000Z</time>
      </trkpt>
      <trkpt lat="46.22979" lon="14.35702">
        <ele>383.889226</ele>
        <time>2026-07-12T08:26:13.000Z</time>
      </trkpt>
      <trkpt lat="46.22998" lon="14.35679">
        <ele>384.168803</ele>
        <time>2026-07-12T08:26:18.000Z</time>
      </trkpt>
      <trkpt lat="46.2301" lon="14.35665">
        <ele>384.343128</ele>
        <time>2026-07-12T08:26:21.000Z</time>
      </trkpt>
      <trkpt lat="46.23013" lon="14.3566">
        <ele>384.399333</ele>
        <time>2026-07-12T08:26:22.000Z</time>
      </trkpt>
      <trkpt lat="46.23055" lon="14.35606">
        <ele>385.043724</ele>
        <time>2026-07-12T08:26:33.000Z</time>
      </trkpt>
      <trkpt lat="46.23063" lon="14.35596">
        <ele>385.162192</ele>
        <time>2026-07-12T08:26:35.000Z</time>
      </trkpt>
      <trkpt lat="46.23071" lon="14.35586">
        <ele>385.283768</ele>
        <time>2026-07-12T08:26:37.000Z</time>
      </trkpt>
      <trkpt lat="46.23079" lon="14.35576">
        <ele>385.461318</ele>
        <time>2026-07-12T08:26:39.000Z</time>
      </trkpt>
      <trkpt lat="46.2311" lon="14.35536">
        <ele>386.166191</ele>
        <time>2026-07-12T08:26:47.000Z</time>
      </trkpt>
      <trkpt lat="46.23135" lon="14.35501">
        <ele>386.769884</ele>
        <time>2026-07-12T08:26:54.000Z</time>
      </trkpt>
      <trkpt lat="46.23166" lon="14.35457">
        <ele>387.503286</ele>
        <time>2026-07-12T08:27:03.000Z</time>
      </trkpt>
      <trkpt lat="46.2318" lon="14.35429">
        <ele>387.902503</ele>
        <time>2026-07-12T08:27:08.000Z</time>
      </trkpt>
      <trkpt lat="46.23186" lon="14.35411">
        <ele>388.140036</ele>
        <time>2026-07-12T08:27:11.000Z</time>
      </trkpt>
      <trkpt lat="46.2319" lon="14.35375">
        <ele>388.55083</ele>
        <time>2026-07-12T08:27:17.000Z</time>
      </trkpt>
      <trkpt lat="46.23188" lon="14.35344">
        <ele>388.890748</ele>
        <time>2026-07-12T08:27:24.000Z</time>
      </trkpt>
      <trkpt lat="46.23184" lon="14.35329">
        <ele>389.067094</ele>
        <time>2026-07-12T08:27:31.000Z</time>
      </trkpt>
      <trkpt lat="46.23184" lon="14.35329">
        <ele>389.067094</ele>
        <time>2026-07-12T08:27:32.000Z</time>
      </trkpt>
      <trkpt lat="46.23183" lon="14.35324">
        <ele>389.127571</ele>
        <time>2026-07-12T08:27:55.000Z</time>
      </trkpt>
      <trkpt lat="46.2318" lon="14.35313">
        <ele>389.251219</ele>
        <time>2026-07-12T08:27:58.000Z</time>
      </trkpt>
      <trkpt lat="46.2317" lon="14.35281">
        <ele>389.646435</ele>
        <time>2026-07-12T08:28:05.000Z</time>
      </trkpt>
      <trkpt lat="46.2317" lon="14.35276">
        <ele>389.698197</ele>
        <time>2026-07-12T08:28:06.000Z</time>
      </trkpt>
      <trkpt lat="46.23173" lon="14.35269">
        <ele>389.800499</ele>
        <time>2026-07-12T08:28:08.000Z</time>
      </trkpt>
      <trkpt lat="46.23192" lon="14.35247">
        <ele>390.182238</ele>
        <time>2026-07-12T08:28:15.000Z</time>
      </trkpt>
      <trkpt lat="46.2322" lon="14.35221">
        <ele>390.712319</ele>
        <time>2026-07-12T08:28:26.000Z</time>
      </trkpt>
      <trkpt lat="46.23236" lon="14.35205">
        <ele>391.023802</ele>
        <time>2026-07-12T08:28:33.000Z</time>
      </trkpt>
      <trkpt lat="46.23254" lon="14.35188">
        <ele>391.284486</ele>
        <time>2026-07-12T08:28:40.000Z</time>
      </trkpt>
      <trkpt lat="46.23275" lon="14.35171">
        <ele>391.494044</ele>
        <time>2026-07-12T08:28:47.000Z</time>
      </trkpt>
      <trkpt lat="46.23278" lon="14.35169">
        <ele>391.524134</ele>
        <time>2026-07-12T08:28:48.000Z</time>
      </trkpt>
      <trkpt lat="46.23297" lon="14.35143">
        <ele>391.751097</ele>
        <time>2026-07-12T08:28:55.000Z</time>
      </trkpt>
      <trkpt lat="46.23302" lon="14.35119">
        <ele>391.902858</ele>
        <time>2026-07-12T08:29:00.000Z</time>
      </trkpt>
      <trkpt lat="46.23302" lon="14.35111">
        <ele>391.949934</ele>
        <time>2026-07-12T08:29:05.000Z</time>
      </trkpt>
      <trkpt lat="46.23301" lon="14.35105">
        <ele>391.989606</ele>
        <time>2026-07-12T08:30:02.000Z</time>
      </trkpt>
      <trkpt lat="46.23301" lon="14.35102">
        <ele>392.005678</ele>
        <time>2026-07-12T08:30:04.000Z</time>
      </trkpt>
      <trkpt lat="46.233" lon="14.35093">
        <ele>392.060683</ele>
        <time>2026-07-12T08:30:10.000Z</time>
      </trkpt>
      <trkpt lat="46.23294" lon="14.35069">
        <ele>392.210955</ele>
        <time>2026-07-12T08:30:16.000Z</time>
      </trkpt>
      <trkpt lat="46.23284" lon="14.35038">
        <ele>392.419926</ele>
        <time>2026-07-12T08:30:23.000Z</time>
      </trkpt>
      <trkpt lat="46.23272" lon="14.35008">
        <ele>392.630526</ele>
        <time>2026-07-12T08:30:30.000Z</time>
      </trkpt>
      <trkpt lat="46.23262" lon="14.34978">
        <ele>392.926118</ele>
        <time>2026-07-12T08:30:37.000Z</time>
      </trkpt>
      <trkpt lat="46.23257" lon="14.34965">
        <ele>393.116435</ele>
        <time>2026-07-12T08:30:40.000Z</time>
      </trkpt>
      <trkpt lat="46.23251" lon="14.34946">
        <ele>393.394323</ele>
        <time>2026-07-12T08:30:44.000Z</time>
      </trkpt>
      <trkpt lat="46.23249" lon="14.34941">
        <ele>393.468314</ele>
        <time>2026-07-12T08:30:45.000Z</time>
      </trkpt>
      <trkpt lat="46.23237" lon="14.34905">
        <ele>393.985706</ele>
        <time>2026-07-12T08:30:52.000Z</time>
      </trkpt>
      <trkpt lat="46.23227" lon="14.34876">
        <ele>394.423746</ele>
        <time>2026-07-12T08:30:58.000Z</time>
      </trkpt>
      <trkpt lat="46.23223" lon="14.34866">
        <ele>394.568592</ele>
        <time>2026-07-12T08:31:00.000Z</time>
      </trkpt>
      <trkpt lat="46.23212" lon="14.34834">
        <ele>395.033438</ele>
        <time>2026-07-12T08:31:07.000Z</time>
      </trkpt>
      <trkpt lat="46.23202" lon="14.34801">
        <ele>395.506591</ele>
        <time>2026-07-12T08:31:15.000Z</time>
      </trkpt>
      <trkpt lat="46.23197" lon="14.34786">
        <ele>395.736764</ele>
        <time>2026-07-12T08:31:20.000Z</time>
      </trkpt>
      <trkpt lat="46.23186" lon="14.34742">
        <ele>396.355341</ele>
        <time>2026-07-12T08:31:31.000Z</time>
      </trkpt>
      <trkpt lat="46.23185" lon="14.34733">
        <ele>396.481306</ele>
        <time>2026-07-12T08:31:34.000Z</time>
      </trkpt>
      <trkpt lat="46.23182" lon="14.34724">
        <ele>396.621875</ele>
        <time>2026-07-12T08:31:37.000Z</time>
      </trkpt>
      <trkpt lat="46.23176" lon="14.34703">
        <ele>396.94194</ele>
        <time>2026-07-12T08:31:43.000Z</time>
      </trkpt>
      <trkpt lat="46.23177" lon="14.347">
        <ele>396.994909</ele>
        <time>2026-07-12T08:31:45.000Z</time>
      </trkpt>
      <trkpt lat="46.23179" lon="14.34695">
        <ele>397.078769</ele>
        <time>2026-07-12T08:31:47.000Z</time>
      </trkpt>
      <trkpt lat="46.23191" lon="14.34685">
        <ele>397.370133</ele>
        <time>2026-07-12T08:31:52.000Z</time>
      </trkpt>
      <trkpt lat="46.2321" lon="14.3467">
        <ele>397.806979</ele>
        <time>2026-07-12T08:31:58.000Z</time>
      </trkpt>
      <trkpt lat="46.23232" lon="14.34657">
        <ele>398.283839</ele>
        <time>2026-07-12T08:32:04.000Z</time>
      </trkpt>
      <trkpt lat="46.23242" lon="14.34648">
        <ele>398.516081</ele>
        <time>2026-07-12T08:32:07.000Z</time>
      </trkpt>
      <trkpt lat="46.23252" lon="14.3464">
        <ele>398.75859</ele>
        <time>2026-07-12T08:32:10.000Z</time>
      </trkpt>
      <trkpt lat="46.23266" lon="14.34629">
        <ele>399.090712</ele>
        <time>2026-07-12T08:32:14.000Z</time>
      </trkpt>
      <trkpt lat="46.23268" lon="14.34623">
        <ele>399.173802</ele>
        <time>2026-07-12T08:32:15.000Z</time>
      </trkpt>
      <trkpt lat="46.23267" lon="14.34617">
        <ele>399.260685</ele>
        <time>2026-07-12T08:32:16.000Z</time>
      </trkpt>
      <trkpt lat="46.23264" lon="14.34605">
        <ele>399.445156</ele>
        <time>2026-07-12T08:32:18.000Z</time>
      </trkpt>
      <trkpt lat="46.23253" lon="14.34561">
        <ele>399.756274</ele>
        <time>2026-07-12T08:32:26.000Z</time>
      </trkpt>
      <trkpt lat="46.23255" lon="14.34545">
        <ele>399.678186</ele>
        <time>2026-07-12T08:32:30.000Z</time>
      </trkpt>
      <trkpt lat="46.23257" lon="14.34543">
        <ele>399.66278</ele>
        <time>2026-07-12T08:32:31.000Z</time>
      </trkpt>
      <trkpt lat="46.23262" lon="14.3454">
        <ele>399.623051</ele>
        <time>2026-07-12T08:32:33.000Z</time>
      </trkpt>
      <trkpt lat="46.23265" lon="14.34538">
        <ele>399.599572</ele>
        <time>2026-07-12T08:32:34.000Z</time>
      </trkpt>
      <trkpt lat="46.23287" lon="14.3453">
        <ele>399.446123</ele>
        <time>2026-07-12T08:32:40.000Z</time>
      </trkpt>
      <trkpt lat="46.23308" lon="14.34519">
        <ele>399.291443</ele>
        <time>2026-07-12T08:32:46.000Z</time>
      </trkpt>
      <trkpt lat="46.23311" lon="14.34518">
        <ele>399.269236</ele>
        <time>2026-07-12T08:32:47.000Z</time>
      </trkpt>
      <trkpt lat="46.23332" lon="14.34507">
        <ele>399.118758</ele>
        <time>2026-07-12T08:32:54.000Z</time>
      </trkpt>
      <trkpt lat="46.23335" lon="14.34503">
        <ele>399.089521</ele>
        <time>2026-07-12T08:32:56.000Z</time>
      </trkpt>
      <trkpt lat="46.2334" lon="14.34503">
        <ele>399.056012</ele>
        <time>2026-07-12T08:32:58.000Z</time>
      </trkpt>
      <trkpt lat="46.2336" lon="14.34505">
        <ele>398.91893</ele>
        <time>2026-07-12T08:33:05.000Z</time>
      </trkpt>
      <trkpt lat="46.2338" lon="14.34509">
        <ele>398.779452</ele>
        <time>2026-07-12T08:33:11.000Z</time>
      </trkpt>
      <trkpt lat="46.23385" lon="14.34511">
        <ele>398.749498</ele>
        <time>2026-07-12T08:33:15.000Z</time>
      </trkpt>
      <trkpt lat="46.23388" lon="14.34511">
        <ele>398.724088</ele>
        <time>2026-07-12T08:33:20.000Z</time>
      </trkpt>
      <trkpt lat="46.23393" lon="14.34512">
        <ele>398.692881</ele>
        <time>2026-07-12T08:33:22.000Z</time>
      </trkpt>
      <trkpt lat="46.23411" lon="14.34511">
        <ele>398.53427</ele>
        <time>2026-07-12T08:33:28.000Z</time>
      </trkpt>
      <trkpt lat="46.23413" lon="14.34512">
        <ele>398.495313</ele>
        <time>2026-07-12T08:33:30.000Z</time>
      </trkpt>
      <trkpt lat="46.23414" lon="14.34513">
        <ele>398.489073</ele>
        <time>2026-07-12T08:33:32.000Z</time>
      </trkpt>
      <trkpt lat="46.2341" lon="14.34517">
        <ele>398.426141</ele>
        <time>2026-07-12T08:34:23.000Z</time>
      </trkpt>
      <trkpt lat="46.23408" lon="14.34517">
        <ele>398.396577</ele>
        <time>2026-07-12T08:34:24.000Z</time>
      </trkpt>
      <trkpt lat="46.23405" lon="14.34518">
        <ele>398.364304</ele>
        <time>2026-07-12T08:34:25.000Z</time>
      </trkpt>
      <trkpt lat="46.23397" lon="14.3452">
        <ele>398.257446</ele>
        <time>2026-07-12T08:34:28.000Z</time>
      </trkpt>
      <trkpt lat="46.23394" lon="14.34527">
        <ele>398.188051</ele>
        <time>2026-07-12T08:34:30.000Z</time>
      </trkpt>
      <trkpt lat="46.23399" lon="14.34549">
        <ele>397.98018</ele>
        <time>2026-07-12T08:34:35.000Z</time>
      </trkpt>
      <trkpt lat="46.23398" lon="14.34552">
        <ele>397.953935</ele>
        <time>2026-07-12T08:34:36.000Z</time>
      </trkpt>
      <trkpt lat="46.23394" lon="14.34556">
        <ele>397.886617</ele>
        <time>2026-07-12T08:34:38.000Z</time>
      </trkpt>
      <trkpt lat="46.23385" lon="14.34557">
        <ele>397.773285</ele>
        <time>2026-07-12T08:34:43.000Z</time>
      </trkpt>
      <trkpt lat="46.23381" lon="14.34563">
        <ele>397.705434</ele>
        <time>2026-07-12T08:34:49.000Z</time>
      </trkpt>
      <trkpt lat="46.23382" lon="14.34568">
        <ele>397.655553</ele>
        <time>2026-07-12T08:34:51.000Z</time>
      </trkpt>
      <trkpt lat="46.23386" lon="14.34588">
        <ele>397.479654</ele>
        <time>2026-07-12T08:34:56.000Z</time>
      </trkpt>
      <trkpt lat="46.23391" lon="14.34611">
        <ele>397.26367</ele>
        <time>2026-07-12T08:35:02.000Z</time>
      </trkpt>
      <trkpt lat="46.23395" lon="14.34621">
        <ele>397.158294</ele>
        <time>2026-07-12T08:35:08.000Z</time>
      </trkpt>
      <trkpt lat="46.23411" lon="14.34618">
        <ele>396.948383</ele>
        <time>2026-07-12T08:56:31.000Z</time>
      </trkpt>
      <trkpt lat="46.23411" lon="14.34618">
        <ele>396.946193</ele>
        <time>2026-07-12T08:56:32.000Z</time>
      </trkpt>
      <trkpt lat="46.2341" lon="14.34618">
        <ele>396.933362</ele>
        <time>2026-07-12T08:56:33.000Z</time>
      </trkpt>
      <trkpt lat="46.2341" lon="14.34618">
        <ele>396.929124</ele>
        <time>2026-07-12T08:56:34.000Z</time>
      </trkpt>
      <trkpt lat="46.234" lon="14.34628">
        <ele>396.769486</ele>
        <time>2026-07-12T09:02:47.000Z</time>
      </trkpt>
      <trkpt lat="46.23399" lon="14.34629">
        <ele>396.759593</ele>
        <time>2026-07-12T09:02:48.000Z</time>
      </trkpt>
      <trkpt lat="46.23399" lon="14.3463">
        <ele>396.746327</ele>
        <time>2026-07-12T09:02:51.000Z</time>
      </trkpt>
      <trkpt lat="46.23399" lon="14.34623">
        <ele>396.686643</ele>
        <time>2026-07-12T09:04:45.000Z</time>
      </trkpt>
      <trkpt lat="46.23399" lon="14.34621">
        <ele>396.663869</ele>
        <time>2026-07-12T09:04:46.000Z</time>
      </trkpt>
      <trkpt lat="46.23395" lon="14.3461">
        <ele>396.557141</ele>
        <time>2026-07-12T09:04:50.000Z</time>
      </trkpt>
      <trkpt lat="46.23395" lon="14.34607">
        <ele>396.535495</ele>
        <time>2026-07-12T09:04:51.000Z</time>
      </trkpt>
      <trkpt lat="46.23393" lon="14.34599">
        <ele>396.461219</ele>
        <time>2026-07-12T09:04:54.000Z</time>
      </trkpt>
      <trkpt lat="46.2339" lon="14.34593">
        <ele>396.389659</ele>
        <time>2026-07-12T09:04:57.000Z</time>
      </trkpt>
      <trkpt lat="46.23385" lon="14.34571">
        <ele>396.470264</ele>
        <time>2026-07-12T09:05:03.000Z</time>
      </trkpt>
      <trkpt lat="46.23379" lon="14.34537">
        <ele>396.876133</ele>
        <time>2026-07-12T09:05:11.000Z</time>
      </trkpt>
      <trkpt lat="46.23375" lon="14.34511">
        <ele>397.187342</ele>
        <time>2026-07-12T09:05:18.000Z</time>
      </trkpt>
      <trkpt lat="46.23385" lon="14.34506">
        <ele>397.360031</ele>
        <time>2026-07-12T09:05:22.000Z</time>
      </trkpt>
      <trkpt lat="46.23405" lon="14.3451">
        <ele>397.711549</ele>
        <time>2026-07-12T09:05:29.000Z</time>
      </trkpt>
      <trkpt lat="46.2343" lon="14.34513">
        <ele>398.127207</ele>
        <time>2026-07-12T09:05:36.000Z</time>
      </trkpt>
      <trkpt lat="46.23442" lon="14.34514">
        <ele>398.343957</ele>
        <time>2026-07-12T09:05:39.000Z</time>
      </trkpt>
      <trkpt lat="46.23455" lon="14.34516">
        <ele>398.568951</ele>
        <time>2026-07-12T09:05:42.000Z</time>
      </trkpt>
      <trkpt lat="46.23464" lon="14.34517">
        <ele>398.716954</ele>
        <time>2026-07-12T09:05:44.000Z</time>
      </trkpt>
      <trkpt lat="46.23495" lon="14.3452">
        <ele>399.24792</ele>
        <time>2026-07-12T09:05:51.000Z</time>
      </trkpt>
      <trkpt lat="46.235" lon="14.3452">
        <ele>399.322887</ele>
        <time>2026-07-12T09:05:52.000Z</time>
      </trkpt>
      <trkpt lat="46.23533" lon="14.34524">
        <ele>399.697411</ele>
        <time>2026-07-12T09:06:00.000Z</time>
      </trkpt>
      <trkpt lat="46.23537" lon="14.34525">
        <ele>399.739325</ele>
        <time>2026-07-12T09:06:01.000Z</time>
      </trkpt>
      <trkpt lat="46.23558" lon="14.3453">
        <ele>399.958441</ele>
        <time>2026-07-12T09:06:06.000Z</time>
      </trkpt>
      <trkpt lat="46.23568" lon="14.34532">
        <ele>400.072697</ele>
        <time>2026-07-12T09:06:09.000Z</time>
      </trkpt>
      <trkpt lat="46.23571" lon="14.34532">
        <ele>400.106204</ele>
        <time>2026-07-12T09:06:10.000Z</time>
      </trkpt>
      <trkpt lat="46.2358" lon="14.34534">
        <ele>400.196457</ele>
        <time>2026-07-12T09:06:13.000Z</time>
      </trkpt>
      <trkpt lat="46.23594" lon="14.34537">
        <ele>400.34579</ele>
        <time>2026-07-12T09:06:17.000Z</time>
      </trkpt>
      <trkpt lat="46.23622" lon="14.34543">
        <ele>400.653848</ele>
        <time>2026-07-12T09:06:24.000Z</time>
      </trkpt>
      <trkpt lat="46.23638" lon="14.34547">
        <ele>400.82288</ele>
        <time>2026-07-12T09:06:28.000Z</time>
      </trkpt>
      <trkpt lat="46.2365" lon="14.34549">
        <ele>400.953446</ele>
        <time>2026-07-12T09:06:31.000Z</time>
      </trkpt>
      <trkpt lat="46.23665" lon="14.34551">
        <ele>401.114287</ele>
        <time>2026-07-12T09:06:35.000Z</time>
      </trkpt>
      <trkpt lat="46.23681" lon="14.34556">
        <ele>401.264919</ele>
        <time>2026-07-12T09:06:39.000Z</time>
      </trkpt>
      <trkpt lat="46.23703" lon="14.34568">
        <ele>400.674741</ele>
        <time>2026-07-12T09:06:45.000Z</time>
      </trkpt>
      <trkpt lat="46.23708" lon="14.34571">
        <ele>400.552774</ele>
        <time>2026-07-12T09:06:46.000Z</time>
      </trkpt>
      <trkpt lat="46.23718" lon="14.34578">
        <ele>400.270733</ele>
        <time>2026-07-12T09:06:49.000Z</time>
      </trkpt>
      <trkpt lat="46.23726" lon="14.34585">
        <ele>400.052854</ele>
        <time>2026-07-12T09:06:51.000Z</time>
      </trkpt>
      <trkpt lat="46.23754" lon="14.34613">
        <ele>399.234566</ele>
        <time>2026-07-12T09:06:59.000Z</time>
      </trkpt>
      <trkpt lat="46.23756" lon="14.34615">
        <ele>399.153632</ele>
        <time>2026-07-12T09:07:00.000Z</time>
      </trkpt>
      <trkpt lat="46.23787" lon="14.34644">
        <ele>398.261306</ele>
        <time>2026-07-12T09:07:08.000Z</time>
      </trkpt>
      <trkpt lat="46.23813" lon="14.34663">
        <ele>397.560805</ele>
        <time>2026-07-12T09:07:13.000Z</time>
      </trkpt>
      <trkpt lat="46.23826" lon="14.34671">
        <ele>397.204238</ele>
        <time>2026-07-12T09:07:15.000Z</time>
      </trkpt>
      <trkpt lat="46.23839" lon="14.34678">
        <ele>396.874793</ele>
        <time>2026-07-12T09:07:17.000Z</time>
      </trkpt>
      <trkpt lat="46.23854" lon="14.34684">
        <ele>395.937459</ele>
        <time>2026-07-12T09:07:19.000Z</time>
      </trkpt>
      <trkpt lat="46.23861" lon="14.34686">
        <ele>395.480657</ele>
        <time>2026-07-12T09:07:20.000Z</time>
      </trkpt>
      <trkpt lat="46.23883" lon="14.34694">
        <ele>394.128537</ele>
        <time>2026-07-12T09:07:23.000Z</time>
      </trkpt>
      <trkpt lat="46.23901" lon="14.347">
        <ele>393.027339</ele>
        <time>2026-07-12T09:07:25.000Z</time>
      </trkpt>
      <trkpt lat="46.23919" lon="14.34705">
        <ele>391.995781</ele>
        <time>2026-07-12T09:07:27.000Z</time>
      </trkpt>
      <trkpt lat="46.23943" lon="14.3471">
        <ele>390.508504</ele>
        <time>2026-07-12T09:07:30.000Z</time>
      </trkpt>
      <trkpt lat="46.23953" lon="14.34711">
        <ele>389.949106</ele>
        <time>2026-07-12T09:07:31.000Z</time>
      </trkpt>
      <trkpt lat="46.23972" lon="14.34712">
        <ele>388.778695</ele>
        <time>2026-07-12T09:07:33.000Z</time>
      </trkpt>
      <trkpt lat="46.23985" lon="14.34713">
        <ele>388.060372</ele>
        <time>2026-07-12T09:07:34.000Z</time>
      </trkpt>
      <trkpt lat="46.24006" lon="14.3471">
        <ele>386.808351</ele>
        <time>2026-07-12T09:07:36.000Z</time>
      </trkpt>
      <trkpt lat="46.24069" lon="14.34703">
        <ele>381.611662</ele>
        <time>2026-07-12T09:07:42.000Z</time>
      </trkpt>
      <trkpt lat="46.24077" lon="14.34703">
        <ele>380.895349</ele>
        <time>2026-07-12T09:07:43.000Z</time>
      </trkpt>
      <trkpt lat="46.24119" lon="14.34698">
        <ele>377.291454</ele>
        <time>2026-07-12T09:07:47.000Z</time>
      </trkpt>
      <trkpt lat="46.24136" lon="14.34696">
        <ele>375.784272</ele>
        <time>2026-07-12T09:07:49.000Z</time>
      </trkpt>
      <trkpt lat="46.24173" lon="14.3469">
        <ele>372.558581</ele>
        <time>2026-07-12T09:07:54.000Z</time>
      </trkpt>
      <trkpt lat="46.24185" lon="14.34696">
        <ele>371.49439</ele>
        <time>2026-07-12T09:07:56.000Z</time>
      </trkpt>
      <trkpt lat="46.24189" lon="14.34702">
        <ele>370.961078</ele>
        <time>2026-07-12T09:07:57.000Z</time>
      </trkpt>
      <trkpt lat="46.24196" lon="14.34715">
        <ele>370.426943</ele>
        <time>2026-07-12T09:07:59.000Z</time>
      </trkpt>
      <trkpt lat="46.24207" lon="14.34723">
        <ele>370.014524</ele>
        <time>2026-07-12T09:08:01.000Z</time>
      </trkpt>
      <trkpt lat="46.24233" lon="14.34715">
        <ele>369.072881</ele>
        <time>2026-07-12T09:08:06.000Z</time>
      </trkpt>
      <trkpt lat="46.24264" lon="14.34702">
        <ele>367.9782</ele>
        <time>2026-07-12T09:08:12.000Z</time>
      </trkpt>
      <trkpt lat="46.24268" lon="14.34699">
        <ele>367.8047</ele>
        <time>2026-07-12T09:08:13.000Z</time>
      </trkpt>
      <trkpt lat="46.2431" lon="14.34673">
        <ele>366.224162</ele>
        <time>2026-07-12T09:08:22.000Z</time>
      </trkpt>
      <trkpt lat="46.24314" lon="14.3467">
        <ele>366.055647</ele>
        <time>2026-07-12T09:08:23.000Z</time>
      </trkpt>
      <trkpt lat="46.2433" lon="14.34658">
        <ele>365.434519</ele>
        <time>2026-07-12T09:08:27.000Z</time>
      </trkpt>
      <trkpt lat="46.24338" lon="14.34651">
        <ele>365.106948</ele>
        <time>2026-07-12T09:08:29.000Z</time>
      </trkpt>
      <trkpt lat="46.24358" lon="14.34636">
        <ele>364.427284</ele>
        <time>2026-07-12T09:08:33.000Z</time>
      </trkpt>
      <trkpt lat="46.24363" lon="14.34631">
        <ele>364.359633</ele>
        <time>2026-07-12T09:08:34.000Z</time>
      </trkpt>
      <trkpt lat="46.24391" lon="14.346">
        <ele>363.978062</ele>
        <time>2026-07-12T09:08:40.000Z</time>
      </trkpt>
      <trkpt lat="46.24406" lon="14.34584">
        <ele>363.781631</ele>
        <time>2026-07-12T09:08:43.000Z</time>
      </trkpt>
      <trkpt lat="46.24415" lon="14.34573">
        <ele>363.653283</ele>
        <time>2026-07-12T09:08:45.000Z</time>
      </trkpt>
      <trkpt lat="46.24424" lon="14.34562">
        <ele>363.526195</ele>
        <time>2026-07-12T09:08:47.000Z</time>
      </trkpt>
      <trkpt lat="46.24428" lon="14.34556">
        <ele>363.46105</ele>
        <time>2026-07-12T09:08:48.000Z</time>
      </trkpt>
      <trkpt lat="46.24445" lon="14.34532">
        <ele>363.211439</ele>
        <time>2026-07-12T09:08:52.000Z</time>
      </trkpt>
      <trkpt lat="46.24452" lon="14.3452">
        <ele>363.090555</ele>
        <time>2026-07-12T09:08:54.000Z</time>
      </trkpt>
      <trkpt lat="46.24474" lon="14.34477">
        <ele>362.694655</ele>
        <time>2026-07-12T09:09:01.000Z</time>
      </trkpt>
      <trkpt lat="46.24479" lon="14.34465">
        <ele>362.587434</ele>
        <time>2026-07-12T09:09:03.000Z</time>
      </trkpt>
      <trkpt lat="46.2449" lon="14.34433">
        <ele>362.943693</ele>
        <time>2026-07-12T09:09:08.000Z</time>
      </trkpt>
      <trkpt lat="46.24494" lon="14.34421">
        <ele>363.147292</ele>
        <time>2026-07-12T09:09:10.000Z</time>
      </trkpt>
      <trkpt lat="46.24505" lon="14.34383">
        <ele>363.740074</ele>
        <time>2026-07-12T09:09:16.000Z</time>
      </trkpt>
      <trkpt lat="46.24507" lon="14.34372">
        <ele>363.904269</ele>
        <time>2026-07-12T09:09:18.000Z</time>
      </trkpt>
      <trkpt lat="46.24516" lon="14.34327">
        <ele>364.603144</ele>
        <time>2026-07-12T09:09:26.000Z</time>
      </trkpt>
      <trkpt lat="46.24526" lon="14.34284">
        <ele>365.270677</ele>
        <time>2026-07-12T09:09:34.000Z</time>
      </trkpt>
      <trkpt lat="46.24535" lon="14.34242">
        <ele>365.903729</ele>
        <time>2026-07-12T09:09:42.000Z</time>
      </trkpt>
      <trkpt lat="46.24547" lon="14.34206">
        <ele>366.562472</ele>
        <time>2026-07-12T09:09:50.000Z</time>
      </trkpt>
      <trkpt lat="46.2455" lon="14.34202">
        <ele>366.676203</ele>
        <time>2026-07-12T09:09:51.000Z</time>
      </trkpt>
      <trkpt lat="46.24556" lon="14.34192">
        <ele>366.986663</ele>
        <time>2026-07-12T09:09:54.000Z</time>
      </trkpt>
      <trkpt lat="46.2456" lon="14.34185">
        <ele>367.175827</ele>
        <time>2026-07-12T09:09:56.000Z</time>
      </trkpt>
      <trkpt lat="46.24564" lon="14.34178">
        <ele>367.383651</ele>
        <time>2026-07-12T09:09:58.000Z</time>
      </trkpt>
      <trkpt lat="46.2457" lon="14.34171">
        <ele>367.618138</ele>
        <time>2026-07-12T09:10:00.000Z</time>
      </trkpt>
      <trkpt lat="46.24577" lon="14.34164">
        <ele>367.870203</ele>
        <time>2026-07-12T09:10:02.000Z</time>
      </trkpt>
      <trkpt lat="46.24599" lon="14.34143">
        <ele>368.702527</ele>
        <time>2026-07-12T09:10:09.000Z</time>
      </trkpt>
      <trkpt lat="46.24615" lon="14.34118">
        <ele>369.428521</ele>
        <time>2026-07-12T09:10:15.000Z</time>
      </trkpt>
      <trkpt lat="46.24618" lon="14.34115">
        <ele>369.553189</ele>
        <time>2026-07-12T09:10:16.000Z</time>
      </trkpt>
      <trkpt lat="46.24623" lon="14.34106">
        <ele>369.8046</ele>
        <time>2026-07-12T09:10:18.000Z</time>
      </trkpt>
      <trkpt lat="46.24641" lon="14.34074">
        <ele>370.693144</ele>
        <time>2026-07-12T09:10:25.000Z</time>
      </trkpt>
      <trkpt lat="46.2466" lon="14.3404">
        <ele>371.648059</ele>
        <time>2026-07-12T09:10:32.000Z</time>
      </trkpt>
      <trkpt lat="46.24665" lon="14.3403">
        <ele>371.918739</ele>
        <time>2026-07-12T09:10:34.000Z</time>
      </trkpt>
      <trkpt lat="46.24668" lon="14.34025">
        <ele>372.026836</ele>
        <time>2026-07-12T09:10:35.000Z</time>
      </trkpt>
      <trkpt lat="46.24682" lon="14.34002">
        <ele>372.407766</ele>
        <time>2026-07-12T09:10:40.000Z</time>
      </trkpt>
      <trkpt lat="46.24713" lon="14.33952">
        <ele>373.248962</ele>
        <time>2026-07-12T09:10:51.000Z</time>
      </trkpt>
      <trkpt lat="46.24732" lon="14.33927">
        <ele>373.710436</ele>
        <time>2026-07-12T09:10:57.000Z</time>
      </trkpt>
      <trkpt lat="46.2474" lon="14.33913">
        <ele>373.943907</ele>
        <time>2026-07-12T09:11:00.000Z</time>
      </trkpt>
      <trkpt lat="46.24746" lon="14.33903">
        <ele>374.106684</ele>
        <time>2026-07-12T09:11:02.000Z</time>
      </trkpt>
      <trkpt lat="46.24755" lon="14.33887">
        <ele>374.351737</ele>
        <time>2026-07-12T09:11:05.000Z</time>
      </trkpt>
      <trkpt lat="46.24774" lon="14.33848">
        <ele>374.957657</ele>
        <time>2026-07-12T09:11:12.000Z</time>
      </trkpt>
      <trkpt lat="46.24778" lon="14.33835">
        <ele>375.131407</ele>
        <time>2026-07-12T09:11:14.000Z</time>
      </trkpt>
      <trkpt lat="46.24785" lon="14.33817">
        <ele>375.070331</ele>
        <time>2026-07-12T09:11:17.000Z</time>
      </trkpt>
      <trkpt lat="46.24792" lon="14.33799">
        <ele>374.81832</ele>
        <time>2026-07-12T09:11:20.000Z</time>
      </trkpt>
      <trkpt lat="46.248" lon="14.33779">
        <ele>374.52607</ele>
        <time>2026-07-12T09:11:23.000Z</time>
      </trkpt>
      <trkpt lat="46.24811" lon="14.33753">
        <ele>374.149354</ele>
        <time>2026-07-12T09:11:27.000Z</time>
      </trkpt>
      <trkpt lat="46.24814" lon="14.33746">
        <ele>374.059371</ele>
        <time>2026-07-12T09:11:28.000Z</time>
      </trkpt>
      <trkpt lat="46.24822" lon="14.33711">
        <ele>373.60322</ele>
        <time>2026-07-12T09:11:33.000Z</time>
      </trkpt>
      <trkpt lat="46.24823" lon="14.33704">
        <ele>373.51279</ele>
        <time>2026-07-12T09:11:34.000Z</time>
      </trkpt>
      <trkpt lat="46.24822" lon="14.33669">
        <ele>373.081953</ele>
        <time>2026-07-12T09:11:39.000Z</time>
      </trkpt>
      <trkpt lat="46.24817" lon="14.33643">
        <ele>372.74436</ele>
        <time>2026-07-12T09:11:43.000Z</time>
      </trkpt>
      <trkpt lat="46.24814" lon="14.3363">
        <ele>372.571856</ele>
        <time>2026-07-12T09:11:45.000Z</time>
      </trkpt>
      <trkpt lat="46.24805" lon="14.33596">
        <ele>372.132596</ele>
        <time>2026-07-12T09:11:50.000Z</time>
      </trkpt>
      <trkpt lat="46.24805" lon="14.33582">
        <ele>372.011442</ele>
        <time>2026-07-12T09:11:52.000Z</time>
      </trkpt>
      <trkpt lat="46.24804" lon="14.33569">
        <ele>371.999599</ele>
        <time>2026-07-12T09:11:54.000Z</time>
      </trkpt>
      <trkpt lat="46.24807" lon="14.33543">
        <ele>371.975795</ele>
        <time>2026-07-12T09:11:58.000Z</time>
      </trkpt>
      <trkpt lat="46.24808" lon="14.33536">
        <ele>371.969537</ele>
        <time>2026-07-12T09:11:59.000Z</time>
      </trkpt>
      <trkpt lat="46.24812" lon="14.33523">
        <ele>371.956807</ele>
        <time>2026-07-12T09:12:01.000Z</time>
      </trkpt>
      <trkpt lat="46.24817" lon="14.33512">
        <ele>371.944647</ele>
        <time>2026-07-12T09:12:03.000Z</time>
      </trkpt>
      <trkpt lat="46.24835" lon="14.33461">
        <ele>371.892686</ele>
        <time>2026-07-12T09:12:11.000Z</time>
      </trkpt>
      <trkpt lat="46.2484" lon="14.33441">
        <ele>371.873154</ele>
        <time>2026-07-12T09:12:14.000Z</time>
      </trkpt>
      <trkpt lat="46.24841" lon="14.33434">
        <ele>371.86677</ele>
        <time>2026-07-12T09:12:15.000Z</time>
      </trkpt>
      <trkpt lat="46.24844" lon="14.3342">
        <ele>371.853449</ele>
        <time>2026-07-12T09:12:17.000Z</time>
      </trkpt>
      <trkpt lat="46.24852" lon="14.33392">
        <ele>371.826701</ele>
        <time>2026-07-12T09:12:21.000Z</time>
      </trkpt>
      <trkpt lat="46.24856" lon="14.33379">
        <ele>371.813311</ele>
        <time>2026-07-12T09:12:23.000Z</time>
      </trkpt>
      <trkpt lat="46.24859" lon="14.33372">
        <ele>371.80649</ele>
        <time>2026-07-12T09:12:24.000Z</time>
      </trkpt>
      <trkpt lat="46.24871" lon="14.3334">
        <ele>371.779977</ele>
        <time>2026-07-12T09:12:29.000Z</time>
      </trkpt>
      <trkpt lat="46.24877" lon="14.33327">
        <ele>371.779388</ele>
        <time>2026-07-12T09:12:31.000Z</time>
      </trkpt>
      <trkpt lat="46.24882" lon="14.33314">
        <ele>371.778806</ele>
        <time>2026-07-12T09:12:33.000Z</time>
      </trkpt>
      <trkpt lat="46.24899" lon="14.33271">
        <ele>371.776812</ele>
        <time>2026-07-12T09:12:40.000Z</time>
      </trkpt>
      <trkpt lat="46.24909" lon="14.33245">
        <ele>371.775651</ele>
        <time>2026-07-12T09:12:44.000Z</time>
      </trkpt>
      <trkpt lat="46.24917" lon="14.33218">
        <ele>371.774487</ele>
        <time>2026-07-12T09:12:48.000Z</time>
      </trkpt>
      <trkpt lat="46.24919" lon="14.33211">
        <ele>371.77419</ele>
        <time>2026-07-12T09:12:49.000Z</time>
      </trkpt>
      <trkpt lat="46.24922" lon="14.33197">
        <ele>371.773603</ele>
        <time>2026-07-12T09:12:51.000Z</time>
      </trkpt>
      <trkpt lat="46.24925" lon="14.33184">
        <ele>371.773041</ele>
        <time>2026-07-12T09:12:53.000Z</time>
      </trkpt>
      <trkpt lat="46.24927" lon="14.33176">
        <ele>371.772704</ele>
        <time>2026-07-12T09:12:54.000Z</time>
      </trkpt>
      <trkpt lat="46.24933" lon="14.33131">
        <ele>371.770915</ele>
        <time>2026-07-12T09:12:59.000Z</time>
      </trkpt>
      <trkpt lat="46.24936" lon="14.33093">
        <ele>371.468362</ele>
        <time>2026-07-12T09:13:03.000Z</time>
      </trkpt>
      <trkpt lat="46.24936" lon="14.33072">
        <ele>371.051477</ele>
        <time>2026-07-12T09:13:05.000Z</time>
      </trkpt>
      <trkpt lat="46.24937" lon="14.33034">
        <ele>370.323516</ele>
        <time>2026-07-12T09:13:09.000Z</time>
      </trkpt>
      <trkpt lat="46.24937" lon="14.33015">
        <ele>369.964434</ele>
        <time>2026-07-12T09:13:11.000Z</time>
      </trkpt>
      <trkpt lat="46.24937" lon="14.32997">
        <ele>369.613126</ele>
        <time>2026-07-12T09:13:13.000Z</time>
      </trkpt>
      <trkpt lat="46.24936" lon="14.32969">
        <ele>369.078393</ele>
        <time>2026-07-12T09:13:16.000Z</time>
      </trkpt>
      <trkpt lat="46.24937" lon="14.32896">
        <ele>367.659802</ele>
        <time>2026-07-12T09:13:24.000Z</time>
      </trkpt>
      <trkpt lat="46.24936" lon="14.32859">
        <ele>366.939125</ele>
        <time>2026-07-12T09:13:28.000Z</time>
      </trkpt>
      <trkpt lat="46.24932" lon="14.3282">
        <ele>365.981807</ele>
        <time>2026-07-12T09:13:32.000Z</time>
      </trkpt>
      <trkpt lat="46.24929" lon="14.32807">
        <ele>365.615212</ele>
        <time>2026-07-12T09:13:33.000Z</time>
      </trkpt>
      <trkpt lat="46.24921" lon="14.32788">
        <ele>365.023509</ele>
        <time>2026-07-12T09:13:35.000Z</time>
      </trkpt>
      <trkpt lat="46.24916" lon="14.32777">
        <ele>364.683086</ele>
        <time>2026-07-12T09:13:36.000Z</time>
      </trkpt>
      <trkpt lat="46.24911" lon="14.32767">
        <ele>364.334437</ele>
        <time>2026-07-12T09:13:37.000Z</time>
      </trkpt>
      <trkpt lat="46.24896" lon="14.32732">
        <ele>363.245953</ele>
        <time>2026-07-12T09:13:40.000Z</time>
      </trkpt>
      <trkpt lat="46.24893" lon="14.3272">
        <ele>362.894459</ele>
        <time>2026-07-12T09:13:41.000Z</time>
      </trkpt>
      <trkpt lat="46.2489" lon="14.32695">
        <ele>362.220441</ele>
        <time>2026-07-12T09:13:43.000Z</time>
      </trkpt>
      <trkpt lat="46.2489" lon="14.32672">
        <ele>361.601513</ele>
        <time>2026-07-12T09:13:45.000Z</time>
      </trkpt>
      <trkpt lat="46.24892" lon="14.32661">
        <ele>361.302614</ele>
        <time>2026-07-12T09:13:46.000Z</time>
      </trkpt>
      <trkpt lat="46.24898" lon="14.32631">
        <ele>360.487156</ele>
        <time>2026-07-12T09:13:49.000Z</time>
      </trkpt>
      <trkpt lat="46.24916" lon="14.3257">
        <ele>360.278351</ele>
        <time>2026-07-12T09:13:56.000Z</time>
      </trkpt>
      <trkpt lat="46.24934" lon="14.32509">
        <ele>361.025897</ele>
        <time>2026-07-12T09:14:04.000Z</time>
      </trkpt>
      <trkpt lat="46.24948" lon="14.32465">
        <ele>361.565673</ele>
        <time>2026-07-12T09:14:10.000Z</time>
      </trkpt>
      <trkpt lat="46.24951" lon="14.32458">
        <ele>361.659055</ele>
        <time>2026-07-12T09:14:11.000Z</time>
      </trkpt>
      <trkpt lat="46.24977" lon="14.3239">
        <ele>362.526504</ele>
        <time>2026-07-12T09:14:21.000Z</time>
      </trkpt>
      <trkpt lat="46.24983" lon="14.32376">
        <ele>362.707047</ele>
        <time>2026-07-12T09:14:23.000Z</time>
      </trkpt>
      <trkpt lat="46.2501" lon="14.32318">
        <ele>363.524859</ele>
        <time>2026-07-12T09:14:32.000Z</time>
      </trkpt>
      <trkpt lat="46.25025" lon="14.32292">
        <ele>363.910596</ele>
        <time>2026-07-12T09:14:36.000Z</time>
      </trkpt>
      <trkpt lat="46.25035" lon="14.32274">
        <ele>364.176581</ele>
        <time>2026-07-12T09:14:39.000Z</time>
      </trkpt>
      <trkpt lat="46.25046" lon="14.32256">
        <ele>364.449955</ele>
        <time>2026-07-12T09:14:42.000Z</time>
      </trkpt>
      <trkpt lat="46.25086" lon="14.32199">
        <ele>365.396037</ele>
        <time>2026-07-12T09:14:52.000Z</time>
      </trkpt>
      <trkpt lat="46.25123" lon="14.32146">
        <ele>366.898358</ele>
        <time>2026-07-12T09:15:02.000Z</time>
      </trkpt>
      <trkpt lat="46.25153" lon="14.32106">
        <ele>368.374554</ele>
        <time>2026-07-12T09:15:10.000Z</time>
      </trkpt>
      <trkpt lat="46.25187" lon="14.32056">
        <ele>370.159622</ele>
        <time>2026-07-12T09:15:20.000Z</time>
      </trkpt>
      <trkpt lat="46.2519" lon="14.32051">
        <ele>370.331624</ele>
        <time>2026-07-12T09:15:21.000Z</time>
      </trkpt>
      <trkpt lat="46.25209" lon="14.32025">
        <ele>371.275361</ele>
        <time>2026-07-12T09:15:26.000Z</time>
      </trkpt>
      <trkpt lat="46.25241" lon="14.31961">
        <ele>372.150871</ele>
        <time>2026-07-12T09:15:36.000Z</time>
      </trkpt>
      <trkpt lat="46.25265" lon="14.31931">
        <ele>371.973248</ele>
        <time>2026-07-12T09:15:41.000Z</time>
      </trkpt>
      <trkpt lat="46.25288" lon="14.31914">
        <ele>371.828433</ele>
        <time>2026-07-12T09:15:45.000Z</time>
      </trkpt>
      <trkpt lat="46.25298" lon="14.31907">
        <ele>371.764822</ele>
        <time>2026-07-12T09:15:47.000Z</time>
      </trkpt>
      <trkpt lat="46.25307" lon="14.319">
        <ele>371.707834</ele>
        <time>2026-07-12T09:15:49.000Z</time>
      </trkpt>
      <trkpt lat="46.25318" lon="14.31887">
        <ele>371.630383</ele>
        <time>2026-07-12T09:15:52.000Z</time>
      </trkpt>
      <trkpt lat="46.25324" lon="14.31879">
        <ele>371.584279</ele>
        <time>2026-07-12T09:15:54.000Z</time>
      </trkpt>
      <trkpt lat="46.25333" lon="14.31862">
        <ele>371.498352</ele>
        <time>2026-07-12T09:15:58.000Z</time>
      </trkpt>
      <trkpt lat="46.25344" lon="14.31833">
        <ele>371.37013</ele>
        <time>2026-07-12T09:16:05.000Z</time>
      </trkpt>
      <trkpt lat="46.25351" lon="14.31801">
        <ele>372.023682</ele>
        <time>2026-07-12T09:16:12.000Z</time>
      </trkpt>
      <trkpt lat="46.25352" lon="14.31778">
        <ele>373.379056</ele>
        <time>2026-07-12T09:16:17.000Z</time>
      </trkpt>
      <trkpt lat="46.25351" lon="14.31768">
        <ele>373.929284</ele>
        <time>2026-07-12T09:16:19.000Z</time>
      </trkpt>
      <trkpt lat="46.25348" lon="14.31741">
        <ele>375.525783</ele>
        <time>2026-07-12T09:16:25.000Z</time>
      </trkpt>
      <trkpt lat="46.25351" lon="14.31713">
        <ele>377.18067</ele>
        <time>2026-07-12T09:16:31.000Z</time>
      </trkpt>
      <trkpt lat="46.25364" lon="14.31702">
        <ele>378.43993</ele>
        <time>2026-07-12T09:16:36.000Z</time>
      </trkpt>
      <trkpt lat="46.25384" lon="14.31701">
        <ele>380.06339</ele>
        <time>2026-07-12T09:16:43.000Z</time>
      </trkpt>
      <trkpt lat="46.25395" lon="14.31701">
        <ele>380.974725</ele>
        <time>2026-07-12T09:16:48.000Z</time>
      </trkpt>
      <trkpt lat="46.2541" lon="14.31698">
        <ele>382.293503</ele>
        <time>2026-07-12T09:16:55.000Z</time>
      </trkpt>
      <trkpt lat="46.25424" lon="14.31692">
        <ele>383.506302</ele>
        <time>2026-07-12T09:17:02.000Z</time>
      </trkpt>
      <trkpt lat="46.25444" lon="14.31684">
        <ele>385.225101</ele>
        <time>2026-07-12T09:17:10.000Z</time>
      </trkpt>
      <trkpt lat="46.25462" lon="14.31676">
        <ele>386.565702</ele>
        <time>2026-07-12T09:17:17.000Z</time>
      </trkpt>
      <trkpt lat="46.25474" lon="14.31664">
        <ele>387.195723</ele>
        <time>2026-07-12T09:17:23.000Z</time>
      </trkpt>
      <trkpt lat="46.25482" lon="14.31655">
        <ele>387.634201</ele>
        <time>2026-07-12T09:17:27.000Z</time>
      </trkpt>
      <trkpt lat="46.25488" lon="14.31649">
        <ele>387.924055</ele>
        <time>2026-07-12T09:17:30.000Z</time>
      </trkpt>
      <trkpt lat="46.25496" lon="14.31639">
        <ele>388.37867</ele>
        <time>2026-07-12T09:17:35.000Z</time>
      </trkpt>
      <trkpt lat="46.25501" lon="14.31628">
        <ele>388.775792</ele>
        <time>2026-07-12T09:17:39.000Z</time>
      </trkpt>
      <trkpt lat="46.25517" lon="14.31603">
        <ele>389.772135</ele>
        <time>2026-07-12T09:17:49.000Z</time>
      </trkpt>
      <trkpt lat="46.25528" lon="14.31584">
        <ele>390.502106</ele>
        <time>2026-07-12T09:17:57.000Z</time>
      </trkpt>
      <trkpt lat="46.2554" lon="14.31564">
        <ele>391.273385</ele>
        <time>2026-07-12T09:18:05.000Z</time>
      </trkpt>
      <trkpt lat="46.25551" lon="14.31542">
        <ele>392.082109</ele>
        <time>2026-07-12T09:18:14.000Z</time>
      </trkpt>
      <trkpt lat="46.25567" lon="14.31519">
        <ele>393.029147</ele>
        <time>2026-07-12T09:18:24.000Z</time>
      </trkpt>
      <trkpt lat="46.25584" lon="14.31503">
        <ele>393.892061</ele>
        <time>2026-07-12T09:18:33.000Z</time>
      </trkpt>
      <trkpt lat="46.25599" lon="14.31489">
        <ele>394.486683</ele>
        <time>2026-07-12T09:18:40.000Z</time>
      </trkpt>
      <trkpt lat="46.25601" lon="14.31487">
        <ele>394.579517</ele>
        <time>2026-07-12T09:18:41.000Z</time>
      </trkpt>
      <trkpt lat="46.25615" lon="14.31466">
        <ele>395.214297</ele>
        <time>2026-07-12T09:18:48.000Z</time>
      </trkpt>
      <trkpt lat="46.25624" lon="14.31445">
        <ele>395.765554</ele>
        <time>2026-07-12T09:18:54.000Z</time>
      </trkpt>
      <trkpt lat="46.25633" lon="14.31418">
        <ele>396.421578</ele>
        <time>2026-07-12T09:19:01.000Z</time>
      </trkpt>
      <trkpt lat="46.25636" lon="14.31411">
        <ele>396.601763</ele>
        <time>2026-07-12T09:19:03.000Z</time>
      </trkpt>
      <trkpt lat="46.25646" lon="14.31385">
        <ele>397.257946</ele>
        <time>2026-07-12T09:19:10.000Z</time>
      </trkpt>
      <trkpt lat="46.25659" lon="14.31364">
        <ele>397.878758</ele>
        <time>2026-07-12T09:19:17.000Z</time>
      </trkpt>
      <trkpt lat="46.25672" lon="14.31344">
        <ele>398.468067</ele>
        <time>2026-07-12T09:19:24.000Z</time>
      </trkpt>
      <trkpt lat="46.2569" lon="14.31321">
        <ele>399.234863</ele>
        <time>2026-07-12T09:19:33.000Z</time>
      </trkpt>
      <trkpt lat="46.2571" lon="14.31298">
        <ele>400.171289</ele>
        <time>2026-07-12T09:19:43.000Z</time>
      </trkpt>
      <trkpt lat="46.25716" lon="14.31293">
        <ele>400.478444</ele>
        <time>2026-07-12T09:19:46.000Z</time>
      </trkpt>
      <trkpt lat="46.25727" lon="14.31282">
        <ele>401.032667</ele>
        <time>2026-07-12T09:19:51.000Z</time>
      </trkpt>
      <trkpt lat="46.25732" lon="14.31279">
        <ele>401.26782</ele>
        <time>2026-07-12T09:19:53.000Z</time>
      </trkpt>
      <trkpt lat="46.2575" lon="14.31263">
        <ele>402.142077</ele>
        <time>2026-07-12T09:20:01.000Z</time>
      </trkpt>
      <trkpt lat="46.25771" lon="14.31245">
        <ele>403.165741</ele>
        <time>2026-07-12T09:20:10.000Z</time>
      </trkpt>
      <trkpt lat="46.25789" lon="14.31226">
        <ele>404.101399</ele>
        <time>2026-07-12T09:20:19.000Z</time>
      </trkpt>
      <trkpt lat="46.25803" lon="14.31202">
        <ele>405.043006</ele>
        <time>2026-07-12T09:20:27.000Z</time>
      </trkpt>
      <trkpt lat="46.2581" lon="14.31171">
        <ele>405.971983</ele>
        <time>2026-07-12T09:20:35.000Z</time>
      </trkpt>
      <trkpt lat="46.25805" lon="14.31139">
        <ele>406.931338</ele>
        <time>2026-07-12T09:20:43.000Z</time>
      </trkpt>
      <trkpt lat="46.25797" lon="14.31108">
        <ele>407.755591</ele>
        <time>2026-07-12T09:20:51.000Z</time>
      </trkpt>
      <trkpt lat="46.25792" lon="14.3108">
        <ele>408.371663</ele>
        <time>2026-07-12T09:20:58.000Z</time>
      </trkpt>
      <trkpt lat="46.25793" lon="14.31043">
        <ele>409.153603</ele>
        <time>2026-07-12T09:21:07.000Z</time>
      </trkpt>
      <trkpt lat="46.25796" lon="14.31007">
        <ele>409.932825</ele>
        <time>2026-07-12T09:21:16.000Z</time>
      </trkpt>
      <trkpt lat="46.25807" lon="14.30965">
        <ele>410.899345</ele>
        <time>2026-07-12T09:21:27.000Z</time>
      </trkpt>
      <trkpt lat="46.25818" lon="14.30932">
        <ele>411.682629</ele>
        <time>2026-07-12T09:21:36.000Z</time>
      </trkpt>
      <trkpt lat="46.25825" lon="14.30893">
        <ele>412.548482</ele>
        <time>2026-07-12T09:21:46.000Z</time>
      </trkpt>
      <trkpt lat="46.25827" lon="14.30861">
        <ele>413.431268</ele>
        <time>2026-07-12T09:21:54.000Z</time>
      </trkpt>
      <trkpt lat="46.25823" lon="14.30829">
        <ele>414.539027</ele>
        <time>2026-07-12T09:22:02.000Z</time>
      </trkpt>
      <trkpt lat="46.25819" lon="14.30799">
        <ele>415.588771</ele>
        <time>2026-07-12T09:22:10.000Z</time>
      </trkpt>
      <trkpt lat="46.25816" lon="14.30776">
        <ele>416.368124</ele>
        <time>2026-07-12T09:22:16.000Z</time>
      </trkpt>
      <trkpt lat="46.25814" lon="14.30742">
        <ele>417.534149</ele>
        <time>2026-07-12T09:22:25.000Z</time>
      </trkpt>
      <trkpt lat="46.25816" lon="14.30709">
        <ele>418.646361</ele>
        <time>2026-07-12T09:22:33.000Z</time>
      </trkpt>
      <trkpt lat="46.25819" lon="14.30677">
        <ele>419.744823</ele>
        <time>2026-07-12T09:22:41.000Z</time>
      </trkpt>
      <trkpt lat="46.25821" lon="14.3067">
        <ele>420.014183</ele>
        <time>2026-07-12T09:22:43.000Z</time>
      </trkpt>
      <trkpt lat="46.25828" lon="14.30642">
        <ele>421.020391</ele>
        <time>2026-07-12T09:22:50.000Z</time>
      </trkpt>
      <trkpt lat="46.25835" lon="14.30605">
        <ele>422.068626</ele>
        <time>2026-07-12T09:22:59.000Z</time>
      </trkpt>
      <trkpt lat="46.25836" lon="14.30568">
        <ele>422.792745</ele>
        <time>2026-07-12T09:23:07.000Z</time>
      </trkpt>
      <trkpt lat="46.25835" lon="14.30527">
        <ele>423.60847</ele>
        <time>2026-07-12T09:23:15.000Z</time>
      </trkpt>
      <trkpt lat="46.25835" lon="14.30482">
        <ele>424.500592</ele>
        <time>2026-07-12T09:23:24.000Z</time>
      </trkpt>
      <trkpt lat="46.25831" lon="14.30431">
        <ele>425.522467</ele>
        <time>2026-07-12T09:23:34.000Z</time>
      </trkpt>
      <trkpt lat="46.25828" lon="14.30382">
        <ele>426.488266</ele>
        <time>2026-07-12T09:23:43.000Z</time>
      </trkpt>
      <trkpt lat="46.25829" lon="14.30339">
        <ele>427.131515</ele>
        <time>2026-07-12T09:23:51.000Z</time>
      </trkpt>
      <trkpt lat="46.25831" lon="14.30305">
        <ele>427.482436</ele>
        <time>2026-07-12T09:23:57.000Z</time>
      </trkpt>
      <trkpt lat="46.25835" lon="14.3029">
        <ele>427.650724</ele>
        <time>2026-07-12T09:24:00.000Z</time>
      </trkpt>
      <trkpt lat="46.25846" lon="14.30254">
        <ele>428.067139</ele>
        <time>2026-07-12T09:24:07.000Z</time>
      </trkpt>
      <trkpt lat="46.2586" lon="14.30215">
        <ele>428.530387</ele>
        <time>2026-07-12T09:24:15.000Z</time>
      </trkpt>
      <trkpt lat="46.25864" lon="14.30192">
        <ele>428.774711</ele>
        <time>2026-07-12T09:24:19.000Z</time>
      </trkpt>
      <trkpt lat="46.25866" lon="14.30176">
        <ele>428.948404</ele>
        <time>2026-07-12T09:24:22.000Z</time>
      </trkpt>
      <trkpt lat="46.25868" lon="14.30152">
        <ele>429.195116</ele>
        <time>2026-07-12T09:24:27.000Z</time>
      </trkpt>
      <trkpt lat="46.2587" lon="14.30148">
        <ele>429.256646</ele>
        <time>2026-07-12T09:24:29.000Z</time>
      </trkpt>
      <trkpt lat="46.25873" lon="14.30148">
        <ele>429.291611</ele>
        <time>2026-07-12T09:24:30.000Z</time>
      </trkpt>
      <trkpt lat="46.25875" lon="14.30149">
        <ele>429.330146</ele>
        <time>2026-07-12T09:24:31.000Z</time>
      </trkpt>
      <trkpt lat="46.25882" lon="14.30154">
        <ele>429.444555</ele>
        <time>2026-07-12T09:24:35.000Z</time>
      </trkpt>
      <trkpt lat="46.25888" lon="14.30151">
        <ele>429.544883</ele>
        <time>2026-07-12T09:24:37.000Z</time>
      </trkpt>
      <trkpt lat="46.25891" lon="14.30147">
        <ele>429.606858</ele>
        <time>2026-07-12T09:24:38.000Z</time>
      </trkpt>
      <trkpt lat="46.25907" lon="14.30108">
        <ele>430.222767</ele>
        <time>2026-07-12T09:24:46.000Z</time>
      </trkpt>
      <trkpt lat="46.2591" lon="14.30104">
        <ele>430.302193</ele>
        <time>2026-07-12T09:24:47.000Z</time>
      </trkpt>
      <trkpt lat="46.25929" lon="14.30077">
        <ele>430.829584</ele>
        <time>2026-07-12T09:24:54.000Z</time>
      </trkpt>
      <trkpt lat="46.25945" lon="14.30055">
        <ele>431.253097</ele>
        <time>2026-07-12T09:25:00.000Z</time>
      </trkpt>
      <trkpt lat="46.25951" lon="14.30037">
        <ele>431.524957</ele>
        <time>2026-07-12T09:25:04.000Z</time>
      </trkpt>
      <trkpt lat="46.25956" lon="14.30019">
        <ele>431.788683</ele>
        <time>2026-07-12T09:25:08.000Z</time>
      </trkpt>
      <trkpt lat="46.25957" lon="14.30014">
        <ele>431.855886</ele>
        <time>2026-07-12T09:25:09.000Z</time>
      </trkpt>
      <trkpt lat="46.25961" lon="14.29996">
        <ele>432.118939</ele>
        <time>2026-07-12T09:25:13.000Z</time>
      </trkpt>
      <trkpt lat="46.25966" lon="14.29983">
        <ele>432.306502</ele>
        <time>2026-07-12T09:25:16.000Z</time>
      </trkpt>
      <trkpt lat="46.2598" lon="14.29964">
        <ele>432.685828</ele>
        <time>2026-07-12T09:25:22.000Z</time>
      </trkpt>
      <trkpt lat="46.25999" lon="14.29936">
        <ele>433.19094</ele>
        <time>2026-07-12T09:25:30.000Z</time>
      </trkpt>
      <trkpt lat="46.26017" lon="14.29922">
        <ele>433.45244</ele>
        <time>2026-07-12T09:25:36.000Z</time>
      </trkpt>
      <trkpt lat="46.26033" lon="14.29905">
        <ele>433.715479</ele>
        <time>2026-07-12T09:25:42.000Z</time>
      </trkpt>
      <trkpt lat="46.26038" lon="14.29882">
        <ele>433.926124</ele>
        <time>2026-07-12T09:25:47.000Z</time>
      </trkpt>
      <trkpt lat="46.26054" lon="14.2986">
        <ele>434.219387</ele>
        <time>2026-07-12T09:25:53.000Z</time>
      </trkpt>
      <trkpt lat="46.26075" lon="14.29829">
        <ele>434.601645</ele>
        <time>2026-07-12T09:26:00.000Z</time>
      </trkpt>
      <trkpt lat="46.26094" lon="14.29804">
        <ele>434.929144</ele>
        <time>2026-07-12T09:26:06.000Z</time>
      </trkpt>
      <trkpt lat="46.26096" lon="14.29799">
        <ele>434.987289</ele>
        <time>2026-07-12T09:26:07.000Z</time>
      </trkpt>
      <trkpt lat="46.26102" lon="14.29788">
        <ele>435.109561</ele>
        <time>2026-07-12T09:26:09.000Z</time>
      </trkpt>
      <trkpt lat="46.26107" lon="14.29775">
        <ele>435.24139</ele>
        <time>2026-07-12T09:26:11.000Z</time>
      </trkpt>
      <trkpt lat="46.26112" lon="14.29741">
        <ele>435.579584</ele>
        <time>2026-07-12T09:26:16.000Z</time>
      </trkpt>
      <trkpt lat="46.26113" lon="14.29725">
        <ele>435.747823</ele>
        <time>2026-07-12T09:26:20.000Z</time>
      </trkpt>
      <trkpt lat="46.26113" lon="14.29724">
        <ele>435.765683</ele>
        <time>2026-07-12T09:26:21.000Z</time>
      </trkpt>
      <trkpt lat="46.26111" lon="14.29723">
        <ele>435.79763</ele>
        <time>2026-07-12T09:26:23.000Z</time>
      </trkpt>
      <trkpt lat="46.2611" lon="14.29727">
        <ele>435.835578</ele>
        <time>2026-07-12T09:26:25.000Z</time>
      </trkpt>
      <trkpt lat="46.26111" lon="14.29732">
        <ele>435.893215</ele>
        <time>2026-07-12T09:26:27.000Z</time>
      </trkpt>
      <trkpt lat="46.2611" lon="14.29751">
        <ele>436.10231</ele>
        <time>2026-07-12T09:26:33.000Z</time>
      </trkpt>
      <trkpt lat="46.26109" lon="14.29761">
        <ele>436.217201</ele>
        <time>2026-07-12T09:26:36.000Z</time>
      </trkpt>
      <trkpt lat="46.26112" lon="14.29766">
        <ele>436.290784</ele>
        <time>2026-07-12T09:26:38.000Z</time>
      </trkpt>
      <trkpt lat="46.26114" lon="14.29766">
        <ele>436.328979</ele>
        <time>2026-07-12T09:26:39.000Z</time>
      </trkpt>
      <trkpt lat="46.26122" lon="14.29759">
        <ele>436.471186</ele>
        <time>2026-07-12T09:26:42.000Z</time>
      </trkpt>
      <trkpt lat="46.26139" lon="14.29738">
        <ele>436.8264</ele>
        <time>2026-07-12T09:26:49.000Z</time>
      </trkpt>
      <trkpt lat="46.26157" lon="14.29722">
        <ele>437.165534</ele>
        <time>2026-07-12T09:26:56.000Z</time>
      </trkpt>
      <trkpt lat="46.26165" lon="14.29717">
        <ele>437.308233</ele>
        <time>2026-07-12T09:26:59.000Z</time>
      </trkpt>
      <trkpt lat="46.26174" lon="14.29714">
        <ele>437.44682</ele>
        <time>2026-07-12T09:27:02.000Z</time>
      </trkpt>
      <trkpt lat="46.26186" lon="14.29707">
        <ele>437.650927</ele>
        <time>2026-07-12T09:27:07.000Z</time>
      </trkpt>
      <trkpt lat="46.26196" lon="14.29694">
        <ele>437.857567</ele>
        <time>2026-07-12T09:27:13.000Z</time>
      </trkpt>
      <trkpt lat="46.26196" lon="14.29693">
        <ele>437.868542</ele>
        <time>2026-07-12T09:27:16.000Z</time>
      </trkpt>
      <trkpt lat="46.26191" lon="14.297">
        <ele>437.973044</ele>
        <time>2026-07-12T09:27:26.000Z</time>
      </trkpt>
      <trkpt lat="46.2619" lon="14.29702">
        <ele>438.005889</ele>
        <time>2026-07-12T09:27:27.000Z</time>
      </trkpt>
      <trkpt lat="46.2618" lon="14.29709">
        <ele>438.181083</ele>
        <time>2026-07-12T09:27:32.000Z</time>
      </trkpt>
      <trkpt lat="46.26165" lon="14.29714">
        <ele>438.163803</ele>
        <time>2026-07-12T09:27:36.000Z</time>
      </trkpt>
      <trkpt lat="46.26145" lon="14.29727">
        <ele>437.679223</ele>
        <time>2026-07-12T09:27:42.000Z</time>
      </trkpt>
      <trkpt lat="46.26121" lon="14.29751">
        <ele>436.996498</ele>
        <time>2026-07-12T09:27:49.000Z</time>
      </trkpt>
      <trkpt lat="46.26108" lon="14.29767">
        <ele>436.606965</ele>
        <time>2026-07-12T09:27:54.000Z</time>
      </trkpt>
      <trkpt lat="46.26107" lon="14.29768">
        <ele>436.592007</ele>
        <time>2026-07-12T09:27:56.000Z</time>
      </trkpt>
      <trkpt lat="46.26106" lon="14.29759">
        <ele>436.448914</ele>
        <time>2026-07-12T09:28:45.000Z</time>
      </trkpt>
      <trkpt lat="46.26106" lon="14.29756">
        <ele>436.400388</ele>
        <time>2026-07-12T09:28:46.000Z</time>
      </trkpt>
      <trkpt lat="46.26108" lon="14.29736">
        <ele>436.086823</ele>
        <time>2026-07-12T09:28:51.000Z</time>
      </trkpt>
      <trkpt lat="46.26106" lon="14.2971">
        <ele>435.672498</ele>
        <time>2026-07-12T09:28:56.000Z</time>
      </trkpt>
      <trkpt lat="46.26099" lon="14.29669">
        <ele>435.019423</ele>
        <time>2026-07-12T09:29:03.000Z</time>
      </trkpt>
      <trkpt lat="46.26098" lon="14.29657">
        <ele>434.827365</ele>
        <time>2026-07-12T09:29:05.000Z</time>
      </trkpt>
      <trkpt lat="46.26099" lon="14.29629">
        <ele>434.386012</ele>
        <time>2026-07-12T09:29:09.000Z</time>
      </trkpt>
      <trkpt lat="46.26102" lon="14.29607">
        <ele>433.841753</ele>
        <time>2026-07-12T09:29:12.000Z</time>
      </trkpt>
      <trkpt lat="46.26101" lon="14.296">
        <ele>433.627576</ele>
        <time>2026-07-12T09:29:13.000Z</time>
      </trkpt>
      <trkpt lat="46.261" lon="14.29594">
        <ele>433.435398</ele>
        <time>2026-07-12T09:29:14.000Z</time>
      </trkpt>
      <trkpt lat="46.26096" lon="14.29586">
        <ele>433.145211</ele>
        <time>2026-07-12T09:29:16.000Z</time>
      </trkpt>
      <trkpt lat="46.26092" lon="14.29583">
        <ele>432.949596</ele>
        <time>2026-07-12T09:29:20.000Z</time>
      </trkpt>
      <trkpt lat="46.26086" lon="14.29573">
        <ele>432.573672</ele>
        <time>2026-07-12T09:30:08.000Z</time>
      </trkpt>
      <trkpt lat="46.26082" lon="14.29566">
        <ele>432.292824</ele>
        <time>2026-07-12T09:30:10.000Z</time>
      </trkpt>
      <trkpt lat="46.26073" lon="14.29543">
        <ele>431.481928</ele>
        <time>2026-07-12T09:30:14.000Z</time>
      </trkpt>
      <trkpt lat="46.2607" lon="14.29527">
        <ele>431.003164</ele>
        <time>2026-07-12T09:30:16.000Z</time>
      </trkpt>
      <trkpt lat="46.2607" lon="14.2951">
        <ele>430.477005</ele>
        <time>2026-07-12T09:30:18.000Z</time>
      </trkpt>
      <trkpt lat="46.26071" lon="14.29473">
        <ele>429.37234</ele>
        <time>2026-07-12T09:30:22.000Z</time>
      </trkpt>
      <trkpt lat="46.2607" lon="14.29464">
        <ele>429.102753</ele>
        <time>2026-07-12T09:30:23.000Z</time>
      </trkpt>
      <trkpt lat="46.26067" lon="14.29456">
        <ele>428.829677</ele>
        <time>2026-07-12T09:30:24.000Z</time>
      </trkpt>
      <trkpt lat="46.26061" lon="14.29442">
        <ele>428.324919</ele>
        <time>2026-07-12T09:30:26.000Z</time>
      </trkpt>
      <trkpt lat="46.26057" lon="14.29436">
        <ele>428.078609</ele>
        <time>2026-07-12T09:30:27.000Z</time>
      </trkpt>
      <trkpt lat="46.26047" lon="14.29419">
        <ele>427.395996</ele>
        <time>2026-07-12T09:30:30.000Z</time>
      </trkpt>
      <trkpt lat="46.26043" lon="14.29408">
        <ele>427.040097</ele>
        <time>2026-07-12T09:30:32.000Z</time>
      </trkpt>
      <trkpt lat="46.26043" lon="14.29403">
        <ele>426.877505</ele>
        <time>2026-07-12T09:30:33.000Z</time>
      </trkpt>
      <trkpt lat="46.26044" lon="14.29393">
        <ele>426.57572</ele>
        <time>2026-07-12T09:30:35.000Z</time>
      </trkpt>
      <trkpt lat="46.26048" lon="14.29366">
        <ele>426.306916</ele>
        <time>2026-07-12T09:30:41.000Z</time>
      </trkpt>
      <trkpt lat="46.26051" lon="14.29327">
        <ele>426.112418</ele>
        <time>2026-07-12T09:30:50.000Z</time>
      </trkpt>
      <trkpt lat="46.26053" lon="14.29294">
        <ele>425.950859</ele>
        <time>2026-07-12T09:30:57.000Z</time>
      </trkpt>
      <trkpt lat="46.26056" lon="14.29255">
        <ele>425.75537</ele>
        <time>2026-07-12T09:31:04.000Z</time>
      </trkpt>
      <trkpt lat="46.26057" lon="14.29236">
        <ele>425.656809</ele>
        <time>2026-07-12T09:31:07.000Z</time>
      </trkpt>
      <trkpt lat="46.26062" lon="14.29192">
        <ele>425.435793</ele>
        <time>2026-07-12T09:31:13.000Z</time>
      </trkpt>
      <trkpt lat="46.26076" lon="14.2913">
        <ele>425.087399</ele>
        <time>2026-07-12T09:31:20.000Z</time>
      </trkpt>
      <trkpt lat="46.26081" lon="14.29067">
        <ele>424.147937</ele>
        <time>2026-07-12T09:31:26.000Z</time>
      </trkpt>
      <trkpt lat="46.26081" lon="14.29045">
        <ele>423.816627</ele>
        <time>2026-07-12T09:31:28.000Z</time>
      </trkpt>
      <trkpt lat="46.26081" lon="14.29022">
        <ele>423.483837</ele>
        <time>2026-07-12T09:31:30.000Z</time>
      </trkpt>
      <trkpt lat="46.26083" lon="14.28977">
        <ele>422.818636</ele>
        <time>2026-07-12T09:31:34.000Z</time>
      </trkpt>
      <trkpt lat="46.26093" lon="14.28891">
        <ele>421.520437</ele>
        <time>2026-07-12T09:31:42.000Z</time>
      </trkpt>
      <trkpt lat="46.26099" lon="14.28806">
        <ele>419.774665</ele>
        <time>2026-07-12T09:31:50.000Z</time>
      </trkpt>
      <trkpt lat="46.26096" lon="14.28727">
        <ele>418.03397</ele>
        <time>2026-07-12T09:31:57.000Z</time>
      </trkpt>
      <trkpt lat="46.26088" lon="14.28644">
        <ele>416.199374</ele>
        <time>2026-07-12T09:32:04.000Z</time>
      </trkpt>
      <trkpt lat="46.26087" lon="14.28632">
        <ele>415.944109</ele>
        <time>2026-07-12T09:32:05.000Z</time>
      </trkpt>
      <trkpt lat="46.26086" lon="14.2857">
        <ele>415.663106</ele>
        <time>2026-07-12T09:32:11.000Z</time>
      </trkpt>
      <trkpt lat="46.26087" lon="14.28545">
        <ele>415.713413</ele>
        <time>2026-07-12T09:32:14.000Z</time>
      </trkpt>
      <trkpt lat="46.26086" lon="14.28531">
        <ele>415.742913</ele>
        <time>2026-07-12T09:32:16.000Z</time>
      </trkpt>
      <trkpt lat="46.2608" lon="14.28482">
        <ele>415.841854</ele>
        <time>2026-07-12T09:32:23.000Z</time>
      </trkpt>
      <trkpt lat="46.26079" lon="14.28462">
        <ele>415.882023</ele>
        <time>2026-07-12T09:32:26.000Z</time>
      </trkpt>
      <trkpt lat="46.26074" lon="14.28442">
        <ele>415.922582</ele>
        <time>2026-07-12T09:32:29.000Z</time>
      </trkpt>
      <trkpt lat="46.26072" lon="14.28422">
        <ele>415.96274</ele>
        <time>2026-07-12T09:32:32.000Z</time>
      </trkpt>
      <trkpt lat="46.26068" lon="14.28385">
        <ele>416.038672</ele>
        <time>2026-07-12T09:32:38.000Z</time>
      </trkpt>
      <trkpt lat="46.26069" lon="14.28378">
        <ele>416.051271</ele>
        <time>2026-07-12T09:32:39.000Z</time>
      </trkpt>
      <trkpt lat="46.2607" lon="14.28367">
        <ele>416.074372</ele>
        <time>2026-07-12T09:32:41.000Z</time>
      </trkpt>
      <trkpt lat="46.26074" lon="14.28355">
        <ele>416.23617</ele>
        <time>2026-07-12T09:32:43.000Z</time>
      </trkpt>
      <trkpt lat="46.26077" lon="14.28343">
        <ele>416.701359</ele>
        <time>2026-07-12T09:32:45.000Z</time>
      </trkpt>
      <trkpt lat="46.26086" lon="14.28315">
        <ele>417.774274</ele>
        <time>2026-07-12T09:32:50.000Z</time>
      </trkpt>
      <trkpt lat="46.26095" lon="14.28288">
        <ele>418.831732</ele>
        <time>2026-07-12T09:32:56.000Z</time>
      </trkpt>
      <trkpt lat="46.26115" lon="14.28264">
        <ele>420.152288</ele>
        <time>2026-07-12T09:33:04.000Z</time>
      </trkpt>
      <trkpt lat="46.26138" lon="14.28249">
        <ele>421.414255</ele>
        <time>2026-07-12T09:33:12.000Z</time>
      </trkpt>
      <trkpt lat="46.26143" lon="14.28247">
        <ele>421.691941</ele>
        <time>2026-07-12T09:33:14.000Z</time>
      </trkpt>
      <trkpt lat="46.26151" lon="14.28245">
        <ele>422.124871</ele>
        <time>2026-07-12T09:33:17.000Z</time>
      </trkpt>
      <trkpt lat="46.26163" lon="14.28244">
        <ele>422.713505</ele>
        <time>2026-07-12T09:33:21.000Z</time>
      </trkpt>
      <trkpt lat="46.26169" lon="14.28243">
        <ele>423.028981</ele>
        <time>2026-07-12T09:33:23.000Z</time>
      </trkpt>
      <trkpt lat="46.2619" lon="14.28242">
        <ele>424.072507</ele>
        <time>2026-07-12T09:33:30.000Z</time>
      </trkpt>
      <trkpt lat="46.26192" lon="14.28242">
        <ele>424.215074</ele>
        <time>2026-07-12T09:33:31.000Z</time>
      </trkpt>
      <trkpt lat="46.26219" lon="14.28231">
        <ele>426.010036</ele>
        <time>2026-07-12T09:33:41.000Z</time>
      </trkpt>
      <trkpt lat="46.26245" lon="14.28207">
        <ele>429.405203</ele>
        <time>2026-07-12T09:33:52.000Z</time>
      </trkpt>
      <trkpt lat="46.26255" lon="14.28188">
        <ele>431.162291</ele>
        <time>2026-07-12T09:33:58.000Z</time>
      </trkpt>
      <trkpt lat="46.26257" lon="14.28184">
        <ele>431.462204</ele>
        <time>2026-07-12T09:33:59.000Z</time>
      </trkpt>
      <trkpt lat="46.26262" lon="14.28174">
        <ele>432.410888</ele>
        <time>2026-07-12T09:34:02.000Z</time>
      </trkpt>
      <trkpt lat="46.26266" lon="14.28164">
        <ele>433.268278</ele>
        <time>2026-07-12T09:34:05.000Z</time>
      </trkpt>
      <trkpt lat="46.26269" lon="14.28152">
        <ele>434.215411</ele>
        <time>2026-07-12T09:34:08.000Z</time>
      </trkpt>
      <trkpt lat="46.26274" lon="14.28142">
        <ele>435.097407</ele>
        <time>2026-07-12T09:34:11.000Z</time>
      </trkpt>
      <trkpt lat="46.26275" lon="14.2813">
        <ele>436.029064</ele>
        <time>2026-07-12T09:34:14.000Z</time>
      </trkpt>
      <trkpt lat="46.26277" lon="14.28109">
        <ele>437.61683</ele>
        <time>2026-07-12T09:34:19.000Z</time>
      </trkpt>
      <trkpt lat="46.26278" lon="14.28085">
        <ele>439.381485</ele>
        <time>2026-07-12T09:34:25.000Z</time>
      </trkpt>
      <trkpt lat="46.26282" lon="14.28064">
        <ele>441.021361</ele>
        <time>2026-07-12T09:34:31.000Z</time>
      </trkpt>
      <trkpt lat="46.26287" lon="14.28047">
        <ele>442.449782</ele>
        <time>2026-07-12T09:34:36.000Z</time>
      </trkpt>
      <trkpt lat="46.2629" lon="14.28029">
        <ele>443.820263</ele>
        <time>2026-07-12T09:34:41.000Z</time>
      </trkpt>
      <trkpt lat="46.26301" lon="14.28005">
        <ele>445.318851</ele>
        <time>2026-07-12T09:34:48.000Z</time>
      </trkpt>
      <trkpt lat="46.26309" lon="14.27994">
        <ele>445.96163</ele>
        <time>2026-07-12T09:34:52.000Z</time>
      </trkpt>
      <trkpt lat="46.26312" lon="14.27988">
        <ele>446.264721</ele>
        <time>2026-07-12T09:34:54.000Z</time>
      </trkpt>
      <trkpt lat="46.26323" lon="14.27972">
        <ele>447.133307</ele>
        <time>2026-07-12T09:35:00.000Z</time>
      </trkpt>
      <trkpt lat="46.26329" lon="14.27958">
        <ele>447.775213</ele>
        <time>2026-07-12T09:35:05.000Z</time>
      </trkpt>
      <trkpt lat="46.26331" lon="14.27953">
        <ele>448.031889</ele>
        <time>2026-07-12T09:35:07.000Z</time>
      </trkpt>
      <trkpt lat="46.26335" lon="14.27947">
        <ele>448.372358</ele>
        <time>2026-07-12T09:35:10.000Z</time>
      </trkpt>
      <trkpt lat="46.26338" lon="14.27943">
        <ele>448.604457</ele>
        <time>2026-07-12T09:35:12.000Z</time>
      </trkpt>
      <trkpt lat="46.26344" lon="14.2793">
        <ele>449.229787</ele>
        <time>2026-07-12T09:35:17.000Z</time>
      </trkpt>
      <trkpt lat="46.26352" lon="14.27914">
        <ele>450.006274</ele>
        <time>2026-07-12T09:35:23.000Z</time>
      </trkpt>
      <trkpt lat="46.26359" lon="14.27903">
        <ele>450.627056</ele>
        <time>2026-07-12T09:35:28.000Z</time>
      </trkpt>
      <trkpt lat="46.26361" lon="14.27901">
        <ele>450.760843</ele>
        <time>2026-07-12T09:35:29.000Z</time>
      </trkpt>
      <trkpt lat="46.26375" lon="14.27882">
        <ele>451.868744</ele>
        <time>2026-07-12T09:35:37.000Z</time>
      </trkpt>
      <trkpt lat="46.2638" lon="14.2787">
        <ele>452.457795</ele>
        <time>2026-07-12T09:35:42.000Z</time>
      </trkpt>
      <trkpt lat="46.26388" lon="14.27853">
        <ele>453.237598</ele>
        <time>2026-07-12T09:35:48.000Z</time>
      </trkpt>
      <trkpt lat="46.26396" lon="14.27824">
        <ele>454.518297</ele>
        <time>2026-07-12T09:35:59.000Z</time>
      </trkpt>
      <trkpt lat="46.26396" lon="14.2782">
        <ele>454.654407</ele>
        <time>2026-07-12T09:36:00.000Z</time>
      </trkpt>
      <trkpt lat="46.26397" lon="14.27809">
        <ele>454.992199</ele>
        <time>2026-07-12T09:36:03.000Z</time>
      </trkpt>
      <trkpt lat="46.26397" lon="14.27786">
        <ele>454.908071</ele>
        <time>2026-07-12T09:36:10.000Z</time>
      </trkpt>
      <trkpt lat="46.26396" lon="14.27773">
        <ele>454.856342</ele>
        <time>2026-07-12T09:36:15.000Z</time>
      </trkpt>
      <trkpt lat="46.26396" lon="14.27764">
        <ele>454.820935</ele>
        <time>2026-07-12T09:36:18.000Z</time>
      </trkpt>
      <trkpt lat="46.26396" lon="14.27754">
        <ele>454.78554</ele>
        <time>2026-07-12T09:36:21.000Z</time>
      </trkpt>
      <trkpt lat="46.26394" lon="14.27726">
        <ele>454.678104</ele>
        <time>2026-07-12T09:36:30.000Z</time>
      </trkpt>
      <trkpt lat="46.26394" lon="14.2772">
        <ele>454.655166</ele>
        <time>2026-07-12T09:36:32.000Z</time>
      </trkpt>
      <trkpt lat="46.26397" lon="14.27698">
        <ele>454.568356</ele>
        <time>2026-07-12T09:36:39.000Z</time>
      </trkpt>
      <trkpt lat="46.26397" lon="14.27694">
        <ele>454.554264</ele>
        <time>2026-07-12T09:36:40.000Z</time>
      </trkpt>
      <trkpt lat="46.264" lon="14.27681">
        <ele>454.501588</ele>
        <time>2026-07-12T09:36:44.000Z</time>
      </trkpt>
      <trkpt lat="46.26402" lon="14.2767">
        <ele>454.458305</ele>
        <time>2026-07-12T09:36:47.000Z</time>
      </trkpt>
      <trkpt lat="46.26406" lon="14.27652">
        <ele>454.387093</ele>
        <time>2026-07-12T09:36:53.000Z</time>
      </trkpt>
      <trkpt lat="46.26406" lon="14.27651">
        <ele>454.383248</ele>
        <time>2026-07-12T09:36:55.000Z</time>
      </trkpt>
      <trkpt lat="46.26404" lon="14.27645">
        <ele>454.35652</ele>
        <time>2026-07-12T09:37:55.000Z</time>
      </trkpt>
      <trkpt lat="46.26403" lon="14.27641">
        <ele>454.342853</ele>
        <time>2026-07-12T09:37:56.000Z</time>
      </trkpt>
      <trkpt lat="46.26399" lon="14.27622">
        <ele>454.264802</ele>
        <time>2026-07-12T09:38:01.000Z</time>
      </trkpt>
      <trkpt lat="46.26394" lon="14.27603">
        <ele>454.188885</ele>
        <time>2026-07-12T09:38:05.000Z</time>
      </trkpt>
      <trkpt lat="46.26392" lon="14.27599">
        <ele>454.17008</ele>
        <time>2026-07-12T09:38:06.000Z</time>
      </trkpt>
      <trkpt lat="46.26386" lon="14.27575">
        <ele>454.071171</ele>
        <time>2026-07-12T09:38:11.000Z</time>
      </trkpt>
      <trkpt lat="46.26385" lon="14.27564">
        <ele>454.028494</ele>
        <time>2026-07-12T09:38:13.000Z</time>
      </trkpt>
      <trkpt lat="46.26387" lon="14.27537">
        <ele>454.168288</ele>
        <time>2026-07-12T09:38:18.000Z</time>
      </trkpt>
      <trkpt lat="46.26388" lon="14.27533">
        <ele>454.198483</ele>
        <time>2026-07-12T09:38:19.000Z</time>
      </trkpt>
      <trkpt lat="46.264" lon="14.27505">
        <ele>454.422407</ele>
        <time>2026-07-12T09:38:26.000Z</time>
      </trkpt>
      <trkpt lat="46.26413" lon="14.27481">
        <ele>454.632222</ele>
        <time>2026-07-12T09:38:32.000Z</time>
      </trkpt>
      <trkpt lat="46.2642" lon="14.27469">
        <ele>454.74322</ele>
        <time>2026-07-12T09:38:35.000Z</time>
      </trkpt>
      <trkpt lat="46.2644" lon="14.2743">
        <ele>455.070439</ele>
        <time>2026-07-12T09:38:45.000Z</time>
      </trkpt>
      <trkpt lat="46.2646" lon="14.27392">
        <ele>455.402279</ele>
        <time>2026-07-12T09:38:55.000Z</time>
      </trkpt>
      <trkpt lat="46.26471" lon="14.27355">
        <ele>455.679012</ele>
        <time>2026-07-12T09:39:03.000Z</time>
      </trkpt>
      <trkpt lat="46.26485" lon="14.273">
        <ele>457.326366</ele>
        <time>2026-07-12T09:39:14.000Z</time>
      </trkpt>
      <trkpt lat="46.26501" lon="14.27279">
        <ele>458.484779</ele>
        <time>2026-07-12T09:39:20.000Z</time>
      </trkpt>
      <trkpt lat="46.26517" lon="14.27274">
        <ele>459.372744</ele>
        <time>2026-07-12T09:39:25.000Z</time>
      </trkpt>
      <trkpt lat="46.26536" lon="14.27281">
        <ele>460.404977</ele>
        <time>2026-07-12T09:39:31.000Z</time>
      </trkpt>
      <trkpt lat="46.26558" lon="14.27288">
        <ele>461.638988</ele>
        <time>2026-07-12T09:39:39.000Z</time>
      </trkpt>
      <trkpt lat="46.26571" lon="14.27291">
        <ele>462.322441</ele>
        <time>2026-07-12T09:39:45.000Z</time>
      </trkpt>
      <trkpt lat="46.26575" lon="14.27289">
        <ele>462.565547</ele>
        <time>2026-07-12T09:39:47.000Z</time>
      </trkpt>
      <trkpt lat="46.26584" lon="14.27287">
        <ele>463.038806</ele>
        <time>2026-07-12T09:39:51.000Z</time>
      </trkpt>
      <trkpt lat="46.26586" lon="14.27286">
        <ele>463.169787</ele>
        <time>2026-07-12T09:39:52.000Z</time>
      </trkpt>
      <trkpt lat="46.26603" lon="14.27273">
        <ele>464.211421</ele>
        <time>2026-07-12T09:39:59.000Z</time>
      </trkpt>
      <trkpt lat="46.26617" lon="14.27264">
        <ele>464.997788</ele>
        <time>2026-07-12T09:40:05.000Z</time>
      </trkpt>
      <trkpt lat="46.26636" lon="14.2725">
        <ele>465.763777</ele>
        <time>2026-07-12T09:40:13.000Z</time>
      </trkpt>
      <trkpt lat="46.26656" lon="14.27231">
        <ele>466.309365</ele>
        <time>2026-07-12T09:40:22.000Z</time>
      </trkpt>
      <trkpt lat="46.26682" lon="14.27207">
        <ele>466.996309</ele>
        <time>2026-07-12T09:40:32.000Z</time>
      </trkpt>
      <trkpt lat="46.26707" lon="14.27175">
        <ele>467.755848</ele>
        <time>2026-07-12T09:40:43.000Z</time>
      </trkpt>
      <trkpt lat="46.26726" lon="14.27158">
        <ele>468.247999</ele>
        <time>2026-07-12T09:40:50.000Z</time>
      </trkpt>
      <trkpt lat="46.26745" lon="14.27143">
        <ele>468.742218</ele>
        <time>2026-07-12T09:40:57.000Z</time>
      </trkpt>
      <trkpt lat="46.26776" lon="14.27119">
        <ele>469.532422</ele>
        <time>2026-07-12T09:41:07.000Z</time>
      </trkpt>
      <trkpt lat="46.26797" lon="14.2709">
        <ele>470.294874</ele>
        <time>2026-07-12T09:41:15.000Z</time>
      </trkpt>
      <trkpt lat="46.26809" lon="14.2707">
        <ele>470.774336</ele>
        <time>2026-07-12T09:41:20.000Z</time>
      </trkpt>
      <trkpt lat="46.26813" lon="14.27061">
        <ele>470.968493</ele>
        <time>2026-07-12T09:41:22.000Z</time>
      </trkpt>
      <trkpt lat="46.26829" lon="14.2702">
        <ele>471.80999</ele>
        <time>2026-07-12T09:41:31.000Z</time>
      </trkpt>
      <trkpt lat="46.2684" lon="14.26996">
        <ele>472.335996</ele>
        <time>2026-07-12T09:41:37.000Z</time>
      </trkpt>
      <trkpt lat="46.26853" lon="14.2697">
        <ele>472.91122</ele>
        <time>2026-07-12T09:41:43.000Z</time>
      </trkpt>
      <trkpt lat="46.2687" lon="14.26937">
        <ele>473.644704</ele>
        <time>2026-07-12T09:41:51.000Z</time>
      </trkpt>
      <trkpt lat="46.26887" lon="14.26898">
        <ele>473.888119</ele>
        <time>2026-07-12T09:41:59.000Z</time>
      </trkpt>
      <trkpt lat="46.26889" lon="14.26894">
        <ele>473.785818</ele>
        <time>2026-07-12T09:42:00.000Z</time>
      </trkpt>
      <trkpt lat="46.26897" lon="14.26884">
        <ele>473.453863</ele>
        <time>2026-07-12T09:42:05.000Z</time>
      </trkpt>
      <trkpt lat="46.26903" lon="14.26884">
        <ele>473.250349</ele>
        <time>2026-07-12T09:42:10.000Z</time>
      </trkpt>
      <trkpt lat="46.26903" lon="14.26883">
        <ele>473.235386</ele>
        <time>2026-07-12T09:42:11.000Z</time>
      </trkpt>
      <trkpt lat="46.269" lon="14.2688">
        <ele>473.112908</ele>
        <time>2026-07-12T09:50:46.000Z</time>
      </trkpt>
      <trkpt lat="46.26902" lon="14.26881">
        <ele>473.039866</ele>
        <time>2026-07-12T09:50:47.000Z</time>
      </trkpt>
      <trkpt lat="46.26905" lon="14.26881">
        <ele>472.946963</ele>
        <time>2026-07-12T09:50:48.000Z</time>
      </trkpt>
      <trkpt lat="46.26916" lon="14.26862">
        <ele>472.392381</ele>
        <time>2026-07-12T09:50:52.000Z</time>
      </trkpt>
      <trkpt lat="46.26935" lon="14.26827">
        <ele>471.387888</ele>
        <time>2026-07-12T09:50:57.000Z</time>
      </trkpt>
      <trkpt lat="46.26958" lon="14.26794">
        <ele>470.336708</ele>
        <time>2026-07-12T09:51:02.000Z</time>
      </trkpt>
      <trkpt lat="46.26988" lon="14.26765">
        <ele>469.138612</ele>
        <time>2026-07-12T09:51:08.000Z</time>
      </trkpt>
      <trkpt lat="46.26994" lon="14.26762">
        <ele>468.951811</ele>
        <time>2026-07-12T09:51:09.000Z</time>
      </trkpt>
      <trkpt lat="46.27005" lon="14.26759">
        <ele>468.584514</ele>
        <time>2026-07-12T09:51:11.000Z</time>
      </trkpt>
      <trkpt lat="46.27017" lon="14.2676">
        <ele>467.772647</ele>
        <time>2026-07-12T09:51:13.000Z</time>
      </trkpt>
      <trkpt lat="46.27023" lon="14.26763">
        <ele>467.052005</ele>
        <time>2026-07-12T09:51:14.000Z</time>
      </trkpt>
      <trkpt lat="46.27061" lon="14.2679">
        <ele>462.202069</ele>
        <time>2026-07-12T09:51:21.000Z</time>
      </trkpt>
      <trkpt lat="46.27065" lon="14.26795">
        <ele>461.598514</ele>
        <time>2026-07-12T09:51:22.000Z</time>
      </trkpt>
      <trkpt lat="46.2707" lon="14.26806">
        <ele>460.514603</ele>
        <time>2026-07-12T09:51:24.000Z</time>
      </trkpt>
      <trkpt lat="46.27076" lon="14.26827">
        <ele>458.756748</ele>
        <time>2026-07-12T09:51:27.000Z</time>
      </trkpt>
      <trkpt lat="46.27078" lon="14.26834">
        <ele>458.121929</ele>
        <time>2026-07-12T09:51:28.000Z</time>
      </trkpt>
      <trkpt lat="46.27084" lon="14.26855">
        <ele>456.303188</ele>
        <time>2026-07-12T09:51:31.000Z</time>
      </trkpt>
      <trkpt lat="46.27085" lon="14.2687">
        <ele>455.136555</ele>
        <time>2026-07-12T09:51:33.000Z</time>
      </trkpt>
      <trkpt lat="46.27086" lon="14.26901">
        <ele>452.683582</ele>
        <time>2026-07-12T09:51:38.000Z</time>
      </trkpt>
      <trkpt lat="46.27088" lon="14.26923">
        <ele>450.875964</ele>
        <time>2026-07-12T09:51:43.000Z</time>
      </trkpt>
      <trkpt lat="46.27085" lon="14.26927">
        <ele>450.434417</ele>
        <time>2026-07-12T09:51:46.000Z</time>
      </trkpt>
      <trkpt lat="46.27083" lon="14.26929">
        <ele>450.15849</ele>
        <time>2026-07-12T09:51:47.000Z</time>
      </trkpt>
      <trkpt lat="46.27075" lon="14.26943">
        <ele>448.702258</ele>
        <time>2026-07-12T09:51:51.000Z</time>
      </trkpt>
      <trkpt lat="46.27072" lon="14.26947">
        <ele>448.258349</ele>
        <time>2026-07-12T09:51:52.000Z</time>
      </trkpt>
      <trkpt lat="46.27058" lon="14.26969">
        <ele>445.452975</ele>
        <time>2026-07-12T09:51:57.000Z</time>
      </trkpt>
      <trkpt lat="46.27057" lon="14.26972">
        <ele>445.017304</ele>
        <time>2026-07-12T09:51:58.000Z</time>
      </trkpt>
      <trkpt lat="46.27049" lon="14.26981">
        <ele>443.633042</ele>
        <time>2026-07-12T09:52:01.000Z</time>
      </trkpt>
      <trkpt lat="46.27037" lon="14.27004">
        <ele>440.760776</ele>
        <time>2026-07-12T09:52:07.000Z</time>
      </trkpt>
      <trkpt lat="46.27031" lon="14.27027">
        <ele>438.255041</ele>
        <time>2026-07-12T09:52:11.000Z</time>
      </trkpt>
      <trkpt lat="46.27025" lon="14.27053">
        <ele>435.587892</ele>
        <time>2026-07-12T09:52:16.000Z</time>
      </trkpt>
      <trkpt lat="46.27026" lon="14.2706">
        <ele>434.898953</ele>
        <time>2026-07-12T09:52:17.000Z</time>
      </trkpt>
      <trkpt lat="46.27024" lon="14.27066">
        <ele>434.192584</ele>
        <time>2026-07-12T09:52:18.000Z</time>
      </trkpt>
      <trkpt lat="46.27023" lon="14.2708">
        <ele>432.834327</ele>
        <time>2026-07-12T09:52:20.000Z</time>
      </trkpt>
      <trkpt lat="46.27023" lon="14.27087">
        <ele>432.086957</ele>
        <time>2026-07-12T09:52:21.000Z</time>
      </trkpt>
      <trkpt lat="46.27022" lon="14.27102">
        <ele>430.598757</ele>
        <time>2026-07-12T09:52:23.000Z</time>
      </trkpt>
      <trkpt lat="46.27018" lon="14.27126">
        <ele>428.209908</ele>
        <time>2026-07-12T09:52:26.000Z</time>
      </trkpt>
      <trkpt lat="46.27016" lon="14.27141">
        <ele>426.626175</ele>
        <time>2026-07-12T09:52:28.000Z</time>
      </trkpt>
      <trkpt lat="46.27016" lon="14.27148">
        <ele>425.913396</ele>
        <time>2026-07-12T09:52:29.000Z</time>
      </trkpt>
      <trkpt lat="46.27017" lon="14.27163">
        <ele>424.413034</ele>
        <time>2026-07-12T09:52:31.000Z</time>
      </trkpt>
      <trkpt lat="46.27016" lon="14.27177">
        <ele>423.057111</ele>
        <time>2026-07-12T09:52:33.000Z</time>
      </trkpt>
      <trkpt lat="46.27016" lon="14.27184">
        <ele>422.367116</ele>
        <time>2026-07-12T09:52:34.000Z</time>
      </trkpt>
      <trkpt lat="46.27023" lon="14.27203">
        <ele>421.086269</ele>
        <time>2026-07-12T09:52:37.000Z</time>
      </trkpt>
      <trkpt lat="46.27026" lon="14.2721">
        <ele>420.776871</ele>
        <time>2026-07-12T09:52:38.000Z</time>
      </trkpt>
      <trkpt lat="46.27031" lon="14.27229">
        <ele>419.898263</ele>
        <time>2026-07-12T09:52:42.000Z</time>
      </trkpt>
      <trkpt lat="46.2704" lon="14.27258">
        <ele>418.541058</ele>
        <time>2026-07-12T09:52:47.000Z</time>
      </trkpt>
      <trkpt lat="46.27044" lon="14.27262">
        <ele>418.246867</ele>
        <time>2026-07-12T09:52:48.000Z</time>
      </trkpt>
      <trkpt lat="46.27045" lon="14.27269">
        <ele>417.951246</ele>
        <time>2026-07-12T09:52:49.000Z</time>
      </trkpt>
      <trkpt lat="46.27044" lon="14.27281">
        <ele>417.42602</ele>
        <time>2026-07-12T09:52:51.000Z</time>
      </trkpt>
      <trkpt lat="46.27048" lon="14.27311">
        <ele>416.149777</ele>
        <time>2026-07-12T09:52:55.000Z</time>
      </trkpt>
      <trkpt lat="46.27048" lon="14.27317">
        <ele>415.878252</ele>
        <time>2026-07-12T09:52:56.000Z</time>
      </trkpt>
      <trkpt lat="46.27047" lon="14.27321">
        <ele>415.689841</ele>
        <time>2026-07-12T09:52:57.000Z</time>
      </trkpt>
      <trkpt lat="46.27043" lon="14.27336">
        <ele>415.016141</ele>
        <time>2026-07-12T09:53:00.000Z</time>
      </trkpt>
      <trkpt lat="46.27044" lon="14.27344">
        <ele>414.689871</ele>
        <time>2026-07-12T09:53:02.000Z</time>
      </trkpt>
      <trkpt lat="46.27045" lon="14.2735">
        <ele>414.419785</ele>
        <time>2026-07-12T09:53:04.000Z</time>
      </trkpt>
      <trkpt lat="46.2705" lon="14.27358">
        <ele>413.985747</ele>
        <time>2026-07-12T09:53:06.000Z</time>
      </trkpt>
      <trkpt lat="46.27055" lon="14.27364">
        <ele>413.579171</ele>
        <time>2026-07-12T09:53:08.000Z</time>
      </trkpt>
      <trkpt lat="46.27067" lon="14.27362">
        <ele>412.824658</ele>
        <time>2026-07-12T09:53:12.000Z</time>
      </trkpt>
      <trkpt lat="46.27083" lon="14.27347">
        <ele>411.697779</ele>
        <time>2026-07-12T09:53:18.000Z</time>
      </trkpt>
      <trkpt lat="46.27098" lon="14.2733">
        <ele>410.471728</ele>
        <time>2026-07-12T09:53:25.000Z</time>
      </trkpt>
      <trkpt lat="46.27111" lon="14.27311">
        <ele>408.971396</ele>
        <time>2026-07-12T09:53:31.000Z</time>
      </trkpt>
      <trkpt lat="46.27128" lon="14.27292">
        <ele>407.274906</ele>
        <time>2026-07-12T09:53:38.000Z</time>
      </trkpt>
      <trkpt lat="46.2714" lon="14.27275">
        <ele>405.899134</ele>
        <time>2026-07-12T09:53:42.000Z</time>
      </trkpt>
      <trkpt lat="46.27143" lon="14.2727">
        <ele>405.585771</ele>
        <time>2026-07-12T09:53:43.000Z</time>
      </trkpt>
      <trkpt lat="46.27148" lon="14.27262">
        <ele>404.941624</ele>
        <time>2026-07-12T09:53:45.000Z</time>
      </trkpt>
      <trkpt lat="46.27158" lon="14.27252">
        <ele>403.993647</ele>
        <time>2026-07-12T09:53:48.000Z</time>
      </trkpt>
      <trkpt lat="46.27161" lon="14.27249">
        <ele>403.712142</ele>
        <time>2026-07-12T09:53:49.000Z</time>
      </trkpt>
      <trkpt lat="46.27175" lon="14.27233">
        <ele>402.240124</ele>
        <time>2026-07-12T09:53:54.000Z</time>
      </trkpt>
      <trkpt lat="46.27184" lon="14.27222">
        <ele>401.337561</ele>
        <time>2026-07-12T09:53:58.000Z</time>
      </trkpt>
      <trkpt lat="46.27185" lon="14.27219">
        <ele>401.155648</ele>
        <time>2026-07-12T09:53:59.000Z</time>
      </trkpt>
      <trkpt lat="46.27192" lon="14.27209">
        <ele>400.362469</ele>
        <time>2026-07-12T09:54:03.000Z</time>
      </trkpt>
      <trkpt lat="46.27199" lon="14.27199">
        <ele>399.55613</ele>
        <time>2026-07-12T09:54:07.000Z</time>
      </trkpt>
      <trkpt lat="46.27204" lon="14.27187">
        <ele>398.792189</ele>
        <time>2026-07-12T09:54:10.000Z</time>
      </trkpt>
      <trkpt lat="46.27205" lon="14.27181">
        <ele>398.469471</ele>
        <time>2026-07-12T09:54:11.000Z</time>
      </trkpt>
      <trkpt lat="46.27209" lon="14.27169">
        <ele>397.729158</ele>
        <time>2026-07-12T09:54:14.000Z</time>
      </trkpt>
      <trkpt lat="46.27218" lon="14.27143">
        <ele>396.182818</ele>
        <time>2026-07-12T09:54:21.000Z</time>
      </trkpt>
      <trkpt lat="46.2722" lon="14.2714">
        <ele>396.029531</ele>
        <time>2026-07-12T09:54:22.000Z</time>
      </trkpt>
      <trkpt lat="46.27222" lon="14.27134">
        <ele>395.749198</ele>
        <time>2026-07-12T09:54:24.000Z</time>
      </trkpt>
      <trkpt lat="46.27224" lon="14.27114">
        <ele>394.949709</ele>
        <time>2026-07-12T09:54:30.000Z</time>
      </trkpt>
      <trkpt lat="46.27223" lon="14.27086">
        <ele>393.826639</ele>
        <time>2026-07-12T09:54:35.000Z</time>
      </trkpt>
      <trkpt lat="46.27223" lon="14.27083">
        <ele>393.694909</ele>
        <time>2026-07-12T09:54:37.000Z</time>
      </trkpt>
      <trkpt lat="46.27223" lon="14.27083">
        <ele>393.677678</ele>
        <time>2026-07-12T09:54:39.000Z</time>
      </trkpt>
      <trkpt lat="46.27225" lon="14.27079">
        <ele>393.47498</ele>
        <time>2026-07-12T09:58:47.000Z</time>
      </trkpt>
      <trkpt lat="46.27225" lon="14.2708">
        <ele>393.420098</ele>
        <time>2026-07-12T09:58:48.000Z</time>
      </trkpt>
      <trkpt lat="46.27224" lon="14.27081">
        <ele>393.360216</ele>
        <time>2026-07-12T09:58:49.000Z</time>
      </trkpt>
      <trkpt lat="46.27301" lon="14.27053">
        <ele>388.659929</ele>
        <time>2026-07-12T10:01:01.000Z</time>
      </trkpt>
      <trkpt lat="46.27302" lon="14.27052">
        <ele>388.596323</ele>
        <time>2026-07-12T10:01:02.000Z</time>
      </trkpt>
      <trkpt lat="46.27303" lon="14.2705">
        <ele>388.517535</ele>
        <time>2026-07-12T10:01:03.000Z</time>
      </trkpt>
      <trkpt lat="46.27306" lon="14.27046">
        <ele>388.288144</ele>
        <time>2026-07-12T10:01:07.000Z</time>
      </trkpt>
      <trkpt lat="46.2731" lon="14.27041">
        <ele>387.987121</ele>
        <time>2026-07-12T10:01:11.000Z</time>
      </trkpt>
      <trkpt lat="46.27316" lon="14.27036">
        <ele>387.570858</ele>
        <time>2026-07-12T10:01:16.000Z</time>
      </trkpt>
      <trkpt lat="46.27317" lon="14.27035">
        <ele>387.510975</ele>
        <time>2026-07-12T10:01:17.000Z</time>
      </trkpt>
      <trkpt lat="46.2732" lon="14.27031">
        <ele>387.252075</ele>
        <time>2026-07-12T10:01:21.000Z</time>
      </trkpt>
      <trkpt lat="46.27321" lon="14.27031">
        <ele>387.175461</ele>
        <time>2026-07-12T10:01:22.000Z</time>
      </trkpt>
      <trkpt lat="46.27329" lon="14.27029">
        <ele>386.714696</ele>
        <time>2026-07-12T10:01:28.000Z</time>
      </trkpt>
      <trkpt lat="46.2733" lon="14.27028">
        <ele>386.657934</ele>
        <time>2026-07-12T10:01:29.000Z</time>
      </trkpt>
      <trkpt lat="46.27331" lon="14.27024">
        <ele>386.477964</ele>
        <time>2026-07-12T10:01:32.000Z</time>
      </trkpt>
      <trkpt lat="46.27355" lon="14.26989">
        <ele>385.512113</ele>
        <time>2026-07-12T10:02:35.000Z</time>
      </trkpt>
      <trkpt lat="46.27358" lon="14.26985">
        <ele>385.448975</ele>
        <time>2026-07-12T10:02:37.000Z</time>
      </trkpt>
      <trkpt lat="46.27367" lon="14.26975">
        <ele>385.283231</ele>
        <time>2026-07-12T10:02:41.000Z</time>
      </trkpt>
      <trkpt lat="46.27369" lon="14.26973">
        <ele>385.238525</ele>
        <time>2026-07-12T10:02:42.000Z</time>
      </trkpt>
      <trkpt lat="46.27382" lon="14.26956">
        <ele>384.977831</ele>
        <time>2026-07-12T10:02:48.000Z</time>
      </trkpt>
      <trkpt lat="46.27393" lon="14.26947">
        <ele>384.794444</ele>
        <time>2026-07-12T10:02:52.000Z</time>
      </trkpt>
      <trkpt lat="46.27405" lon="14.26938">
        <ele>384.579557</ele>
        <time>2026-07-12T10:02:57.000Z</time>
      </trkpt>
      <trkpt lat="46.2742" lon="14.26927">
        <ele>384.325387</ele>
        <time>2026-07-12T10:03:03.000Z</time>
      </trkpt>
      <trkpt lat="46.2743" lon="14.26919">
        <ele>384.152967</ele>
        <time>2026-07-12T10:03:08.000Z</time>
      </trkpt>
      <trkpt lat="46.27444" lon="14.26899">
        <ele>383.865742</ele>
        <time>2026-07-12T10:03:15.000Z</time>
      </trkpt>
      <trkpt lat="46.27455" lon="14.26883">
        <ele>383.6206</ele>
        <time>2026-07-12T10:03:22.000Z</time>
      </trkpt>
      <trkpt lat="46.27469" lon="14.26867">
        <ele>383.352941</ele>
        <time>2026-07-12T10:03:30.000Z</time>
      </trkpt>
      <trkpt lat="46.27478" lon="14.26856">
        <ele>383.175332</ele>
        <time>2026-07-12T10:03:36.000Z</time>
      </trkpt>
      <trkpt lat="46.27485" lon="14.26837">
        <ele>382.785862</ele>
        <time>2026-07-12T10:03:43.000Z</time>
      </trkpt>
      <trkpt lat="46.27489" lon="14.2681">
        <ele>382.252218</ele>
        <time>2026-07-12T10:03:50.000Z</time>
      </trkpt>
      <trkpt lat="46.27497" lon="14.26782">
        <ele>381.654831</ele>
        <time>2026-07-12T10:03:57.000Z</time>
      </trkpt>
      <trkpt lat="46.27508" lon="14.26765">
        <ele>381.195275</ele>
        <time>2026-07-12T10:04:03.000Z</time>
      </trkpt>
      <trkpt lat="46.27512" lon="14.2676">
        <ele>381.051064</ele>
        <time>2026-07-12T10:04:05.000Z</time>
      </trkpt>
      <trkpt lat="46.27516" lon="14.26758">
        <ele>380.924606</ele>
        <time>2026-07-12T10:04:08.000Z</time>
      </trkpt>
      <trkpt lat="46.27516" lon="14.26758">
        <ele>380.909673</ele>
        <time>2026-07-12T10:04:09.000Z</time>
      </trkpt>
      <trkpt lat="46.27524" lon="14.26758">
        <ele>380.700394</ele>
        <time>2026-07-12T10:04:19.000Z</time>
      </trkpt>
      <trkpt lat="46.2753" lon="14.26758">
        <ele>380.527363</ele>
        <time>2026-07-12T10:04:22.000Z</time>
      </trkpt>
      <trkpt lat="46.27542" lon="14.26751">
        <ele>380.162068</ele>
        <time>2026-07-12T10:04:27.000Z</time>
      </trkpt>
      <trkpt lat="46.27554" lon="14.26745">
        <ele>379.802099</ele>
        <time>2026-07-12T10:04:32.000Z</time>
      </trkpt>
      <trkpt lat="46.27563" lon="14.2673">
        <ele>379.41461</ele>
        <time>2026-07-12T10:04:38.000Z</time>
      </trkpt>
      <trkpt lat="46.27572" lon="14.26715">
        <ele>379.011972</ele>
        <time>2026-07-12T10:04:45.000Z</time>
      </trkpt>
      <trkpt lat="46.27576" lon="14.26707">
        <ele>378.823891</ele>
        <time>2026-07-12T10:04:48.000Z</time>
      </trkpt>
      <trkpt lat="46.27579" lon="14.26702">
        <ele>378.711432</ele>
        <time>2026-07-12T10:04:50.000Z</time>
      </trkpt>
      <trkpt lat="46.27585" lon="14.2669">
        <ele>378.428638</ele>
        <time>2026-07-12T10:04:55.000Z</time>
      </trkpt>
      <trkpt lat="46.27586" lon="14.26688">
        <ele>378.362886</ele>
        <time>2026-07-12T10:04:56.000Z</time>
      </trkpt>
      <trkpt lat="46.27593" lon="14.26675">
        <ele>378.044655</ele>
        <time>2026-07-12T10:05:01.000Z</time>
      </trkpt>
      <trkpt lat="46.276" lon="14.26666">
        <ele>377.857174</ele>
        <time>2026-07-12T10:05:05.000Z</time>
      </trkpt>
      <trkpt lat="46.27605" lon="14.26659">
        <ele>377.704439</ele>
        <time>2026-07-12T10:05:11.000Z</time>
      </trkpt>
      <trkpt lat="46.27605" lon="14.26659">
        <ele>377.704439</ele>
        <time>2026-07-12T10:05:12.000Z</time>
      </trkpt>
      <trkpt lat="46.27609" lon="14.26652">
        <ele>377.584097</ele>
        <time>2026-07-12T10:07:36.000Z</time>
      </trkpt>
      <trkpt lat="46.27611" lon="14.2665">
        <ele>377.525767</ele>
        <time>2026-07-12T10:07:37.000Z</time>
      </trkpt>
      <trkpt lat="46.27613" lon="14.26648">
        <ele>377.464885</ele>
        <time>2026-07-12T10:07:38.000Z</time>
      </trkpt>
      <trkpt lat="46.27627" lon="14.26631">
        <ele>377.08604</ele>
        <time>2026-07-12T10:07:44.000Z</time>
      </trkpt>
      <trkpt lat="46.27644" lon="14.26609">
        <ele>376.6053</ele>
        <time>2026-07-12T10:07:51.000Z</time>
      </trkpt>
      <trkpt lat="46.27667" lon="14.2658">
        <ele>375.959895</ele>
        <time>2026-07-12T10:07:59.000Z</time>
      </trkpt>
      <trkpt lat="46.2769" lon="14.26554">
        <ele>375.349242</ele>
        <time>2026-07-12T10:08:07.000Z</time>
      </trkpt>
      <trkpt lat="46.27706" lon="14.2654">
        <ele>374.956485</ele>
        <time>2026-07-12T10:08:12.000Z</time>
      </trkpt>
      <trkpt lat="46.27715" lon="14.26532">
        <ele>374.731801</ele>
        <time>2026-07-12T10:08:15.000Z</time>
      </trkpt>
      <trkpt lat="46.2772" lon="14.26528">
        <ele>374.612901</ele>
        <time>2026-07-12T10:08:17.000Z</time>
      </trkpt>
      <trkpt lat="46.27732" lon="14.26521">
        <ele>374.343978</ele>
        <time>2026-07-12T10:08:21.000Z</time>
      </trkpt>
      <trkpt lat="46.27734" lon="14.26519">
        <ele>374.285801</ele>
        <time>2026-07-12T10:08:22.000Z</time>
      </trkpt>
      <trkpt lat="46.27742" lon="14.26514">
        <ele>374.86968</ele>
        <time>2026-07-12T10:08:25.000Z</time>
      </trkpt>
      <trkpt lat="46.27758" lon="14.26505">
        <ele>376.138151</ele>
        <time>2026-07-12T10:08:31.000Z</time>
      </trkpt>
      <trkpt lat="46.27763" lon="14.26501">
        <ele>376.540088</ele>
        <time>2026-07-12T10:08:33.000Z</time>
      </trkpt>
      <trkpt lat="46.27769" lon="14.26494">
        <ele>377.063932</ele>
        <time>2026-07-12T10:08:36.000Z</time>
      </trkpt>
      <trkpt lat="46.27772" lon="14.26489">
        <ele>377.397469</ele>
        <time>2026-07-12T10:08:38.000Z</time>
      </trkpt>
      <trkpt lat="46.27786" lon="14.26486">
        <ele>378.367575</ele>
        <time>2026-07-12T10:08:42.000Z</time>
      </trkpt>
      <trkpt lat="46.27796" lon="14.26488">
        <ele>379.14498</ele>
        <time>2026-07-12T10:08:45.000Z</time>
      </trkpt>
      <trkpt lat="46.27809" lon="14.26491">
        <ele>380.039577</ele>
        <time>2026-07-12T10:08:48.000Z</time>
      </trkpt>
      <trkpt lat="46.27836" lon="14.26496">
        <ele>381.986989</ele>
        <time>2026-07-12T10:08:55.000Z</time>
      </trkpt>
      <trkpt lat="46.27851" lon="14.26493">
        <ele>383.071997</ele>
        <time>2026-07-12T10:09:00.000Z</time>
      </trkpt>
      <trkpt lat="46.2787" lon="14.26494">
        <ele>384.434296</ele>
        <time>2026-07-12T10:09:06.000Z</time>
      </trkpt>
      <trkpt lat="46.27873" lon="14.26495">
        <ele>384.663001</ele>
        <time>2026-07-12T10:09:07.000Z</time>
      </trkpt>
      <trkpt lat="46.27889" lon="14.26502">
        <ele>385.870454</ele>
        <time>2026-07-12T10:09:13.000Z</time>
      </trkpt>
      <trkpt lat="46.27901" lon="14.26506">
        <ele>386.788837</ele>
        <time>2026-07-12T10:09:17.000Z</time>
      </trkpt>
      <trkpt lat="46.27904" lon="14.26506">
        <ele>386.960874</ele>
        <time>2026-07-12T10:09:18.000Z</time>
      </trkpt>
      <trkpt lat="46.27917" lon="14.26507">
        <ele>387.384877</ele>
        <time>2026-07-12T10:09:23.000Z</time>
      </trkpt>
      <trkpt lat="46.27919" lon="14.26507">
        <ele>387.418966</ele>
        <time>2026-07-12T10:09:24.000Z</time>
      </trkpt>
      <trkpt lat="46.27931" lon="14.2651">
        <ele>387.6663</ele>
        <time>2026-07-12T10:09:29.000Z</time>
      </trkpt>
      <trkpt lat="46.27933" lon="14.26509">
        <ele>387.703935</ele>
        <time>2026-07-12T10:09:30.000Z</time>
      </trkpt>
      <trkpt lat="46.27947" lon="14.2651">
        <ele>387.977878</ele>
        <time>2026-07-12T10:09:36.000Z</time>
      </trkpt>
      <trkpt lat="46.27951" lon="14.26508">
        <ele>388.057315</ele>
        <time>2026-07-12T10:09:39.000Z</time>
      </trkpt>
      <trkpt lat="46.27953" lon="14.26506">
        <ele>388.117323</ele>
        <time>2026-07-12T10:09:41.000Z</time>
      </trkpt>
      <trkpt lat="46.27959" lon="14.26505">
        <ele>388.239874</ele>
        <time>2026-07-12T10:09:44.000Z</time>
      </trkpt>
      <trkpt lat="46.27966" lon="14.26507">
        <ele>388.371675</ele>
        <time>2026-07-12T10:09:47.000Z</time>
      </trkpt>
      <trkpt lat="46.27978" lon="14.26509">
        <ele>388.618383</ele>
        <time>2026-07-12T10:09:51.000Z</time>
      </trkpt>
      <trkpt lat="46.27981" lon="14.26509">
        <ele>388.678597</ele>
        <time>2026-07-12T10:09:52.000Z</time>
      </trkpt>
      <trkpt lat="46.28005" lon="14.26511">
        <ele>389.160782</ele>
        <time>2026-07-12T10:09:58.000Z</time>
      </trkpt>
      <trkpt lat="46.28027" lon="14.26509">
        <ele>389.597282</ele>
        <time>2026-07-12T10:10:05.000Z</time>
      </trkpt>
      <trkpt lat="46.28047" lon="14.26501">
        <ele>390.007062</ele>
        <time>2026-07-12T10:10:11.000Z</time>
      </trkpt>
      <trkpt lat="46.2807" lon="14.2649">
        <ele>390.501142</ele>
        <time>2026-07-12T10:10:18.000Z</time>
      </trkpt>
      <trkpt lat="46.28088" lon="14.26483">
        <ele>390.872484</ele>
        <time>2026-07-12T10:10:24.000Z</time>
      </trkpt>
      <trkpt lat="46.28098" lon="14.26481">
        <ele>391.076672</ele>
        <time>2026-07-12T10:10:29.000Z</time>
      </trkpt>
      <trkpt lat="46.28107" lon="14.26471">
        <ele>391.314803</ele>
        <time>2026-07-12T10:10:34.000Z</time>
      </trkpt>
      <trkpt lat="46.28107" lon="14.26471">
        <ele>391.321866</ele>
        <time>2026-07-12T10:10:35.000Z</time>
      </trkpt>
      <trkpt lat="46.28112" lon="14.26468">
        <ele>391.419466</ele>
        <time>2026-07-12T10:10:43.000Z</time>
      </trkpt>
      <trkpt lat="46.28115" lon="14.26467">
        <ele>391.485839</ele>
        <time>2026-07-12T10:10:45.000Z</time>
      </trkpt>
      <trkpt lat="46.28124" lon="14.2646">
        <ele>391.703707</ele>
        <time>2026-07-12T10:10:50.000Z</time>
      </trkpt>
      <trkpt lat="46.28125" lon="14.26458">
        <ele>391.741953</ele>
        <time>2026-07-12T10:10:51.000Z</time>
      </trkpt>
      <trkpt lat="46.28135" lon="14.26455">
        <ele>391.946186</ele>
        <time>2026-07-12T10:10:55.000Z</time>
      </trkpt>
      <trkpt lat="46.28154" lon="14.26443">
        <ele>392.368656</ele>
        <time>2026-07-12T10:11:01.000Z</time>
      </trkpt>
      <trkpt lat="46.28159" lon="14.2644">
        <ele>392.495671</ele>
        <time>2026-07-12T10:11:03.000Z</time>
      </trkpt>
      <trkpt lat="46.28182" lon="14.26429">
        <ele>392.992009</ele>
        <time>2026-07-12T10:11:10.000Z</time>
      </trkpt>
      <trkpt lat="46.28197" lon="14.26425">
        <ele>393.306492</ele>
        <time>2026-07-12T10:11:15.000Z</time>
      </trkpt>
      <trkpt lat="46.28216" lon="14.26418">
        <ele>393.713289</ele>
        <time>2026-07-12T10:11:21.000Z</time>
      </trkpt>
      <trkpt lat="46.28226" lon="14.26416">
        <ele>393.928029</ele>
        <time>2026-07-12T10:11:24.000Z</time>
      </trkpt>
      <trkpt lat="46.2823" lon="14.26413">
        <ele>394.016319</ele>
        <time>2026-07-12T10:11:25.000Z</time>
      </trkpt>
      <trkpt lat="46.28248" lon="14.26398">
        <ele>394.439246</ele>
        <time>2026-07-12T10:11:29.000Z</time>
      </trkpt>
      <trkpt lat="46.28252" lon="14.26394">
        <ele>394.410791</ele>
        <time>2026-07-12T10:11:30.000Z</time>
      </trkpt>
      <trkpt lat="46.28265" lon="14.2638">
        <ele>393.959098</ele>
        <time>2026-07-12T10:11:33.000Z</time>
      </trkpt>
      <trkpt lat="46.28274" lon="14.26373">
        <ele>393.696513</ele>
        <time>2026-07-12T10:11:35.000Z</time>
      </trkpt>
      <trkpt lat="46.28285" lon="14.26365">
        <ele>393.364032</ele>
        <time>2026-07-12T10:11:39.000Z</time>
      </trkpt>
      <trkpt lat="46.28296" lon="14.26359">
        <ele>393.039495</ele>
        <time>2026-07-12T10:11:42.000Z</time>
      </trkpt>
      <trkpt lat="46.28301" lon="14.26355">
        <ele>392.877404</ele>
        <time>2026-07-12T10:11:43.000Z</time>
      </trkpt>
      <trkpt lat="46.28308" lon="14.26349">
        <ele>392.65582</ele>
        <time>2026-07-12T10:11:45.000Z</time>
      </trkpt>
      <trkpt lat="46.28317" lon="14.26343">
        <ele>392.396578</ele>
        <time>2026-07-12T10:11:47.000Z</time>
      </trkpt>
      <trkpt lat="46.28325" lon="14.2634">
        <ele>392.179953</ele>
        <time>2026-07-12T10:11:49.000Z</time>
      </trkpt>
      <trkpt lat="46.28333" lon="14.26337">
        <ele>391.950103</ele>
        <time>2026-07-12T10:11:51.000Z</time>
      </trkpt>
      <trkpt lat="46.28349" lon="14.26332">
        <ele>391.505883</ele>
        <time>2026-07-12T10:11:55.000Z</time>
      </trkpt>
      <trkpt lat="46.28363" lon="14.26327">
        <ele>391.115514</ele>
        <time>2026-07-12T10:11:59.000Z</time>
      </trkpt>
      <trkpt lat="46.28384" lon="14.26312">
        <ele>390.496925</ele>
        <time>2026-07-12T10:12:05.000Z</time>
      </trkpt>
      <trkpt lat="46.28396" lon="14.26293">
        <ele>389.999472</ele>
        <time>2026-07-12T10:12:10.000Z</time>
      </trkpt>
      <trkpt lat="46.28399" lon="14.26288">
        <ele>389.875628</ele>
        <time>2026-07-12T10:12:11.000Z</time>
      </trkpt>
      <trkpt lat="46.28405" lon="14.26277">
        <ele>389.619609</ele>
        <time>2026-07-12T10:12:14.000Z</time>
      </trkpt>
      <trkpt lat="46.28407" lon="14.26274">
        <ele>389.640902</ele>
        <time>2026-07-12T10:12:15.000Z</time>
      </trkpt>
      <trkpt lat="46.28409" lon="14.26271">
        <ele>389.660898</ele>
        <time>2026-07-12T10:12:16.000Z</time>
      </trkpt>
      <trkpt lat="46.28417" lon="14.26263">
        <ele>389.725179</ele>
        <time>2026-07-12T10:12:19.000Z</time>
      </trkpt>
      <trkpt lat="46.28422" lon="14.26259">
        <ele>389.765381</ele>
        <time>2026-07-12T10:12:21.000Z</time>
      </trkpt>
      <trkpt lat="46.28426" lon="14.26255">
        <ele>389.801666</ele>
        <time>2026-07-12T10:12:23.000Z</time>
      </trkpt>
      <trkpt lat="46.28436" lon="14.26244">
        <ele>389.888622</ele>
        <time>2026-07-12T10:12:27.000Z</time>
      </trkpt>
      <trkpt lat="46.28439" lon="14.26242">
        <ele>389.910471</ele>
        <time>2026-07-12T10:12:28.000Z</time>
      </trkpt>
      <trkpt lat="46.28445" lon="14.26238">
        <ele>389.956805</ele>
        <time>2026-07-12T10:12:30.000Z</time>
      </trkpt>
      <trkpt lat="46.28447" lon="14.26236">
        <ele>389.975355</ele>
        <time>2026-07-12T10:12:31.000Z</time>
      </trkpt>
      <trkpt lat="46.28463" lon="14.26223">
        <ele>390.102184</ele>
        <time>2026-07-12T10:12:37.000Z</time>
      </trkpt>
      <trkpt lat="46.28474" lon="14.2621">
        <ele>390.206038</ele>
        <time>2026-07-12T10:12:42.000Z</time>
      </trkpt>
      <trkpt lat="46.2848" lon="14.26204">
        <ele>390.25215</ele>
        <time>2026-07-12T10:12:44.000Z</time>
      </trkpt>
      <trkpt lat="46.28501" lon="14.26185">
        <ele>390.425351</ele>
        <time>2026-07-12T10:12:52.000Z</time>
      </trkpt>
      <trkpt lat="46.28511" lon="14.26177">
        <ele>390.506753</ele>
        <time>2026-07-12T10:12:56.000Z</time>
      </trkpt>
      <trkpt lat="46.2853" lon="14.26162">
        <ele>390.656028</ele>
        <time>2026-07-12T10:13:02.000Z</time>
      </trkpt>
      <trkpt lat="46.28538" lon="14.26155">
        <ele>390.721873</ele>
        <time>2026-07-12T10:13:04.000Z</time>
      </trkpt>
      <trkpt lat="46.28543" lon="14.26151">
        <ele>390.764182</ele>
        <time>2026-07-12T10:13:05.000Z</time>
      </trkpt>
      <trkpt lat="46.28548" lon="14.26146">
        <ele>390.804076</ele>
        <time>2026-07-12T10:13:06.000Z</time>
      </trkpt>
      <trkpt lat="46.28574" lon="14.26108">
        <ele>390.966735</ele>
        <time>2026-07-12T10:13:13.000Z</time>
      </trkpt>
      <trkpt lat="46.28583" lon="14.26088">
        <ele>391.022917</ele>
        <time>2026-07-12T10:13:17.000Z</time>
      </trkpt>
      <trkpt lat="46.28585" lon="14.26083">
        <ele>391.037781</ele>
        <time>2026-07-12T10:13:18.000Z</time>
      </trkpt>
      <trkpt lat="46.28589" lon="14.26071">
        <ele>391.069587</ele>
        <time>2026-07-12T10:13:21.000Z</time>
      </trkpt>
      <trkpt lat="46.28592" lon="14.26062">
        <ele>391.092856</ele>
        <time>2026-07-12T10:13:23.000Z</time>
      </trkpt>
      <trkpt lat="46.28595" lon="14.26053">
        <ele>391.117266</ele>
        <time>2026-07-12T10:13:25.000Z</time>
      </trkpt>
      <trkpt lat="46.286" lon="14.2604">
        <ele>391.152884</ele>
        <time>2026-07-12T10:13:28.000Z</time>
      </trkpt>
      <trkpt lat="46.28613" lon="14.2601">
        <ele>391.234715</ele>
        <time>2026-07-12T10:13:35.000Z</time>
      </trkpt>
      <trkpt lat="46.28626" lon="14.25976">
        <ele>391.327633</ele>
        <time>2026-07-12T10:13:43.000Z</time>
      </trkpt>
      <trkpt lat="46.28632" lon="14.25949">
        <ele>391.394781</ele>
        <time>2026-07-12T10:13:49.000Z</time>
      </trkpt>
      <trkpt lat="46.28634" lon="14.25936">
        <ele>391.426351</ele>
        <time>2026-07-12T10:13:52.000Z</time>
      </trkpt>
      <trkpt lat="46.28642" lon="14.25916">
        <ele>391.483598</ele>
        <time>2026-07-12T10:13:58.000Z</time>
      </trkpt>
      <trkpt lat="46.28648" lon="14.25912">
        <ele>391.322596</ele>
        <time>2026-07-12T10:14:01.000Z</time>
      </trkpt>
      <trkpt lat="46.28652" lon="14.25915">
        <ele>391.1614</ele>
        <time>2026-07-12T10:14:02.000Z</time>
      </trkpt>
      <trkpt lat="46.28659" lon="14.25923">
        <ele>390.782092</ele>
        <time>2026-07-12T10:14:07.000Z</time>
      </trkpt>
      <trkpt lat="46.28659" lon="14.25923">
        <ele>390.782092</ele>
        <time>2026-07-12T10:14:08.000Z</time>
      </trkpt>
      <trkpt lat="46.28663" lon="14.25927">
        <ele>390.567406</ele>
        <time>2026-07-12T10:14:24.000Z</time>
      </trkpt>
      <trkpt lat="46.28669" lon="14.25929">
        <ele>390.330699</ele>
        <time>2026-07-12T10:14:26.000Z</time>
      </trkpt>
      <trkpt lat="46.28685" lon="14.25938">
        <ele>389.605934</ele>
        <time>2026-07-12T10:14:31.000Z</time>
      </trkpt>
      <trkpt lat="46.28713" lon="14.25956">
        <ele>388.344619</ele>
        <time>2026-07-12T10:14:38.000Z</time>
      </trkpt>
      <trkpt lat="46.28722" lon="14.2596">
        <ele>387.968568</ele>
        <time>2026-07-12T10:14:40.000Z</time>
      </trkpt>
      <trkpt lat="46.28731" lon="14.25957">
        <ele>387.571308</ele>
        <time>2026-07-12T10:14:42.000Z</time>
      </trkpt>
      <trkpt lat="46.28744" lon="14.25946">
        <ele>386.980985</ele>
        <time>2026-07-12T10:14:45.000Z</time>
      </trkpt>
      <trkpt lat="46.28753" lon="14.25936">
        <ele>386.518628</ele>
        <time>2026-07-12T10:14:47.000Z</time>
      </trkpt>
      <trkpt lat="46.28769" lon="14.25925">
        <ele>385.766319</ele>
        <time>2026-07-12T10:14:50.000Z</time>
      </trkpt>
      <trkpt lat="46.28777" lon="14.25921">
        <ele>385.425335</ele>
        <time>2026-07-12T10:14:52.000Z</time>
      </trkpt>
      <trkpt lat="46.28784" lon="14.2592">
        <ele>385.131396</ele>
        <time>2026-07-12T10:14:56.000Z</time>
      </trkpt>
      <trkpt lat="46.28784" lon="14.2592">
        <ele>385.131396</ele>
        <time>2026-07-12T10:14:57.000Z</time>
      </trkpt>
      <trkpt lat="46.28788" lon="14.25917">
        <ele>384.934697</ele>
        <time>2026-07-12T10:16:37.000Z</time>
      </trkpt>
      <trkpt lat="46.28791" lon="14.25912">
        <ele>384.749619</ele>
        <time>2026-07-12T10:16:39.000Z</time>
      </trkpt>
      <trkpt lat="46.28795" lon="14.25904">
        <ele>384.470569</ele>
        <time>2026-07-12T10:16:41.000Z</time>
      </trkpt>
      <trkpt lat="46.28797" lon="14.25899">
        <ele>384.318222</ele>
        <time>2026-07-12T10:16:42.000Z</time>
      </trkpt>
      <trkpt lat="46.28799" lon="14.25894">
        <ele>384.151249</ele>
        <time>2026-07-12T10:16:43.000Z</time>
      </trkpt>
      <trkpt lat="46.28807" lon="14.25864">
        <ele>384.475766</ele>
        <time>2026-07-12T10:16:48.000Z</time>
      </trkpt>
      <trkpt lat="46.28808" lon="14.25859">
        <ele>384.554669</ele>
        <time>2026-07-12T10:16:49.000Z</time>
      </trkpt>
      <trkpt lat="46.28815" lon="14.25837">
        <ele>384.872752</ele>
        <time>2026-07-12T10:16:53.000Z</time>
      </trkpt>
      <trkpt lat="46.28818" lon="14.25829">
        <ele>385.001174</ele>
        <time>2026-07-12T10:16:55.000Z</time>
      </trkpt>
      <trkpt lat="46.2882" lon="14.25825">
        <ele>385.059729</ele>
        <time>2026-07-12T10:16:56.000Z</time>
      </trkpt>
      <trkpt lat="46.28825" lon="14.25821">
        <ele>385.175278</ele>
        <time>2026-07-12T10:16:58.000Z</time>
      </trkpt>
      <trkpt lat="46.28839" lon="14.25818">
        <ele>385.448394</ele>
        <time>2026-07-12T10:17:02.000Z</time>
      </trkpt>
      <trkpt lat="46.2885" lon="14.25815">
        <ele>385.66046</ele>
        <time>2026-07-12T10:17:05.000Z</time>
      </trkpt>
      <trkpt lat="46.28868" lon="14.25807">
        <ele>386.04283</ele>
        <time>2026-07-12T10:17:10.000Z</time>
      </trkpt>
      <trkpt lat="46.28877" lon="14.2579">
        <ele>386.321669</ele>
        <time>2026-07-12T10:17:14.000Z</time>
      </trkpt>
      <trkpt lat="46.28884" lon="14.25766">
        <ele>386.676606</ele>
        <time>2026-07-12T10:17:20.000Z</time>
      </trkpt>
      <trkpt lat="46.28889" lon="14.25742">
        <ele>387.010534</ele>
        <time>2026-07-12T10:17:26.000Z</time>
      </trkpt>
      <trkpt lat="46.2889" lon="14.25719">
        <ele>387.327645</ele>
        <time>2026-07-12T10:17:33.000Z</time>
      </trkpt>
      <trkpt lat="46.2889" lon="14.25716">
        <ele>387.359933</ele>
        <time>2026-07-12T10:17:34.000Z</time>
      </trkpt>
      <trkpt lat="46.28893" lon="14.25708">
        <ele>387.476809</ele>
        <time>2026-07-12T10:17:37.000Z</time>
      </trkpt>
      <trkpt lat="46.28896" lon="14.25702">
        <ele>387.587948</ele>
        <time>2026-07-12T10:17:40.000Z</time>
      </trkpt>
      <trkpt lat="46.28899" lon="14.25701">
        <ele>387.646222</ele>
        <time>2026-07-12T10:17:42.000Z</time>
      </trkpt>
      <trkpt lat="46.289" lon="14.25702">
        <ele>387.685148</ele>
        <time>2026-07-12T10:17:45.000Z</time>
      </trkpt>
      <trkpt lat="46.28907" lon="14.25702">
        <ele>387.834693</ele>
        <time>2026-07-12T10:17:51.000Z</time>
      </trkpt>
      <trkpt lat="46.28915" lon="14.25692">
        <ele>388.09065</ele>
        <time>2026-07-12T10:17:55.000Z</time>
      </trkpt>
      <trkpt lat="46.28924" lon="14.25664">
        <ele>388.574236</ele>
        <time>2026-07-12T10:18:02.000Z</time>
      </trkpt>
      <trkpt lat="46.28932" lon="14.2564">
        <ele>388.994233</ele>
        <time>2026-07-12T10:18:08.000Z</time>
      </trkpt>
      <trkpt lat="46.28939" lon="14.25609">
        <ele>389.516908</ele>
        <time>2026-07-12T10:18:15.000Z</time>
      </trkpt>
      <trkpt lat="46.2895" lon="14.25568">
        <ele>390.202655</ele>
        <time>2026-07-12T10:18:24.000Z</time>
      </trkpt>
      <trkpt lat="46.28955" lon="14.2554">
        <ele>390.666433</ele>
        <time>2026-07-12T10:18:30.000Z</time>
      </trkpt>
      <trkpt lat="46.28964" lon="14.25506">
        <ele>391.255084</ele>
        <time>2026-07-12T10:18:38.000Z</time>
      </trkpt>
      <trkpt lat="46.28969" lon="14.25476">
        <ele>391.746096</ele>
        <time>2026-07-12T10:18:44.000Z</time>
      </trkpt>
      <trkpt lat="46.28981" lon="14.25441">
        <ele>392.853376</ele>
        <time>2026-07-12T10:18:52.000Z</time>
      </trkpt>
      <trkpt lat="46.28989" lon="14.25415">
        <ele>393.63151</ele>
        <time>2026-07-12T10:18:58.000Z</time>
      </trkpt>
      <trkpt lat="46.29" lon="14.25387">
        <ele>394.536077</ele>
        <time>2026-07-12T10:19:05.000Z</time>
      </trkpt>
      <trkpt lat="46.29008" lon="14.25361">
        <ele>395.320435</ele>
        <time>2026-07-12T10:19:11.000Z</time>
      </trkpt>
      <trkpt lat="46.29011" lon="14.25333">
        <ele>396.096114</ele>
        <time>2026-07-12T10:19:17.000Z</time>
      </trkpt>
      <trkpt lat="46.29015" lon="14.25316">
        <ele>396.604583</ele>
        <time>2026-07-12T10:19:21.000Z</time>
      </trkpt>
      <trkpt lat="46.29017" lon="14.25306">
        <ele>396.875333</ele>
        <time>2026-07-12T10:19:23.000Z</time>
      </trkpt>
      <trkpt lat="46.29021" lon="14.25284">
        <ele>397.523093</ele>
        <time>2026-07-12T10:19:28.000Z</time>
      </trkpt>
      <trkpt lat="46.29026" lon="14.2526">
        <ele>398.226866</ele>
        <time>2026-07-12T10:19:33.000Z</time>
      </trkpt>
      <trkpt lat="46.29029" lon="14.25222">
        <ele>399.082174</ele>
        <time>2026-07-12T10:19:40.000Z</time>
      </trkpt>
      <trkpt lat="46.29032" lon="14.252">
        <ele>399.346842</ele>
        <time>2026-07-12T10:19:44.000Z</time>
      </trkpt>
      <trkpt lat="46.29032" lon="14.25195">
        <ele>399.410327</ele>
        <time>2026-07-12T10:19:45.000Z</time>
      </trkpt>
      <trkpt lat="46.29033" lon="14.2519">
        <ele>399.469195</ele>
        <time>2026-07-12T10:19:46.000Z</time>
      </trkpt>
      <trkpt lat="46.29035" lon="14.2517">
        <ele>399.696855</ele>
        <time>2026-07-12T10:19:50.000Z</time>
      </trkpt>
      <trkpt lat="46.29038" lon="14.25149">
        <ele>399.952775</ele>
        <time>2026-07-12T10:19:54.000Z</time>
      </trkpt>
      <trkpt lat="46.29044" lon="14.25115">
        <ele>400.357153</ele>
        <time>2026-07-12T10:20:00.000Z</time>
      </trkpt>
      <trkpt lat="46.29044" lon="14.2511">
        <ele>400.422034</ele>
        <time>2026-07-12T10:20:01.000Z</time>
      </trkpt>
      <trkpt lat="46.29051" lon="14.2507">
        <ele>400.893298</ele>
        <time>2026-07-12T10:20:08.000Z</time>
      </trkpt>
      <trkpt lat="46.2906" lon="14.25038">
        <ele>401.301593</ele>
        <time>2026-07-12T10:20:14.000Z</time>
      </trkpt>
      <trkpt lat="46.29063" lon="14.25026">
        <ele>401.444238</ele>
        <time>2026-07-12T10:20:16.000Z</time>
      </trkpt>
      <trkpt lat="46.29064" lon="14.25021">
        <ele>401.508255</ele>
        <time>2026-07-12T10:20:17.000Z</time>
      </trkpt>
      <trkpt lat="46.29066" lon="14.25007">
        <ele>401.67449</ele>
        <time>2026-07-12T10:20:20.000Z</time>
      </trkpt>
      <trkpt lat="46.29075" lon="14.2499">
        <ele>401.923765</ele>
        <time>2026-07-12T10:20:24.000Z</time>
      </trkpt>
      <trkpt lat="46.29081" lon="14.24975">
        <ele>402.130881</ele>
        <time>2026-07-12T10:20:27.000Z</time>
      </trkpt>
      <trkpt lat="46.29086" lon="14.24958">
        <ele>402.353121</ele>
        <time>2026-07-12T10:20:30.000Z</time>
      </trkpt>
      <trkpt lat="46.29101" lon="14.24916">
        <ele>402.933143</ele>
        <time>2026-07-12T10:20:37.000Z</time>
      </trkpt>
      <trkpt lat="46.29107" lon="14.24896">
        <ele>403.194879</ele>
        <time>2026-07-12T10:20:40.000Z</time>
      </trkpt>
      <trkpt lat="46.29113" lon="14.24879">
        <ele>403.433081</ele>
        <time>2026-07-12T10:20:43.000Z</time>
      </trkpt>
      <trkpt lat="46.29118" lon="14.24868">
        <ele>403.591056</ele>
        <time>2026-07-12T10:20:45.000Z</time>
      </trkpt>
      <trkpt lat="46.29125" lon="14.24851">
        <ele>403.832684</ele>
        <time>2026-07-12T10:20:48.000Z</time>
      </trkpt>
      <trkpt lat="46.29126" lon="14.24844">
        <ele>403.914685</ele>
        <time>2026-07-12T10:20:49.000Z</time>
      </trkpt>
      <trkpt lat="46.29133" lon="14.24826">
        <ele>404.168838</ele>
        <time>2026-07-12T10:20:52.000Z</time>
      </trkpt>
      <trkpt lat="46.29136" lon="14.24812">
        <ele>404.345281</ele>
        <time>2026-07-12T10:20:54.000Z</time>
      </trkpt>
      <trkpt lat="46.29144" lon="14.24777">
        <ele>404.796408</ele>
        <time>2026-07-12T10:20:59.000Z</time>
      </trkpt>
      <trkpt lat="46.2915" lon="14.24757">
        <ele>405.059633</ele>
        <time>2026-07-12T10:21:02.000Z</time>
      </trkpt>
      <trkpt lat="46.29152" lon="14.24751">
        <ele>405.144568</ele>
        <time>2026-07-12T10:21:03.000Z</time>
      </trkpt>
      <trkpt lat="46.29153" lon="14.24743">
        <ele>405.142642</ele>
        <time>2026-07-12T10:21:04.000Z</time>
      </trkpt>
      <trkpt lat="46.29159" lon="14.24732">
        <ele>405.125778</ele>
        <time>2026-07-12T10:21:06.000Z</time>
      </trkpt>
      <trkpt lat="46.29161" lon="14.24726">
        <ele>405.117908</ele>
        <time>2026-07-12T10:21:07.000Z</time>
      </trkpt>
      <trkpt lat="46.29163" lon="14.24719">
        <ele>405.109148</ele>
        <time>2026-07-12T10:21:08.000Z</time>
      </trkpt>
      <trkpt lat="46.29167" lon="14.24698">
        <ele>405.083587</ele>
        <time>2026-07-12T10:21:11.000Z</time>
      </trkpt>
      <trkpt lat="46.29171" lon="14.24685">
        <ele>405.066443</ele>
        <time>2026-07-12T10:21:13.000Z</time>
      </trkpt>
      <trkpt lat="46.29175" lon="14.24678">
        <ele>405.055881</ele>
        <time>2026-07-12T10:21:14.000Z</time>
      </trkpt>
      <trkpt lat="46.29177" lon="14.2467">
        <ele>405.046266</ele>
        <time>2026-07-12T10:21:15.000Z</time>
      </trkpt>
      <trkpt lat="46.29183" lon="14.2465">
        <ele>405.021134</ele>
        <time>2026-07-12T10:21:18.000Z</time>
      </trkpt>
      <trkpt lat="46.29182" lon="14.24643">
        <ele>405.01235</ele>
        <time>2026-07-12T10:21:19.000Z</time>
      </trkpt>
      <trkpt lat="46.29186" lon="14.24621">
        <ele>404.986022</ele>
        <time>2026-07-12T10:21:22.000Z</time>
      </trkpt>
      <trkpt lat="46.29189" lon="14.24605">
        <ele>404.966454</ele>
        <time>2026-07-12T10:21:24.000Z</time>
      </trkpt>
      <trkpt lat="46.292" lon="14.24557">
        <ele>404.906814</ele>
        <time>2026-07-12T10:21:30.000Z</time>
      </trkpt>
      <trkpt lat="46.29202" lon="14.24549">
        <ele>404.896422</ele>
        <time>2026-07-12T10:21:31.000Z</time>
      </trkpt>
      <trkpt lat="46.29207" lon="14.24523">
        <ele>404.865168</ele>
        <time>2026-07-12T10:21:34.000Z</time>
      </trkpt>
      <trkpt lat="46.29217" lon="14.24492">
        <ele>404.797395</ele>
        <time>2026-07-12T10:21:38.000Z</time>
      </trkpt>
      <trkpt lat="46.29223" lon="14.2446">
        <ele>404.707911</ele>
        <time>2026-07-12T10:21:42.000Z</time>
      </trkpt>
      <trkpt lat="46.29225" lon="14.24453">
        <ele>404.687025</ele>
        <time>2026-07-12T10:21:43.000Z</time>
      </trkpt>
      <trkpt lat="46.29227" lon="14.24447">
        <ele>404.667176</ele>
        <time>2026-07-12T10:21:44.000Z</time>
      </trkpt>
      <trkpt lat="46.29232" lon="14.24426">
        <ele>404.608197</ele>
        <time>2026-07-12T10:21:47.000Z</time>
      </trkpt>
      <trkpt lat="46.29234" lon="14.24412">
        <ele>404.569215</ele>
        <time>2026-07-12T10:21:49.000Z</time>
      </trkpt>
      <trkpt lat="46.29238" lon="14.24385">
        <ele>404.491979</ele>
        <time>2026-07-12T10:21:53.000Z</time>
      </trkpt>
      <trkpt lat="46.29241" lon="14.24373">
        <ele>404.456338</ele>
        <time>2026-07-12T10:21:55.000Z</time>
      </trkpt>
      <trkpt lat="46.29245" lon="14.24361">
        <ele>404.419083</ele>
        <time>2026-07-12T10:21:57.000Z</time>
      </trkpt>
      <trkpt lat="46.29247" lon="14.24355">
        <ele>404.400813</ele>
        <time>2026-07-12T10:21:58.000Z</time>
      </trkpt>
      <trkpt lat="46.29251" lon="14.24344">
        <ele>404.367087</ele>
        <time>2026-07-12T10:22:00.000Z</time>
      </trkpt>
      <trkpt lat="46.29253" lon="14.24338">
        <ele>404.349854</ele>
        <time>2026-07-12T10:22:01.000Z</time>
      </trkpt>
      <trkpt lat="46.29257" lon="14.24327">
        <ele>404.315636</ele>
        <time>2026-07-12T10:22:03.000Z</time>
      </trkpt>
      <trkpt lat="46.29262" lon="14.24309">
        <ele>404.262942</ele>
        <time>2026-07-12T10:22:06.000Z</time>
      </trkpt>
      <trkpt lat="46.29265" lon="14.24304">
        <ele>404.24487</ele>
        <time>2026-07-12T10:22:07.000Z</time>
      </trkpt>
      <trkpt lat="46.29278" lon="14.24259">
        <ele>404.128411</ele>
        <time>2026-07-12T10:22:14.000Z</time>
      </trkpt>
      <trkpt lat="46.29293" lon="14.24206">
        <ele>404.108715</ele>
        <time>2026-07-12T10:22:21.000Z</time>
      </trkpt>
      <trkpt lat="46.29308" lon="14.24156">
        <ele>404.090036</ele>
        <time>2026-07-12T10:22:27.000Z</time>
      </trkpt>
      <trkpt lat="46.29324" lon="14.24119">
        <ele>404.074938</ele>
        <time>2026-07-12T10:22:32.000Z</time>
      </trkpt>
      <trkpt lat="46.29327" lon="14.24113">
        <ele>404.072218</ele>
        <time>2026-07-12T10:22:33.000Z</time>
      </trkpt>
      <trkpt lat="46.29337" lon="14.24094">
        <ele>404.064098</ele>
        <time>2026-07-12T10:22:36.000Z</time>
      </trkpt>
      <trkpt lat="46.29341" lon="14.24088">
        <ele>404.06134</ele>
        <time>2026-07-12T10:22:37.000Z</time>
      </trkpt>
      <trkpt lat="46.29351" lon="14.24069">
        <ele>404.053168</ele>
        <time>2026-07-12T10:22:40.000Z</time>
      </trkpt>
      <trkpt lat="46.29354" lon="14.24064">
        <ele>404.050756</ele>
        <time>2026-07-12T10:22:41.000Z</time>
      </trkpt>
      <trkpt lat="46.29357" lon="14.24058">
        <ele>404.048226</ele>
        <time>2026-07-12T10:22:42.000Z</time>
      </trkpt>
      <trkpt lat="46.2937" lon="14.24033">
        <ele>404.126569</ele>
        <time>2026-07-12T10:22:46.000Z</time>
      </trkpt>
      <trkpt lat="46.29374" lon="14.24026">
        <ele>404.187683</ele>
        <time>2026-07-12T10:22:47.000Z</time>
      </trkpt>
      <trkpt lat="46.29393" lon="14.23997">
        <ele>404.490454</ele>
        <time>2026-07-12T10:22:52.000Z</time>
      </trkpt>
      <trkpt lat="46.29411" lon="14.23972">
        <ele>404.768076</ele>
        <time>2026-07-12T10:22:57.000Z</time>
      </trkpt>
      <trkpt lat="46.2942" lon="14.23963">
        <ele>404.880507</ele>
        <time>2026-07-12T10:22:59.000Z</time>
      </trkpt>
      <trkpt lat="46.29428" lon="14.23954">
        <ele>404.99229</ele>
        <time>2026-07-12T10:23:01.000Z</time>
      </trkpt>
      <trkpt lat="46.29435" lon="14.23942">
        <ele>405.107762</ele>
        <time>2026-07-12T10:23:03.000Z</time>
      </trkpt>
      <trkpt lat="46.29447" lon="14.23925">
        <ele>405.292851</ele>
        <time>2026-07-12T10:23:06.000Z</time>
      </trkpt>
      <trkpt lat="46.29455" lon="14.23913">
        <ele>405.415469</ele>
        <time>2026-07-12T10:23:08.000Z</time>
      </trkpt>
      <trkpt lat="46.29461" lon="14.239">
        <ele>405.533367</ele>
        <time>2026-07-12T10:23:10.000Z</time>
      </trkpt>
      <trkpt lat="46.29469" lon="14.23887">
        <ele>405.662324</ele>
        <time>2026-07-12T10:23:12.000Z</time>
      </trkpt>
      <trkpt lat="46.29477" lon="14.23874">
        <ele>405.792669</ele>
        <time>2026-07-12T10:23:14.000Z</time>
      </trkpt>
      <trkpt lat="46.29487" lon="14.23843">
        <ele>406.050368</ele>
        <time>2026-07-12T10:23:18.000Z</time>
      </trkpt>
      <trkpt lat="46.29492" lon="14.23827">
        <ele>406.190812</ele>
        <time>2026-07-12T10:23:20.000Z</time>
      </trkpt>
      <trkpt lat="46.29508" lon="14.23793">
        <ele>406.503588</ele>
        <time>2026-07-12T10:23:25.000Z</time>
      </trkpt>
      <trkpt lat="46.29513" lon="14.23781">
        <ele>406.620838</ele>
        <time>2026-07-12T10:23:27.000Z</time>
      </trkpt>
      <trkpt lat="46.2952" lon="14.2377">
        <ele>406.732055</ele>
        <time>2026-07-12T10:23:29.000Z</time>
      </trkpt>
      <trkpt lat="46.29523" lon="14.23764">
        <ele>406.788112</ele>
        <time>2026-07-12T10:23:30.000Z</time>
      </trkpt>
      <trkpt lat="46.29528" lon="14.23752">
        <ele>406.896429</ele>
        <time>2026-07-12T10:23:32.000Z</time>
      </trkpt>
      <trkpt lat="46.29533" lon="14.2374">
        <ele>407.003455</ele>
        <time>2026-07-12T10:23:34.000Z</time>
      </trkpt>
      <trkpt lat="46.29547" lon="14.23713">
        <ele>407.266781</ele>
        <time>2026-07-12T10:23:39.000Z</time>
      </trkpt>
      <trkpt lat="46.29553" lon="14.23702">
        <ele>407.377619</ele>
        <time>2026-07-12T10:23:41.000Z</time>
      </trkpt>
      <trkpt lat="46.29558" lon="14.23686">
        <ele>407.511791</ele>
        <time>2026-07-12T10:23:43.000Z</time>
      </trkpt>
      <trkpt lat="46.29563" lon="14.23671">
        <ele>407.636065</ele>
        <time>2026-07-12T10:23:45.000Z</time>
      </trkpt>
      <trkpt lat="46.29565" lon="14.23655">
        <ele>407.769117</ele>
        <time>2026-07-12T10:23:47.000Z</time>
      </trkpt>
      <trkpt lat="46.29566" lon="14.23646">
        <ele>407.834929</ele>
        <time>2026-07-12T10:23:48.000Z</time>
      </trkpt>
      <trkpt lat="46.29566" lon="14.23637">
        <ele>407.906158</ele>
        <time>2026-07-12T10:23:49.000Z</time>
      </trkpt>
      <trkpt lat="46.2957" lon="14.23602">
        <ele>408.43354</ele>
        <time>2026-07-12T10:23:53.000Z</time>
      </trkpt>
      <trkpt lat="46.29574" lon="14.23579">
        <ele>408.903401</ele>
        <time>2026-07-12T10:23:56.000Z</time>
      </trkpt>
      <trkpt lat="46.29576" lon="14.23571">
        <ele>409.06846</ele>
        <time>2026-07-12T10:23:57.000Z</time>
      </trkpt>
      <trkpt lat="46.29579" lon="14.23564">
        <ele>409.230286</ele>
        <time>2026-07-12T10:23:58.000Z</time>
      </trkpt>
      <trkpt lat="46.29583" lon="14.23557">
        <ele>409.388924</ele>
        <time>2026-07-12T10:23:59.000Z</time>
      </trkpt>
      <trkpt lat="46.29586" lon="14.2355">
        <ele>409.541354</ele>
        <time>2026-07-12T10:24:00.000Z</time>
      </trkpt>
      <trkpt lat="46.29591" lon="14.23537">
        <ele>409.839995</ele>
        <time>2026-07-12T10:24:02.000Z</time>
      </trkpt>
      <trkpt lat="46.29594" lon="14.23532">
        <ele>409.973588</ele>
        <time>2026-07-12T10:24:03.000Z</time>
      </trkpt>
      <trkpt lat="46.29601" lon="14.23522">
        <ele>410.236667</ele>
        <time>2026-07-12T10:24:05.000Z</time>
      </trkpt>
      <trkpt lat="46.29608" lon="14.23512">
        <ele>410.523153</ele>
        <time>2026-07-12T10:24:07.000Z</time>
      </trkpt>
      <trkpt lat="46.29611" lon="14.23508">
        <ele>410.632354</ele>
        <time>2026-07-12T10:24:08.000Z</time>
      </trkpt>
      <trkpt lat="46.29614" lon="14.23503">
        <ele>410.762905</ele>
        <time>2026-07-12T10:24:09.000Z</time>
      </trkpt>
      <trkpt lat="46.29621" lon="14.23491">
        <ele>411.055103</ele>
        <time>2026-07-12T10:24:11.000Z</time>
      </trkpt>
      <trkpt lat="46.29627" lon="14.23486">
        <ele>411.241646</ele>
        <time>2026-07-12T10:24:12.000Z</time>
      </trkpt>
      <trkpt lat="46.29632" lon="14.23482">
        <ele>411.417745</ele>
        <time>2026-07-12T10:24:13.000Z</time>
      </trkpt>
      <trkpt lat="46.29646" lon="14.23472">
        <ele>411.851231</ele>
        <time>2026-07-12T10:24:16.000Z</time>
      </trkpt>
      <trkpt lat="46.29651" lon="14.23468">
        <ele>411.995648</ele>
        <time>2026-07-12T10:24:17.000Z</time>
      </trkpt>
      <trkpt lat="46.29662" lon="14.23462">
        <ele>412.344012</ele>
        <time>2026-07-12T10:24:19.000Z</time>
      </trkpt>
      <trkpt lat="46.29678" lon="14.23455">
        <ele>412.793291</ele>
        <time>2026-07-12T10:24:22.000Z</time>
      </trkpt>
      <trkpt lat="46.29688" lon="14.23449">
        <ele>413.000155</ele>
        <time>2026-07-12T10:24:24.000Z</time>
      </trkpt>
      <trkpt lat="46.29698" lon="14.23439">
        <ele>412.904105</ele>
        <time>2026-07-12T10:24:26.000Z</time>
      </trkpt>
      <trkpt lat="46.29702" lon="14.23434">
        <ele>412.861778</ele>
        <time>2026-07-12T10:24:27.000Z</time>
      </trkpt>
      <trkpt lat="46.29706" lon="14.23428">
        <ele>412.819309</ele>
        <time>2026-07-12T10:24:28.000Z</time>
      </trkpt>
      <trkpt lat="46.29715" lon="14.23409">
        <ele>412.688945</ele>
        <time>2026-07-12T10:24:31.000Z</time>
      </trkpt>
      <trkpt lat="46.29726" lon="14.23393">
        <ele>412.569422</ele>
        <time>2026-07-12T10:24:34.000Z</time>
      </trkpt>
      <trkpt lat="46.29729" lon="14.23388">
        <ele>412.532483</ele>
        <time>2026-07-12T10:24:35.000Z</time>
      </trkpt>
      <trkpt lat="46.29735" lon="14.23377">
        <ele>412.455889</ele>
        <time>2026-07-12T10:24:37.000Z</time>
      </trkpt>
      <trkpt lat="46.29738" lon="14.23373">
        <ele>412.418013</ele>
        <time>2026-07-12T10:24:38.000Z</time>
      </trkpt>
      <trkpt lat="46.29742" lon="14.23369">
        <ele>412.383159</ele>
        <time>2026-07-12T10:24:39.000Z</time>
      </trkpt>
      <trkpt lat="46.29747" lon="14.23358">
        <ele>412.310082</ele>
        <time>2026-07-12T10:24:41.000Z</time>
      </trkpt>
      <trkpt lat="46.29751" lon="14.23337">
        <ele>412.192507</ele>
        <time>2026-07-12T10:24:44.000Z</time>
      </trkpt>
      <trkpt lat="46.29756" lon="14.23325">
        <ele>412.111624</ele>
        <time>2026-07-12T10:24:46.000Z</time>
      </trkpt>
      <trkpt lat="46.29763" lon="14.23314">
        <ele>412.034404</ele>
        <time>2026-07-12T10:24:48.000Z</time>
      </trkpt>
      <trkpt lat="46.2977" lon="14.23296">
        <ele>411.920781</ele>
        <time>2026-07-12T10:24:51.000Z</time>
      </trkpt>
      <trkpt lat="46.29775" lon="14.23278">
        <ele>411.809745</ele>
        <time>2026-07-12T10:24:54.000Z</time>
      </trkpt>
      <trkpt lat="46.29778" lon="14.23267">
        <ele>411.744299</ele>
        <time>2026-07-12T10:24:56.000Z</time>
      </trkpt>
      <trkpt lat="46.29781" lon="14.23252">
        <ele>411.660639</ele>
        <time>2026-07-12T10:24:58.000Z</time>
      </trkpt>
      <trkpt lat="46.29786" lon="14.23224">
        <ele>411.66108</ele>
        <time>2026-07-12T10:25:02.000Z</time>
      </trkpt>
      <trkpt lat="46.29794" lon="14.23214">
        <ele>411.732102</ele>
        <time>2026-07-12T10:25:04.000Z</time>
      </trkpt>
      <trkpt lat="46.29798" lon="14.23202">
        <ele>411.792668</ele>
        <time>2026-07-12T10:25:06.000Z</time>
      </trkpt>
      <trkpt lat="46.29802" lon="14.23189">
        <ele>411.856944</ele>
        <time>2026-07-12T10:25:08.000Z</time>
      </trkpt>
      <trkpt lat="46.29816" lon="14.2316">
        <ele>412.01515</ele>
        <time>2026-07-12T10:25:13.000Z</time>
      </trkpt>
      <trkpt lat="46.29819" lon="14.23156">
        <ele>412.041195</ele>
        <time>2026-07-12T10:25:14.000Z</time>
      </trkpt>
      <trkpt lat="46.29821" lon="14.2315">
        <ele>412.073436</ele>
        <time>2026-07-12T10:25:15.000Z</time>
      </trkpt>
      <trkpt lat="46.2983" lon="14.23132">
        <ele>412.170687</ele>
        <time>2026-07-12T10:25:18.000Z</time>
      </trkpt>
      <trkpt lat="46.29837" lon="14.23122">
        <ele>412.238584</ele>
        <time>2026-07-12T10:25:20.000Z</time>
      </trkpt>
      <trkpt lat="46.29846" lon="14.23105">
        <ele>412.33699</ele>
        <time>2026-07-12T10:25:23.000Z</time>
      </trkpt>
      <trkpt lat="46.29861" lon="14.23077">
        <ele>412.497288</ele>
        <time>2026-07-12T10:25:28.000Z</time>
      </trkpt>
      <trkpt lat="46.29867" lon="14.23065">
        <ele>412.562738</ele>
        <time>2026-07-12T10:25:30.000Z</time>
      </trkpt>
      <trkpt lat="46.29881" lon="14.23035">
        <ele>412.728108</ele>
        <time>2026-07-12T10:25:35.000Z</time>
      </trkpt>
      <trkpt lat="46.29884" lon="14.23029">
        <ele>412.762543</ele>
        <time>2026-07-12T10:25:36.000Z</time>
      </trkpt>
      <trkpt lat="46.29885" lon="14.23021">
        <ele>412.821267</ele>
        <time>2026-07-12T10:25:37.000Z</time>
      </trkpt>
      <trkpt lat="46.29889" lon="14.2301">
        <ele>412.929379</ele>
        <time>2026-07-12T10:25:39.000Z</time>
      </trkpt>
      <trkpt lat="46.29891" lon="14.23005">
        <ele>412.985661</ele>
        <time>2026-07-12T10:25:40.000Z</time>
      </trkpt>
      <trkpt lat="46.29895" lon="14.22992">
        <ele>413.106845</ele>
        <time>2026-07-12T10:25:42.000Z</time>
      </trkpt>
      <trkpt lat="46.29903" lon="14.22974">
        <ele>413.294135</ele>
        <time>2026-07-12T10:25:45.000Z</time>
      </trkpt>
      <trkpt lat="46.29907" lon="14.22968">
        <ele>413.359946</ele>
        <time>2026-07-12T10:25:46.000Z</time>
      </trkpt>
      <trkpt lat="46.29912" lon="14.22956">
        <ele>413.480058</ele>
        <time>2026-07-12T10:25:48.000Z</time>
      </trkpt>
      <trkpt lat="46.29914" lon="14.22944">
        <ele>413.591213</ele>
        <time>2026-07-12T10:25:50.000Z</time>
      </trkpt>
      <trkpt lat="46.29923" lon="14.22921">
        <ele>413.81983</ele>
        <time>2026-07-12T10:25:54.000Z</time>
      </trkpt>
      <trkpt lat="46.2993" lon="14.22911">
        <ele>413.940153</ele>
        <time>2026-07-12T10:25:56.000Z</time>
      </trkpt>
      <trkpt lat="46.29933" lon="14.22904">
        <ele>414.01455</ele>
        <time>2026-07-12T10:25:57.000Z</time>
      </trkpt>
      <trkpt lat="46.29937" lon="14.22894">
        <ele>414.118136</ele>
        <time>2026-07-12T10:25:59.000Z</time>
      </trkpt>
      <trkpt lat="46.2994" lon="14.22888">
        <ele>414.17958</ele>
        <time>2026-07-12T10:26:00.000Z</time>
      </trkpt>
      <trkpt lat="46.29947" lon="14.22866">
        <ele>414.383303</ele>
        <time>2026-07-12T10:26:03.000Z</time>
      </trkpt>
      <trkpt lat="46.29952" lon="14.22847">
        <ele>414.560158</ele>
        <time>2026-07-12T10:26:06.000Z</time>
      </trkpt>
      <trkpt lat="46.29951" lon="14.22831">
        <ele>414.704307</ele>
        <time>2026-07-12T10:26:08.000Z</time>
      </trkpt>
      <trkpt lat="46.29958" lon="14.22819">
        <ele>414.83573</ele>
        <time>2026-07-12T10:26:10.000Z</time>
      </trkpt>
      <trkpt lat="46.2996" lon="14.22815">
        <ele>414.881458</ele>
        <time>2026-07-12T10:26:11.000Z</time>
      </trkpt>
      <trkpt lat="46.29963" lon="14.22795">
        <ele>415.089441</ele>
        <time>2026-07-12T10:26:14.000Z</time>
      </trkpt>
      <trkpt lat="46.29964" lon="14.22787">
        <ele>415.262077</ele>
        <time>2026-07-12T10:26:15.000Z</time>
      </trkpt>
      <trkpt lat="46.29973" lon="14.22739">
        <ele>416.255314</ele>
        <time>2026-07-12T10:26:22.000Z</time>
      </trkpt>
      <trkpt lat="46.29977" lon="14.22718">
        <ele>416.707745</ele>
        <time>2026-07-12T10:26:25.000Z</time>
      </trkpt>
      <trkpt lat="46.29981" lon="14.22683">
        <ele>417.424883</ele>
        <time>2026-07-12T10:26:30.000Z</time>
      </trkpt>
      <trkpt lat="46.29987" lon="14.22647">
        <ele>418.178053</ele>
        <time>2026-07-12T10:26:35.000Z</time>
      </trkpt>
      <trkpt lat="46.29987" lon="14.22639">
        <ele>418.334493</ele>
        <time>2026-07-12T10:26:36.000Z</time>
      </trkpt>
      <trkpt lat="46.29989" lon="14.22632">
        <ele>418.478291</ele>
        <time>2026-07-12T10:26:37.000Z</time>
      </trkpt>
      <trkpt lat="46.29989" lon="14.2261">
        <ele>418.928621</ele>
        <time>2026-07-12T10:26:40.000Z</time>
      </trkpt>
      <trkpt lat="46.29995" lon="14.2258">
        <ele>419.571583</ele>
        <time>2026-07-12T10:26:44.000Z</time>
      </trkpt>
      <trkpt lat="46.29995" lon="14.22564">
        <ele>419.883981</ele>
        <time>2026-07-12T10:26:46.000Z</time>
      </trkpt>
      <trkpt lat="46.3" lon="14.22541">
        <ele>420.328764</ele>
        <time>2026-07-12T10:26:49.000Z</time>
      </trkpt>
      <trkpt lat="46.30003" lon="14.22528">
        <ele>420.401351</ele>
        <time>2026-07-12T10:26:51.000Z</time>
      </trkpt>
      <trkpt lat="46.30008" lon="14.22517">
        <ele>420.466303</ele>
        <time>2026-07-12T10:26:53.000Z</time>
      </trkpt>
      <trkpt lat="46.30013" lon="14.22503">
        <ele>420.546618</ele>
        <time>2026-07-12T10:26:55.000Z</time>
      </trkpt>
      <trkpt lat="46.30023" lon="14.2248">
        <ele>420.687348</ele>
        <time>2026-07-12T10:26:59.000Z</time>
      </trkpt>
      <trkpt lat="46.30026" lon="14.22475">
        <ele>420.717073</ele>
        <time>2026-07-12T10:27:00.000Z</time>
      </trkpt>
      <trkpt lat="46.30054" lon="14.22425">
        <ele>421.043799</ele>
        <time>2026-07-12T10:27:09.000Z</time>
      </trkpt>
      <trkpt lat="46.30058" lon="14.22421">
        <ele>421.080795</ele>
        <time>2026-07-12T10:27:10.000Z</time>
      </trkpt>
      <trkpt lat="46.30071" lon="14.22407">
        <ele>421.200431</ele>
        <time>2026-07-12T10:27:13.000Z</time>
      </trkpt>
      <trkpt lat="46.30095" lon="14.22366">
        <ele>421.472458</ele>
        <time>2026-07-12T10:27:20.000Z</time>
      </trkpt>
      <trkpt lat="46.30127" lon="14.22306">
        <ele>422.558686</ele>
        <time>2026-07-12T10:27:30.000Z</time>
      </trkpt>
      <trkpt lat="46.30151" lon="14.22247">
        <ele>423.996596</ele>
        <time>2026-07-12T10:27:39.000Z</time>
      </trkpt>
      <trkpt lat="46.30166" lon="14.22208">
        <ele>424.937018</ele>
        <time>2026-07-12T10:27:45.000Z</time>
      </trkpt>
      <trkpt lat="46.3017" lon="14.222">
        <ele>425.131021</ele>
        <time>2026-07-12T10:27:46.000Z</time>
      </trkpt>
      <trkpt lat="46.30186" lon="14.22143">
        <ele>426.443076</ele>
        <time>2026-07-12T10:27:54.000Z</time>
      </trkpt>
      <trkpt lat="46.30188" lon="14.22136">
        <ele>426.603605</ele>
        <time>2026-07-12T10:27:55.000Z</time>
      </trkpt>
      <trkpt lat="46.30195" lon="14.22117">
        <ele>427.060721</ele>
        <time>2026-07-12T10:27:58.000Z</time>
      </trkpt>
      <trkpt lat="46.30197" lon="14.2211">
        <ele>427.147011</ele>
        <time>2026-07-12T10:27:59.000Z</time>
      </trkpt>
      <trkpt lat="46.30198" lon="14.22103">
        <ele>427.20299</ele>
        <time>2026-07-12T10:28:00.000Z</time>
      </trkpt>
      <trkpt lat="46.30209" lon="14.22069">
        <ele>427.476874</ele>
        <time>2026-07-12T10:28:05.000Z</time>
      </trkpt>
      <trkpt lat="46.30234" lon="14.21995">
        <ele>428.079914</ele>
        <time>2026-07-12T10:28:16.000Z</time>
      </trkpt>
      <trkpt lat="46.30248" lon="14.21946">
        <ele>428.475693</ele>
        <time>2026-07-12T10:28:23.000Z</time>
      </trkpt>
      <trkpt lat="46.30268" lon="14.219">
        <ele>428.871606</ele>
        <time>2026-07-12T10:28:30.000Z</time>
      </trkpt>
      <trkpt lat="46.30283" lon="14.2188">
        <ele>429.126414</ele>
        <time>2026-07-12T10:28:34.000Z</time>
      </trkpt>
      <trkpt lat="46.30286" lon="14.21876">
        <ele>429.218595</ele>
        <time>2026-07-12T10:28:35.000Z</time>
      </trkpt>
      <trkpt lat="46.30297" lon="14.21862">
        <ele>429.490764</ele>
        <time>2026-07-12T10:28:38.000Z</time>
      </trkpt>
      <trkpt lat="46.30305" lon="14.21847">
        <ele>429.752415</ele>
        <time>2026-07-12T10:28:41.000Z</time>
      </trkpt>
      <trkpt lat="46.30311" lon="14.21837">
        <ele>429.931073</ele>
        <time>2026-07-12T10:28:43.000Z</time>
      </trkpt>
      <trkpt lat="46.30321" lon="14.21814">
        <ele>430.28484</ele>
        <time>2026-07-12T10:28:47.000Z</time>
      </trkpt>
      <trkpt lat="46.30338" lon="14.2178">
        <ele>430.851149</ele>
        <time>2026-07-12T10:28:54.000Z</time>
      </trkpt>
      <trkpt lat="46.30343" lon="14.21772">
        <ele>431.002471</ele>
        <time>2026-07-12T10:28:56.000Z</time>
      </trkpt>
      <trkpt lat="46.30356" lon="14.21746">
        <ele>431.425485</ele>
        <time>2026-07-12T10:29:02.000Z</time>
      </trkpt>
      <trkpt lat="46.30366" lon="14.21715">
        <ele>431.882776</ele>
        <time>2026-07-12T10:29:09.000Z</time>
      </trkpt>
      <trkpt lat="46.30371" lon="14.21692">
        <ele>432.213078</ele>
        <time>2026-07-12T10:29:15.000Z</time>
      </trkpt>
      <trkpt lat="46.30375" lon="14.21678">
        <ele>432.414675</ele>
        <time>2026-07-12T10:29:19.000Z</time>
      </trkpt>
      <trkpt lat="46.30375" lon="14.21674">
        <ele>432.465881</ele>
        <time>2026-07-12T10:29:20.000Z</time>
      </trkpt>
      <trkpt lat="46.30383" lon="14.21658">
        <ele>432.8587</ele>
        <time>2026-07-12T10:29:25.000Z</time>
      </trkpt>
      <trkpt lat="46.30388" lon="14.21647">
        <ele>433.134794</ele>
        <time>2026-07-12T10:29:28.000Z</time>
      </trkpt>
      <trkpt lat="46.30392" lon="14.21644">
        <ele>433.260909</ele>
        <time>2026-07-12T10:29:29.000Z</time>
      </trkpt>
      <trkpt lat="46.30394" lon="14.21641">
        <ele>433.363281</ele>
        <time>2026-07-12T10:29:30.000Z</time>
      </trkpt>
      <trkpt lat="46.30399" lon="14.21624">
        <ele>433.753541</ele>
        <time>2026-07-12T10:29:34.000Z</time>
      </trkpt>
      <trkpt lat="46.30408" lon="14.21598">
        <ele>434.392551</ele>
        <time>2026-07-12T10:29:41.000Z</time>
      </trkpt>
      <trkpt lat="46.30417" lon="14.21571">
        <ele>435.042161</ele>
        <time>2026-07-12T10:29:48.000Z</time>
      </trkpt>
      <trkpt lat="46.30422" lon="14.2154">
        <ele>435.726591</ele>
        <time>2026-07-12T10:29:55.000Z</time>
      </trkpt>
      <trkpt lat="46.30431" lon="14.21508">
        <ele>436.450717</ele>
        <time>2026-07-12T10:30:01.000Z</time>
      </trkpt>
      <trkpt lat="46.30446" lon="14.21474">
        <ele>437.318093</ele>
        <time>2026-07-12T10:30:08.000Z</time>
      </trkpt>
      <trkpt lat="46.30456" lon="14.21447">
        <ele>437.985692</ele>
        <time>2026-07-12T10:30:14.000Z</time>
      </trkpt>
      <trkpt lat="46.30459" lon="14.21443">
        <ele>438.113434</ele>
        <time>2026-07-12T10:30:15.000Z</time>
      </trkpt>
      <trkpt lat="46.30464" lon="14.21437">
        <ele>438.264996</ele>
        <time>2026-07-12T10:30:17.000Z</time>
      </trkpt>
      <trkpt lat="46.30472" lon="14.21423">
        <ele>438.55621</ele>
        <time>2026-07-12T10:30:21.000Z</time>
      </trkpt>
      <trkpt lat="46.30485" lon="14.21407">
        <ele>438.952342</ele>
        <time>2026-07-12T10:30:26.000Z</time>
      </trkpt>
      <trkpt lat="46.30491" lon="14.21386">
        <ele>439.318302</ele>
        <time>2026-07-12T10:30:31.000Z</time>
      </trkpt>
      <trkpt lat="46.30497" lon="14.21366">
        <ele>439.666829</ele>
        <time>2026-07-12T10:30:36.000Z</time>
      </trkpt>
      <trkpt lat="46.30506" lon="14.21343">
        <ele>440.088349</ele>
        <time>2026-07-12T10:30:41.000Z</time>
      </trkpt>
      <trkpt lat="46.30514" lon="14.21313">
        <ele>440.603709</ele>
        <time>2026-07-12T10:30:48.000Z</time>
      </trkpt>
      <trkpt lat="46.30515" lon="14.21307">
        <ele>440.708016</ele>
        <time>2026-07-12T10:30:49.000Z</time>
      </trkpt>
      <trkpt lat="46.30518" lon="14.21294">
        <ele>440.927499</ele>
        <time>2026-07-12T10:30:51.000Z</time>
      </trkpt>
      <trkpt lat="46.30525" lon="14.21281">
        <ele>441.187679</ele>
        <time>2026-07-12T10:30:53.000Z</time>
      </trkpt>
      <trkpt lat="46.30535" lon="14.2126">
        <ele>441.595788</ele>
        <time>2026-07-12T10:30:56.000Z</time>
      </trkpt>
      <trkpt lat="46.30544" lon="14.21221">
        <ele>442.246818</ele>
        <time>2026-07-12T10:31:00.000Z</time>
      </trkpt>
      <trkpt lat="46.30549" lon="14.21198">
        <ele>442.473071</ele>
        <time>2026-07-12T10:31:02.000Z</time>
      </trkpt>
      <trkpt lat="46.30552" lon="14.21187">
        <ele>442.572221</ele>
        <time>2026-07-12T10:31:03.000Z</time>
      </trkpt>
      <trkpt lat="46.30554" lon="14.21176">
        <ele>442.663979</ele>
        <time>2026-07-12T10:31:04.000Z</time>
      </trkpt>
      <trkpt lat="46.30555" lon="14.21156">
        <ele>442.829237</ele>
        <time>2026-07-12T10:31:06.000Z</time>
      </trkpt>
      <trkpt lat="46.30552" lon="14.21145">
        <ele>442.928136</ele>
        <time>2026-07-12T10:31:07.000Z</time>
      </trkpt>
      <trkpt lat="46.30546" lon="14.21123">
        <ele>443.126816</ele>
        <time>2026-07-12T10:31:09.000Z</time>
      </trkpt>
      <trkpt lat="46.30545" lon="14.21113">
        <ele>443.207347</ele>
        <time>2026-07-12T10:31:10.000Z</time>
      </trkpt>
      <trkpt lat="46.30542" lon="14.21092">
        <ele>443.38408</ele>
        <time>2026-07-12T10:31:12.000Z</time>
      </trkpt>
      <trkpt lat="46.30542" lon="14.21082">
        <ele>443.468651</ele>
        <time>2026-07-12T10:31:13.000Z</time>
      </trkpt>
      <trkpt lat="46.30543" lon="14.21013">
        <ele>444.038246</ele>
        <time>2026-07-12T10:31:20.000Z</time>
      </trkpt>
      <trkpt lat="46.30544" lon="14.20988">
        <ele>444.250754</ele>
        <time>2026-07-12T10:31:23.000Z</time>
      </trkpt>
      <trkpt lat="46.30542" lon="14.20948">
        <ele>444.831261</ele>
        <time>2026-07-12T10:31:28.000Z</time>
      </trkpt>
      <trkpt lat="46.30541" lon="14.20941">
        <ele>444.994585</ele>
        <time>2026-07-12T10:31:29.000Z</time>
      </trkpt>
      <trkpt lat="46.30533" lon="14.20903">
        <ele>445.921357</ele>
        <time>2026-07-12T10:31:35.000Z</time>
      </trkpt>
      <trkpt lat="46.30523" lon="14.20866">
        <ele>446.850767</ele>
        <time>2026-07-12T10:31:42.000Z</time>
      </trkpt>
      <trkpt lat="46.30516" lon="14.20849">
        <ele>447.317968</ele>
        <time>2026-07-12T10:31:48.000Z</time>
      </trkpt>
      <trkpt lat="46.30499" lon="14.2081">
        <ele>448.401427</ele>
        <time>2026-07-12T10:31:59.000Z</time>
      </trkpt>
      <trkpt lat="46.30491" lon="14.20796">
        <ele>448.824172</ele>
        <time>2026-07-12T10:32:04.000Z</time>
      </trkpt>
      <trkpt lat="46.30482" lon="14.2078">
        <ele>449.284883</ele>
        <time>2026-07-12T10:32:09.000Z</time>
      </trkpt>
      <trkpt lat="46.30468" lon="14.20763">
        <ele>449.925908</ele>
        <time>2026-07-12T10:32:15.000Z</time>
      </trkpt>
      <trkpt lat="46.30453" lon="14.20745">
        <ele>450.517594</ele>
        <time>2026-07-12T10:32:21.000Z</time>
      </trkpt>
      <trkpt lat="46.30445" lon="14.20737">
        <ele>450.306896</ele>
        <time>2026-07-12T10:32:24.000Z</time>
      </trkpt>
      <trkpt lat="46.30429" lon="14.20715">
        <ele>449.824329</ele>
        <time>2026-07-12T10:32:31.000Z</time>
      </trkpt>
      <trkpt lat="46.30427" lon="14.20697">
        <ele>449.547512</ele>
        <time>2026-07-12T10:32:36.000Z</time>
      </trkpt>
      <trkpt lat="46.30433" lon="14.20683">
        <ele>449.303575</ele>
        <time>2026-07-12T10:32:41.000Z</time>
      </trkpt>
      <trkpt lat="46.30446" lon="14.20676">
        <ele>449.003851</ele>
        <time>2026-07-12T10:32:45.000Z</time>
      </trkpt>
      <trkpt lat="46.3046" lon="14.20673">
        <ele>448.69395</ele>
        <time>2026-07-12T10:32:49.000Z</time>
      </trkpt>
      <trkpt lat="46.30468" lon="14.20674">
        <ele>448.524545</ele>
        <time>2026-07-12T10:32:51.000Z</time>
      </trkpt>
      <trkpt lat="46.30496" lon="14.20679">
        <ele>447.912584</ele>
        <time>2026-07-12T10:32:58.000Z</time>
      </trkpt>
      <trkpt lat="46.30524" lon="14.20679">
        <ele>447.305893</ele>
        <time>2026-07-12T10:33:05.000Z</time>
      </trkpt>
      <trkpt lat="46.30547" lon="14.20665">
        <ele>446.764748</ele>
        <time>2026-07-12T10:33:12.000Z</time>
      </trkpt>
      <trkpt lat="46.30564" lon="14.20657">
        <ele>446.603776</ele>
        <time>2026-07-12T10:33:17.000Z</time>
      </trkpt>
      <trkpt lat="46.30573" lon="14.20652">
        <ele>446.574465</ele>
        <time>2026-07-12T10:33:19.000Z</time>
      </trkpt>
      <trkpt lat="46.30582" lon="14.20649">
        <ele>446.545261</ele>
        <time>2026-07-12T10:33:21.000Z</time>
      </trkpt>
      <trkpt lat="46.30596" lon="14.20645">
        <ele>446.501377</ele>
        <time>2026-07-12T10:33:24.000Z</time>
      </trkpt>
      <trkpt lat="46.30606" lon="14.20644">
        <ele>446.470671</ele>
        <time>2026-07-12T10:33:26.000Z</time>
      </trkpt>
      <trkpt lat="46.3062" lon="14.20641">
        <ele>446.425191</ele>
        <time>2026-07-12T10:33:29.000Z</time>
      </trkpt>
      <trkpt lat="46.30635" lon="14.20635">
        <ele>446.379156</ele>
        <time>2026-07-12T10:33:32.000Z</time>
      </trkpt>
      <trkpt lat="46.30671" lon="14.20609">
        <ele>446.251984</ele>
        <time>2026-07-12T10:33:40.000Z</time>
      </trkpt>
      <trkpt lat="46.30694" lon="14.20594">
        <ele>446.174424</ele>
        <time>2026-07-12T10:33:45.000Z</time>
      </trkpt>
      <trkpt lat="46.30702" lon="14.20587">
        <ele>446.144216</ele>
        <time>2026-07-12T10:33:47.000Z</time>
      </trkpt>
      <trkpt lat="46.3071" lon="14.2058">
        <ele>446.113419</ele>
        <time>2026-07-12T10:33:49.000Z</time>
      </trkpt>
      <trkpt lat="46.30731" lon="14.20562">
        <ele>446.044296</ele>
        <time>2026-07-12T10:33:54.000Z</time>
      </trkpt>
      <trkpt lat="46.30769" lon="14.20536">
        <ele>445.929765</ele>
        <time>2026-07-12T10:34:03.000Z</time>
      </trkpt>
      <trkpt lat="46.30802" lon="14.20515">
        <ele>445.830904</ele>
        <time>2026-07-12T10:34:11.000Z</time>
      </trkpt>
      <trkpt lat="46.30819" lon="14.20506">
        <ele>445.781351</ele>
        <time>2026-07-12T10:34:15.000Z</time>
      </trkpt>
      <trkpt lat="46.30849" lon="14.20481">
        <ele>445.688882</ele>
        <time>2026-07-12T10:34:23.000Z</time>
      </trkpt>
      <trkpt lat="46.30868" lon="14.20456">
        <ele>445.618341</ele>
        <time>2026-07-12T10:34:30.000Z</time>
      </trkpt>
      <trkpt lat="46.30881" lon="14.20434">
        <ele>445.992289</ele>
        <time>2026-07-12T10:34:36.000Z</time>
      </trkpt>
      <trkpt lat="46.30896" lon="14.20411">
        <ele>446.857831</ele>
        <time>2026-07-12T10:34:42.000Z</time>
      </trkpt>
      <trkpt lat="46.30898" lon="14.20407">
        <ele>447.003156</ele>
        <time>2026-07-12T10:34:43.000Z</time>
      </trkpt>
      <trkpt lat="46.3092" lon="14.20379">
        <ele>448.146528</ele>
        <time>2026-07-12T10:34:51.000Z</time>
      </trkpt>
      <trkpt lat="46.30941" lon="14.20359">
        <ele>449.149488</ele>
        <time>2026-07-12T10:34:58.000Z</time>
      </trkpt>
      <trkpt lat="46.30967" lon="14.2034">
        <ele>450.307432</ele>
        <time>2026-07-12T10:35:06.000Z</time>
      </trkpt>
      <trkpt lat="46.3099" lon="14.20323">
        <ele>451.331477</ele>
        <time>2026-07-12T10:35:13.000Z</time>
      </trkpt>
      <trkpt lat="46.31007" lon="14.20309">
        <ele>452.099834</ele>
        <time>2026-07-12T10:35:18.000Z</time>
      </trkpt>
      <trkpt lat="46.31033" lon="14.20287">
        <ele>453.100162</ele>
        <time>2026-07-12T10:35:26.000Z</time>
      </trkpt>
      <trkpt lat="46.31059" lon="14.20264">
        <ele>453.895972</ele>
        <time>2026-07-12T10:35:34.000Z</time>
      </trkpt>
      <trkpt lat="46.31101" lon="14.20228">
        <ele>455.179634</ele>
        <time>2026-07-12T10:35:47.000Z</time>
      </trkpt>
      <trkpt lat="46.31138" lon="14.20193">
        <ele>456.34448</ele>
        <time>2026-07-12T10:35:58.000Z</time>
      </trkpt>
      <trkpt lat="46.31168" lon="14.20155">
        <ele>457.377129</ele>
        <time>2026-07-12T10:36:07.000Z</time>
      </trkpt>
      <trkpt lat="46.31204" lon="14.20117">
        <ele>457.235088</ele>
        <time>2026-07-12T10:36:16.000Z</time>
      </trkpt>
      <trkpt lat="46.3124" lon="14.20091">
        <ele>457.04022</ele>
        <time>2026-07-12T10:36:24.000Z</time>
      </trkpt>
      <trkpt lat="46.31277" lon="14.20061">
        <ele>456.832228</ele>
        <time>2026-07-12T10:36:32.000Z</time>
      </trkpt>
      <trkpt lat="46.31297" lon="14.20035">
        <ele>456.700976</ele>
        <time>2026-07-12T10:36:37.000Z</time>
      </trkpt>
      <trkpt lat="46.31308" lon="14.20017">
        <ele>456.62343</ele>
        <time>2026-07-12T10:36:40.000Z</time>
      </trkpt>
      <trkpt lat="46.31323" lon="14.19995">
        <ele>456.753714</ele>
        <time>2026-07-12T10:36:44.000Z</time>
      </trkpt>
      <trkpt lat="46.3133" lon="14.19982">
        <ele>456.967019</ele>
        <time>2026-07-12T10:36:46.000Z</time>
      </trkpt>
      <trkpt lat="46.31345" lon="14.19954">
        <ele>457.449287</ele>
        <time>2026-07-12T10:36:51.000Z</time>
      </trkpt>
      <trkpt lat="46.31361" lon="14.19925">
        <ele>457.932267</ele>
        <time>2026-07-12T10:36:56.000Z</time>
      </trkpt>
      <trkpt lat="46.31386" lon="14.19898">
        <ele>458.525569</ele>
        <time>2026-07-12T10:37:02.000Z</time>
      </trkpt>
      <trkpt lat="46.31395" lon="14.19892">
        <ele>458.71788</ele>
        <time>2026-07-12T10:37:04.000Z</time>
      </trkpt>
      <trkpt lat="46.31419" lon="14.19883">
        <ele>459.189862</ele>
        <time>2026-07-12T10:37:09.000Z</time>
      </trkpt>
      <trkpt lat="46.31453" lon="14.19876">
        <ele>459.846403</ele>
        <time>2026-07-12T10:37:16.000Z</time>
      </trkpt>
      <trkpt lat="46.31481" lon="14.19868">
        <ele>461.184955</ele>
        <time>2026-07-12T10:37:23.000Z</time>
      </trkpt>
      <trkpt lat="46.31498" lon="14.19859">
        <ele>462.242615</ele>
        <time>2026-07-12T10:37:28.000Z</time>
      </trkpt>
      <trkpt lat="46.31513" lon="14.1985">
        <ele>463.211588</ele>
        <time>2026-07-12T10:37:33.000Z</time>
      </trkpt>
      <trkpt lat="46.31523" lon="14.19841">
        <ele>463.876519</ele>
        <time>2026-07-12T10:37:37.000Z</time>
      </trkpt>
      <trkpt lat="46.31535" lon="14.1983">
        <ele>464.71603</ele>
        <time>2026-07-12T10:37:42.000Z</time>
      </trkpt>
      <trkpt lat="46.31543" lon="14.19822">
        <ele>465.268588</ele>
        <time>2026-07-12T10:37:45.000Z</time>
      </trkpt>
      <trkpt lat="46.31551" lon="14.19816">
        <ele>465.798648</ele>
        <time>2026-07-12T10:37:48.000Z</time>
      </trkpt>
      <trkpt lat="46.31567" lon="14.19803">
        <ele>466.86198</ele>
        <time>2026-07-12T10:37:54.000Z</time>
      </trkpt>
      <trkpt lat="46.31585" lon="14.19787">
        <ele>468.110671</ele>
        <time>2026-07-12T10:38:01.000Z</time>
      </trkpt>
      <trkpt lat="46.31599" lon="14.19767">
        <ele>469.255362</ele>
        <time>2026-07-12T10:38:07.000Z</time>
      </trkpt>
      <trkpt lat="46.31621" lon="14.19738">
        <ele>470.496162</ele>
        <time>2026-07-12T10:38:16.000Z</time>
      </trkpt>
      <trkpt lat="46.31644" lon="14.19712">
        <ele>470.5781</ele>
        <time>2026-07-12T10:38:25.000Z</time>
      </trkpt>
      <trkpt lat="46.31659" lon="14.19693">
        <ele>470.633823</ele>
        <time>2026-07-12T10:38:31.000Z</time>
      </trkpt>
      <trkpt lat="46.31677" lon="14.19668">
        <ele>470.703028</ele>
        <time>2026-07-12T10:38:38.000Z</time>
      </trkpt>
      <trkpt lat="46.3169" lon="14.19643">
        <ele>470.762953</ele>
        <time>2026-07-12T10:38:44.000Z</time>
      </trkpt>
      <trkpt lat="46.31698" lon="14.19617">
        <ele>470.816931</ele>
        <time>2026-07-12T10:38:49.000Z</time>
      </trkpt>
      <trkpt lat="46.31708" lon="14.19591">
        <ele>470.872459</ele>
        <time>2026-07-12T10:38:54.000Z</time>
      </trkpt>
      <trkpt lat="46.31714" lon="14.19557">
        <ele>470.940862</ele>
        <time>2026-07-12T10:39:00.000Z</time>
      </trkpt>
      <trkpt lat="46.31716" lon="14.19544">
        <ele>470.96521</ele>
        <time>2026-07-12T10:39:02.000Z</time>
      </trkpt>
      <trkpt lat="46.31719" lon="14.19519">
        <ele>471.025442</ele>
        <time>2026-07-12T10:39:06.000Z</time>
      </trkpt>
      <trkpt lat="46.31728" lon="14.19468">
        <ele>471.151599</ele>
        <time>2026-07-12T10:39:14.000Z</time>
      </trkpt>
      <trkpt lat="46.3174" lon="14.19421">
        <ele>471.269065</ele>
        <time>2026-07-12T10:39:21.000Z</time>
      </trkpt>
      <trkpt lat="46.31744" lon="14.19396">
        <ele>471.329682</ele>
        <time>2026-07-12T10:39:25.000Z</time>
      </trkpt>
      <trkpt lat="46.31745" lon="14.19384">
        <ele>471.359834</ele>
        <time>2026-07-12T10:39:27.000Z</time>
      </trkpt>
      <trkpt lat="46.31757" lon="14.19339">
        <ele>471.473925</ele>
        <time>2026-07-12T10:39:34.000Z</time>
      </trkpt>
      <trkpt lat="46.31762" lon="14.1932">
        <ele>471.524084</ele>
        <time>2026-07-12T10:39:37.000Z</time>
      </trkpt>
      <trkpt lat="46.31768" lon="14.19302">
        <ele>471.572115</ele>
        <time>2026-07-12T10:39:40.000Z</time>
      </trkpt>
      <trkpt lat="46.31781" lon="14.19257">
        <ele>472.225809</ele>
        <time>2026-07-12T10:39:47.000Z</time>
      </trkpt>
      <trkpt lat="46.31788" lon="14.19205">
        <ele>473.080607</ele>
        <time>2026-07-12T10:39:55.000Z</time>
      </trkpt>
      <trkpt lat="46.31788" lon="14.19197">
        <ele>473.194237</ele>
        <time>2026-07-12T10:39:56.000Z</time>
      </trkpt>
      <trkpt lat="46.31782" lon="14.19128">
        <ele>474.316317</ele>
        <time>2026-07-12T10:40:06.000Z</time>
      </trkpt>
      <trkpt lat="46.31775" lon="14.19085">
        <ele>475.023798</ele>
        <time>2026-07-12T10:40:12.000Z</time>
      </trkpt>
      <trkpt lat="46.31773" lon="14.19077">
        <ele>475.15116</ele>
        <time>2026-07-12T10:40:13.000Z</time>
      </trkpt>
      <trkpt lat="46.31752" lon="14.19018">
        <ele>475.786681</ele>
        <time>2026-07-12T10:40:21.000Z</time>
      </trkpt>
      <trkpt lat="46.31724" lon="14.18955">
        <ele>475.863975</ele>
        <time>2026-07-12T10:40:29.000Z</time>
      </trkpt>
      <trkpt lat="46.31705" lon="14.18919">
        <ele>475.910895</ele>
        <time>2026-07-12T10:40:34.000Z</time>
      </trkpt>
      <trkpt lat="46.31687" lon="14.18885">
        <ele>475.954151</ele>
        <time>2026-07-12T10:40:39.000Z</time>
      </trkpt>
      <trkpt lat="46.31659" lon="14.18818">
        <ele>476.084105</ele>
        <time>2026-07-12T10:40:49.000Z</time>
      </trkpt>
      <trkpt lat="46.31651" lon="14.18791">
        <ele>476.267606</ele>
        <time>2026-07-12T10:40:53.000Z</time>
      </trkpt>
      <trkpt lat="46.31641" lon="14.18758">
        <ele>476.48878</ele>
        <time>2026-07-12T10:40:58.000Z</time>
      </trkpt>
      <trkpt lat="46.31636" lon="14.18731">
        <ele>476.660332</ele>
        <time>2026-07-12T10:41:02.000Z</time>
      </trkpt>
      <trkpt lat="46.31634" lon="14.18718">
        <ele>476.742776</ele>
        <time>2026-07-12T10:41:04.000Z</time>
      </trkpt>
      <trkpt lat="46.31631" lon="14.18698">
        <ele>476.868932</ele>
        <time>2026-07-12T10:41:07.000Z</time>
      </trkpt>
      <trkpt lat="46.3163" lon="14.18691">
        <ele>476.913047</ele>
        <time>2026-07-12T10:41:08.000Z</time>
      </trkpt>
      <trkpt lat="46.31628" lon="14.18676">
        <ele>477.003425</ele>
        <time>2026-07-12T10:41:10.000Z</time>
      </trkpt>
      <trkpt lat="46.31627" lon="14.18638">
        <ele>477.235819</ele>
        <time>2026-07-12T10:41:15.000Z</time>
      </trkpt>
      <trkpt lat="46.31628" lon="14.18624">
        <ele>477.327118</ele>
        <time>2026-07-12T10:41:17.000Z</time>
      </trkpt>
      <trkpt lat="46.31629" lon="14.18609">
        <ele>477.417887</ele>
        <time>2026-07-12T10:41:19.000Z</time>
      </trkpt>
      <trkpt lat="46.31637" lon="14.18567">
        <ele>477.681419</ele>
        <time>2026-07-12T10:41:25.000Z</time>
      </trkpt>
      <trkpt lat="46.31654" lon="14.1852">
        <ele>477.995807</ele>
        <time>2026-07-12T10:41:32.000Z</time>
      </trkpt>
      <trkpt lat="46.31679" lon="14.18459">
        <ele>478.413882</ele>
        <time>2026-07-12T10:41:41.000Z</time>
      </trkpt>
      <trkpt lat="46.31707" lon="14.18391">
        <ele>478.881569</ele>
        <time>2026-07-12T10:41:51.000Z</time>
      </trkpt>
      <trkpt lat="46.31738" lon="14.18325">
        <ele>479.353305</ele>
        <time>2026-07-12T10:42:01.000Z</time>
      </trkpt>
      <trkpt lat="46.31741" lon="14.18318">
        <ele>479.398782</ele>
        <time>2026-07-12T10:42:02.000Z</time>
      </trkpt>
      <trkpt lat="46.31774" lon="14.18266">
        <ele>479.818715</ele>
        <time>2026-07-12T10:42:11.000Z</time>
      </trkpt>
      <trkpt lat="46.31799" lon="14.18224">
        <ele>480.144131</ele>
        <time>2026-07-12T10:42:18.000Z</time>
      </trkpt>
      <trkpt lat="46.31829" lon="14.18166">
        <ele>480.568614</ele>
        <time>2026-07-12T10:42:27.000Z</time>
      </trkpt>
      <trkpt lat="46.31858" lon="14.18097">
        <ele>480.947978</ele>
        <time>2026-07-12T10:42:37.000Z</time>
      </trkpt>
      <trkpt lat="46.31861" lon="14.1809">
        <ele>480.982506</ele>
        <time>2026-07-12T10:42:38.000Z</time>
      </trkpt>
      <trkpt lat="46.31886" lon="14.18029">
        <ele>481.284119</ele>
        <time>2026-07-12T10:42:47.000Z</time>
      </trkpt>
      <trkpt lat="46.31893" lon="14.18017">
        <ele>481.350749</ele>
        <time>2026-07-12T10:42:49.000Z</time>
      </trkpt>
      <trkpt lat="46.31902" lon="14.17997">
        <ele>481.450302</ele>
        <time>2026-07-12T10:42:52.000Z</time>
      </trkpt>
      <trkpt lat="46.31933" lon="14.17953">
        <ele>481.720136</ele>
        <time>2026-07-12T10:43:00.000Z</time>
      </trkpt>
      <trkpt lat="46.31971" lon="14.17906">
        <ele>482.498938</ele>
        <time>2026-07-12T10:43:09.000Z</time>
      </trkpt>
      <trkpt lat="46.31993" lon="14.1787">
        <ele>483.128988</ele>
        <time>2026-07-12T10:43:15.000Z</time>
      </trkpt>
      <trkpt lat="46.3201" lon="14.17833">
        <ele>483.708574</ele>
        <time>2026-07-12T10:43:21.000Z</time>
      </trkpt>
      <trkpt lat="46.32027" lon="14.17781">
        <ele>484.470942</ele>
        <time>2026-07-12T10:43:29.000Z</time>
      </trkpt>
      <trkpt lat="46.32036" lon="14.17738">
        <ele>485.055863</ele>
        <time>2026-07-12T10:43:35.000Z</time>
      </trkpt>
      <trkpt lat="46.32037" lon="14.17731">
        <ele>485.154932</ele>
        <time>2026-07-12T10:43:36.000Z</time>
      </trkpt>
      <trkpt lat="46.32048" lon="14.17662">
        <ele>485.384231</ele>
        <time>2026-07-12T10:43:45.000Z</time>
      </trkpt>
      <trkpt lat="46.32052" lon="14.17647">
        <ele>485.422617</ele>
        <time>2026-07-12T10:43:47.000Z</time>
      </trkpt>
      <trkpt lat="46.32058" lon="14.17626">
        <ele>485.479749</ele>
        <time>2026-07-12T10:43:50.000Z</time>
      </trkpt>
      <trkpt lat="46.32075" lon="14.17568">
        <ele>485.634508</ele>
        <time>2026-07-12T10:43:58.000Z</time>
      </trkpt>
      <trkpt lat="46.32096" lon="14.17494">
        <ele>485.830066</ele>
        <time>2026-07-12T10:44:08.000Z</time>
      </trkpt>
      <trkpt lat="46.32114" lon="14.17435">
        <ele>486.110311</ele>
        <time>2026-07-12T10:44:16.000Z</time>
      </trkpt>
      <trkpt lat="46.32131" lon="14.17387">
        <ele>486.377532</ele>
        <time>2026-07-12T10:44:23.000Z</time>
      </trkpt>
      <trkpt lat="46.3215" lon="14.1734">
        <ele>486.642303</ele>
        <time>2026-07-12T10:44:30.000Z</time>
      </trkpt>
      <trkpt lat="46.3216" lon="14.17321">
        <ele>486.756418</ele>
        <time>2026-07-12T10:44:33.000Z</time>
      </trkpt>
      <trkpt lat="46.32174" lon="14.17298">
        <ele>486.906963</ele>
        <time>2026-07-12T10:44:37.000Z</time>
      </trkpt>
      <trkpt lat="46.32205" lon="14.1725">
        <ele>487.359628</ele>
        <time>2026-07-12T10:44:46.000Z</time>
      </trkpt>
      <trkpt lat="46.32236" lon="14.17206">
        <ele>488.102681</ele>
        <time>2026-07-12T10:44:54.000Z</time>
      </trkpt>
      <trkpt lat="46.32274" lon="14.17151">
        <ele>489.007309</ele>
        <time>2026-07-12T10:45:04.000Z</time>
      </trkpt>
      <trkpt lat="46.32305" lon="14.17111">
        <ele>489.700433</ele>
        <time>2026-07-12T10:45:12.000Z</time>
      </trkpt>
      <trkpt lat="46.32336" lon="14.17075">
        <ele>490.402336</ele>
        <time>2026-07-12T10:45:20.000Z</time>
      </trkpt>
      <trkpt lat="46.32378" lon="14.17026">
        <ele>491.477045</ele>
        <time>2026-07-12T10:45:31.000Z</time>
      </trkpt>
      <trkpt lat="46.32382" lon="14.17022">
        <ele>491.578869</ele>
        <time>2026-07-12T10:45:32.000Z</time>
      </trkpt>
      <trkpt lat="46.32419" lon="14.16981">
        <ele>492.496197</ele>
        <time>2026-07-12T10:45:41.000Z</time>
      </trkpt>
      <trkpt lat="46.3245" lon="14.16942">
        <ele>493.303899</ele>
        <time>2026-07-12T10:45:49.000Z</time>
      </trkpt>
      <trkpt lat="46.32468" lon="14.16913">
        <ele>493.813604</ele>
        <time>2026-07-12T10:45:54.000Z</time>
      </trkpt>
      <trkpt lat="46.32475" lon="14.16902">
        <ele>493.974867</ele>
        <time>2026-07-12T10:45:56.000Z</time>
      </trkpt>
      <trkpt lat="46.32497" lon="14.16861">
        <ele>494.532867</ele>
        <time>2026-07-12T10:46:03.000Z</time>
      </trkpt>
      <trkpt lat="46.32503" lon="14.16848">
        <ele>494.690648</ele>
        <time>2026-07-12T10:46:05.000Z</time>
      </trkpt>
      <trkpt lat="46.32522" lon="14.16805">
        <ele>495.240013</ele>
        <time>2026-07-12T10:46:12.000Z</time>
      </trkpt>
      <trkpt lat="46.32546" lon="14.16756">
        <ele>495.86913</ele>
        <time>2026-07-12T10:46:20.000Z</time>
      </trkpt>
      <trkpt lat="46.32572" lon="14.16701">
        <ele>496.542199</ele>
        <time>2026-07-12T10:46:29.000Z</time>
      </trkpt>
      <trkpt lat="46.32603" lon="14.16642">
        <ele>497.030075</ele>
        <time>2026-07-12T10:46:39.000Z</time>
      </trkpt>
      <trkpt lat="46.32628" lon="14.16603">
        <ele>497.371927</ele>
        <time>2026-07-12T10:46:46.000Z</time>
      </trkpt>
      <trkpt lat="46.32656" lon="14.1657">
        <ele>497.719492</ele>
        <time>2026-07-12T10:46:53.000Z</time>
      </trkpt>
      <trkpt lat="46.32696" lon="14.16534">
        <ele>498.160688</ele>
        <time>2026-07-12T10:47:02.000Z</time>
      </trkpt>
      <trkpt lat="46.32735" lon="14.16513">
        <ele>499.054577</ele>
        <time>2026-07-12T10:47:10.000Z</time>
      </trkpt>
      <trkpt lat="46.32776" lon="14.16501">
        <ele>499.996879</ele>
        <time>2026-07-12T10:47:18.000Z</time>
      </trkpt>
      <trkpt lat="46.32818" lon="14.165">
        <ele>500.923643</ele>
        <time>2026-07-12T10:47:26.000Z</time>
      </trkpt>
      <trkpt lat="46.32846" lon="14.16496">
        <ele>501.553625</ele>
        <time>2026-07-12T10:47:32.000Z</time>
      </trkpt>
      <trkpt lat="46.32851" lon="14.16496">
        <ele>501.661298</ele>
        <time>2026-07-12T10:47:33.000Z</time>
      </trkpt>
      <trkpt lat="46.32886" lon="14.16494">
        <ele>502.572319</ele>
        <time>2026-07-12T10:47:41.000Z</time>
      </trkpt>
      <trkpt lat="46.32923" lon="14.1649">
        <ele>503.888004</ele>
        <time>2026-07-12T10:47:50.000Z</time>
      </trkpt>
      <trkpt lat="46.32951" lon="14.16479">
        <ele>504.902708</ele>
        <time>2026-07-12T10:47:57.000Z</time>
      </trkpt>
      <trkpt lat="46.32984" lon="14.16464">
        <ele>506.088931</ele>
        <time>2026-07-12T10:48:05.000Z</time>
      </trkpt>
      <trkpt lat="46.32988" lon="14.16462">
        <ele>506.231765</ele>
        <time>2026-07-12T10:48:06.000Z</time>
      </trkpt>
      <trkpt lat="46.33032" lon="14.16441">
        <ele>507.849213</ele>
        <time>2026-07-12T10:48:17.000Z</time>
      </trkpt>
      <trkpt lat="46.33064" lon="14.16425">
        <ele>508.567576</ele>
        <time>2026-07-12T10:48:25.000Z</time>
      </trkpt>
      <trkpt lat="46.33094" lon="14.16416">
        <ele>508.686674</ele>
        <time>2026-07-12T10:48:33.000Z</time>
      </trkpt>
      <trkpt lat="46.33096" lon="14.16416">
        <ele>508.696119</ele>
        <time>2026-07-12T10:48:36.000Z</time>
      </trkpt>
      <trkpt lat="46.33097" lon="14.16413">
        <ele>508.705756</ele>
        <time>2026-07-12T10:48:40.000Z</time>
      </trkpt>
      <trkpt lat="46.33092" lon="14.16411">
        <ele>508.723608</ele>
        <time>2026-07-12T10:48:42.000Z</time>
      </trkpt>
      <trkpt lat="46.33077" lon="14.16413">
        <ele>508.785295</ele>
        <time>2026-07-12T10:48:47.000Z</time>
      </trkpt>
      <trkpt lat="46.33061" lon="14.16414">
        <ele>508.84869</ele>
        <time>2026-07-12T10:48:52.000Z</time>
      </trkpt>
      <trkpt lat="46.33054" lon="14.16407">
        <ele>508.882152</ele>
        <time>2026-07-12T10:48:56.000Z</time>
      </trkpt>
      <trkpt lat="46.33053" lon="14.16402">
        <ele>508.894734</ele>
        <time>2026-07-12T10:48:58.000Z</time>
      </trkpt>
      <trkpt lat="46.33054" lon="14.16397">
        <ele>508.909628</ele>
        <time>2026-07-12T10:49:00.000Z</time>
      </trkpt>
      <trkpt lat="46.33057" lon="14.1639">
        <ele>508.930649</ele>
        <time>2026-07-12T10:49:02.000Z</time>
      </trkpt>
      <trkpt lat="46.3306" lon="14.16385">
        <ele>508.947418</ele>
        <time>2026-07-12T10:49:04.000Z</time>
      </trkpt>
      <trkpt lat="46.3306" lon="14.16385">
        <ele>508.949319</ele>
        <time>2026-07-12T10:49:05.000Z</time>
      </trkpt>
      <trkpt lat="46.33065" lon="14.16381">
        <ele>508.971166</ele>
        <time>2026-07-12T10:53:09.000Z</time>
      </trkpt>
      <trkpt lat="46.33068" lon="14.16376">
        <ele>508.991639</ele>
        <time>2026-07-12T10:53:12.000Z</time>
      </trkpt>
      <trkpt lat="46.33078" lon="14.16363">
        <ele>509.042899</ele>
        <time>2026-07-12T10:53:17.000Z</time>
      </trkpt>
      <trkpt lat="46.33093" lon="14.16346">
        <ele>509.119738</ele>
        <time>2026-07-12T10:53:24.000Z</time>
      </trkpt>
      <trkpt lat="46.33117" lon="14.16318">
        <ele>509.292969</ele>
        <time>2026-07-12T10:53:34.000Z</time>
      </trkpt>
      <trkpt lat="46.33127" lon="14.16302">
        <ele>509.489067</ele>
        <time>2026-07-12T10:53:38.000Z</time>
      </trkpt>
      <trkpt lat="46.33136" lon="14.1629">
        <ele>509.640136</ele>
        <time>2026-07-12T10:53:41.000Z</time>
      </trkpt>
      <trkpt lat="46.33142" lon="14.16274">
        <ele>509.802248</ele>
        <time>2026-07-12T10:53:44.000Z</time>
      </trkpt>
      <trkpt lat="46.33148" lon="14.16254">
        <ele>509.994111</ele>
        <time>2026-07-12T10:53:48.000Z</time>
      </trkpt>
      <trkpt lat="46.33155" lon="14.16222">
        <ele>510.286187</ele>
        <time>2026-07-12T10:53:56.000Z</time>
      </trkpt>
      <trkpt lat="46.33155" lon="14.16222">
        <ele>510.292503</ele>
        <time>2026-07-12T10:53:58.000Z</time>
      </trkpt>
      <trkpt lat="46.33157" lon="14.16215">
        <ele>510.354057</ele>
        <time>2026-07-12T10:54:07.000Z</time>
      </trkpt>
      <trkpt lat="46.3316" lon="14.16194">
        <ele>510.549616</ele>
        <time>2026-07-12T10:54:12.000Z</time>
      </trkpt>
      <trkpt lat="46.33167" lon="14.16157">
        <ele>510.88518</ele>
        <time>2026-07-12T10:54:18.000Z</time>
      </trkpt>
      <trkpt lat="46.33183" lon="14.16086">
        <ele>511.450352</ele>
        <time>2026-07-12T10:54:29.000Z</time>
      </trkpt>
      <trkpt lat="46.33192" lon="14.16061">
        <ele>510.934741</ele>
        <time>2026-07-12T10:54:33.000Z</time>
      </trkpt>
      <trkpt lat="46.33198" lon="14.1605">
        <ele>510.690738</ele>
        <time>2026-07-12T10:54:35.000Z</time>
      </trkpt>
      <trkpt lat="46.33201" lon="14.16045">
        <ele>510.565647</ele>
        <time>2026-07-12T10:54:36.000Z</time>
      </trkpt>
      <trkpt lat="46.33205" lon="14.16041">
        <ele>510.438684</ele>
        <time>2026-07-12T10:54:37.000Z</time>
      </trkpt>
      <trkpt lat="46.33213" lon="14.16034">
        <ele>510.177401</ele>
        <time>2026-07-12T10:54:39.000Z</time>
      </trkpt>
      <trkpt lat="46.33218" lon="14.1603">
        <ele>510.042832</ele>
        <time>2026-07-12T10:54:40.000Z</time>
      </trkpt>
      <trkpt lat="46.33223" lon="14.16026">
        <ele>509.896587</ele>
        <time>2026-07-12T10:54:41.000Z</time>
      </trkpt>
      <trkpt lat="46.33227" lon="14.16021">
        <ele>509.742912</ele>
        <time>2026-07-12T10:54:42.000Z</time>
      </trkpt>
      <trkpt lat="46.33243" lon="14.16007">
        <ele>509.256517</ele>
        <time>2026-07-12T10:54:45.000Z</time>
      </trkpt>
      <trkpt lat="46.33251" lon="14.15989">
        <ele>508.87169</ele>
        <time>2026-07-12T10:54:47.000Z</time>
      </trkpt>
      <trkpt lat="46.33254" lon="14.15979">
        <ele>508.677738</ele>
        <time>2026-07-12T10:54:48.000Z</time>
      </trkpt>
      <trkpt lat="46.33258" lon="14.15958">
        <ele>508.274025</ele>
        <time>2026-07-12T10:54:50.000Z</time>
      </trkpt>
      <trkpt lat="46.3326" lon="14.15936">
        <ele>507.869652</ele>
        <time>2026-07-12T10:54:52.000Z</time>
      </trkpt>
      <trkpt lat="46.33263" lon="14.15906">
        <ele>507.327234</ele>
        <time>2026-07-12T10:54:55.000Z</time>
      </trkpt>
      <trkpt lat="46.33266" lon="14.15889">
        <ele>507.012661</ele>
        <time>2026-07-12T10:54:57.000Z</time>
      </trkpt>
      <trkpt lat="46.33273" lon="14.1586">
        <ele>506.558546</ele>
        <time>2026-07-12T10:55:01.000Z</time>
      </trkpt>
      <trkpt lat="46.33279" lon="14.15845">
        <ele>506.353556</ele>
        <time>2026-07-12T10:55:03.000Z</time>
      </trkpt>
      <trkpt lat="46.33288" lon="14.15831">
        <ele>506.138989</ele>
        <time>2026-07-12T10:55:05.000Z</time>
      </trkpt>
      <trkpt lat="46.33298" lon="14.1582">
        <ele>505.922392</ele>
        <time>2026-07-12T10:55:07.000Z</time>
      </trkpt>
      <trkpt lat="46.33319" lon="14.15797">
        <ele>505.474087</ele>
        <time>2026-07-12T10:55:11.000Z</time>
      </trkpt>
      <trkpt lat="46.33328" lon="14.15782">
        <ele>505.240727</ele>
        <time>2026-07-12T10:55:13.000Z</time>
      </trkpt>
      <trkpt lat="46.33353" lon="14.15748">
        <ele>504.655909</ele>
        <time>2026-07-12T10:55:18.000Z</time>
      </trkpt>
      <trkpt lat="46.33363" lon="14.15735">
        <ele>504.427488</ele>
        <time>2026-07-12T10:55:20.000Z</time>
      </trkpt>
      <trkpt lat="46.33385" lon="14.15705">
        <ele>503.905248</ele>
        <time>2026-07-12T10:55:25.000Z</time>
      </trkpt>
      <trkpt lat="46.33391" lon="14.15696">
        <ele>503.75841</ele>
        <time>2026-07-12T10:55:27.000Z</time>
      </trkpt>
      <trkpt lat="46.33397" lon="14.15693">
        <ele>503.822141</ele>
        <time>2026-07-12T10:55:29.000Z</time>
      </trkpt>
      <trkpt lat="46.33402" lon="14.15692">
        <ele>504.006885</ele>
        <time>2026-07-12T10:55:31.000Z</time>
      </trkpt>
      <trkpt lat="46.33405" lon="14.15693">
        <ele>504.112132</ele>
        <time>2026-07-12T10:55:33.000Z</time>
      </trkpt>
      <trkpt lat="46.33405" lon="14.15693">
        <ele>504.112132</ele>
        <time>2026-07-12T10:55:35.000Z</time>
      </trkpt>
      <trkpt lat="46.33408" lon="14.15699">
        <ele>504.279332</ele>
        <time>2026-07-12T10:55:57.000Z</time>
      </trkpt>
      <trkpt lat="46.3341" lon="14.15702">
        <ele>504.371765</ele>
        <time>2026-07-12T10:55:58.000Z</time>
      </trkpt>
      <trkpt lat="46.33419" lon="14.15718">
        <ele>504.855763</ele>
        <time>2026-07-12T10:56:03.000Z</time>
      </trkpt>
      <trkpt lat="46.33436" lon="14.15747">
        <ele>505.738242</ele>
        <time>2026-07-12T10:56:11.000Z</time>
      </trkpt>
      <trkpt lat="46.33454" lon="14.15781">
        <ele>506.756561</ele>
        <time>2026-07-12T10:56:20.000Z</time>
      </trkpt>
      <trkpt lat="46.33467" lon="14.15806">
        <ele>507.48916</ele>
        <time>2026-07-12T10:56:28.000Z</time>
      </trkpt>
      <trkpt lat="46.33483" lon="14.15831">
        <ele>508.273663</ele>
        <time>2026-07-12T10:56:37.000Z</time>
      </trkpt>
      <trkpt lat="46.33496" lon="14.15843">
        <ele>508.787131</ele>
        <time>2026-07-12T10:56:43.000Z</time>
      </trkpt>
      <trkpt lat="46.33509" lon="14.15836">
        <ele>509.272926</ele>
        <time>2026-07-12T10:56:48.000Z</time>
      </trkpt>
      <trkpt lat="46.33517" lon="14.15821">
        <ele>509.698705</ele>
        <time>2026-07-12T10:56:52.000Z</time>
      </trkpt>
      <trkpt lat="46.33524" lon="14.15814">
        <ele>509.831532</ele>
        <time>2026-07-12T10:56:55.000Z</time>
      </trkpt>
      <trkpt lat="46.33543" lon="14.15807">
        <ele>509.965746</ele>
        <time>2026-07-12T10:57:02.000Z</time>
      </trkpt>
      <trkpt lat="46.33558" lon="14.15808">
        <ele>510.067747</ele>
        <time>2026-07-12T10:57:07.000Z</time>
      </trkpt>
      <trkpt lat="46.33566" lon="14.15807">
        <ele>510.121436</ele>
        <time>2026-07-12T10:57:10.000Z</time>
      </trkpt>
      <trkpt lat="46.33582" lon="14.15803">
        <ele>510.227572</ele>
        <time>2026-07-12T10:57:15.000Z</time>
      </trkpt>
      <trkpt lat="46.33587" lon="14.15803">
        <ele>510.265786</ele>
        <time>2026-07-12T10:57:16.000Z</time>
      </trkpt>
      <trkpt lat="46.33607" lon="14.15807">
        <ele>510.397596</ele>
        <time>2026-07-12T10:57:19.000Z</time>
      </trkpt>
      <trkpt lat="46.3365" lon="14.15821">
        <ele>510.692533</ele>
        <time>2026-07-12T10:57:25.000Z</time>
      </trkpt>
      <trkpt lat="46.33694" lon="14.15841">
        <ele>510.924995</ele>
        <time>2026-07-12T10:57:30.000Z</time>
      </trkpt>
      <trkpt lat="46.33715" lon="14.15851">
        <ele>509.331602</ele>
        <time>2026-07-12T10:57:32.000Z</time>
      </trkpt>
      <trkpt lat="46.33736" lon="14.15864">
        <ele>507.59891</ele>
        <time>2026-07-12T10:57:34.000Z</time>
      </trkpt>
      <trkpt lat="46.33747" lon="14.1587">
        <ele>506.730865</ele>
        <time>2026-07-12T10:57:35.000Z</time>
      </trkpt>
      <trkpt lat="46.33781" lon="14.1588">
        <ele>504.127657</ele>
        <time>2026-07-12T10:57:38.000Z</time>
      </trkpt>
      <trkpt lat="46.3383" lon="14.15882">
        <ele>500.53875</ele>
        <time>2026-07-12T10:57:43.000Z</time>
      </trkpt>
      <trkpt lat="46.33847" lon="14.15875">
        <ele>499.214307</ele>
        <time>2026-07-12T10:57:45.000Z</time>
      </trkpt>
      <trkpt lat="46.33854" lon="14.1587">
        <ele>498.612006</ele>
        <time>2026-07-12T10:57:46.000Z</time>
      </trkpt>
      <trkpt lat="46.33874" lon="14.1585">
        <ele>496.615126</ele>
        <time>2026-07-12T10:57:49.000Z</time>
      </trkpt>
      <trkpt lat="46.33887" lon="14.15835">
        <ele>495.207766</ele>
        <time>2026-07-12T10:57:51.000Z</time>
      </trkpt>
      <trkpt lat="46.33892" lon="14.15827">
        <ele>494.503049</ele>
        <time>2026-07-12T10:57:52.000Z</time>
      </trkpt>
      <trkpt lat="46.33904" lon="14.15804">
        <ele>492.757802</ele>
        <time>2026-07-12T10:57:55.000Z</time>
      </trkpt>
      <trkpt lat="46.33907" lon="14.15795">
        <ele>492.163626</ele>
        <time>2026-07-12T10:57:56.000Z</time>
      </trkpt>
      <trkpt lat="46.33925" lon="14.15766">
        <ele>489.752288</ele>
        <time>2026-07-12T10:58:02.000Z</time>
      </trkpt>
      <trkpt lat="46.33928" lon="14.15764">
        <ele>489.479769</ele>
        <time>2026-07-12T10:58:04.000Z</time>
      </trkpt>
      <trkpt lat="46.33928" lon="14.15764">
        <ele>489.443683</ele>
        <time>2026-07-12T10:58:05.000Z</time>
      </trkpt>
      <trkpt lat="46.33928" lon="14.15764">
        <ele>489.443683</ele>
        <time>2026-07-12T10:58:06.000Z</time>
      </trkpt>
      <trkpt lat="46.33931" lon="14.15775">
        <ele>488.683694</ele>
        <time>2026-07-12T11:00:06.000Z</time>
      </trkpt>
      <trkpt lat="46.33933" lon="14.15779">
        <ele>488.425904</ele>
        <time>2026-07-12T11:00:07.000Z</time>
      </trkpt>
      <trkpt lat="46.33947" lon="14.15807">
        <ele>486.312206</ele>
        <time>2026-07-12T11:00:13.000Z</time>
      </trkpt>
      <trkpt lat="46.33969" lon="14.15833">
        <ele>483.785681</ele>
        <time>2026-07-12T11:00:18.000Z</time>
      </trkpt>
      <trkpt lat="46.33983" lon="14.1585">
        <ele>482.15758</ele>
        <time>2026-07-12T11:00:21.000Z</time>
      </trkpt>
      <trkpt lat="46.33993" lon="14.15869">
        <ele>480.127737</ele>
        <time>2026-07-12T11:00:24.000Z</time>
      </trkpt>
      <trkpt lat="46.33996" lon="14.15884">
        <ele>478.728281</ele>
        <time>2026-07-12T11:00:26.000Z</time>
      </trkpt>
      <trkpt lat="46.33995" lon="14.15901">
        <ele>477.156857</ele>
        <time>2026-07-12T11:00:28.000Z</time>
      </trkpt>
      <trkpt lat="46.33991" lon="14.1592">
        <ele>475.225659</ele>
        <time>2026-07-12T11:00:31.000Z</time>
      </trkpt>
      <trkpt lat="46.3399" lon="14.15923">
        <ele>474.986892</ele>
        <time>2026-07-12T11:00:32.000Z</time>
      </trkpt>
      <trkpt lat="46.3399" lon="14.15924">
        <ele>474.91125</ele>
        <time>2026-07-12T11:00:34.000Z</time>
      </trkpt>
      <trkpt lat="46.33988" lon="14.15932">
        <ele>474.128368</ele>
        <time>2026-07-12T11:00:46.000Z</time>
      </trkpt>
      <trkpt lat="46.33986" lon="14.15944">
        <ele>472.904811</ele>
        <time>2026-07-12T11:00:48.000Z</time>
      </trkpt>
      <trkpt lat="46.33984" lon="14.15953">
        <ele>472.069295</ele>
        <time>2026-07-12T11:00:49.000Z</time>
      </trkpt>
      <trkpt lat="46.33974" lon="14.15984">
        <ele>468.887041</ele>
        <time>2026-07-12T11:00:52.000Z</time>
      </trkpt>
      <trkpt lat="46.33948" lon="14.16054">
        <ele>461.425057</ele>
        <time>2026-07-12T11:00:59.000Z</time>
      </trkpt>
      <trkpt lat="46.33934" lon="14.16104">
        <ele>456.308888</ele>
        <time>2026-07-12T11:01:04.000Z</time>
      </trkpt>
      <trkpt lat="46.33924" lon="14.16137">
        <ele>452.399514</ele>
        <time>2026-07-12T11:01:08.000Z</time>
      </trkpt>
      <trkpt lat="46.33925" lon="14.16145">
        <ele>451.609592</ele>
        <time>2026-07-12T11:01:09.000Z</time>
      </trkpt>
      <trkpt lat="46.33928" lon="14.1615">
        <ele>450.836639</ele>
        <time>2026-07-12T11:01:10.000Z</time>
      </trkpt>
      <trkpt lat="46.33938" lon="14.16159">
        <ele>448.927507</ele>
        <time>2026-07-12T11:01:12.000Z</time>
      </trkpt>
      <trkpt lat="46.3396" lon="14.1616">
        <ele>445.609735</ele>
        <time>2026-07-12T11:01:15.000Z</time>
      </trkpt>
      <trkpt lat="46.34001" lon="14.16151">
        <ele>439.182472</ele>
        <time>2026-07-12T11:01:21.000Z</time>
      </trkpt>
      <trkpt lat="46.34012" lon="14.16157">
        <ele>437.44721</ele>
        <time>2026-07-12T11:01:24.000Z</time>
      </trkpt>
      <trkpt lat="46.34016" lon="14.1617">
        <ele>435.906745</ele>
        <time>2026-07-12T11:01:26.000Z</time>
      </trkpt>
      <trkpt lat="46.34018" lon="14.16178">
        <ele>434.982575</ele>
        <time>2026-07-12T11:01:27.000Z</time>
      </trkpt>
      <trkpt lat="46.34018" lon="14.16187">
        <ele>434.10692</ele>
        <time>2026-07-12T11:01:28.000Z</time>
      </trkpt>
      <trkpt lat="46.34018" lon="14.16209">
        <ele>431.73129</ele>
        <time>2026-07-12T11:01:31.000Z</time>
      </trkpt>
      <trkpt lat="46.34023" lon="14.16219">
        <ele>430.416117</ele>
        <time>2026-07-12T11:01:33.000Z</time>
      </trkpt>
      <trkpt lat="46.34027" lon="14.16221">
        <ele>429.743252</ele>
        <time>2026-07-12T11:01:34.000Z</time>
      </trkpt>
      <trkpt lat="46.34032" lon="14.1622">
        <ele>429.582353</ele>
        <time>2026-07-12T11:01:35.000Z</time>
      </trkpt>
      <trkpt lat="46.34041" lon="14.16213">
        <ele>429.24143</ele>
        <time>2026-07-12T11:01:37.000Z</time>
      </trkpt>
      <trkpt lat="46.34058" lon="14.16201">
        <ele>428.608736</ele>
        <time>2026-07-12T11:01:41.000Z</time>
      </trkpt>
      <trkpt lat="46.34064" lon="14.16198">
        <ele>428.380901</ele>
        <time>2026-07-12T11:01:43.000Z</time>
      </trkpt>
      <trkpt lat="46.34069" lon="14.16193">
        <ele>428.194261</ele>
        <time>2026-07-12T11:01:47.000Z</time>
      </trkpt>
      <trkpt lat="46.34069" lon="14.16193">
        <ele>428.194261</ele>
        <time>2026-07-12T11:01:48.000Z</time>
      </trkpt>
      <trkpt lat="46.34072" lon="14.16176">
        <ele>427.791867</ele>
        <time>2026-07-12T11:02:21.000Z</time>
      </trkpt>
      <trkpt lat="46.34074" lon="14.1617">
        <ele>427.636168</ele>
        <time>2026-07-12T11:02:22.000Z</time>
      </trkpt>
      <trkpt lat="46.34082" lon="14.16145">
        <ele>427.002126</ele>
        <time>2026-07-12T11:02:27.000Z</time>
      </trkpt>
      <trkpt lat="46.34092" lon="14.16102">
        <ele>425.946185</ele>
        <time>2026-07-12T11:02:34.000Z</time>
      </trkpt>
      <trkpt lat="46.34094" lon="14.16096">
        <ele>425.797886</ele>
        <time>2026-07-12T11:02:35.000Z</time>
      </trkpt>
      <trkpt lat="46.34096" lon="14.16084">
        <ele>425.500392</ele>
        <time>2026-07-12T11:02:37.000Z</time>
      </trkpt>
      <trkpt lat="46.34098" lon="14.16077">
        <ele>425.347486</ele>
        <time>2026-07-12T11:02:38.000Z</time>
      </trkpt>
      <trkpt lat="46.34101" lon="14.16065">
        <ele>425.042266</ele>
        <time>2026-07-12T11:02:40.000Z</time>
      </trkpt>
      <trkpt lat="46.34118" lon="14.16004">
        <ele>423.677864</ele>
        <time>2026-07-12T11:02:51.000Z</time>
      </trkpt>
      <trkpt lat="46.34127" lon="14.1597">
        <ele>423.493405</ele>
        <time>2026-07-12T11:02:57.000Z</time>
      </trkpt>
      <trkpt lat="46.34131" lon="14.15958">
        <ele>423.430428</ele>
        <time>2026-07-12T11:02:59.000Z</time>
      </trkpt>
      <trkpt lat="46.34145" lon="14.15905">
        <ele>423.142828</ele>
        <time>2026-07-12T11:03:08.000Z</time>
      </trkpt>
      <trkpt lat="46.34147" lon="14.15898">
        <ele>423.105441</ele>
        <time>2026-07-12T11:03:09.000Z</time>
      </trkpt>
      <trkpt lat="46.34149" lon="14.15877">
        <ele>423.00122</ele>
        <time>2026-07-12T11:03:13.000Z</time>
      </trkpt>
      <trkpt lat="46.34154" lon="14.15834">
        <ele>422.781293</ele>
        <time>2026-07-12T11:03:21.000Z</time>
      </trkpt>
      <trkpt lat="46.34155" lon="14.15829">
        <ele>422.752926</ele>
        <time>2026-07-12T11:03:22.000Z</time>
      </trkpt>
      <trkpt lat="46.34158" lon="14.15784">
        <ele>422.527173</ele>
        <time>2026-07-12T11:03:30.000Z</time>
      </trkpt>
      <trkpt lat="46.34163" lon="14.15744">
        <ele>422.671148</ele>
        <time>2026-07-12T11:03:37.000Z</time>
      </trkpt>
      <trkpt lat="46.34165" lon="14.15709">
        <ele>423.188163</ele>
        <time>2026-07-12T11:03:43.000Z</time>
      </trkpt>
      <trkpt lat="46.34166" lon="14.15703">
        <ele>423.279733</ele>
        <time>2026-07-12T11:03:44.000Z</time>
      </trkpt>
      <trkpt lat="46.34168" lon="14.15673">
        <ele>423.730218</ele>
        <time>2026-07-12T11:03:49.000Z</time>
      </trkpt>
      <trkpt lat="46.34167" lon="14.15661">
        <ele>423.916185</ele>
        <time>2026-07-12T11:03:51.000Z</time>
      </trkpt>
      <trkpt lat="46.34167" lon="14.15648">
        <ele>424.104938</ele>
        <time>2026-07-12T11:03:53.000Z</time>
      </trkpt>
      <trkpt lat="46.34169" lon="14.15606">
        <ele>424.731437</ele>
        <time>2026-07-12T11:03:59.000Z</time>
      </trkpt>
      <trkpt lat="46.34169" lon="14.15599">
        <ele>424.83398</ele>
        <time>2026-07-12T11:04:00.000Z</time>
      </trkpt>
      <trkpt lat="46.34167" lon="14.15561">
        <ele>425.404033</ele>
        <time>2026-07-12T11:04:06.000Z</time>
      </trkpt>
      <trkpt lat="46.34161" lon="14.15509">
        <ele>426.177365</ele>
        <time>2026-07-12T11:04:14.000Z</time>
      </trkpt>
      <trkpt lat="46.3416" lon="14.15492">
        <ele>426.432656</ele>
        <time>2026-07-12T11:04:17.000Z</time>
      </trkpt>
      <trkpt lat="46.34158" lon="14.15475">
        <ele>426.686601</ele>
        <time>2026-07-12T11:04:20.000Z</time>
      </trkpt>
      <trkpt lat="46.34149" lon="14.15453">
        <ele>427.047597</ele>
        <time>2026-07-12T11:04:25.000Z</time>
      </trkpt>
      <trkpt lat="46.34134" lon="14.15417">
        <ele>427.670291</ele>
        <time>2026-07-12T11:04:33.000Z</time>
      </trkpt>
      <trkpt lat="46.34115" lon="14.15376">
        <ele>428.390146</ele>
        <time>2026-07-12T11:04:41.000Z</time>
      </trkpt>
      <trkpt lat="46.34108" lon="14.15359">
        <ele>428.674265</ele>
        <time>2026-07-12T11:04:44.000Z</time>
      </trkpt>
      <trkpt lat="46.34095" lon="14.15335">
        <ele>429.132593</ele>
        <time>2026-07-12T11:04:48.000Z</time>
      </trkpt>
      <trkpt lat="46.34089" lon="14.15323">
        <ele>429.339053</ele>
        <time>2026-07-12T11:04:50.000Z</time>
      </trkpt>
      <trkpt lat="46.34083" lon="14.15302">
        <ele>429.672296</ele>
        <time>2026-07-12T11:04:53.000Z</time>
      </trkpt>
      <trkpt lat="46.34066" lon="14.15249">
        <ele>429.758853</ele>
        <time>2026-07-12T11:05:00.000Z</time>
      </trkpt>
      <trkpt lat="46.34054" lon="14.152">
        <ele>429.20405</ele>
        <time>2026-07-12T11:05:06.000Z</time>
      </trkpt>
      <trkpt lat="46.34048" lon="14.15157">
        <ele>428.732811</ele>
        <time>2026-07-12T11:05:12.000Z</time>
      </trkpt>
      <trkpt lat="46.34041" lon="14.15118">
        <ele>428.308186</ele>
        <time>2026-07-12T11:05:17.000Z</time>
      </trkpt>
      <trkpt lat="46.3404" lon="14.1511">
        <ele>428.222485</ele>
        <time>2026-07-12T11:05:18.000Z</time>
      </trkpt>
      <trkpt lat="46.34039" lon="14.15083">
        <ele>427.928905</ele>
        <time>2026-07-12T11:05:21.000Z</time>
      </trkpt>
      <trkpt lat="46.3404" lon="14.15074">
        <ele>427.837368</ele>
        <time>2026-07-12T11:05:22.000Z</time>
      </trkpt>
      <trkpt lat="46.34046" lon="14.15035">
        <ele>427.408255</ele>
        <time>2026-07-12T11:05:27.000Z</time>
      </trkpt>
      <trkpt lat="46.34048" lon="14.15019">
        <ele>427.349689</ele>
        <time>2026-07-12T11:05:29.000Z</time>
      </trkpt>
      <trkpt lat="46.34051" lon="14.14982">
        <ele>427.624572</ele>
        <time>2026-07-12T11:05:33.000Z</time>
      </trkpt>
      <trkpt lat="46.34062" lon="14.14938">
        <ele>427.968155</ele>
        <time>2026-07-12T11:05:39.000Z</time>
      </trkpt>
      <trkpt lat="46.34066" lon="14.14926">
        <ele>428.071188</ele>
        <time>2026-07-12T11:05:41.000Z</time>
      </trkpt>
      <trkpt lat="46.34074" lon="14.14907">
        <ele>428.23693</ele>
        <time>2026-07-12T11:05:44.000Z</time>
      </trkpt>
      <trkpt lat="46.34086" lon="14.14882">
        <ele>428.456825</ele>
        <time>2026-07-12T11:05:48.000Z</time>
      </trkpt>
      <trkpt lat="46.34089" lon="14.14876">
        <ele>428.512888</ele>
        <time>2026-07-12T11:05:49.000Z</time>
      </trkpt>
      <trkpt lat="46.34092" lon="14.14871">
        <ele>428.56845</ele>
        <time>2026-07-12T11:05:50.000Z</time>
      </trkpt>
      <trkpt lat="46.34102" lon="14.1486">
        <ele>428.697419</ele>
        <time>2026-07-12T11:05:52.000Z</time>
      </trkpt>
      <trkpt lat="46.34105" lon="14.14854">
        <ele>428.753662</ele>
        <time>2026-07-12T11:05:53.000Z</time>
      </trkpt>
      <trkpt lat="46.34109" lon="14.14841">
        <ele>428.861992</ele>
        <time>2026-07-12T11:05:55.000Z</time>
      </trkpt>
      <trkpt lat="46.34117" lon="14.14821">
        <ele>429.029942</ele>
        <time>2026-07-12T11:05:58.000Z</time>
      </trkpt>
      <trkpt lat="46.34124" lon="14.14809">
        <ele>429.147247</ele>
        <time>2026-07-12T11:06:00.000Z</time>
      </trkpt>
      <trkpt lat="46.34131" lon="14.14797">
        <ele>429.197165</ele>
        <time>2026-07-12T11:06:02.000Z</time>
      </trkpt>
      <trkpt lat="46.34142" lon="14.14784">
        <ele>429.04461</ele>
        <time>2026-07-12T11:06:05.000Z</time>
      </trkpt>
      <trkpt lat="46.34151" lon="14.1477">
        <ele>428.905323</ele>
        <time>2026-07-12T11:06:08.000Z</time>
      </trkpt>
      <trkpt lat="46.34155" lon="14.14765">
        <ele>428.855619</ele>
        <time>2026-07-12T11:06:09.000Z</time>
      </trkpt>
      <trkpt lat="46.34166" lon="14.14743">
        <ele>428.659524</ele>
        <time>2026-07-12T11:06:13.000Z</time>
      </trkpt>
      <trkpt lat="46.34174" lon="14.14717">
        <ele>428.453243</ele>
        <time>2026-07-12T11:06:17.000Z</time>
      </trkpt>
      <trkpt lat="46.34174" lon="14.14701">
        <ele>428.339055</ele>
        <time>2026-07-12T11:06:19.000Z</time>
      </trkpt>
      <trkpt lat="46.34175" lon="14.14685">
        <ele>428.224242</ele>
        <time>2026-07-12T11:06:21.000Z</time>
      </trkpt>
      <trkpt lat="46.34175" lon="14.14661">
        <ele>428.050282</ele>
        <time>2026-07-12T11:06:24.000Z</time>
      </trkpt>
      <trkpt lat="46.34173" lon="14.14636">
        <ele>427.870334</ele>
        <time>2026-07-12T11:06:27.000Z</time>
      </trkpt>
      <trkpt lat="46.34172" lon="14.14607">
        <ele>427.661525</ele>
        <time>2026-07-12T11:06:31.000Z</time>
      </trkpt>
      <trkpt lat="46.34174" lon="14.14576">
        <ele>427.432083</ele>
        <time>2026-07-12T11:06:36.000Z</time>
      </trkpt>
      <trkpt lat="46.34175" lon="14.14525">
        <ele>427.239731</ele>
        <time>2026-07-12T11:06:43.000Z</time>
      </trkpt>
      <trkpt lat="46.34177" lon="14.14504">
        <ele>427.180445</ele>
        <time>2026-07-12T11:06:46.000Z</time>
      </trkpt>
      <trkpt lat="46.34182" lon="14.14484">
        <ele>427.121199</ele>
        <time>2026-07-12T11:06:49.000Z</time>
      </trkpt>
      <trkpt lat="46.34183" lon="14.14477">
        <ele>427.101116</ele>
        <time>2026-07-12T11:06:50.000Z</time>
      </trkpt>
      <trkpt lat="46.34183" lon="14.1447">
        <ele>427.081012</ele>
        <time>2026-07-12T11:06:51.000Z</time>
      </trkpt>
      <trkpt lat="46.3418" lon="14.14442">
        <ele>427.001781</ele>
        <time>2026-07-12T11:06:55.000Z</time>
      </trkpt>
      <trkpt lat="46.34174" lon="14.14421">
        <ele>426.938745</ele>
        <time>2026-07-12T11:06:58.000Z</time>
      </trkpt>
      <trkpt lat="46.34173" lon="14.14406">
        <ele>426.897546</ele>
        <time>2026-07-12T11:07:00.000Z</time>
      </trkpt>
      <trkpt lat="46.34174" lon="14.14391">
        <ele>426.853906</ele>
        <time>2026-07-12T11:07:02.000Z</time>
      </trkpt>
      <trkpt lat="46.34176" lon="14.14375">
        <ele>426.810316</ele>
        <time>2026-07-12T11:07:04.000Z</time>
      </trkpt>
      <trkpt lat="46.34176" lon="14.14367">
        <ele>426.786583</ele>
        <time>2026-07-12T11:07:05.000Z</time>
      </trkpt>
      <trkpt lat="46.34177" lon="14.14352">
        <ele>426.746736</ele>
        <time>2026-07-12T11:07:07.000Z</time>
      </trkpt>
      <trkpt lat="46.34181" lon="14.14326">
        <ele>426.671553</ele>
        <time>2026-07-12T11:07:11.000Z</time>
      </trkpt>
      <trkpt lat="46.34185" lon="14.14274">
        <ele>426.45273</ele>
        <time>2026-07-12T11:07:18.000Z</time>
      </trkpt>
      <trkpt lat="46.34188" lon="14.14233">
        <ele>426.250371</ele>
        <time>2026-07-12T11:07:23.000Z</time>
      </trkpt>
      <trkpt lat="46.34188" lon="14.14225">
        <ele>426.208953</ele>
        <time>2026-07-12T11:07:24.000Z</time>
      </trkpt>
      <trkpt lat="46.34189" lon="14.14202">
        <ele>426.097599</ele>
        <time>2026-07-12T11:07:27.000Z</time>
      </trkpt>
      <trkpt lat="46.3419" lon="14.14183">
        <ele>426.002618</ele>
        <time>2026-07-12T11:07:30.000Z</time>
      </trkpt>
      <trkpt lat="46.34192" lon="14.14148">
        <ele>425.832481</ele>
        <time>2026-07-12T11:07:35.000Z</time>
      </trkpt>
      <trkpt lat="46.34193" lon="14.14132">
        <ele>425.754726</ele>
        <time>2026-07-12T11:07:37.000Z</time>
      </trkpt>
      <trkpt lat="46.34193" lon="14.14124">
        <ele>425.715464</ele>
        <time>2026-07-12T11:07:38.000Z</time>
      </trkpt>
      <trkpt lat="46.34196" lon="14.14102">
        <ele>425.603456</ele>
        <time>2026-07-12T11:07:41.000Z</time>
      </trkpt>
      <trkpt lat="46.34198" lon="14.1409">
        <ele>425.543864</ele>
        <time>2026-07-12T11:07:43.000Z</time>
      </trkpt>
      <trkpt lat="46.34198" lon="14.14087">
        <ele>425.527173</ele>
        <time>2026-07-12T11:07:45.000Z</time>
      </trkpt>
      <trkpt lat="46.34198" lon="14.14087">
        <ele>425.527173</ele>
        <time>2026-07-12T11:07:47.000Z</time>
      </trkpt>
      <trkpt lat="46.34202" lon="14.14092">
        <ele>425.490706</ele>
        <time>2026-07-12T11:08:58.000Z</time>
      </trkpt>
      <trkpt lat="46.34202" lon="14.14088">
        <ele>425.469515</ele>
        <time>2026-07-12T11:08:59.000Z</time>
      </trkpt>
      <trkpt lat="46.34206" lon="14.14062">
        <ele>425.345922</ele>
        <time>2026-07-12T11:09:05.000Z</time>
      </trkpt>
      <trkpt lat="46.34206" lon="14.14057">
        <ele>425.351966</ele>
        <time>2026-07-12T11:09:06.000Z</time>
      </trkpt>
      <trkpt lat="46.34206" lon="14.14048">
        <ele>425.36273</ele>
        <time>2026-07-12T11:09:08.000Z</time>
      </trkpt>
      <trkpt lat="46.34204" lon="14.14027">
        <ele>425.389006</ele>
        <time>2026-07-12T11:09:12.000Z</time>
      </trkpt>
      <trkpt lat="46.34202" lon="14.14012">
        <ele>425.408781</ele>
        <time>2026-07-12T11:09:15.000Z</time>
      </trkpt>
      <trkpt lat="46.34202" lon="14.14003">
        <ele>425.420286</ele>
        <time>2026-07-12T11:09:17.000Z</time>
      </trkpt>
      <trkpt lat="46.34203" lon="14.13998">
        <ele>425.426297</ele>
        <time>2026-07-12T11:09:18.000Z</time>
      </trkpt>
      <trkpt lat="46.34203" lon="14.13982">
        <ele>425.446711</ele>
        <time>2026-07-12T11:09:21.000Z</time>
      </trkpt>
      <trkpt lat="46.34205" lon="14.1396">
        <ele>425.474134</ele>
        <time>2026-07-12T11:09:25.000Z</time>
      </trkpt>
      <trkpt lat="46.34205" lon="14.13949">
        <ele>425.487385</ele>
        <time>2026-07-12T11:09:27.000Z</time>
      </trkpt>
      <trkpt lat="46.34203" lon="14.13933">
        <ele>425.508295</ele>
        <time>2026-07-12T11:09:30.000Z</time>
      </trkpt>
      <trkpt lat="46.342" lon="14.13921">
        <ele>425.524842</ele>
        <time>2026-07-12T11:09:32.000Z</time>
      </trkpt>
      <trkpt lat="46.34192" lon="14.13874">
        <ele>425.585318</ele>
        <time>2026-07-12T11:09:40.000Z</time>
      </trkpt>
      <trkpt lat="46.34192" lon="14.13832">
        <ele>425.637197</ele>
        <time>2026-07-12T11:09:47.000Z</time>
      </trkpt>
      <trkpt lat="46.34194" lon="14.13821">
        <ele>425.651873</ele>
        <time>2026-07-12T11:09:49.000Z</time>
      </trkpt>
      <trkpt lat="46.34197" lon="14.13799">
        <ele>425.579532</ele>
        <time>2026-07-12T11:09:53.000Z</time>
      </trkpt>
      <trkpt lat="46.34197" lon="14.13783">
        <ele>425.379929</ele>
        <time>2026-07-12T11:09:56.000Z</time>
      </trkpt>
      <trkpt lat="46.34192" lon="14.13753">
        <ele>424.988919</ele>
        <time>2026-07-12T11:10:01.000Z</time>
      </trkpt>
      <trkpt lat="46.34192" lon="14.13745">
        <ele>424.895512</ele>
        <time>2026-07-12T11:10:02.000Z</time>
      </trkpt>
      <trkpt lat="46.34189" lon="14.137">
        <ele>424.326582</ele>
        <time>2026-07-12T11:10:09.000Z</time>
      </trkpt>
      <trkpt lat="46.34189" lon="14.13694">
        <ele>424.254383</ele>
        <time>2026-07-12T11:10:10.000Z</time>
      </trkpt>
      <trkpt lat="46.34187" lon="14.13683">
        <ele>424.109763</ele>
        <time>2026-07-12T11:10:12.000Z</time>
      </trkpt>
      <trkpt lat="46.34183" lon="14.13671">
        <ele>423.957185</ele>
        <time>2026-07-12T11:10:14.000Z</time>
      </trkpt>
      <trkpt lat="46.34179" lon="14.13661">
        <ele>423.806229</ele>
        <time>2026-07-12T11:10:16.000Z</time>
      </trkpt>
      <trkpt lat="46.3417" lon="14.13646">
        <ele>423.552488</ele>
        <time>2026-07-12T11:10:19.000Z</time>
      </trkpt>
      <trkpt lat="46.34165" lon="14.13636">
        <ele>423.39543</ele>
        <time>2026-07-12T11:10:21.000Z</time>
      </trkpt>
      <trkpt lat="46.34157" lon="14.13616">
        <ele>423.115283</ele>
        <time>2026-07-12T11:10:25.000Z</time>
      </trkpt>
      <trkpt lat="46.34155" lon="14.1361">
        <ele>423.034432</ele>
        <time>2026-07-12T11:10:26.000Z</time>
      </trkpt>
      <trkpt lat="46.34153" lon="14.13571">
        <ele>422.540993</ele>
        <time>2026-07-12T11:10:32.000Z</time>
      </trkpt>
      <trkpt lat="46.34157" lon="14.13522">
        <ele>422.332354</ele>
        <time>2026-07-12T11:10:38.000Z</time>
      </trkpt>
      <trkpt lat="46.34155" lon="14.13507">
        <ele>422.299502</ele>
        <time>2026-07-12T11:10:40.000Z</time>
      </trkpt>
      <trkpt lat="46.34151" lon="14.13488">
        <ele>422.252882</ele>
        <time>2026-07-12T11:10:43.000Z</time>
      </trkpt>
      <trkpt lat="46.34149" lon="14.13482">
        <ele>422.239152</ele>
        <time>2026-07-12T11:10:44.000Z</time>
      </trkpt>
      <trkpt lat="46.34141" lon="14.13463">
        <ele>422.189864</ele>
        <time>2026-07-12T11:10:48.000Z</time>
      </trkpt>
      <trkpt lat="46.34139" lon="14.13446">
        <ele>422.14984</ele>
        <time>2026-07-12T11:10:51.000Z</time>
      </trkpt>
      <trkpt lat="46.34139" lon="14.13439">
        <ele>422.135911</ele>
        <time>2026-07-12T11:10:52.000Z</time>
      </trkpt>
      <trkpt lat="46.34146" lon="14.13397">
        <ele>422.038167</ele>
        <time>2026-07-12T11:10:59.000Z</time>
      </trkpt>
      <trkpt lat="46.34149" lon="14.13379">
        <ele>421.997576</ele>
        <time>2026-07-12T11:11:02.000Z</time>
      </trkpt>
      <trkpt lat="46.34152" lon="14.13359">
        <ele>421.95141</ele>
        <time>2026-07-12T11:11:06.000Z</time>
      </trkpt>
      <trkpt lat="46.34154" lon="14.13321">
        <ele>421.865707</ele>
        <time>2026-07-12T11:11:12.000Z</time>
      </trkpt>
      <trkpt lat="46.34155" lon="14.13307">
        <ele>421.872125</ele>
        <time>2026-07-12T11:11:14.000Z</time>
      </trkpt>
      <trkpt lat="46.34159" lon="14.13288">
        <ele>422.386729</ele>
        <time>2026-07-12T11:11:17.000Z</time>
      </trkpt>
      <trkpt lat="46.3416" lon="14.13282">
        <ele>422.546169</ele>
        <time>2026-07-12T11:11:18.000Z</time>
      </trkpt>
      <trkpt lat="46.3416" lon="14.13269">
        <ele>422.907182</ele>
        <time>2026-07-12T11:11:20.000Z</time>
      </trkpt>
      <trkpt lat="46.3416" lon="14.13257">
        <ele>423.212042</ele>
        <time>2026-07-12T11:11:22.000Z</time>
      </trkpt>
      <trkpt lat="46.34161" lon="14.13245">
        <ele>423.522561</ele>
        <time>2026-07-12T11:11:24.000Z</time>
      </trkpt>
      <trkpt lat="46.34157" lon="14.13218">
        <ele>424.251347</ele>
        <time>2026-07-12T11:11:29.000Z</time>
      </trkpt>
      <trkpt lat="46.34159" lon="14.13192">
        <ele>424.940304</ele>
        <time>2026-07-12T11:11:34.000Z</time>
      </trkpt>
      <trkpt lat="46.3416" lon="14.13188">
        <ele>425.059899</ele>
        <time>2026-07-12T11:11:35.000Z</time>
      </trkpt>
      <trkpt lat="46.34163" lon="14.1318">
        <ele>425.302396</ele>
        <time>2026-07-12T11:11:37.000Z</time>
      </trkpt>
      <trkpt lat="46.34168" lon="14.13151">
        <ele>426.094724</ele>
        <time>2026-07-12T11:11:43.000Z</time>
      </trkpt>
      <trkpt lat="46.34166" lon="14.13125">
        <ele>426.806327</ele>
        <time>2026-07-12T11:11:48.000Z</time>
      </trkpt>
      <trkpt lat="46.34165" lon="14.13121">
        <ele>426.917847</ele>
        <time>2026-07-12T11:11:49.000Z</time>
      </trkpt>
      <trkpt lat="46.3416" lon="14.1309">
        <ele>427.769551</ele>
        <time>2026-07-12T11:11:56.000Z</time>
      </trkpt>
      <trkpt lat="46.34166" lon="14.13058">
        <ele>428.6385</ele>
        <time>2026-07-12T11:12:03.000Z</time>
      </trkpt>
      <trkpt lat="46.34172" lon="14.13043">
        <ele>428.879732</ele>
        <time>2026-07-12T11:12:06.000Z</time>
      </trkpt>
      <trkpt lat="46.34179" lon="14.13018">
        <ele>429.172424</ele>
        <time>2026-07-12T11:12:11.000Z</time>
      </trkpt>
      <trkpt lat="46.34192" lon="14.12994">
        <ele>429.488243</ele>
        <time>2026-07-12T11:12:16.000Z</time>
      </trkpt>
      <trkpt lat="46.34212" lon="14.12955">
        <ele>430.002415</ele>
        <time>2026-07-12T11:12:25.000Z</time>
      </trkpt>
      <trkpt lat="46.34228" lon="14.12924">
        <ele>430.409608</ele>
        <time>2026-07-12T11:12:33.000Z</time>
      </trkpt>
      <trkpt lat="46.34232" lon="14.12907">
        <ele>430.606412</ele>
        <time>2026-07-12T11:12:38.000Z</time>
      </trkpt>
      <trkpt lat="46.34236" lon="14.129">
        <ele>430.694401</ele>
        <time>2026-07-12T11:12:43.000Z</time>
      </trkpt>
      <trkpt lat="46.34237" lon="14.129">
        <ele>430.712824</ele>
        <time>2026-07-12T11:12:44.000Z</time>
      </trkpt>
      <trkpt lat="46.34248" lon="14.12892">
        <ele>430.902934</ele>
        <time>2026-07-12T11:12:48.000Z</time>
      </trkpt>
      <trkpt lat="46.34251" lon="14.12887">
        <ele>430.966909</ele>
        <time>2026-07-12T11:12:49.000Z</time>
      </trkpt>
      <trkpt lat="46.34264" lon="14.12868">
        <ele>431.259046</ele>
        <time>2026-07-12T11:12:53.000Z</time>
      </trkpt>
      <trkpt lat="46.34283" lon="14.12839">
        <ele>431.137566</ele>
        <time>2026-07-12T11:12:58.000Z</time>
      </trkpt>
      <trkpt lat="46.34287" lon="14.12832">
        <ele>430.966057</ele>
        <time>2026-07-12T11:12:59.000Z</time>
      </trkpt>
      <trkpt lat="46.34311" lon="14.12787">
        <ele>429.788455</ele>
        <time>2026-07-12T11:13:05.000Z</time>
      </trkpt>
      <trkpt lat="46.34315" lon="14.12777">
        <ele>429.562459</ele>
        <time>2026-07-12T11:13:06.000Z</time>
      </trkpt>
      <trkpt lat="46.34319" lon="14.12757">
        <ele>429.121228</ele>
        <time>2026-07-12T11:13:08.000Z</time>
      </trkpt>
      <trkpt lat="46.34326" lon="14.12699">
        <ele>427.895083</ele>
        <time>2026-07-12T11:13:14.000Z</time>
      </trkpt>
      <trkpt lat="46.3433" lon="14.12643">
        <ele>426.737827</ele>
        <time>2026-07-12T11:13:21.000Z</time>
      </trkpt>
      <trkpt lat="46.3433" lon="14.12602">
        <ele>426.193615</ele>
        <time>2026-07-12T11:13:27.000Z</time>
      </trkpt>
      <trkpt lat="46.34332" lon="14.12533">
        <ele>426.745503</ele>
        <time>2026-07-12T11:13:37.000Z</time>
      </trkpt>
      <trkpt lat="46.34332" lon="14.1252">
        <ele>426.84482</ele>
        <time>2026-07-12T11:13:39.000Z</time>
      </trkpt>
      <trkpt lat="46.34333" lon="14.12514">
        <ele>426.891602</ele>
        <time>2026-07-12T11:13:40.000Z</time>
      </trkpt>
      <trkpt lat="46.34336" lon="14.12504">
        <ele>426.979898</ele>
        <time>2026-07-12T11:13:42.000Z</time>
      </trkpt>
      <trkpt lat="46.34339" lon="14.125">
        <ele>427.02126</ele>
        <time>2026-07-12T11:13:43.000Z</time>
      </trkpt>
      <trkpt lat="46.34346" lon="14.12492">
        <ele>427.132202</ele>
        <time>2026-07-12T11:13:46.000Z</time>
      </trkpt>
      <trkpt lat="46.34359" lon="14.12485">
        <ele>427.293183</ele>
        <time>2026-07-12T11:13:51.000Z</time>
      </trkpt>
      <trkpt lat="46.3436" lon="14.12484">
        <ele>427.304941</ele>
        <time>2026-07-12T11:13:54.000Z</time>
      </trkpt>
      <trkpt lat="46.34366" lon="14.12485">
        <ele>427.369472</ele>
        <time>2026-07-12T11:14:39.000Z</time>
      </trkpt>
      <trkpt lat="46.34372" lon="14.12484">
        <ele>427.440127</ele>
        <time>2026-07-12T11:14:42.000Z</time>
      </trkpt>
      <trkpt lat="46.34378" lon="14.12481">
        <ele>427.507342</ele>
        <time>2026-07-12T11:14:45.000Z</time>
      </trkpt>
      <trkpt lat="46.34391" lon="14.12477">
        <ele>427.664719</ele>
        <time>2026-07-12T11:14:52.000Z</time>
      </trkpt>
      <trkpt lat="46.34404" lon="14.12473">
        <ele>427.814355</ele>
        <time>2026-07-12T11:14:57.000Z</time>
      </trkpt>
      <trkpt lat="46.34422" lon="14.12463">
        <ele>428.04162</ele>
        <time>2026-07-12T11:15:02.000Z</time>
      </trkpt>
      <trkpt lat="46.34429" lon="14.12457">
        <ele>428.137221</ele>
        <time>2026-07-12T11:15:04.000Z</time>
      </trkpt>
      <trkpt lat="46.34433" lon="14.12452">
        <ele>428.179203</ele>
        <time>2026-07-12T11:15:06.000Z</time>
      </trkpt>
      <trkpt lat="46.34436" lon="14.12447">
        <ele>428.175953</ele>
        <time>2026-07-12T11:15:10.000Z</time>
      </trkpt>
      <trkpt lat="46.34436" lon="14.12447">
        <ele>428.175953</ele>
        <time>2026-07-12T11:15:11.000Z</time>
      </trkpt>
      <trkpt lat="46.3444" lon="14.12447">
        <ele>428.172827</ele>
        <time>2026-07-12T11:15:51.000Z</time>
      </trkpt>
      <trkpt lat="46.34442" lon="14.12446">
        <ele>428.171481</ele>
        <time>2026-07-12T11:15:52.000Z</time>
      </trkpt>
      <trkpt lat="46.34444" lon="14.12444">
        <ele>428.169744</ele>
        <time>2026-07-12T11:15:53.000Z</time>
      </trkpt>
      <trkpt lat="46.34454" lon="14.1243">
        <ele>428.158984</ele>
        <time>2026-07-12T11:15:59.000Z</time>
      </trkpt>
      <trkpt lat="46.34464" lon="14.12414">
        <ele>428.147865</ele>
        <time>2026-07-12T11:16:05.000Z</time>
      </trkpt>
      <trkpt lat="46.34477" lon="14.12402">
        <ele>428.13577</ele>
        <time>2026-07-12T11:16:11.000Z</time>
      </trkpt>
      <trkpt lat="46.34494" lon="14.12401">
        <ele>428.122639</ele>
        <time>2026-07-12T11:16:17.000Z</time>
      </trkpt>
      <trkpt lat="46.34497" lon="14.12401">
        <ele>428.120809</ele>
        <time>2026-07-12T11:16:18.000Z</time>
      </trkpt>
      <trkpt lat="46.34516" lon="14.12409">
        <ele>428.105793</ele>
        <time>2026-07-12T11:16:24.000Z</time>
      </trkpt>
      <trkpt lat="46.34522" lon="14.12418">
        <ele>428.098943</ele>
        <time>2026-07-12T11:16:27.000Z</time>
      </trkpt>
      <trkpt lat="46.34525" lon="14.12428">
        <ele>428.093424</ele>
        <time>2026-07-12T11:16:29.000Z</time>
      </trkpt>
      <trkpt lat="46.3453" lon="14.12451">
        <ele>428.080224</ele>
        <time>2026-07-12T11:16:33.000Z</time>
      </trkpt>
      <trkpt lat="46.34531" lon="14.12457">
        <ele>428.077097</ele>
        <time>2026-07-12T11:16:34.000Z</time>
      </trkpt>
      <trkpt lat="46.34532" lon="14.12481">
        <ele>428.064337</ele>
        <time>2026-07-12T11:16:38.000Z</time>
      </trkpt>
      <trkpt lat="46.34535" lon="14.12505">
        <ele>428.051884</ele>
        <time>2026-07-12T11:16:42.000Z</time>
      </trkpt>
      <trkpt lat="46.34538" lon="14.12523">
        <ele>428.128162</ele>
        <time>2026-07-12T11:16:45.000Z</time>
      </trkpt>
      <trkpt lat="46.34542" lon="14.12532">
        <ele>428.525215</ele>
        <time>2026-07-12T11:16:47.000Z</time>
      </trkpt>
      <trkpt lat="46.34544" lon="14.12536">
        <ele>428.7262</ele>
        <time>2026-07-12T11:16:48.000Z</time>
      </trkpt>
      <trkpt lat="46.34559" lon="14.1255">
        <ele>429.673429</ele>
        <time>2026-07-12T11:16:53.000Z</time>
      </trkpt>
      <trkpt lat="46.34576" lon="14.12559">
        <ele>430.61674</ele>
        <time>2026-07-12T11:16:59.000Z</time>
      </trkpt>
      <trkpt lat="46.34586" lon="14.12567">
        <ele>431.222965</ele>
        <time>2026-07-12T11:17:03.000Z</time>
      </trkpt>
      <trkpt lat="46.34593" lon="14.12573">
        <ele>431.673951</ele>
        <time>2026-07-12T11:17:06.000Z</time>
      </trkpt>
      <trkpt lat="46.34596" lon="14.12575">
        <ele>431.8229</ele>
        <time>2026-07-12T11:17:07.000Z</time>
      </trkpt>
      <trkpt lat="46.34624" lon="14.12584">
        <ele>433.398532</ele>
        <time>2026-07-12T11:17:17.000Z</time>
      </trkpt>
      <trkpt lat="46.34632" lon="14.12582">
        <ele>433.797768</ele>
        <time>2026-07-12T11:17:21.000Z</time>
      </trkpt>
      <trkpt lat="46.34634" lon="14.12582">
        <ele>433.904277</ele>
        <time>2026-07-12T11:17:22.000Z</time>
      </trkpt>
      <trkpt lat="46.34652" lon="14.12581">
        <ele>434.868177</ele>
        <time>2026-07-12T11:17:30.000Z</time>
      </trkpt>
      <trkpt lat="46.3467" lon="14.12571">
        <ele>435.897794</ele>
        <time>2026-07-12T11:17:39.000Z</time>
      </trkpt>
      <trkpt lat="46.34685" lon="14.12557">
        <ele>436.85594</ele>
        <time>2026-07-12T11:17:48.000Z</time>
      </trkpt>
      <trkpt lat="46.34691" lon="14.12554">
        <ele>437.208773</ele>
        <time>2026-07-12T11:17:52.000Z</time>
      </trkpt>
      <trkpt lat="46.34696" lon="14.12552">
        <ele>437.479719</ele>
        <time>2026-07-12T11:17:55.000Z</time>
      </trkpt>
      <trkpt lat="46.34698" lon="14.12551">
        <ele>437.578912</ele>
        <time>2026-07-12T11:17:56.000Z</time>
      </trkpt>
      <trkpt lat="46.34714" lon="14.12548">
        <ele>438.984474</ele>
        <time>2026-07-12T11:18:05.000Z</time>
      </trkpt>
      <trkpt lat="46.34728" lon="14.1255">
        <ele>440.337522</ele>
        <time>2026-07-12T11:18:14.000Z</time>
      </trkpt>
      <trkpt lat="46.34739" lon="14.12559">
        <ele>441.486342</ele>
        <time>2026-07-12T11:18:21.000Z</time>
      </trkpt>
      <trkpt lat="46.34744" lon="14.12564">
        <ele>442.029166</ele>
        <time>2026-07-12T11:18:24.000Z</time>
      </trkpt>
      <trkpt lat="46.3475" lon="14.12567">
        <ele>442.652904</ele>
        <time>2026-07-12T11:18:28.000Z</time>
      </trkpt>
      <trkpt lat="46.34764" lon="14.12575">
        <ele>444.034721</ele>
        <time>2026-07-12T11:18:37.000Z</time>
      </trkpt>
      <trkpt lat="46.34781" lon="14.12581">
        <ele>445.616047</ele>
        <time>2026-07-12T11:18:47.000Z</time>
      </trkpt>
      <trkpt lat="46.34795" lon="14.12587">
        <ele>446.939046</ele>
        <time>2026-07-12T11:18:55.000Z</time>
      </trkpt>
      <trkpt lat="46.34801" lon="14.12589">
        <ele>447.48646</ele>
        <time>2026-07-12T11:18:58.000Z</time>
      </trkpt>
      <trkpt lat="46.34818" lon="14.12593">
        <ele>449.064153</ele>
        <time>2026-07-12T11:19:07.000Z</time>
      </trkpt>
      <trkpt lat="46.34833" lon="14.12598">
        <ele>450.529772</ele>
        <time>2026-07-12T11:19:16.000Z</time>
      </trkpt>
      <trkpt lat="46.34848" lon="14.12602">
        <ele>451.867</ele>
        <time>2026-07-12T11:19:24.000Z</time>
      </trkpt>
      <trkpt lat="46.34862" lon="14.12604">
        <ele>453.206297</ele>
        <time>2026-07-12T11:19:33.000Z</time>
      </trkpt>
      <trkpt lat="46.34877" lon="14.12613">
        <ele>454.541941</ele>
        <time>2026-07-12T11:19:42.000Z</time>
      </trkpt>
      <trkpt lat="46.34894" lon="14.12622">
        <ele>455.742532</ele>
        <time>2026-07-12T11:19:52.000Z</time>
      </trkpt>
      <trkpt lat="46.34911" lon="14.12626">
        <ele>456.953303</ele>
        <time>2026-07-12T11:20:01.000Z</time>
      </trkpt>
      <trkpt lat="46.34926" lon="14.12621">
        <ele>457.9902</ele>
        <time>2026-07-12T11:20:08.000Z</time>
      </trkpt>
      <trkpt lat="46.34943" lon="14.12619">
        <ele>459.126142</ele>
        <time>2026-07-12T11:20:15.000Z</time>
      </trkpt>
      <trkpt lat="46.34955" lon="14.12613">
        <ele>460.007742</ele>
        <time>2026-07-12T11:20:21.000Z</time>
      </trkpt>
      <trkpt lat="46.34969" lon="14.12612">
        <ele>460.946173</ele>
        <time>2026-07-12T11:20:28.000Z</time>
      </trkpt>
      <trkpt lat="46.34991" lon="14.12608">
        <ele>462.43926</ele>
        <time>2026-07-12T11:20:37.000Z</time>
      </trkpt>
      <trkpt lat="46.35011" lon="14.12604">
        <ele>463.813219</ele>
        <time>2026-07-12T11:20:44.000Z</time>
      </trkpt>
      <trkpt lat="46.35028" lon="14.12601">
        <ele>464.973982</ele>
        <time>2026-07-12T11:20:51.000Z</time>
      </trkpt>
      <trkpt lat="46.35047" lon="14.12605">
        <ele>466.304835</ele>
        <time>2026-07-12T11:20:59.000Z</time>
      </trkpt>
      <trkpt lat="46.35065" lon="14.12601">
        <ele>466.948276</ele>
        <time>2026-07-12T11:21:06.000Z</time>
      </trkpt>
      <trkpt lat="46.35078" lon="14.12591">
        <ele>467.425779</ele>
        <time>2026-07-12T11:21:12.000Z</time>
      </trkpt>
      <trkpt lat="46.3509" lon="14.12574">
        <ele>468.021924</ele>
        <time>2026-07-12T11:21:20.000Z</time>
      </trkpt>
      <trkpt lat="46.35098" lon="14.12563">
        <ele>468.404841</ele>
        <time>2026-07-12T11:21:26.000Z</time>
      </trkpt>
      <trkpt lat="46.35106" lon="14.12549">
        <ele>468.844274</ele>
        <time>2026-07-12T11:21:32.000Z</time>
      </trkpt>
      <trkpt lat="46.35109" lon="14.12546">
        <ele>468.982328</ele>
        <time>2026-07-12T11:21:34.000Z</time>
      </trkpt>
      <trkpt lat="46.35117" lon="14.12542">
        <ele>469.247837</ele>
        <time>2026-07-12T11:21:37.000Z</time>
      </trkpt>
      <trkpt lat="46.3513" lon="14.1254">
        <ele>469.710928</ele>
        <time>2026-07-12T11:21:43.000Z</time>
      </trkpt>
      <trkpt lat="46.35132" lon="14.12538">
        <ele>469.790996</ele>
        <time>2026-07-12T11:21:44.000Z</time>
      </trkpt>
      <trkpt lat="46.35137" lon="14.12525">
        <ele>470.139841</ele>
        <time>2026-07-12T11:21:49.000Z</time>
      </trkpt>
      <trkpt lat="46.35143" lon="14.12506">
        <ele>470.634219</ele>
        <time>2026-07-12T11:21:56.000Z</time>
      </trkpt>
      <trkpt lat="46.35149" lon="14.12474">
        <ele>471.421325</ele>
        <time>2026-07-12T11:22:05.000Z</time>
      </trkpt>
      <trkpt lat="46.35157" lon="14.12447">
        <ele>472.13511</ele>
        <time>2026-07-12T11:22:14.000Z</time>
      </trkpt>
      <trkpt lat="46.35164" lon="14.12428">
        <ele>472.703799</ele>
        <time>2026-07-12T11:22:20.000Z</time>
      </trkpt>
      <trkpt lat="46.35166" lon="14.12423">
        <ele>472.939743</ele>
        <time>2026-07-12T11:22:22.000Z</time>
      </trkpt>
      <trkpt lat="46.35168" lon="14.12417">
        <ele>473.188336</ele>
        <time>2026-07-12T11:22:24.000Z</time>
      </trkpt>
      <trkpt lat="46.35172" lon="14.12395">
        <ele>474.038902</ele>
        <time>2026-07-12T11:22:31.000Z</time>
      </trkpt>
      <trkpt lat="46.35181" lon="14.12378">
        <ele>474.839792</ele>
        <time>2026-07-12T11:22:38.000Z</time>
      </trkpt>
      <trkpt lat="46.35187" lon="14.12374">
        <ele>475.200282</ele>
        <time>2026-07-12T11:22:41.000Z</time>
      </trkpt>
      <trkpt lat="46.35193" lon="14.12373">
        <ele>475.579537</ele>
        <time>2026-07-12T11:22:44.000Z</time>
      </trkpt>
      <trkpt lat="46.35211" lon="14.12374">
        <ele>476.522213</ele>
        <time>2026-07-12T11:22:51.000Z</time>
      </trkpt>
      <trkpt lat="46.35233" lon="14.12376">
        <ele>477.780168</ele>
        <time>2026-07-12T11:23:00.000Z</time>
      </trkpt>
      <trkpt lat="46.35259" lon="14.12381">
        <ele>479.180416</ele>
        <time>2026-07-12T11:23:10.000Z</time>
      </trkpt>
      <trkpt lat="46.35274" lon="14.12378">
        <ele>480.055482</ele>
        <time>2026-07-12T11:23:17.000Z</time>
      </trkpt>
      <trkpt lat="46.3528" lon="14.12357">
        <ele>480.916449</ele>
        <time>2026-07-12T11:23:23.000Z</time>
      </trkpt>
      <trkpt lat="46.35282" lon="14.12331">
        <ele>481.910159</ele>
        <time>2026-07-12T11:23:30.000Z</time>
      </trkpt>
      <trkpt lat="46.35288" lon="14.12299">
        <ele>482.744164</ele>
        <time>2026-07-12T11:23:39.000Z</time>
      </trkpt>
      <trkpt lat="46.35295" lon="14.12272">
        <ele>483.209466</ele>
        <time>2026-07-12T11:23:48.000Z</time>
      </trkpt>
      <trkpt lat="46.35297" lon="14.12249">
        <ele>483.594696</ele>
        <time>2026-07-12T11:23:55.000Z</time>
      </trkpt>
      <trkpt lat="46.35295" lon="14.12226">
        <ele>483.972521</ele>
        <time>2026-07-12T11:24:01.000Z</time>
      </trkpt>
      <trkpt lat="46.35295" lon="14.12218">
        <ele>484.09967</ele>
        <time>2026-07-12T11:24:05.000Z</time>
      </trkpt>
      <trkpt lat="46.35295" lon="14.12218">
        <ele>484.09967</ele>
        <time>2026-07-12T11:24:06.000Z</time>
      </trkpt>
      <trkpt lat="46.35294" lon="14.1221">
        <ele>484.230824</ele>
        <time>2026-07-12T11:24:41.000Z</time>
      </trkpt>
      <trkpt lat="46.35295" lon="14.12208">
        <ele>484.274796</ele>
        <time>2026-07-12T11:24:42.000Z</time>
      </trkpt>
      <trkpt lat="46.35296" lon="14.12205">
        <ele>484.323664</ele>
        <time>2026-07-12T11:24:43.000Z</time>
      </trkpt>
      <trkpt lat="46.35296" lon="14.12201">
        <ele>484.382764</ele>
        <time>2026-07-12T11:24:44.000Z</time>
      </trkpt>
      <trkpt lat="46.35296" lon="14.12189">
        <ele>484.588463</ele>
        <time>2026-07-12T11:24:47.000Z</time>
      </trkpt>
      <trkpt lat="46.35297" lon="14.12165">
        <ele>484.968574</ele>
        <time>2026-07-12T11:24:52.000Z</time>
      </trkpt>
      <trkpt lat="46.35298" lon="14.12145">
        <ele>485.300239</ele>
        <time>2026-07-12T11:24:56.000Z</time>
      </trkpt>
      <trkpt lat="46.353" lon="14.12128">
        <ele>485.583867</ele>
        <time>2026-07-12T11:24:59.000Z</time>
      </trkpt>
      <trkpt lat="46.353" lon="14.12122">
        <ele>485.68698</ele>
        <time>2026-07-12T11:25:00.000Z</time>
      </trkpt>
      <trkpt lat="46.353" lon="14.12095">
        <ele>486.122306</ele>
        <time>2026-07-12T11:25:04.000Z</time>
      </trkpt>
      <trkpt lat="46.35301" lon="14.12081">
        <ele>486.357014</ele>
        <time>2026-07-12T11:25:06.000Z</time>
      </trkpt>
      <trkpt lat="46.35299" lon="14.12034">
        <ele>486.110926</ele>
        <time>2026-07-12T11:25:12.000Z</time>
      </trkpt>
      <trkpt lat="46.35298" lon="14.12018">
        <ele>485.775811</ele>
        <time>2026-07-12T11:25:14.000Z</time>
      </trkpt>
      <trkpt lat="46.35287" lon="14.11972">
        <ele>484.707568</ele>
        <time>2026-07-12T11:25:21.000Z</time>
      </trkpt>
      <trkpt lat="46.35279" lon="14.11955">
        <ele>484.279237</ele>
        <time>2026-07-12T11:25:24.000Z</time>
      </trkpt>
      <trkpt lat="46.35269" lon="14.11933">
        <ele>483.697325</ele>
        <time>2026-07-12T11:25:28.000Z</time>
      </trkpt>
      <trkpt lat="46.35248" lon="14.11899">
        <ele>482.714174</ele>
        <time>2026-07-12T11:25:34.000Z</time>
      </trkpt>
      <trkpt lat="46.35242" lon="14.11885">
        <ele>482.356075</ele>
        <time>2026-07-12T11:25:36.000Z</time>
      </trkpt>
      <trkpt lat="46.35237" lon="14.11866">
        <ele>481.908056</ele>
        <time>2026-07-12T11:25:38.000Z</time>
      </trkpt>
      <trkpt lat="46.35234" lon="14.11856">
        <ele>481.668022</ele>
        <time>2026-07-12T11:25:39.000Z</time>
      </trkpt>
      <trkpt lat="46.35222" lon="14.11807">
        <ele>479.935368</ele>
        <time>2026-07-12T11:25:43.000Z</time>
      </trkpt>
      <trkpt lat="46.35207" lon="14.11762">
        <ele>477.416416</ele>
        <time>2026-07-12T11:25:46.000Z</time>
      </trkpt>
      <trkpt lat="46.35195" lon="14.11713">
        <ele>474.859723</ele>
        <time>2026-07-12T11:25:49.000Z</time>
      </trkpt>
      <trkpt lat="46.3519" lon="14.11698">
        <ele>474.060129</ele>
        <time>2026-07-12T11:25:50.000Z</time>
      </trkpt>
      <trkpt lat="46.35184" lon="14.11685">
        <ele>473.278414</ele>
        <time>2026-07-12T11:25:51.000Z</time>
      </trkpt>
      <trkpt lat="46.35164" lon="14.11649">
        <ele>470.956277</ele>
        <time>2026-07-12T11:25:54.000Z</time>
      </trkpt>
      <trkpt lat="46.35158" lon="14.11639">
        <ele>470.34845</ele>
        <time>2026-07-12T11:25:55.000Z</time>
      </trkpt>
      <trkpt lat="46.35148" lon="14.11614">
        <ele>468.880301</ele>
        <time>2026-07-12T11:25:57.000Z</time>
      </trkpt>
      <trkpt lat="46.35135" lon="14.11558">
        <ele>467.124248</ele>
        <time>2026-07-12T11:26:01.000Z</time>
      </trkpt>
      <trkpt lat="46.35125" lon="14.1147">
        <ele>465.023612</ele>
        <time>2026-07-12T11:26:07.000Z</time>
      </trkpt>
      <trkpt lat="46.35112" lon="14.11399">
        <ele>463.300327</ele>
        <time>2026-07-12T11:26:13.000Z</time>
      </trkpt>
      <trkpt lat="46.35098" lon="14.11343">
        <ele>461.925052</ele>
        <time>2026-07-12T11:26:19.000Z</time>
      </trkpt>
      <trkpt lat="46.35083" lon="14.11289">
        <ele>460.827391</ele>
        <time>2026-07-12T11:26:26.000Z</time>
      </trkpt>
      <trkpt lat="46.35067" lon="14.1124">
        <ele>459.804981</ele>
        <time>2026-07-12T11:26:33.000Z</time>
      </trkpt>
      <trkpt lat="46.35053" lon="14.11198">
        <ele>458.919773</ele>
        <time>2026-07-12T11:26:38.000Z</time>
      </trkpt>
      <trkpt lat="46.35051" lon="14.11177">
        <ele>458.528998</ele>
        <time>2026-07-12T11:26:40.000Z</time>
      </trkpt>
      <trkpt lat="46.35053" lon="14.11153">
        <ele>458.084038</ele>
        <time>2026-07-12T11:26:42.000Z</time>
      </trkpt>
      <trkpt lat="46.35065" lon="14.11086">
        <ele>457.167096</ele>
        <time>2026-07-12T11:26:48.000Z</time>
      </trkpt>
      <trkpt lat="46.35076" lon="14.1104">
        <ele>457.262586</ele>
        <time>2026-07-12T11:26:53.000Z</time>
      </trkpt>
      <trkpt lat="46.3508" lon="14.11026">
        <ele>457.292112</ele>
        <time>2026-07-12T11:26:55.000Z</time>
      </trkpt>
      <trkpt lat="46.35086" lon="14.11015">
        <ele>457.318699</ele>
        <time>2026-07-12T11:26:57.000Z</time>
      </trkpt>
      <trkpt lat="46.35094" lon="14.10999">
        <ele>457.357785</ele>
        <time>2026-07-12T11:27:00.000Z</time>
      </trkpt>
      <trkpt lat="46.35102" lon="14.10991">
        <ele>457.384897</ele>
        <time>2026-07-12T11:27:02.000Z</time>
      </trkpt>
      <trkpt lat="46.35117" lon="14.10985">
        <ele>457.429684</ele>
        <time>2026-07-12T11:27:05.000Z</time>
      </trkpt>
      <trkpt lat="46.35122" lon="14.10983">
        <ele>457.443746</ele>
        <time>2026-07-12T11:27:06.000Z</time>
      </trkpt>
      <trkpt lat="46.3513" lon="14.10979">
        <ele>457.468414</ele>
        <time>2026-07-12T11:27:08.000Z</time>
      </trkpt>
      <trkpt lat="46.35141" lon="14.10971">
        <ele>457.503328</ele>
        <time>2026-07-12T11:27:11.000Z</time>
      </trkpt>
      <trkpt lat="46.35145" lon="14.10968">
        <ele>457.515167</ele>
        <time>2026-07-12T11:27:12.000Z</time>
      </trkpt>
      <trkpt lat="46.35152" lon="14.10964">
        <ele>457.537835</ele>
        <time>2026-07-12T11:27:14.000Z</time>
      </trkpt>
      <trkpt lat="46.35166" lon="14.10952">
        <ele>457.58325</ele>
        <time>2026-07-12T11:27:18.000Z</time>
      </trkpt>
      <trkpt lat="46.3518" lon="14.1094">
        <ele>457.628899</ele>
        <time>2026-07-12T11:27:23.000Z</time>
      </trkpt>
      <trkpt lat="46.35182" lon="14.10938">
        <ele>457.636508</ele>
        <time>2026-07-12T11:27:24.000Z</time>
      </trkpt>
      <trkpt lat="46.35196" lon="14.10929">
        <ele>458.167181</ele>
        <time>2026-07-12T11:27:30.000Z</time>
      </trkpt>
      <trkpt lat="46.35203" lon="14.10924">
        <ele>458.481647</ele>
        <time>2026-07-12T11:27:33.000Z</time>
      </trkpt>
      <trkpt lat="46.35205" lon="14.10921">
        <ele>458.594042</ele>
        <time>2026-07-12T11:27:34.000Z</time>
      </trkpt>
      <trkpt lat="46.35212" lon="14.10913">
        <ele>458.934838</ele>
        <time>2026-07-12T11:27:37.000Z</time>
      </trkpt>
      <trkpt lat="46.35225" lon="14.10899">
        <ele>459.570398</ele>
        <time>2026-07-12T11:27:43.000Z</time>
      </trkpt>
      <trkpt lat="46.35236" lon="14.1088">
        <ele>460.207954</ele>
        <time>2026-07-12T11:27:49.000Z</time>
      </trkpt>
      <trkpt lat="46.35237" lon="14.10876">
        <ele>460.32694</ele>
        <time>2026-07-12T11:27:50.000Z</time>
      </trkpt>
      <trkpt lat="46.3524" lon="14.10859">
        <ele>460.793665</ele>
        <time>2026-07-12T11:27:54.000Z</time>
      </trkpt>
      <trkpt lat="46.3524" lon="14.10845">
        <ele>461.159267</ele>
        <time>2026-07-12T11:27:57.000Z</time>
      </trkpt>
      <trkpt lat="46.35239" lon="14.10831">
        <ele>461.521529</ele>
        <time>2026-07-12T11:27:59.000Z</time>
      </trkpt>
      <trkpt lat="46.35238" lon="14.10815">
        <ele>461.962858</ele>
        <time>2026-07-12T11:28:01.000Z</time>
      </trkpt>
      <trkpt lat="46.35236" lon="14.10797">
        <ele>462.427315</ele>
        <time>2026-07-12T11:28:03.000Z</time>
      </trkpt>
      <trkpt lat="46.35237" lon="14.1078">
        <ele>462.893516</ele>
        <time>2026-07-12T11:28:05.000Z</time>
      </trkpt>
      <trkpt lat="46.35239" lon="14.10771">
        <ele>463.123317</ele>
        <time>2026-07-12T11:28:06.000Z</time>
      </trkpt>
      <trkpt lat="46.35243" lon="14.1074">
        <ele>463.970837</ele>
        <time>2026-07-12T11:28:10.000Z</time>
      </trkpt>
      <trkpt lat="46.35244" lon="14.10734">
        <ele>464.140506</ele>
        <time>2026-07-12T11:28:11.000Z</time>
      </trkpt>
      <trkpt lat="46.3525" lon="14.10702">
        <ele>465.474091</ele>
        <time>2026-07-12T11:28:17.000Z</time>
      </trkpt>
      <trkpt lat="46.35259" lon="14.10681">
        <ele>466.74645</ele>
        <time>2026-07-12T11:28:23.000Z</time>
      </trkpt>
      <trkpt lat="46.35269" lon="14.10674">
        <ele>467.560357</ele>
        <time>2026-07-12T11:28:28.000Z</time>
      </trkpt>
      <trkpt lat="46.35276" lon="14.10667">
        <ele>468.270944</ele>
        <time>2026-07-12T11:28:33.000Z</time>
      </trkpt>
      <trkpt lat="46.35279" lon="14.10664">
        <ele>468.499108</ele>
        <time>2026-07-12T11:28:35.000Z</time>
      </trkpt>
      <trkpt lat="46.3528" lon="14.1066">
        <ele>468.732449</ele>
        <time>2026-07-12T11:28:37.000Z</time>
      </trkpt>
      <trkpt lat="46.35285" lon="14.10654">
        <ele>469.222211</ele>
        <time>2026-07-12T11:28:40.000Z</time>
      </trkpt>
      <trkpt lat="46.35287" lon="14.10645">
        <ele>469.731439</ele>
        <time>2026-07-12T11:28:43.000Z</time>
      </trkpt>
      <trkpt lat="46.35291" lon="14.10624">
        <ele>470.86623</ele>
        <time>2026-07-12T11:28:51.000Z</time>
      </trkpt>
      <trkpt lat="46.35301" lon="14.10595">
        <ele>472.585413</ele>
        <time>2026-07-12T11:29:02.000Z</time>
      </trkpt>
      <trkpt lat="46.35306" lon="14.10577">
        <ele>473.607746</ele>
        <time>2026-07-12T11:29:10.000Z</time>
      </trkpt>
      <trkpt lat="46.3531" lon="14.10565">
        <ele>474.315774</ele>
        <time>2026-07-12T11:29:16.000Z</time>
      </trkpt>
      <trkpt lat="46.35311" lon="14.10563">
        <ele>474.430092</ele>
        <time>2026-07-12T11:29:17.000Z</time>
      </trkpt>
      <trkpt lat="46.35318" lon="14.10546">
        <ele>475.467218</ele>
        <time>2026-07-12T11:29:24.000Z</time>
      </trkpt>
      <trkpt lat="46.35323" lon="14.10533">
        <ele>476.231883</ele>
        <time>2026-07-12T11:29:30.000Z</time>
      </trkpt>
      <trkpt lat="46.35326" lon="14.10529">
        <ele>476.527735</ele>
        <time>2026-07-12T11:29:32.000Z</time>
      </trkpt>
      <trkpt lat="46.35327" lon="14.10528">
        <ele>476.655421</ele>
        <time>2026-07-12T11:29:33.000Z</time>
      </trkpt>
      <trkpt lat="46.35339" lon="14.10521">
        <ele>477.613878</ele>
        <time>2026-07-12T11:29:40.000Z</time>
      </trkpt>
      <trkpt lat="46.35349" lon="14.10521">
        <ele>478.347383</ele>
        <time>2026-07-12T11:29:46.000Z</time>
      </trkpt>
      <trkpt lat="46.3536" lon="14.10521">
        <ele>479.12428</ele>
        <time>2026-07-12T11:29:52.000Z</time>
      </trkpt>
      <trkpt lat="46.35364" lon="14.1052">
        <ele>479.416464</ele>
        <time>2026-07-12T11:29:54.000Z</time>
      </trkpt>
      <trkpt lat="46.35374" lon="14.10515">
        <ele>480.180627</ele>
        <time>2026-07-12T11:30:00.000Z</time>
      </trkpt>
      <trkpt lat="46.35376" lon="14.10514">
        <ele>480.323398</ele>
        <time>2026-07-12T11:30:01.000Z</time>
      </trkpt>
      <trkpt lat="46.35382" lon="14.10508">
        <ele>480.88106</ele>
        <time>2026-07-12T11:30:05.000Z</time>
      </trkpt>
      <trkpt lat="46.35384" lon="14.10506">
        <ele>481.015562</ele>
        <time>2026-07-12T11:30:06.000Z</time>
      </trkpt>
      <trkpt lat="46.35395" lon="14.10496">
        <ele>481.922862</ele>
        <time>2026-07-12T11:30:14.000Z</time>
      </trkpt>
      <trkpt lat="46.35413" lon="14.10486">
        <ele>483.272618</ele>
        <time>2026-07-12T11:30:25.000Z</time>
      </trkpt>
      <trkpt lat="46.35414" lon="14.10485">
        <ele>483.393839</ele>
        <time>2026-07-12T11:30:26.000Z</time>
      </trkpt>
      <trkpt lat="46.35417" lon="14.10483">
        <ele>483.636281</ele>
        <time>2026-07-12T11:30:28.000Z</time>
      </trkpt>
      <trkpt lat="46.35423" lon="14.10482">
        <ele>484.014425</ele>
        <time>2026-07-12T11:30:31.000Z</time>
      </trkpt>
      <trkpt lat="46.35429" lon="14.10481">
        <ele>484.439284</ele>
        <time>2026-07-12T11:30:34.000Z</time>
      </trkpt>
      <trkpt lat="46.35442" lon="14.10475">
        <ele>485.43241</ele>
        <time>2026-07-12T11:30:41.000Z</time>
      </trkpt>
      <trkpt lat="46.35452" lon="14.10469">
        <ele>486.206028</ele>
        <time>2026-07-12T11:30:46.000Z</time>
      </trkpt>
      <trkpt lat="46.35454" lon="14.10468">
        <ele>486.363745</ele>
        <time>2026-07-12T11:30:47.000Z</time>
      </trkpt>
      <trkpt lat="46.35469" lon="14.10457">
        <ele>487.527813</ele>
        <time>2026-07-12T11:30:54.000Z</time>
      </trkpt>
      <trkpt lat="46.35485" lon="14.10445">
        <ele>488.77754</ele>
        <time>2026-07-12T11:31:01.000Z</time>
      </trkpt>
      <trkpt lat="46.35504" lon="14.1043">
        <ele>490.335931</ele>
        <time>2026-07-12T11:31:10.000Z</time>
      </trkpt>
      <trkpt lat="46.35509" lon="14.10427">
        <ele>490.709156</ele>
        <time>2026-07-12T11:31:12.000Z</time>
      </trkpt>
      <trkpt lat="46.35524" lon="14.10417">
        <ele>491.240711</ele>
        <time>2026-07-12T11:31:19.000Z</time>
      </trkpt>
      <trkpt lat="46.35527" lon="14.10413">
        <ele>491.342512</ele>
        <time>2026-07-12T11:31:21.000Z</time>
      </trkpt>
      <trkpt lat="46.3554" lon="14.10401">
        <ele>491.732277</ele>
        <time>2026-07-12T11:31:28.000Z</time>
      </trkpt>
      <trkpt lat="46.35556" lon="14.10387">
        <ele>492.179213</ele>
        <time>2026-07-12T11:31:36.000Z</time>
      </trkpt>
      <trkpt lat="46.35557" lon="14.10386">
        <ele>492.221249</ele>
        <time>2026-07-12T11:31:37.000Z</time>
      </trkpt>
      <trkpt lat="46.35562" lon="14.10381">
        <ele>492.374118</ele>
        <time>2026-07-12T11:31:40.000Z</time>
      </trkpt>
      <trkpt lat="46.35581" lon="14.10363">
        <ele>492.921253</ele>
        <time>2026-07-12T11:31:49.000Z</time>
      </trkpt>
      <trkpt lat="46.35592" lon="14.1035">
        <ele>493.266672</ele>
        <time>2026-07-12T11:31:55.000Z</time>
      </trkpt>
      <trkpt lat="46.35594" lon="14.10348">
        <ele>493.324696</ele>
        <time>2026-07-12T11:31:56.000Z</time>
      </trkpt>
      <trkpt lat="46.35607" lon="14.10338">
        <ele>493.692008</ele>
        <time>2026-07-12T11:32:02.000Z</time>
      </trkpt>
      <trkpt lat="46.35612" lon="14.10334">
        <ele>493.836994</ele>
        <time>2026-07-12T11:32:04.000Z</time>
      </trkpt>
      <trkpt lat="46.35615" lon="14.10333">
        <ele>493.908758</ele>
        <time>2026-07-12T11:32:05.000Z</time>
      </trkpt>
      <trkpt lat="46.3562" lon="14.10329">
        <ele>494.053013</ele>
        <time>2026-07-12T11:32:07.000Z</time>
      </trkpt>
      <trkpt lat="46.35638" lon="14.10313">
        <ele>494.571665</ele>
        <time>2026-07-12T11:32:14.000Z</time>
      </trkpt>
      <trkpt lat="46.35658" lon="14.10295">
        <ele>495.159683</ele>
        <time>2026-07-12T11:32:21.000Z</time>
      </trkpt>
      <trkpt lat="46.35675" lon="14.10273">
        <ele>495.23684</ele>
        <time>2026-07-12T11:32:28.000Z</time>
      </trkpt>
      <trkpt lat="46.35691" lon="14.1024">
        <ele>495.047504</ele>
        <time>2026-07-12T11:32:37.000Z</time>
      </trkpt>
      <trkpt lat="46.35706" lon="14.10212">
        <ele>494.880611</ele>
        <time>2026-07-12T11:32:44.000Z</time>
      </trkpt>
      <trkpt lat="46.3572" lon="14.10182">
        <ele>494.710242</ele>
        <time>2026-07-12T11:32:51.000Z</time>
      </trkpt>
      <trkpt lat="46.35724" lon="14.10172">
        <ele>494.657216</ele>
        <time>2026-07-12T11:32:53.000Z</time>
      </trkpt>
      <trkpt lat="46.3574" lon="14.10135">
        <ele>494.45116</ele>
        <time>2026-07-12T11:33:01.000Z</time>
      </trkpt>
      <trkpt lat="46.35754" lon="14.10113">
        <ele>494.311076</ele>
        <time>2026-07-12T11:33:07.000Z</time>
      </trkpt>
      <trkpt lat="46.35783" lon="14.10079">
        <ele>493.736669</ele>
        <time>2026-07-12T11:33:16.000Z</time>
      </trkpt>
      <trkpt lat="46.35786" lon="14.10077">
        <ele>493.544401</ele>
        <time>2026-07-12T11:33:17.000Z</time>
      </trkpt>
      <trkpt lat="46.35795" lon="14.10072">
        <ele>493.100461</ele>
        <time>2026-07-12T11:33:19.000Z</time>
      </trkpt>
      <trkpt lat="46.35799" lon="14.10069">
        <ele>492.868567</ele>
        <time>2026-07-12T11:33:20.000Z</time>
      </trkpt>
      <trkpt lat="46.35827" lon="14.10057">
        <ele>491.487951</ele>
        <time>2026-07-12T11:33:25.000Z</time>
      </trkpt>
      <trkpt lat="46.35839" lon="14.10051">
        <ele>490.896095</ele>
        <time>2026-07-12T11:33:27.000Z</time>
      </trkpt>
      <trkpt lat="46.35859" lon="14.10037">
        <ele>489.839611</ele>
        <time>2026-07-12T11:33:30.000Z</time>
      </trkpt>
      <trkpt lat="46.35882" lon="14.10024">
        <ele>488.638528</ele>
        <time>2026-07-12T11:33:34.000Z</time>
      </trkpt>
      <trkpt lat="46.35887" lon="14.10021">
        <ele>488.388534</ele>
        <time>2026-07-12T11:33:35.000Z</time>
      </trkpt>
      <trkpt lat="46.35903" lon="14.10015">
        <ele>487.615892</ele>
        <time>2026-07-12T11:33:38.000Z</time>
      </trkpt>
      <trkpt lat="46.35908" lon="14.10014">
        <ele>487.360569</ele>
        <time>2026-07-12T11:33:39.000Z</time>
      </trkpt>
      <trkpt lat="46.35913" lon="14.10012">
        <ele>487.130577</ele>
        <time>2026-07-12T11:33:40.000Z</time>
      </trkpt>
      <trkpt lat="46.35923" lon="14.10004">
        <ele>486.560874</ele>
        <time>2026-07-12T11:33:43.000Z</time>
      </trkpt>
      <trkpt lat="46.3593" lon="14.1">
        <ele>486.201597</ele>
        <time>2026-07-12T11:33:45.000Z</time>
      </trkpt>
      <trkpt lat="46.35937" lon="14.09993">
        <ele>485.836567</ele>
        <time>2026-07-12T11:33:47.000Z</time>
      </trkpt>
      <trkpt lat="46.35939" lon="14.0999">
        <ele>485.656586</ele>
        <time>2026-07-12T11:33:48.000Z</time>
      </trkpt>
      <trkpt lat="46.35952" lon="14.09977">
        <ele>486.025203</ele>
        <time>2026-07-12T11:33:52.000Z</time>
      </trkpt>
      <trkpt lat="46.35974" lon="14.09964">
        <ele>486.913684</ele>
        <time>2026-07-12T11:33:59.000Z</time>
      </trkpt>
      <trkpt lat="46.35982" lon="14.09963">
        <ele>487.199645</ele>
        <time>2026-07-12T11:34:02.000Z</time>
      </trkpt>
      <trkpt lat="46.35985" lon="14.09962">
        <ele>487.308578</ele>
        <time>2026-07-12T11:34:03.000Z</time>
      </trkpt>
      <trkpt lat="46.35996" lon="14.09956">
        <ele>487.762281</ele>
        <time>2026-07-12T11:34:08.000Z</time>
      </trkpt>
      <trkpt lat="46.35996" lon="14.09956">
        <ele>487.762281</ele>
        <time>2026-07-12T11:34:10.000Z</time>
      </trkpt>
      <trkpt lat="46.35998" lon="14.09948">
        <ele>487.983106</ele>
        <time>2026-07-12T11:34:15.000Z</time>
      </trkpt>
      <trkpt lat="46.35997" lon="14.09944">
        <ele>488.081368</ele>
        <time>2026-07-12T11:34:16.000Z</time>
      </trkpt>
      <trkpt lat="46.35994" lon="14.09932">
        <ele>488.415696</ele>
        <time>2026-07-12T11:34:21.000Z</time>
      </trkpt>
      <trkpt lat="46.35994" lon="14.09931">
        <ele>488.437532</ele>
        <time>2026-07-12T11:34:22.000Z</time>
      </trkpt>
      <trkpt lat="46.36008" lon="14.09952">
        <ele>489.199769</ele>
        <time>2026-07-12T11:39:37.000Z</time>
      </trkpt>
      <trkpt lat="46.36009" lon="14.09954">
        <ele>489.26147</ele>
        <time>2026-07-12T11:39:38.000Z</time>
      </trkpt>
      <trkpt lat="46.3601" lon="14.09956">
        <ele>489.325115</ele>
        <time>2026-07-12T11:39:39.000Z</time>
      </trkpt>
      <trkpt lat="46.3602" lon="14.09967">
        <ele>489.803434</ele>
        <time>2026-07-12T11:39:44.000Z</time>
      </trkpt>
      <trkpt lat="46.36036" lon="14.09973">
        <ele>490.410813</ele>
        <time>2026-07-12T11:39:50.000Z</time>
      </trkpt>
      <trkpt lat="46.36053" lon="14.09969">
        <ele>491.048002</ele>
        <time>2026-07-12T11:39:56.000Z</time>
      </trkpt>
      <trkpt lat="46.36069" lon="14.09966">
        <ele>491.63095</ele>
        <time>2026-07-12T11:40:01.000Z</time>
      </trkpt>
      <trkpt lat="46.36072" lon="14.09966">
        <ele>491.753771</ele>
        <time>2026-07-12T11:40:02.000Z</time>
      </trkpt>
      <trkpt lat="46.36097" lon="14.0996">
        <ele>492.175008</ele>
        <time>2026-07-12T11:40:10.000Z</time>
      </trkpt>
      <trkpt lat="46.36121" lon="14.09951">
        <ele>492.077519</ele>
        <time>2026-07-12T11:40:17.000Z</time>
      </trkpt>
      <trkpt lat="46.36144" lon="14.09939">
        <ele>491.978865</ele>
        <time>2026-07-12T11:40:24.000Z</time>
      </trkpt>
      <trkpt lat="46.36148" lon="14.09937">
        <ele>491.964657</ele>
        <time>2026-07-12T11:40:25.000Z</time>
      </trkpt>
      <trkpt lat="46.36167" lon="14.09926">
        <ele>491.883605</ele>
        <time>2026-07-12T11:40:31.000Z</time>
      </trkpt>
      <trkpt lat="46.36177" lon="14.09923">
        <ele>491.842292</ele>
        <time>2026-07-12T11:40:34.000Z</time>
      </trkpt>
      <trkpt lat="46.36184" lon="14.09921">
        <ele>491.814519</ele>
        <time>2026-07-12T11:40:36.000Z</time>
      </trkpt>
      <trkpt lat="46.3619" lon="14.0992">
        <ele>491.788567</ele>
        <time>2026-07-12T11:40:38.000Z</time>
      </trkpt>
      <trkpt lat="46.36194" lon="14.0992">
        <ele>491.775849</ele>
        <time>2026-07-12T11:40:39.000Z</time>
      </trkpt>
      <trkpt lat="46.36215" lon="14.09925">
        <ele>491.69073</ele>
        <time>2026-07-12T11:40:45.000Z</time>
      </trkpt>
      <trkpt lat="46.36236" lon="14.09946">
        <ele>491.590443</ele>
        <time>2026-07-12T11:40:52.000Z</time>
      </trkpt>
      <trkpt lat="46.36249" lon="14.09978">
        <ele>491.348746</ele>
        <time>2026-07-12T11:40:59.000Z</time>
      </trkpt>
      <trkpt lat="46.36267" lon="14.10022">
        <ele>490.44997</ele>
        <time>2026-07-12T11:41:08.000Z</time>
      </trkpt>
      <trkpt lat="46.36282" lon="14.1006">
        <ele>489.679607</ele>
        <time>2026-07-12T11:41:15.000Z</time>
      </trkpt>
      <trkpt lat="46.36283" lon="14.10066">
        <ele>489.570381</ele>
        <time>2026-07-12T11:41:16.000Z</time>
      </trkpt>
      <trkpt lat="46.36285" lon="14.10071">
        <ele>489.461867</ele>
        <time>2026-07-12T11:41:17.000Z</time>
      </trkpt>
      <trkpt lat="46.36291" lon="14.10102">
        <ele>488.902129</ele>
        <time>2026-07-12T11:41:22.000Z</time>
      </trkpt>
      <trkpt lat="46.36294" lon="14.10113">
        <ele>488.687375</ele>
        <time>2026-07-12T11:41:24.000Z</time>
      </trkpt>
      <trkpt lat="46.363" lon="14.10138">
        <ele>488.226413</ele>
        <time>2026-07-12T11:41:28.000Z</time>
      </trkpt>
      <trkpt lat="46.3631" lon="14.10161">
        <ele>487.747421</ele>
        <time>2026-07-12T11:41:33.000Z</time>
      </trkpt>
      <trkpt lat="46.3631" lon="14.10161">
        <ele>487.747421</ele>
        <time>2026-07-12T11:41:38.000Z</time>
      </trkpt>
      <trkpt lat="46.36325" lon="14.10223">
        <ele>486.782572</ele>
        <time>2026-07-12T11:41:42.000Z</time>
      </trkpt>
      <trkpt lat="46.36335" lon="14.10258">
        <ele>486.50152</ele>
        <time>2026-07-12T11:41:48.000Z</time>
      </trkpt>
      <trkpt lat="46.36337" lon="14.10265">
        <ele>486.45315</ele>
        <time>2026-07-12T11:41:49.000Z</time>
      </trkpt>
      <trkpt lat="46.3634" lon="14.10277">
        <ele>486.358518</ele>
        <time>2026-07-12T11:41:51.000Z</time>
      </trkpt>
      <trkpt lat="46.36346" lon="14.10287">
        <ele>486.266015</ele>
        <time>2026-07-12T11:41:53.000Z</time>
      </trkpt>
      <trkpt lat="46.36348" lon="14.10293">
        <ele>486.216754</ele>
        <time>2026-07-12T11:41:54.000Z</time>
      </trkpt>
      <trkpt lat="46.36352" lon="14.10306">
        <ele>486.112229</ele>
        <time>2026-07-12T11:41:56.000Z</time>
      </trkpt>
      <trkpt lat="46.36357" lon="14.10318">
        <ele>486.010596</ele>
        <time>2026-07-12T11:41:58.000Z</time>
      </trkpt>
      <trkpt lat="46.36362" lon="14.10329">
        <ele>485.913807</ele>
        <time>2026-07-12T11:42:00.000Z</time>
      </trkpt>
      <trkpt lat="46.36387" lon="14.10374">
        <ele>485.49373</ele>
        <time>2026-07-12T11:42:09.000Z</time>
      </trkpt>
      <trkpt lat="46.364" lon="14.1042">
        <ele>485.133453</ele>
        <time>2026-07-12T11:42:16.000Z</time>
      </trkpt>
      <trkpt lat="46.36402" lon="14.10434">
        <ele>485.032341</ele>
        <time>2026-07-12T11:42:18.000Z</time>
      </trkpt>
      <trkpt lat="46.36408" lon="14.10481">
        <ele>485.298962</ele>
        <time>2026-07-12T11:42:25.000Z</time>
      </trkpt>
      <trkpt lat="46.36409" lon="14.10488">
        <ele>485.337545</ele>
        <time>2026-07-12T11:42:26.000Z</time>
      </trkpt>
      <trkpt lat="46.36414" lon="14.10507">
        <ele>485.455906</ele>
        <time>2026-07-12T11:42:29.000Z</time>
      </trkpt>
      <trkpt lat="46.36418" lon="14.10518">
        <ele>485.532058</ele>
        <time>2026-07-12T11:42:31.000Z</time>
      </trkpt>
      <trkpt lat="46.36439" lon="14.1056">
        <ele>485.830666</ele>
        <time>2026-07-12T11:42:39.000Z</time>
      </trkpt>
      <trkpt lat="46.36448" lon="14.10581">
        <ele>485.975598</ele>
        <time>2026-07-12T11:42:43.000Z</time>
      </trkpt>
      <trkpt lat="46.36453" lon="14.10598">
        <ele>486.082778</ele>
        <time>2026-07-12T11:42:46.000Z</time>
      </trkpt>
      <trkpt lat="46.36465" lon="14.10643">
        <ele>486.356747</ele>
        <time>2026-07-12T11:42:54.000Z</time>
      </trkpt>
      <trkpt lat="46.36466" lon="14.10647">
        <ele>486.387107</ele>
        <time>2026-07-12T11:42:55.000Z</time>
      </trkpt>
      <trkpt lat="46.36472" lon="14.10666">
        <ele>486.506545</ele>
        <time>2026-07-12T11:42:59.000Z</time>
      </trkpt>
      <trkpt lat="46.36489" lon="14.10699">
        <ele>487.05418</ele>
        <time>2026-07-12T11:43:06.000Z</time>
      </trkpt>
      <trkpt lat="46.36524" lon="14.10732">
        <ele>487.922158</ele>
        <time>2026-07-12T11:43:16.000Z</time>
      </trkpt>
      <trkpt lat="46.36527" lon="14.10735">
        <ele>488.004685</ele>
        <time>2026-07-12T11:43:17.000Z</time>
      </trkpt>
      <trkpt lat="46.36542" lon="14.10747">
        <ele>488.354749</ele>
        <time>2026-07-12T11:43:21.000Z</time>
      </trkpt>
      <trkpt lat="46.36546" lon="14.1075">
        <ele>488.45365</ele>
        <time>2026-07-12T11:43:22.000Z</time>
      </trkpt>
      <trkpt lat="46.36551" lon="14.10752">
        <ele>488.555023</ele>
        <time>2026-07-12T11:43:23.000Z</time>
      </trkpt>
      <trkpt lat="46.36567" lon="14.10764">
        <ele>488.925532</ele>
        <time>2026-07-12T11:43:27.000Z</time>
      </trkpt>
      <trkpt lat="46.3657" lon="14.10767">
        <ele>489.015215</ele>
        <time>2026-07-12T11:43:28.000Z</time>
      </trkpt>
      <trkpt lat="46.36574" lon="14.1077">
        <ele>489.103944</ele>
        <time>2026-07-12T11:43:29.000Z</time>
      </trkpt>
      <trkpt lat="46.36582" lon="14.10775">
        <ele>489.278872</ele>
        <time>2026-07-12T11:43:31.000Z</time>
      </trkpt>
      <trkpt lat="46.36587" lon="14.10778">
        <ele>489.403249</ele>
        <time>2026-07-12T11:43:33.000Z</time>
      </trkpt>
      <trkpt lat="46.366" lon="14.10786">
        <ele>489.690638</ele>
        <time>2026-07-12T11:43:38.000Z</time>
      </trkpt>
      <trkpt lat="46.36602" lon="14.10788">
        <ele>489.742531</ele>
        <time>2026-07-12T11:43:39.000Z</time>
      </trkpt>
      <trkpt lat="46.36618" lon="14.10797">
        <ele>490.099671</ele>
        <time>2026-07-12T11:43:45.000Z</time>
      </trkpt>
      <trkpt lat="46.36627" lon="14.10805">
        <ele>490.379192</ele>
        <time>2026-07-12T11:43:50.000Z</time>
      </trkpt>
      <trkpt lat="46.36627" lon="14.10805">
        <ele>490.379192</ele>
        <time>2026-07-12T11:43:52.000Z</time>
      </trkpt>
      <trkpt lat="46.36631" lon="14.10812">
        <ele>490.711714</ele>
        <time>2026-07-12T11:44:00.000Z</time>
      </trkpt>
      <trkpt lat="46.36634" lon="14.10813">
        <ele>490.858986</ele>
        <time>2026-07-12T11:44:01.000Z</time>
      </trkpt>
      <trkpt lat="46.36653" lon="14.10829">
        <ele>492.033675</ele>
        <time>2026-07-12T11:44:08.000Z</time>
      </trkpt>
      <trkpt lat="46.36658" lon="14.10835">
        <ele>492.37015</ele>
        <time>2026-07-12T11:44:13.000Z</time>
      </trkpt>
      <trkpt lat="46.3666" lon="14.10839">
        <ele>492.536936</ele>
        <time>2026-07-12T11:44:15.000Z</time>
      </trkpt>
      <trkpt lat="46.36665" lon="14.1085">
        <ele>493.02458</ele>
        <time>2026-07-12T11:44:19.000Z</time>
      </trkpt>
      <trkpt lat="46.36678" lon="14.10875">
        <ele>494.195328</ele>
        <time>2026-07-12T11:44:26.000Z</time>
      </trkpt>
      <trkpt lat="46.36686" lon="14.10895">
        <ele>495.064119</ele>
        <time>2026-07-12T11:44:32.000Z</time>
      </trkpt>
      <trkpt lat="46.36688" lon="14.10898">
        <ele>495.188309</ele>
        <time>2026-07-12T11:44:33.000Z</time>
      </trkpt>
      <trkpt lat="46.36691" lon="14.10907">
        <ele>495.556122</ele>
        <time>2026-07-12T11:44:38.000Z</time>
      </trkpt>
      <trkpt lat="46.36691" lon="14.10907">
        <ele>495.556122</ele>
        <time>2026-07-12T11:44:39.000Z</time>
      </trkpt>
      <trkpt lat="46.36692" lon="14.10912">
        <ele>495.744506</ele>
        <time>2026-07-12T11:45:27.000Z</time>
      </trkpt>
      <trkpt lat="46.36694" lon="14.10917">
        <ele>495.981169</ele>
        <time>2026-07-12T11:45:29.000Z</time>
      </trkpt>
      <trkpt lat="46.36696" lon="14.1092">
        <ele>496.108414</ele>
        <time>2026-07-12T11:45:30.000Z</time>
      </trkpt>
      <trkpt lat="46.367" lon="14.1093">
        <ele>496.527916</ele>
        <time>2026-07-12T11:45:33.000Z</time>
      </trkpt>
      <trkpt lat="46.36709" lon="14.10961">
        <ele>497.774953</ele>
        <time>2026-07-12T11:45:42.000Z</time>
      </trkpt>
      <trkpt lat="46.36715" lon="14.10983">
        <ele>498.650866</ele>
        <time>2026-07-12T11:45:48.000Z</time>
      </trkpt>
      <trkpt lat="46.36723" lon="14.11009">
        <ele>499.698078</ele>
        <time>2026-07-12T11:45:55.000Z</time>
      </trkpt>
      <trkpt lat="46.36725" lon="14.11021">
        <ele>500.109977</ele>
        <time>2026-07-12T11:45:58.000Z</time>
      </trkpt>
      <trkpt lat="46.36727" lon="14.11028">
        <ele>500.355763</ele>
        <time>2026-07-12T11:46:00.000Z</time>
      </trkpt>
      <trkpt lat="46.36729" lon="14.11034">
        <ele>500.56383</ele>
        <time>2026-07-12T11:46:02.000Z</time>
      </trkpt>
      <trkpt lat="46.36733" lon="14.11042">
        <ele>500.890487</ele>
        <time>2026-07-12T11:46:07.000Z</time>
      </trkpt>
      <trkpt lat="46.36733" lon="14.11042">
        <ele>500.890487</ele>
        <time>2026-07-12T11:46:08.000Z</time>
      </trkpt>
      <trkpt lat="46.36737" lon="14.11038">
        <ele>501.134284</ele>
        <time>2026-07-12T11:48:55.000Z</time>
      </trkpt>
      <trkpt lat="46.36737" lon="14.11037">
        <ele>501.18281</ele>
        <time>2026-07-12T11:48:57.000Z</time>
      </trkpt>
      <trkpt lat="46.36729" lon="14.11029">
        <ele>501.625301</ele>
        <time>2026-07-12T11:49:28.000Z</time>
      </trkpt>
      <trkpt lat="46.36728" lon="14.11028">
        <ele>501.69343</ele>
        <time>2026-07-12T11:49:30.000Z</time>
      </trkpt>
      <trkpt lat="46.36723" lon="14.11027">
        <ele>501.910493</ele>
        <time>2026-07-12T12:50:22.000Z</time>
      </trkpt>
      <trkpt lat="46.36721" lon="14.11029">
        <ele>502.02209</ele>
        <time>2026-07-12T12:50:23.000Z</time>
      </trkpt>
      <trkpt lat="46.3672" lon="14.1103">
        <ele>502.086686</ele>
        <time>2026-07-12T12:50:24.000Z</time>
      </trkpt>
      <trkpt lat="46.3672" lon="14.11031">
        <ele>502.105296</ele>
        <time>2026-07-12T12:50:25.000Z</time>
      </trkpt>
      <trkpt lat="46.36727" lon="14.11031">
        <ele>502.441303</ele>
        <time>2026-07-12T12:51:09.000Z</time>
      </trkpt>
      <trkpt lat="46.36727" lon="14.11031">
        <ele>502.459969</ele>
        <time>2026-07-12T12:51:11.000Z</time>
      </trkpt>
      <trkpt lat="46.36728" lon="14.11046">
        <ele>502.949621</ele>
        <time>2026-07-12T12:54:03.000Z</time>
      </trkpt>
      <trkpt lat="46.36727" lon="14.1105">
        <ele>503.070217</ele>
        <time>2026-07-12T12:54:04.000Z</time>
      </trkpt>
      <trkpt lat="46.36728" lon="14.11054">
        <ele>503.224179</ele>
        <time>2026-07-12T12:54:09.000Z</time>
      </trkpt>
      <trkpt lat="46.36736" lon="14.11061">
        <ele>503.661893</ele>
        <time>2026-07-12T12:54:22.000Z</time>
      </trkpt>
      <trkpt lat="46.36738" lon="14.11064">
        <ele>503.791764</ele>
        <time>2026-07-12T12:54:23.000Z</time>
      </trkpt>
      <trkpt lat="46.36744" lon="14.11084">
        <ele>504.510433</ele>
        <time>2026-07-12T12:54:28.000Z</time>
      </trkpt>
      <trkpt lat="46.36745" lon="14.11088">
        <ele>504.644406</ele>
        <time>2026-07-12T12:54:29.000Z</time>
      </trkpt>
      <trkpt lat="46.36747" lon="14.11092">
        <ele>504.791</ele>
        <time>2026-07-12T12:54:30.000Z</time>
      </trkpt>
      <trkpt lat="46.36751" lon="14.1111">
        <ele>505.405903</ele>
        <time>2026-07-12T12:54:35.000Z</time>
      </trkpt>
      <trkpt lat="46.36753" lon="14.11119">
        <ele>505.698658</ele>
        <time>2026-07-12T12:54:37.000Z</time>
      </trkpt>
      <trkpt lat="46.36762" lon="14.11148">
        <ele>506.737278</ele>
        <time>2026-07-12T12:54:46.000Z</time>
      </trkpt>
      <trkpt lat="46.36763" lon="14.11155">
        <ele>506.948579</ele>
        <time>2026-07-12T12:54:48.000Z</time>
      </trkpt>
      <trkpt lat="46.3677" lon="14.11175">
        <ele>507.668257</ele>
        <time>2026-07-12T12:54:55.000Z</time>
      </trkpt>
      <trkpt lat="46.36778" lon="14.11202">
        <ele>508.375979</ele>
        <time>2026-07-12T12:55:04.000Z</time>
      </trkpt>
      <trkpt lat="46.36781" lon="14.11208">
        <ele>508.442035</ele>
        <time>2026-07-12T12:55:06.000Z</time>
      </trkpt>
      <trkpt lat="46.36787" lon="14.11224">
        <ele>508.618091</ele>
        <time>2026-07-12T12:55:11.000Z</time>
      </trkpt>
      <trkpt lat="46.36787" lon="14.11233">
        <ele>508.707993</ele>
        <time>2026-07-12T12:55:14.000Z</time>
      </trkpt>
      <trkpt lat="46.36787" lon="14.11236">
        <ele>508.740704</ele>
        <time>2026-07-12T12:55:15.000Z</time>
      </trkpt>
      <trkpt lat="46.36792" lon="14.1125">
        <ele>508.891543</ele>
        <time>2026-07-12T12:55:20.000Z</time>
      </trkpt>
      <trkpt lat="46.368" lon="14.11269">
        <ele>509.109973</ele>
        <time>2026-07-12T12:55:27.000Z</time>
      </trkpt>
      <trkpt lat="46.36805" lon="14.11289">
        <ele>509.323101</ele>
        <time>2026-07-12T12:55:34.000Z</time>
      </trkpt>
      <trkpt lat="46.36807" lon="14.11295">
        <ele>509.392805</ele>
        <time>2026-07-12T12:55:36.000Z</time>
      </trkpt>
      <trkpt lat="46.36814" lon="14.1132">
        <ele>509.653952</ele>
        <time>2026-07-12T12:55:44.000Z</time>
      </trkpt>
      <trkpt lat="46.36814" lon="14.11323">
        <ele>509.686663</ele>
        <time>2026-07-12T12:55:45.000Z</time>
      </trkpt>
      <trkpt lat="46.36814" lon="14.11325">
        <ele>509.710533</ele>
        <time>2026-07-12T12:55:46.000Z</time>
      </trkpt>
      <trkpt lat="46.36818" lon="14.11352">
        <ele>509.976158</ele>
        <time>2026-07-12T12:55:54.000Z</time>
      </trkpt>
      <trkpt lat="46.36819" lon="14.11363">
        <ele>510.085011</ele>
        <time>2026-07-12T12:55:58.000Z</time>
      </trkpt>
      <trkpt lat="46.36818" lon="14.11379">
        <ele>510.247994</ele>
        <time>2026-07-12T12:56:02.000Z</time>
      </trkpt>
      <trkpt lat="46.3682" lon="14.11398">
        <ele>510.438543</ele>
        <time>2026-07-12T12:56:07.000Z</time>
      </trkpt>
      <trkpt lat="46.36821" lon="14.11415">
        <ele>510.607492</ele>
        <time>2026-07-12T12:56:11.000Z</time>
      </trkpt>
      <trkpt lat="46.36825" lon="14.11455">
        <ele>510.493612</ele>
        <time>2026-07-12T12:56:20.000Z</time>
      </trkpt>
      <trkpt lat="46.36833" lon="14.11507">
        <ele>509.436989</ele>
        <time>2026-07-12T12:56:30.000Z</time>
      </trkpt>
      <trkpt lat="46.36842" lon="14.11551">
        <ele>508.523979</ele>
        <time>2026-07-12T12:56:37.000Z</time>
      </trkpt>
      <trkpt lat="46.36843" lon="14.11558">
        <ele>508.382241</ele>
        <time>2026-07-12T12:56:38.000Z</time>
      </trkpt>
      <trkpt lat="46.36848" lon="14.11586">
        <ele>507.81613</ele>
        <time>2026-07-12T12:56:42.000Z</time>
      </trkpt>
      <trkpt lat="46.36851" lon="14.11612">
        <ele>507.27718</ele>
        <time>2026-07-12T12:56:46.000Z</time>
      </trkpt>
      <trkpt lat="46.36854" lon="14.11632">
        <ele>506.882379</ele>
        <time>2026-07-12T12:56:49.000Z</time>
      </trkpt>
      <trkpt lat="46.36854" lon="14.11638">
        <ele>506.756444</ele>
        <time>2026-07-12T12:56:50.000Z</time>
      </trkpt>
      <trkpt lat="46.36854" lon="14.11658">
        <ele>506.352351</ele>
        <time>2026-07-12T12:56:53.000Z</time>
      </trkpt>
      <trkpt lat="46.36857" lon="14.11678">
        <ele>505.95269</ele>
        <time>2026-07-12T12:56:56.000Z</time>
      </trkpt>
      <trkpt lat="46.3686" lon="14.11703">
        <ele>505.538118</ele>
        <time>2026-07-12T12:57:00.000Z</time>
      </trkpt>
      <trkpt lat="46.36859" lon="14.1173">
        <ele>505.229558</ele>
        <time>2026-07-12T12:57:04.000Z</time>
      </trkpt>
      <trkpt lat="46.36854" lon="14.11794">
        <ele>504.513065</ele>
        <time>2026-07-12T12:57:13.000Z</time>
      </trkpt>
      <trkpt lat="46.36851" lon="14.11832">
        <ele>504.089467</ele>
        <time>2026-07-12T12:57:18.000Z</time>
      </trkpt>
      <trkpt lat="46.36848" lon="14.11847">
        <ele>503.914297</ele>
        <time>2026-07-12T12:57:20.000Z</time>
      </trkpt>
      <trkpt lat="46.36839" lon="14.11892">
        <ele>503.39023</ele>
        <time>2026-07-12T12:57:26.000Z</time>
      </trkpt>
      <trkpt lat="46.36836" lon="14.11908">
        <ele>503.208591</ele>
        <time>2026-07-12T12:57:28.000Z</time>
      </trkpt>
      <trkpt lat="46.36823" lon="14.11939">
        <ele>502.797876</ele>
        <time>2026-07-12T12:57:32.000Z</time>
      </trkpt>
      <trkpt lat="46.3682" lon="14.11947">
        <ele>502.673995</ele>
        <time>2026-07-12T12:57:33.000Z</time>
      </trkpt>
      <trkpt lat="46.36809" lon="14.11976">
        <ele>502.072686</ele>
        <time>2026-07-12T12:57:37.000Z</time>
      </trkpt>
      <trkpt lat="46.36798" lon="14.12002">
        <ele>501.53576</ele>
        <time>2026-07-12T12:57:41.000Z</time>
      </trkpt>
      <trkpt lat="46.36792" lon="14.12013">
        <ele>501.283003</ele>
        <time>2026-07-12T12:57:43.000Z</time>
      </trkpt>
      <trkpt lat="46.36781" lon="14.12027">
        <ele>500.913353</ele>
        <time>2026-07-12T12:57:46.000Z</time>
      </trkpt>
      <trkpt lat="46.36775" lon="14.12037">
        <ele>500.654475</ele>
        <time>2026-07-12T12:57:48.000Z</time>
      </trkpt>
      <trkpt lat="46.36766" lon="14.12056">
        <ele>500.243172</ele>
        <time>2026-07-12T12:57:51.000Z</time>
      </trkpt>
      <trkpt lat="46.36751" lon="14.12083">
        <ele>499.619494</ele>
        <time>2026-07-12T12:57:55.000Z</time>
      </trkpt>
      <trkpt lat="46.36726" lon="14.12125">
        <ele>498.630903</ele>
        <time>2026-07-12T12:58:00.000Z</time>
      </trkpt>
      <trkpt lat="46.36691" lon="14.12185">
        <ele>496.300783</ele>
        <time>2026-07-12T12:58:07.000Z</time>
      </trkpt>
      <trkpt lat="46.36688" lon="14.12196">
        <ele>495.82285</ele>
        <time>2026-07-12T12:58:08.000Z</time>
      </trkpt>
      <trkpt lat="46.36685" lon="14.12207">
        <ele>495.372373</ele>
        <time>2026-07-12T12:58:09.000Z</time>
      </trkpt>
      <trkpt lat="46.36683" lon="14.12228">
        <ele>494.581538</ele>
        <time>2026-07-12T12:58:11.000Z</time>
      </trkpt>
      <trkpt lat="46.36684" lon="14.12241">
        <ele>494.084552</ele>
        <time>2026-07-12T12:58:12.000Z</time>
      </trkpt>
      <trkpt lat="46.36685" lon="14.12251">
        <ele>493.688093</ele>
        <time>2026-07-12T12:58:13.000Z</time>
      </trkpt>
      <trkpt lat="46.36687" lon="14.12262">
        <ele>493.254646</ele>
        <time>2026-07-12T12:58:14.000Z</time>
      </trkpt>
      <trkpt lat="46.3669" lon="14.1232">
        <ele>491.018784</ele>
        <time>2026-07-12T12:58:20.000Z</time>
      </trkpt>
      <trkpt lat="46.3669" lon="14.12329">
        <ele>490.689267</ele>
        <time>2026-07-12T12:58:21.000Z</time>
      </trkpt>
      <trkpt lat="46.36694" lon="14.12376">
        <ele>488.87313</ele>
        <time>2026-07-12T12:58:27.000Z</time>
      </trkpt>
      <trkpt lat="46.36699" lon="14.1243">
        <ele>487.198642</ele>
        <time>2026-07-12T12:58:33.000Z</time>
      </trkpt>
      <trkpt lat="46.36701" lon="14.1246">
        <ele>486.40376</ele>
        <time>2026-07-12T12:58:36.000Z</time>
      </trkpt>
      <trkpt lat="46.36702" lon="14.12476">
        <ele>485.981387</ele>
        <time>2026-07-12T12:58:38.000Z</time>
      </trkpt>
      <trkpt lat="46.36702" lon="14.125">
        <ele>485.350817</ele>
        <time>2026-07-12T12:58:42.000Z</time>
      </trkpt>
      <trkpt lat="46.36701" lon="14.12506">
        <ele>485.199022</ele>
        <time>2026-07-12T12:58:43.000Z</time>
      </trkpt>
      <trkpt lat="46.36695" lon="14.12545">
        <ele>484.128269</ele>
        <time>2026-07-12T12:58:47.000Z</time>
      </trkpt>
      <trkpt lat="46.36681" lon="14.12611">
        <ele>482.282082</ele>
        <time>2026-07-12T12:58:53.000Z</time>
      </trkpt>
      <trkpt lat="46.36677" lon="14.12621">
        <ele>481.986116</ele>
        <time>2026-07-12T12:58:54.000Z</time>
      </trkpt>
      <trkpt lat="46.36672" lon="14.12636">
        <ele>481.54805</ele>
        <time>2026-07-12T12:58:55.000Z</time>
      </trkpt>
      <trkpt lat="46.36662" lon="14.12677">
        <ele>480.318467</ele>
        <time>2026-07-12T12:58:58.000Z</time>
      </trkpt>
      <trkpt lat="46.36657" lon="14.12716">
        <ele>479.18229</ele>
        <time>2026-07-12T12:59:01.000Z</time>
      </trkpt>
      <trkpt lat="46.36656" lon="14.1273">
        <ele>478.780711</ele>
        <time>2026-07-12T12:59:02.000Z</time>
      </trkpt>
      <trkpt lat="46.36658" lon="14.12777">
        <ele>477.428358</ele>
        <time>2026-07-12T12:59:05.000Z</time>
      </trkpt>
      <trkpt lat="46.3666" lon="14.12804">
        <ele>476.629697</ele>
        <time>2026-07-12T12:59:07.000Z</time>
      </trkpt>
      <trkpt lat="46.36663" lon="14.1282">
        <ele>476.155845</ele>
        <time>2026-07-12T12:59:08.000Z</time>
      </trkpt>
      <trkpt lat="46.36672" lon="14.12852">
        <ele>475.151525</ele>
        <time>2026-07-12T12:59:10.000Z</time>
      </trkpt>
      <trkpt lat="46.36679" lon="14.12883">
        <ele>474.196116</ele>
        <time>2026-07-12T12:59:12.000Z</time>
      </trkpt>
      <trkpt lat="46.36681" lon="14.129">
        <ele>473.720891</ele>
        <time>2026-07-12T12:59:13.000Z</time>
      </trkpt>
      <trkpt lat="46.36683" lon="14.12918">
        <ele>472.783102</ele>
        <time>2026-07-12T12:59:14.000Z</time>
      </trkpt>
      <trkpt lat="46.3668" lon="14.12974">
        <ele>469.90663</ele>
        <time>2026-07-12T12:59:18.000Z</time>
      </trkpt>
      <trkpt lat="46.3668" lon="14.12989">
        <ele>469.167425</ele>
        <time>2026-07-12T12:59:19.000Z</time>
      </trkpt>
      <trkpt lat="46.36683" lon="14.13019">
        <ele>467.624292</ele>
        <time>2026-07-12T12:59:21.000Z</time>
      </trkpt>
      <trkpt lat="46.3669" lon="14.13047">
        <ele>466.057604</ele>
        <time>2026-07-12T12:59:23.000Z</time>
      </trkpt>
      <trkpt lat="46.367" lon="14.13075">
        <ele>464.453918</ele>
        <time>2026-07-12T12:59:25.000Z</time>
      </trkpt>
      <trkpt lat="46.3672" lon="14.13143">
        <ele>460.660645</ele>
        <time>2026-07-12T12:59:30.000Z</time>
      </trkpt>
      <trkpt lat="46.36722" lon="14.13153">
        <ele>460.164409</ele>
        <time>2026-07-12T12:59:31.000Z</time>
      </trkpt>
      <trkpt lat="46.36726" lon="14.1317">
        <ele>459.295273</ele>
        <time>2026-07-12T12:59:33.000Z</time>
      </trkpt>
      <trkpt lat="46.36748" lon="14.13226">
        <ele>456.224926</ele>
        <time>2026-07-12T12:59:39.000Z</time>
      </trkpt>
      <trkpt lat="46.36756" lon="14.13244">
        <ele>455.191886</ele>
        <time>2026-07-12T12:59:42.000Z</time>
      </trkpt>
      <trkpt lat="46.36758" lon="14.13249">
        <ele>454.912683</ele>
        <time>2026-07-12T12:59:43.000Z</time>
      </trkpt>
      <trkpt lat="46.36764" lon="14.13265">
        <ele>454.067376</ele>
        <time>2026-07-12T12:59:47.000Z</time>
      </trkpt>
      <trkpt lat="46.36777" lon="14.13289">
        <ele>452.580942</ele>
        <time>2026-07-12T12:59:53.000Z</time>
      </trkpt>
      <trkpt lat="46.36783" lon="14.13303">
        <ele>451.799607</ele>
        <time>2026-07-12T12:59:55.000Z</time>
      </trkpt>
      <trkpt lat="46.36788" lon="14.1332">
        <ele>450.922187</ele>
        <time>2026-07-12T12:59:57.000Z</time>
      </trkpt>
      <trkpt lat="46.36791" lon="14.13353">
        <ele>449.350549</ele>
        <time>2026-07-12T13:00:00.000Z</time>
      </trkpt>
      <trkpt lat="46.36791" lon="14.13364">
        <ele>448.792468</ele>
        <time>2026-07-12T13:00:01.000Z</time>
      </trkpt>
      <trkpt lat="46.36785" lon="14.1341">
        <ele>447.531728</ele>
        <time>2026-07-12T13:00:05.000Z</time>
      </trkpt>
      <trkpt lat="46.36782" lon="14.13421">
        <ele>447.386837</ele>
        <time>2026-07-12T13:00:06.000Z</time>
      </trkpt>
      <trkpt lat="46.36774" lon="14.1344">
        <ele>447.107765</ele>
        <time>2026-07-12T13:00:08.000Z</time>
      </trkpt>
      <trkpt lat="46.36757" lon="14.13482">
        <ele>446.495766</ele>
        <time>2026-07-12T13:00:13.000Z</time>
      </trkpt>
      <trkpt lat="46.36742" lon="14.1353">
        <ele>445.842624</ele>
        <time>2026-07-12T13:00:19.000Z</time>
      </trkpt>
      <trkpt lat="46.36731" lon="14.13567">
        <ele>445.335208</ele>
        <time>2026-07-12T13:00:25.000Z</time>
      </trkpt>
      <trkpt lat="46.36718" lon="14.13602">
        <ele>444.830752</ele>
        <time>2026-07-12T13:00:32.000Z</time>
      </trkpt>
      <trkpt lat="46.36715" lon="14.13606">
        <ele>444.750345</ele>
        <time>2026-07-12T13:00:33.000Z</time>
      </trkpt>
      <trkpt lat="46.36707" lon="14.13622">
        <ele>445.017791</ele>
        <time>2026-07-12T13:00:37.000Z</time>
      </trkpt>
      <trkpt lat="46.36698" lon="14.13636">
        <ele>446.02788</ele>
        <time>2026-07-12T13:00:42.000Z</time>
      </trkpt>
      <trkpt lat="46.36694" lon="14.13642">
        <ele>446.423022</ele>
        <time>2026-07-12T13:00:44.000Z</time>
      </trkpt>
      <trkpt lat="46.36685" lon="14.13658">
        <ele>447.553462</ele>
        <time>2026-07-12T13:00:50.000Z</time>
      </trkpt>
      <trkpt lat="46.36675" lon="14.13672">
        <ele>448.620071</ele>
        <time>2026-07-12T13:00:56.000Z</time>
      </trkpt>
      <trkpt lat="46.36663" lon="14.13691">
        <ele>449.937898</ele>
        <time>2026-07-12T13:01:03.000Z</time>
      </trkpt>
      <trkpt lat="46.36651" lon="14.13709">
        <ele>451.235358</ele>
        <time>2026-07-12T13:01:10.000Z</time>
      </trkpt>
      <trkpt lat="46.36649" lon="14.13715">
        <ele>451.626417</ele>
        <time>2026-07-12T13:01:12.000Z</time>
      </trkpt>
      <trkpt lat="46.36642" lon="14.13733">
        <ele>452.682412</ele>
        <time>2026-07-12T13:01:17.000Z</time>
      </trkpt>
      <trkpt lat="46.36638" lon="14.13741">
        <ele>453.225626</ele>
        <time>2026-07-12T13:01:20.000Z</time>
      </trkpt>
      <trkpt lat="46.36634" lon="14.13758">
        <ele>454.180175</ele>
        <time>2026-07-12T13:01:25.000Z</time>
      </trkpt>
      <trkpt lat="46.36633" lon="14.13762">
        <ele>454.369955</ele>
        <time>2026-07-12T13:01:26.000Z</time>
      </trkpt>
      <trkpt lat="46.36626" lon="14.13785">
        <ele>455.717118</ele>
        <time>2026-07-12T13:01:33.000Z</time>
      </trkpt>
      <trkpt lat="46.36625" lon="14.13792">
        <ele>456.060617</ele>
        <time>2026-07-12T13:01:35.000Z</time>
      </trkpt>
      <trkpt lat="46.36619" lon="14.13809">
        <ele>457.076352</ele>
        <time>2026-07-12T13:01:40.000Z</time>
      </trkpt>
      <trkpt lat="46.36616" lon="14.13817">
        <ele>457.558116</ele>
        <time>2026-07-12T13:01:42.000Z</time>
      </trkpt>
      <trkpt lat="46.36614" lon="14.13825">
        <ele>457.983811</ele>
        <time>2026-07-12T13:01:44.000Z</time>
      </trkpt>
      <trkpt lat="46.3661" lon="14.13837">
        <ele>458.346062</ele>
        <time>2026-07-12T13:01:47.000Z</time>
      </trkpt>
      <trkpt lat="46.36604" lon="14.13863">
        <ele>458.407421</ele>
        <time>2026-07-12T13:01:53.000Z</time>
      </trkpt>
      <trkpt lat="46.36598" lon="14.13899">
        <ele>458.492639</ele>
        <time>2026-07-12T13:02:01.000Z</time>
      </trkpt>
      <trkpt lat="46.36589" lon="14.13942">
        <ele>458.593331</ele>
        <time>2026-07-12T13:02:09.000Z</time>
      </trkpt>
      <trkpt lat="46.36584" lon="14.1396">
        <ele>458.637976</ele>
        <time>2026-07-12T13:02:12.000Z</time>
      </trkpt>
      <trkpt lat="46.3658" lon="14.13979">
        <ele>458.682406</ele>
        <time>2026-07-12T13:02:15.000Z</time>
      </trkpt>
      <trkpt lat="46.36574" lon="14.14006">
        <ele>458.745791</ele>
        <time>2026-07-12T13:02:21.000Z</time>
      </trkpt>
      <trkpt lat="46.36567" lon="14.14031">
        <ele>458.808321</ele>
        <time>2026-07-12T13:02:28.000Z</time>
      </trkpt>
      <trkpt lat="46.36551" lon="14.14069">
        <ele>458.908558</ele>
        <time>2026-07-12T13:02:39.000Z</time>
      </trkpt>
      <trkpt lat="46.36544" lon="14.14088">
        <ele>458.962617</ele>
        <time>2026-07-12T13:02:45.000Z</time>
      </trkpt>
      <trkpt lat="46.36535" lon="14.14103">
        <ele>459.014754</ele>
        <time>2026-07-12T13:02:50.000Z</time>
      </trkpt>
      <trkpt lat="46.3653" lon="14.1412">
        <ele>459.061846</ele>
        <time>2026-07-12T13:02:56.000Z</time>
      </trkpt>
      <trkpt lat="46.36527" lon="14.14137">
        <ele>459.105193</ele>
        <time>2026-07-12T13:03:01.000Z</time>
      </trkpt>
      <trkpt lat="46.3652" lon="14.14156">
        <ele>459.160483</ele>
        <time>2026-07-12T13:03:07.000Z</time>
      </trkpt>
      <trkpt lat="46.36502" lon="14.14174">
        <ele>459.243606</ele>
        <time>2026-07-12T13:03:14.000Z</time>
      </trkpt>
      <trkpt lat="46.36493" lon="14.14192">
        <ele>459.29932</ele>
        <time>2026-07-12T13:03:20.000Z</time>
      </trkpt>
      <trkpt lat="46.36492" lon="14.142">
        <ele>459.321735</ele>
        <time>2026-07-12T13:03:22.000Z</time>
      </trkpt>
      <trkpt lat="46.36494" lon="14.14204">
        <ele>459.333434</ele>
        <time>2026-07-12T13:03:23.000Z</time>
      </trkpt>
      <trkpt lat="46.36504" lon="14.14225">
        <ele>459.397811</ele>
        <time>2026-07-12T13:03:29.000Z</time>
      </trkpt>
      <trkpt lat="46.36499" lon="14.14244">
        <ele>459.450453</ele>
        <time>2026-07-12T13:03:34.000Z</time>
      </trkpt>
      <trkpt lat="46.36488" lon="14.1428">
        <ele>459.550858</ele>
        <time>2026-07-12T13:03:43.000Z</time>
      </trkpt>
      <trkpt lat="46.36477" lon="14.14315">
        <ele>460.216378</ele>
        <time>2026-07-12T13:03:52.000Z</time>
      </trkpt>
      <trkpt lat="46.36466" lon="14.14345">
        <ele>461.069898</ele>
        <time>2026-07-12T13:04:00.000Z</time>
      </trkpt>
      <trkpt lat="46.36451" lon="14.1439">
        <ele>462.361464</ele>
        <time>2026-07-12T13:04:12.000Z</time>
      </trkpt>
      <trkpt lat="46.36443" lon="14.14421">
        <ele>463.229899</ele>
        <time>2026-07-12T13:04:21.000Z</time>
      </trkpt>
      <trkpt lat="46.36434" lon="14.14447">
        <ele>463.979042</ele>
        <time>2026-07-12T13:04:28.000Z</time>
      </trkpt>
      <trkpt lat="46.3643" lon="14.14456">
        <ele>464.240413</ele>
        <time>2026-07-12T13:04:31.000Z</time>
      </trkpt>
      <trkpt lat="46.36426" lon="14.1447">
        <ele>464.628446</ele>
        <time>2026-07-12T13:04:36.000Z</time>
      </trkpt>
      <trkpt lat="46.36424" lon="14.14483">
        <ele>464.978239</ele>
        <time>2026-07-12T13:04:41.000Z</time>
      </trkpt>
      <trkpt lat="46.3642" lon="14.14495">
        <ele>465.326821</ele>
        <time>2026-07-12T13:04:47.000Z</time>
      </trkpt>
      <trkpt lat="46.3642" lon="14.14498">
        <ele>465.382076</ele>
        <time>2026-07-12T13:04:48.000Z</time>
      </trkpt>
      <trkpt lat="46.36417" lon="14.14512">
        <ele>465.761162</ele>
        <time>2026-07-12T13:04:55.000Z</time>
      </trkpt>
      <trkpt lat="46.36413" lon="14.14528">
        <ele>466.215418</ele>
        <time>2026-07-12T13:05:03.000Z</time>
      </trkpt>
      <trkpt lat="46.36408" lon="14.14548">
        <ele>466.946165</ele>
        <time>2026-07-12T13:05:12.000Z</time>
      </trkpt>
      <trkpt lat="46.36405" lon="14.14566">
        <ele>467.635303</ele>
        <time>2026-07-12T13:05:20.000Z</time>
      </trkpt>
      <trkpt lat="46.36403" lon="14.14587">
        <ele>468.400097</ele>
        <time>2026-07-12T13:05:29.000Z</time>
      </trkpt>
      <trkpt lat="46.36401" lon="14.14602">
        <ele>468.943887</ele>
        <time>2026-07-12T13:05:34.000Z</time>
      </trkpt>
      <trkpt lat="46.36401" lon="14.14607">
        <ele>469.156969</ele>
        <time>2026-07-12T13:05:36.000Z</time>
      </trkpt>
      <trkpt lat="46.36397" lon="14.14644">
        <ele>470.540059</ele>
        <time>2026-07-12T13:05:45.000Z</time>
      </trkpt>
      <trkpt lat="46.36397" lon="14.14674">
        <ele>471.618819</ele>
        <time>2026-07-12T13:05:53.000Z</time>
      </trkpt>
      <trkpt lat="46.36397" lon="14.14703">
        <ele>472.701456</ele>
        <time>2026-07-12T13:06:01.000Z</time>
      </trkpt>
      <trkpt lat="46.36396" lon="14.14737">
        <ele>473.943303</ele>
        <time>2026-07-12T13:06:11.000Z</time>
      </trkpt>
      <trkpt lat="46.36393" lon="14.14758">
        <ele>474.729123</ele>
        <time>2026-07-12T13:06:18.000Z</time>
      </trkpt>
      <trkpt lat="46.3639" lon="14.14776">
        <ele>475.418074</ele>
        <time>2026-07-12T13:06:25.000Z</time>
      </trkpt>
      <trkpt lat="46.36387" lon="14.14794">
        <ele>476.222172</ele>
        <time>2026-07-12T13:06:32.000Z</time>
      </trkpt>
      <trkpt lat="46.36383" lon="14.14809">
        <ele>477.118555</ele>
        <time>2026-07-12T13:06:38.000Z</time>
      </trkpt>
      <trkpt lat="46.36378" lon="14.1483">
        <ele>478.32813</ele>
        <time>2026-07-12T13:06:46.000Z</time>
      </trkpt>
      <trkpt lat="46.36372" lon="14.14854">
        <ele>479.740662</ele>
        <time>2026-07-12T13:06:56.000Z</time>
      </trkpt>
      <trkpt lat="46.36364" lon="14.14879">
        <ele>481.312807</ele>
        <time>2026-07-12T13:07:07.000Z</time>
      </trkpt>
      <trkpt lat="46.36357" lon="14.14895">
        <ele>482.378951</ele>
        <time>2026-07-12T13:07:15.000Z</time>
      </trkpt>
      <trkpt lat="46.36352" lon="14.14911">
        <ele>483.338041</ele>
        <time>2026-07-12T13:07:22.000Z</time>
      </trkpt>
      <trkpt lat="46.36348" lon="14.14927">
        <ele>484.285976</ele>
        <time>2026-07-12T13:07:29.000Z</time>
      </trkpt>
      <trkpt lat="46.36346" lon="14.14933">
        <ele>484.696373</ele>
        <time>2026-07-12T13:07:32.000Z</time>
      </trkpt>
      <trkpt lat="46.36345" lon="14.1494">
        <ele>485.092531</ele>
        <time>2026-07-12T13:07:35.000Z</time>
      </trkpt>
      <trkpt lat="46.36345" lon="14.14943">
        <ele>485.223473</ele>
        <time>2026-07-12T13:07:36.000Z</time>
      </trkpt>
      <trkpt lat="46.36345" lon="14.14945">
        <ele>485.340949</ele>
        <time>2026-07-12T13:07:37.000Z</time>
      </trkpt>
      <trkpt lat="46.36344" lon="14.14969">
        <ele>486.67914</ele>
        <time>2026-07-12T13:07:48.000Z</time>
      </trkpt>
      <trkpt lat="46.36342" lon="14.14981">
        <ele>487.413648</ele>
        <time>2026-07-12T13:07:54.000Z</time>
      </trkpt>
      <trkpt lat="46.36345" lon="14.15">
        <ele>488.482191</ele>
        <time>2026-07-12T13:08:02.000Z</time>
      </trkpt>
      <trkpt lat="46.36345" lon="14.15018">
        <ele>489.478466</ele>
        <time>2026-07-12T13:08:09.000Z</time>
      </trkpt>
      <trkpt lat="46.36351" lon="14.15044">
        <ele>490.855089</ele>
        <time>2026-07-12T13:08:19.000Z</time>
      </trkpt>
      <trkpt lat="46.3636" lon="14.15063">
        <ele>491.793949</ele>
        <time>2026-07-12T13:08:28.000Z</time>
      </trkpt>
      <trkpt lat="46.36367" lon="14.15086">
        <ele>492.821822</ele>
        <time>2026-07-12T13:08:37.000Z</time>
      </trkpt>
      <trkpt lat="46.36373" lon="14.15116">
        <ele>494.098601</ele>
        <time>2026-07-12T13:08:48.000Z</time>
      </trkpt>
      <trkpt lat="46.36373" lon="14.15136">
        <ele>494.890541</ele>
        <time>2026-07-12T13:08:55.000Z</time>
      </trkpt>
      <trkpt lat="46.36373" lon="14.15153">
        <ele>495.600941</ele>
        <time>2026-07-12T13:09:02.000Z</time>
      </trkpt>
      <trkpt lat="46.36371" lon="14.15176">
        <ele>496.516399</ele>
        <time>2026-07-12T13:09:10.000Z</time>
      </trkpt>
      <trkpt lat="46.36369" lon="14.15197">
        <ele>497.386488</ele>
        <time>2026-07-12T13:09:18.000Z</time>
      </trkpt>
      <trkpt lat="46.36364" lon="14.15215">
        <ele>498.156031</ele>
        <time>2026-07-12T13:09:25.000Z</time>
      </trkpt>
      <trkpt lat="46.36359" lon="14.1523">
        <ele>498.84325</ele>
        <time>2026-07-12T13:09:31.000Z</time>
      </trkpt>
      <trkpt lat="46.36352" lon="14.15256">
        <ele>499.988932</ele>
        <time>2026-07-12T13:09:41.000Z</time>
      </trkpt>
      <trkpt lat="46.36349" lon="14.15273">
        <ele>500.677675</ele>
        <time>2026-07-12T13:09:47.000Z</time>
      </trkpt>
      <trkpt lat="46.36345" lon="14.15295">
        <ele>500.981955</ele>
        <time>2026-07-12T13:09:55.000Z</time>
      </trkpt>
      <trkpt lat="46.36339" lon="14.15313">
        <ele>500.91786</ele>
        <time>2026-07-12T13:10:02.000Z</time>
      </trkpt>
      <trkpt lat="46.36333" lon="14.15333">
        <ele>500.847776</ele>
        <time>2026-07-12T13:10:09.000Z</time>
      </trkpt>
      <trkpt lat="46.36325" lon="14.15355">
        <ele>500.766232</ele>
        <time>2026-07-12T13:10:16.000Z</time>
      </trkpt>
      <trkpt lat="46.36318" lon="14.15371">
        <ele>500.705417</ele>
        <time>2026-07-12T13:10:21.000Z</time>
      </trkpt>
      <trkpt lat="46.36317" lon="14.15375">
        <ele>500.690552</ele>
        <time>2026-07-12T13:10:22.000Z</time>
      </trkpt>
      <trkpt lat="46.36311" lon="14.15386">
        <ele>500.646633</ele>
        <time>2026-07-12T13:10:25.000Z</time>
      </trkpt>
      <trkpt lat="46.36304" lon="14.15403">
        <ele>500.582233</ele>
        <time>2026-07-12T13:10:29.000Z</time>
      </trkpt>
      <trkpt lat="46.36293" lon="14.15428">
        <ele>500.488291</ele>
        <time>2026-07-12T13:10:35.000Z</time>
      </trkpt>
      <trkpt lat="46.36288" lon="14.15441">
        <ele>500.439356</ele>
        <time>2026-07-12T13:10:38.000Z</time>
      </trkpt>
      <trkpt lat="46.36268" lon="14.15489">
        <ele>500.258799</ele>
        <time>2026-07-12T13:10:49.000Z</time>
      </trkpt>
      <trkpt lat="46.36266" lon="14.15494">
        <ele>500.240716</ele>
        <time>2026-07-12T13:10:50.000Z</time>
      </trkpt>
      <trkpt lat="46.36255" lon="14.15519">
        <ele>500.426137</ele>
        <time>2026-07-12T13:10:56.000Z</time>
      </trkpt>
      <trkpt lat="46.36247" lon="14.15548">
        <ele>500.982114</ele>
        <time>2026-07-12T13:11:03.000Z</time>
      </trkpt>
      <trkpt lat="46.36239" lon="14.15574">
        <ele>501.493674</ele>
        <time>2026-07-12T13:11:10.000Z</time>
      </trkpt>
      <trkpt lat="46.36238" lon="14.15578">
        <ele>501.556551</ele>
        <time>2026-07-12T13:11:11.000Z</time>
      </trkpt>
      <trkpt lat="46.36227" lon="14.15614">
        <ele>502.261347</ele>
        <time>2026-07-12T13:11:21.000Z</time>
      </trkpt>
      <trkpt lat="46.36223" lon="14.15645">
        <ele>502.812332</ele>
        <time>2026-07-12T13:11:27.000Z</time>
      </trkpt>
      <trkpt lat="46.36221" lon="14.15679">
        <ele>503.421794</ele>
        <time>2026-07-12T13:11:33.000Z</time>
      </trkpt>
      <trkpt lat="46.36214" lon="14.15712">
        <ele>504.02386</ele>
        <time>2026-07-12T13:11:40.000Z</time>
      </trkpt>
      <trkpt lat="46.36212" lon="14.1572">
        <ele>504.185573</ele>
        <time>2026-07-12T13:11:42.000Z</time>
      </trkpt>
      <trkpt lat="46.36207" lon="14.15746">
        <ele>504.660915</ele>
        <time>2026-07-12T13:11:48.000Z</time>
      </trkpt>
      <trkpt lat="46.36204" lon="14.15754">
        <ele>504.81299</ele>
        <time>2026-07-12T13:11:50.000Z</time>
      </trkpt>
      <trkpt lat="46.362" lon="14.15766">
        <ele>504.917189</ele>
        <time>2026-07-12T13:11:53.000Z</time>
      </trkpt>
      <trkpt lat="46.36195" lon="14.15778">
        <ele>505.02499</ele>
        <time>2026-07-12T13:11:56.000Z</time>
      </trkpt>
      <trkpt lat="46.36186" lon="14.15797">
        <ele>505.207975</ele>
        <time>2026-07-12T13:12:02.000Z</time>
      </trkpt>
      <trkpt lat="46.36181" lon="14.15806">
        <ele>505.302841</ele>
        <time>2026-07-12T13:12:05.000Z</time>
      </trkpt>
      <trkpt lat="46.36165" lon="14.15829">
        <ele>505.563535</ele>
        <time>2026-07-12T13:12:13.000Z</time>
      </trkpt>
      <trkpt lat="46.36148" lon="14.15851">
        <ele>505.82091</ele>
        <time>2026-07-12T13:12:21.000Z</time>
      </trkpt>
      <trkpt lat="46.36128" lon="14.15878">
        <ele>506.13007</ele>
        <time>2026-07-12T13:12:30.000Z</time>
      </trkpt>
      <trkpt lat="46.36113" lon="14.15905">
        <ele>506.407777</ele>
        <time>2026-07-12T13:12:38.000Z</time>
      </trkpt>
      <trkpt lat="46.36105" lon="14.15928">
        <ele>506.609268</ele>
        <time>2026-07-12T13:12:44.000Z</time>
      </trkpt>
      <trkpt lat="46.36109" lon="14.15943">
        <ele>506.734074</ele>
        <time>2026-07-12T13:12:48.000Z</time>
      </trkpt>
      <trkpt lat="46.36119" lon="14.1595">
        <ele>506.877036</ele>
        <time>2026-07-12T13:12:52.000Z</time>
      </trkpt>
      <trkpt lat="46.36142" lon="14.15954">
        <ele>507.368935</ele>
        <time>2026-07-12T13:12:59.000Z</time>
      </trkpt>
      <trkpt lat="46.36168" lon="14.15951">
        <ele>507.960475</ele>
        <time>2026-07-12T13:13:08.000Z</time>
      </trkpt>
      <trkpt lat="46.36186" lon="14.15955">
        <ele>508.34762</ele>
        <time>2026-07-12T13:13:16.000Z</time>
      </trkpt>
      <trkpt lat="46.36204" lon="14.15971">
        <ele>508.80553</ele>
        <time>2026-07-12T13:13:24.000Z</time>
      </trkpt>
      <trkpt lat="46.36205" lon="14.15973">
        <ele>508.851806</ele>
        <time>2026-07-12T13:13:26.000Z</time>
      </trkpt>
      <trkpt lat="46.36205" lon="14.15974">
        <ele>508.861111</ele>
        <time>2026-07-12T13:13:28.000Z</time>
      </trkpt>
      <trkpt lat="46.36205" lon="14.15962">
        <ele>509.034151</ele>
        <time>2026-07-12T13:13:39.000Z</time>
      </trkpt>
      <trkpt lat="46.36195" lon="14.15956">
        <ele>509.260004</ele>
        <time>2026-07-12T13:13:43.000Z</time>
      </trkpt>
      <trkpt lat="46.36175" lon="14.15947">
        <ele>509.733102</ele>
        <time>2026-07-12T13:13:48.000Z</time>
      </trkpt>
      <trkpt lat="46.3614" lon="14.15947">
        <ele>510.502716</ele>
        <time>2026-07-12T13:13:54.000Z</time>
      </trkpt>
      <trkpt lat="46.36122" lon="14.15945">
        <ele>510.869527</ele>
        <time>2026-07-12T13:13:57.000Z</time>
      </trkpt>
      <trkpt lat="46.36114" lon="14.15942">
        <ele>510.991415</ele>
        <time>2026-07-12T13:13:59.000Z</time>
      </trkpt>
      <trkpt lat="46.36106" lon="14.15934">
        <ele>511.134714</ele>
        <time>2026-07-12T13:14:03.000Z</time>
      </trkpt>
      <trkpt lat="46.36106" lon="14.15934">
        <ele>511.145807</ele>
        <time>2026-07-12T13:14:06.000Z</time>
      </trkpt>
      <trkpt lat="46.36101" lon="14.15933">
        <ele>511.213748</ele>
        <time>2026-07-12T13:14:18.000Z</time>
      </trkpt>
      <trkpt lat="46.36092" lon="14.15946">
        <ele>511.411492</ele>
        <time>2026-07-12T13:14:22.000Z</time>
      </trkpt>
      <trkpt lat="46.36085" lon="14.15977">
        <ele>511.752485</ele>
        <time>2026-07-12T13:14:29.000Z</time>
      </trkpt>
      <trkpt lat="46.36076" lon="14.16011">
        <ele>512.142666</ele>
        <time>2026-07-12T13:14:37.000Z</time>
      </trkpt>
      <trkpt lat="46.36072" lon="14.16028">
        <ele>512.326821</ele>
        <time>2026-07-12T13:14:41.000Z</time>
      </trkpt>
      <trkpt lat="46.3607" lon="14.16032">
        <ele>512.376152</ele>
        <time>2026-07-12T13:14:42.000Z</time>
      </trkpt>
      <trkpt lat="46.36064" lon="14.16056">
        <ele>512.640787</ele>
        <time>2026-07-12T13:14:48.000Z</time>
      </trkpt>
      <trkpt lat="46.36064" lon="14.1606">
        <ele>512.687092</ele>
        <time>2026-07-12T13:14:49.000Z</time>
      </trkpt>
      <trkpt lat="46.36066" lon="14.16067">
        <ele>512.77173</ele>
        <time>2026-07-12T13:14:51.000Z</time>
      </trkpt>
      <trkpt lat="46.36072" lon="14.16071">
        <ele>512.871754</ele>
        <time>2026-07-12T13:14:53.000Z</time>
      </trkpt>
      <trkpt lat="46.36082" lon="14.16074">
        <ele>513.018313</ele>
        <time>2026-07-12T13:14:56.000Z</time>
      </trkpt>
      <trkpt lat="46.36097" lon="14.16078">
        <ele>513.258648</ele>
        <time>2026-07-12T13:15:02.000Z</time>
      </trkpt>
      <trkpt lat="46.36103" lon="14.16078">
        <ele>513.340816</ele>
        <time>2026-07-12T13:15:07.000Z</time>
      </trkpt>
      <trkpt lat="46.36107" lon="14.16078">
        <ele>513.401763</ele>
        <time>2026-07-12T13:15:41.000Z</time>
      </trkpt>
      <trkpt lat="46.36112" lon="14.16077">
        <ele>513.476684</ele>
        <time>2026-07-12T13:15:43.000Z</time>
      </trkpt>
      <trkpt lat="46.3612" lon="14.16083">
        <ele>513.5996</ele>
        <time>2026-07-12T13:15:46.000Z</time>
      </trkpt>
      <trkpt lat="46.36122" lon="14.16087">
        <ele>513.638007</ele>
        <time>2026-07-12T13:15:47.000Z</time>
      </trkpt>
      <trkpt lat="46.36134" lon="14.16113">
        <ele>513.865392</ele>
        <time>2026-07-12T13:15:53.000Z</time>
      </trkpt>
      <trkpt lat="46.36146" lon="14.16145">
        <ele>514.121687</ele>
        <time>2026-07-12T13:15:59.000Z</time>
      </trkpt>
      <trkpt lat="46.36147" lon="14.16165">
        <ele>514.270513</ele>
        <time>2026-07-12T13:16:03.000Z</time>
      </trkpt>
      <trkpt lat="46.36147" lon="14.16175">
        <ele>514.342335</ele>
        <time>2026-07-12T13:16:05.000Z</time>
      </trkpt>
      <trkpt lat="46.36149" lon="14.16186">
        <ele>514.420192</ele>
        <time>2026-07-12T13:16:07.000Z</time>
      </trkpt>
      <trkpt lat="46.36152" lon="14.16206">
        <ele>514.566966</ele>
        <time>2026-07-12T13:16:11.000Z</time>
      </trkpt>
      <trkpt lat="46.36159" lon="14.16238">
        <ele>514.806839</ele>
        <time>2026-07-12T13:16:17.000Z</time>
      </trkpt>
      <trkpt lat="46.36165" lon="14.16276">
        <ele>515.088522</ele>
        <time>2026-07-12T13:16:24.000Z</time>
      </trkpt>
      <trkpt lat="46.36175" lon="14.16324">
        <ele>515.312135</ele>
        <time>2026-07-12T13:16:33.000Z</time>
      </trkpt>
      <trkpt lat="46.36181" lon="14.16365">
        <ele>513.970027</ele>
        <time>2026-07-12T13:16:41.000Z</time>
      </trkpt>
      <trkpt lat="46.36184" lon="14.16403">
        <ele>512.758978</ele>
        <time>2026-07-12T13:16:49.000Z</time>
      </trkpt>
      <trkpt lat="46.36186" lon="14.1643">
        <ele>511.901392</ele>
        <time>2026-07-12T13:16:56.000Z</time>
      </trkpt>
      <trkpt lat="46.36191" lon="14.16463">
        <ele>510.830282</ele>
        <time>2026-07-12T13:17:03.000Z</time>
      </trkpt>
      <trkpt lat="46.36201" lon="14.16508">
        <ele>509.315383</ele>
        <time>2026-07-12T13:17:10.000Z</time>
      </trkpt>
      <trkpt lat="46.36211" lon="14.16548">
        <ele>507.968383</ele>
        <time>2026-07-12T13:17:15.000Z</time>
      </trkpt>
      <trkpt lat="46.36218" lon="14.16576">
        <ele>507.153263</ele>
        <time>2026-07-12T13:17:18.000Z</time>
      </trkpt>
      <trkpt lat="46.36222" lon="14.16595">
        <ele>507.154952</ele>
        <time>2026-07-12T13:17:20.000Z</time>
      </trkpt>
      <trkpt lat="46.36237" lon="14.16666">
        <ele>507.161389</ele>
        <time>2026-07-12T13:17:27.000Z</time>
      </trkpt>
      <trkpt lat="46.36246" lon="14.16692">
        <ele>507.163891</ele>
        <time>2026-07-12T13:17:31.000Z</time>
      </trkpt>
      <trkpt lat="46.36259" lon="14.16724">
        <ele>507.167107</ele>
        <time>2026-07-12T13:17:38.000Z</time>
      </trkpt>
      <trkpt lat="46.36269" lon="14.1675">
        <ele>507.169619</ele>
        <time>2026-07-12T13:17:44.000Z</time>
      </trkpt>
      <trkpt lat="46.36273" lon="14.16759">
        <ele>507.170513</ele>
        <time>2026-07-12T13:17:46.000Z</time>
      </trkpt>
      <trkpt lat="46.36281" lon="14.1678">
        <ele>507.172665</ele>
        <time>2026-07-12T13:17:51.000Z</time>
      </trkpt>
      <trkpt lat="46.36293" lon="14.16806">
        <ele>507.175339</ele>
        <time>2026-07-12T13:17:57.000Z</time>
      </trkpt>
      <trkpt lat="46.36308" lon="14.16842">
        <ele>508.254651</ele>
        <time>2026-07-12T13:18:05.000Z</time>
      </trkpt>
      <trkpt lat="46.3631" lon="14.16846">
        <ele>508.391286</ele>
        <time>2026-07-12T13:18:06.000Z</time>
      </trkpt>
      <trkpt lat="46.36327" lon="14.16888">
        <ele>509.690254</ele>
        <time>2026-07-12T13:18:15.000Z</time>
      </trkpt>
      <trkpt lat="46.36349" lon="14.16939">
        <ele>511.245787</ele>
        <time>2026-07-12T13:18:26.000Z</time>
      </trkpt>
      <trkpt lat="46.36371" lon="14.16991">
        <ele>512.858545</ele>
        <time>2026-07-12T13:18:38.000Z</time>
      </trkpt>
      <trkpt lat="46.36389" lon="14.17034">
        <ele>514.140361</ele>
        <time>2026-07-12T13:18:48.000Z</time>
      </trkpt>
      <trkpt lat="46.36413" lon="14.17094">
        <ele>515.253259</ele>
        <time>2026-07-12T13:19:01.000Z</time>
      </trkpt>
      <trkpt lat="46.36425" lon="14.17138">
        <ele>516.015486</ele>
        <time>2026-07-12T13:19:10.000Z</time>
      </trkpt>
      <trkpt lat="46.36432" lon="14.1718">
        <ele>516.717134</ele>
        <time>2026-07-12T13:19:19.000Z</time>
      </trkpt>
      <trkpt lat="46.36435" lon="14.17216">
        <ele>517.306602</ele>
        <time>2026-07-12T13:19:27.000Z</time>
      </trkpt>
      <trkpt lat="46.3644" lon="14.17246">
        <ele>517.805382</ele>
        <time>2026-07-12T13:19:34.000Z</time>
      </trkpt>
      <trkpt lat="46.3645" lon="14.17282">
        <ele>518.304248</ele>
        <time>2026-07-12T13:19:42.000Z</time>
      </trkpt>
      <trkpt lat="46.36464" lon="14.17316">
        <ele>518.475035</ele>
        <time>2026-07-12T13:19:50.000Z</time>
      </trkpt>
      <trkpt lat="46.36483" lon="14.17351">
        <ele>518.665294</ele>
        <time>2026-07-12T13:19:59.000Z</time>
      </trkpt>
      <trkpt lat="46.36499" lon="14.17383">
        <ele>518.832482</ele>
        <time>2026-07-12T13:20:07.000Z</time>
      </trkpt>
      <trkpt lat="46.36514" lon="14.17421">
        <ele>519.021092</ele>
        <time>2026-07-12T13:20:16.000Z</time>
      </trkpt>
      <trkpt lat="46.36522" lon="14.17462">
        <ele>519.204108</ele>
        <time>2026-07-12T13:20:25.000Z</time>
      </trkpt>
      <trkpt lat="46.36525" lon="14.17504">
        <ele>519.40465</ele>
        <time>2026-07-12T13:20:34.000Z</time>
      </trkpt>
      <trkpt lat="46.36531" lon="14.17558">
        <ele>519.984394</ele>
        <time>2026-07-12T13:20:45.000Z</time>
      </trkpt>
      <trkpt lat="46.3654" lon="14.17611">
        <ele>520.559584</ele>
        <time>2026-07-12T13:20:56.000Z</time>
      </trkpt>
      <trkpt lat="46.36548" lon="14.17667">
        <ele>521.166066</ele>
        <time>2026-07-12T13:21:07.000Z</time>
      </trkpt>
      <trkpt lat="46.36552" lon="14.17713">
        <ele>521.659592</ele>
        <time>2026-07-12T13:21:16.000Z</time>
      </trkpt>
      <trkpt lat="46.36564" lon="14.17762">
        <ele>522.260457</ele>
        <time>2026-07-12T13:21:26.000Z</time>
      </trkpt>
      <trkpt lat="46.36579" lon="14.178">
        <ele>522.984917</ele>
        <time>2026-07-12T13:21:34.000Z</time>
      </trkpt>
      <trkpt lat="46.36589" lon="14.17822">
        <ele>523.428978</ele>
        <time>2026-07-12T13:21:39.000Z</time>
      </trkpt>
      <trkpt lat="46.36597" lon="14.17843">
        <ele>523.835306</ele>
        <time>2026-07-12T13:21:44.000Z</time>
      </trkpt>
      <trkpt lat="46.36608" lon="14.17882">
        <ele>524.54583</ele>
        <time>2026-07-12T13:21:52.000Z</time>
      </trkpt>
      <trkpt lat="46.36619" lon="14.17897">
        <ele>524.910739</ele>
        <time>2026-07-12T13:21:56.000Z</time>
      </trkpt>
      <trkpt lat="46.36637" lon="14.17923">
        <ele>525.547447</ele>
        <time>2026-07-12T13:22:03.000Z</time>
      </trkpt>
      <trkpt lat="46.36642" lon="14.17931">
        <ele>525.715767</ele>
        <time>2026-07-12T13:22:05.000Z</time>
      </trkpt>
      <trkpt lat="46.36647" lon="14.17955">
        <ele>526.143731</ele>
        <time>2026-07-12T13:22:10.000Z</time>
      </trkpt>
      <trkpt lat="46.36644" lon="14.17984">
        <ele>526.592727</ele>
        <time>2026-07-12T13:22:16.000Z</time>
      </trkpt>
      <trkpt lat="46.36637" lon="14.18038">
        <ele>527.162132</ele>
        <time>2026-07-12T13:22:27.000Z</time>
      </trkpt>
      <trkpt lat="46.36633" lon="14.18077">
        <ele>527.563464</ele>
        <time>2026-07-12T13:22:35.000Z</time>
      </trkpt>
      <trkpt lat="46.36631" lon="14.18122">
        <ele>528.022986</ele>
        <time>2026-07-12T13:22:44.000Z</time>
      </trkpt>
      <trkpt lat="46.36626" lon="14.18173">
        <ele>528.554549</ele>
        <time>2026-07-12T13:22:54.000Z</time>
      </trkpt>
      <trkpt lat="46.36623" lon="14.1823">
        <ele>529.133413</ele>
        <time>2026-07-12T13:23:05.000Z</time>
      </trkpt>
      <trkpt lat="46.36624" lon="14.18277">
        <ele>529.943302</ele>
        <time>2026-07-12T13:23:14.000Z</time>
      </trkpt>
      <trkpt lat="46.36627" lon="14.18328">
        <ele>530.89205</ele>
        <time>2026-07-12T13:23:24.000Z</time>
      </trkpt>
      <trkpt lat="46.3663" lon="14.18387">
        <ele>531.985382</ele>
        <time>2026-07-12T13:23:36.000Z</time>
      </trkpt>
      <trkpt lat="46.3663" lon="14.18437">
        <ele>532.917611</ele>
        <time>2026-07-12T13:23:46.000Z</time>
      </trkpt>
      <trkpt lat="46.36632" lon="14.18504">
        <ele>534.127446</ele>
        <time>2026-07-12T13:23:59.000Z</time>
      </trkpt>
      <trkpt lat="46.36634" lon="14.18577">
        <ele>535.218964</ele>
        <time>2026-07-12T13:24:13.000Z</time>
      </trkpt>
      <trkpt lat="46.36636" lon="14.18627">
        <ele>535.965749</ele>
        <time>2026-07-12T13:24:23.000Z</time>
      </trkpt>
      <trkpt lat="46.36639" lon="14.18672">
        <ele>536.651021</ele>
        <time>2026-07-12T13:24:32.000Z</time>
      </trkpt>
      <trkpt lat="46.36644" lon="14.1873">
        <ele>537.523511</ele>
        <time>2026-07-12T13:24:43.000Z</time>
      </trkpt>
      <trkpt lat="46.36652" lon="14.18778">
        <ele>538.160351</ele>
        <time>2026-07-12T13:24:53.000Z</time>
      </trkpt>
      <trkpt lat="46.36662" lon="14.18814">
        <ele>538.554276</ele>
        <time>2026-07-12T13:25:01.000Z</time>
      </trkpt>
      <trkpt lat="46.36675" lon="14.18845">
        <ele>538.929104</ele>
        <time>2026-07-12T13:25:09.000Z</time>
      </trkpt>
      <trkpt lat="46.36689" lon="14.1886">
        <ele>539.187205</ele>
        <time>2026-07-12T13:25:15.000Z</time>
      </trkpt>
      <trkpt lat="46.36697" lon="14.18855">
        <ele>539.317073</ele>
        <time>2026-07-12T13:25:19.000Z</time>
      </trkpt>
      <trkpt lat="46.36708" lon="14.18832">
        <ele>539.593901</ele>
        <time>2026-07-12T13:25:27.000Z</time>
      </trkpt>
      <trkpt lat="46.36716" lon="14.18817">
        <ele>539.795604</ele>
        <time>2026-07-12T13:25:33.000Z</time>
      </trkpt>
      <trkpt lat="46.36719" lon="14.18813">
        <ele>539.854461</ele>
        <time>2026-07-12T13:25:35.000Z</time>
      </trkpt>
      <trkpt lat="46.3672" lon="14.18811">
        <ele>539.886173</ele>
        <time>2026-07-12T13:25:36.000Z</time>
      </trkpt>
      <trkpt lat="46.36725" lon="14.18803">
        <ele>539.997396</ele>
        <time>2026-07-12T13:25:40.000Z</time>
      </trkpt>
      <trkpt lat="46.36734" lon="14.1879">
        <ele>540.182349</ele>
        <time>2026-07-12T13:25:47.000Z</time>
      </trkpt>
      <trkpt lat="46.36747" lon="14.1877">
        <ele>540.46482</ele>
        <time>2026-07-12T13:25:56.000Z</time>
      </trkpt>
      <trkpt lat="46.36758" lon="14.18752">
        <ele>540.599659</ele>
        <time>2026-07-12T13:26:02.000Z</time>
      </trkpt>
      <trkpt lat="46.36768" lon="14.18739">
        <ele>540.610051</ele>
        <time>2026-07-12T13:26:07.000Z</time>
      </trkpt>
      <trkpt lat="46.36776" lon="14.18721">
        <ele>540.622284</ele>
        <time>2026-07-12T13:26:13.000Z</time>
      </trkpt>
      <trkpt lat="46.36785" lon="14.18705">
        <ele>540.633351</ele>
        <time>2026-07-12T13:26:20.000Z</time>
      </trkpt>
      <trkpt lat="46.36796" lon="14.18688">
        <ele>540.646407</ele>
        <time>2026-07-12T13:26:26.000Z</time>
      </trkpt>
      <trkpt lat="46.36815" lon="14.18663">
        <ele>540.666984</ele>
        <time>2026-07-12T13:26:34.000Z</time>
      </trkpt>
      <trkpt lat="46.36828" lon="14.18649">
        <ele>540.679797</ele>
        <time>2026-07-12T13:26:39.000Z</time>
      </trkpt>
      <trkpt lat="46.36844" lon="14.18634">
        <ele>540.695323</ele>
        <time>2026-07-12T13:26:45.000Z</time>
      </trkpt>
      <trkpt lat="46.36871" lon="14.18613">
        <ele>540.720157</ele>
        <time>2026-07-12T13:26:54.000Z</time>
      </trkpt>
      <trkpt lat="46.36894" lon="14.18587">
        <ele>540.685102</ele>
        <time>2026-07-12T13:27:02.000Z</time>
      </trkpt>
      <trkpt lat="46.3692" lon="14.18548">
        <ele>540.436375</ele>
        <time>2026-07-12T13:27:12.000Z</time>
      </trkpt>
      <trkpt lat="46.3694" lon="14.18508">
        <ele>540.204386</ele>
        <time>2026-07-12T13:27:21.000Z</time>
      </trkpt>
      <trkpt lat="46.36951" lon="14.18485">
        <ele>540.074755</ele>
        <time>2026-07-12T13:27:26.000Z</time>
      </trkpt>
      <trkpt lat="46.36974" lon="14.18436">
        <ele>539.797027</ele>
        <time>2026-07-12T13:27:36.000Z</time>
      </trkpt>
      <trkpt lat="46.36985" lon="14.1841">
        <ele>539.651124</ele>
        <time>2026-07-12T13:27:41.000Z</time>
      </trkpt>
      <trkpt lat="46.36991" lon="14.18402">
        <ele>539.599005</ele>
        <time>2026-07-12T13:27:43.000Z</time>
      </trkpt>
      <trkpt lat="46.36995" lon="14.18397">
        <ele>539.562411</ele>
        <time>2026-07-12T13:27:47.000Z</time>
      </trkpt>
      <trkpt lat="46.36994" lon="14.18404">
        <ele>539.528082</ele>
        <time>2026-07-12T13:28:46.000Z</time>
      </trkpt>
      <trkpt lat="46.36992" lon="14.18402">
        <ele>539.516664</ele>
        <time>2026-07-12T13:28:48.000Z</time>
      </trkpt>
      <trkpt lat="46.36992" lon="14.18388">
        <ele>539.467865</ele>
        <time>2026-07-12T13:29:37.000Z</time>
      </trkpt>
      <trkpt lat="46.36997" lon="14.18377">
        <ele>539.424058</ele>
        <time>2026-07-12T13:29:40.000Z</time>
      </trkpt>
      <trkpt lat="46.37008" lon="14.18349">
        <ele>539.312372</ele>
        <time>2026-07-12T13:29:47.000Z</time>
      </trkpt>
      <trkpt lat="46.37019" lon="14.18317">
        <ele>539.193015</ele>
        <time>2026-07-12T13:29:55.000Z</time>
      </trkpt>
      <trkpt lat="46.37023" lon="14.18306">
        <ele>539.148843</ele>
        <time>2026-07-12T13:29:58.000Z</time>
      </trkpt>
      <trkpt lat="46.37025" lon="14.18302">
        <ele>539.132824</ele>
        <time>2026-07-12T13:29:59.000Z</time>
      </trkpt>
      <trkpt lat="46.3703" lon="14.18288">
        <ele>539.07915</ele>
        <time>2026-07-12T13:30:02.000Z</time>
      </trkpt>
      <trkpt lat="46.37046" lon="14.18248">
        <ele>538.921367</ele>
        <time>2026-07-12T13:30:10.000Z</time>
      </trkpt>
      <trkpt lat="46.37052" lon="14.18231">
        <ele>538.856062</ele>
        <time>2026-07-12T13:30:13.000Z</time>
      </trkpt>
      <trkpt lat="46.37061" lon="14.18209">
        <ele>538.767031</ele>
        <time>2026-07-12T13:30:17.000Z</time>
      </trkpt>
      <trkpt lat="46.37072" lon="14.18187">
        <ele>538.675514</ele>
        <time>2026-07-12T13:30:21.000Z</time>
      </trkpt>
      <trkpt lat="46.37087" lon="14.18157">
        <ele>538.130988</ele>
        <time>2026-07-12T13:30:26.000Z</time>
      </trkpt>
      <trkpt lat="46.37114" lon="14.181">
        <ele>536.702584</ele>
        <time>2026-07-12T13:30:35.000Z</time>
      </trkpt>
      <trkpt lat="46.37124" lon="14.1808">
        <ele>536.205525</ele>
        <time>2026-07-12T13:30:38.000Z</time>
      </trkpt>
      <trkpt lat="46.37131" lon="14.18058">
        <ele>535.719932</ele>
        <time>2026-07-12T13:30:41.000Z</time>
      </trkpt>
      <trkpt lat="46.3715" lon="14.17997">
        <ele>534.334219</ele>
        <time>2026-07-12T13:30:49.000Z</time>
      </trkpt>
      <trkpt lat="46.37174" lon="14.17926">
        <ele>533.011268</ele>
        <time>2026-07-12T13:30:58.000Z</time>
      </trkpt>
      <trkpt lat="46.37177" lon="14.17919">
        <ele>532.926271</ele>
        <time>2026-07-12T13:30:59.000Z</time>
      </trkpt>
      <trkpt lat="46.3719" lon="14.17886">
        <ele>532.583657</ele>
        <time>2026-07-12T13:31:03.000Z</time>
      </trkpt>
      <trkpt lat="46.37205" lon="14.17845">
        <ele>532.149668</ele>
        <time>2026-07-12T13:31:08.000Z</time>
      </trkpt>
      <trkpt lat="46.37236" lon="14.1777">
        <ele>531.347273</ele>
        <time>2026-07-12T13:31:17.000Z</time>
      </trkpt>
      <trkpt lat="46.3726" lon="14.17714">
        <ele>530.781374</ele>
        <time>2026-07-12T13:31:24.000Z</time>
      </trkpt>
      <trkpt lat="46.37293" lon="14.17644">
        <ele>530.23797</ele>
        <time>2026-07-12T13:31:33.000Z</time>
      </trkpt>
      <trkpt lat="46.3732" lon="14.17592">
        <ele>529.815511</ele>
        <time>2026-07-12T13:31:40.000Z</time>
      </trkpt>
      <trkpt lat="46.37349" lon="14.17547">
        <ele>529.419101</ele>
        <time>2026-07-12T13:31:47.000Z</time>
      </trkpt>
      <trkpt lat="46.37375" lon="14.17515">
        <ele>529.136714</ele>
        <time>2026-07-12T13:31:53.000Z</time>
      </trkpt>
      <trkpt lat="46.37421" lon="14.17466">
        <ele>528.829859</ele>
        <time>2026-07-12T13:32:03.000Z</time>
      </trkpt>
      <trkpt lat="46.37426" lon="14.17461">
        <ele>528.800142</ele>
        <time>2026-07-12T13:32:04.000Z</time>
      </trkpt>
      <trkpt lat="46.37464" lon="14.1742">
        <ele>528.547983</ele>
        <time>2026-07-12T13:32:12.000Z</time>
      </trkpt>
      <trkpt lat="46.37504" lon="14.17381">
        <ele>528.292513</ele>
        <time>2026-07-12T13:32:20.000Z</time>
      </trkpt>
      <trkpt lat="46.37552" lon="14.17334">
        <ele>528.166707</ele>
        <time>2026-07-12T13:32:30.000Z</time>
      </trkpt>
      <trkpt lat="46.37557" lon="14.1733">
        <ele>528.159126</ele>
        <time>2026-07-12T13:32:31.000Z</time>
      </trkpt>
      <trkpt lat="46.37593" lon="14.17302">
        <ele>528.105472</ele>
        <time>2026-07-12T13:32:38.000Z</time>
      </trkpt>
      <trkpt lat="46.37602" lon="14.17294">
        <ele>528.091592</ele>
        <time>2026-07-12T13:32:40.000Z</time>
      </trkpt>
      <trkpt lat="46.37612" lon="14.17287">
        <ele>528.077275</ele>
        <time>2026-07-12T13:32:42.000Z</time>
      </trkpt>
      <trkpt lat="46.37618" lon="14.17283">
        <ele>528.06946</ele>
        <time>2026-07-12T13:32:43.000Z</time>
      </trkpt>
      <trkpt lat="46.37657" lon="14.17251">
        <ele>528.010507</ele>
        <time>2026-07-12T13:32:51.000Z</time>
      </trkpt>
      <trkpt lat="46.37699" lon="14.17217">
        <ele>527.837397</ele>
        <time>2026-07-12T13:33:00.000Z</time>
      </trkpt>
      <trkpt lat="46.37703" lon="14.17213">
        <ele>527.8137</ele>
        <time>2026-07-12T13:33:01.000Z</time>
      </trkpt>
      <trkpt lat="46.37711" lon="14.17202">
        <ele>527.76385</ele>
        <time>2026-07-12T13:33:03.000Z</time>
      </trkpt>
      <trkpt lat="46.37716" lon="14.17195">
        <ele>527.733569</ele>
        <time>2026-07-12T13:33:04.000Z</time>
      </trkpt>
      <trkpt lat="46.3773" lon="14.17181">
        <ele>527.655852</ele>
        <time>2026-07-12T13:33:07.000Z</time>
      </trkpt>
      <trkpt lat="46.37744" lon="14.17166">
        <ele>527.57516</ele>
        <time>2026-07-12T13:33:10.000Z</time>
      </trkpt>
      <trkpt lat="46.37781" lon="14.17121">
        <ele>527.356723</ele>
        <time>2026-07-12T13:33:18.000Z</time>
      </trkpt>
      <trkpt lat="46.37798" lon="14.17098">
        <ele>527.250436</ele>
        <time>2026-07-12T13:33:23.000Z</time>
      </trkpt>
      <trkpt lat="46.37813" lon="14.1708">
        <ele>527.139549</ele>
        <time>2026-07-12T13:33:28.000Z</time>
      </trkpt>
      <trkpt lat="46.37815" lon="14.17077">
        <ele>527.091198</ele>
        <time>2026-07-12T13:33:32.000Z</time>
      </trkpt>
      <trkpt lat="46.37818" lon="14.17073">
        <ele>527.018607</ele>
        <time>2026-07-12T13:34:42.000Z</time>
      </trkpt>
      <trkpt lat="46.37821" lon="14.1707">
        <ele>526.965486</ele>
        <time>2026-07-12T13:34:44.000Z</time>
      </trkpt>
      <trkpt lat="46.37822" lon="14.17068">
        <ele>526.934016</ele>
        <time>2026-07-12T13:34:45.000Z</time>
      </trkpt>
      <trkpt lat="46.37829" lon="14.17061">
        <ele>526.785756</ele>
        <time>2026-07-12T13:34:49.000Z</time>
      </trkpt>
      <trkpt lat="46.37844" lon="14.1704">
        <ele>526.439577</ele>
        <time>2026-07-12T13:34:57.000Z</time>
      </trkpt>
      <trkpt lat="46.37859" lon="14.17015">
        <ele>526.065775</ele>
        <time>2026-07-12T13:35:03.000Z</time>
      </trkpt>
      <trkpt lat="46.37878" lon="14.16983">
        <ele>525.578366</ele>
        <time>2026-07-12T13:35:10.000Z</time>
      </trkpt>
      <trkpt lat="46.37904" lon="14.16947">
        <ele>524.982657</ele>
        <time>2026-07-12T13:35:18.000Z</time>
      </trkpt>
      <trkpt lat="46.37921" lon="14.16919">
        <ele>524.561223</ele>
        <time>2026-07-12T13:35:23.000Z</time>
      </trkpt>
      <trkpt lat="46.37956" lon="14.16864">
        <ele>524.05819</ele>
        <time>2026-07-12T13:35:33.000Z</time>
      </trkpt>
      <trkpt lat="46.37984" lon="14.1682">
        <ele>523.877079</ele>
        <time>2026-07-12T13:35:41.000Z</time>
      </trkpt>
      <trkpt lat="46.3801" lon="14.16782">
        <ele>523.716474</ele>
        <time>2026-07-12T13:35:48.000Z</time>
      </trkpt>
      <trkpt lat="46.38037" lon="14.16742">
        <ele>523.547918</ele>
        <time>2026-07-12T13:35:56.000Z</time>
      </trkpt>
      <trkpt lat="46.38043" lon="14.16733">
        <ele>523.512211</ele>
        <time>2026-07-12T13:35:58.000Z</time>
      </trkpt>
      <trkpt lat="46.38061" lon="14.16706">
        <ele>523.410275</ele>
        <time>2026-07-12T13:36:04.000Z</time>
      </trkpt>
      <trkpt lat="46.38065" lon="14.16701">
        <ele>523.489181</ele>
        <time>2026-07-12T13:36:05.000Z</time>
      </trkpt>
      <trkpt lat="46.38083" lon="14.16681">
        <ele>523.811637</ele>
        <time>2026-07-12T13:36:10.000Z</time>
      </trkpt>
      <trkpt lat="46.38119" lon="14.16636">
        <ele>524.519338</ele>
        <time>2026-07-12T13:36:21.000Z</time>
      </trkpt>
      <trkpt lat="46.38163" lon="14.16583">
        <ele>525.351138</ele>
        <time>2026-07-12T13:36:34.000Z</time>
      </trkpt>
      <trkpt lat="46.38169" lon="14.16574">
        <ele>525.486106</ele>
        <time>2026-07-12T13:36:36.000Z</time>
      </trkpt>
      <trkpt lat="46.38178" lon="14.16561">
        <ele>525.672376</ele>
        <time>2026-07-12T13:36:39.000Z</time>
      </trkpt>
      <trkpt lat="46.38184" lon="14.16551">
        <ele>525.799244</ele>
        <time>2026-07-12T13:36:41.000Z</time>
      </trkpt>
      <trkpt lat="46.38186" lon="14.16546">
        <ele>525.862157</ele>
        <time>2026-07-12T13:36:42.000Z</time>
      </trkpt>
      <trkpt lat="46.38218" lon="14.16499">
        <ele>526.383193</ele>
        <time>2026-07-12T13:36:52.000Z</time>
      </trkpt>
      <trkpt lat="46.38253" lon="14.16456">
        <ele>526.845815</ele>
        <time>2026-07-12T13:37:02.000Z</time>
      </trkpt>
      <trkpt lat="46.38282" lon="14.16423">
        <ele>527.220322</ele>
        <time>2026-07-12T13:37:10.000Z</time>
      </trkpt>
      <trkpt lat="46.38311" lon="14.16389">
        <ele>527.605214</ele>
        <time>2026-07-12T13:37:18.000Z</time>
      </trkpt>
      <trkpt lat="46.38354" lon="14.1634">
        <ele>528.097212</ele>
        <time>2026-07-12T13:37:30.000Z</time>
      </trkpt>
      <trkpt lat="46.38392" lon="14.16304">
        <ele>528.459496</ele>
        <time>2026-07-12T13:37:40.000Z</time>
      </trkpt>
      <trkpt lat="46.384" lon="14.16297">
        <ele>528.529225</ele>
        <time>2026-07-12T13:37:42.000Z</time>
      </trkpt>
      <trkpt lat="46.3841" lon="14.16286">
        <ele>528.628968</ele>
        <time>2026-07-12T13:37:45.000Z</time>
      </trkpt>
      <trkpt lat="46.3844" lon="14.16249">
        <ele>528.944434</ele>
        <time>2026-07-12T13:37:54.000Z</time>
      </trkpt>
      <trkpt lat="46.3847" lon="14.16211">
        <ele>529.262268</ele>
        <time>2026-07-12T13:38:03.000Z</time>
      </trkpt>
      <trkpt lat="46.38486" lon="14.16189">
        <ele>529.578729</ele>
        <time>2026-07-12T13:38:08.000Z</time>
      </trkpt>
      <trkpt lat="46.38493" lon="14.16179">
        <ele>529.743583</ele>
        <time>2026-07-12T13:38:10.000Z</time>
      </trkpt>
      <trkpt lat="46.38525" lon="14.16133">
        <ele>530.48359</ele>
        <time>2026-07-12T13:38:20.000Z</time>
      </trkpt>
      <trkpt lat="46.38552" lon="14.16091">
        <ele>531.117722</ele>
        <time>2026-07-12T13:38:29.000Z</time>
      </trkpt>
      <trkpt lat="46.3859" lon="14.1604">
        <ele>531.974796</ele>
        <time>2026-07-12T13:38:40.000Z</time>
      </trkpt>
      <trkpt lat="46.38599" lon="14.16026">
        <ele>532.195593</ele>
        <time>2026-07-12T13:38:43.000Z</time>
      </trkpt>
      <trkpt lat="46.3861" lon="14.16012">
        <ele>532.346709</ele>
        <time>2026-07-12T13:38:46.000Z</time>
      </trkpt>
      <trkpt lat="46.38634" lon="14.15983">
        <ele>532.639813</ele>
        <time>2026-07-12T13:38:53.000Z</time>
      </trkpt>
      <trkpt lat="46.38671" lon="14.15943">
        <ele>533.063179</ele>
        <time>2026-07-12T13:39:03.000Z</time>
      </trkpt>
      <trkpt lat="46.38697" lon="14.15915">
        <ele>533.362679</ele>
        <time>2026-07-12T13:39:10.000Z</time>
      </trkpt>
      <trkpt lat="46.38704" lon="14.15906">
        <ele>533.448304</ele>
        <time>2026-07-12T13:39:12.000Z</time>
      </trkpt>
      <trkpt lat="46.38711" lon="14.15897">
        <ele>533.535184</ele>
        <time>2026-07-12T13:39:14.000Z</time>
      </trkpt>
      <trkpt lat="46.38736" lon="14.15857">
        <ele>533.880563</ele>
        <time>2026-07-12T13:39:22.000Z</time>
      </trkpt>
      <trkpt lat="46.38758" lon="14.15814">
        <ele>534.111281</ele>
        <time>2026-07-12T13:39:30.000Z</time>
      </trkpt>
      <trkpt lat="46.38778" lon="14.15761">
        <ele>534.368252</ele>
        <time>2026-07-12T13:39:39.000Z</time>
      </trkpt>
      <trkpt lat="46.38804" lon="14.15703">
        <ele>534.662927</ele>
        <time>2026-07-12T13:39:49.000Z</time>
      </trkpt>
      <trkpt lat="46.38829" lon="14.15655">
        <ele>534.916308</ele>
        <time>2026-07-12T13:39:58.000Z</time>
      </trkpt>
      <trkpt lat="46.38858" lon="14.15612">
        <ele>535.129232</ele>
        <time>2026-07-12T13:40:07.000Z</time>
      </trkpt>
      <trkpt lat="46.38891" lon="14.15563">
        <ele>535.343228</ele>
        <time>2026-07-12T13:40:17.000Z</time>
      </trkpt>
      <trkpt lat="46.38937" lon="14.15512">
        <ele>535.607226</ele>
        <time>2026-07-12T13:40:29.000Z</time>
      </trkpt>
      <trkpt lat="46.3897" lon="14.15478">
        <ele>535.794553</ele>
        <time>2026-07-12T13:40:38.000Z</time>
      </trkpt>
      <trkpt lat="46.39001" lon="14.15441">
        <ele>536.292343</ele>
        <time>2026-07-12T13:40:46.000Z</time>
      </trkpt>
      <trkpt lat="46.3901" lon="14.15425">
        <ele>536.498639</ele>
        <time>2026-07-12T13:40:49.000Z</time>
      </trkpt>
      <trkpt lat="46.39019" lon="14.15408">
        <ele>536.704441</ele>
        <time>2026-07-12T13:40:52.000Z</time>
      </trkpt>
      <trkpt lat="46.39046" lon="14.15365">
        <ele>537.278207</ele>
        <time>2026-07-12T13:41:00.000Z</time>
      </trkpt>
      <trkpt lat="46.39081" lon="14.15336">
        <ele>537.852908</ele>
        <time>2026-07-12T13:41:08.000Z</time>
      </trkpt>
      <trkpt lat="46.39086" lon="14.15333">
        <ele>537.924181</ele>
        <time>2026-07-12T13:41:09.000Z</time>
      </trkpt>
      <trkpt lat="46.39109" lon="14.15313">
        <ele>538.318766</ele>
        <time>2026-07-12T13:41:15.000Z</time>
      </trkpt>
      <trkpt lat="46.3912" lon="14.15302">
        <ele>538.499331</ele>
        <time>2026-07-12T13:41:18.000Z</time>
      </trkpt>
      <trkpt lat="46.39133" lon="14.15285">
        <ele>538.732692</ele>
        <time>2026-07-12T13:41:22.000Z</time>
      </trkpt>
      <trkpt lat="46.39159" lon="14.15243">
        <ele>539.249253</ele>
        <time>2026-07-12T13:41:31.000Z</time>
      </trkpt>
      <trkpt lat="46.39186" lon="14.15196">
        <ele>539.803905</ele>
        <time>2026-07-12T13:41:40.000Z</time>
      </trkpt>
      <trkpt lat="46.39216" lon="14.15156">
        <ele>540.352099</ele>
        <time>2026-07-12T13:41:49.000Z</time>
      </trkpt>
      <trkpt lat="46.39238" lon="14.1512">
        <ele>540.78736</ele>
        <time>2026-07-12T13:41:56.000Z</time>
      </trkpt>
      <trkpt lat="46.39258" lon="14.15081">
        <ele>540.85886</ele>
        <time>2026-07-12T13:42:04.000Z</time>
      </trkpt>
      <trkpt lat="46.39279" lon="14.15044">
        <ele>540.93024</ele>
        <time>2026-07-12T13:42:12.000Z</time>
      </trkpt>
      <trkpt lat="46.39282" lon="14.15039">
        <ele>540.939302</ele>
        <time>2026-07-12T13:42:13.000Z</time>
      </trkpt>
      <trkpt lat="46.39305" lon="14.14997">
        <ele>541.020316</ele>
        <time>2026-07-12T13:42:22.000Z</time>
      </trkpt>
      <trkpt lat="46.39331" lon="14.14958">
        <ele>541.100421</ele>
        <time>2026-07-12T13:42:31.000Z</time>
      </trkpt>
      <trkpt lat="46.39334" lon="14.14954">
        <ele>541.109046</ele>
        <time>2026-07-12T13:42:32.000Z</time>
      </trkpt>
      <trkpt lat="46.39368" lon="14.14919">
        <ele>541.364134</ele>
        <time>2026-07-12T13:42:42.000Z</time>
      </trkpt>
      <trkpt lat="46.39401" lon="14.1489">
        <ele>542.003466</ele>
        <time>2026-07-12T13:42:51.000Z</time>
      </trkpt>
      <trkpt lat="46.39442" lon="14.1485">
        <ele>542.817988</ele>
        <time>2026-07-12T13:43:03.000Z</time>
      </trkpt>
      <trkpt lat="46.39479" lon="14.14814">
        <ele>543.557293</ele>
        <time>2026-07-12T13:43:13.000Z</time>
      </trkpt>
      <trkpt lat="46.39513" lon="14.14778">
        <ele>544.323671</ele>
        <time>2026-07-12T13:43:22.000Z</time>
      </trkpt>
      <trkpt lat="46.39545" lon="14.14733">
        <ele>545.639263</ele>
        <time>2026-07-12T13:43:32.000Z</time>
      </trkpt>
      <trkpt lat="46.39568" lon="14.14698">
        <ele>546.630447</ele>
        <time>2026-07-12T13:43:39.000Z</time>
      </trkpt>
      <trkpt lat="46.39575" lon="14.14688">
        <ele>546.903715</ele>
        <time>2026-07-12T13:43:41.000Z</time>
      </trkpt>
      <trkpt lat="46.39582" lon="14.14682">
        <ele>547.153296</ele>
        <time>2026-07-12T13:43:43.000Z</time>
      </trkpt>
      <trkpt lat="46.39589" lon="14.14677">
        <ele>547.388172</ele>
        <time>2026-07-12T13:43:45.000Z</time>
      </trkpt>
      <trkpt lat="46.39597" lon="14.14677">
        <ele>547.629899</ele>
        <time>2026-07-12T13:43:47.000Z</time>
      </trkpt>
      <trkpt lat="46.39611" lon="14.14681">
        <ele>548.044128</ele>
        <time>2026-07-12T13:43:50.000Z</time>
      </trkpt>
      <trkpt lat="46.39628" lon="14.14693">
        <ele>548.594155</ele>
        <time>2026-07-12T13:43:54.000Z</time>
      </trkpt>
      <trkpt lat="46.39636" lon="14.14701">
        <ele>548.872164</ele>
        <time>2026-07-12T13:43:56.000Z</time>
      </trkpt>
      <trkpt lat="46.39667" lon="14.14728">
        <ele>550.131447</ele>
        <time>2026-07-12T13:44:04.000Z</time>
      </trkpt>
      <trkpt lat="46.39703" lon="14.14751">
        <ele>551.744876</ele>
        <time>2026-07-12T13:44:13.000Z</time>
      </trkpt>
      <trkpt lat="46.39719" lon="14.14754">
        <ele>552.420897</ele>
        <time>2026-07-12T13:44:18.000Z</time>
      </trkpt>
      <trkpt lat="46.3973" lon="14.14751">
        <ele>552.871382</ele>
        <time>2026-07-12T13:44:23.000Z</time>
      </trkpt>
      <trkpt lat="46.39743" lon="14.14726">
        <ele>553.77157</ele>
        <time>2026-07-12T13:44:28.000Z</time>
      </trkpt>
      <trkpt lat="46.39767" lon="14.14684">
        <ele>555.292268</ele>
        <time>2026-07-12T13:44:36.000Z</time>
      </trkpt>
      <trkpt lat="46.39787" lon="14.14647">
        <ele>556.610328</ele>
        <time>2026-07-12T13:44:43.000Z</time>
      </trkpt>
      <trkpt lat="46.3979" lon="14.14642">
        <ele>556.79904</ele>
        <time>2026-07-12T13:44:44.000Z</time>
      </trkpt>
      <trkpt lat="46.39807" lon="14.14594">
        <ele>556.208073</ele>
        <time>2026-07-12T13:44:52.000Z</time>
      </trkpt>
      <trkpt lat="46.39822" lon="14.14534">
        <ele>555.499769</ele>
        <time>2026-07-12T13:45:01.000Z</time>
      </trkpt>
      <trkpt lat="46.39836" lon="14.14488">
        <ele>554.944743</ele>
        <time>2026-07-12T13:45:08.000Z</time>
      </trkpt>
      <trkpt lat="46.39846" lon="14.14465">
        <ele>554.640198</ele>
        <time>2026-07-12T13:45:12.000Z</time>
      </trkpt>
      <trkpt lat="46.39852" lon="14.14454">
        <ele>554.483803</ele>
        <time>2026-07-12T13:45:14.000Z</time>
      </trkpt>
      <trkpt lat="46.39875" lon="14.14408">
        <ele>553.929721</ele>
        <time>2026-07-12T13:45:22.000Z</time>
      </trkpt>
      <trkpt lat="46.39904" lon="14.14359">
        <ele>554.140614</ele>
        <time>2026-07-12T13:45:31.000Z</time>
      </trkpt>
      <trkpt lat="46.39944" lon="14.14306">
        <ele>554.399131</ele>
        <time>2026-07-12T13:45:42.000Z</time>
      </trkpt>
      <trkpt lat="46.39948" lon="14.14301">
        <ele>554.422066</ele>
        <time>2026-07-12T13:45:43.000Z</time>
      </trkpt>
      <trkpt lat="46.39978" lon="14.14268">
        <ele>554.603977</ele>
        <time>2026-07-12T13:45:51.000Z</time>
      </trkpt>
      <trkpt lat="46.40015" lon="14.14231">
        <ele>554.845679</ele>
        <time>2026-07-12T13:46:00.000Z</time>
      </trkpt>
      <trkpt lat="46.40022" lon="14.14222">
        <ele>554.921876</ele>
        <time>2026-07-12T13:46:02.000Z</time>
      </trkpt>
      <trkpt lat="46.4004" lon="14.14197">
        <ele>555.108273</ele>
        <time>2026-07-12T13:46:07.000Z</time>
      </trkpt>
      <trkpt lat="46.40071" lon="14.14144">
        <ele>555.481402</ele>
        <time>2026-07-12T13:46:17.000Z</time>
      </trkpt>
      <trkpt lat="46.40098" lon="14.14097">
        <ele>555.805069</ele>
        <time>2026-07-12T13:46:26.000Z</time>
      </trkpt>
      <trkpt lat="46.40114" lon="14.14071">
        <ele>555.99416</ele>
        <time>2026-07-12T13:46:31.000Z</time>
      </trkpt>
      <trkpt lat="46.40123" lon="14.14055">
        <ele>556.102926</ele>
        <time>2026-07-12T13:46:34.000Z</time>
      </trkpt>
      <trkpt lat="46.40155" lon="14.14002">
        <ele>556.555147</ele>
        <time>2026-07-12T13:46:44.000Z</time>
      </trkpt>
      <trkpt lat="46.40183" lon="14.13956">
        <ele>556.960222</ele>
        <time>2026-07-12T13:46:53.000Z</time>
      </trkpt>
      <trkpt lat="46.40188" lon="14.13945">
        <ele>557.049874</ele>
        <time>2026-07-12T13:46:55.000Z</time>
      </trkpt>
      <trkpt lat="46.40201" lon="14.13925">
        <ele>557.23105</ele>
        <time>2026-07-12T13:46:59.000Z</time>
      </trkpt>
      <trkpt lat="46.40229" lon="14.13877">
        <ele>557.643246</ele>
        <time>2026-07-12T13:47:08.000Z</time>
      </trkpt>
      <trkpt lat="46.40255" lon="14.13826">
        <ele>557.984054</ele>
        <time>2026-07-12T13:47:17.000Z</time>
      </trkpt>
      <trkpt lat="46.40278" lon="14.13772">
        <ele>558.227636</ele>
        <time>2026-07-12T13:47:26.000Z</time>
      </trkpt>
      <trkpt lat="46.40305" lon="14.13711">
        <ele>558.508991</ele>
        <time>2026-07-12T13:47:36.000Z</time>
      </trkpt>
      <trkpt lat="46.40335" lon="14.1365">
        <ele>558.796229</ele>
        <time>2026-07-12T13:47:46.000Z</time>
      </trkpt>
      <trkpt lat="46.40341" lon="14.13638">
        <ele>558.853782</ele>
        <time>2026-07-12T13:47:48.000Z</time>
      </trkpt>
      <trkpt lat="46.40361" lon="14.13612">
        <ele>558.66531</ele>
        <time>2026-07-12T13:47:53.000Z</time>
      </trkpt>
      <trkpt lat="46.40401" lon="14.1357">
        <ele>558.186187</ele>
        <time>2026-07-12T13:48:02.000Z</time>
      </trkpt>
      <trkpt lat="46.40433" lon="14.13529">
        <ele>557.770001</ele>
        <time>2026-07-12T13:48:10.000Z</time>
      </trkpt>
      <trkpt lat="46.40462" lon="14.13481">
        <ele>557.340783</ele>
        <time>2026-07-12T13:48:18.000Z</time>
      </trkpt>
      <trkpt lat="46.40493" lon="14.13438">
        <ele>556.914243</ele>
        <time>2026-07-12T13:48:27.000Z</time>
      </trkpt>
      <trkpt lat="46.4053" lon="14.13381">
        <ele>556.361106</ele>
        <time>2026-07-12T13:48:38.000Z</time>
      </trkpt>
      <trkpt lat="46.4055" lon="14.13353">
        <ele>556.076597</ele>
        <time>2026-07-12T13:48:44.000Z</time>
      </trkpt>
      <trkpt lat="46.40578" lon="14.13312">
        <ele>555.669931</ele>
        <time>2026-07-12T13:48:53.000Z</time>
      </trkpt>
      <trkpt lat="46.40605" lon="14.13272">
        <ele>555.302942</ele>
        <time>2026-07-12T13:49:02.000Z</time>
      </trkpt>
      <trkpt lat="46.4062" lon="14.13255">
        <ele>555.472162</ele>
        <time>2026-07-12T13:49:07.000Z</time>
      </trkpt>
      <trkpt lat="46.40624" lon="14.13252">
        <ele>555.510388</ele>
        <time>2026-07-12T13:49:08.000Z</time>
      </trkpt>
      <trkpt lat="46.4065" lon="14.13229">
        <ele>555.780536</ele>
        <time>2026-07-12T13:49:15.000Z</time>
      </trkpt>
      <trkpt lat="46.4068" lon="14.13203">
        <ele>556.0861</ele>
        <time>2026-07-12T13:49:23.000Z</time>
      </trkpt>
      <trkpt lat="46.40703" lon="14.13187">
        <ele>556.311229</ele>
        <time>2026-07-12T13:49:30.000Z</time>
      </trkpt>
      <trkpt lat="46.40734" lon="14.13166">
        <ele>556.611444</ele>
        <time>2026-07-12T13:49:39.000Z</time>
      </trkpt>
      <trkpt lat="46.40777" lon="14.13141">
        <ele>557.209923</ele>
        <time>2026-07-12T13:49:50.000Z</time>
      </trkpt>
      <trkpt lat="46.40799" lon="14.13133">
        <ele>557.698626</ele>
        <time>2026-07-12T13:49:55.000Z</time>
      </trkpt>
      <trkpt lat="46.40805" lon="14.13134">
        <ele>557.804806</ele>
        <time>2026-07-12T13:49:56.000Z</time>
      </trkpt>
      <trkpt lat="46.4081" lon="14.13135">
        <ele>557.916803</ele>
        <time>2026-07-12T13:49:57.000Z</time>
      </trkpt>
      <trkpt lat="46.40821" lon="14.13144">
        <ele>558.192355</ele>
        <time>2026-07-12T13:50:00.000Z</time>
      </trkpt>
      <trkpt lat="46.40837" lon="14.13161">
        <ele>558.59045</ele>
        <time>2026-07-12T13:50:06.000Z</time>
      </trkpt>
      <trkpt lat="46.40859" lon="14.13184">
        <ele>559.162865</ele>
        <time>2026-07-12T13:50:13.000Z</time>
      </trkpt>
      <trkpt lat="46.40863" lon="14.13187">
        <ele>559.250382</ele>
        <time>2026-07-12T13:50:14.000Z</time>
      </trkpt>
      <trkpt lat="46.40885" lon="14.13202">
        <ele>559.748906</ele>
        <time>2026-07-12T13:50:20.000Z</time>
      </trkpt>
      <trkpt lat="46.40892" lon="14.13211">
        <ele>559.950606</ele>
        <time>2026-07-12T13:50:22.000Z</time>
      </trkpt>
      <trkpt lat="46.40898" lon="14.13222">
        <ele>560.155047</ele>
        <time>2026-07-12T13:50:24.000Z</time>
      </trkpt>
      <trkpt lat="46.409" lon="14.13229">
        <ele>560.258388</ele>
        <time>2026-07-12T13:50:25.000Z</time>
      </trkpt>
      <trkpt lat="46.40903" lon="14.13243">
        <ele>560.461256</ele>
        <time>2026-07-12T13:50:27.000Z</time>
      </trkpt>
      <trkpt lat="46.40905" lon="14.13263">
        <ele>560.787937</ele>
        <time>2026-07-12T13:50:30.000Z</time>
      </trkpt>
      <trkpt lat="46.40906" lon="14.13278">
        <ele>561.064723</ele>
        <time>2026-07-12T13:50:33.000Z</time>
      </trkpt>
      <trkpt lat="46.40907" lon="14.13298">
        <ele>561.415237</ele>
        <time>2026-07-12T13:50:37.000Z</time>
      </trkpt>
      <trkpt lat="46.40903" lon="14.13328">
        <ele>561.956575</ele>
        <time>2026-07-12T13:50:43.000Z</time>
      </trkpt>
      <trkpt lat="46.40903" lon="14.13339">
        <ele>562.144445</ele>
        <time>2026-07-12T13:50:46.000Z</time>
      </trkpt>
      <trkpt lat="46.40903" lon="14.13339">
        <ele>562.152932</ele>
        <time>2026-07-12T13:50:47.000Z</time>
      </trkpt>
      <trkpt lat="46.40903" lon="14.13339">
        <ele>562.152932</ele>
        <time>2026-07-12T13:50:48.000Z</time>
      </trkpt>
      <trkpt lat="46.40903" lon="14.13337">
        <ele>562.186705</ele>
        <time>2026-07-12T13:55:52.000Z</time>
      </trkpt>
      <trkpt lat="46.40903" lon="14.13332">
        <ele>562.275472</ele>
        <time>2026-07-12T13:55:54.000Z</time>
      </trkpt>
      <trkpt lat="46.40905" lon="14.13316">
        <ele>562.568109</ele>
        <time>2026-07-12T13:55:59.000Z</time>
      </trkpt>
      <trkpt lat="46.40906" lon="14.13312">
        <ele>562.64437</ele>
        <time>2026-07-12T13:56:00.000Z</time>
      </trkpt>
      <trkpt lat="46.40909" lon="14.13277">
        <ele>563.262212</ele>
        <time>2026-07-12T13:56:07.000Z</time>
      </trkpt>
      <trkpt lat="46.40906" lon="14.13245">
        <ele>563.832486</ele>
        <time>2026-07-12T13:56:13.000Z</time>
      </trkpt>
      <trkpt lat="46.40899" lon="14.13213">
        <ele>564.42472</ele>
        <time>2026-07-12T13:56:19.000Z</time>
      </trkpt>
      <trkpt lat="46.40883" lon="14.13197">
        <ele>564.931647</ele>
        <time>2026-07-12T13:56:24.000Z</time>
      </trkpt>
      <trkpt lat="46.40876" lon="14.13193">
        <ele>565.118336</ele>
        <time>2026-07-12T13:56:26.000Z</time>
      </trkpt>
      <trkpt lat="46.40865" lon="14.13187">
        <ele>565.152519</ele>
        <time>2026-07-12T13:56:30.000Z</time>
      </trkpt>
      <trkpt lat="46.40848" lon="14.13167">
        <ele>564.877297</ele>
        <time>2026-07-12T13:56:37.000Z</time>
      </trkpt>
      <trkpt lat="46.40848" lon="14.13166">
        <ele>564.8643</ele>
        <time>2026-07-12T13:56:40.000Z</time>
      </trkpt>
      <trkpt lat="46.40845" lon="14.13162">
        <ele>564.816619</ele>
        <time>2026-07-12T13:58:09.000Z</time>
      </trkpt>
      <trkpt lat="46.40831" lon="14.13149">
        <ele>564.607438</ele>
        <time>2026-07-12T13:58:15.000Z</time>
      </trkpt>
      <trkpt lat="46.40822" lon="14.1314">
        <ele>564.4647</ele>
        <time>2026-07-12T13:58:19.000Z</time>
      </trkpt>
      <trkpt lat="46.40817" lon="14.13135">
        <ele>564.390891</ele>
        <time>2026-07-12T13:58:21.000Z</time>
      </trkpt>
      <trkpt lat="46.40812" lon="14.13131">
        <ele>564.318287</ele>
        <time>2026-07-12T13:58:23.000Z</time>
      </trkpt>
      <trkpt lat="46.40803" lon="14.13128">
        <ele>564.201289</ele>
        <time>2026-07-12T13:58:26.000Z</time>
      </trkpt>
      <trkpt lat="46.40784" lon="14.1313">
        <ele>563.961979</ele>
        <time>2026-07-12T13:58:32.000Z</time>
      </trkpt>
      <trkpt lat="46.40769" lon="14.13137">
        <ele>563.757424</ele>
        <time>2026-07-12T13:58:37.000Z</time>
      </trkpt>
      <trkpt lat="46.40747" lon="14.13145">
        <ele>563.471236</ele>
        <time>2026-07-12T13:58:43.000Z</time>
      </trkpt>
      <trkpt lat="46.40713" lon="14.13169">
        <ele>562.999238</ele>
        <time>2026-07-12T13:58:53.000Z</time>
      </trkpt>
      <trkpt lat="46.40679" lon="14.13197">
        <ele>562.629394</ele>
        <time>2026-07-12T13:59:03.000Z</time>
      </trkpt>
      <trkpt lat="46.40662" lon="14.13211">
        <ele>562.444869</ele>
        <time>2026-07-12T13:59:08.000Z</time>
      </trkpt>
      <trkpt lat="46.40643" lon="14.13226">
        <ele>562.248048</ele>
        <time>2026-07-12T13:59:13.000Z</time>
      </trkpt>
      <trkpt lat="46.40618" lon="14.13251">
        <ele>561.966964</ele>
        <time>2026-07-12T13:59:20.000Z</time>
      </trkpt>
      <trkpt lat="46.4061" lon="14.13258">
        <ele>561.883063</ele>
        <time>2026-07-12T13:59:22.000Z</time>
      </trkpt>
      <trkpt lat="46.40585" lon="14.1329">
        <ele>561.574354</ele>
        <time>2026-07-12T13:59:30.000Z</time>
      </trkpt>
      <trkpt lat="46.40582" lon="14.13295">
        <ele>561.535498</ele>
        <time>2026-07-12T13:59:31.000Z</time>
      </trkpt>
      <trkpt lat="46.40564" lon="14.13321">
        <ele>561.303189</ele>
        <time>2026-07-12T13:59:37.000Z</time>
      </trkpt>
      <trkpt lat="46.4054" lon="14.13355">
        <ele>561.037083</ele>
        <time>2026-07-12T13:59:46.000Z</time>
      </trkpt>
      <trkpt lat="46.40531" lon="14.13362">
        <ele>560.956717</ele>
        <time>2026-07-12T13:59:49.000Z</time>
      </trkpt>
      <trkpt lat="46.40529" lon="14.13362">
        <ele>560.937539</ele>
        <time>2026-07-12T13:59:50.000Z</time>
      </trkpt>
      <trkpt lat="46.40516" lon="14.13353">
        <ele>560.826763</ele>
        <time>2026-07-12T13:59:54.000Z</time>
      </trkpt>
      <trkpt lat="46.40512" lon="14.1333">
        <ele>560.696048</ele>
        <time>2026-07-12T13:59:59.000Z</time>
      </trkpt>
      <trkpt lat="46.40513" lon="14.13325">
        <ele>560.670467</ele>
        <time>2026-07-12T14:00:00.000Z</time>
      </trkpt>
      <trkpt lat="46.40518" lon="14.1332">
        <ele>560.619137</ele>
        <time>2026-07-12T14:00:02.000Z</time>
      </trkpt>
      <trkpt lat="46.40521" lon="14.13319">
        <ele>560.599889</ele>
        <time>2026-07-12T14:00:05.000Z</time>
      </trkpt>
      <trkpt lat="46.40521" lon="14.13317">
        <ele>560.592656</ele>
        <time>2026-07-12T14:00:06.000Z</time>
      </trkpt>
      <trkpt lat="46.40519" lon="14.13312">
        <ele>560.56285</ele>
        <time>2026-07-12T14:00:08.000Z</time>
      </trkpt>
      <trkpt lat="46.40518" lon="14.13311">
        <ele>560.548407</ele>
        <time>2026-07-12T14:00:09.000Z</time>
      </trkpt>
      <trkpt lat="46.40505" lon="14.1331">
        <ele>560.445214</ele>
        <time>2026-07-12T14:00:14.000Z</time>
      </trkpt>
      <trkpt lat="46.40503" lon="14.1331">
        <ele>560.430007</ele>
        <time>2026-07-12T14:00:17.000Z</time>
      </trkpt>
      <trkpt lat="46.40499" lon="14.13308">
        <ele>560.398719</ele>
        <time>2026-07-12T14:03:35.000Z</time>
      </trkpt>
      <trkpt lat="46.40497" lon="14.13306">
        <ele>560.381818</ele>
        <time>2026-07-12T14:03:36.000Z</time>
      </trkpt>
      <trkpt lat="46.40493" lon="14.13295">
        <ele>560.312295</ele>
        <time>2026-07-12T14:03:39.000Z</time>
      </trkpt>
      <trkpt lat="46.40489" lon="14.13282">
        <ele>560.235491</ele>
        <time>2026-07-12T14:03:42.000Z</time>
      </trkpt>
      <trkpt lat="46.40484" lon="14.13265">
        <ele>560.133364</ele>
        <time>2026-07-12T14:03:45.000Z</time>
      </trkpt>
      <trkpt lat="46.40469" lon="14.13221">
        <ele>559.707301</ele>
        <time>2026-07-12T14:03:50.000Z</time>
      </trkpt>
      <trkpt lat="46.40451" lon="14.13165">
        <ele>557.105432</ele>
        <time>2026-07-12T14:03:55.000Z</time>
      </trkpt>
      <trkpt lat="46.40427" lon="14.13093">
        <ele>553.763594</ele>
        <time>2026-07-12T14:04:01.000Z</time>
      </trkpt>
      <trkpt lat="46.40411" lon="14.13039">
        <ele>551.273832</ele>
        <time>2026-07-12T14:04:07.000Z</time>
      </trkpt>
      <trkpt lat="46.40415" lon="14.13029">
        <ele>550.786508</ele>
        <time>2026-07-12T14:04:09.000Z</time>
      </trkpt>
      <trkpt lat="46.40418" lon="14.13026">
        <ele>550.54009</ele>
        <time>2026-07-12T14:04:10.000Z</time>
      </trkpt>
      <trkpt lat="46.40437" lon="14.13015">
        <ele>549.287143</ele>
        <time>2026-07-12T14:04:16.000Z</time>
      </trkpt>
      <trkpt lat="46.40438" lon="14.13014">
        <ele>549.199082</ele>
        <time>2026-07-12T14:04:17.000Z</time>
      </trkpt>
      <trkpt lat="46.40439" lon="14.13014">
        <ele>549.178255</ele>
        <time>2026-07-12T14:04:19.000Z</time>
      </trkpt>
      <trkpt lat="46.40443" lon="14.13013">
        <ele>548.906617</ele>
        <time>2026-07-12T14:04:30.000Z</time>
      </trkpt>
      <trkpt lat="46.40448" lon="14.13011">
        <ele>548.922201</ele>
        <time>2026-07-12T14:04:32.000Z</time>
      </trkpt>
      <trkpt lat="46.40467" lon="14.13008">
        <ele>549.020911</ele>
        <time>2026-07-12T14:04:38.000Z</time>
      </trkpt>
      <trkpt lat="46.40488" lon="14.13009">
        <ele>549.133594</ele>
        <time>2026-07-12T14:04:44.000Z</time>
      </trkpt>
      <trkpt lat="46.40518" lon="14.13019">
        <ele>549.294921</ele>
        <time>2026-07-12T14:04:51.000Z</time>
      </trkpt>
      <trkpt lat="46.40554" lon="14.13032">
        <ele>549.490678</ele>
        <time>2026-07-12T14:04:59.000Z</time>
      </trkpt>
      <trkpt lat="46.40573" lon="14.13039">
        <ele>549.590977</ele>
        <time>2026-07-12T14:05:04.000Z</time>
      </trkpt>
      <trkpt lat="46.40589" lon="14.13042">
        <ele>549.6802</ele>
        <time>2026-07-12T14:05:09.000Z</time>
      </trkpt>
      <trkpt lat="46.40621" lon="14.13049">
        <ele>549.853538</ele>
        <time>2026-07-12T14:05:17.000Z</time>
      </trkpt>
      <trkpt lat="46.40642" lon="14.13051">
        <ele>550.060292</ele>
        <time>2026-07-12T14:05:23.000Z</time>
      </trkpt>
      <trkpt lat="46.40669" lon="14.13053">
        <ele>550.332954</ele>
        <time>2026-07-12T14:05:31.000Z</time>
      </trkpt>
      <trkpt lat="46.40698" lon="14.1305">
        <ele>550.624648</ele>
        <time>2026-07-12T14:05:39.000Z</time>
      </trkpt>
      <trkpt lat="46.40729" lon="14.13049">
        <ele>550.930233</ele>
        <time>2026-07-12T14:05:47.000Z</time>
      </trkpt>
      <trkpt lat="46.40767" lon="14.1306">
        <ele>551.320897</ele>
        <time>2026-07-12T14:05:57.000Z</time>
      </trkpt>
      <trkpt lat="46.408" lon="14.13071">
        <ele>551.533163</ele>
        <time>2026-07-12T14:06:07.000Z</time>
      </trkpt>
      <trkpt lat="46.40817" lon="14.13079">
        <ele>550.872908</ele>
        <time>2026-07-12T14:06:12.000Z</time>
      </trkpt>
      <trkpt lat="46.40825" lon="14.13078">
        <ele>550.534985</ele>
        <time>2026-07-12T14:06:14.000Z</time>
      </trkpt>
      <trkpt lat="46.40837" lon="14.13074">
        <ele>550.06627</ele>
        <time>2026-07-12T14:06:17.000Z</time>
      </trkpt>
      <trkpt lat="46.40846" lon="14.13072">
        <ele>549.713332</ele>
        <time>2026-07-12T14:06:19.000Z</time>
      </trkpt>
      <trkpt lat="46.40851" lon="14.13074">
        <ele>549.495186</ele>
        <time>2026-07-12T14:06:21.000Z</time>
      </trkpt>
      <trkpt lat="46.40855" lon="14.13082">
        <ele>549.221109</ele>
        <time>2026-07-12T14:06:24.000Z</time>
      </trkpt>
      <trkpt lat="46.40856" lon="14.13084">
        <ele>549.169968</ele>
        <time>2026-07-12T14:06:25.000Z</time>
      </trkpt>
      <trkpt lat="46.40857" lon="14.13087">
        <ele>549.066885</ele>
        <time>2026-07-12T14:06:27.000Z</time>
      </trkpt>
      <trkpt lat="46.40859" lon="14.13092">
        <ele>548.928403</ele>
        <time>2026-07-12T14:06:29.000Z</time>
      </trkpt>
      <trkpt lat="46.40861" lon="14.13098">
        <ele>548.758692</ele>
        <time>2026-07-12T14:06:33.000Z</time>
      </trkpt>
      <trkpt lat="46.40861" lon="14.13098">
        <ele>548.758692</ele>
        <time>2026-07-12T14:06:34.000Z</time>
      </trkpt>
      <trkpt lat="46.40856" lon="14.1309">
        <ele>548.493719</ele>
        <time>2026-07-12T14:06:39.000Z</time>
      </trkpt>
      <trkpt lat="46.40854" lon="14.13089">
        <ele>548.399162</ele>
        <time>2026-07-12T14:06:40.000Z</time>
      </trkpt>
      <trkpt lat="46.40847" lon="14.13082">
        <ele>548.066446</ele>
        <time>2026-07-12T14:06:42.000Z</time>
      </trkpt>
      <trkpt lat="46.40855" lon="14.13065">
        <ele>547.506376</ele>
        <time>2026-07-12T14:06:45.000Z</time>
      </trkpt>
      <trkpt lat="46.40862" lon="14.13057">
        <ele>547.169175</ele>
        <time>2026-07-12T14:06:48.000Z</time>
      </trkpt>
      <trkpt lat="46.40865" lon="14.13057">
        <ele>547.038634</ele>
        <time>2026-07-12T14:06:50.000Z</time>
      </trkpt>
      <trkpt lat="46.40867" lon="14.13056">
        <ele>546.983241</ele>
        <time>2026-07-12T14:06:53.000Z</time>
      </trkpt>
      <trkpt lat="46.40868" lon="14.13065">
        <ele>546.732402</ele>
        <time>2026-07-12T14:07:33.000Z</time>
      </trkpt>
      <trkpt lat="46.40869" lon="14.13069">
        <ele>546.623319</ele>
        <time>2026-07-12T14:07:34.000Z</time>
      </trkpt>
      <trkpt lat="46.40871" lon="14.13091">
        <ele>546.039529</ele>
        <time>2026-07-12T14:07:38.000Z</time>
      </trkpt>
      <trkpt lat="46.40871" lon="14.13112">
        <ele>545.461766</ele>
        <time>2026-07-12T14:07:41.000Z</time>
      </trkpt>
      <trkpt lat="46.40872" lon="14.13126">
        <ele>545.079603</ele>
        <time>2026-07-12T14:07:43.000Z</time>
      </trkpt>
      <trkpt lat="46.40876" lon="14.13142">
        <ele>544.624722</ele>
        <time>2026-07-12T14:07:45.000Z</time>
      </trkpt>
      <trkpt lat="46.40883" lon="14.13153">
        <ele>544.599764</ele>
        <time>2026-07-12T14:07:47.000Z</time>
      </trkpt>
      <trkpt lat="46.40894" lon="14.13164">
        <ele>544.60435</ele>
        <time>2026-07-12T14:07:51.000Z</time>
      </trkpt>
      <trkpt lat="46.409" lon="14.13167">
        <ele>544.606855</ele>
        <time>2026-07-12T14:07:54.000Z</time>
      </trkpt>
      <trkpt lat="46.4091" lon="14.13168">
        <ele>544.610215</ele>
        <time>2026-07-12T14:07:57.000Z</time>
      </trkpt>
      <trkpt lat="46.40923" lon="14.13166">
        <ele>544.615085</ele>
        <time>2026-07-12T14:08:02.000Z</time>
      </trkpt>
      <trkpt lat="46.40928" lon="14.13163">
        <ele>544.617011</ele>
        <time>2026-07-12T14:08:04.000Z</time>
      </trkpt>
      <trkpt lat="46.4093" lon="14.13161">
        <ele>544.617849</ele>
        <time>2026-07-12T14:08:07.000Z</time>
      </trkpt>
      <trkpt lat="46.40932" lon="14.13151">
        <ele>544.620179</ele>
        <time>2026-07-12T14:09:51.000Z</time>
      </trkpt>
      <trkpt lat="46.40933" lon="14.13143">
        <ele>544.622216</ele>
        <time>2026-07-12T14:09:53.000Z</time>
      </trkpt>
      <trkpt lat="46.40934" lon="14.13131">
        <ele>544.625202</ele>
        <time>2026-07-12T14:09:56.000Z</time>
      </trkpt>
      <trkpt lat="46.40935" lon="14.13123">
        <ele>544.627247</ele>
        <time>2026-07-12T14:09:58.000Z</time>
      </trkpt>
      <trkpt lat="46.40936" lon="14.13115">
        <ele>544.629386</ele>
        <time>2026-07-12T14:10:00.000Z</time>
      </trkpt>
      <trkpt lat="46.40936" lon="14.13107">
        <ele>544.631182</ele>
        <time>2026-07-12T14:10:04.000Z</time>
      </trkpt>
      <trkpt lat="46.40939" lon="14.13096">
        <ele>544.634203</ele>
        <time>2026-07-12T14:10:16.000Z</time>
      </trkpt>
      <trkpt lat="46.40938" lon="14.13091">
        <ele>544.635274</ele>
        <time>2026-07-12T14:10:18.000Z</time>
      </trkpt>
      <trkpt lat="46.40937" lon="14.1309">
        <ele>544.635836</ele>
        <time>2026-07-12T14:10:19.000Z</time>
      </trkpt>
      <trkpt lat="46.40937" lon="14.13088">
        <ele>544.636372</ele>
        <time>2026-07-12T14:10:21.000Z</time>
      </trkpt>
      <trkpt lat="46.40937" lon="14.13087">
        <ele>544.636558</ele>
        <time>2026-07-12T14:10:22.000Z</time>
      </trkpt>
      <trkpt lat="46.40937" lon="14.13085">
        <ele>544.637124</ele>
        <time>2026-07-12T14:10:24.000Z</time>
      </trkpt>
      <trkpt lat="46.40935" lon="14.13078">
        <ele>544.639052</ele>
        <time>2026-07-12T14:10:27.000Z</time>
      </trkpt>
      <trkpt lat="46.40935" lon="14.13077">
        <ele>544.639312</ele>
        <time>2026-07-12T14:10:28.000Z</time>
      </trkpt>
      <trkpt lat="46.40935" lon="14.13076">
        <ele>544.639521</ele>
        <time>2026-07-12T14:10:30.000Z</time>
      </trkpt>
      <trkpt lat="46.40934" lon="14.13081">
        <ele>544.640798</ele>
        <time>2026-07-12T14:10:33.000Z</time>
      </trkpt>
      <trkpt lat="46.40932" lon="14.13089">
        <ele>544.642807</ele>
        <time>2026-07-12T14:10:37.000Z</time>
      </trkpt>
      <trkpt lat="46.40932" lon="14.13096">
        <ele>544.644651</ele>
        <time>2026-07-12T14:10:40.000Z</time>
      </trkpt>
      <trkpt lat="46.40932" lon="14.13099">
        <ele>544.645382</ele>
        <time>2026-07-12T14:10:42.000Z</time>
      </trkpt>
      <trkpt lat="46.40933" lon="14.13101">
        <ele>544.645933</ele>
        <time>2026-07-12T14:10:43.000Z</time>
      </trkpt>
      <trkpt lat="46.40934" lon="14.13105">
        <ele>544.646909</ele>
        <time>2026-07-12T14:10:45.000Z</time>
      </trkpt>
      <trkpt lat="46.40933" lon="14.13128">
        <ele>544.652716</ele>
        <time>2026-07-12T14:11:01.000Z</time>
      </trkpt>
      <trkpt lat="46.40932" lon="14.13131">
        <ele>544.653442</ele>
        <time>2026-07-12T14:11:02.000Z</time>
      </trkpt>
      <trkpt lat="46.40931" lon="14.13153">
        <ele>544.658713</ele>
        <time>2026-07-12T14:11:12.000Z</time>
      </trkpt>
      <trkpt lat="46.40927" lon="14.13157">
        <ele>544.668418</ele>
        <time>2026-07-12T14:11:16.000Z</time>
      </trkpt>
      <trkpt lat="46.40924" lon="14.13159">
        <ele>544.963538</ele>
        <time>2026-07-12T14:11:19.000Z</time>
      </trkpt>
      <trkpt lat="46.40923" lon="14.1316">
        <ele>545.043262</ele>
        <time>2026-07-12T14:11:20.000Z</time>
      </trkpt>
      <trkpt lat="46.40921" lon="14.13161">
        <ele>545.23536</ele>
        <time>2026-07-12T14:11:23.000Z</time>
      </trkpt>
      <trkpt lat="46.40854" lon="14.13172">
        <ele>550.950934</ele>
        <time>2026-07-12T14:15:53.000Z</time>
      </trkpt>
      <trkpt lat="46.40855" lon="14.13174">
        <ele>551.095341</ele>
        <time>2026-07-12T14:15:54.000Z</time>
      </trkpt>
      <trkpt lat="46.40864" lon="14.13183">
        <ele>552.010946</ele>
        <time>2026-07-12T14:15:59.000Z</time>
      </trkpt>
      <trkpt lat="46.40868" lon="14.13186">
        <ele>552.410955</ele>
        <time>2026-07-12T14:16:01.000Z</time>
      </trkpt>
      <trkpt lat="46.40886" lon="14.132">
        <ele>554.11705</ele>
        <time>2026-07-12T14:16:08.000Z</time>
      </trkpt>
      <trkpt lat="46.40897" lon="14.13215">
        <ele>555.426157</ele>
        <time>2026-07-12T14:16:12.000Z</time>
      </trkpt>
      <trkpt lat="46.40899" lon="14.13221">
        <ele>555.771558</ele>
        <time>2026-07-12T14:16:13.000Z</time>
      </trkpt>
      <trkpt lat="46.40901" lon="14.13252">
        <ele>557.602074</ele>
        <time>2026-07-12T14:16:18.000Z</time>
      </trkpt>
      <trkpt lat="46.40902" lon="14.13264">
        <ele>558.323557</ele>
        <time>2026-07-12T14:16:20.000Z</time>
      </trkpt>
      <trkpt lat="46.40903" lon="14.13276">
        <ele>559.033412</ele>
        <time>2026-07-12T14:16:22.000Z</time>
      </trkpt>
      <trkpt lat="46.40904" lon="14.13282">
        <ele>559.407274</ele>
        <time>2026-07-12T14:16:23.000Z</time>
      </trkpt>
      <trkpt lat="46.40904" lon="14.13303">
        <ele>560.158159</ele>
        <time>2026-07-12T14:16:26.000Z</time>
      </trkpt>
      <trkpt lat="46.40904" lon="14.1331">
        <ele>560.312212</ele>
        <time>2026-07-12T14:16:27.000Z</time>
      </trkpt>
      <trkpt lat="46.40901" lon="14.13324">
        <ele>560.608691</ele>
        <time>2026-07-12T14:16:29.000Z</time>
      </trkpt>
      <trkpt lat="46.409" lon="14.1333">
        <ele>560.752403</ele>
        <time>2026-07-12T14:16:30.000Z</time>
      </trkpt>
      <trkpt lat="46.40899" lon="14.13337">
        <ele>560.895019</ele>
        <time>2026-07-12T14:16:31.000Z</time>
      </trkpt>
      <trkpt lat="46.40904" lon="14.13347">
        <ele>561.152179</ele>
        <time>2026-07-12T14:16:33.000Z</time>
      </trkpt>
      <trkpt lat="46.40916" lon="14.13355">
        <ele>561.57284</ele>
        <time>2026-07-12T14:16:37.000Z</time>
      </trkpt>
      <trkpt lat="46.40917" lon="14.13355">
        <ele>561.614499</ele>
        <time>2026-07-12T14:16:40.000Z</time>
      </trkpt>
      <trkpt lat="46.40943" lon="14.13323">
        <ele>562.661784</ele>
        <time>2026-07-12T14:17:08.000Z</time>
      </trkpt>
      <trkpt lat="46.40944" lon="14.13318">
        <ele>562.779138</ele>
        <time>2026-07-12T14:17:11.000Z</time>
      </trkpt>
      <trkpt lat="46.40949" lon="14.13311">
        <ele>562.997448</ele>
        <time>2026-07-12T14:17:17.000Z</time>
      </trkpt>
      <trkpt lat="46.40952" lon="14.133">
        <ele>563.242627</ele>
        <time>2026-07-12T14:17:25.000Z</time>
      </trkpt>
      <trkpt lat="46.40957" lon="14.13281">
        <ele>563.690872</ele>
        <time>2026-07-12T14:17:37.000Z</time>
      </trkpt>
      <trkpt lat="46.40962" lon="14.13271">
        <ele>563.952854</ele>
        <time>2026-07-12T14:17:43.000Z</time>
      </trkpt>
      <trkpt lat="46.40967" lon="14.13263">
        <ele>564.169601</ele>
        <time>2026-07-12T14:17:48.000Z</time>
      </trkpt>
      <trkpt lat="46.40969" lon="14.13259">
        <ele>564.296634</ele>
        <time>2026-07-12T14:17:51.000Z</time>
      </trkpt>
      <trkpt lat="46.40972" lon="14.13253">
        <ele>564.446177</ele>
        <time>2026-07-12T14:17:54.000Z</time>
      </trkpt>
      <trkpt lat="46.40973" lon="14.13247">
        <ele>564.577419</ele>
        <time>2026-07-12T14:17:58.000Z</time>
      </trkpt>
      <trkpt lat="46.40976" lon="14.13239">
        <ele>564.77342</ele>
        <time>2026-07-12T14:18:03.000Z</time>
      </trkpt>
      <trkpt lat="46.40978" lon="14.13235">
        <ele>564.87577</ele>
        <time>2026-07-12T14:18:07.000Z</time>
      </trkpt>
      <trkpt lat="46.4098" lon="14.13234">
        <ele>564.926142</ele>
        <time>2026-07-12T14:18:10.000Z</time>
      </trkpt>
      <trkpt lat="46.40983" lon="14.13221">
        <ele>565.218934</ele>
        <time>2026-07-12T14:18:22.000Z</time>
      </trkpt>
      <trkpt lat="46.40983" lon="14.13219">
        <ele>565.270284</ele>
        <time>2026-07-12T14:18:23.000Z</time>
      </trkpt>
      <trkpt lat="46.40983" lon="14.13216">
        <ele>565.322377</ele>
        <time>2026-07-12T14:18:24.000Z</time>
      </trkpt>
      <trkpt lat="46.40982" lon="14.132">
        <ele>565.616484</ele>
        <time>2026-07-12T14:18:29.000Z</time>
      </trkpt>
      <trkpt lat="46.4098" lon="14.13177">
        <ele>565.98586</ele>
        <time>2026-07-12T14:18:34.000Z</time>
      </trkpt>
      <trkpt lat="46.40986" lon="14.13153">
        <ele>566.394303</ele>
        <time>2026-07-12T14:18:39.000Z</time>
      </trkpt>
      <trkpt lat="46.40994" lon="14.13137">
        <ele>566.709764</ele>
        <time>2026-07-12T14:18:43.000Z</time>
      </trkpt>
      <trkpt lat="46.40997" lon="14.13128">
        <ele>566.876109</ele>
        <time>2026-07-12T14:18:45.000Z</time>
      </trkpt>
      <trkpt lat="46.41001" lon="14.13121">
        <ele>567.019979</ele>
        <time>2026-07-12T14:18:47.000Z</time>
      </trkpt>
      <trkpt lat="46.41013" lon="14.131">
        <ele>567.466845</ele>
        <time>2026-07-12T14:18:53.000Z</time>
      </trkpt>
      <trkpt lat="46.41023" lon="14.13091">
        <ele>567.723537</ele>
        <time>2026-07-12T14:18:58.000Z</time>
      </trkpt>
      <trkpt lat="46.4103" lon="14.13085">
        <ele>567.929481</ele>
        <time>2026-07-12T14:19:03.000Z</time>
      </trkpt>
      <trkpt lat="46.41042" lon="14.13068">
        <ele>568.300535</ele>
        <time>2026-07-12T14:19:10.000Z</time>
      </trkpt>
      <trkpt lat="46.4105" lon="14.13054">
        <ele>568.600928</ele>
        <time>2026-07-12T14:19:15.000Z</time>
      </trkpt>
      <trkpt lat="46.41052" lon="14.13049">
        <ele>568.698586</ele>
        <time>2026-07-12T14:19:17.000Z</time>
      </trkpt>
      <trkpt lat="46.41058" lon="14.13034">
        <ele>568.980507</ele>
        <time>2026-07-12T14:19:23.000Z</time>
      </trkpt>
      <trkpt lat="46.4106" lon="14.1303">
        <ele>569.04654</ele>
        <time>2026-07-12T14:19:24.000Z</time>
      </trkpt>
      <trkpt lat="46.41063" lon="14.13019">
        <ele>569.238836</ele>
        <time>2026-07-12T14:19:28.000Z</time>
      </trkpt>
      <trkpt lat="46.41067" lon="14.13013">
        <ele>569.378494</ele>
        <time>2026-07-12T14:19:31.000Z</time>
      </trkpt>
      <trkpt lat="46.41071" lon="14.13007">
        <ele>569.499035</ele>
        <time>2026-07-12T14:19:34.000Z</time>
      </trkpt>
      <trkpt lat="46.41073" lon="14.13">
        <ele>569.623434</ele>
        <time>2026-07-12T14:19:37.000Z</time>
      </trkpt>
      <trkpt lat="46.41086" lon="14.1298">
        <ele>569.609124</ele>
        <time>2026-07-12T14:19:46.000Z</time>
      </trkpt>
      <trkpt lat="46.41099" lon="14.1296">
        <ele>569.568228</ele>
        <time>2026-07-12T14:19:53.000Z</time>
      </trkpt>
      <trkpt lat="46.41118" lon="14.12939">
        <ele>569.518335</ele>
        <time>2026-07-12T14:19:59.000Z</time>
      </trkpt>
      <trkpt lat="46.41133" lon="14.12922">
        <ele>569.478941</ele>
        <time>2026-07-12T14:20:03.000Z</time>
      </trkpt>
      <trkpt lat="46.41141" lon="14.12909">
        <ele>569.453262</ele>
        <time>2026-07-12T14:20:06.000Z</time>
      </trkpt>
      <trkpt lat="46.41142" lon="14.12906">
        <ele>569.447365</ele>
        <time>2026-07-12T14:20:07.000Z</time>
      </trkpt>
      <trkpt lat="46.41144" lon="14.12895">
        <ele>569.431737</ele>
        <time>2026-07-12T14:20:09.000Z</time>
      </trkpt>
      <trkpt lat="46.41144" lon="14.12891">
        <ele>569.426038</ele>
        <time>2026-07-12T14:20:10.000Z</time>
      </trkpt>
      <trkpt lat="46.41151" lon="14.12875">
        <ele>569.398192</ele>
        <time>2026-07-12T14:20:14.000Z</time>
      </trkpt>
      <trkpt lat="46.41162" lon="14.1286">
        <ele>569.366375</ele>
        <time>2026-07-12T14:20:18.000Z</time>
      </trkpt>
      <trkpt lat="46.41175" lon="14.12841">
        <ele>569.326612</ele>
        <time>2026-07-12T14:20:23.000Z</time>
      </trkpt>
      <trkpt lat="46.41194" lon="14.12817">
        <ele>569.274406</ele>
        <time>2026-07-12T14:20:29.000Z</time>
      </trkpt>
      <trkpt lat="46.41204" lon="14.12806">
        <ele>569.381824</ele>
        <time>2026-07-12T14:20:32.000Z</time>
      </trkpt>
      <trkpt lat="46.41233" lon="14.12774">
        <ele>569.843745</ele>
        <time>2026-07-12T14:20:41.000Z</time>
      </trkpt>
      <trkpt lat="46.41258" lon="14.1275">
        <ele>570.224465</ele>
        <time>2026-07-12T14:20:48.000Z</time>
      </trkpt>
      <trkpt lat="46.41267" lon="14.1274">
        <ele>570.368964</ele>
        <time>2026-07-12T14:20:51.000Z</time>
      </trkpt>
      <trkpt lat="46.41291" lon="14.12717">
        <ele>570.733452</ele>
        <time>2026-07-12T14:20:58.000Z</time>
      </trkpt>
      <trkpt lat="46.41316" lon="14.12689">
        <ele>571.138768</ele>
        <time>2026-07-12T14:21:05.000Z</time>
      </trkpt>
      <trkpt lat="46.4132" lon="14.12685">
        <ele>571.198459</ele>
        <time>2026-07-12T14:21:06.000Z</time>
      </trkpt>
      <trkpt lat="46.41331" lon="14.12672">
        <ele>571.379836</ele>
        <time>2026-07-12T14:21:09.000Z</time>
      </trkpt>
      <trkpt lat="46.41346" lon="14.12652">
        <ele>571.500296</ele>
        <time>2026-07-12T14:21:13.000Z</time>
      </trkpt>
      <trkpt lat="46.41369" lon="14.12616">
        <ele>571.234826</ele>
        <time>2026-07-12T14:21:20.000Z</time>
      </trkpt>
      <trkpt lat="46.41399" lon="14.12555">
        <ele>570.835863</ele>
        <time>2026-07-12T14:21:30.000Z</time>
      </trkpt>
      <trkpt lat="46.41415" lon="14.12509">
        <ele>570.563222</ele>
        <time>2026-07-12T14:21:36.000Z</time>
      </trkpt>
      <trkpt lat="46.41419" lon="14.12492">
        <ele>570.4643</ele>
        <time>2026-07-12T14:21:38.000Z</time>
      </trkpt>
      <trkpt lat="46.41426" lon="14.12467">
        <ele>570.32137</ele>
        <time>2026-07-12T14:21:41.000Z</time>
      </trkpt>
      <trkpt lat="46.41429" lon="14.1245">
        <ele>570.228411</ele>
        <time>2026-07-12T14:21:43.000Z</time>
      </trkpt>
      <trkpt lat="46.41449" lon="14.1237">
        <ele>570.837192</ele>
        <time>2026-07-12T14:21:53.000Z</time>
      </trkpt>
      <trkpt lat="46.41463" lon="14.12312">
        <ele>571.418094</ele>
        <time>2026-07-12T14:22:01.000Z</time>
      </trkpt>
      <trkpt lat="46.41478" lon="14.12247">
        <ele>572.062832</ele>
        <time>2026-07-12T14:22:10.000Z</time>
      </trkpt>
      <trkpt lat="46.41486" lon="14.12172">
        <ele>572.629458</ele>
        <time>2026-07-12T14:22:20.000Z</time>
      </trkpt>
      <trkpt lat="46.41492" lon="14.12087">
        <ele>572.668962</ele>
        <time>2026-07-12T14:22:31.000Z</time>
      </trkpt>
      <trkpt lat="46.41501" lon="14.12008">
        <ele>572.70599</ele>
        <time>2026-07-12T14:22:41.000Z</time>
      </trkpt>
      <trkpt lat="46.41503" lon="14.12">
        <ele>572.709678</ele>
        <time>2026-07-12T14:22:42.000Z</time>
      </trkpt>
      <trkpt lat="46.41518" lon="14.11923">
        <ele>572.70194</ele>
        <time>2026-07-12T14:22:52.000Z</time>
      </trkpt>
      <trkpt lat="46.41534" lon="14.11841">
        <ele>572.355643</ele>
        <time>2026-07-12T14:23:02.000Z</time>
      </trkpt>
      <trkpt lat="46.41542" lon="14.11799">
        <ele>572.179685</ele>
        <time>2026-07-12T14:23:07.000Z</time>
      </trkpt>
      <trkpt lat="46.41547" lon="14.11766">
        <ele>572.043575</ele>
        <time>2026-07-12T14:23:11.000Z</time>
      </trkpt>
      <trkpt lat="46.41558" lon="14.11701">
        <ele>571.770349</ele>
        <time>2026-07-12T14:23:19.000Z</time>
      </trkpt>
      <trkpt lat="46.41578" lon="14.11633">
        <ele>570.686641</ele>
        <time>2026-07-12T14:23:27.000Z</time>
      </trkpt>
      <trkpt lat="46.41599" lon="14.11566">
        <ele>569.300157</ele>
        <time>2026-07-12T14:23:34.000Z</time>
      </trkpt>
      <trkpt lat="46.41611" lon="14.11526">
        <ele>568.493237</ele>
        <time>2026-07-12T14:23:38.000Z</time>
      </trkpt>
      <trkpt lat="46.41616" lon="14.11506">
        <ele>568.088477</ele>
        <time>2026-07-12T14:23:40.000Z</time>
      </trkpt>
      <trkpt lat="46.41622" lon="14.11476">
        <ele>567.487605</ele>
        <time>2026-07-12T14:23:43.000Z</time>
      </trkpt>
      <trkpt lat="46.41633" lon="14.11392">
        <ele>566.288149</ele>
        <time>2026-07-12T14:23:51.000Z</time>
      </trkpt>
      <trkpt lat="46.41634" lon="14.11381">
        <ele>566.173473</ele>
        <time>2026-07-12T14:23:52.000Z</time>
      </trkpt>
      <trkpt lat="46.41643" lon="14.11303">
        <ele>565.374578</ele>
        <time>2026-07-12T14:23:59.000Z</time>
      </trkpt>
      <trkpt lat="46.41645" lon="14.11281">
        <ele>565.148736</ele>
        <time>2026-07-12T14:24:01.000Z</time>
      </trkpt>
      <trkpt lat="46.41654" lon="14.11194">
        <ele>564.258635</ele>
        <time>2026-07-12T14:24:09.000Z</time>
      </trkpt>
      <trkpt lat="46.41657" lon="14.11172">
        <ele>564.256889</ele>
        <time>2026-07-12T14:24:11.000Z</time>
      </trkpt>
      <trkpt lat="46.41669" lon="14.11103">
        <ele>565.407017</ele>
        <time>2026-07-12T14:24:18.000Z</time>
      </trkpt>
      <trkpt lat="46.41676" lon="14.11077">
        <ele>565.857592</ele>
        <time>2026-07-12T14:24:21.000Z</time>
      </trkpt>
      <trkpt lat="46.41684" lon="14.11053">
        <ele>566.283507</ele>
        <time>2026-07-12T14:24:24.000Z</time>
      </trkpt>
      <trkpt lat="46.41704" lon="14.11005">
        <ele>567.18783</ele>
        <time>2026-07-12T14:24:31.000Z</time>
      </trkpt>
      <trkpt lat="46.41726" lon="14.10965">
        <ele>568.020471</ele>
        <time>2026-07-12T14:24:38.000Z</time>
      </trkpt>
      <trkpt lat="46.41729" lon="14.10959">
        <ele>568.137649</ele>
        <time>2026-07-12T14:24:39.000Z</time>
      </trkpt>
      <trkpt lat="46.41745" lon="14.10941">
        <ele>568.405909</ele>
        <time>2026-07-12T14:24:43.000Z</time>
      </trkpt>
      <trkpt lat="46.41753" lon="14.10933">
        <ele>568.473625</ele>
        <time>2026-07-12T14:24:45.000Z</time>
      </trkpt>
      <trkpt lat="46.41762" lon="14.10925">
        <ele>568.542983</ele>
        <time>2026-07-12T14:24:47.000Z</time>
      </trkpt>
      <trkpt lat="46.41794" lon="14.10896">
        <ele>568.797117</ele>
        <time>2026-07-12T14:24:54.000Z</time>
      </trkpt>
      <trkpt lat="46.41803" lon="14.1089">
        <ele>568.867232</ele>
        <time>2026-07-12T14:24:56.000Z</time>
      </trkpt>
      <trkpt lat="46.41817" lon="14.1088">
        <ele>568.975764</ele>
        <time>2026-07-12T14:24:59.000Z</time>
      </trkpt>
      <trkpt lat="46.41869" lon="14.10835">
        <ele>569.382887</ele>
        <time>2026-07-12T14:25:09.000Z</time>
      </trkpt>
      <trkpt lat="46.41912" lon="14.10788">
        <ele>569.684001</ele>
        <time>2026-07-12T14:25:17.000Z</time>
      </trkpt>
      <trkpt lat="46.41933" lon="14.10761">
        <ele>569.816324</ele>
        <time>2026-07-12T14:25:21.000Z</time>
      </trkpt>
      <trkpt lat="46.41948" lon="14.1074">
        <ele>569.915678</ele>
        <time>2026-07-12T14:25:24.000Z</time>
      </trkpt>
      <trkpt lat="46.41982" lon="14.10695">
        <ele>570.132856</ele>
        <time>2026-07-12T14:25:30.000Z</time>
      </trkpt>
      <trkpt lat="46.42021" lon="14.10657">
        <ele>570.350925</ele>
        <time>2026-07-12T14:25:36.000Z</time>
      </trkpt>
      <trkpt lat="46.42048" lon="14.10635">
        <ele>570.183212</ele>
        <time>2026-07-12T14:25:40.000Z</time>
      </trkpt>
      <trkpt lat="46.42061" lon="14.10625">
        <ele>570.058507</ele>
        <time>2026-07-12T14:25:42.000Z</time>
      </trkpt>
      <trkpt lat="46.42067" lon="14.10621">
        <ele>569.995295</ele>
        <time>2026-07-12T14:25:43.000Z</time>
      </trkpt>
      <trkpt lat="46.42106" lon="14.10596">
        <ele>569.620759</ele>
        <time>2026-07-12T14:25:49.000Z</time>
      </trkpt>
      <trkpt lat="46.42126" lon="14.10582">
        <ele>569.426635</ele>
        <time>2026-07-12T14:25:52.000Z</time>
      </trkpt>
      <trkpt lat="46.42139" lon="14.10572">
        <ele>569.29749</ele>
        <time>2026-07-12T14:25:54.000Z</time>
      </trkpt>
      <trkpt lat="46.42164" lon="14.1055">
        <ele>569.047555</ele>
        <time>2026-07-12T14:25:58.000Z</time>
      </trkpt>
      <trkpt lat="46.42204" lon="14.10499">
        <ele>568.256291</ele>
        <time>2026-07-12T14:26:05.000Z</time>
      </trkpt>
      <trkpt lat="46.42209" lon="14.10491">
        <ele>568.099367</ele>
        <time>2026-07-12T14:26:06.000Z</time>
      </trkpt>
      <trkpt lat="46.42218" lon="14.10474">
        <ele>567.789942</ele>
        <time>2026-07-12T14:26:08.000Z</time>
      </trkpt>
      <trkpt lat="46.42233" lon="14.10438">
        <ele>567.183444</ele>
        <time>2026-07-12T14:26:12.000Z</time>
      </trkpt>
      <trkpt lat="46.42259" lon="14.10361">
        <ele>565.958962</ele>
        <time>2026-07-12T14:26:20.000Z</time>
      </trkpt>
      <trkpt lat="46.42262" lon="14.10351">
        <ele>565.806569</ele>
        <time>2026-07-12T14:26:21.000Z</time>
      </trkpt>
      <trkpt lat="46.42285" lon="14.10276">
        <ele>564.920317</ele>
        <time>2026-07-12T14:26:29.000Z</time>
      </trkpt>
      <trkpt lat="46.42314" lon="14.10212">
        <ele>564.543402</ele>
        <time>2026-07-12T14:26:37.000Z</time>
      </trkpt>
      <trkpt lat="46.42325" lon="14.10192">
        <ele>564.416834</ele>
        <time>2026-07-12T14:26:40.000Z</time>
      </trkpt>
      <trkpt lat="46.42344" lon="14.10158">
        <ele>564.209191</ele>
        <time>2026-07-12T14:26:45.000Z</time>
      </trkpt>
      <trkpt lat="46.42374" lon="14.10104">
        <ele>563.868629</ele>
        <time>2026-07-12T14:26:54.000Z</time>
      </trkpt>
      <trkpt lat="46.42377" lon="14.10098">
        <ele>563.830752</ele>
        <time>2026-07-12T14:26:55.000Z</time>
      </trkpt>
      <trkpt lat="46.4241" lon="14.10034">
        <ele>564.566564</ele>
        <time>2026-07-12T14:27:05.000Z</time>
      </trkpt>
      <trkpt lat="46.42413" lon="14.10028">
        <ele>564.651317</ele>
        <time>2026-07-12T14:27:06.000Z</time>
      </trkpt>
      <trkpt lat="46.42444" lon="14.09961">
        <ele>565.513856</ele>
        <time>2026-07-12T14:27:16.000Z</time>
      </trkpt>
      <trkpt lat="46.42474" lon="14.09887">
        <ele>566.440445</ele>
        <time>2026-07-12T14:27:26.000Z</time>
      </trkpt>
      <trkpt lat="46.425" lon="14.09816">
        <ele>566.773182</ele>
        <time>2026-07-12T14:27:35.000Z</time>
      </trkpt>
      <trkpt lat="46.42503" lon="14.09808">
        <ele>566.797816</ele>
        <time>2026-07-12T14:27:36.000Z</time>
      </trkpt>
      <trkpt lat="46.42528" lon="14.09732">
        <ele>567.027534</ele>
        <time>2026-07-12T14:27:45.000Z</time>
      </trkpt>
      <trkpt lat="46.42548" lon="14.09657">
        <ele>567.246542</ele>
        <time>2026-07-12T14:27:53.000Z</time>
      </trkpt>
      <trkpt lat="46.4255" lon="14.09647">
        <ele>567.275461</ele>
        <time>2026-07-12T14:27:54.000Z</time>
      </trkpt>
      <trkpt lat="46.42566" lon="14.09579">
        <ele>566.519684</ele>
        <time>2026-07-12T14:28:01.000Z</time>
      </trkpt>
      <trkpt lat="46.42581" lon="14.095">
        <ele>565.465266</ele>
        <time>2026-07-12T14:28:08.000Z</time>
      </trkpt>
      <trkpt lat="46.42584" lon="14.09477">
        <ele>565.160316</ele>
        <time>2026-07-12T14:28:10.000Z</time>
      </trkpt>
      <trkpt lat="46.42596" lon="14.09397">
        <ele>564.105448</ele>
        <time>2026-07-12T14:28:17.000Z</time>
      </trkpt>
      <trkpt lat="46.426" lon="14.09375">
        <ele>563.726345</ele>
        <time>2026-07-12T14:28:19.000Z</time>
      </trkpt>
      <trkpt lat="46.42606" lon="14.09344">
        <ele>563.033094</ele>
        <time>2026-07-12T14:28:23.000Z</time>
      </trkpt>
      <trkpt lat="46.42608" lon="14.09328">
        <ele>562.679087</ele>
        <time>2026-07-12T14:28:27.000Z</time>
      </trkpt>
      <trkpt lat="46.42608" lon="14.09327">
        <ele>562.643109</ele>
        <time>2026-07-12T14:28:30.000Z</time>
      </trkpt>
      <trkpt lat="46.42609" lon="14.09322">
        <ele>562.530145</ele>
        <time>2026-07-12T14:28:51.000Z</time>
      </trkpt>
      <trkpt lat="46.42609" lon="14.093">
        <ele>562.052126</ele>
        <time>2026-07-12T14:28:56.000Z</time>
      </trkpt>
      <trkpt lat="46.4261" lon="14.09263">
        <ele>561.24947</ele>
        <time>2026-07-12T14:29:01.000Z</time>
      </trkpt>
      <trkpt lat="46.42614" lon="14.09201">
        <ele>559.904275</ele>
        <time>2026-07-12T14:29:09.000Z</time>
      </trkpt>
      <trkpt lat="46.42616" lon="14.09144">
        <ele>558.666049</ele>
        <time>2026-07-12T14:29:16.000Z</time>
      </trkpt>
      <trkpt lat="46.42617" lon="14.09128">
        <ele>558.324462</ele>
        <time>2026-07-12T14:29:18.000Z</time>
      </trkpt>
      <trkpt lat="46.42623" lon="14.09075">
        <ele>558.423355</ele>
        <time>2026-07-12T14:29:25.000Z</time>
      </trkpt>
      <trkpt lat="46.42632" lon="14.09019">
        <ele>558.58737</ele>
        <time>2026-07-12T14:29:33.000Z</time>
      </trkpt>
      <trkpt lat="46.42646" lon="14.08959">
        <ele>558.77099</ele>
        <time>2026-07-12T14:29:43.000Z</time>
      </trkpt>
      <trkpt lat="46.42651" lon="14.08941">
        <ele>558.825098</ele>
        <time>2026-07-12T14:29:46.000Z</time>
      </trkpt>
      <trkpt lat="46.42659" lon="14.08912">
        <ele>558.915114</ele>
        <time>2026-07-12T14:29:51.000Z</time>
      </trkpt>
      <trkpt lat="46.42661" lon="14.08906">
        <ele>558.934827</ele>
        <time>2026-07-12T14:29:52.000Z</time>
      </trkpt>
      <trkpt lat="46.42671" lon="14.08873">
        <ele>558.990365</ele>
        <time>2026-07-12T14:29:57.000Z</time>
      </trkpt>
      <trkpt lat="46.42673" lon="14.08866">
        <ele>558.943856</ele>
        <time>2026-07-12T14:29:58.000Z</time>
      </trkpt>
      <trkpt lat="46.42674" lon="14.08859">
        <ele>558.898008</ele>
        <time>2026-07-12T14:29:59.000Z</time>
      </trkpt>
      <trkpt lat="46.42675" lon="14.08852">
        <ele>558.852097</ele>
        <time>2026-07-12T14:30:00.000Z</time>
      </trkpt>
      <trkpt lat="46.42678" lon="14.08837">
        <ele>558.758344</ele>
        <time>2026-07-12T14:30:02.000Z</time>
      </trkpt>
      <trkpt lat="46.42682" lon="14.08823">
        <ele>558.662158</ele>
        <time>2026-07-12T14:30:04.000Z</time>
      </trkpt>
      <trkpt lat="46.42685" lon="14.08815">
        <ele>558.609986</ele>
        <time>2026-07-12T14:30:05.000Z</time>
      </trkpt>
      <trkpt lat="46.42701" lon="14.08741">
        <ele>558.126102</ele>
        <time>2026-07-12T14:30:14.000Z</time>
      </trkpt>
      <trkpt lat="46.42713" lon="14.08671">
        <ele>557.674208</ele>
        <time>2026-07-12T14:30:21.000Z</time>
      </trkpt>
      <trkpt lat="46.42727" lon="14.08614">
        <ele>556.885588</ele>
        <time>2026-07-12T14:30:26.000Z</time>
      </trkpt>
      <trkpt lat="46.42753" lon="14.08539">
        <ele>554.268075</ele>
        <time>2026-07-12T14:30:32.000Z</time>
      </trkpt>
      <trkpt lat="46.42764" lon="14.08499">
        <ele>552.917642</ele>
        <time>2026-07-12T14:30:35.000Z</time>
      </trkpt>
      <trkpt lat="46.42769" lon="14.08471">
        <ele>552.003843</ele>
        <time>2026-07-12T14:30:37.000Z</time>
      </trkpt>
      <trkpt lat="46.42773" lon="14.08398">
        <ele>549.739959</ele>
        <time>2026-07-12T14:30:42.000Z</time>
      </trkpt>
      <trkpt lat="46.42774" lon="14.08324">
        <ele>547.965135</ele>
        <time>2026-07-12T14:30:47.000Z</time>
      </trkpt>
      <trkpt lat="46.42778" lon="14.0828">
        <ele>546.996907</ele>
        <time>2026-07-12T14:30:50.000Z</time>
      </trkpt>
      <trkpt lat="46.42791" lon="14.08213">
        <ele>545.474807</ele>
        <time>2026-07-12T14:30:55.000Z</time>
      </trkpt>
      <trkpt lat="46.42807" lon="14.08153">
        <ele>544.072079</ele>
        <time>2026-07-12T14:31:00.000Z</time>
      </trkpt>
      <trkpt lat="46.42809" lon="14.08142">
        <ele>543.81047</ele>
        <time>2026-07-12T14:31:01.000Z</time>
      </trkpt>
      <trkpt lat="46.42825" lon="14.08063">
        <ele>544.366508</ele>
        <time>2026-07-12T14:31:08.000Z</time>
      </trkpt>
      <trkpt lat="46.42831" lon="14.0803">
        <ele>544.783073</ele>
        <time>2026-07-12T14:31:11.000Z</time>
      </trkpt>
      <trkpt lat="46.42834" lon="14.08007">
        <ele>545.064496</ele>
        <time>2026-07-12T14:31:13.000Z</time>
      </trkpt>
      <trkpt lat="46.42839" lon="14.07974">
        <ele>545.483805</ele>
        <time>2026-07-12T14:31:16.000Z</time>
      </trkpt>
      <trkpt lat="46.4285" lon="14.07929">
        <ele>546.052091</ele>
        <time>2026-07-12T14:31:20.000Z</time>
      </trkpt>
      <trkpt lat="46.42872" lon="14.07855">
        <ele>547.038611</ele>
        <time>2026-07-12T14:31:27.000Z</time>
      </trkpt>
      <trkpt lat="46.42896" lon="14.07783">
        <ele>547.995158</ele>
        <time>2026-07-12T14:31:34.000Z</time>
      </trkpt>
      <trkpt lat="46.42906" lon="14.07753">
        <ele>548.396941</ele>
        <time>2026-07-12T14:31:37.000Z</time>
      </trkpt>
      <trkpt lat="46.42928" lon="14.07688">
        <ele>549.270263</ele>
        <time>2026-07-12T14:31:44.000Z</time>
      </trkpt>
      <trkpt lat="46.42943" lon="14.07626">
        <ele>549.965129</ele>
        <time>2026-07-12T14:31:51.000Z</time>
      </trkpt>
      <trkpt lat="46.42957" lon="14.07571">
        <ele>550.34923</ele>
        <time>2026-07-12T14:31:58.000Z</time>
      </trkpt>
      <trkpt lat="46.42971" lon="14.07521">
        <ele>550.706122</ele>
        <time>2026-07-12T14:32:05.000Z</time>
      </trkpt>
      <trkpt lat="46.4299" lon="14.07468">
        <ele>551.111272</ele>
        <time>2026-07-12T14:32:13.000Z</time>
      </trkpt>
      <trkpt lat="46.42993" lon="14.07461">
        <ele>551.15885</ele>
        <time>2026-07-12T14:32:14.000Z</time>
      </trkpt>
      <trkpt lat="46.42995" lon="14.07455">
        <ele>551.206005</ele>
        <time>2026-07-12T14:32:15.000Z</time>
      </trkpt>
      <trkpt lat="46.43004" lon="14.07431">
        <ele>551.388699</ele>
        <time>2026-07-12T14:32:19.000Z</time>
      </trkpt>
      <trkpt lat="46.43008" lon="14.07418">
        <ele>551.480425</ele>
        <time>2026-07-12T14:32:21.000Z</time>
      </trkpt>
      <trkpt lat="46.43016" lon="14.07393">
        <ele>551.752624</ele>
        <time>2026-07-12T14:32:25.000Z</time>
      </trkpt>
      <trkpt lat="46.43021" lon="14.07381">
        <ele>551.934645</ele>
        <time>2026-07-12T14:32:27.000Z</time>
      </trkpt>
      <trkpt lat="46.43031" lon="14.07345">
        <ele>552.438911</ele>
        <time>2026-07-12T14:32:33.000Z</time>
      </trkpt>
      <trkpt lat="46.43034" lon="14.07332">
        <ele>552.605621</ele>
        <time>2026-07-12T14:32:35.000Z</time>
      </trkpt>
      <trkpt lat="46.43038" lon="14.07306">
        <ele>552.9529</ele>
        <time>2026-07-12T14:32:39.000Z</time>
      </trkpt>
      <trkpt lat="46.43044" lon="14.0726">
        <ele>553.552352</ele>
        <time>2026-07-12T14:32:46.000Z</time>
      </trkpt>
      <trkpt lat="46.43046" lon="14.07246">
        <ele>553.732872</ele>
        <time>2026-07-12T14:32:48.000Z</time>
      </trkpt>
      <trkpt lat="46.43057" lon="14.07177">
        <ele>554.651878</ele>
        <time>2026-07-12T14:32:59.000Z</time>
      </trkpt>
      <trkpt lat="46.43064" lon="14.07127">
        <ele>555.242852</ele>
        <time>2026-07-12T14:33:07.000Z</time>
      </trkpt>
      <trkpt lat="46.43073" lon="14.07078">
        <ele>555.788358</ele>
        <time>2026-07-12T14:33:15.000Z</time>
      </trkpt>
      <trkpt lat="46.43077" lon="14.07044">
        <ele>556.166725</ele>
        <time>2026-07-12T14:33:21.000Z</time>
      </trkpt>
      <trkpt lat="46.43077" lon="14.07037">
        <ele>556.238375</ele>
        <time>2026-07-12T14:33:22.000Z</time>
      </trkpt>
      <trkpt lat="46.43078" lon="14.07031">
        <ele>556.306578</ele>
        <time>2026-07-12T14:33:23.000Z</time>
      </trkpt>
      <trkpt lat="46.43082" lon="14.07009">
        <ele>556.56038</ele>
        <time>2026-07-12T14:33:27.000Z</time>
      </trkpt>
      <trkpt lat="46.43089" lon="14.06962">
        <ele>557.076159</ele>
        <time>2026-07-12T14:33:35.000Z</time>
      </trkpt>
      <trkpt lat="46.43091" lon="14.06951">
        <ele>557.202296</ele>
        <time>2026-07-12T14:33:37.000Z</time>
      </trkpt>
      <trkpt lat="46.43095" lon="14.06927">
        <ele>557.462281</ele>
        <time>2026-07-12T14:33:41.000Z</time>
      </trkpt>
      <trkpt lat="46.43098" lon="14.06911">
        <ele>557.643687</ele>
        <time>2026-07-12T14:33:44.000Z</time>
      </trkpt>
      <trkpt lat="46.43108" lon="14.06853">
        <ele>558.350735</ele>
        <time>2026-07-12T14:33:54.000Z</time>
      </trkpt>
      <trkpt lat="46.4312" lon="14.0678">
        <ele>559.251556</ele>
        <time>2026-07-12T14:34:07.000Z</time>
      </trkpt>
      <trkpt lat="46.43127" lon="14.0673">
        <ele>559.875516</ele>
        <time>2026-07-12T14:34:16.000Z</time>
      </trkpt>
      <trkpt lat="46.43136" lon="14.06678">
        <ele>560.5147</ele>
        <time>2026-07-12T14:34:25.000Z</time>
      </trkpt>
      <trkpt lat="46.43137" lon="14.06672">
        <ele>560.587192</ele>
        <time>2026-07-12T14:34:26.000Z</time>
      </trkpt>
      <trkpt lat="46.43142" lon="14.06639">
        <ele>560.967552</ele>
        <time>2026-07-12T14:34:32.000Z</time>
      </trkpt>
      <trkpt lat="46.43152" lon="14.06581">
        <ele>561.437826</ele>
        <time>2026-07-12T14:34:42.000Z</time>
      </trkpt>
      <trkpt lat="46.43161" lon="14.06521">
        <ele>561.926551</ele>
        <time>2026-07-12T14:34:52.000Z</time>
      </trkpt>
      <trkpt lat="46.43167" lon="14.06477">
        <ele>562.284756</ele>
        <time>2026-07-12T14:34:59.000Z</time>
      </trkpt>
      <trkpt lat="46.43176" lon="14.06415">
        <ele>562.789021</ele>
        <time>2026-07-12T14:35:09.000Z</time>
      </trkpt>
      <trkpt lat="46.43186" lon="14.06368">
        <ele>563.835372</ele>
        <time>2026-07-12T14:35:17.000Z</time>
      </trkpt>
      <trkpt lat="46.432" lon="14.0632">
        <ele>565.628092</ele>
        <time>2026-07-12T14:35:26.000Z</time>
      </trkpt>
      <trkpt lat="46.43202" lon="14.06315">
        <ele>565.818536</ele>
        <time>2026-07-12T14:35:27.000Z</time>
      </trkpt>
      <trkpt lat="46.43222" lon="14.06273">
        <ele>567.543524</ele>
        <time>2026-07-12T14:35:37.000Z</time>
      </trkpt>
      <trkpt lat="46.43234" lon="14.0626">
        <ele>568.279625</ele>
        <time>2026-07-12T14:35:43.000Z</time>
      </trkpt>
      <trkpt lat="46.43235" lon="14.06259">
        <ele>568.325995</ele>
        <time>2026-07-12T14:35:46.000Z</time>
      </trkpt>
      <trkpt lat="46.4324" lon="14.06258">
        <ele>568.580001</ele>
        <time>2026-07-12T14:37:11.000Z</time>
      </trkpt>
      <trkpt lat="46.43241" lon="14.06259">
        <ele>568.659984</ele>
        <time>2026-07-12T14:37:12.000Z</time>
      </trkpt>
      <trkpt lat="46.43249" lon="14.06262">
        <ele>569.066207</ele>
        <time>2026-07-12T14:37:16.000Z</time>
      </trkpt>
      <trkpt lat="46.43256" lon="14.06254">
        <ele>569.479591</ele>
        <time>2026-07-12T14:37:20.000Z</time>
      </trkpt>
      <trkpt lat="46.43256" lon="14.0625">
        <ele>569.608988</ele>
        <time>2026-07-12T14:37:21.000Z</time>
      </trkpt>
      <trkpt lat="46.43257" lon="14.06235">
        <ele>570.120254</ele>
        <time>2026-07-12T14:37:25.000Z</time>
      </trkpt>
      <trkpt lat="46.43259" lon="14.0622">
        <ele>570.654783</ele>
        <time>2026-07-12T14:37:30.000Z</time>
      </trkpt>
      <trkpt lat="46.43253" lon="14.06207">
        <ele>571.186</ele>
        <time>2026-07-12T14:37:35.000Z</time>
      </trkpt>
      <trkpt lat="46.43254" lon="14.06204">
        <ele>571.290795</ele>
        <time>2026-07-12T14:37:36.000Z</time>
      </trkpt>
      <trkpt lat="46.43258" lon="14.06199">
        <ele>571.542208</ele>
        <time>2026-07-12T14:37:38.000Z</time>
      </trkpt>
      <trkpt lat="46.43273" lon="14.06186">
        <ele>572.530713</ele>
        <time>2026-07-12T14:37:45.000Z</time>
      </trkpt>
      <trkpt lat="46.43295" lon="14.06172">
        <ele>573.999898</ele>
        <time>2026-07-12T14:37:54.000Z</time>
      </trkpt>
      <trkpt lat="46.4331" lon="14.06163">
        <ele>574.943175</ele>
        <time>2026-07-12T14:38:00.000Z</time>
      </trkpt>
      <trkpt lat="46.43328" lon="14.06155">
        <ele>576.103505</ele>
        <time>2026-07-12T14:38:07.000Z</time>
      </trkpt>
      <trkpt lat="46.43349" lon="14.0614">
        <ele>577.480157</ele>
        <time>2026-07-12T14:38:15.000Z</time>
      </trkpt>
      <trkpt lat="46.43365" lon="14.06132">
        <ele>578.485338</ele>
        <time>2026-07-12T14:38:22.000Z</time>
      </trkpt>
      <trkpt lat="46.43386" lon="14.06118">
        <ele>579.856738</ele>
        <time>2026-07-12T14:38:31.000Z</time>
      </trkpt>
      <trkpt lat="46.43405" lon="14.06106">
        <ele>581.07937</ele>
        <time>2026-07-12T14:38:39.000Z</time>
      </trkpt>
      <trkpt lat="46.43422" lon="14.06094">
        <ele>582.267523</ele>
        <time>2026-07-12T14:38:47.000Z</time>
      </trkpt>
      <trkpt lat="46.43438" lon="14.06086">
        <ele>582.813118</ele>
        <time>2026-07-12T14:38:53.000Z</time>
      </trkpt>
      <trkpt lat="46.43444" lon="14.06081">
        <ele>582.958296</ele>
        <time>2026-07-12T14:38:56.000Z</time>
      </trkpt>
      <trkpt lat="46.43469" lon="14.06065">
        <ele>583.495847</ele>
        <time>2026-07-12T14:39:07.000Z</time>
      </trkpt>
      <trkpt lat="46.43487" lon="14.06055">
        <ele>583.895163</ele>
        <time>2026-07-12T14:39:15.000Z</time>
      </trkpt>
      <trkpt lat="46.43505" lon="14.06044">
        <ele>584.289932</ele>
        <time>2026-07-12T14:39:24.000Z</time>
      </trkpt>
      <trkpt lat="46.43518" lon="14.06036">
        <ele>584.571991</ele>
        <time>2026-07-12T14:39:30.000Z</time>
      </trkpt>
      <trkpt lat="46.4352" lon="14.06035">
        <ele>584.618866</ele>
        <time>2026-07-12T14:39:31.000Z</time>
      </trkpt>
      <trkpt lat="46.43524" lon="14.06032">
        <ele>584.70652</ele>
        <time>2026-07-12T14:39:35.000Z</time>
      </trkpt>
      <trkpt lat="46.43528" lon="14.0603">
        <ele>584.781323</ele>
        <time>2026-07-12T14:40:09.000Z</time>
      </trkpt>
      <trkpt lat="46.4353" lon="14.06029">
        <ele>584.830896</ele>
        <time>2026-07-12T14:40:10.000Z</time>
      </trkpt>
      <trkpt lat="46.43538" lon="14.0602">
        <ele>585.035668</ele>
        <time>2026-07-12T14:40:13.000Z</time>
      </trkpt>
      <trkpt lat="46.43558" lon="14.05996">
        <ele>585.549903</ele>
        <time>2026-07-12T14:40:19.000Z</time>
      </trkpt>
      <trkpt lat="46.43564" lon="14.05985">
        <ele>585.754244</ele>
        <time>2026-07-12T14:40:21.000Z</time>
      </trkpt>
      <trkpt lat="46.43569" lon="14.05977">
        <ele>585.900628</ele>
        <time>2026-07-12T14:40:23.000Z</time>
      </trkpt>
      <trkpt lat="46.43572" lon="14.05971">
        <ele>586.003977</ele>
        <time>2026-07-12T14:40:25.000Z</time>
      </trkpt>
      <trkpt lat="46.43576" lon="14.0596">
        <ele>586.174736</ele>
        <time>2026-07-12T14:40:30.000Z</time>
      </trkpt>
      <trkpt lat="46.43588" lon="14.05933">
        <ele>585.785905</ele>
        <time>2026-07-12T14:40:37.000Z</time>
      </trkpt>
      <trkpt lat="46.43593" lon="14.05917">
        <ele>585.538817</ele>
        <time>2026-07-12T14:40:40.000Z</time>
      </trkpt>
      <trkpt lat="46.43596" lon="14.05899">
        <ele>585.263665</ele>
        <time>2026-07-12T14:40:43.000Z</time>
      </trkpt>
      <trkpt lat="46.436" lon="14.0586">
        <ele>584.689231</ele>
        <time>2026-07-12T14:40:49.000Z</time>
      </trkpt>
      <trkpt lat="46.43602" lon="14.05852">
        <ele>584.577593</ele>
        <time>2026-07-12T14:40:50.000Z</time>
      </trkpt>
      <trkpt lat="46.43606" lon="14.0583">
        <ele>584.238694</ele>
        <time>2026-07-12T14:40:53.000Z</time>
      </trkpt>
      <trkpt lat="46.43609" lon="14.05815">
        <ele>584.013623</ele>
        <time>2026-07-12T14:40:55.000Z</time>
      </trkpt>
      <trkpt lat="46.43614" lon="14.05769">
        <ele>583.348096</ele>
        <time>2026-07-12T14:41:01.000Z</time>
      </trkpt>
      <trkpt lat="46.43622" lon="14.05722">
        <ele>582.640585</ele>
        <time>2026-07-12T14:41:08.000Z</time>
      </trkpt>
      <trkpt lat="46.43629" lon="14.05668">
        <ele>582.613809</ele>
        <time>2026-07-12T14:41:17.000Z</time>
      </trkpt>
      <trkpt lat="46.43635" lon="14.05624">
        <ele>582.818539</ele>
        <time>2026-07-12T14:41:25.000Z</time>
      </trkpt>
      <trkpt lat="46.43641" lon="14.05591">
        <ele>582.975577</ele>
        <time>2026-07-12T14:41:31.000Z</time>
      </trkpt>
      <trkpt lat="46.43645" lon="14.0557">
        <ele>583.076227</ele>
        <time>2026-07-12T14:41:35.000Z</time>
      </trkpt>
      <trkpt lat="46.43648" lon="14.05557">
        <ele>583.137372</ele>
        <time>2026-07-12T14:41:38.000Z</time>
      </trkpt>
      <trkpt lat="46.43652" lon="14.05527">
        <ele>583.278381</ele>
        <time>2026-07-12T14:41:44.000Z</time>
      </trkpt>
      <trkpt lat="46.4366" lon="14.05481">
        <ele>583.492689</ele>
        <time>2026-07-12T14:41:53.000Z</time>
      </trkpt>
      <trkpt lat="46.43668" lon="14.05469">
        <ele>583.56998</ele>
        <time>2026-07-12T14:41:57.000Z</time>
      </trkpt>
      <trkpt lat="46.43675" lon="14.05454">
        <ele>583.540813</ele>
        <time>2026-07-12T14:42:01.000Z</time>
      </trkpt>
      <trkpt lat="46.43678" lon="14.05453">
        <ele>583.500953</ele>
        <time>2026-07-12T14:42:02.000Z</time>
      </trkpt>
      <trkpt lat="46.43688" lon="14.05458">
        <ele>583.3295</ele>
        <time>2026-07-12T14:42:07.000Z</time>
      </trkpt>
      <trkpt lat="46.4369" lon="14.05464">
        <ele>583.259581</ele>
        <time>2026-07-12T14:42:10.000Z</time>
      </trkpt>
      <trkpt lat="46.4369" lon="14.05465">
        <ele>583.253877</ele>
        <time>2026-07-12T14:42:12.000Z</time>
      </trkpt>
      <trkpt lat="46.43686" lon="14.05468">
        <ele>583.184546</ele>
        <time>2026-07-12T14:42:18.000Z</time>
      </trkpt>
      <trkpt lat="46.43683" lon="14.05468">
        <ele>583.139095</ele>
        <time>2026-07-12T14:42:20.000Z</time>
      </trkpt>
      <trkpt lat="46.43683" lon="14.05472">
        <ele>583.102113</ele>
        <time>2026-07-12T14:46:20.000Z</time>
      </trkpt>
      <trkpt lat="46.43683" lon="14.05472">
        <ele>583.102113</ele>
        <time>2026-07-12T14:46:22.000Z</time>
      </trkpt>
      <trkpt lat="46.43672" lon="14.05461">
        <ele>582.891679</ele>
        <time>2026-07-12T14:49:03.000Z</time>
      </trkpt>
      <trkpt lat="46.43672" lon="14.05458">
        <ele>582.858379</ele>
        <time>2026-07-12T14:49:04.000Z</time>
      </trkpt>
      <trkpt lat="46.43671" lon="14.05439">
        <ele>582.654678</ele>
        <time>2026-07-12T14:49:09.000Z</time>
      </trkpt>
      <trkpt lat="46.43675" lon="14.0541">
        <ele>582.338451</ele>
        <time>2026-07-12T14:49:14.000Z</time>
      </trkpt>
      <trkpt lat="46.43679" lon="14.0539">
        <ele>582.104822</ele>
        <time>2026-07-12T14:49:18.000Z</time>
      </trkpt>
      <trkpt lat="46.43678" lon="14.05387">
        <ele>582.068159</ele>
        <time>2026-07-12T14:49:19.000Z</time>
      </trkpt>
      <trkpt lat="46.43672" lon="14.05375">
        <ele>581.914343</ele>
        <time>2026-07-12T14:49:24.000Z</time>
      </trkpt>
      <trkpt lat="46.43672" lon="14.05375">
        <ele>581.909012</ele>
        <time>2026-07-12T14:49:26.000Z</time>
      </trkpt>
      <trkpt lat="46.43676" lon="14.05369">
        <ele>581.824619</ele>
        <time>2026-07-12T14:49:48.000Z</time>
      </trkpt>
      <trkpt lat="46.43688" lon="14.05359">
        <ele>581.599856</ele>
        <time>2026-07-12T14:49:53.000Z</time>
      </trkpt>
      <trkpt lat="46.43701" lon="14.05338">
        <ele>581.299031</ele>
        <time>2026-07-12T14:49:58.000Z</time>
      </trkpt>
      <trkpt lat="46.43703" lon="14.05332">
        <ele>581.227768</ele>
        <time>2026-07-12T14:49:59.000Z</time>
      </trkpt>
      <trkpt lat="46.43707" lon="14.05318">
        <ele>581.071142</ele>
        <time>2026-07-12T14:50:01.000Z</time>
      </trkpt>
      <trkpt lat="46.43707" lon="14.0531">
        <ele>580.98578</ele>
        <time>2026-07-12T14:50:02.000Z</time>
      </trkpt>
      <trkpt lat="46.43707" lon="14.05302">
        <ele>580.896109</ele>
        <time>2026-07-12T14:50:03.000Z</time>
      </trkpt>
      <trkpt lat="46.43704" lon="14.05285">
        <ele>580.764803</ele>
        <time>2026-07-12T14:50:05.000Z</time>
      </trkpt>
      <trkpt lat="46.43701" lon="14.05277">
        <ele>580.725236</ele>
        <time>2026-07-12T14:50:06.000Z</time>
      </trkpt>
      <trkpt lat="46.43696" lon="14.0527">
        <ele>580.682695</ele>
        <time>2026-07-12T14:50:07.000Z</time>
      </trkpt>
      <trkpt lat="46.43685" lon="14.05257">
        <ele>580.592394</ele>
        <time>2026-07-12T14:50:09.000Z</time>
      </trkpt>
      <trkpt lat="46.43679" lon="14.05253">
        <ele>580.55018</ele>
        <time>2026-07-12T14:50:10.000Z</time>
      </trkpt>
      <trkpt lat="46.43489" lon="14.05196">
        <ele>578.870692</ele>
        <time>2026-07-12T14:50:41.000Z</time>
      </trkpt>
      <trkpt lat="46.43486" lon="14.05194">
        <ele>578.818399</ele>
        <time>2026-07-12T14:50:42.000Z</time>
      </trkpt>
      <trkpt lat="46.43476" lon="14.05189">
        <ele>578.665598</ele>
        <time>2026-07-12T14:50:45.000Z</time>
      </trkpt>
      <trkpt lat="46.43456" lon="14.05178">
        <ele>578.347952</ele>
        <time>2026-07-12T14:50:50.000Z</time>
      </trkpt>
      <trkpt lat="46.43436" lon="14.05161">
        <ele>578.010274</ele>
        <time>2026-07-12T14:50:56.000Z</time>
      </trkpt>
      <trkpt lat="46.43434" lon="14.05139">
        <ele>577.785854</ele>
        <time>2026-07-12T14:51:00.000Z</time>
      </trkpt>
      <trkpt lat="46.4344" lon="14.05092">
        <ele>577.300997</ele>
        <time>2026-07-12T14:51:08.000Z</time>
      </trkpt>
      <trkpt lat="46.43451" lon="14.05054">
        <ele>576.965639</ele>
        <time>2026-07-12T14:51:14.000Z</time>
      </trkpt>
      <trkpt lat="46.43458" lon="14.05028">
        <ele>576.839846</ele>
        <time>2026-07-12T14:51:18.000Z</time>
      </trkpt>
      <trkpt lat="46.4346" lon="14.05013">
        <ele>576.776714</ele>
        <time>2026-07-12T14:51:20.000Z</time>
      </trkpt>
      <trkpt lat="46.43459" lon="14.04959">
        <ele>576.536408</ele>
        <time>2026-07-12T14:51:27.000Z</time>
      </trkpt>
      <trkpt lat="46.43455" lon="14.04898">
        <ele>576.268828</ele>
        <time>2026-07-12T14:51:35.000Z</time>
      </trkpt>
      <trkpt lat="46.43453" lon="14.04875">
        <ele>576.169016</ele>
        <time>2026-07-12T14:51:38.000Z</time>
      </trkpt>
      <trkpt lat="46.43454" lon="14.04852">
        <ele>576.067891</ele>
        <time>2026-07-12T14:51:41.000Z</time>
      </trkpt>
      <trkpt lat="46.43454" lon="14.04837">
        <ele>576.001362</ele>
        <time>2026-07-12T14:51:43.000Z</time>
      </trkpt>
      <trkpt lat="46.43455" lon="14.04783">
        <ele>575.904365</ele>
        <time>2026-07-12T14:51:50.000Z</time>
      </trkpt>
      <trkpt lat="46.43455" lon="14.04776">
        <ele>575.909917</ele>
        <time>2026-07-12T14:51:51.000Z</time>
      </trkpt>
      <trkpt lat="46.43449" lon="14.04739">
        <ele>575.939026</ele>
        <time>2026-07-12T14:51:56.000Z</time>
      </trkpt>
      <trkpt lat="46.43432" lon="14.04682">
        <ele>575.986449</ele>
        <time>2026-07-12T14:52:04.000Z</time>
      </trkpt>
      <trkpt lat="46.4341" lon="14.04638">
        <ele>576.028929</ele>
        <time>2026-07-12T14:52:11.000Z</time>
      </trkpt>
      <trkpt lat="46.4339" lon="14.04602">
        <ele>576.064205</ele>
        <time>2026-07-12T14:52:17.000Z</time>
      </trkpt>
      <trkpt lat="46.43384" lon="14.04594">
        <ele>576.073497</ele>
        <time>2026-07-12T14:52:19.000Z</time>
      </trkpt>
      <trkpt lat="46.43366" lon="14.04549">
        <ele>576.555088</ele>
        <time>2026-07-12T14:52:28.000Z</time>
      </trkpt>
      <trkpt lat="46.43363" lon="14.04529">
        <ele>576.815026</ele>
        <time>2026-07-12T14:52:32.000Z</time>
      </trkpt>
      <trkpt lat="46.43365" lon="14.04497">
        <ele>577.214069</ele>
        <time>2026-07-12T14:52:38.000Z</time>
      </trkpt>
      <trkpt lat="46.43376" lon="14.04475">
        <ele>577.556084</ele>
        <time>2026-07-12T14:52:43.000Z</time>
      </trkpt>
      <trkpt lat="46.43398" lon="14.04444">
        <ele>578.106281</ele>
        <time>2026-07-12T14:52:50.000Z</time>
      </trkpt>
      <trkpt lat="46.43402" lon="14.04439">
        <ele>578.196311</ele>
        <time>2026-07-12T14:52:51.000Z</time>
      </trkpt>
      <trkpt lat="46.43413" lon="14.04422">
        <ele>578.486588</ele>
        <time>2026-07-12T14:52:54.000Z</time>
      </trkpt>
      <trkpt lat="46.4342" lon="14.04409">
        <ele>578.699992</ele>
        <time>2026-07-12T14:52:56.000Z</time>
      </trkpt>
      <trkpt lat="46.43436" lon="14.04353">
        <ele>579.305012</ele>
        <time>2026-07-12T14:53:03.000Z</time>
      </trkpt>
      <trkpt lat="46.43449" lon="14.04307">
        <ele>579.068149</ele>
        <time>2026-07-12T14:53:09.000Z</time>
      </trkpt>
      <trkpt lat="46.43451" lon="14.04299">
        <ele>579.029996</ele>
        <time>2026-07-12T14:53:10.000Z</time>
      </trkpt>
      <trkpt lat="46.43464" lon="14.04258">
        <ele>578.818337</ele>
        <time>2026-07-12T14:53:16.000Z</time>
      </trkpt>
      <trkpt lat="46.43466" lon="14.04251">
        <ele>578.782078</ele>
        <time>2026-07-12T14:53:17.000Z</time>
      </trkpt>
      <trkpt lat="46.43493" lon="14.04193">
        <ele>578.446449</ele>
        <time>2026-07-12T14:53:26.000Z</time>
      </trkpt>
      <trkpt lat="46.43523" lon="14.04141">
        <ele>578.125967</ele>
        <time>2026-07-12T14:53:34.000Z</time>
      </trkpt>
      <trkpt lat="46.43527" lon="14.04135">
        <ele>578.185145</ele>
        <time>2026-07-12T14:53:35.000Z</time>
      </trkpt>
      <trkpt lat="46.43552" lon="14.04082">
        <ele>579.061157</ele>
        <time>2026-07-12T14:53:43.000Z</time>
      </trkpt>
      <trkpt lat="46.43571" lon="14.04042">
        <ele>579.736066</ele>
        <time>2026-07-12T14:53:51.000Z</time>
      </trkpt>
      <trkpt lat="46.43592" lon="14.04005">
        <ele>580.407057</ele>
        <time>2026-07-12T14:54:00.000Z</time>
      </trkpt>
      <trkpt lat="46.43605" lon="14.03977">
        <ele>580.869547</ele>
        <time>2026-07-12T14:54:05.000Z</time>
      </trkpt>
      <trkpt lat="46.43611" lon="14.03964">
        <ele>581.073118</ele>
        <time>2026-07-12T14:54:07.000Z</time>
      </trkpt>
      <trkpt lat="46.43629" lon="14.03927">
        <ele>581.710655</ele>
        <time>2026-07-12T14:54:13.000Z</time>
      </trkpt>
      <trkpt lat="46.43659" lon="14.03871">
        <ele>581.838283</ele>
        <time>2026-07-12T14:54:20.000Z</time>
      </trkpt>
      <trkpt lat="46.43687" lon="14.03824">
        <ele>581.947733</ele>
        <time>2026-07-12T14:54:26.000Z</time>
      </trkpt>
      <trkpt lat="46.43701" lon="14.03803">
        <ele>581.99779</ele>
        <time>2026-07-12T14:54:29.000Z</time>
      </trkpt>
      <trkpt lat="46.43721" lon="14.03767">
        <ele>582.080099</ele>
        <time>2026-07-12T14:54:35.000Z</time>
      </trkpt>
      <trkpt lat="46.4374" lon="14.0373">
        <ele>582.161932</ele>
        <time>2026-07-12T14:54:42.000Z</time>
      </trkpt>
      <trkpt lat="46.43761" lon="14.0369">
        <ele>582.266518</ele>
        <time>2026-07-12T14:54:50.000Z</time>
      </trkpt>
      <trkpt lat="46.43778" lon="14.03655">
        <ele>582.359681</ele>
        <time>2026-07-12T14:54:58.000Z</time>
      </trkpt>
      <trkpt lat="46.43799" lon="14.03623">
        <ele>582.452155</ele>
        <time>2026-07-12T14:55:05.000Z</time>
      </trkpt>
      <trkpt lat="46.43812" lon="14.03592">
        <ele>582.53003</ele>
        <time>2026-07-12T14:55:10.000Z</time>
      </trkpt>
      <trkpt lat="46.43828" lon="14.03545">
        <ele>582.642288</ele>
        <time>2026-07-12T14:55:16.000Z</time>
      </trkpt>
      <trkpt lat="46.43846" lon="14.03484">
        <ele>582.492463</ele>
        <time>2026-07-12T14:55:23.000Z</time>
      </trkpt>
      <trkpt lat="46.43865" lon="14.03417">
        <ele>581.773697</ele>
        <time>2026-07-12T14:55:30.000Z</time>
      </trkpt>
      <trkpt lat="46.43866" lon="14.03406">
        <ele>581.659894</ele>
        <time>2026-07-12T14:55:31.000Z</time>
      </trkpt>
      <trkpt lat="46.43868" lon="14.03382">
        <ele>581.419458</ele>
        <time>2026-07-12T14:55:33.000Z</time>
      </trkpt>
      <trkpt lat="46.43863" lon="14.03336">
        <ele>580.958641</ele>
        <time>2026-07-12T14:55:37.000Z</time>
      </trkpt>
      <trkpt lat="46.43861" lon="14.03323">
        <ele>580.833907</ele>
        <time>2026-07-12T14:55:38.000Z</time>
      </trkpt>
      <trkpt lat="46.4386" lon="14.03306">
        <ele>580.65875</ele>
        <time>2026-07-12T14:55:40.000Z</time>
      </trkpt>
      <trkpt lat="46.43859" lon="14.03297">
        <ele>580.575022</ele>
        <time>2026-07-12T14:55:41.000Z</time>
      </trkpt>
      <trkpt lat="46.43858" lon="14.03289">
        <ele>580.493424</ele>
        <time>2026-07-12T14:55:42.000Z</time>
      </trkpt>
      <trkpt lat="46.43857" lon="14.03259">
        <ele>580.198037</ele>
        <time>2026-07-12T14:55:46.000Z</time>
      </trkpt>
      <trkpt lat="46.43861" lon="14.03215">
        <ele>580.797175</ele>
        <time>2026-07-12T14:55:52.000Z</time>
      </trkpt>
      <trkpt lat="46.43862" lon="14.03185">
        <ele>581.286928</ele>
        <time>2026-07-12T14:55:56.000Z</time>
      </trkpt>
      <trkpt lat="46.43863" lon="14.03162">
        <ele>581.650016</ele>
        <time>2026-07-12T14:55:59.000Z</time>
      </trkpt>
      <trkpt lat="46.4386" lon="14.03102">
        <ele>582.63962</ele>
        <time>2026-07-12T14:56:07.000Z</time>
      </trkpt>
      <trkpt lat="46.43858" lon="14.03036">
        <ele>583.707776</ele>
        <time>2026-07-12T14:56:16.000Z</time>
      </trkpt>
      <trkpt lat="46.43857" lon="14.0303">
        <ele>583.809379</ele>
        <time>2026-07-12T14:56:17.000Z</time>
      </trkpt>
      <trkpt lat="46.43854" lon="14.03">
        <ele>584.297808</ele>
        <time>2026-07-12T14:56:22.000Z</time>
      </trkpt>
      <trkpt lat="46.4385" lon="14.02951">
        <ele>584.629475</ele>
        <time>2026-07-12T14:56:31.000Z</time>
      </trkpt>
      <trkpt lat="46.4385" lon="14.02921">
        <ele>584.788895</ele>
        <time>2026-07-12T14:56:37.000Z</time>
      </trkpt>
      <trkpt lat="46.43853" lon="14.02883">
        <ele>584.990326</ele>
        <time>2026-07-12T14:56:45.000Z</time>
      </trkpt>
      <trkpt lat="46.43856" lon="14.02858">
        <ele>585.125833</ele>
        <time>2026-07-12T14:56:50.000Z</time>
      </trkpt>
      <trkpt lat="46.4386" lon="14.02848">
        <ele>585.185805</ele>
        <time>2026-07-12T14:56:52.000Z</time>
      </trkpt>
      <trkpt lat="46.4387" lon="14.02821">
        <ele>585.351072</ele>
        <time>2026-07-12T14:56:57.000Z</time>
      </trkpt>
      <trkpt lat="46.43873" lon="14.02809">
        <ele>585.421937</ele>
        <time>2026-07-12T14:56:59.000Z</time>
      </trkpt>
      <trkpt lat="46.43885" lon="14.02761">
        <ele>585.689349</ele>
        <time>2026-07-12T14:57:06.000Z</time>
      </trkpt>
      <trkpt lat="46.43891" lon="14.02749">
        <ele>585.770238</ele>
        <time>2026-07-12T14:57:08.000Z</time>
      </trkpt>
      <trkpt lat="46.43904" lon="14.02729">
        <ele>585.733807</ele>
        <time>2026-07-12T14:57:12.000Z</time>
      </trkpt>
      <trkpt lat="46.43916" lon="14.02713">
        <ele>585.688451</ele>
        <time>2026-07-12T14:57:15.000Z</time>
      </trkpt>
      <trkpt lat="46.43926" lon="14.02695">
        <ele>585.6418</ele>
        <time>2026-07-12T14:57:18.000Z</time>
      </trkpt>
      <trkpt lat="46.4394" lon="14.02657">
        <ele>585.55709</ele>
        <time>2026-07-12T14:57:23.000Z</time>
      </trkpt>
      <trkpt lat="46.43943" lon="14.0265">
        <ele>585.539267</ele>
        <time>2026-07-12T14:57:24.000Z</time>
      </trkpt>
      <trkpt lat="46.43953" lon="14.02627">
        <ele>585.485517</ele>
        <time>2026-07-12T14:57:27.000Z</time>
      </trkpt>
      <trkpt lat="46.43962" lon="14.02605">
        <ele>585.435061</ele>
        <time>2026-07-12T14:57:30.000Z</time>
      </trkpt>
      <trkpt lat="46.43981" lon="14.02561">
        <ele>585.33263</ele>
        <time>2026-07-12T14:57:37.000Z</time>
      </trkpt>
      <trkpt lat="46.43986" lon="14.02549">
        <ele>585.304665</ele>
        <time>2026-07-12T14:57:39.000Z</time>
      </trkpt>
      <trkpt lat="46.43995" lon="14.02523">
        <ele>585.259005</ele>
        <time>2026-07-12T14:57:43.000Z</time>
      </trkpt>
      <trkpt lat="46.44003" lon="14.02472">
        <ele>585.224874</ele>
        <time>2026-07-12T14:57:50.000Z</time>
      </trkpt>
      <trkpt lat="46.44004" lon="14.02465">
        <ele>585.220179</ele>
        <time>2026-07-12T14:57:51.000Z</time>
      </trkpt>
      <trkpt lat="46.44014" lon="14.02438">
        <ele>585.200547</ele>
        <time>2026-07-12T14:57:55.000Z</time>
      </trkpt>
      <trkpt lat="46.44034" lon="14.02388">
        <ele>585.162182</ele>
        <time>2026-07-12T14:58:03.000Z</time>
      </trkpt>
      <trkpt lat="46.44063" lon="14.02323">
        <ele>585.111321</ele>
        <time>2026-07-12T14:58:13.000Z</time>
      </trkpt>
      <trkpt lat="46.44076" lon="14.02297">
        <ele>585.17085</ele>
        <time>2026-07-12T14:58:17.000Z</time>
      </trkpt>
      <trkpt lat="46.44084" lon="14.02286">
        <ele>585.354995</ele>
        <time>2026-07-12T14:58:19.000Z</time>
      </trkpt>
      <trkpt lat="46.44093" lon="14.02277">
        <ele>585.539004</ele>
        <time>2026-07-12T14:58:21.000Z</time>
      </trkpt>
      <trkpt lat="46.44099" lon="14.02266">
        <ele>585.706533</ele>
        <time>2026-07-12T14:58:23.000Z</time>
      </trkpt>
      <trkpt lat="46.44101" lon="14.0226">
        <ele>585.787453</ele>
        <time>2026-07-12T14:58:24.000Z</time>
      </trkpt>
      <trkpt lat="46.44113" lon="14.02216">
        <ele>586.342948</ele>
        <time>2026-07-12T14:58:31.000Z</time>
      </trkpt>
      <trkpt lat="46.44128" lon="14.02178">
        <ele>586.862732</ele>
        <time>2026-07-12T14:58:38.000Z</time>
      </trkpt>
      <trkpt lat="46.44141" lon="14.02134">
        <ele>587.439337</ele>
        <time>2026-07-12T14:58:46.000Z</time>
      </trkpt>
      <trkpt lat="46.44149" lon="14.02106">
        <ele>587.795952</ele>
        <time>2026-07-12T14:58:51.000Z</time>
      </trkpt>
      <trkpt lat="46.44154" lon="14.02085">
        <ele>588.050203</ele>
        <time>2026-07-12T14:58:55.000Z</time>
      </trkpt>
      <trkpt lat="46.44172" lon="14.02053">
        <ele>588.343825</ele>
        <time>2026-07-12T14:59:02.000Z</time>
      </trkpt>
      <trkpt lat="46.44194" lon="14.02019">
        <ele>588.590754</ele>
        <time>2026-07-12T14:59:09.000Z</time>
      </trkpt>
      <trkpt lat="46.44199" lon="14.02006">
        <ele>588.666783</ele>
        <time>2026-07-12T14:59:11.000Z</time>
      </trkpt>
      <trkpt lat="46.44208" lon="14.01981">
        <ele>588.812367</ele>
        <time>2026-07-12T14:59:15.000Z</time>
      </trkpt>
      <trkpt lat="46.44211" lon="14.01973">
        <ele>588.858564</ele>
        <time>2026-07-12T14:59:16.000Z</time>
      </trkpt>
      <trkpt lat="46.44219" lon="14.01941">
        <ele>589.036561</ele>
        <time>2026-07-12T14:59:21.000Z</time>
      </trkpt>
      <trkpt lat="46.44221" lon="14.01936">
        <ele>589.065268</ele>
        <time>2026-07-12T14:59:22.000Z</time>
      </trkpt>
      <trkpt lat="46.44232" lon="14.01897">
        <ele>589.285246</ele>
        <time>2026-07-12T14:59:28.000Z</time>
      </trkpt>
      <trkpt lat="46.44233" lon="14.01891">
        <ele>589.320552</ele>
        <time>2026-07-12T14:59:29.000Z</time>
      </trkpt>
      <trkpt lat="46.44242" lon="14.01865">
        <ele>589.468094</ele>
        <time>2026-07-12T14:59:33.000Z</time>
      </trkpt>
      <trkpt lat="46.4426" lon="14.01818">
        <ele>589.726362</ele>
        <time>2026-07-12T14:59:41.000Z</time>
      </trkpt>
      <trkpt lat="46.44267" lon="14.01802">
        <ele>589.818631</ele>
        <time>2026-07-12T14:59:44.000Z</time>
      </trkpt>
      <trkpt lat="46.44273" lon="14.01792">
        <ele>589.881234</ele>
        <time>2026-07-12T14:59:46.000Z</time>
      </trkpt>
      <trkpt lat="46.44276" lon="14.01786">
        <ele>589.912267</ele>
        <time>2026-07-12T14:59:47.000Z</time>
      </trkpt>
      <trkpt lat="46.44285" lon="14.01751">
        <ele>590.090347</ele>
        <time>2026-07-12T14:59:53.000Z</time>
      </trkpt>
      <trkpt lat="46.44308" lon="14.01701">
        <ele>590.372516</ele>
        <time>2026-07-12T15:00:02.000Z</time>
      </trkpt>
      <trkpt lat="46.4433" lon="14.01642">
        <ele>590.68719</ele>
        <time>2026-07-12T15:00:12.000Z</time>
      </trkpt>
      <trkpt lat="46.44336" lon="14.01623">
        <ele>590.840466</ele>
        <time>2026-07-12T15:00:15.000Z</time>
      </trkpt>
      <trkpt lat="46.44343" lon="14.01587">
        <ele>591.583944</ele>
        <time>2026-07-12T15:00:20.000Z</time>
      </trkpt>
      <trkpt lat="46.44353" lon="14.01553">
        <ele>592.320207</ele>
        <time>2026-07-12T15:00:25.000Z</time>
      </trkpt>
      <trkpt lat="46.44359" lon="14.01541">
        <ele>592.621898</ele>
        <time>2026-07-12T15:00:27.000Z</time>
      </trkpt>
      <trkpt lat="46.44367" lon="14.01523">
        <ele>593.053854</ele>
        <time>2026-07-12T15:00:30.000Z</time>
      </trkpt>
      <trkpt lat="46.44373" lon="14.01496">
        <ele>593.617936</ele>
        <time>2026-07-12T15:00:34.000Z</time>
      </trkpt>
      <trkpt lat="46.44379" lon="14.01464">
        <ele>594.28307</ele>
        <time>2026-07-12T15:00:40.000Z</time>
      </trkpt>
      <trkpt lat="46.44385" lon="14.01432">
        <ele>594.94601</ele>
        <time>2026-07-12T15:00:48.000Z</time>
      </trkpt>
      <trkpt lat="46.4439" lon="14.014">
        <ele>595.604245</ele>
        <time>2026-07-12T15:00:56.000Z</time>
      </trkpt>
      <trkpt lat="46.44397" lon="14.01382">
        <ele>596.014018</ele>
        <time>2026-07-12T15:01:01.000Z</time>
      </trkpt>
      <trkpt lat="46.44399" lon="14.0138">
        <ele>596.111516</ele>
        <time>2026-07-12T15:01:02.000Z</time>
      </trkpt>
      <trkpt lat="46.44414" lon="14.01371">
        <ele>596.64816</ele>
        <time>2026-07-12T15:01:07.000Z</time>
      </trkpt>
      <trkpt lat="46.44423" lon="14.01357">
        <ele>597.104769</ele>
        <time>2026-07-12T15:01:10.000Z</time>
      </trkpt>
      <trkpt lat="46.44431" lon="14.01347">
        <ele>597.457573</ele>
        <time>2026-07-12T15:01:12.000Z</time>
      </trkpt>
      <trkpt lat="46.44442" lon="14.01334">
        <ele>597.953894</ele>
        <time>2026-07-12T15:01:15.000Z</time>
      </trkpt>
      <trkpt lat="46.44453" lon="14.0132">
        <ele>598.453599</ele>
        <time>2026-07-12T15:01:18.000Z</time>
      </trkpt>
      <trkpt lat="46.44457" lon="14.01315">
        <ele>598.632985</ele>
        <time>2026-07-12T15:01:19.000Z</time>
      </trkpt>
      <trkpt lat="46.44459" lon="14.0131">
        <ele>598.792892</ele>
        <time>2026-07-12T15:01:20.000Z</time>
      </trkpt>
      <trkpt lat="46.44461" lon="14.01297">
        <ele>599.102771</ele>
        <time>2026-07-12T15:01:22.000Z</time>
      </trkpt>
      <trkpt lat="46.44462" lon="14.0129">
        <ele>599.267364</ele>
        <time>2026-07-12T15:01:23.000Z</time>
      </trkpt>
      <trkpt lat="46.44462" lon="14.01283">
        <ele>599.433029</ele>
        <time>2026-07-12T15:01:24.000Z</time>
      </trkpt>
      <trkpt lat="46.44458" lon="14.01258">
        <ele>600.036102</ele>
        <time>2026-07-12T15:01:28.000Z</time>
      </trkpt>
      <trkpt lat="46.44451" lon="14.01219">
        <ele>601.000783</ele>
        <time>2026-07-12T15:01:35.000Z</time>
      </trkpt>
      <trkpt lat="46.44447" lon="14.0118">
        <ele>601.932018</ele>
        <time>2026-07-12T15:01:42.000Z</time>
      </trkpt>
      <trkpt lat="46.44455" lon="14.01141">
        <ele>602.650423</ele>
        <time>2026-07-12T15:01:49.000Z</time>
      </trkpt>
      <trkpt lat="46.44473" lon="14.01112">
        <ele>603.284079</ele>
        <time>2026-07-12T15:01:56.000Z</time>
      </trkpt>
      <trkpt lat="46.44484" lon="14.01103">
        <ele>603.579871</ele>
        <time>2026-07-12T15:01:59.000Z</time>
      </trkpt>
      <trkpt lat="46.44498" lon="14.01096">
        <ele>603.913252</ele>
        <time>2026-07-12T15:02:02.000Z</time>
      </trkpt>
      <trkpt lat="46.44524" lon="14.01083">
        <ele>604.544851</ele>
        <time>2026-07-12T15:02:08.000Z</time>
      </trkpt>
      <trkpt lat="46.44533" lon="14.01076">
        <ele>604.781891</ele>
        <time>2026-07-12T15:02:10.000Z</time>
      </trkpt>
      <trkpt lat="46.44536" lon="14.01073">
        <ele>604.884364</ele>
        <time>2026-07-12T15:02:11.000Z</time>
      </trkpt>
      <trkpt lat="46.44545" lon="14.01063">
        <ele>605.145969</ele>
        <time>2026-07-12T15:02:13.000Z</time>
      </trkpt>
      <trkpt lat="46.44549" lon="14.01056">
        <ele>605.282986</ele>
        <time>2026-07-12T15:02:14.000Z</time>
      </trkpt>
      <trkpt lat="46.44553" lon="14.01048">
        <ele>605.448475</ele>
        <time>2026-07-12T15:02:15.000Z</time>
      </trkpt>
      <trkpt lat="46.4456" lon="14.01024">
        <ele>605.851932</ele>
        <time>2026-07-12T15:02:18.000Z</time>
      </trkpt>
      <trkpt lat="46.44571" lon="14.00983">
        <ele>606.343272</ele>
        <time>2026-07-12T15:02:23.000Z</time>
      </trkpt>
      <trkpt lat="46.44577" lon="14.0096">
        <ele>606.350967</ele>
        <time>2026-07-12T15:02:26.000Z</time>
      </trkpt>
      <trkpt lat="46.44585" lon="14.00934">
        <ele>606.359593</ele>
        <time>2026-07-12T15:02:30.000Z</time>
      </trkpt>
      <trkpt lat="46.44592" lon="14.00909">
        <ele>606.368188</ele>
        <time>2026-07-12T15:02:34.000Z</time>
      </trkpt>
      <trkpt lat="46.44606" lon="14.00859">
        <ele>606.384943</ele>
        <time>2026-07-12T15:02:42.000Z</time>
      </trkpt>
      <trkpt lat="46.44625" lon="14.00792">
        <ele>606.408009</ele>
        <time>2026-07-12T15:02:52.000Z</time>
      </trkpt>
      <trkpt lat="46.44643" lon="14.00729">
        <ele>606.440434</ele>
        <time>2026-07-12T15:03:01.000Z</time>
      </trkpt>
      <trkpt lat="46.44652" lon="14.0067">
        <ele>606.485143</ele>
        <time>2026-07-12T15:03:09.000Z</time>
      </trkpt>
      <trkpt lat="46.44658" lon="14.00625">
        <ele>606.518408</ele>
        <time>2026-07-12T15:03:15.000Z</time>
      </trkpt>
      <trkpt lat="46.44658" lon="14.00618">
        <ele>606.523623</ele>
        <time>2026-07-12T15:03:16.000Z</time>
      </trkpt>
      <trkpt lat="46.44666" lon="14.00563">
        <ele>606.564514</ele>
        <time>2026-07-12T15:03:24.000Z</time>
      </trkpt>
      <trkpt lat="46.44673" lon="14.0051">
        <ele>606.604583</ele>
        <time>2026-07-12T15:03:32.000Z</time>
      </trkpt>
      <trkpt lat="46.44673" lon="14.00497">
        <ele>606.709405</ele>
        <time>2026-07-12T15:03:34.000Z</time>
      </trkpt>
      <trkpt lat="46.4468" lon="14.00474">
        <ele>607.509224</ele>
        <time>2026-07-12T15:03:38.000Z</time>
      </trkpt>
      <trkpt lat="46.44686" lon="14.00458">
        <ele>608.081085</ele>
        <time>2026-07-12T15:03:41.000Z</time>
      </trkpt>
      <trkpt lat="46.44686" lon="14.00445">
        <ele>608.49437</ele>
        <time>2026-07-12T15:03:43.000Z</time>
      </trkpt>
      <trkpt lat="46.44682" lon="14.00408">
        <ele>609.720688</ele>
        <time>2026-07-12T15:03:49.000Z</time>
      </trkpt>
      <trkpt lat="46.44683" lon="14.00402">
        <ele>609.915546</ele>
        <time>2026-07-12T15:03:50.000Z</time>
      </trkpt>
      <trkpt lat="46.44684" lon="14.00391">
        <ele>610.288842</ele>
        <time>2026-07-12T15:03:52.000Z</time>
      </trkpt>
      <trkpt lat="46.44687" lon="14.00377">
        <ele>610.768944</ele>
        <time>2026-07-12T15:03:55.000Z</time>
      </trkpt>
      <trkpt lat="46.44695" lon="14.00348">
        <ele>611.758207</ele>
        <time>2026-07-12T15:04:02.000Z</time>
      </trkpt>
      <trkpt lat="46.44698" lon="14.00326">
        <ele>612.508882</ele>
        <time>2026-07-12T15:04:08.000Z</time>
      </trkpt>
      <trkpt lat="46.44693" lon="14.00305">
        <ele>613.212746</ele>
        <time>2026-07-12T15:04:14.000Z</time>
      </trkpt>
      <trkpt lat="46.4468" lon="14.00278">
        <ele>614.313865</ele>
        <time>2026-07-12T15:04:23.000Z</time>
      </trkpt>
      <trkpt lat="46.44683" lon="14.0025">
        <ele>614.98436</ele>
        <time>2026-07-12T15:04:28.000Z</time>
      </trkpt>
      <trkpt lat="46.44686" lon="14.00237">
        <ele>614.728213</ele>
        <time>2026-07-12T15:04:30.000Z</time>
      </trkpt>
      <trkpt lat="46.44692" lon="14.00225">
        <ele>614.437078</ele>
        <time>2026-07-12T15:04:32.000Z</time>
      </trkpt>
      <trkpt lat="46.44696" lon="14.00218">
        <ele>614.266355</ele>
        <time>2026-07-12T15:04:33.000Z</time>
      </trkpt>
      <trkpt lat="46.44719" lon="14.00189">
        <ele>613.438155</ele>
        <time>2026-07-12T15:04:37.000Z</time>
      </trkpt>
      <trkpt lat="46.44745" lon="14.0015">
        <ele>612.392448</ele>
        <time>2026-07-12T15:04:41.000Z</time>
      </trkpt>
      <trkpt lat="46.44767" lon="14.00099">
        <ele>611.267481</ele>
        <time>2026-07-12T15:04:45.000Z</time>
      </trkpt>
      <trkpt lat="46.44788" lon="14.00026">
        <ele>609.944729</ele>
        <time>2026-07-12T15:04:51.000Z</time>
      </trkpt>
      <trkpt lat="46.44797" lon="13.99991">
        <ele>609.611334</ele>
        <time>2026-07-12T15:04:54.000Z</time>
      </trkpt>
      <trkpt lat="46.44803" lon="13.99969">
        <ele>609.400148</ele>
        <time>2026-07-12T15:04:56.000Z</time>
      </trkpt>
      <trkpt lat="46.44809" lon="13.99937">
        <ele>609.104711</ele>
        <time>2026-07-12T15:04:59.000Z</time>
      </trkpt>
      <trkpt lat="46.44814" lon="13.99907">
        <ele>608.832656</ele>
        <time>2026-07-12T15:05:02.000Z</time>
      </trkpt>
      <trkpt lat="46.44821" lon="13.99873">
        <ele>608.512298</ele>
        <time>2026-07-12T15:05:06.000Z</time>
      </trkpt>
      <trkpt lat="46.44824" lon="13.99858">
        <ele>608.370861</ele>
        <time>2026-07-12T15:05:08.000Z</time>
      </trkpt>
      <trkpt lat="46.44827" lon="13.99814">
        <ele>607.974536</ele>
        <time>2026-07-12T15:05:14.000Z</time>
      </trkpt>
      <trkpt lat="46.44828" lon="13.99746">
        <ele>607.958013</ele>
        <time>2026-07-12T15:05:23.000Z</time>
      </trkpt>
      <trkpt lat="46.44842" lon="13.99672">
        <ele>608.234417</ele>
        <time>2026-07-12T15:05:33.000Z</time>
      </trkpt>
      <trkpt lat="46.44844" lon="13.99665">
        <ele>608.262783</ele>
        <time>2026-07-12T15:05:34.000Z</time>
      </trkpt>
      <trkpt lat="46.44858" lon="13.9963">
        <ele>608.409614</ele>
        <time>2026-07-12T15:05:39.000Z</time>
      </trkpt>
      <trkpt lat="46.4488" lon="13.99588">
        <ele>608.603621</ele>
        <time>2026-07-12T15:05:46.000Z</time>
      </trkpt>
      <trkpt lat="46.44903" lon="13.99548">
        <ele>608.829187</ele>
        <time>2026-07-12T15:05:54.000Z</time>
      </trkpt>
      <trkpt lat="46.44909" lon="13.99538">
        <ele>608.898857</ele>
        <time>2026-07-12T15:05:56.000Z</time>
      </trkpt>
      <trkpt lat="46.4492" lon="13.9952">
        <ele>609.041634</ele>
        <time>2026-07-12T15:06:00.000Z</time>
      </trkpt>
      <trkpt lat="46.44925" lon="13.9951">
        <ele>609.109735</ele>
        <time>2026-07-12T15:06:02.000Z</time>
      </trkpt>
      <trkpt lat="46.44927" lon="13.99505">
        <ele>609.145724</ele>
        <time>2026-07-12T15:06:03.000Z</time>
      </trkpt>
      <trkpt lat="46.44942" lon="13.99477">
        <ele>609.347094</ele>
        <time>2026-07-12T15:06:09.000Z</time>
      </trkpt>
      <trkpt lat="46.44944" lon="13.99472">
        <ele>609.380641</ele>
        <time>2026-07-12T15:06:10.000Z</time>
      </trkpt>
      <trkpt lat="46.44952" lon="13.99458">
        <ele>609.483467</ele>
        <time>2026-07-12T15:06:13.000Z</time>
      </trkpt>
      <trkpt lat="46.44959" lon="13.99443">
        <ele>609.589774</ele>
        <time>2026-07-12T15:06:16.000Z</time>
      </trkpt>
      <trkpt lat="46.44969" lon="13.99422">
        <ele>609.735732</ele>
        <time>2026-07-12T15:06:20.000Z</time>
      </trkpt>
      <trkpt lat="46.44975" lon="13.99408">
        <ele>609.832817</ele>
        <time>2026-07-12T15:06:23.000Z</time>
      </trkpt>
      <trkpt lat="46.44981" lon="13.99394">
        <ele>609.924032</ele>
        <time>2026-07-12T15:06:26.000Z</time>
      </trkpt>
      <trkpt lat="46.44985" lon="13.99384">
        <ele>609.992061</ele>
        <time>2026-07-12T15:06:28.000Z</time>
      </trkpt>
      <trkpt lat="46.44987" lon="13.99379">
        <ele>610.027062</ele>
        <time>2026-07-12T15:06:29.000Z</time>
      </trkpt>
      <trkpt lat="46.44995" lon="13.99362">
        <ele>610.139949</ele>
        <time>2026-07-12T15:06:32.000Z</time>
      </trkpt>
      <trkpt lat="46.45004" lon="13.99344">
        <ele>610.220045</ele>
        <time>2026-07-12T15:06:35.000Z</time>
      </trkpt>
      <trkpt lat="46.45018" lon="13.99316">
        <ele>610.120684</ele>
        <time>2026-07-12T15:06:39.000Z</time>
      </trkpt>
      <trkpt lat="46.45027" lon="13.99302">
        <ele>610.063113</ele>
        <time>2026-07-12T15:06:41.000Z</time>
      </trkpt>
      <trkpt lat="46.45037" lon="13.99288">
        <ele>610.00582</ele>
        <time>2026-07-12T15:06:43.000Z</time>
      </trkpt>
      <trkpt lat="46.45049" lon="13.99278">
        <ele>609.950322</ele>
        <time>2026-07-12T15:06:45.000Z</time>
      </trkpt>
      <trkpt lat="46.45059" lon="13.99268">
        <ele>609.90005</ele>
        <time>2026-07-12T15:06:47.000Z</time>
      </trkpt>
      <trkpt lat="46.45062" lon="13.99261">
        <ele>609.875454</ele>
        <time>2026-07-12T15:06:48.000Z</time>
      </trkpt>
      <trkpt lat="46.45064" lon="13.99253">
        <ele>609.851422</ele>
        <time>2026-07-12T15:06:49.000Z</time>
      </trkpt>
      <trkpt lat="46.45064" lon="13.99237">
        <ele>609.804828</ele>
        <time>2026-07-12T15:06:51.000Z</time>
      </trkpt>
      <trkpt lat="46.45064" lon="13.99229">
        <ele>609.782135</ele>
        <time>2026-07-12T15:06:52.000Z</time>
      </trkpt>
      <trkpt lat="46.45062" lon="13.99207">
        <ele>609.719109</ele>
        <time>2026-07-12T15:06:55.000Z</time>
      </trkpt>
      <trkpt lat="46.45054" lon="13.99165">
        <ele>609.594119</ele>
        <time>2026-07-12T15:07:01.000Z</time>
      </trkpt>
      <trkpt lat="46.45051" lon="13.99159">
        <ele>609.572295</ele>
        <time>2026-07-12T15:07:02.000Z</time>
      </trkpt>
      <trkpt lat="46.45049" lon="13.99153">
        <ele>609.552784</ele>
        <time>2026-07-12T15:07:03.000Z</time>
      </trkpt>
      <trkpt lat="46.4504" lon="13.99128">
        <ele>609.858055</ele>
        <time>2026-07-12T15:07:07.000Z</time>
      </trkpt>
      <trkpt lat="46.45037" lon="13.99121">
        <ele>610.340195</ele>
        <time>2026-07-12T15:07:08.000Z</time>
      </trkpt>
      <trkpt lat="46.45034" lon="13.99108">
        <ele>611.280279</ele>
        <time>2026-07-12T15:07:10.000Z</time>
      </trkpt>
      <trkpt lat="46.45032" lon="13.99095">
        <ele>612.221409</ele>
        <time>2026-07-12T15:07:12.000Z</time>
      </trkpt>
      <trkpt lat="46.45031" lon="13.99088">
        <ele>612.663489</ele>
        <time>2026-07-12T15:07:13.000Z</time>
      </trkpt>
      <trkpt lat="46.45031" lon="13.9906">
        <ele>614.524033</ele>
        <time>2026-07-12T15:07:18.000Z</time>
      </trkpt>
      <trkpt lat="46.45034" lon="13.99034">
        <ele>616.358022</ele>
        <time>2026-07-12T15:07:24.000Z</time>
      </trkpt>
      <trkpt lat="46.45038" lon="13.99018">
        <ele>617.499048</ele>
        <time>2026-07-12T15:07:30.000Z</time>
      </trkpt>
      <trkpt lat="46.45038" lon="13.99012">
        <ele>617.878567</ele>
        <time>2026-07-12T15:07:32.000Z</time>
      </trkpt>
      <trkpt lat="46.45038" lon="13.99004">
        <ele>618.399924</ele>
        <time>2026-07-12T15:07:35.000Z</time>
      </trkpt>
      <trkpt lat="46.45038" lon="13.99002">
        <ele>618.562887</ele>
        <time>2026-07-12T15:07:36.000Z</time>
      </trkpt>
      <trkpt lat="46.45039" lon="13.98999">
        <ele>618.735896</ele>
        <time>2026-07-12T15:07:37.000Z</time>
      </trkpt>
      <trkpt lat="46.45039" lon="13.98997">
        <ele>618.922063</ele>
        <time>2026-07-12T15:07:38.000Z</time>
      </trkpt>
      <trkpt lat="46.45039" lon="13.98991">
        <ele>619.319902</ele>
        <time>2026-07-12T15:07:40.000Z</time>
      </trkpt>
      <trkpt lat="46.45044" lon="13.98977">
        <ele>620.359033</ele>
        <time>2026-07-12T15:07:44.000Z</time>
      </trkpt>
      <trkpt lat="46.45044" lon="13.98975">
        <ele>620.534572</ele>
        <time>2026-07-12T15:07:45.000Z</time>
      </trkpt>
      <trkpt lat="46.45044" lon="13.98973">
        <ele>620.624434</ele>
        <time>2026-07-12T15:07:47.000Z</time>
      </trkpt>
      <trkpt lat="46.45042" lon="13.98965">
        <ele>621.23325</ele>
        <time>2026-07-12T15:08:54.000Z</time>
      </trkpt>
      <trkpt lat="46.45043" lon="13.98947">
        <ele>622.43125</ele>
        <time>2026-07-12T15:08:59.000Z</time>
      </trkpt>
      <trkpt lat="46.45039" lon="13.9892">
        <ele>624.27107</ele>
        <time>2026-07-12T15:09:06.000Z</time>
      </trkpt>
      <trkpt lat="46.4503" lon="13.98899">
        <ele>625.945264</ele>
        <time>2026-07-12T15:09:12.000Z</time>
      </trkpt>
      <trkpt lat="46.45026" lon="13.98893">
        <ele>626.503245</ele>
        <time>2026-07-12T15:09:14.000Z</time>
      </trkpt>
      <trkpt lat="46.45017" lon="13.98873">
        <ele>627.838609</ele>
        <time>2026-07-12T15:09:20.000Z</time>
      </trkpt>
      <trkpt lat="46.45016" lon="13.98843">
        <ele>629.341093</ele>
        <time>2026-07-12T15:09:28.000Z</time>
      </trkpt>
      <trkpt lat="46.45024" lon="13.98819">
        <ele>630.680816</ele>
        <time>2026-07-12T15:09:35.000Z</time>
      </trkpt>
      <trkpt lat="46.45025" lon="13.98809">
        <ele>631.186423</ele>
        <time>2026-07-12T15:09:38.000Z</time>
      </trkpt>
      <trkpt lat="46.45027" lon="13.98804">
        <ele>631.483589</ele>
        <time>2026-07-12T15:09:40.000Z</time>
      </trkpt>
      <trkpt lat="46.45028" lon="13.98799">
        <ele>631.737844</ele>
        <time>2026-07-12T15:09:42.000Z</time>
      </trkpt>
      <trkpt lat="46.4503" lon="13.98795">
        <ele>631.990039</ele>
        <time>2026-07-12T15:09:44.000Z</time>
      </trkpt>
      <trkpt lat="46.45034" lon="13.98783">
        <ele>632.657608</ele>
        <time>2026-07-12T15:09:49.000Z</time>
      </trkpt>
      <trkpt lat="46.45037" lon="13.98773">
        <ele>633.205948</ele>
        <time>2026-07-12T15:09:53.000Z</time>
      </trkpt>
      <trkpt lat="46.45038" lon="13.98771">
        <ele>633.338381</ele>
        <time>2026-07-12T15:09:54.000Z</time>
      </trkpt>
      <trkpt lat="46.45039" lon="13.98769">
        <ele>633.467726</ele>
        <time>2026-07-12T15:09:55.000Z</time>
      </trkpt>
      <trkpt lat="46.45041" lon="13.98762">
        <ele>633.842377</ele>
        <time>2026-07-12T15:09:58.000Z</time>
      </trkpt>
      <trkpt lat="46.45045" lon="13.98753">
        <ele>634.355643</ele>
        <time>2026-07-12T15:10:02.000Z</time>
      </trkpt>
      <trkpt lat="46.45051" lon="13.98741">
        <ele>635.10804</ele>
        <time>2026-07-12T15:10:08.000Z</time>
      </trkpt>
      <trkpt lat="46.45054" lon="13.98731">
        <ele>635.660151</ele>
        <time>2026-07-12T15:10:13.000Z</time>
      </trkpt>
      <trkpt lat="46.45056" lon="13.98728">
        <ele>635.878401</ele>
        <time>2026-07-12T15:10:15.000Z</time>
      </trkpt>
      <trkpt lat="46.45062" lon="13.98715">
        <ele>636.635111</ele>
        <time>2026-07-12T15:10:22.000Z</time>
      </trkpt>
      <trkpt lat="46.45063" lon="13.98711">
        <ele>636.866793</ele>
        <time>2026-07-12T15:10:24.000Z</time>
      </trkpt>
      <trkpt lat="46.45064" lon="13.98709">
        <ele>636.999107</ele>
        <time>2026-07-12T15:10:25.000Z</time>
      </trkpt>
      <trkpt lat="46.45068" lon="13.98704">
        <ele>637.362656</ele>
        <time>2026-07-12T15:10:28.000Z</time>
      </trkpt>
      <trkpt lat="46.45075" lon="13.98693">
        <ele>638.118082</ele>
        <time>2026-07-12T15:10:34.000Z</time>
      </trkpt>
      <trkpt lat="46.45078" lon="13.98683">
        <ele>638.657984</ele>
        <time>2026-07-12T15:10:39.000Z</time>
      </trkpt>
      <trkpt lat="46.4508" lon="13.98677">
        <ele>639.001662</ele>
        <time>2026-07-12T15:10:42.000Z</time>
      </trkpt>
      <trkpt lat="46.45088" lon="13.98659">
        <ele>640.075569</ele>
        <time>2026-07-12T15:10:51.000Z</time>
      </trkpt>
      <trkpt lat="46.45093" lon="13.98637">
        <ele>642.146869</ele>
        <time>2026-07-12T15:11:01.000Z</time>
      </trkpt>
      <trkpt lat="46.45094" lon="13.9863">
        <ele>642.810572</ele>
        <time>2026-07-12T15:11:04.000Z</time>
      </trkpt>
      <trkpt lat="46.45096" lon="13.98618">
        <ele>644.019873</ele>
        <time>2026-07-12T15:11:10.000Z</time>
      </trkpt>
      <trkpt lat="46.45098" lon="13.98602">
        <ele>645.530182</ele>
        <time>2026-07-12T15:11:17.000Z</time>
      </trkpt>
      <trkpt lat="46.451" lon="13.98585">
        <ele>647.230951</ele>
        <time>2026-07-12T15:11:25.000Z</time>
      </trkpt>
      <trkpt lat="46.45103" lon="13.98569">
        <ele>648.798557</ele>
        <time>2026-07-12T15:11:32.000Z</time>
      </trkpt>
      <trkpt lat="46.45107" lon="13.98549">
        <ele>650.734586</ele>
        <time>2026-07-12T15:11:40.000Z</time>
      </trkpt>
      <trkpt lat="46.4511" lon="13.98537">
        <ele>652.004615</ele>
        <time>2026-07-12T15:11:45.000Z</time>
      </trkpt>
      <trkpt lat="46.45111" lon="13.98532">
        <ele>652.450138</ele>
        <time>2026-07-12T15:11:47.000Z</time>
      </trkpt>
      <trkpt lat="46.45113" lon="13.98518">
        <ele>653.887765</ele>
        <time>2026-07-12T15:11:54.000Z</time>
      </trkpt>
      <trkpt lat="46.45114" lon="13.98505">
        <ele>655.126499</ele>
        <time>2026-07-12T15:12:00.000Z</time>
      </trkpt>
      <trkpt lat="46.4512" lon="13.98493">
        <ele>656.539599</ele>
        <time>2026-07-12T15:12:06.000Z</time>
      </trkpt>
      <trkpt lat="46.45131" lon="13.98476">
        <ele>658.754164</ele>
        <time>2026-07-12T15:12:15.000Z</time>
      </trkpt>
      <trkpt lat="46.45139" lon="13.98466">
        <ele>660.152016</ele>
        <time>2026-07-12T15:12:20.000Z</time>
      </trkpt>
      <trkpt lat="46.45146" lon="13.98458">
        <ele>661.443178</ele>
        <time>2026-07-12T15:12:24.000Z</time>
      </trkpt>
      <trkpt lat="46.45152" lon="13.98455">
        <ele>662.263951</ele>
        <time>2026-07-12T15:12:26.000Z</time>
      </trkpt>
      <trkpt lat="46.45166" lon="13.9844">
        <ele>664.696729</ele>
        <time>2026-07-12T15:12:34.000Z</time>
      </trkpt>
      <trkpt lat="46.4518" lon="13.98433">
        <ele>665.303475</ele>
        <time>2026-07-12T15:12:39.000Z</time>
      </trkpt>
      <trkpt lat="46.45193" lon="13.98434">
        <ele>665.623824</ele>
        <time>2026-07-12T15:12:45.000Z</time>
      </trkpt>
      <trkpt lat="46.4522" lon="13.98435">
        <ele>666.229203</ele>
        <time>2026-07-12T15:12:50.000Z</time>
      </trkpt>
      <trkpt lat="46.45232" lon="13.98432">
        <ele>666.533178</ele>
        <time>2026-07-12T15:12:52.000Z</time>
      </trkpt>
      <trkpt lat="46.45244" lon="13.98424">
        <ele>666.835905</ele>
        <time>2026-07-12T15:12:54.000Z</time>
      </trkpt>
      <trkpt lat="46.45256" lon="13.98413">
        <ele>667.163003</ele>
        <time>2026-07-12T15:12:56.000Z</time>
      </trkpt>
      <trkpt lat="46.45268" lon="13.98399">
        <ele>667.511755</ele>
        <time>2026-07-12T15:12:59.000Z</time>
      </trkpt>
      <trkpt lat="46.4527" lon="13.98395">
        <ele>667.599893</ele>
        <time>2026-07-12T15:13:00.000Z</time>
      </trkpt>
      <trkpt lat="46.45279" lon="13.98381">
        <ele>667.895596</ele>
        <time>2026-07-12T15:13:04.000Z</time>
      </trkpt>
      <trkpt lat="46.45288" lon="13.98366">
        <ele>668.223604</ele>
        <time>2026-07-12T15:13:09.000Z</time>
      </trkpt>
      <trkpt lat="46.45301" lon="13.98341">
        <ele>668.719329</ele>
        <time>2026-07-12T15:13:17.000Z</time>
      </trkpt>
      <trkpt lat="46.4531" lon="13.98323">
        <ele>669.073293</ele>
        <time>2026-07-12T15:13:23.000Z</time>
      </trkpt>
      <trkpt lat="46.45317" lon="13.98302">
        <ele>669.017855</ele>
        <time>2026-07-12T15:13:29.000Z</time>
      </trkpt>
      <trkpt lat="46.45322" lon="13.98285">
        <ele>668.806141</ele>
        <time>2026-07-12T15:13:34.000Z</time>
      </trkpt>
      <trkpt lat="46.45323" lon="13.98278">
        <ele>668.713289</ele>
        <time>2026-07-12T15:13:36.000Z</time>
      </trkpt>
      <trkpt lat="46.45333" lon="13.98254">
        <ele>668.386161</ele>
        <time>2026-07-12T15:13:44.000Z</time>
      </trkpt>
      <trkpt lat="46.4534" lon="13.98242">
        <ele>668.198998</ele>
        <time>2026-07-12T15:13:50.000Z</time>
      </trkpt>
      <trkpt lat="46.45342" lon="13.98237">
        <ele>668.12725</ele>
        <time>2026-07-12T15:13:52.000Z</time>
      </trkpt>
      <trkpt lat="46.45347" lon="13.98229">
        <ele>667.995113</ele>
        <time>2026-07-12T15:13:55.000Z</time>
      </trkpt>
      <trkpt lat="46.45354" lon="13.98218">
        <ele>667.825308</ele>
        <time>2026-07-12T15:13:58.000Z</time>
      </trkpt>
      <trkpt lat="46.4536" lon="13.98211">
        <ele>667.682661</ele>
        <time>2026-07-12T15:14:00.000Z</time>
      </trkpt>
      <trkpt lat="46.45376" lon="13.98208">
        <ele>667.415753</ele>
        <time>2026-07-12T15:14:04.000Z</time>
      </trkpt>
      <trkpt lat="46.45383" lon="13.98212">
        <ele>667.277133</ele>
        <time>2026-07-12T15:14:06.000Z</time>
      </trkpt>
      <trkpt lat="46.4539" lon="13.98217">
        <ele>667.142308</ele>
        <time>2026-07-12T15:14:08.000Z</time>
      </trkpt>
      <trkpt lat="46.45409" lon="13.98223">
        <ele>666.802727</ele>
        <time>2026-07-12T15:14:12.000Z</time>
      </trkpt>
      <trkpt lat="46.45415" lon="13.9822">
        <ele>666.69594</ele>
        <time>2026-07-12T15:14:13.000Z</time>
      </trkpt>
      <trkpt lat="46.4542" lon="13.98213">
        <ele>666.580884</ele>
        <time>2026-07-12T15:14:14.000Z</time>
      </trkpt>
      <trkpt lat="46.45422" lon="13.98205">
        <ele>666.471968</ele>
        <time>2026-07-12T15:14:15.000Z</time>
      </trkpt>
      <trkpt lat="46.45427" lon="13.98179">
        <ele>666.159065</ele>
        <time>2026-07-12T15:14:18.000Z</time>
      </trkpt>
      <trkpt lat="46.4543" lon="13.98158">
        <ele>665.44628</ele>
        <time>2026-07-12T15:14:21.000Z</time>
      </trkpt>
      <trkpt lat="46.45432" lon="13.98153">
        <ele>665.219444</ele>
        <time>2026-07-12T15:14:22.000Z</time>
      </trkpt>
      <trkpt lat="46.45441" lon="13.98135">
        <ele>664.384696</ele>
        <time>2026-07-12T15:14:26.000Z</time>
      </trkpt>
      <trkpt lat="46.45451" lon="13.98108">
        <ele>663.220731</ele>
        <time>2026-07-12T15:14:32.000Z</time>
      </trkpt>
      <trkpt lat="46.45458" lon="13.98075">
        <ele>661.881945</ele>
        <time>2026-07-12T15:14:38.000Z</time>
      </trkpt>
      <trkpt lat="46.4546" lon="13.98055">
        <ele>661.113967</ele>
        <time>2026-07-12T15:14:41.000Z</time>
      </trkpt>
      <trkpt lat="46.45464" lon="13.98036">
        <ele>660.361192</ele>
        <time>2026-07-12T15:14:44.000Z</time>
      </trkpt>
      <trkpt lat="46.45472" lon="13.97986">
        <ele>658.404806</ele>
        <time>2026-07-12T15:14:52.000Z</time>
      </trkpt>
      <trkpt lat="46.45473" lon="13.97975">
        <ele>657.972318</ele>
        <time>2026-07-12T15:14:54.000Z</time>
      </trkpt>
      <trkpt lat="46.45476" lon="13.97955">
        <ele>657.205838</ele>
        <time>2026-07-12T15:14:58.000Z</time>
      </trkpt>
      <trkpt lat="46.45477" lon="13.97921">
        <ele>656.078368</ele>
        <time>2026-07-12T15:15:05.000Z</time>
      </trkpt>
      <trkpt lat="46.45477" lon="13.97879">
        <ele>655.825154</ele>
        <time>2026-07-12T15:15:14.000Z</time>
      </trkpt>
      <trkpt lat="46.45474" lon="13.97849">
        <ele>655.639516</ele>
        <time>2026-07-12T15:15:21.000Z</time>
      </trkpt>
      <trkpt lat="46.45473" lon="13.97841">
        <ele>655.589088</ele>
        <time>2026-07-12T15:15:23.000Z</time>
      </trkpt>
      <trkpt lat="46.45469" lon="13.97811">
        <ele>655.400049</ele>
        <time>2026-07-12T15:15:31.000Z</time>
      </trkpt>
      <trkpt lat="46.45461" lon="13.97782">
        <ele>655.212391</ele>
        <time>2026-07-12T15:15:39.000Z</time>
      </trkpt>
      <trkpt lat="46.45449" lon="13.97739">
        <ele>654.931367</ele>
        <time>2026-07-12T15:15:51.000Z</time>
      </trkpt>
      <trkpt lat="46.45442" lon="13.97714">
        <ele>654.768981</ele>
        <time>2026-07-12T15:15:58.000Z</time>
      </trkpt>
      <trkpt lat="46.45436" lon="13.97695">
        <ele>654.639609</ele>
        <time>2026-07-12T15:16:03.000Z</time>
      </trkpt>
      <trkpt lat="46.45424" lon="13.97667">
        <ele>654.293841</ele>
        <time>2026-07-12T15:16:11.000Z</time>
      </trkpt>
      <trkpt lat="46.45414" lon="13.97639">
        <ele>653.801114</ele>
        <time>2026-07-12T15:16:18.000Z</time>
      </trkpt>
      <trkpt lat="46.45416" lon="13.97619">
        <ele>653.482736</ele>
        <time>2026-07-12T15:16:22.000Z</time>
      </trkpt>
      <trkpt lat="46.45421" lon="13.97594">
        <ele>653.078417</ele>
        <time>2026-07-12T15:16:27.000Z</time>
      </trkpt>
      <trkpt lat="46.4542" lon="13.97581">
        <ele>652.860242</ele>
        <time>2026-07-12T15:16:29.000Z</time>
      </trkpt>
      <trkpt lat="46.45422" lon="13.97564">
        <ele>652.595096</ele>
        <time>2026-07-12T15:16:31.000Z</time>
      </trkpt>
      <trkpt lat="46.45427" lon="13.97546">
        <ele>652.284766</ele>
        <time>2026-07-12T15:16:33.000Z</time>
      </trkpt>
      <trkpt lat="46.45432" lon="13.97532">
        <ele>652.035476</ele>
        <time>2026-07-12T15:16:35.000Z</time>
      </trkpt>
      <trkpt lat="46.45445" lon="13.97495">
        <ele>651.382578</ele>
        <time>2026-07-12T15:16:39.000Z</time>
      </trkpt>
      <trkpt lat="46.45449" lon="13.97488">
        <ele>651.240951</ele>
        <time>2026-07-12T15:16:40.000Z</time>
      </trkpt>
      <trkpt lat="46.45462" lon="13.97464">
        <ele>650.752807</ele>
        <time>2026-07-12T15:16:43.000Z</time>
      </trkpt>
      <trkpt lat="46.45475" lon="13.9745">
        <ele>650.337636</ele>
        <time>2026-07-12T15:16:45.000Z</time>
      </trkpt>
      <trkpt lat="46.45504" lon="13.97432">
        <ele>647.919532</ele>
        <time>2026-07-12T15:16:48.000Z</time>
      </trkpt>
      <trkpt lat="46.4555" lon="13.97412">
        <ele>644.254327</ele>
        <time>2026-07-12T15:16:52.000Z</time>
      </trkpt>
      <trkpt lat="46.45609" lon="13.97389">
        <ele>639.566635</ele>
        <time>2026-07-12T15:16:57.000Z</time>
      </trkpt>
      <trkpt lat="46.4562" lon="13.97383">
        <ele>638.704157</ele>
        <time>2026-07-12T15:16:58.000Z</time>
      </trkpt>
      <trkpt lat="46.45654" lon="13.97355">
        <ele>636.43433</ele>
        <time>2026-07-12T15:17:02.000Z</time>
      </trkpt>
      <trkpt lat="46.45665" lon="13.97337">
        <ele>636.177356</ele>
        <time>2026-07-12T15:17:04.000Z</time>
      </trkpt>
      <trkpt lat="46.45668" lon="13.97327">
        <ele>636.065291</ele>
        <time>2026-07-12T15:17:05.000Z</time>
      </trkpt>
      <trkpt lat="46.45674" lon="13.97297">
        <ele>635.739223</ele>
        <time>2026-07-12T15:17:08.000Z</time>
      </trkpt>
      <trkpt lat="46.45678" lon="13.9729">
        <ele>635.644043</ele>
        <time>2026-07-12T15:17:09.000Z</time>
      </trkpt>
      <trkpt lat="46.4569" lon="13.97271">
        <ele>635.372528</ele>
        <time>2026-07-12T15:17:12.000Z</time>
      </trkpt>
      <trkpt lat="46.45699" lon="13.97261">
        <ele>635.212375</ele>
        <time>2026-07-12T15:17:14.000Z</time>
      </trkpt>
      <trkpt lat="46.45719" lon="13.97241">
        <ele>634.83211</ele>
        <time>2026-07-12T15:17:19.000Z</time>
      </trkpt>
      <trkpt lat="46.45749" lon="13.97214">
        <ele>634.300219</ele>
        <time>2026-07-12T15:17:26.000Z</time>
      </trkpt>
      <trkpt lat="46.4576" lon="13.97199">
        <ele>634.066257</ele>
        <time>2026-07-12T15:17:29.000Z</time>
      </trkpt>
      <trkpt lat="46.4577" lon="13.97185">
        <ele>633.946672</ele>
        <time>2026-07-12T15:17:32.000Z</time>
      </trkpt>
      <trkpt lat="46.45773" lon="13.9718">
        <ele>634.088103</ele>
        <time>2026-07-12T15:17:33.000Z</time>
      </trkpt>
      <trkpt lat="46.4578" lon="13.97161">
        <ele>634.549252</ele>
        <time>2026-07-12T15:17:36.000Z</time>
      </trkpt>
      <trkpt lat="46.45784" lon="13.97156">
        <ele>634.710624</ele>
        <time>2026-07-12T15:17:37.000Z</time>
      </trkpt>
      <trkpt lat="46.45801" lon="13.97135">
        <ele>635.399641</ele>
        <time>2026-07-12T15:17:42.000Z</time>
      </trkpt>
      <trkpt lat="46.45806" lon="13.97127">
        <ele>635.625089</ele>
        <time>2026-07-12T15:17:44.000Z</time>
      </trkpt>
      <trkpt lat="46.45825" lon="13.97101">
        <ele>636.452877</ele>
        <time>2026-07-12T15:17:50.000Z</time>
      </trkpt>
      <trkpt lat="46.45837" lon="13.97082">
        <ele>636.995627</ele>
        <time>2026-07-12T15:17:54.000Z</time>
      </trkpt>
      <trkpt lat="46.4584" lon="13.97078">
        <ele>637.134338</ele>
        <time>2026-07-12T15:17:55.000Z</time>
      </trkpt>
      <trkpt lat="46.45843" lon="13.97073">
        <ele>637.26863</ele>
        <time>2026-07-12T15:17:56.000Z</time>
      </trkpt>
      <trkpt lat="46.45859" lon="13.97043">
        <ele>638.081611</ele>
        <time>2026-07-12T15:18:02.000Z</time>
      </trkpt>
      <trkpt lat="46.45875" lon="13.97014">
        <ele>638.875662</ele>
        <time>2026-07-12T15:18:08.000Z</time>
      </trkpt>
      <trkpt lat="46.45878" lon="13.97003">
        <ele>639.120488</ele>
        <time>2026-07-12T15:18:10.000Z</time>
      </trkpt>
      <trkpt lat="46.45882" lon="13.96993">
        <ele>639.371001</ele>
        <time>2026-07-12T15:18:12.000Z</time>
      </trkpt>
      <trkpt lat="46.45886" lon="13.96983">
        <ele>639.412468</ele>
        <time>2026-07-12T15:18:14.000Z</time>
      </trkpt>
      <trkpt lat="46.45903" lon="13.96943">
        <ele>639.038458</ele>
        <time>2026-07-12T15:18:22.000Z</time>
      </trkpt>
      <trkpt lat="46.45914" lon="13.96908">
        <ele>638.730604</ele>
        <time>2026-07-12T15:18:29.000Z</time>
      </trkpt>
      <trkpt lat="46.45933" lon="13.96853">
        <ele>638.228883</ele>
        <time>2026-07-12T15:18:40.000Z</time>
      </trkpt>
      <trkpt lat="46.4594" lon="13.9682">
        <ele>637.949761</ele>
        <time>2026-07-12T15:18:46.000Z</time>
      </trkpt>
      <trkpt lat="46.45945" lon="13.96798">
        <ele>637.761019</ele>
        <time>2026-07-12T15:18:50.000Z</time>
      </trkpt>
      <trkpt lat="46.45947" lon="13.96786">
        <ele>637.667998</ele>
        <time>2026-07-12T15:18:52.000Z</time>
      </trkpt>
      <trkpt lat="46.45954" lon="13.96761">
        <ele>637.445224</ele>
        <time>2026-07-12T15:18:57.000Z</time>
      </trkpt>
      <trkpt lat="46.45958" lon="13.9673">
        <ele>637.669117</ele>
        <time>2026-07-12T15:19:03.000Z</time>
      </trkpt>
      <trkpt lat="46.45964" lon="13.967">
        <ele>638.120832</ele>
        <time>2026-07-12T15:19:09.000Z</time>
      </trkpt>
      <trkpt lat="46.4597" lon="13.96665">
        <ele>638.632459</ele>
        <time>2026-07-12T15:19:15.000Z</time>
      </trkpt>
      <trkpt lat="46.45977" lon="13.9664">
        <ele>639.017389</ele>
        <time>2026-07-12T15:19:20.000Z</time>
      </trkpt>
      <trkpt lat="46.45978" lon="13.96612">
        <ele>639.418342</ele>
        <time>2026-07-12T15:19:25.000Z</time>
      </trkpt>
      <trkpt lat="46.45985" lon="13.9658">
        <ele>639.894612</ele>
        <time>2026-07-12T15:19:30.000Z</time>
      </trkpt>
      <trkpt lat="46.45986" lon="13.96568">
        <ele>640.075735</ele>
        <time>2026-07-12T15:19:32.000Z</time>
      </trkpt>
      <trkpt lat="46.45988" lon="13.96541">
        <ele>640.469543</ele>
        <time>2026-07-12T15:19:37.000Z</time>
      </trkpt>
      <trkpt lat="46.4599" lon="13.96516">
        <ele>640.828962</ele>
        <time>2026-07-12T15:19:42.000Z</time>
      </trkpt>
      <trkpt lat="46.45993" lon="13.96479">
        <ele>640.861397</ele>
        <time>2026-07-12T15:19:49.000Z</time>
      </trkpt>
      <trkpt lat="46.45993" lon="13.96441">
        <ele>640.332538</ele>
        <time>2026-07-12T15:19:55.000Z</time>
      </trkpt>
      <trkpt lat="46.45992" lon="13.96394">
        <ele>639.679959</ele>
        <time>2026-07-12T15:20:03.000Z</time>
      </trkpt>
      <trkpt lat="46.45994" lon="13.96378">
        <ele>639.449498</ele>
        <time>2026-07-12T15:20:06.000Z</time>
      </trkpt>
      <trkpt lat="46.45995" lon="13.96348">
        <ele>639.041422</ele>
        <time>2026-07-12T15:20:11.000Z</time>
      </trkpt>
      <trkpt lat="46.45994" lon="13.96337">
        <ele>638.886506</ele>
        <time>2026-07-12T15:20:13.000Z</time>
      </trkpt>
      <trkpt lat="46.45995" lon="13.96325">
        <ele>638.720331</ele>
        <time>2026-07-12T15:20:15.000Z</time>
      </trkpt>
      <trkpt lat="46.45995" lon="13.96295">
        <ele>638.294496</ele>
        <time>2026-07-12T15:20:20.000Z</time>
      </trkpt>
      <trkpt lat="46.45995" lon="13.96285">
        <ele>638.162316</ele>
        <time>2026-07-12T15:20:22.000Z</time>
      </trkpt>
      <trkpt lat="46.45996" lon="13.9626">
        <ele>637.806823</ele>
        <time>2026-07-12T15:20:28.000Z</time>
      </trkpt>
      <trkpt lat="46.45994" lon="13.96239">
        <ele>637.518385</ele>
        <time>2026-07-12T15:20:34.000Z</time>
      </trkpt>
      <trkpt lat="46.45995" lon="13.96224">
        <ele>637.628517</ele>
        <time>2026-07-12T15:20:40.000Z</time>
      </trkpt>
      <trkpt lat="46.45999" lon="13.96203">
        <ele>637.899512</ele>
        <time>2026-07-12T15:20:46.000Z</time>
      </trkpt>
      <trkpt lat="46.46012" lon="13.96173">
        <ele>638.325101</ele>
        <time>2026-07-12T15:20:53.000Z</time>
      </trkpt>
      <trkpt lat="46.46023" lon="13.96143">
        <ele>638.752556</ele>
        <time>2026-07-12T15:21:00.000Z</time>
      </trkpt>
      <trkpt lat="46.46032" lon="13.96115">
        <ele>639.145231</ele>
        <time>2026-07-12T15:21:08.000Z</time>
      </trkpt>
      <trkpt lat="46.46045" lon="13.96103">
        <ele>639.410065</ele>
        <time>2026-07-12T15:21:14.000Z</time>
      </trkpt>
      <trkpt lat="46.46049" lon="13.96099">
        <ele>639.503642</ele>
        <time>2026-07-12T15:21:19.000Z</time>
      </trkpt>
      <trkpt lat="46.46057" lon="13.96093">
        <ele>639.667831</ele>
        <time>2026-07-12T15:22:56.000Z</time>
      </trkpt>
      <trkpt lat="46.46058" lon="13.96093">
        <ele>639.691337</ele>
        <time>2026-07-12T15:22:57.000Z</time>
      </trkpt>
      <trkpt lat="46.46065" lon="13.96101">
        <ele>639.854381</ele>
        <time>2026-07-12T15:23:01.000Z</time>
      </trkpt>
      <trkpt lat="46.46078" lon="13.96115">
        <ele>640.137358</ele>
        <time>2026-07-12T15:23:07.000Z</time>
      </trkpt>
      <trkpt lat="46.46081" lon="13.96118">
        <ele>640.206372</ele>
        <time>2026-07-12T15:23:09.000Z</time>
      </trkpt>
      <trkpt lat="46.46083" lon="13.96121">
        <ele>640.252672</ele>
        <time>2026-07-12T15:23:11.000Z</time>
      </trkpt>
      <trkpt lat="46.46092" lon="13.96132">
        <ele>640.470056</ele>
        <time>2026-07-12T15:23:19.000Z</time>
      </trkpt>
      <trkpt lat="46.46093" lon="13.96134">
        <ele>640.501808</ele>
        <time>2026-07-12T15:23:20.000Z</time>
      </trkpt>
      <trkpt lat="46.46094" lon="13.96136">
        <ele>640.53257</ele>
        <time>2026-07-12T15:23:23.000Z</time>
      </trkpt>
      <trkpt lat="46.46097" lon="13.9614">
        <ele>640.609401</ele>
        <time>2026-07-12T15:23:58.000Z</time>
      </trkpt>
      <trkpt lat="46.46101" lon="13.9614">
        <ele>640.669192</ele>
        <time>2026-07-12T15:23:59.000Z</time>
      </trkpt>
      <trkpt lat="46.46115" lon="13.96131">
        <ele>640.802246</ele>
        <time>2026-07-12T15:24:03.000Z</time>
      </trkpt>
      <trkpt lat="46.46134" lon="13.96113">
        <ele>640.955428</ele>
        <time>2026-07-12T15:24:09.000Z</time>
      </trkpt>
      <trkpt lat="46.46137" lon="13.9611">
        <ele>640.978047</ele>
        <time>2026-07-12T15:24:10.000Z</time>
      </trkpt>
      <trkpt lat="46.46164" lon="13.96091">
        <ele>641.170169</ele>
        <time>2026-07-12T15:24:18.000Z</time>
      </trkpt>
      <trkpt lat="46.46176" lon="13.96086">
        <ele>641.254954</ele>
        <time>2026-07-12T15:24:23.000Z</time>
      </trkpt>
      <trkpt lat="46.46177" lon="13.96085">
        <ele>641.26052</ele>
        <time>2026-07-12T15:24:26.000Z</time>
      </trkpt>
      <trkpt lat="46.46178" lon="13.96079">
        <ele>641.290827</ele>
        <time>2026-07-12T15:24:46.000Z</time>
      </trkpt>
      <trkpt lat="46.46178" lon="13.96069">
        <ele>641.334832</ele>
        <time>2026-07-12T15:24:49.000Z</time>
      </trkpt>
      <trkpt lat="46.46178" lon="13.96064">
        <ele>641.357145</ele>
        <time>2026-07-12T15:24:50.000Z</time>
      </trkpt>
      <trkpt lat="46.46182" lon="13.96036">
        <ele>641.485772</ele>
        <time>2026-07-12T15:24:55.000Z</time>
      </trkpt>
      <trkpt lat="46.46182" lon="13.96024">
        <ele>641.539888</ele>
        <time>2026-07-12T15:24:57.000Z</time>
      </trkpt>
      <trkpt lat="46.46183" lon="13.96001">
        <ele>641.646196</ele>
        <time>2026-07-12T15:25:01.000Z</time>
      </trkpt>
      <trkpt lat="46.46185" lon="13.95972">
        <ele>641.777641</ele>
        <time>2026-07-12T15:25:06.000Z</time>
      </trkpt>
      <trkpt lat="46.46188" lon="13.95921">
        <ele>642.382774</ele>
        <time>2026-07-12T15:25:14.000Z</time>
      </trkpt>
      <trkpt lat="46.46189" lon="13.95909">
        <ele>642.632276</ele>
        <time>2026-07-12T15:25:16.000Z</time>
      </trkpt>
      <trkpt lat="46.46195" lon="13.95872">
        <ele>643.396856</ele>
        <time>2026-07-12T15:25:22.000Z</time>
      </trkpt>
      <trkpt lat="46.46196" lon="13.95866">
        <ele>643.523353</ele>
        <time>2026-07-12T15:25:23.000Z</time>
      </trkpt>
      <trkpt lat="46.46199" lon="13.95838">
        <ele>644.113157</ele>
        <time>2026-07-12T15:25:28.000Z</time>
      </trkpt>
      <trkpt lat="46.46206" lon="13.95798">
        <ele>644.94789</ele>
        <time>2026-07-12T15:25:34.000Z</time>
      </trkpt>
      <trkpt lat="46.46215" lon="13.95763">
        <ele>645.702064</ele>
        <time>2026-07-12T15:25:40.000Z</time>
      </trkpt>
      <trkpt lat="46.46217" lon="13.95751">
        <ele>645.96308</ele>
        <time>2026-07-12T15:25:42.000Z</time>
      </trkpt>
      <trkpt lat="46.4622" lon="13.95738">
        <ele>646.244433</ele>
        <time>2026-07-12T15:25:44.000Z</time>
      </trkpt>
      <trkpt lat="46.46226" lon="13.95704">
        <ele>646.961354</ele>
        <time>2026-07-12T15:25:50.000Z</time>
      </trkpt>
      <trkpt lat="46.4623" lon="13.95676">
        <ele>647.343817</ele>
        <time>2026-07-12T15:25:55.000Z</time>
      </trkpt>
      <trkpt lat="46.46236" lon="13.95644">
        <ele>647.61507</ele>
        <time>2026-07-12T15:26:00.000Z</time>
      </trkpt>
      <trkpt lat="46.46247" lon="13.95607">
        <ele>647.941901</ele>
        <time>2026-07-12T15:26:07.000Z</time>
      </trkpt>
      <trkpt lat="46.46258" lon="13.95572">
        <ele>648.252042</ele>
        <time>2026-07-12T15:26:13.000Z</time>
      </trkpt>
      <trkpt lat="46.46263" lon="13.9553">
        <ele>648.598752</ele>
        <time>2026-07-12T15:26:20.000Z</time>
      </trkpt>
      <trkpt lat="46.46265" lon="13.95512">
        <ele>648.748284</ele>
        <time>2026-07-12T15:26:25.000Z</time>
      </trkpt>
      <trkpt lat="46.46271" lon="13.95498">
        <ele>648.880474</ele>
        <time>2026-07-12T15:26:30.000Z</time>
      </trkpt>
      <trkpt lat="46.46276" lon="13.95486">
        <ele>648.996786</ele>
        <time>2026-07-12T15:26:34.000Z</time>
      </trkpt>
      <trkpt lat="46.46276" lon="13.95482">
        <ele>649.02681</ele>
        <time>2026-07-12T15:26:35.000Z</time>
      </trkpt>
      <trkpt lat="46.46282" lon="13.95448">
        <ele>649.308609</ele>
        <time>2026-07-12T15:26:44.000Z</time>
      </trkpt>
      <trkpt lat="46.46287" lon="13.95429">
        <ele>649.44246</ele>
        <time>2026-07-12T15:26:48.000Z</time>
      </trkpt>
      <trkpt lat="46.46289" lon="13.95413">
        <ele>649.542709</ele>
        <time>2026-07-12T15:26:51.000Z</time>
      </trkpt>
      <trkpt lat="46.46302" lon="13.95361">
        <ele>649.878895</ele>
        <time>2026-07-12T15:27:01.000Z</time>
      </trkpt>
      <trkpt lat="46.46308" lon="13.95326">
        <ele>650.100858</ele>
        <time>2026-07-12T15:27:07.000Z</time>
      </trkpt>
      <trkpt lat="46.46312" lon="13.95295">
        <ele>650.292013</ele>
        <time>2026-07-12T15:27:13.000Z</time>
      </trkpt>
      <trkpt lat="46.46313" lon="13.95284">
        <ele>650.358141</ele>
        <time>2026-07-12T15:27:15.000Z</time>
      </trkpt>
      <trkpt lat="46.46314" lon="13.95272">
        <ele>650.433707</ele>
        <time>2026-07-12T15:27:17.000Z</time>
      </trkpt>
      <trkpt lat="46.46314" lon="13.95266">
        <ele>650.46985</ele>
        <time>2026-07-12T15:27:18.000Z</time>
      </trkpt>
      <trkpt lat="46.46313" lon="13.95238">
        <ele>650.642925</ele>
        <time>2026-07-12T15:27:23.000Z</time>
      </trkpt>
      <trkpt lat="46.46313" lon="13.95232">
        <ele>650.676021</ele>
        <time>2026-07-12T15:27:24.000Z</time>
      </trkpt>
      <trkpt lat="46.46315" lon="13.95211">
        <ele>650.810378</ele>
        <time>2026-07-12T15:27:28.000Z</time>
      </trkpt>
      <trkpt lat="46.46312" lon="13.95164">
        <ele>651.086734</ele>
        <time>2026-07-12T15:27:36.000Z</time>
      </trkpt>
      <trkpt lat="46.46308" lon="13.9513">
        <ele>651.286794</ele>
        <time>2026-07-12T15:27:42.000Z</time>
      </trkpt>
      <trkpt lat="46.46303" lon="13.95086">
        <ele>651.549319</ele>
        <time>2026-07-12T15:27:50.000Z</time>
      </trkpt>
      <trkpt lat="46.46296" lon="13.95042">
        <ele>651.809568</ele>
        <time>2026-07-12T15:27:58.000Z</time>
      </trkpt>
      <trkpt lat="46.46292" lon="13.95009">
        <ele>652.006797</ele>
        <time>2026-07-12T15:28:04.000Z</time>
      </trkpt>
      <trkpt lat="46.46287" lon="13.94959">
        <ele>652.298452</ele>
        <time>2026-07-12T15:28:13.000Z</time>
      </trkpt>
      <trkpt lat="46.46284" lon="13.94921">
        <ele>652.190681</ele>
        <time>2026-07-12T15:28:20.000Z</time>
      </trkpt>
      <trkpt lat="46.46281" lon="13.9487">
        <ele>651.144369</ele>
        <time>2026-07-12T15:28:29.000Z</time>
      </trkpt>
      <trkpt lat="46.46279" lon="13.94821">
        <ele>650.130365</ele>
        <time>2026-07-12T15:28:38.000Z</time>
      </trkpt>
      <trkpt lat="46.46279" lon="13.94777">
        <ele>649.239001</ele>
        <time>2026-07-12T15:28:46.000Z</time>
      </trkpt>
      <trkpt lat="46.46285" lon="13.94741">
        <ele>648.484747</ele>
        <time>2026-07-12T15:28:52.000Z</time>
      </trkpt>
      <trkpt lat="46.46286" lon="13.94737">
        <ele>648.386904</ele>
        <time>2026-07-12T15:28:53.000Z</time>
      </trkpt>
      <trkpt lat="46.4629" lon="13.9472">
        <ele>648.012972</ele>
        <time>2026-07-12T15:28:56.000Z</time>
      </trkpt>
      <trkpt lat="46.46298" lon="13.94692">
        <ele>647.396551</ele>
        <time>2026-07-12T15:29:00.000Z</time>
      </trkpt>
      <trkpt lat="46.46312" lon="13.94638">
        <ele>647.997888</ele>
        <time>2026-07-12T15:29:07.000Z</time>
      </trkpt>
      <trkpt lat="46.4632" lon="13.94592">
        <ele>648.991317</ele>
        <time>2026-07-12T15:29:14.000Z</time>
      </trkpt>
      <trkpt lat="46.46322" lon="13.94574">
        <ele>649.355771</ele>
        <time>2026-07-12T15:29:18.000Z</time>
      </trkpt>
      <trkpt lat="46.46327" lon="13.9454">
        <ele>650.088151</ele>
        <time>2026-07-12T15:29:26.000Z</time>
      </trkpt>
      <trkpt lat="46.46328" lon="13.94515">
        <ele>650.596102</ele>
        <time>2026-07-12T15:29:32.000Z</time>
      </trkpt>
      <trkpt lat="46.46336" lon="13.9448">
        <ele>651.351287</ele>
        <time>2026-07-12T15:29:39.000Z</time>
      </trkpt>
      <trkpt lat="46.46344" lon="13.94449">
        <ele>652.044742</ele>
        <time>2026-07-12T15:29:45.000Z</time>
      </trkpt>
      <trkpt lat="46.46348" lon="13.94429">
        <ele>652.488398</ele>
        <time>2026-07-12T15:29:49.000Z</time>
      </trkpt>
      <trkpt lat="46.46362" lon="13.94399">
        <ele>652.576287</ele>
        <time>2026-07-12T15:29:55.000Z</time>
      </trkpt>
      <trkpt lat="46.46363" lon="13.94395">
        <ele>652.583094</ele>
        <time>2026-07-12T15:29:56.000Z</time>
      </trkpt>
      <trkpt lat="46.46362" lon="13.94387">
        <ele>652.593983</ele>
        <time>2026-07-12T15:29:58.000Z</time>
      </trkpt>
      <trkpt lat="46.46369" lon="13.94353">
        <ele>652.648071</ele>
        <time>2026-07-12T15:30:03.000Z</time>
      </trkpt>
      <trkpt lat="46.4636" lon="13.94336">
        <ele>652.681242</ele>
        <time>2026-07-12T15:30:06.000Z</time>
      </trkpt>
      <trkpt lat="46.46359" lon="13.94326">
        <ele>652.69684</ele>
        <time>2026-07-12T15:30:08.000Z</time>
      </trkpt>
      <trkpt lat="46.46361" lon="13.94313">
        <ele>652.717227</ele>
        <time>2026-07-12T15:30:10.000Z</time>
      </trkpt>
      <trkpt lat="46.46368" lon="13.94296">
        <ele>652.747191</ele>
        <time>2026-07-12T15:30:15.000Z</time>
      </trkpt>
      <trkpt lat="46.4637" lon="13.94293">
        <ele>652.752796</ele>
        <time>2026-07-12T15:30:19.000Z</time>
      </trkpt>
      <trkpt lat="46.46369" lon="13.94284">
        <ele>652.766098</ele>
        <time>2026-07-12T15:30:40.000Z</time>
      </trkpt>
      <trkpt lat="46.46369" lon="13.94277">
        <ele>652.776853</ele>
        <time>2026-07-12T15:30:42.000Z</time>
      </trkpt>
      <trkpt lat="46.46369" lon="13.94273">
        <ele>652.7829</ele>
        <time>2026-07-12T15:30:47.000Z</time>
      </trkpt>
      <trkpt lat="46.46372" lon="13.94269">
        <ele>652.792785</ele>
        <time>2026-07-12T15:31:16.000Z</time>
      </trkpt>
      <trkpt lat="46.46375" lon="13.94261">
        <ele>652.806401</ele>
        <time>2026-07-12T15:31:19.000Z</time>
      </trkpt>
      <trkpt lat="46.46374" lon="13.94258">
        <ele>652.811068</ele>
        <time>2026-07-12T15:31:22.000Z</time>
      </trkpt>
      <trkpt lat="46.46377" lon="13.94251">
        <ele>652.822722</ele>
        <time>2026-07-12T15:38:21.000Z</time>
      </trkpt>
      <trkpt lat="46.46384" lon="13.9423">
        <ele>652.85721</ele>
        <time>2026-07-12T15:38:28.000Z</time>
      </trkpt>
      <trkpt lat="46.4639" lon="13.942">
        <ele>652.904606</ele>
        <time>2026-07-12T15:38:34.000Z</time>
      </trkpt>
      <trkpt lat="46.46394" lon="13.94179">
        <ele>652.858848</ele>
        <time>2026-07-12T15:38:38.000Z</time>
      </trkpt>
      <trkpt lat="46.46397" lon="13.94156">
        <ele>652.7541</ele>
        <time>2026-07-12T15:38:42.000Z</time>
      </trkpt>
      <trkpt lat="46.46399" lon="13.94151">
        <ele>652.726069</ele>
        <time>2026-07-12T15:38:43.000Z</time>
      </trkpt>
      <trkpt lat="46.46409" lon="13.94102">
        <ele>652.489592</ele>
        <time>2026-07-12T15:38:51.000Z</time>
      </trkpt>
      <trkpt lat="46.46412" lon="13.9409">
        <ele>652.431975</ele>
        <time>2026-07-12T15:38:53.000Z</time>
      </trkpt>
      <trkpt lat="46.46414" lon="13.94078">
        <ele>652.374989</ele>
        <time>2026-07-12T15:38:55.000Z</time>
      </trkpt>
      <trkpt lat="46.4642" lon="13.94049">
        <ele>652.236515</ele>
        <time>2026-07-12T15:39:00.000Z</time>
      </trkpt>
      <trkpt lat="46.46434" lon="13.93991">
        <ele>651.956012</ele>
        <time>2026-07-12T15:39:09.000Z</time>
      </trkpt>
      <trkpt lat="46.46437" lon="13.93977">
        <ele>651.887991</ele>
        <time>2026-07-12T15:39:11.000Z</time>
      </trkpt>
      <trkpt lat="46.4644" lon="13.93965">
        <ele>651.827145</ele>
        <time>2026-07-12T15:39:13.000Z</time>
      </trkpt>
      <trkpt lat="46.46444" lon="13.93952">
        <ele>651.764525</ele>
        <time>2026-07-12T15:39:15.000Z</time>
      </trkpt>
      <trkpt lat="46.46446" lon="13.93939">
        <ele>651.762835</ele>
        <time>2026-07-12T15:39:17.000Z</time>
      </trkpt>
      <trkpt lat="46.4645" lon="13.93926">
        <ele>651.955884</ele>
        <time>2026-07-12T15:39:19.000Z</time>
      </trkpt>
      <trkpt lat="46.46458" lon="13.93869">
        <ele>652.771985</ele>
        <time>2026-07-12T15:39:28.000Z</time>
      </trkpt>
      <trkpt lat="46.46465" lon="13.9381">
        <ele>653.594183</ele>
        <time>2026-07-12T15:39:37.000Z</time>
      </trkpt>
      <trkpt lat="46.46466" lon="13.93804">
        <ele>653.688061</ele>
        <time>2026-07-12T15:39:38.000Z</time>
      </trkpt>
      <trkpt lat="46.4647" lon="13.93786">
        <ele>653.945115</ele>
        <time>2026-07-12T15:39:41.000Z</time>
      </trkpt>
      <trkpt lat="46.46471" lon="13.93775">
        <ele>654.097378</ele>
        <time>2026-07-12T15:39:43.000Z</time>
      </trkpt>
      <trkpt lat="46.46478" lon="13.93743">
        <ele>654.559543</ele>
        <time>2026-07-12T15:39:49.000Z</time>
      </trkpt>
      <trkpt lat="46.46485" lon="13.93706">
        <ele>655.098293</ele>
        <time>2026-07-12T15:39:56.000Z</time>
      </trkpt>
      <trkpt lat="46.46498" lon="13.93674">
        <ele>655.488996</ele>
        <time>2026-07-12T15:40:02.000Z</time>
      </trkpt>
      <trkpt lat="46.46501" lon="13.93669">
        <ele>655.536769</ele>
        <time>2026-07-12T15:40:03.000Z</time>
      </trkpt>
      <trkpt lat="46.4651" lon="13.93652">
        <ele>655.699784</ele>
        <time>2026-07-12T15:40:06.000Z</time>
      </trkpt>
      <trkpt lat="46.46515" lon="13.93639">
        <ele>655.809137</ele>
        <time>2026-07-12T15:40:08.000Z</time>
      </trkpt>
      <trkpt lat="46.46517" lon="13.93633">
        <ele>655.861859</ele>
        <time>2026-07-12T15:40:09.000Z</time>
      </trkpt>
      <trkpt lat="46.46522" lon="13.93608">
        <ele>656.058689</ele>
        <time>2026-07-12T15:40:13.000Z</time>
      </trkpt>
      <trkpt lat="46.46526" lon="13.9358">
        <ele>656.265614</ele>
        <time>2026-07-12T15:40:17.000Z</time>
      </trkpt>
      <trkpt lat="46.46529" lon="13.93561">
        <ele>656.416342</ele>
        <time>2026-07-12T15:40:20.000Z</time>
      </trkpt>
      <trkpt lat="46.46533" lon="13.93542">
        <ele>656.566691</ele>
        <time>2026-07-12T15:40:23.000Z</time>
      </trkpt>
      <trkpt lat="46.46541" lon="13.93487">
        <ele>656.98917</ele>
        <time>2026-07-12T15:40:31.000Z</time>
      </trkpt>
      <trkpt lat="46.46544" lon="13.93473">
        <ele>657.097383</ele>
        <time>2026-07-12T15:40:33.000Z</time>
      </trkpt>
      <trkpt lat="46.46547" lon="13.93453">
        <ele>657.24396</ele>
        <time>2026-07-12T15:40:36.000Z</time>
      </trkpt>
      <trkpt lat="46.46548" lon="13.93448">
        <ele>657.28797</ele>
        <time>2026-07-12T15:40:37.000Z</time>
      </trkpt>
      <trkpt lat="46.46552" lon="13.93426">
        <ele>657.453924</ele>
        <time>2026-07-12T15:40:41.000Z</time>
      </trkpt>
      <trkpt lat="46.46557" lon="13.9339">
        <ele>657.720288</ele>
        <time>2026-07-12T15:40:47.000Z</time>
      </trkpt>
      <trkpt lat="46.46559" lon="13.93378">
        <ele>657.810163</ele>
        <time>2026-07-12T15:40:49.000Z</time>
      </trkpt>
      <trkpt lat="46.4656" lon="13.93362">
        <ele>657.92304</ele>
        <time>2026-07-12T15:40:51.000Z</time>
      </trkpt>
      <trkpt lat="46.46559" lon="13.93348">
        <ele>658.024711</ele>
        <time>2026-07-12T15:40:53.000Z</time>
      </trkpt>
      <trkpt lat="46.46558" lon="13.93342">
        <ele>658.071433</ele>
        <time>2026-07-12T15:40:54.000Z</time>
      </trkpt>
      <trkpt lat="46.46556" lon="13.93337">
        <ele>658.115408</ele>
        <time>2026-07-12T15:40:55.000Z</time>
      </trkpt>
      <trkpt lat="46.46548" lon="13.9331">
        <ele>658.32783</ele>
        <time>2026-07-12T15:41:00.000Z</time>
      </trkpt>
      <trkpt lat="46.46547" lon="13.93305">
        <ele>658.366792</ele>
        <time>2026-07-12T15:41:01.000Z</time>
      </trkpt>
      <trkpt lat="46.46543" lon="13.93279">
        <ele>658.56093</ele>
        <time>2026-07-12T15:41:07.000Z</time>
      </trkpt>
      <trkpt lat="46.46544" lon="13.93278">
        <ele>658.569197</ele>
        <time>2026-07-12T15:41:10.000Z</time>
      </trkpt>
      <trkpt lat="46.46542" lon="13.93271">
        <ele>658.616695</ele>
        <time>2026-07-12T15:46:52.000Z</time>
      </trkpt>
      <trkpt lat="46.46542" lon="13.93268">
        <ele>658.638495</ele>
        <time>2026-07-12T15:46:53.000Z</time>
      </trkpt>
      <trkpt lat="46.46545" lon="13.93247">
        <ele>658.79373</ele>
        <time>2026-07-12T15:46:59.000Z</time>
      </trkpt>
      <trkpt lat="46.46551" lon="13.93213">
        <ele>659.051259</ele>
        <time>2026-07-12T15:47:06.000Z</time>
      </trkpt>
      <trkpt lat="46.46552" lon="13.93201">
        <ele>659.138095</ele>
        <time>2026-07-12T15:47:08.000Z</time>
      </trkpt>
      <trkpt lat="46.46556" lon="13.93183">
        <ele>659.261339</ele>
        <time>2026-07-12T15:47:11.000Z</time>
      </trkpt>
      <trkpt lat="46.46557" lon="13.93177">
        <ele>659.300995</ele>
        <time>2026-07-12T15:47:12.000Z</time>
      </trkpt>
      <trkpt lat="46.4656" lon="13.93164">
        <ele>659.383802</ele>
        <time>2026-07-12T15:47:14.000Z</time>
      </trkpt>
      <trkpt lat="46.46562" lon="13.93151">
        <ele>659.467358</ele>
        <time>2026-07-12T15:47:16.000Z</time>
      </trkpt>
      <trkpt lat="46.46563" lon="13.93131">
        <ele>659.591533</ele>
        <time>2026-07-12T15:47:19.000Z</time>
      </trkpt>
      <trkpt lat="46.46567" lon="13.93121">
        <ele>659.664142</ele>
        <time>2026-07-12T15:47:21.000Z</time>
      </trkpt>
      <trkpt lat="46.4657" lon="13.93118">
        <ele>659.69499</ele>
        <time>2026-07-12T15:47:22.000Z</time>
      </trkpt>
      <trkpt lat="46.46576" lon="13.93119">
        <ele>659.747366</ele>
        <time>2026-07-12T15:47:24.000Z</time>
      </trkpt>
      <trkpt lat="46.46598" lon="13.93132">
        <ele>659.958684</ele>
        <time>2026-07-12T15:47:30.000Z</time>
      </trkpt>
      <trkpt lat="46.4661" lon="13.93137">
        <ele>660.078751</ele>
        <time>2026-07-12T15:47:33.000Z</time>
      </trkpt>
      <trkpt lat="46.46619" lon="13.93137">
        <ele>660.153196</ele>
        <time>2026-07-12T15:47:35.000Z</time>
      </trkpt>
      <trkpt lat="46.46622" lon="13.93134">
        <ele>660.1892</ele>
        <time>2026-07-12T15:47:36.000Z</time>
      </trkpt>
      <trkpt lat="46.46625" lon="13.9313">
        <ele>660.226337</ele>
        <time>2026-07-12T15:47:37.000Z</time>
      </trkpt>
      <trkpt lat="46.46629" lon="13.9312">
        <ele>660.297982</ele>
        <time>2026-07-12T15:47:39.000Z</time>
      </trkpt>
      <trkpt lat="46.46631" lon="13.93115">
        <ele>660.333108</ele>
        <time>2026-07-12T15:47:40.000Z</time>
      </trkpt>
      <trkpt lat="46.46632" lon="13.93103">
        <ele>660.407887</ele>
        <time>2026-07-12T15:47:42.000Z</time>
      </trkpt>
      <trkpt lat="46.46635" lon="13.93084">
        <ele>660.523829</ele>
        <time>2026-07-12T15:47:45.000Z</time>
      </trkpt>
      <trkpt lat="46.46637" lon="13.93071">
        <ele>660.604779</ele>
        <time>2026-07-12T15:47:47.000Z</time>
      </trkpt>
      <trkpt lat="46.46642" lon="13.93052">
        <ele>660.733109</ele>
        <time>2026-07-12T15:47:50.000Z</time>
      </trkpt>
      <trkpt lat="46.46643" lon="13.93046">
        <ele>660.773943</ele>
        <time>2026-07-12T15:47:51.000Z</time>
      </trkpt>
      <trkpt lat="46.4665" lon="13.93013">
        <ele>660.865199</ele>
        <time>2026-07-12T15:47:56.000Z</time>
      </trkpt>
      <trkpt lat="46.46654" lon="13.93001">
        <ele>660.893618</ele>
        <time>2026-07-12T15:47:58.000Z</time>
      </trkpt>
      <trkpt lat="46.46656" lon="13.92989">
        <ele>660.921207</ele>
        <time>2026-07-12T15:48:00.000Z</time>
      </trkpt>
      <trkpt lat="46.46662" lon="13.92963">
        <ele>660.978525</ele>
        <time>2026-07-12T15:48:04.000Z</time>
      </trkpt>
      <trkpt lat="46.46661" lon="13.92957">
        <ele>660.992681</ele>
        <time>2026-07-12T15:48:05.000Z</time>
      </trkpt>
      <trkpt lat="46.46672" lon="13.92924">
        <ele>661.069534</ele>
        <time>2026-07-12T15:48:10.000Z</time>
      </trkpt>
      <trkpt lat="46.46673" lon="13.92918">
        <ele>661.084024</ele>
        <time>2026-07-12T15:48:11.000Z</time>
      </trkpt>
      <trkpt lat="46.46674" lon="13.92911">
        <ele>661.097961</ele>
        <time>2026-07-12T15:48:12.000Z</time>
      </trkpt>
      <trkpt lat="46.46676" lon="13.92899">
        <ele>661.126037</ele>
        <time>2026-07-12T15:48:14.000Z</time>
      </trkpt>
      <trkpt lat="46.46678" lon="13.92886">
        <ele>661.154113</ele>
        <time>2026-07-12T15:48:16.000Z</time>
      </trkpt>
      <trkpt lat="46.4668" lon="13.92879">
        <ele>661.170117</ele>
        <time>2026-07-12T15:48:17.000Z</time>
      </trkpt>
      <trkpt lat="46.46683" lon="13.92873">
        <ele>661.185454</ele>
        <time>2026-07-12T15:48:18.000Z</time>
      </trkpt>
      <trkpt lat="46.46686" lon="13.92846">
        <ele>661.244904</ele>
        <time>2026-07-12T15:48:22.000Z</time>
      </trkpt>
      <trkpt lat="46.46694" lon="13.92807">
        <ele>661.332248</ele>
        <time>2026-07-12T15:48:28.000Z</time>
      </trkpt>
      <trkpt lat="46.46698" lon="13.92793">
        <ele>661.365118</ele>
        <time>2026-07-12T15:48:30.000Z</time>
      </trkpt>
      <trkpt lat="46.46709" lon="13.92739">
        <ele>661.582539</ele>
        <time>2026-07-12T15:48:38.000Z</time>
      </trkpt>
      <trkpt lat="46.46716" lon="13.92705">
        <ele>661.719393</ele>
        <time>2026-07-12T15:48:43.000Z</time>
      </trkpt>
      <trkpt lat="46.4672" lon="13.92684">
        <ele>661.805</ele>
        <time>2026-07-12T15:48:46.000Z</time>
      </trkpt>
      <trkpt lat="46.46722" lon="13.92676">
        <ele>661.834112</ele>
        <time>2026-07-12T15:48:47.000Z</time>
      </trkpt>
      <trkpt lat="46.46724" lon="13.92662">
        <ele>661.889479</ele>
        <time>2026-07-12T15:48:49.000Z</time>
      </trkpt>
      <trkpt lat="46.46726" lon="13.92648">
        <ele>661.945766</ele>
        <time>2026-07-12T15:48:51.000Z</time>
      </trkpt>
      <trkpt lat="46.46736" lon="13.92609">
        <ele>662.10644</ele>
        <time>2026-07-12T15:48:57.000Z</time>
      </trkpt>
      <trkpt lat="46.46745" lon="13.92583">
        <ele>662.217434</ele>
        <time>2026-07-12T15:49:01.000Z</time>
      </trkpt>
      <trkpt lat="46.46748" lon="13.9257">
        <ele>662.270541</ele>
        <time>2026-07-12T15:49:03.000Z</time>
      </trkpt>
      <trkpt lat="46.46758" lon="13.92527">
        <ele>662.512735</ele>
        <time>2026-07-12T15:49:10.000Z</time>
      </trkpt>
      <trkpt lat="46.4676" lon="13.9252">
        <ele>662.562986</ele>
        <time>2026-07-12T15:49:11.000Z</time>
      </trkpt>
      <trkpt lat="46.46769" lon="13.92494">
        <ele>662.761094</ele>
        <time>2026-07-12T15:49:15.000Z</time>
      </trkpt>
      <trkpt lat="46.46772" lon="13.92481">
        <ele>662.856319</ele>
        <time>2026-07-12T15:49:17.000Z</time>
      </trkpt>
      <trkpt lat="46.46777" lon="13.92462">
        <ele>663.004969</ele>
        <time>2026-07-12T15:49:20.000Z</time>
      </trkpt>
      <trkpt lat="46.46779" lon="13.92455">
        <ele>663.056244</ele>
        <time>2026-07-12T15:49:21.000Z</time>
      </trkpt>
      <trkpt lat="46.46784" lon="13.92443">
        <ele>663.152703</ele>
        <time>2026-07-12T15:49:23.000Z</time>
      </trkpt>
      <trkpt lat="46.46792" lon="13.92418">
        <ele>663.346594</ele>
        <time>2026-07-12T15:49:27.000Z</time>
      </trkpt>
      <trkpt lat="46.46795" lon="13.92407">
        <ele>663.431781</ele>
        <time>2026-07-12T15:49:29.000Z</time>
      </trkpt>
      <trkpt lat="46.468" lon="13.92395">
        <ele>663.525217</ele>
        <time>2026-07-12T15:49:31.000Z</time>
      </trkpt>
      <trkpt lat="46.46806" lon="13.92383">
        <ele>663.627742</ele>
        <time>2026-07-12T15:49:33.000Z</time>
      </trkpt>
      <trkpt lat="46.46813" lon="13.92372">
        <ele>663.734769</ele>
        <time>2026-07-12T15:49:35.000Z</time>
      </trkpt>
      <trkpt lat="46.46816" lon="13.92367">
        <ele>663.781436</ele>
        <time>2026-07-12T15:49:36.000Z</time>
      </trkpt>
      <trkpt lat="46.46841" lon="13.92332">
        <ele>664.13358</ele>
        <time>2026-07-12T15:49:43.000Z</time>
      </trkpt>
      <trkpt lat="46.46856" lon="13.92305">
        <ele>664.39653</ele>
        <time>2026-07-12T15:49:48.000Z</time>
      </trkpt>
      <trkpt lat="46.46859" lon="13.92299">
        <ele>664.447634</ele>
        <time>2026-07-12T15:49:49.000Z</time>
      </trkpt>
      <trkpt lat="46.46868" lon="13.92285">
        <ele>664.591736</ele>
        <time>2026-07-12T15:49:52.000Z</time>
      </trkpt>
      <trkpt lat="46.4688" lon="13.92259">
        <ele>664.833332</ele>
        <time>2026-07-12T15:49:57.000Z</time>
      </trkpt>
      <trkpt lat="46.46906" lon="13.92217">
        <ele>665.252193</ele>
        <time>2026-07-12T15:50:05.000Z</time>
      </trkpt>
      <trkpt lat="46.46914" lon="13.92202">
        <ele>665.397078</ele>
        <time>2026-07-12T15:50:08.000Z</time>
      </trkpt>
      <trkpt lat="46.46922" lon="13.92188">
        <ele>665.536858</ele>
        <time>2026-07-12T15:50:11.000Z</time>
      </trkpt>
      <trkpt lat="46.46951" lon="13.92145">
        <ele>665.996497</ele>
        <time>2026-07-12T15:50:20.000Z</time>
      </trkpt>
      <trkpt lat="46.46957" lon="13.92134">
        <ele>666.10023</ele>
        <time>2026-07-12T15:50:22.000Z</time>
      </trkpt>
      <trkpt lat="46.46963" lon="13.92124">
        <ele>666.228017</ele>
        <time>2026-07-12T15:50:24.000Z</time>
      </trkpt>
      <trkpt lat="46.46966" lon="13.92118">
        <ele>666.356664</ele>
        <time>2026-07-12T15:50:25.000Z</time>
      </trkpt>
      <trkpt lat="46.46969" lon="13.92112">
        <ele>666.485183</ele>
        <time>2026-07-12T15:50:26.000Z</time>
      </trkpt>
      <trkpt lat="46.46977" lon="13.921">
        <ele>666.752115</ele>
        <time>2026-07-12T15:50:28.000Z</time>
      </trkpt>
      <trkpt lat="46.46985" lon="13.92082">
        <ele>667.115761</ele>
        <time>2026-07-12T15:50:31.000Z</time>
      </trkpt>
      <trkpt lat="46.47007" lon="13.92024">
        <ele>668.225798</ele>
        <time>2026-07-12T15:50:40.000Z</time>
      </trkpt>
      <trkpt lat="46.47011" lon="13.92012">
        <ele>668.456568</ele>
        <time>2026-07-12T15:50:42.000Z</time>
      </trkpt>
      <trkpt lat="46.47017" lon="13.91993">
        <ele>668.804705</ele>
        <time>2026-07-12T15:50:45.000Z</time>
      </trkpt>
      <trkpt lat="46.47019" lon="13.91987">
        <ele>668.925816</ele>
        <time>2026-07-12T15:50:46.000Z</time>
      </trkpt>
      <trkpt lat="46.47026" lon="13.91968">
        <ele>669.27765</ele>
        <time>2026-07-12T15:50:49.000Z</time>
      </trkpt>
      <trkpt lat="46.47027" lon="13.91961">
        <ele>669.39833</ele>
        <time>2026-07-12T15:50:50.000Z</time>
      </trkpt>
      <trkpt lat="46.47029" lon="13.91954">
        <ele>669.521345</ele>
        <time>2026-07-12T15:50:51.000Z</time>
      </trkpt>
      <trkpt lat="46.47036" lon="13.91926">
        <ele>670.025796</ele>
        <time>2026-07-12T15:50:55.000Z</time>
      </trkpt>
      <trkpt lat="46.47051" lon="13.91881">
        <ele>670.832143</ele>
        <time>2026-07-12T15:51:02.000Z</time>
      </trkpt>
      <trkpt lat="46.47062" lon="13.91824">
        <ele>671.711615</ele>
        <time>2026-07-12T15:51:10.000Z</time>
      </trkpt>
      <trkpt lat="46.47071" lon="13.91778">
        <ele>672.438836</ele>
        <time>2026-07-12T15:51:17.000Z</time>
      </trkpt>
      <trkpt lat="46.47078" lon="13.91747">
        <ele>672.926334</ele>
        <time>2026-07-12T15:51:21.000Z</time>
      </trkpt>
      <trkpt lat="46.47081" lon="13.91732">
        <ele>673.153195</ele>
        <time>2026-07-12T15:51:23.000Z</time>
      </trkpt>
      <trkpt lat="46.47089" lon="13.91703">
        <ele>673.617509</ele>
        <time>2026-07-12T15:51:27.000Z</time>
      </trkpt>
      <trkpt lat="46.47098" lon="13.91668">
        <ele>674.188186</ele>
        <time>2026-07-12T15:51:32.000Z</time>
      </trkpt>
      <trkpt lat="46.47109" lon="13.91628">
        <ele>674.915072</ele>
        <time>2026-07-12T15:51:38.000Z</time>
      </trkpt>
      <trkpt lat="46.47112" lon="13.91615">
        <ele>675.152119</ele>
        <time>2026-07-12T15:51:40.000Z</time>
      </trkpt>
      <trkpt lat="46.47117" lon="13.91596">
        <ele>675.546169</ele>
        <time>2026-07-12T15:51:43.000Z</time>
      </trkpt>
      <trkpt lat="46.47119" lon="13.91589">
        <ele>675.673547</ele>
        <time>2026-07-12T15:51:44.000Z</time>
      </trkpt>
      <trkpt lat="46.47126" lon="13.91563">
        <ele>676.183108</ele>
        <time>2026-07-12T15:51:48.000Z</time>
      </trkpt>
      <trkpt lat="46.47136" lon="13.91524">
        <ele>676.95413</ele>
        <time>2026-07-12T15:51:54.000Z</time>
      </trkpt>
      <trkpt lat="46.47137" lon="13.91517">
        <ele>677.086077</ele>
        <time>2026-07-12T15:51:55.000Z</time>
      </trkpt>
      <trkpt lat="46.47144" lon="13.91491">
        <ele>677.588937</ele>
        <time>2026-07-12T15:51:59.000Z</time>
      </trkpt>
      <trkpt lat="46.47146" lon="13.91478">
        <ele>677.836772</ele>
        <time>2026-07-12T15:52:01.000Z</time>
      </trkpt>
      <trkpt lat="46.47157" lon="13.91439">
        <ele>678.60469</ele>
        <time>2026-07-12T15:52:07.000Z</time>
      </trkpt>
      <trkpt lat="46.47165" lon="13.91408">
        <ele>679.225898</ele>
        <time>2026-07-12T15:52:12.000Z</time>
      </trkpt>
      <trkpt lat="46.47167" lon="13.91402">
        <ele>679.234928</ele>
        <time>2026-07-12T15:52:13.000Z</time>
      </trkpt>
      <trkpt lat="46.4717" lon="13.9139">
        <ele>679.165402</ele>
        <time>2026-07-12T15:52:15.000Z</time>
      </trkpt>
      <trkpt lat="46.47171" lon="13.91371">
        <ele>679.055307</ele>
        <time>2026-07-12T15:52:18.000Z</time>
      </trkpt>
      <trkpt lat="46.47172" lon="13.91358">
        <ele>678.98502</ele>
        <time>2026-07-12T15:52:20.000Z</time>
      </trkpt>
      <trkpt lat="46.47176" lon="13.91339">
        <ele>678.873545</ele>
        <time>2026-07-12T15:52:23.000Z</time>
      </trkpt>
      <trkpt lat="46.47179" lon="13.91319">
        <ele>678.759918</ele>
        <time>2026-07-12T15:52:26.000Z</time>
      </trkpt>
      <trkpt lat="46.47184" lon="13.91268">
        <ele>678.469648</ele>
        <time>2026-07-12T15:52:33.000Z</time>
      </trkpt>
      <trkpt lat="46.47185" lon="13.91261">
        <ele>678.425488</ele>
        <time>2026-07-12T15:52:34.000Z</time>
      </trkpt>
      <trkpt lat="46.47187" lon="13.91197">
        <ele>678.066996</ele>
        <time>2026-07-12T15:52:42.000Z</time>
      </trkpt>
      <trkpt lat="46.47191" lon="13.91129">
        <ele>678.026638</ele>
        <time>2026-07-12T15:52:51.000Z</time>
      </trkpt>
      <trkpt lat="46.47192" lon="13.91113">
        <ele>678.212318</ele>
        <time>2026-07-12T15:52:53.000Z</time>
      </trkpt>
      <trkpt lat="46.47195" lon="13.91062">
        <ele>678.815721</ele>
        <time>2026-07-12T15:53:00.000Z</time>
      </trkpt>
      <trkpt lat="46.47198" lon="13.91005">
        <ele>679.493832</ele>
        <time>2026-07-12T15:53:08.000Z</time>
      </trkpt>
      <trkpt lat="46.47199" lon="13.90998">
        <ele>679.582546</ele>
        <time>2026-07-12T15:53:09.000Z</time>
      </trkpt>
      <trkpt lat="46.472" lon="13.90967">
        <ele>679.946831</ele>
        <time>2026-07-12T15:53:13.000Z</time>
      </trkpt>
      <trkpt lat="46.47204" lon="13.9092">
        <ele>680.499782</ele>
        <time>2026-07-12T15:53:19.000Z</time>
      </trkpt>
      <trkpt lat="46.47208" lon="13.90861">
        <ele>681.539732</ele>
        <time>2026-07-12T15:53:27.000Z</time>
      </trkpt>
      <trkpt lat="46.47211" lon="13.90824">
        <ele>682.418314</ele>
        <time>2026-07-12T15:53:32.000Z</time>
      </trkpt>
      <trkpt lat="46.47215" lon="13.90804">
        <ele>682.911127</ele>
        <time>2026-07-12T15:53:35.000Z</time>
      </trkpt>
      <trkpt lat="46.4722" lon="13.90783">
        <ele>683.449679</ele>
        <time>2026-07-12T15:53:39.000Z</time>
      </trkpt>
      <trkpt lat="46.47229" lon="13.90753">
        <ele>684.220853</ele>
        <time>2026-07-12T15:53:44.000Z</time>
      </trkpt>
      <trkpt lat="46.47232" lon="13.90741">
        <ele>684.537875</ele>
        <time>2026-07-12T15:53:46.000Z</time>
      </trkpt>
      <trkpt lat="46.47239" lon="13.90704">
        <ele>685.42491</ele>
        <time>2026-07-12T15:53:52.000Z</time>
      </trkpt>
      <trkpt lat="46.47242" lon="13.90687">
        <ele>685.859092</ele>
        <time>2026-07-12T15:53:55.000Z</time>
      </trkpt>
      <trkpt lat="46.47245" lon="13.90675">
        <ele>686.153614</ele>
        <time>2026-07-12T15:53:57.000Z</time>
      </trkpt>
      <trkpt lat="46.47247" lon="13.90654">
        <ele>686.669048</ele>
        <time>2026-07-12T15:54:00.000Z</time>
      </trkpt>
      <trkpt lat="46.4725" lon="13.90639">
        <ele>687.035545</ele>
        <time>2026-07-12T15:54:02.000Z</time>
      </trkpt>
      <trkpt lat="46.4726" lon="13.90592">
        <ele>688.166249</ele>
        <time>2026-07-12T15:54:09.000Z</time>
      </trkpt>
      <trkpt lat="46.47268" lon="13.90555">
        <ele>689.042318</ele>
        <time>2026-07-12T15:54:14.000Z</time>
      </trkpt>
      <trkpt lat="46.47271" lon="13.9054">
        <ele>689.389714</ele>
        <time>2026-07-12T15:54:16.000Z</time>
      </trkpt>
      <trkpt lat="46.47275" lon="13.90524">
        <ele>689.76938</ele>
        <time>2026-07-12T15:54:18.000Z</time>
      </trkpt>
      <trkpt lat="46.47279" lon="13.90507">
        <ele>690.187745</ele>
        <time>2026-07-12T15:54:20.000Z</time>
      </trkpt>
      <trkpt lat="46.47284" lon="13.90462">
        <ele>691.214004</ele>
        <time>2026-07-12T15:54:25.000Z</time>
      </trkpt>
      <trkpt lat="46.47292" lon="13.90411">
        <ele>692.422589</ele>
        <time>2026-07-12T15:54:31.000Z</time>
      </trkpt>
      <trkpt lat="46.47294" lon="13.90402">
        <ele>692.641143</ele>
        <time>2026-07-12T15:54:32.000Z</time>
      </trkpt>
      <trkpt lat="46.47298" lon="13.90384">
        <ele>693.016822</ele>
        <time>2026-07-12T15:54:34.000Z</time>
      </trkpt>
      <trkpt lat="46.47301" lon="13.90367">
        <ele>692.908782</ele>
        <time>2026-07-12T15:54:36.000Z</time>
      </trkpt>
      <trkpt lat="46.47313" lon="13.90315">
        <ele>692.582033</ele>
        <time>2026-07-12T15:54:42.000Z</time>
      </trkpt>
      <trkpt lat="46.47322" lon="13.90275">
        <ele>692.326576</ele>
        <time>2026-07-12T15:54:47.000Z</time>
      </trkpt>
      <trkpt lat="46.47326" lon="13.90258">
        <ele>692.216686</ele>
        <time>2026-07-12T15:54:49.000Z</time>
      </trkpt>
      <trkpt lat="46.47337" lon="13.90207">
        <ele>691.888686</ele>
        <time>2026-07-12T15:54:55.000Z</time>
      </trkpt>
      <trkpt lat="46.47344" lon="13.90155">
        <ele>691.568899</ele>
        <time>2026-07-12T15:55:01.000Z</time>
      </trkpt>
      <trkpt lat="46.47358" lon="13.90079">
        <ele>691.04321</ele>
        <time>2026-07-12T15:55:10.000Z</time>
      </trkpt>
      <trkpt lat="46.47372" lon="13.90022">
        <ele>690.625022</ele>
        <time>2026-07-12T15:55:17.000Z</time>
      </trkpt>
      <trkpt lat="46.47389" lon="13.89974">
        <ele>690.248077</ele>
        <time>2026-07-12T15:55:24.000Z</time>
      </trkpt>
      <trkpt lat="46.47399" lon="13.89946">
        <ele>690.035581</ele>
        <time>2026-07-12T15:55:28.000Z</time>
      </trkpt>
      <trkpt lat="46.47402" lon="13.89932">
        <ele>689.931654</ele>
        <time>2026-07-12T15:55:30.000Z</time>
      </trkpt>
      <trkpt lat="46.47411" lon="13.89903">
        <ele>689.710518</ele>
        <time>2026-07-12T15:55:34.000Z</time>
      </trkpt>
      <trkpt lat="46.47412" lon="13.89888">
        <ele>689.650072</ele>
        <time>2026-07-12T15:55:36.000Z</time>
      </trkpt>
      <trkpt lat="46.47415" lon="13.89865">
        <ele>689.7289</ele>
        <time>2026-07-12T15:55:39.000Z</time>
      </trkpt>
      <trkpt lat="46.47419" lon="13.8985">
        <ele>689.786517</ele>
        <time>2026-07-12T15:55:41.000Z</time>
      </trkpt>
      <trkpt lat="46.47422" lon="13.89842">
        <ele>689.817542</ele>
        <time>2026-07-12T15:55:42.000Z</time>
      </trkpt>
      <trkpt lat="46.47431" lon="13.89819">
        <ele>689.908089</ele>
        <time>2026-07-12T15:55:45.000Z</time>
      </trkpt>
      <trkpt lat="46.47437" lon="13.89794">
        <ele>689.998816</ele>
        <time>2026-07-12T15:55:48.000Z</time>
      </trkpt>
      <trkpt lat="46.47444" lon="13.89761">
        <ele>690.116907</ele>
        <time>2026-07-12T15:55:52.000Z</time>
      </trkpt>
      <trkpt lat="46.47449" lon="13.89745">
        <ele>690.176295</ele>
        <time>2026-07-12T15:55:54.000Z</time>
      </trkpt>
      <trkpt lat="46.47457" lon="13.89723">
        <ele>690.260796</ele>
        <time>2026-07-12T15:55:57.000Z</time>
      </trkpt>
      <trkpt lat="46.47467" lon="13.89692">
        <ele>690.376758</ele>
        <time>2026-07-12T15:56:01.000Z</time>
      </trkpt>
      <trkpt lat="46.47479" lon="13.89643">
        <ele>690.622288</ele>
        <time>2026-07-12T15:56:07.000Z</time>
      </trkpt>
      <trkpt lat="46.47483" lon="13.89626">
        <ele>690.817609</ele>
        <time>2026-07-12T15:56:09.000Z</time>
      </trkpt>
      <trkpt lat="46.47496" lon="13.89571">
        <ele>691.471762</ele>
        <time>2026-07-12T15:56:16.000Z</time>
      </trkpt>
      <trkpt lat="46.475" lon="13.89556">
        <ele>691.65276</ele>
        <time>2026-07-12T15:56:18.000Z</time>
      </trkpt>
      <trkpt lat="46.47503" lon="13.8954">
        <ele>691.836233</ele>
        <time>2026-07-12T15:56:20.000Z</time>
      </trkpt>
      <trkpt lat="46.47504" lon="13.89532">
        <ele>691.92627</ele>
        <time>2026-07-12T15:56:21.000Z</time>
      </trkpt>
      <trkpt lat="46.47505" lon="13.89524">
        <ele>692.015909</ele>
        <time>2026-07-12T15:56:22.000Z</time>
      </trkpt>
      <trkpt lat="46.47511" lon="13.89494">
        <ele>692.366884</ele>
        <time>2026-07-12T15:56:26.000Z</time>
      </trkpt>
      <trkpt lat="46.47514" lon="13.89479">
        <ele>692.54174</ele>
        <time>2026-07-12T15:56:28.000Z</time>
      </trkpt>
      <trkpt lat="46.47519" lon="13.89456">
        <ele>692.813532</ele>
        <time>2026-07-12T15:56:31.000Z</time>
      </trkpt>
      <trkpt lat="46.47521" lon="13.89441">
        <ele>692.988859</ele>
        <time>2026-07-12T15:56:33.000Z</time>
      </trkpt>
      <trkpt lat="46.47522" lon="13.89426">
        <ele>693.149073</ele>
        <time>2026-07-12T15:56:35.000Z</time>
      </trkpt>
      <trkpt lat="46.47522" lon="13.89418">
        <ele>693.24157</ele>
        <time>2026-07-12T15:56:36.000Z</time>
      </trkpt>
      <trkpt lat="46.47522" lon="13.89409">
        <ele>693.339017</ele>
        <time>2026-07-12T15:56:37.000Z</time>
      </trkpt>
      <trkpt lat="46.4752" lon="13.89393">
        <ele>693.580137</ele>
        <time>2026-07-12T15:56:39.000Z</time>
      </trkpt>
      <trkpt lat="46.47513" lon="13.89379">
        <ele>693.884424</ele>
        <time>2026-07-12T15:56:41.000Z</time>
      </trkpt>
      <trkpt lat="46.47504" lon="13.89368">
        <ele>694.177552</ele>
        <time>2026-07-12T15:56:43.000Z</time>
      </trkpt>
      <trkpt lat="46.47501" lon="13.89361">
        <ele>694.320397</ele>
        <time>2026-07-12T15:56:44.000Z</time>
      </trkpt>
      <trkpt lat="46.47495" lon="13.89344">
        <ele>694.665672</ele>
        <time>2026-07-12T15:56:46.000Z</time>
      </trkpt>
      <trkpt lat="46.47493" lon="13.89335">
        <ele>694.838795</ele>
        <time>2026-07-12T15:56:47.000Z</time>
      </trkpt>
      <trkpt lat="46.47493" lon="13.89326">
        <ele>694.995931</ele>
        <time>2026-07-12T15:56:48.000Z</time>
      </trkpt>
      <trkpt lat="46.47498" lon="13.8931">
        <ele>695.308453</ele>
        <time>2026-07-12T15:56:50.000Z</time>
      </trkpt>
      <trkpt lat="46.47501" lon="13.89303">
        <ele>695.468699</ele>
        <time>2026-07-12T15:56:51.000Z</time>
      </trkpt>
      <trkpt lat="46.47507" lon="13.89279">
        <ele>695.922625</ele>
        <time>2026-07-12T15:56:54.000Z</time>
      </trkpt>
      <trkpt lat="46.47512" lon="13.89255">
        <ele>696.363138</ele>
        <time>2026-07-12T15:56:57.000Z</time>
      </trkpt>
      <trkpt lat="46.47517" lon="13.89241">
        <ele>696.644309</ele>
        <time>2026-07-12T15:56:59.000Z</time>
      </trkpt>
      <trkpt lat="46.47519" lon="13.89235">
        <ele>696.770371</ele>
        <time>2026-07-12T15:57:00.000Z</time>
      </trkpt>
      <trkpt lat="46.47526" lon="13.89217">
        <ele>697.120843</ele>
        <time>2026-07-12T15:57:03.000Z</time>
      </trkpt>
      <trkpt lat="46.47529" lon="13.89207">
        <ele>697.332531</ele>
        <time>2026-07-12T15:57:05.000Z</time>
      </trkpt>
      <trkpt lat="46.47527" lon="13.89186">
        <ele>697.716914</ele>
        <time>2026-07-12T15:57:09.000Z</time>
      </trkpt>
      <trkpt lat="46.47522" lon="13.89171">
        <ele>698.012674</ele>
        <time>2026-07-12T15:57:12.000Z</time>
      </trkpt>
      <trkpt lat="46.47518" lon="13.89162">
        <ele>698.130673</ele>
        <time>2026-07-12T15:57:14.000Z</time>
      </trkpt>
      <trkpt lat="46.47517" lon="13.89157">
        <ele>698.151082</ele>
        <time>2026-07-12T15:57:15.000Z</time>
      </trkpt>
      <trkpt lat="46.47501" lon="13.89114">
        <ele>698.335853</ele>
        <time>2026-07-12T15:57:23.000Z</time>
      </trkpt>
      <trkpt lat="46.47488" lon="13.89063">
        <ele>698.541698</ele>
        <time>2026-07-12T15:57:31.000Z</time>
      </trkpt>
      <trkpt lat="46.47486" lon="13.89049">
        <ele>698.595751</ele>
        <time>2026-07-12T15:57:33.000Z</time>
      </trkpt>
      <trkpt lat="46.47481" lon="13.89019">
        <ele>698.710854</ele>
        <time>2026-07-12T15:57:37.000Z</time>
      </trkpt>
      <trkpt lat="46.4748" lon="13.88996">
        <ele>698.799242</ele>
        <time>2026-07-12T15:57:40.000Z</time>
      </trkpt>
      <trkpt lat="46.47479" lon="13.8898">
        <ele>698.860849</ele>
        <time>2026-07-12T15:57:42.000Z</time>
      </trkpt>
      <trkpt lat="46.47479" lon="13.88948">
        <ele>698.981466</ele>
        <time>2026-07-12T15:57:46.000Z</time>
      </trkpt>
      <trkpt lat="46.47487" lon="13.88892">
        <ele>699.211667</ele>
        <time>2026-07-12T15:57:53.000Z</time>
      </trkpt>
      <trkpt lat="46.47491" lon="13.88877">
        <ele>699.285012</ele>
        <time>2026-07-12T15:57:55.000Z</time>
      </trkpt>
      <trkpt lat="46.47498" lon="13.88846">
        <ele>699.42546</ele>
        <time>2026-07-12T15:57:59.000Z</time>
      </trkpt>
      <trkpt lat="46.47513" lon="13.88794">
        <ele>699.67558</ele>
        <time>2026-07-12T15:58:06.000Z</time>
      </trkpt>
      <trkpt lat="46.47516" lon="13.88787">
        <ele>699.709648</ele>
        <time>2026-07-12T15:58:07.000Z</time>
      </trkpt>
      <trkpt lat="46.47524" lon="13.88762">
        <ele>699.834476</ele>
        <time>2026-07-12T15:58:11.000Z</time>
      </trkpt>
      <trkpt lat="46.4754" lon="13.88716">
        <ele>700.058745</ele>
        <time>2026-07-12T15:58:18.000Z</time>
      </trkpt>
      <trkpt lat="46.47555" lon="13.88678">
        <ele>700.258203</ele>
        <time>2026-07-12T15:58:24.000Z</time>
      </trkpt>
      <trkpt lat="46.47557" lon="13.88671">
        <ele>700.339707</ele>
        <time>2026-07-12T15:58:25.000Z</time>
      </trkpt>
      <trkpt lat="46.47567" lon="13.88643">
        <ele>700.670716</ele>
        <time>2026-07-12T15:58:29.000Z</time>
      </trkpt>
      <trkpt lat="46.47569" lon="13.88629">
        <ele>700.824202</ele>
        <time>2026-07-12T15:58:31.000Z</time>
      </trkpt>
      <trkpt lat="46.47577" lon="13.886">
        <ele>701.154587</ele>
        <time>2026-07-12T15:58:35.000Z</time>
      </trkpt>
      <trkpt lat="46.47583" lon="13.88578">
        <ele>701.398317</ele>
        <time>2026-07-12T15:58:38.000Z</time>
      </trkpt>
      <trkpt lat="46.47584" lon="13.8857">
        <ele>701.483124</ele>
        <time>2026-07-12T15:58:39.000Z</time>
      </trkpt>
      <trkpt lat="46.47589" lon="13.88547">
        <ele>701.740004</ele>
        <time>2026-07-12T15:58:42.000Z</time>
      </trkpt>
      <trkpt lat="46.47591" lon="13.88539">
        <ele>701.829334</ele>
        <time>2026-07-12T15:58:43.000Z</time>
      </trkpt>
      <trkpt lat="46.47605" lon="13.88484">
        <ele>702.451761</ele>
        <time>2026-07-12T15:58:50.000Z</time>
      </trkpt>
      <trkpt lat="46.47618" lon="13.88431">
        <ele>703.013544</ele>
        <time>2026-07-12T15:58:57.000Z</time>
      </trkpt>
      <trkpt lat="46.47622" lon="13.88417">
        <ele>702.972588</ele>
        <time>2026-07-12T15:58:59.000Z</time>
      </trkpt>
      <trkpt lat="46.47628" lon="13.88402">
        <ele>702.929915</ele>
        <time>2026-07-12T15:59:01.000Z</time>
      </trkpt>
      <trkpt lat="46.47635" lon="13.88372">
        <ele>702.845977</ele>
        <time>2026-07-12T15:59:05.000Z</time>
      </trkpt>
      <trkpt lat="46.47636" lon="13.88365">
        <ele>702.826443</ele>
        <time>2026-07-12T15:59:06.000Z</time>
      </trkpt>
      <trkpt lat="46.47634" lon="13.8835">
        <ele>702.78807</ele>
        <time>2026-07-12T15:59:08.000Z</time>
      </trkpt>
      <trkpt lat="46.47638" lon="13.88335">
        <ele>702.746407</ele>
        <time>2026-07-12T15:59:10.000Z</time>
      </trkpt>
      <trkpt lat="46.4764" lon="13.88327">
        <ele>702.724811</ele>
        <time>2026-07-12T15:59:11.000Z</time>
      </trkpt>
      <trkpt lat="46.47648" lon="13.88292">
        <ele>702.628947</ele>
        <time>2026-07-12T15:59:16.000Z</time>
      </trkpt>
      <trkpt lat="46.47652" lon="13.88279">
        <ele>702.590265</ele>
        <time>2026-07-12T15:59:18.000Z</time>
      </trkpt>
      <trkpt lat="46.47668" lon="13.88221">
        <ele>702.429402</ele>
        <time>2026-07-12T15:59:26.000Z</time>
      </trkpt>
      <trkpt lat="46.47678" lon="13.8816">
        <ele>702.709718</ele>
        <time>2026-07-12T15:59:34.000Z</time>
      </trkpt>
      <trkpt lat="46.47682" lon="13.88089">
        <ele>703.627765</ele>
        <time>2026-07-12T15:59:43.000Z</time>
      </trkpt>
      <trkpt lat="46.47683" lon="13.88029">
        <ele>704.411171</ele>
        <time>2026-07-12T15:59:51.000Z</time>
      </trkpt>
      <trkpt lat="46.47679" lon="13.87982">
        <ele>705.012363</ele>
        <time>2026-07-12T15:59:57.000Z</time>
      </trkpt>
      <trkpt lat="46.47676" lon="13.8796">
        <ele>705.301986</ele>
        <time>2026-07-12T16:00:00.000Z</time>
      </trkpt>
      <trkpt lat="46.47674" lon="13.87946">
        <ele>705.493334</ele>
        <time>2026-07-12T16:00:02.000Z</time>
      </trkpt>
      <trkpt lat="46.47674" lon="13.87938">
        <ele>705.591666</ele>
        <time>2026-07-12T16:00:03.000Z</time>
      </trkpt>
      <trkpt lat="46.47671" lon="13.87909">
        <ele>705.985846</ele>
        <time>2026-07-12T16:00:07.000Z</time>
      </trkpt>
      <trkpt lat="46.4767" lon="13.87894">
        <ele>706.18225</ele>
        <time>2026-07-12T16:00:09.000Z</time>
      </trkpt>
      <trkpt lat="46.47665" lon="13.87839">
        <ele>706.923966</ele>
        <time>2026-07-12T16:00:16.000Z</time>
      </trkpt>
      <trkpt lat="46.47665" lon="13.87831">
        <ele>707.029435</ele>
        <time>2026-07-12T16:00:17.000Z</time>
      </trkpt>
      <trkpt lat="46.47663" lon="13.87784">
        <ele>707.655823</ele>
        <time>2026-07-12T16:00:23.000Z</time>
      </trkpt>
      <trkpt lat="46.47663" lon="13.87746">
        <ele>708.169829</ele>
        <time>2026-07-12T16:00:28.000Z</time>
      </trkpt>
      <trkpt lat="46.47664" lon="13.87738">
        <ele>708.269832</ele>
        <time>2026-07-12T16:00:29.000Z</time>
      </trkpt>
      <trkpt lat="46.47666" lon="13.87717">
        <ele>708.55899</ele>
        <time>2026-07-12T16:00:32.000Z</time>
      </trkpt>
      <trkpt lat="46.4767" lon="13.87695">
        <ele>708.861797</ele>
        <time>2026-07-12T16:00:35.000Z</time>
      </trkpt>
      <trkpt lat="46.47675" lon="13.87666">
        <ele>709.238787</ele>
        <time>2026-07-12T16:00:39.000Z</time>
      </trkpt>
      <trkpt lat="46.47677" lon="13.87645">
        <ele>709.435004</ele>
        <time>2026-07-12T16:00:42.000Z</time>
      </trkpt>
      <trkpt lat="46.47684" lon="13.87623">
        <ele>709.653397</ele>
        <time>2026-07-12T16:00:45.000Z</time>
      </trkpt>
      <trkpt lat="46.47692" lon="13.87609">
        <ele>709.822908</ele>
        <time>2026-07-12T16:00:47.000Z</time>
      </trkpt>
      <trkpt lat="46.47693" lon="13.87595">
        <ele>709.955892</ele>
        <time>2026-07-12T16:00:49.000Z</time>
      </trkpt>
      <trkpt lat="46.47694" lon="13.8758">
        <ele>710.091658</ele>
        <time>2026-07-12T16:00:51.000Z</time>
      </trkpt>
      <trkpt lat="46.47713" lon="13.87538">
        <ele>710.554268</ele>
        <time>2026-07-12T16:00:57.000Z</time>
      </trkpt>
      <trkpt lat="46.47728" lon="13.87503">
        <ele>710.934398</ele>
        <time>2026-07-12T16:01:03.000Z</time>
      </trkpt>
      <trkpt lat="46.47729" lon="13.87498">
        <ele>710.984094</ele>
        <time>2026-07-12T16:01:04.000Z</time>
      </trkpt>
      <trkpt lat="46.47734" lon="13.87487">
        <ele>711.101103</ele>
        <time>2026-07-12T16:01:06.000Z</time>
      </trkpt>
      <trkpt lat="46.47738" lon="13.87475">
        <ele>711.224941</ele>
        <time>2026-07-12T16:01:08.000Z</time>
      </trkpt>
      <trkpt lat="46.47748" lon="13.87451">
        <ele>711.476935</ele>
        <time>2026-07-12T16:01:12.000Z</time>
      </trkpt>
      <trkpt lat="46.47756" lon="13.87433">
        <ele>711.780721</ele>
        <time>2026-07-12T16:01:15.000Z</time>
      </trkpt>
      <trkpt lat="46.47772" lon="13.87396">
        <ele>712.714573</ele>
        <time>2026-07-12T16:01:21.000Z</time>
      </trkpt>
      <trkpt lat="46.47775" lon="13.87391">
        <ele>712.855058</ele>
        <time>2026-07-12T16:01:22.000Z</time>
      </trkpt>
      <trkpt lat="46.47783" lon="13.87372">
        <ele>713.313276</ele>
        <time>2026-07-12T16:01:25.000Z</time>
      </trkpt>
      <trkpt lat="46.47788" lon="13.8736">
        <ele>713.618592</ele>
        <time>2026-07-12T16:01:27.000Z</time>
      </trkpt>
      <trkpt lat="46.47801" lon="13.87336">
        <ele>714.278852</ele>
        <time>2026-07-12T16:01:31.000Z</time>
      </trkpt>
      <trkpt lat="46.47806" lon="13.87323">
        <ele>714.591978</ele>
        <time>2026-07-12T16:01:33.000Z</time>
      </trkpt>
      <trkpt lat="46.47812" lon="13.8731">
        <ele>714.92082</ele>
        <time>2026-07-12T16:01:35.000Z</time>
      </trkpt>
      <trkpt lat="46.47815" lon="13.87304">
        <ele>715.087966</ele>
        <time>2026-07-12T16:01:36.000Z</time>
      </trkpt>
      <trkpt lat="46.47817" lon="13.87297">
        <ele>715.24468</ele>
        <time>2026-07-12T16:01:37.000Z</time>
      </trkpt>
      <trkpt lat="46.47826" lon="13.87278">
        <ele>715.734136</ele>
        <time>2026-07-12T16:01:40.000Z</time>
      </trkpt>
      <trkpt lat="46.47851" lon="13.87228">
        <ele>717.058729</ele>
        <time>2026-07-12T16:01:48.000Z</time>
      </trkpt>
      <trkpt lat="46.47869" lon="13.87187">
        <ele>717.458452</ele>
        <time>2026-07-12T16:01:54.000Z</time>
      </trkpt>
      <trkpt lat="46.47897" lon="13.87128">
        <ele>717.940362</ele>
        <time>2026-07-12T16:02:03.000Z</time>
      </trkpt>
      <trkpt lat="46.47912" lon="13.87092">
        <ele>718.221887</ele>
        <time>2026-07-12T16:02:09.000Z</time>
      </trkpt>
      <trkpt lat="46.47922" lon="13.87069">
        <ele>718.406176</ele>
        <time>2026-07-12T16:02:13.000Z</time>
      </trkpt>
      <trkpt lat="46.47928" lon="13.87052">
        <ele>718.531957</ele>
        <time>2026-07-12T16:02:16.000Z</time>
      </trkpt>
      <trkpt lat="46.47935" lon="13.87036">
        <ele>718.660351</ele>
        <time>2026-07-12T16:02:19.000Z</time>
      </trkpt>
      <trkpt lat="46.4794" lon="13.8702">
        <ele>718.778072</ele>
        <time>2026-07-12T16:02:22.000Z</time>
      </trkpt>
      <trkpt lat="46.47952" lon="13.86996">
        <ele>718.890585</ele>
        <time>2026-07-12T16:02:26.000Z</time>
      </trkpt>
      <trkpt lat="46.47954" lon="13.86989">
        <ele>718.857964</ele>
        <time>2026-07-12T16:02:27.000Z</time>
      </trkpt>
      <trkpt lat="46.47955" lon="13.86982">
        <ele>718.825402</ele>
        <time>2026-07-12T16:02:28.000Z</time>
      </trkpt>
      <trkpt lat="46.47963" lon="13.86937">
        <ele>718.625048</ele>
        <time>2026-07-12T16:02:34.000Z</time>
      </trkpt>
      <trkpt lat="46.47965" lon="13.86931">
        <ele>718.593592</ele>
        <time>2026-07-12T16:02:35.000Z</time>
      </trkpt>
      <trkpt lat="46.47973" lon="13.86903">
        <ele>718.461308</ele>
        <time>2026-07-12T16:02:39.000Z</time>
      </trkpt>
      <trkpt lat="46.47976" lon="13.86883">
        <ele>718.371021</ele>
        <time>2026-07-12T16:02:42.000Z</time>
      </trkpt>
      <trkpt lat="46.47978" lon="13.8687">
        <ele>718.315074</ele>
        <time>2026-07-12T16:02:44.000Z</time>
      </trkpt>
      <trkpt lat="46.47978" lon="13.86858">
        <ele>718.260983</ele>
        <time>2026-07-12T16:02:47.000Z</time>
      </trkpt>
      <trkpt lat="46.47978" lon="13.86857">
        <ele>718.257062</ele>
        <time>2026-07-12T16:02:49.000Z</time>
      </trkpt>
      <trkpt lat="46.47979" lon="13.86851">
        <ele>718.230281</ele>
        <time>2026-07-12T16:03:24.000Z</time>
      </trkpt>
      <trkpt lat="46.4798" lon="13.86848">
        <ele>718.215132</ele>
        <time>2026-07-12T16:03:25.000Z</time>
      </trkpt>
      <trkpt lat="46.47983" lon="13.86827">
        <ele>718.123965</ele>
        <time>2026-07-12T16:03:30.000Z</time>
      </trkpt>
      <trkpt lat="46.4799" lon="13.86789">
        <ele>717.949968</ele>
        <time>2026-07-12T16:03:36.000Z</time>
      </trkpt>
      <trkpt lat="46.47995" lon="13.8674">
        <ele>717.780582</ele>
        <time>2026-07-12T16:03:42.000Z</time>
      </trkpt>
      <trkpt lat="46.48002" lon="13.86675">
        <ele>717.749994</ele>
        <time>2026-07-12T16:03:50.000Z</time>
      </trkpt>
      <trkpt lat="46.48007" lon="13.86595">
        <ele>717.712891</ele>
        <time>2026-07-12T16:04:00.000Z</time>
      </trkpt>
      <trkpt lat="46.48005" lon="13.86532">
        <ele>717.684011</ele>
        <time>2026-07-12T16:04:08.000Z</time>
      </trkpt>
      <trkpt lat="46.48003" lon="13.86494">
        <ele>717.666149</ele>
        <time>2026-07-12T16:04:13.000Z</time>
      </trkpt>
      <trkpt lat="46.48002" lon="13.86471">
        <ele>717.726837</ele>
        <time>2026-07-12T16:04:16.000Z</time>
      </trkpt>
      <trkpt lat="46.48001" lon="13.86395">
        <ele>717.959123</ele>
        <time>2026-07-12T16:04:26.000Z</time>
      </trkpt>
      <trkpt lat="46.48002" lon="13.86317">
        <ele>718.197164</ele>
        <time>2026-07-12T16:04:36.000Z</time>
      </trkpt>
      <trkpt lat="46.48001" lon="13.86246">
        <ele>718.412324</ele>
        <time>2026-07-12T16:04:45.000Z</time>
      </trkpt>
      <trkpt lat="46.48004" lon="13.86232">
        <ele>718.458595</ele>
        <time>2026-07-12T16:04:47.000Z</time>
      </trkpt>
      <trkpt lat="46.48009" lon="13.8622">
        <ele>718.733859</ele>
        <time>2026-07-12T16:04:49.000Z</time>
      </trkpt>
      <trkpt lat="46.48019" lon="13.86192">
        <ele>719.373538</ele>
        <time>2026-07-12T16:04:53.000Z</time>
      </trkpt>
      <trkpt lat="46.4802" lon="13.86183">
        <ele>719.560218</ele>
        <time>2026-07-12T16:04:54.000Z</time>
      </trkpt>
      <trkpt lat="46.4803" lon="13.86124">
        <ele>720.816805</ele>
        <time>2026-07-12T16:05:02.000Z</time>
      </trkpt>
      <trkpt lat="46.48034" lon="13.86085">
        <ele>721.621141</ele>
        <time>2026-07-12T16:05:07.000Z</time>
      </trkpt>
      <trkpt lat="46.48034" lon="13.86054">
        <ele>722.273669</ele>
        <time>2026-07-12T16:05:11.000Z</time>
      </trkpt>
      <trkpt lat="46.48035" lon="13.8599">
        <ele>723.580939</ele>
        <time>2026-07-12T16:05:19.000Z</time>
      </trkpt>
      <trkpt lat="46.48036" lon="13.85968">
        <ele>723.975117</ele>
        <time>2026-07-12T16:05:22.000Z</time>
      </trkpt>
      <trkpt lat="46.48036" lon="13.85952">
        <ele>724.211878</ele>
        <time>2026-07-12T16:05:24.000Z</time>
      </trkpt>
      <trkpt lat="46.48036" lon="13.85944">
        <ele>724.31948</ele>
        <time>2026-07-12T16:05:25.000Z</time>
      </trkpt>
      <trkpt lat="46.48037" lon="13.8593">
        <ele>724.526421</ele>
        <time>2026-07-12T16:05:27.000Z</time>
      </trkpt>
      <trkpt lat="46.48038" lon="13.859">
        <ele>724.956955</ele>
        <time>2026-07-12T16:05:31.000Z</time>
      </trkpt>
      <trkpt lat="46.4804" lon="13.85823">
        <ele>726.05234</ele>
        <time>2026-07-12T16:05:41.000Z</time>
      </trkpt>
      <trkpt lat="46.48041" lon="13.85785">
        <ele>726.599279</ele>
        <time>2026-07-12T16:05:46.000Z</time>
      </trkpt>
      <trkpt lat="46.48042" lon="13.85739">
        <ele>727.262747</ele>
        <time>2026-07-12T16:05:52.000Z</time>
      </trkpt>
      <trkpt lat="46.48043" lon="13.85686">
        <ele>727.790201</ele>
        <time>2026-07-12T16:05:59.000Z</time>
      </trkpt>
      <trkpt lat="46.48043" lon="13.85657">
        <ele>727.984686</ele>
        <time>2026-07-12T16:06:03.000Z</time>
      </trkpt>
      <trkpt lat="46.48045" lon="13.85644">
        <ele>728.075069</ele>
        <time>2026-07-12T16:06:05.000Z</time>
      </trkpt>
      <trkpt lat="46.48047" lon="13.85607">
        <ele>728.323892</ele>
        <time>2026-07-12T16:06:10.000Z</time>
      </trkpt>
      <trkpt lat="46.48048" lon="13.85598">
        <ele>728.384532</ele>
        <time>2026-07-12T16:06:11.000Z</time>
      </trkpt>
      <trkpt lat="46.4805" lon="13.85534">
        <ele>728.81649</ele>
        <time>2026-07-12T16:06:20.000Z</time>
      </trkpt>
      <trkpt lat="46.48051" lon="13.85528">
        <ele>728.856641</ele>
        <time>2026-07-12T16:06:21.000Z</time>
      </trkpt>
      <trkpt lat="46.48052" lon="13.85513">
        <ele>728.957706</ele>
        <time>2026-07-12T16:06:23.000Z</time>
      </trkpt>
      <trkpt lat="46.48053" lon="13.85504">
        <ele>729.016552</ele>
        <time>2026-07-12T16:06:24.000Z</time>
      </trkpt>
      <trkpt lat="46.48055" lon="13.85467">
        <ele>729.267532</ele>
        <time>2026-07-12T16:06:29.000Z</time>
      </trkpt>
      <trkpt lat="46.48056" lon="13.85453">
        <ele>729.35304</ele>
        <time>2026-07-12T16:06:31.000Z</time>
      </trkpt>
      <trkpt lat="46.48055" lon="13.85387">
        <ele>729.705422</ele>
        <time>2026-07-12T16:06:40.000Z</time>
      </trkpt>
      <trkpt lat="46.48058" lon="13.8531">
        <ele>730.108862</ele>
        <time>2026-07-12T16:06:50.000Z</time>
      </trkpt>
      <trkpt lat="46.4806" lon="13.85272">
        <ele>730.308638</ele>
        <time>2026-07-12T16:06:55.000Z</time>
      </trkpt>
      <trkpt lat="46.4806" lon="13.85265">
        <ele>730.347728</ele>
        <time>2026-07-12T16:06:56.000Z</time>
      </trkpt>
      <trkpt lat="46.48061" lon="13.8519">
        <ele>730.768398</ele>
        <time>2026-07-12T16:07:06.000Z</time>
      </trkpt>
      <trkpt lat="46.48063" lon="13.85131">
        <ele>731.376273</ele>
        <time>2026-07-12T16:07:14.000Z</time>
      </trkpt>
      <trkpt lat="46.48066" lon="13.85064">
        <ele>732.06206</ele>
        <time>2026-07-12T16:07:23.000Z</time>
      </trkpt>
      <trkpt lat="46.48069" lon="13.84997">
        <ele>732.754731</ele>
        <time>2026-07-12T16:07:32.000Z</time>
      </trkpt>
      <trkpt lat="46.4807" lon="13.84989">
        <ele>732.835235</ele>
        <time>2026-07-12T16:07:33.000Z</time>
      </trkpt>
      <trkpt lat="46.48074" lon="13.84958">
        <ele>733.165415</ele>
        <time>2026-07-12T16:07:37.000Z</time>
      </trkpt>
      <trkpt lat="46.48075" lon="13.84951">
        <ele>733.239349</ele>
        <time>2026-07-12T16:07:38.000Z</time>
      </trkpt>
      <trkpt lat="46.48079" lon="13.84931">
        <ele>733.52192</ele>
        <time>2026-07-12T16:07:41.000Z</time>
      </trkpt>
      <trkpt lat="46.48081" lon="13.84917">
        <ele>733.84397</ele>
        <time>2026-07-12T16:07:43.000Z</time>
      </trkpt>
      <trkpt lat="46.48088" lon="13.84882">
        <ele>734.653739</ele>
        <time>2026-07-12T16:07:48.000Z</time>
      </trkpt>
      <trkpt lat="46.48091" lon="13.84868">
        <ele>734.97867</ele>
        <time>2026-07-12T16:07:50.000Z</time>
      </trkpt>
      <trkpt lat="46.48095" lon="13.84856">
        <ele>735.278816</ele>
        <time>2026-07-12T16:07:52.000Z</time>
      </trkpt>
      <trkpt lat="46.481" lon="13.84836">
        <ele>735.768246</ele>
        <time>2026-07-12T16:07:55.000Z</time>
      </trkpt>
      <trkpt lat="46.48103" lon="13.84823">
        <ele>736.078434</ele>
        <time>2026-07-12T16:07:57.000Z</time>
      </trkpt>
      <trkpt lat="46.48113" lon="13.84795">
        <ele>736.774857</ele>
        <time>2026-07-12T16:08:01.000Z</time>
      </trkpt>
      <trkpt lat="46.48117" lon="13.84783">
        <ele>737.082156</ele>
        <time>2026-07-12T16:08:03.000Z</time>
      </trkpt>
      <trkpt lat="46.48122" lon="13.84764">
        <ele>737.537794</ele>
        <time>2026-07-12T16:08:06.000Z</time>
      </trkpt>
      <trkpt lat="46.48126" lon="13.84751">
        <ele>737.847482</ele>
        <time>2026-07-12T16:08:08.000Z</time>
      </trkpt>
      <trkpt lat="46.4813" lon="13.8474">
        <ele>738.146156</ele>
        <time>2026-07-12T16:08:10.000Z</time>
      </trkpt>
      <trkpt lat="46.48133" lon="13.84728">
        <ele>738.424431</ele>
        <time>2026-07-12T16:08:12.000Z</time>
      </trkpt>
      <trkpt lat="46.4814" lon="13.84716">
        <ele>738.774124</ele>
        <time>2026-07-12T16:08:14.000Z</time>
      </trkpt>
      <trkpt lat="46.48142" lon="13.84709">
        <ele>738.941325</ele>
        <time>2026-07-12T16:08:15.000Z</time>
      </trkpt>
      <trkpt lat="46.48154" lon="13.84684">
        <ele>739.431254</ele>
        <time>2026-07-12T16:08:19.000Z</time>
      </trkpt>
      <trkpt lat="46.48176" lon="13.84641">
        <ele>739.968948</ele>
        <time>2026-07-12T16:08:26.000Z</time>
      </trkpt>
      <trkpt lat="46.48187" lon="13.84625">
        <ele>740.204835</ele>
        <time>2026-07-12T16:08:29.000Z</time>
      </trkpt>
      <trkpt lat="46.48195" lon="13.84608">
        <ele>740.416829</ele>
        <time>2026-07-12T16:08:32.000Z</time>
      </trkpt>
      <trkpt lat="46.48199" lon="13.84596">
        <ele>740.550292</ele>
        <time>2026-07-12T16:08:34.000Z</time>
      </trkpt>
      <trkpt lat="46.4821" lon="13.84574">
        <ele>740.828715</ele>
        <time>2026-07-12T16:08:38.000Z</time>
      </trkpt>
      <trkpt lat="46.4823" lon="13.84536">
        <ele>741.318267</ele>
        <time>2026-07-12T16:08:45.000Z</time>
      </trkpt>
      <trkpt lat="46.48254" lon="13.84492">
        <ele>741.889373</ele>
        <time>2026-07-12T16:08:53.000Z</time>
      </trkpt>
      <trkpt lat="46.48271" lon="13.84458">
        <ele>742.02706</ele>
        <time>2026-07-12T16:08:59.000Z</time>
      </trkpt>
      <trkpt lat="46.48275" lon="13.84452">
        <ele>742.046221</ele>
        <time>2026-07-12T16:09:00.000Z</time>
      </trkpt>
      <trkpt lat="46.48292" lon="13.84412">
        <ele>742.16605</ele>
        <time>2026-07-12T16:09:06.000Z</time>
      </trkpt>
      <trkpt lat="46.48295" lon="13.84405">
        <ele>742.186749</ele>
        <time>2026-07-12T16:09:07.000Z</time>
      </trkpt>
      <trkpt lat="46.48311" lon="13.84345">
        <ele>742.348326</ele>
        <time>2026-07-12T16:09:15.000Z</time>
      </trkpt>
      <trkpt lat="46.4832" lon="13.84287">
        <ele>742.49933</ele>
        <time>2026-07-12T16:09:23.000Z</time>
      </trkpt>
      <trkpt lat="46.48322" lon="13.84232">
        <ele>742.884719</ele>
        <time>2026-07-12T16:09:30.000Z</time>
      </trkpt>
      <trkpt lat="46.48322" lon="13.84224">
        <ele>743.012702</ele>
        <time>2026-07-12T16:09:31.000Z</time>
      </trkpt>
      <trkpt lat="46.48317" lon="13.84149">
        <ele>744.17089</ele>
        <time>2026-07-12T16:09:40.000Z</time>
      </trkpt>
      <trkpt lat="46.48309" lon="13.84094">
        <ele>745.0453</ele>
        <time>2026-07-12T16:09:47.000Z</time>
      </trkpt>
      <trkpt lat="46.48301" lon="13.84061">
        <ele>745.583039</ele>
        <time>2026-07-12T16:09:51.000Z</time>
      </trkpt>
      <trkpt lat="46.48296" lon="13.84046">
        <ele>745.829063</ele>
        <time>2026-07-12T16:09:53.000Z</time>
      </trkpt>
      <trkpt lat="46.48278" lon="13.84005">
        <ele>746.58849</ele>
        <time>2026-07-12T16:09:59.000Z</time>
      </trkpt>
      <trkpt lat="46.48271" lon="13.83992">
        <ele>746.687738</ele>
        <time>2026-07-12T16:10:01.000Z</time>
      </trkpt>
      <trkpt lat="46.48263" lon="13.83977">
        <ele>746.775705</ele>
        <time>2026-07-12T16:10:03.000Z</time>
      </trkpt>
      <trkpt lat="46.48259" lon="13.8397">
        <ele>746.821587</ele>
        <time>2026-07-12T16:10:04.000Z</time>
      </trkpt>
      <trkpt lat="46.48248" lon="13.83953">
        <ele>746.934897</ele>
        <time>2026-07-12T16:10:07.000Z</time>
      </trkpt>
      <trkpt lat="46.48242" lon="13.83943">
        <ele>746.998168</ele>
        <time>2026-07-12T16:10:09.000Z</time>
      </trkpt>
      <trkpt lat="46.48234" lon="13.83924">
        <ele>747.106479</ele>
        <time>2026-07-12T16:10:12.000Z</time>
      </trkpt>
      <trkpt lat="46.4821" lon="13.83871">
        <ele>747.412829</ele>
        <time>2026-07-12T16:10:20.000Z</time>
      </trkpt>
      <trkpt lat="46.48202" lon="13.8385">
        <ele>747.533481</ele>
        <time>2026-07-12T16:10:24.000Z</time>
      </trkpt>
      <trkpt lat="46.48201" lon="13.83844">
        <ele>747.563011</ele>
        <time>2026-07-12T16:10:25.000Z</time>
      </trkpt>
      <trkpt lat="46.48199" lon="13.83825">
        <ele>747.65493</ele>
        <time>2026-07-12T16:10:28.000Z</time>
      </trkpt>
      <trkpt lat="46.48196" lon="13.83812">
        <ele>747.7194</ele>
        <time>2026-07-12T16:10:30.000Z</time>
      </trkpt>
      <trkpt lat="46.48193" lon="13.83804">
        <ele>747.766627</ele>
        <time>2026-07-12T16:10:31.000Z</time>
      </trkpt>
      <trkpt lat="46.48189" lon="13.83798">
        <ele>747.80598</ele>
        <time>2026-07-12T16:10:32.000Z</time>
      </trkpt>
      <trkpt lat="46.4818" lon="13.83787">
        <ele>747.890617</ele>
        <time>2026-07-12T16:10:34.000Z</time>
      </trkpt>
      <trkpt lat="46.48176" lon="13.83783">
        <ele>747.98787</ele>
        <time>2026-07-12T16:10:35.000Z</time>
      </trkpt>
      <trkpt lat="46.48173" lon="13.83779">
        <ele>748.072798</ele>
        <time>2026-07-12T16:10:36.000Z</time>
      </trkpt>
      <trkpt lat="46.48166" lon="13.83771">
        <ele>748.236324</ele>
        <time>2026-07-12T16:10:38.000Z</time>
      </trkpt>
      <trkpt lat="46.48164" lon="13.83768">
        <ele>748.298049</ele>
        <time>2026-07-12T16:10:39.000Z</time>
      </trkpt>
      <trkpt lat="46.48154" lon="13.83758">
        <ele>748.529796</ele>
        <time>2026-07-12T16:10:44.000Z</time>
      </trkpt>
      <trkpt lat="46.48148" lon="13.8375">
        <ele>748.678911</ele>
        <time>2026-07-12T16:10:50.000Z</time>
      </trkpt>
      <trkpt lat="46.48144" lon="13.83745">
        <ele>748.79243</ele>
        <time>2026-07-12T16:11:00.000Z</time>
      </trkpt>
      <trkpt lat="46.48141" lon="13.8374">
        <ele>748.888422</ele>
        <time>2026-07-12T16:11:02.000Z</time>
      </trkpt>
      <trkpt lat="46.48126" lon="13.83716">
        <ele>749.305977</ele>
        <time>2026-07-12T16:11:09.000Z</time>
      </trkpt>
      <trkpt lat="46.4811" lon="13.83684">
        <ele>749.829291</ele>
        <time>2026-07-12T16:11:16.000Z</time>
      </trkpt>
      <trkpt lat="46.48094" lon="13.83649">
        <ele>750.394989</ele>
        <time>2026-07-12T16:11:23.000Z</time>
      </trkpt>
      <trkpt lat="46.48087" lon="13.83634">
        <ele>750.633701</ele>
        <time>2026-07-12T16:11:26.000Z</time>
      </trkpt>
      <trkpt lat="46.48081" lon="13.83623">
        <ele>750.81183</ele>
        <time>2026-07-12T16:11:29.000Z</time>
      </trkpt>
      <trkpt lat="46.48076" lon="13.83608">
        <ele>751.037962</ele>
        <time>2026-07-12T16:11:34.000Z</time>
      </trkpt>
      <trkpt lat="46.48069" lon="13.83589">
        <ele>751.319621</ele>
        <time>2026-07-12T16:11:39.000Z</time>
      </trkpt>
      <trkpt lat="46.48063" lon="13.83566">
        <ele>751.598273</ele>
        <time>2026-07-12T16:11:44.000Z</time>
      </trkpt>
      <trkpt lat="46.48056" lon="13.83536">
        <ele>751.943705</ele>
        <time>2026-07-12T16:11:49.000Z</time>
      </trkpt>
      <trkpt lat="46.48046" lon="13.83485">
        <ele>752.532352</ele>
        <time>2026-07-12T16:11:58.000Z</time>
      </trkpt>
      <trkpt lat="46.48043" lon="13.83467">
        <ele>752.739391</ele>
        <time>2026-07-12T16:12:02.000Z</time>
      </trkpt>
      <trkpt lat="46.4804" lon="13.83434">
        <ele>753.11511</ele>
        <time>2026-07-12T16:12:08.000Z</time>
      </trkpt>
      <trkpt lat="46.48036" lon="13.83385">
        <ele>753.666983</ele>
        <time>2026-07-12T16:12:16.000Z</time>
      </trkpt>
      <trkpt lat="46.48035" lon="13.83335">
        <ele>754.223185</ele>
        <time>2026-07-12T16:12:24.000Z</time>
      </trkpt>
      <trkpt lat="46.48035" lon="13.83328">
        <ele>754.313952</ele>
        <time>2026-07-12T16:12:25.000Z</time>
      </trkpt>
      <trkpt lat="46.48038" lon="13.8326">
        <ele>755.344401</ele>
        <time>2026-07-12T16:12:35.000Z</time>
      </trkpt>
      <trkpt lat="46.4804" lon="13.83242">
        <ele>755.617681</ele>
        <time>2026-07-12T16:12:38.000Z</time>
      </trkpt>
      <trkpt lat="46.48043" lon="13.83224">
        <ele>755.893086</ele>
        <time>2026-07-12T16:12:41.000Z</time>
      </trkpt>
      <trkpt lat="46.48049" lon="13.83185">
        <ele>756.501968</ele>
        <time>2026-07-12T16:12:47.000Z</time>
      </trkpt>
      <trkpt lat="46.48051" lon="13.83172">
        <ele>756.709344</ele>
        <time>2026-07-12T16:12:49.000Z</time>
      </trkpt>
      <trkpt lat="46.48053" lon="13.83165">
        <ele>756.81754</ele>
        <time>2026-07-12T16:12:50.000Z</time>
      </trkpt>
      <trkpt lat="46.48057" lon="13.83143">
        <ele>757.168818</ele>
        <time>2026-07-12T16:12:54.000Z</time>
      </trkpt>
      <trkpt lat="46.48066" lon="13.83119">
        <ele>757.578105</ele>
        <time>2026-07-12T16:13:00.000Z</time>
      </trkpt>
      <trkpt lat="46.48067" lon="13.83113">
        <ele>757.668536</ele>
        <time>2026-07-12T16:13:02.000Z</time>
      </trkpt>
      <trkpt lat="46.48068" lon="13.83106">
        <ele>757.77731</ele>
        <time>2026-07-12T16:13:04.000Z</time>
      </trkpt>
      <trkpt lat="46.48069" lon="13.83102">
        <ele>757.833443</ele>
        <time>2026-07-12T16:13:05.000Z</time>
      </trkpt>
      <trkpt lat="46.48074" lon="13.83074">
        <ele>758.257763</ele>
        <time>2026-07-12T16:13:12.000Z</time>
      </trkpt>
      <trkpt lat="46.48075" lon="13.8307">
        <ele>758.320663</ele>
        <time>2026-07-12T16:13:13.000Z</time>
      </trkpt>
      <trkpt lat="46.48082" lon="13.83047">
        <ele>758.618502</ele>
        <time>2026-07-12T16:13:18.000Z</time>
      </trkpt>
      <trkpt lat="46.48101" lon="13.83002">
        <ele>759.261291</ele>
        <time>2026-07-12T16:13:27.000Z</time>
      </trkpt>
      <trkpt lat="46.48115" lon="13.82965">
        <ele>759.774177</ele>
        <time>2026-07-12T16:13:34.000Z</time>
      </trkpt>
      <trkpt lat="46.4813" lon="13.82936">
        <ele>760.210205</ele>
        <time>2026-07-12T16:13:39.000Z</time>
      </trkpt>
      <trkpt lat="46.48139" lon="13.82918">
        <ele>760.481738</ele>
        <time>2026-07-12T16:13:42.000Z</time>
      </trkpt>
      <trkpt lat="46.48145" lon="13.82906">
        <ele>760.660898</ele>
        <time>2026-07-12T16:13:44.000Z</time>
      </trkpt>
      <trkpt lat="46.48148" lon="13.829">
        <ele>760.750926</ele>
        <time>2026-07-12T16:13:45.000Z</time>
      </trkpt>
      <trkpt lat="46.48167" lon="13.82858">
        <ele>761.362373</ele>
        <time>2026-07-12T16:13:52.000Z</time>
      </trkpt>
      <trkpt lat="46.4819" lon="13.82805">
        <ele>761.550885</ele>
        <time>2026-07-12T16:14:01.000Z</time>
      </trkpt>
      <trkpt lat="46.48204" lon="13.82779">
        <ele>761.647892</ele>
        <time>2026-07-12T16:14:06.000Z</time>
      </trkpt>
      <trkpt lat="46.4821" lon="13.82768">
        <ele>761.689628</ele>
        <time>2026-07-12T16:14:08.000Z</time>
      </trkpt>
      <trkpt lat="46.48214" lon="13.82756">
        <ele>761.729197</ele>
        <time>2026-07-12T16:14:10.000Z</time>
      </trkpt>
      <trkpt lat="46.48219" lon="13.82744">
        <ele>761.770505</ele>
        <time>2026-07-12T16:14:12.000Z</time>
      </trkpt>
      <trkpt lat="46.48228" lon="13.82721">
        <ele>761.849828</ele>
        <time>2026-07-12T16:14:16.000Z</time>
      </trkpt>
      <trkpt lat="46.48236" lon="13.82703">
        <ele>761.911077</ele>
        <time>2026-07-12T16:14:19.000Z</time>
      </trkpt>
      <trkpt lat="46.4824" lon="13.82692">
        <ele>761.951882</ele>
        <time>2026-07-12T16:14:21.000Z</time>
      </trkpt>
      <trkpt lat="46.48249" lon="13.82673">
        <ele>762.017283</ele>
        <time>2026-07-12T16:14:24.000Z</time>
      </trkpt>
      <trkpt lat="46.48251" lon="13.82667">
        <ele>762.036846</ele>
        <time>2026-07-12T16:14:25.000Z</time>
      </trkpt>
      <trkpt lat="46.48272" lon="13.82629">
        <ele>762.277353</ele>
        <time>2026-07-12T16:14:32.000Z</time>
      </trkpt>
      <trkpt lat="46.48278" lon="13.82619">
        <ele>762.415205</ele>
        <time>2026-07-12T16:14:34.000Z</time>
      </trkpt>
      <trkpt lat="46.48288" lon="13.82602">
        <ele>762.629444</ele>
        <time>2026-07-12T16:14:37.000Z</time>
      </trkpt>
      <trkpt lat="46.4829" lon="13.82596">
        <ele>762.697244</ele>
        <time>2026-07-12T16:14:38.000Z</time>
      </trkpt>
      <trkpt lat="46.48296" lon="13.82585">
        <ele>762.832742</ele>
        <time>2026-07-12T16:14:40.000Z</time>
      </trkpt>
      <trkpt lat="46.48302" lon="13.82573">
        <ele>762.985497</ele>
        <time>2026-07-12T16:14:42.000Z</time>
      </trkpt>
      <trkpt lat="46.48315" lon="13.82546">
        <ele>763.315211</ele>
        <time>2026-07-12T16:14:47.000Z</time>
      </trkpt>
      <trkpt lat="46.48332" lon="13.82521">
        <ele>763.652653</ele>
        <time>2026-07-12T16:14:51.000Z</time>
      </trkpt>
      <trkpt lat="46.48336" lon="13.82511">
        <ele>763.772637</ele>
        <time>2026-07-12T16:14:53.000Z</time>
      </trkpt>
      <trkpt lat="46.48339" lon="13.82506">
        <ele>763.837993</ele>
        <time>2026-07-12T16:14:54.000Z</time>
      </trkpt>
      <trkpt lat="46.48365" lon="13.82466">
        <ele>764.378431</ele>
        <time>2026-07-12T16:15:02.000Z</time>
      </trkpt>
      <trkpt lat="46.48376" lon="13.8244">
        <ele>764.686179</ele>
        <time>2026-07-12T16:15:07.000Z</time>
      </trkpt>
      <trkpt lat="46.48382" lon="13.8243">
        <ele>764.756916</ele>
        <time>2026-07-12T16:15:09.000Z</time>
      </trkpt>
      <trkpt lat="46.48389" lon="13.8242">
        <ele>764.802846</ele>
        <time>2026-07-12T16:15:11.000Z</time>
      </trkpt>
      <trkpt lat="46.48396" lon="13.8241">
        <ele>764.848128</ele>
        <time>2026-07-12T16:15:13.000Z</time>
      </trkpt>
      <trkpt lat="46.48406" lon="13.82394">
        <ele>764.918072</ele>
        <time>2026-07-12T16:15:16.000Z</time>
      </trkpt>
      <trkpt lat="46.48416" lon="13.82377">
        <ele>764.988734</ele>
        <time>2026-07-12T16:15:19.000Z</time>
      </trkpt>
      <trkpt lat="46.48424" lon="13.8236">
        <ele>765.052579</ele>
        <time>2026-07-12T16:15:22.000Z</time>
      </trkpt>
      <trkpt lat="46.48427" lon="13.82355">
        <ele>765.075846</ele>
        <time>2026-07-12T16:15:23.000Z</time>
      </trkpt>
      <trkpt lat="46.48437" lon="13.82331">
        <ele>765.162719</ele>
        <time>2026-07-12T16:15:27.000Z</time>
      </trkpt>
      <trkpt lat="46.48455" lon="13.82269">
        <ele>765.378155</ele>
        <time>2026-07-12T16:15:36.000Z</time>
      </trkpt>
      <trkpt lat="46.48459" lon="13.82223">
        <ele>765.525228</ele>
        <time>2026-07-12T16:15:42.000Z</time>
      </trkpt>
      <trkpt lat="46.48459" lon="13.82216">
        <ele>765.548511</ele>
        <time>2026-07-12T16:15:43.000Z</time>
      </trkpt>
      <trkpt lat="46.48457" lon="13.82178">
        <ele>765.867838</ele>
        <time>2026-07-12T16:15:48.000Z</time>
      </trkpt>
      <trkpt lat="46.48458" lon="13.82171">
        <ele>765.93676</ele>
        <time>2026-07-12T16:15:49.000Z</time>
      </trkpt>
      <trkpt lat="46.48465" lon="13.8211">
        <ele>766.492493</ele>
        <time>2026-07-12T16:15:57.000Z</time>
      </trkpt>
      <trkpt lat="46.48474" lon="13.82069">
        <ele>766.879779</ele>
        <time>2026-07-12T16:16:03.000Z</time>
      </trkpt>
      <trkpt lat="46.48476" lon="13.82063">
        <ele>766.940697</ele>
        <time>2026-07-12T16:16:04.000Z</time>
      </trkpt>
      <trkpt lat="46.48481" lon="13.82043">
        <ele>767.133998</ele>
        <time>2026-07-12T16:16:07.000Z</time>
      </trkpt>
      <trkpt lat="46.48488" lon="13.82023">
        <ele>767.337812</ele>
        <time>2026-07-12T16:16:10.000Z</time>
      </trkpt>
      <trkpt lat="46.48489" lon="13.82016">
        <ele>767.405917</ele>
        <time>2026-07-12T16:16:11.000Z</time>
      </trkpt>
      <trkpt lat="46.48493" lon="13.82002">
        <ele>767.543376</ele>
        <time>2026-07-12T16:16:13.000Z</time>
      </trkpt>
      <trkpt lat="46.48502" lon="13.81985">
        <ele>767.733635</ele>
        <time>2026-07-12T16:16:16.000Z</time>
      </trkpt>
      <trkpt lat="46.48504" lon="13.81978">
        <ele>767.80159</ele>
        <time>2026-07-12T16:16:17.000Z</time>
      </trkpt>
      <trkpt lat="46.48515" lon="13.81944">
        <ele>767.960769</ele>
        <time>2026-07-12T16:16:22.000Z</time>
      </trkpt>
      <trkpt lat="46.48517" lon="13.81938">
        <ele>767.970608</ele>
        <time>2026-07-12T16:16:23.000Z</time>
      </trkpt>
      <trkpt lat="46.48518" lon="13.81933">
        <ele>767.977667</ele>
        <time>2026-07-12T16:16:24.000Z</time>
      </trkpt>
      <trkpt lat="46.4852" lon="13.81914">
        <ele>768.006463</ele>
        <time>2026-07-12T16:16:27.000Z</time>
      </trkpt>
      <trkpt lat="46.48522" lon="13.81906">
        <ele>768.01874</ele>
        <time>2026-07-12T16:16:28.000Z</time>
      </trkpt>
      <trkpt lat="46.48526" lon="13.81893">
        <ele>768.038461</ele>
        <time>2026-07-12T16:16:30.000Z</time>
      </trkpt>
      <trkpt lat="46.48531" lon="13.81874">
        <ele>768.067604</ele>
        <time>2026-07-12T16:16:33.000Z</time>
      </trkpt>
      <trkpt lat="46.48533" lon="13.81869">
        <ele>768.076564</ele>
        <time>2026-07-12T16:16:34.000Z</time>
      </trkpt>
      <trkpt lat="46.48537" lon="13.81857">
        <ele>768.095338</ele>
        <time>2026-07-12T16:16:36.000Z</time>
      </trkpt>
      <trkpt lat="46.4854" lon="13.81846">
        <ele>768.113303</ele>
        <time>2026-07-12T16:16:38.000Z</time>
      </trkpt>
      <trkpt lat="46.48541" lon="13.81838">
        <ele>768.124548</ele>
        <time>2026-07-12T16:16:39.000Z</time>
      </trkpt>
      <trkpt lat="46.48547" lon="13.81821">
        <ele>768.151516</ele>
        <time>2026-07-12T16:16:42.000Z</time>
      </trkpt>
      <trkpt lat="46.48549" lon="13.81816">
        <ele>768.160888</ele>
        <time>2026-07-12T16:16:43.000Z</time>
      </trkpt>
      <trkpt lat="46.48551" lon="13.81809">
        <ele>768.170643</ele>
        <time>2026-07-12T16:16:44.000Z</time>
      </trkpt>
      <trkpt lat="46.4856" lon="13.81776">
        <ele>768.222418</ele>
        <time>2026-07-12T16:16:49.000Z</time>
      </trkpt>
      <trkpt lat="46.48574" lon="13.81726">
        <ele>768.301477</ele>
        <time>2026-07-12T16:16:57.000Z</time>
      </trkpt>
      <trkpt lat="46.48577" lon="13.81707">
        <ele>768.486479</ele>
        <time>2026-07-12T16:17:00.000Z</time>
      </trkpt>
      <trkpt lat="46.4858" lon="13.81694">
        <ele>768.628366</ele>
        <time>2026-07-12T16:17:02.000Z</time>
      </trkpt>
      <trkpt lat="46.48581" lon="13.81688">
        <ele>768.700829</ele>
        <time>2026-07-12T16:17:03.000Z</time>
      </trkpt>
      <trkpt lat="46.48587" lon="13.81669">
        <ele>768.919783</ele>
        <time>2026-07-12T16:17:06.000Z</time>
      </trkpt>
      <trkpt lat="46.48589" lon="13.81657">
        <ele>769.055068</ele>
        <time>2026-07-12T16:17:08.000Z</time>
      </trkpt>
      <trkpt lat="46.48592" lon="13.81644">
        <ele>769.201905</ele>
        <time>2026-07-12T16:17:10.000Z</time>
      </trkpt>
      <trkpt lat="46.48597" lon="13.81626">
        <ele>769.408768</ele>
        <time>2026-07-12T16:17:13.000Z</time>
      </trkpt>
      <trkpt lat="46.48599" lon="13.8162">
        <ele>769.47307</ele>
        <time>2026-07-12T16:17:14.000Z</time>
      </trkpt>
      <trkpt lat="46.48607" lon="13.81592">
        <ele>769.800887</ele>
        <time>2026-07-12T16:17:18.000Z</time>
      </trkpt>
      <trkpt lat="46.48609" lon="13.81586">
        <ele>769.87845</ele>
        <time>2026-07-12T16:17:19.000Z</time>
      </trkpt>
      <trkpt lat="46.4862" lon="13.81553">
        <ele>770.275743</ele>
        <time>2026-07-12T16:17:24.000Z</time>
      </trkpt>
      <trkpt lat="46.48623" lon="13.81544">
        <ele>770.369987</ele>
        <time>2026-07-12T16:17:25.000Z</time>
      </trkpt>
      <trkpt lat="46.48631" lon="13.81516">
        <ele>770.698042</ele>
        <time>2026-07-12T16:17:29.000Z</time>
      </trkpt>
      <trkpt lat="46.48633" lon="13.81504">
        <ele>770.83603</ele>
        <time>2026-07-12T16:17:31.000Z</time>
      </trkpt>
      <trkpt lat="46.48641" lon="13.81484">
        <ele>771.084384</ele>
        <time>2026-07-12T16:17:34.000Z</time>
      </trkpt>
      <trkpt lat="46.48647" lon="13.8144">
        <ele>772.296253</ele>
        <time>2026-07-12T16:17:40.000Z</time>
      </trkpt>
      <trkpt lat="46.48651" lon="13.81408">
        <ele>773.201403</ele>
        <time>2026-07-12T16:17:45.000Z</time>
      </trkpt>
      <trkpt lat="46.48652" lon="13.81393">
        <ele>773.634568</ele>
        <time>2026-07-12T16:17:47.000Z</time>
      </trkpt>
      <trkpt lat="46.48654" lon="13.81351">
        <ele>774.810719</ele>
        <time>2026-07-12T16:17:53.000Z</time>
      </trkpt>
      <trkpt lat="46.48654" lon="13.81344">
        <ele>775.011874</ele>
        <time>2026-07-12T16:17:54.000Z</time>
      </trkpt>
      <trkpt lat="46.48653" lon="13.81331">
        <ele>775.373099</ele>
        <time>2026-07-12T16:17:56.000Z</time>
      </trkpt>
      <trkpt lat="46.48653" lon="13.81295">
        <ele>776.372472</ele>
        <time>2026-07-12T16:18:01.000Z</time>
      </trkpt>
      <trkpt lat="46.4865" lon="13.8124">
        <ele>777.896605</ele>
        <time>2026-07-12T16:18:09.000Z</time>
      </trkpt>
      <trkpt lat="46.48648" lon="13.81207">
        <ele>778.60238</ele>
        <time>2026-07-12T16:18:14.000Z</time>
      </trkpt>
      <trkpt lat="46.48646" lon="13.81194">
        <ele>778.769382</ele>
        <time>2026-07-12T16:18:16.000Z</time>
      </trkpt>
      <trkpt lat="46.48644" lon="13.81162">
        <ele>779.176615</ele>
        <time>2026-07-12T16:18:21.000Z</time>
      </trkpt>
      <trkpt lat="46.48641" lon="13.81141">
        <ele>779.452128</ele>
        <time>2026-07-12T16:18:24.000Z</time>
      </trkpt>
      <trkpt lat="46.48633" lon="13.81079">
        <ele>780.256362</ele>
        <time>2026-07-12T16:18:33.000Z</time>
      </trkpt>
      <trkpt lat="46.48624" lon="13.8101">
        <ele>781.163832</ele>
        <time>2026-07-12T16:18:43.000Z</time>
      </trkpt>
      <trkpt lat="46.48623" lon="13.81003">
        <ele>781.251273</ele>
        <time>2026-07-12T16:18:44.000Z</time>
      </trkpt>
      <trkpt lat="46.48617" lon="13.8097">
        <ele>781.690484</ele>
        <time>2026-07-12T16:18:49.000Z</time>
      </trkpt>
      <trkpt lat="46.48616" lon="13.80949">
        <ele>781.981931</ele>
        <time>2026-07-12T16:18:52.000Z</time>
      </trkpt>
      <trkpt lat="46.48615" lon="13.80927">
        <ele>782.28463</ele>
        <time>2026-07-12T16:18:55.000Z</time>
      </trkpt>
      <trkpt lat="46.48615" lon="13.80921">
        <ele>782.372944</ele>
        <time>2026-07-12T16:18:56.000Z</time>
      </trkpt>
      <trkpt lat="46.48612" lon="13.80893">
        <ele>782.771581</ele>
        <time>2026-07-12T16:19:00.000Z</time>
      </trkpt>
      <trkpt lat="46.4861" lon="13.80865">
        <ele>783.175278</ele>
        <time>2026-07-12T16:19:04.000Z</time>
      </trkpt>
      <trkpt lat="46.48609" lon="13.80851">
        <ele>783.36457</ele>
        <time>2026-07-12T16:19:06.000Z</time>
      </trkpt>
      <trkpt lat="46.48609" lon="13.8079">
        <ele>784.232066</ele>
        <time>2026-07-12T16:19:15.000Z</time>
      </trkpt>
      <trkpt lat="46.48613" lon="13.80734">
        <ele>785.018238</ele>
        <time>2026-07-12T16:19:23.000Z</time>
      </trkpt>
      <trkpt lat="46.48621" lon="13.80679">
        <ele>785.708625</ele>
        <time>2026-07-12T16:19:31.000Z</time>
      </trkpt>
      <trkpt lat="46.48629" lon="13.80617">
        <ele>786.348645</ele>
        <time>2026-07-12T16:19:40.000Z</time>
      </trkpt>
      <trkpt lat="46.48637" lon="13.80564">
        <ele>786.906329</ele>
        <time>2026-07-12T16:19:48.000Z</time>
      </trkpt>
      <trkpt lat="46.48644" lon="13.80502">
        <ele>787.544077</ele>
        <time>2026-07-12T16:19:57.000Z</time>
      </trkpt>
      <trkpt lat="46.48652" lon="13.80431">
        <ele>788.268794</ele>
        <time>2026-07-12T16:20:07.000Z</time>
      </trkpt>
      <trkpt lat="46.48655" lon="13.80396">
        <ele>788.615286</ele>
        <time>2026-07-12T16:20:12.000Z</time>
      </trkpt>
      <trkpt lat="46.48656" lon="13.80383">
        <ele>788.744121</ele>
        <time>2026-07-12T16:20:14.000Z</time>
      </trkpt>
      <trkpt lat="46.48657" lon="13.80333">
        <ele>789.234426</ele>
        <time>2026-07-12T16:20:21.000Z</time>
      </trkpt>
      <trkpt lat="46.48656" lon="13.80325">
        <ele>789.305015</ele>
        <time>2026-07-12T16:20:22.000Z</time>
      </trkpt>
      <trkpt lat="46.48651" lon="13.80262">
        <ele>789.931694</ele>
        <time>2026-07-12T16:20:31.000Z</time>
      </trkpt>
      <trkpt lat="46.48648" lon="13.80225">
        <ele>790.293368</ele>
        <time>2026-07-12T16:20:37.000Z</time>
      </trkpt>
      <trkpt lat="46.48646" lon="13.80202">
        <ele>790.521209</ele>
        <time>2026-07-12T16:20:41.000Z</time>
      </trkpt>
      <trkpt lat="46.48644" lon="13.80189">
        <ele>790.653524</ele>
        <time>2026-07-12T16:20:43.000Z</time>
      </trkpt>
      <trkpt lat="46.48644" lon="13.80183">
        <ele>790.701131</ele>
        <time>2026-07-12T16:20:44.000Z</time>
      </trkpt>
      <trkpt lat="46.48645" lon="13.80169">
        <ele>790.832866</ele>
        <time>2026-07-12T16:20:46.000Z</time>
      </trkpt>
      <trkpt lat="46.48645" lon="13.80154">
        <ele>790.973124</ele>
        <time>2026-07-12T16:20:48.000Z</time>
      </trkpt>
      <trkpt lat="46.48646" lon="13.80147">
        <ele>791.038146</ele>
        <time>2026-07-12T16:20:49.000Z</time>
      </trkpt>
      <trkpt lat="46.48646" lon="13.80132">
        <ele>791.172517</ele>
        <time>2026-07-12T16:20:51.000Z</time>
      </trkpt>
      <trkpt lat="46.48645" lon="13.80119">
        <ele>791.291037</ele>
        <time>2026-07-12T16:20:53.000Z</time>
      </trkpt>
      <trkpt lat="46.48643" lon="13.80101">
        <ele>791.462426</ele>
        <time>2026-07-12T16:20:56.000Z</time>
      </trkpt>
      <trkpt lat="46.48639" lon="13.80092">
        <ele>791.556556</ele>
        <time>2026-07-12T16:20:58.000Z</time>
      </trkpt>
      <trkpt lat="46.48633" lon="13.80086">
        <ele>791.658624</ele>
        <time>2026-07-12T16:21:00.000Z</time>
      </trkpt>
      <trkpt lat="46.48625" lon="13.8008">
        <ele>791.768376</ele>
        <time>2026-07-12T16:21:02.000Z</time>
      </trkpt>
      <trkpt lat="46.48616" lon="13.80059">
        <ele>791.993007</ele>
        <time>2026-07-12T16:21:06.000Z</time>
      </trkpt>
      <trkpt lat="46.48605" lon="13.80006">
        <ele>792.495806</ele>
        <time>2026-07-12T16:21:14.000Z</time>
      </trkpt>
      <trkpt lat="46.48597" lon="13.79975">
        <ele>792.803638</ele>
        <time>2026-07-12T16:21:19.000Z</time>
      </trkpt>
      <trkpt lat="46.48594" lon="13.79963">
        <ele>792.915325</ele>
        <time>2026-07-12T16:21:21.000Z</time>
      </trkpt>
      <trkpt lat="46.48592" lon="13.79956">
        <ele>792.988376</ele>
        <time>2026-07-12T16:21:22.000Z</time>
      </trkpt>
      <trkpt lat="46.4858" lon="13.79914">
        <ele>793.060203</ele>
        <time>2026-07-12T16:21:29.000Z</time>
      </trkpt>
      <trkpt lat="46.48579" lon="13.79909">
        <ele>793.064485</ele>
        <time>2026-07-12T16:21:30.000Z</time>
      </trkpt>
      <trkpt lat="46.48578" lon="13.79902">
        <ele>793.069343</ele>
        <time>2026-07-12T16:21:31.000Z</time>
      </trkpt>
      <trkpt lat="46.48572" lon="13.79883">
        <ele>793.084749</ele>
        <time>2026-07-12T16:21:34.000Z</time>
      </trkpt>
      <trkpt lat="46.48571" lon="13.79876">
        <ele>793.089547</ele>
        <time>2026-07-12T16:21:35.000Z</time>
      </trkpt>
      <trkpt lat="46.48559" lon="13.79834">
        <ele>793.122402</ele>
        <time>2026-07-12T16:21:42.000Z</time>
      </trkpt>
      <trkpt lat="46.48547" lon="13.7979">
        <ele>793.156464</ele>
        <time>2026-07-12T16:21:49.000Z</time>
      </trkpt>
      <trkpt lat="46.48547" lon="13.79784">
        <ele>793.161241</ele>
        <time>2026-07-12T16:21:50.000Z</time>
      </trkpt>
      <trkpt lat="46.48544" lon="13.79763">
        <ele>793.176818</ele>
        <time>2026-07-12T16:21:53.000Z</time>
      </trkpt>
      <trkpt lat="46.48542" lon="13.79749">
        <ele>793.18705</ele>
        <time>2026-07-12T16:21:55.000Z</time>
      </trkpt>
      <trkpt lat="46.4854" lon="13.7973">
        <ele>793.201082</ele>
        <time>2026-07-12T16:21:58.000Z</time>
      </trkpt>
      <trkpt lat="46.4854" lon="13.79718">
        <ele>793.209401</ele>
        <time>2026-07-12T16:22:00.000Z</time>
      </trkpt>
      <trkpt lat="46.48538" lon="13.79692">
        <ele>793.465718</ele>
        <time>2026-07-12T16:22:05.000Z</time>
      </trkpt>
      <trkpt lat="46.48537" lon="13.79672">
        <ele>793.876789</ele>
        <time>2026-07-12T16:22:08.000Z</time>
      </trkpt>
      <trkpt lat="46.48538" lon="13.79653">
        <ele>794.292825</ele>
        <time>2026-07-12T16:22:11.000Z</time>
      </trkpt>
      <trkpt lat="46.48545" lon="13.79592">
        <ele>795.60744</ele>
        <time>2026-07-12T16:22:20.000Z</time>
      </trkpt>
      <trkpt lat="46.48548" lon="13.79572">
        <ele>796.033737</ele>
        <time>2026-07-12T16:22:23.000Z</time>
      </trkpt>
      <trkpt lat="46.48549" lon="13.79559">
        <ele>796.314157</ele>
        <time>2026-07-12T16:22:25.000Z</time>
      </trkpt>
      <trkpt lat="46.48549" lon="13.79553">
        <ele>796.45208</ele>
        <time>2026-07-12T16:22:26.000Z</time>
      </trkpt>
      <trkpt lat="46.48547" lon="13.79533">
        <ele>796.878385</ele>
        <time>2026-07-12T16:22:29.000Z</time>
      </trkpt>
      <trkpt lat="46.48543" lon="13.79522">
        <ele>797.137897</ele>
        <time>2026-07-12T16:22:31.000Z</time>
      </trkpt>
      <trkpt lat="46.48541" lon="13.79516">
        <ele>797.278687</ele>
        <time>2026-07-12T16:22:32.000Z</time>
      </trkpt>
      <trkpt lat="46.48524" lon="13.79473">
        <ele>798.321838</ele>
        <time>2026-07-12T16:22:39.000Z</time>
      </trkpt>
      <trkpt lat="46.4852" lon="13.79462">
        <ele>798.601685</ele>
        <time>2026-07-12T16:22:41.000Z</time>
      </trkpt>
      <trkpt lat="46.48512" lon="13.79445">
        <ele>798.971483</ele>
        <time>2026-07-12T16:22:44.000Z</time>
      </trkpt>
      <trkpt lat="46.48504" lon="13.79421">
        <ele>799.396558</ele>
        <time>2026-07-12T16:22:48.000Z</time>
      </trkpt>
      <trkpt lat="46.48488" lon="13.79368">
        <ele>800.322258</ele>
        <time>2026-07-12T16:22:56.000Z</time>
      </trkpt>
      <trkpt lat="46.48488" lon="13.79354">
        <ele>800.554101</ele>
        <time>2026-07-12T16:22:58.000Z</time>
      </trkpt>
      <trkpt lat="46.48488" lon="13.79324">
        <ele>801.03263</ele>
        <time>2026-07-12T16:23:02.000Z</time>
      </trkpt>
      <trkpt lat="46.4849" lon="13.79273">
        <ele>801.854743</ele>
        <time>2026-07-12T16:23:09.000Z</time>
      </trkpt>
      <trkpt lat="46.48491" lon="13.79218">
        <ele>802.756813</ele>
        <time>2026-07-12T16:23:17.000Z</time>
      </trkpt>
      <trkpt lat="46.48497" lon="13.79155">
        <ele>803.39234</ele>
        <time>2026-07-12T16:23:26.000Z</time>
      </trkpt>
      <trkpt lat="46.48499" lon="13.79141">
        <ele>803.515147</ele>
        <time>2026-07-12T16:23:28.000Z</time>
      </trkpt>
      <trkpt lat="46.48503" lon="13.79128">
        <ele>803.634791</ele>
        <time>2026-07-12T16:23:30.000Z</time>
      </trkpt>
      <trkpt lat="46.48509" lon="13.79116">
        <ele>803.75849</ele>
        <time>2026-07-12T16:23:32.000Z</time>
      </trkpt>
      <trkpt lat="46.48537" lon="13.79073">
        <ele>804.266445</ele>
        <time>2026-07-12T16:23:40.000Z</time>
      </trkpt>
      <trkpt lat="46.48561" lon="13.7904">
        <ele>804.666719</ele>
        <time>2026-07-12T16:23:47.000Z</time>
      </trkpt>
      <trkpt lat="46.48586" lon="13.79005">
        <ele>805.087528</ele>
        <time>2026-07-12T16:23:55.000Z</time>
      </trkpt>
      <trkpt lat="46.48594" lon="13.7899">
        <ele>805.360304</ele>
        <time>2026-07-12T16:24:00.000Z</time>
      </trkpt>
      <trkpt lat="46.48599" lon="13.78972">
        <ele>805.747075</ele>
        <time>2026-07-12T16:24:06.000Z</time>
      </trkpt>
      <trkpt lat="46.48593" lon="13.78946">
        <ele>806.30188</ele>
        <time>2026-07-12T16:24:11.000Z</time>
      </trkpt>
      <trkpt lat="46.48588" lon="13.78908">
        <ele>807.117006</ele>
        <time>2026-07-12T16:24:18.000Z</time>
      </trkpt>
      <trkpt lat="46.48583" lon="13.7888">
        <ele>807.7174</ele>
        <time>2026-07-12T16:24:24.000Z</time>
      </trkpt>
      <trkpt lat="46.48577" lon="13.78857">
        <ele>808.212422</ele>
        <time>2026-07-12T16:24:29.000Z</time>
      </trkpt>
      <trkpt lat="46.4857" lon="13.78829">
        <ele>808.840472</ele>
        <time>2026-07-12T16:24:35.000Z</time>
      </trkpt>
      <trkpt lat="46.48561" lon="13.78807">
        <ele>809.356915</ele>
        <time>2026-07-12T16:24:40.000Z</time>
      </trkpt>
      <trkpt lat="46.4856" lon="13.78803">
        <ele>809.454187</ele>
        <time>2026-07-12T16:24:41.000Z</time>
      </trkpt>
      <trkpt lat="46.48551" lon="13.78765">
        <ele>810.280268</ele>
        <time>2026-07-12T16:24:49.000Z</time>
      </trkpt>
      <trkpt lat="46.48538" lon="13.78742">
        <ele>811.008421</ele>
        <time>2026-07-12T16:24:55.000Z</time>
      </trkpt>
      <trkpt lat="46.48528" lon="13.78722">
        <ele>811.716013</ele>
        <time>2026-07-12T16:25:00.000Z</time>
      </trkpt>
      <trkpt lat="46.48516" lon="13.78695">
        <ele>812.621547</ele>
        <time>2026-07-12T16:25:06.000Z</time>
      </trkpt>
      <trkpt lat="46.48507" lon="13.78669">
        <ele>813.457004</ele>
        <time>2026-07-12T16:25:11.000Z</time>
      </trkpt>
      <trkpt lat="46.48498" lon="13.78645">
        <ele>814.2511</ele>
        <time>2026-07-12T16:25:16.000Z</time>
      </trkpt>
      <trkpt lat="46.48489" lon="13.78628">
        <ele>814.855841</ele>
        <time>2026-07-12T16:25:21.000Z</time>
      </trkpt>
      <trkpt lat="46.48478" lon="13.78609">
        <ele>815.570742</ele>
        <time>2026-07-12T16:25:28.000Z</time>
      </trkpt>
      <trkpt lat="46.48471" lon="13.78592">
        <ele>816.148385</ele>
        <time>2026-07-12T16:25:35.000Z</time>
      </trkpt>
      <trkpt lat="46.48464" lon="13.78577">
        <ele>816.674106</ele>
        <time>2026-07-12T16:25:41.000Z</time>
      </trkpt>
      <trkpt lat="46.48464" lon="13.78575">
        <ele>816.752326</ele>
        <time>2026-07-12T16:25:42.000Z</time>
      </trkpt>
      <trkpt lat="46.48465" lon="13.7857">
        <ele>816.889776</ele>
        <time>2026-07-12T16:25:45.000Z</time>
      </trkpt>
      <trkpt lat="46.48463" lon="13.78569">
        <ele>816.959627</ele>
        <time>2026-07-12T16:25:46.000Z</time>
      </trkpt>
      <trkpt lat="46.48462" lon="13.78569">
        <ele>817.022046</ele>
        <time>2026-07-12T16:25:47.000Z</time>
      </trkpt>
      <trkpt lat="46.48455" lon="13.78568">
        <ele>817.300793</ele>
        <time>2026-07-12T16:25:51.000Z</time>
      </trkpt>
      <trkpt lat="46.48454" lon="13.78567">
        <ele>817.369812</ele>
        <time>2026-07-12T16:25:52.000Z</time>
      </trkpt>
      <trkpt lat="46.48452" lon="13.78566">
        <ele>817.450638</ele>
        <time>2026-07-12T16:25:55.000Z</time>
      </trkpt>
      <trkpt lat="46.48452" lon="13.78566">
        <ele>817.456362</ele>
        <time>2026-07-12T16:25:57.000Z</time>
      </trkpt>
      <trkpt lat="46.48437" lon="13.78534">
        <ele>817.809238</ele>
        <time>2026-07-12T16:26:22.000Z</time>
      </trkpt>
      <trkpt lat="46.48435" lon="13.78533">
        <ele>817.775793</ele>
        <time>2026-07-12T16:26:23.000Z</time>
      </trkpt>
      <trkpt lat="46.4843" lon="13.78514">
        <ele>817.495315</ele>
        <time>2026-07-12T16:26:32.000Z</time>
      </trkpt>
      <trkpt lat="46.48424" lon="13.785">
        <ele>817.268537</ele>
        <time>2026-07-12T16:26:40.000Z</time>
      </trkpt>
      <trkpt lat="46.48421" lon="13.78491">
        <ele>817.132342</ele>
        <time>2026-07-12T16:26:45.000Z</time>
      </trkpt>
      <trkpt lat="46.48421" lon="13.78489">
        <ele>817.09851</ele>
        <time>2026-07-12T16:26:46.000Z</time>
      </trkpt>
      <trkpt lat="46.48421" lon="13.78485">
        <ele>817.047034</ele>
        <time>2026-07-12T16:26:48.000Z</time>
      </trkpt>
      <trkpt lat="46.48418" lon="13.78464">
        <ele>816.743722</ele>
        <time>2026-07-12T16:26:57.000Z</time>
      </trkpt>
      <trkpt lat="46.48421" lon="13.78447">
        <ele>816.501146</ele>
        <time>2026-07-12T16:27:05.000Z</time>
      </trkpt>
      <trkpt lat="46.48427" lon="13.78426">
        <ele>816.193407</ele>
        <time>2026-07-12T16:27:15.000Z</time>
      </trkpt>
      <trkpt lat="46.48428" lon="13.78412">
        <ele>815.990417</ele>
        <time>2026-07-12T16:27:22.000Z</time>
      </trkpt>
      <trkpt lat="46.48429" lon="13.78408">
        <ele>815.93948</ele>
        <time>2026-07-12T16:27:24.000Z</time>
      </trkpt>
      <trkpt lat="46.48432" lon="13.78397">
        <ele>815.77141</ele>
        <time>2026-07-12T16:27:30.000Z</time>
      </trkpt>
      <trkpt lat="46.48434" lon="13.78388">
        <ele>815.644643</ele>
        <time>2026-07-12T16:27:35.000Z</time>
      </trkpt>
      <trkpt lat="46.48436" lon="13.78378">
        <ele>815.498624</ele>
        <time>2026-07-12T16:27:40.000Z</time>
      </trkpt>
      <trkpt lat="46.4844" lon="13.78361">
        <ele>815.24355</ele>
        <time>2026-07-12T16:27:50.000Z</time>
      </trkpt>
      <trkpt lat="46.48441" lon="13.78355">
        <ele>815.159457</ele>
        <time>2026-07-12T16:27:54.000Z</time>
      </trkpt>
      <trkpt lat="46.48442" lon="13.78352">
        <ele>815.120107</ele>
        <time>2026-07-12T16:27:57.000Z</time>
      </trkpt>
      <trkpt lat="46.48442" lon="13.78352">
        <ele>815.113251</ele>
        <time>2026-07-12T16:27:58.000Z</time>
      </trkpt>
      <trkpt lat="46.48446" lon="13.78346">
        <ele>815.00699</ele>
        <time>2026-07-12T16:28:05.000Z</time>
      </trkpt>
      <trkpt lat="46.4845" lon="13.78337">
        <ele>814.850405</ele>
        <time>2026-07-12T16:28:08.000Z</time>
      </trkpt>
      <trkpt lat="46.48458" lon="13.78309">
        <ele>814.426422</ele>
        <time>2026-07-12T16:28:15.000Z</time>
      </trkpt>
      <trkpt lat="46.48467" lon="13.78283">
        <ele>814.072721</ele>
        <time>2026-07-12T16:28:20.000Z</time>
      </trkpt>
      <trkpt lat="46.48469" lon="13.78278">
        <ele>813.998279</ele>
        <time>2026-07-12T16:28:21.000Z</time>
      </trkpt>
      <trkpt lat="46.48475" lon="13.78254">
        <ele>813.683199</ele>
        <time>2026-07-12T16:28:25.000Z</time>
      </trkpt>
      <trkpt lat="46.48477" lon="13.78241">
        <ele>813.513074</ele>
        <time>2026-07-12T16:28:27.000Z</time>
      </trkpt>
      <trkpt lat="46.48479" lon="13.7823">
        <ele>813.368018</ele>
        <time>2026-07-12T16:28:29.000Z</time>
      </trkpt>
      <trkpt lat="46.4848" lon="13.78215">
        <ele>813.184696</ele>
        <time>2026-07-12T16:28:31.000Z</time>
      </trkpt>
      <trkpt lat="46.48481" lon="13.78195">
        <ele>812.928947</ele>
        <time>2026-07-12T16:28:34.000Z</time>
      </trkpt>
      <trkpt lat="46.48482" lon="13.78144">
        <ele>812.295211</ele>
        <time>2026-07-12T16:28:41.000Z</time>
      </trkpt>
      <trkpt lat="46.48482" lon="13.78137">
        <ele>812.207468</ele>
        <time>2026-07-12T16:28:42.000Z</time>
      </trkpt>
      <trkpt lat="46.48483" lon="13.78114">
        <ele>811.919371</ele>
        <time>2026-07-12T16:28:46.000Z</time>
      </trkpt>
      <trkpt lat="46.48484" lon="13.78063">
        <ele>811.281435</ele>
        <time>2026-07-12T16:28:53.000Z</time>
      </trkpt>
      <trkpt lat="46.48486" lon="13.78047">
        <ele>811.094682</ele>
        <time>2026-07-12T16:28:55.000Z</time>
      </trkpt>
      <trkpt lat="46.48492" lon="13.78027">
        <ele>810.838477</ele>
        <time>2026-07-12T16:28:58.000Z</time>
      </trkpt>
      <trkpt lat="46.48508" lon="13.77987">
        <ele>810.308847</ele>
        <time>2026-07-12T16:29:04.000Z</time>
      </trkpt>
      <trkpt lat="46.48511" lon="13.77981">
        <ele>810.214512</ele>
        <time>2026-07-12T16:29:05.000Z</time>
      </trkpt>
      <trkpt lat="46.48529" lon="13.77936">
        <ele>809.623764</ele>
        <time>2026-07-12T16:29:12.000Z</time>
      </trkpt>
      <trkpt lat="46.48551" lon="13.77883">
        <ele>808.900058</ele>
        <time>2026-07-12T16:29:20.000Z</time>
      </trkpt>
      <trkpt lat="46.48558" lon="13.77871">
        <ele>808.716061</ele>
        <time>2026-07-12T16:29:22.000Z</time>
      </trkpt>
      <trkpt lat="46.48564" lon="13.77855">
        <ele>808.508677</ele>
        <time>2026-07-12T16:29:24.000Z</time>
      </trkpt>
      <trkpt lat="46.4858" lon="13.77819">
        <ele>808.442513</ele>
        <time>2026-07-12T16:29:30.000Z</time>
      </trkpt>
      <trkpt lat="46.48594" lon="13.7779">
        <ele>809.302403</ele>
        <time>2026-07-12T16:29:35.000Z</time>
      </trkpt>
      <trkpt lat="46.48601" lon="13.77778">
        <ele>809.689777</ele>
        <time>2026-07-12T16:29:37.000Z</time>
      </trkpt>
      <trkpt lat="46.48605" lon="13.77772">
        <ele>809.877859</ele>
        <time>2026-07-12T16:29:38.000Z</time>
      </trkpt>
      <trkpt lat="46.48611" lon="13.7776">
        <ele>810.252452</ele>
        <time>2026-07-12T16:29:40.000Z</time>
      </trkpt>
      <trkpt lat="46.48622" lon="13.77744">
        <ele>810.800075</ele>
        <time>2026-07-12T16:29:43.000Z</time>
      </trkpt>
      <trkpt lat="46.48631" lon="13.77729">
        <ele>811.276584</ele>
        <time>2026-07-12T16:29:46.000Z</time>
      </trkpt>
      <trkpt lat="46.48648" lon="13.77707">
        <ele>812.087216</ele>
        <time>2026-07-12T16:29:52.000Z</time>
      </trkpt>
      <trkpt lat="46.48654" lon="13.77696">
        <ele>812.425807</ele>
        <time>2026-07-12T16:29:55.000Z</time>
      </trkpt>
      <trkpt lat="46.4866" lon="13.77685">
        <ele>812.768391</ele>
        <time>2026-07-12T16:29:58.000Z</time>
      </trkpt>
      <trkpt lat="46.48673" lon="13.77653">
        <ele>813.684119</ele>
        <time>2026-07-12T16:30:06.000Z</time>
      </trkpt>
      <trkpt lat="46.4868" lon="13.77626">
        <ele>814.362681</ele>
        <time>2026-07-12T16:30:12.000Z</time>
      </trkpt>
      <trkpt lat="46.48684" lon="13.77614">
        <ele>814.599194</ele>
        <time>2026-07-12T16:30:15.000Z</time>
      </trkpt>
      <trkpt lat="46.48692" lon="13.77589">
        <ele>814.94063</ele>
        <time>2026-07-12T16:30:21.000Z</time>
      </trkpt>
      <trkpt lat="46.48707" lon="13.77556">
        <ele>815.419849</ele>
        <time>2026-07-12T16:30:29.000Z</time>
      </trkpt>
      <trkpt lat="46.48733" lon="13.77508">
        <ele>816.162144</ele>
        <time>2026-07-12T16:30:41.000Z</time>
      </trkpt>
      <trkpt lat="46.48745" lon="13.77483">
        <ele>816.529877</ele>
        <time>2026-07-12T16:30:48.000Z</time>
      </trkpt>
      <trkpt lat="46.48754" lon="13.77465">
        <ele>816.807171</ele>
        <time>2026-07-12T16:30:54.000Z</time>
      </trkpt>
      <trkpt lat="46.4877" lon="13.77435">
        <ele>817.274407</ele>
        <time>2026-07-12T16:31:02.000Z</time>
      </trkpt>
      <trkpt lat="46.48792" lon="13.77409">
        <ele>817.722188</ele>
        <time>2026-07-12T16:31:08.000Z</time>
      </trkpt>
      <trkpt lat="46.48813" lon="13.77378">
        <ele>817.921039</ele>
        <time>2026-07-12T16:31:14.000Z</time>
      </trkpt>
      <trkpt lat="46.48843" lon="13.77322">
        <ele>818.252241</ele>
        <time>2026-07-12T16:31:24.000Z</time>
      </trkpt>
      <trkpt lat="46.48867" lon="13.77268">
        <ele>818.545076</ele>
        <time>2026-07-12T16:31:33.000Z</time>
      </trkpt>
      <trkpt lat="46.48877" lon="13.77238">
        <ele>818.700707</ele>
        <time>2026-07-12T16:31:38.000Z</time>
      </trkpt>
      <trkpt lat="46.4888" lon="13.77225">
        <ele>818.762176</ele>
        <time>2026-07-12T16:31:40.000Z</time>
      </trkpt>
      <trkpt lat="46.48881" lon="13.77218">
        <ele>818.792871</ele>
        <time>2026-07-12T16:31:41.000Z</time>
      </trkpt>
      <trkpt lat="46.48891" lon="13.77183">
        <ele>819.103969</ele>
        <time>2026-07-12T16:31:47.000Z</time>
      </trkpt>
      <trkpt lat="46.48893" lon="13.77177">
        <ele>819.18326</ele>
        <time>2026-07-12T16:31:48.000Z</time>
      </trkpt>
      <trkpt lat="46.48898" lon="13.77154">
        <ele>819.491108</ele>
        <time>2026-07-12T16:31:52.000Z</time>
      </trkpt>
      <trkpt lat="46.48899" lon="13.77148">
        <ele>819.574059</ele>
        <time>2026-07-12T16:31:53.000Z</time>
      </trkpt>
      <trkpt lat="46.48901" lon="13.77133">
        <ele>819.759236</ele>
        <time>2026-07-12T16:31:55.000Z</time>
      </trkpt>
      <trkpt lat="46.48904" lon="13.7712">
        <ele>819.944093</ele>
        <time>2026-07-12T16:31:57.000Z</time>
      </trkpt>
      <trkpt lat="46.48906" lon="13.77113">
        <ele>820.029888</ele>
        <time>2026-07-12T16:31:58.000Z</time>
      </trkpt>
      <trkpt lat="46.48908" lon="13.771">
        <ele>820.197014</ele>
        <time>2026-07-12T16:32:00.000Z</time>
      </trkpt>
      <trkpt lat="46.48911" lon="13.77088">
        <ele>820.368115</ele>
        <time>2026-07-12T16:32:02.000Z</time>
      </trkpt>
      <trkpt lat="46.48913" lon="13.77074">
        <ele>820.542615</ele>
        <time>2026-07-12T16:32:04.000Z</time>
      </trkpt>
      <trkpt lat="46.4892" lon="13.77046">
        <ele>820.923219</ele>
        <time>2026-07-12T16:32:08.000Z</time>
      </trkpt>
      <trkpt lat="46.48929" lon="13.77005">
        <ele>821.469714</ele>
        <time>2026-07-12T16:32:14.000Z</time>
      </trkpt>
      <trkpt lat="46.48928" lon="13.76998">
        <ele>821.554917</ele>
        <time>2026-07-12T16:32:15.000Z</time>
      </trkpt>
      <trkpt lat="46.48933" lon="13.76939">
        <ele>822.26349</ele>
        <time>2026-07-12T16:32:23.000Z</time>
      </trkpt>
      <trkpt lat="46.48936" lon="13.76869">
        <ele>822.717624</ele>
        <time>2026-07-12T16:32:33.000Z</time>
      </trkpt>
      <trkpt lat="46.48937" lon="13.76803">
        <ele>823.14976</ele>
        <time>2026-07-12T16:32:43.000Z</time>
      </trkpt>
      <trkpt lat="46.48939" lon="13.76761">
        <ele>823.420039</ele>
        <time>2026-07-12T16:32:49.000Z</time>
      </trkpt>
      <trkpt lat="46.4894" lon="13.7675">
        <ele>823.496872</ele>
        <time>2026-07-12T16:32:51.000Z</time>
      </trkpt>
      <trkpt lat="46.48946" lon="13.76688">
        <ele>823.90115</ele>
        <time>2026-07-12T16:32:59.000Z</time>
      </trkpt>
      <trkpt lat="46.48951" lon="13.76634">
        <ele>824.932986</ele>
        <time>2026-07-12T16:33:06.000Z</time>
      </trkpt>
      <trkpt lat="46.48953" lon="13.7662">
        <ele>825.208445</ele>
        <time>2026-07-12T16:33:08.000Z</time>
      </trkpt>
      <trkpt lat="46.48955" lon="13.7658">
        <ele>825.976701</ele>
        <time>2026-07-12T16:33:14.000Z</time>
      </trkpt>
      <trkpt lat="46.48954" lon="13.76559">
        <ele>826.37111</ele>
        <time>2026-07-12T16:33:17.000Z</time>
      </trkpt>
      <trkpt lat="46.4895" lon="13.76533">
        <ele>826.895956</ele>
        <time>2026-07-12T16:33:21.000Z</time>
      </trkpt>
      <trkpt lat="46.48945" lon="13.76508">
        <ele>827.388597</ele>
        <time>2026-07-12T16:33:26.000Z</time>
      </trkpt>
      <trkpt lat="46.48942" lon="13.76474">
        <ele>828.047931</ele>
        <time>2026-07-12T16:33:32.000Z</time>
      </trkpt>
      <trkpt lat="46.48946" lon="13.76425">
        <ele>828.960037</ele>
        <time>2026-07-12T16:33:40.000Z</time>
      </trkpt>
      <trkpt lat="46.48946" lon="13.7642">
        <ele>829.006439</ele>
        <time>2026-07-12T16:33:41.000Z</time>
      </trkpt>
      <trkpt lat="46.48948" lon="13.76396">
        <ele>829.225834</ele>
        <time>2026-07-12T16:33:45.000Z</time>
      </trkpt>
      <trkpt lat="46.48949" lon="13.76371">
        <ele>829.451038</ele>
        <time>2026-07-12T16:33:49.000Z</time>
      </trkpt>
      <trkpt lat="46.48953" lon="13.76348">
        <ele>829.659126</ele>
        <time>2026-07-12T16:33:52.000Z</time>
      </trkpt>
      <trkpt lat="46.48956" lon="13.76335">
        <ele>829.785191</ele>
        <time>2026-07-12T16:33:54.000Z</time>
      </trkpt>
      <trkpt lat="46.48968" lon="13.76295">
        <ele>830.178151</ele>
        <time>2026-07-12T16:34:00.000Z</time>
      </trkpt>
      <trkpt lat="46.48973" lon="13.76269">
        <ele>830.422573</ele>
        <time>2026-07-12T16:34:04.000Z</time>
      </trkpt>
      <trkpt lat="46.48978" lon="13.76253">
        <ele>830.583657</ele>
        <time>2026-07-12T16:34:07.000Z</time>
      </trkpt>
      <trkpt lat="46.4899" lon="13.76214">
        <ele>830.973081</ele>
        <time>2026-07-12T16:34:14.000Z</time>
      </trkpt>
      <trkpt lat="46.48992" lon="13.76209">
        <ele>831.016881</ele>
        <time>2026-07-12T16:34:15.000Z</time>
      </trkpt>
      <trkpt lat="46.49001" lon="13.76189">
        <ele>831.228771</ele>
        <time>2026-07-12T16:34:19.000Z</time>
      </trkpt>
      <trkpt lat="46.49002" lon="13.76184">
        <ele>831.281004</ele>
        <time>2026-07-12T16:34:20.000Z</time>
      </trkpt>
      <trkpt lat="46.49014" lon="13.76146">
        <ele>831.937756</ele>
        <time>2026-07-12T16:34:27.000Z</time>
      </trkpt>
      <trkpt lat="46.49024" lon="13.76102">
        <ele>832.6671</ele>
        <time>2026-07-12T16:34:34.000Z</time>
      </trkpt>
      <trkpt lat="46.49026" lon="13.76088">
        <ele>832.893102</ele>
        <time>2026-07-12T16:34:36.000Z</time>
      </trkpt>
      <trkpt lat="46.49029" lon="13.76057">
        <ele>833.388238</ele>
        <time>2026-07-12T16:34:40.000Z</time>
      </trkpt>
      <trkpt lat="46.49031" lon="13.76009">
        <ele>834.157194</ele>
        <time>2026-07-12T16:34:47.000Z</time>
      </trkpt>
      <trkpt lat="46.49031" lon="13.75994">
        <ele>834.383329</ele>
        <time>2026-07-12T16:34:49.000Z</time>
      </trkpt>
      <trkpt lat="46.49029" lon="13.75965">
        <ele>834.841604</ele>
        <time>2026-07-12T16:34:53.000Z</time>
      </trkpt>
      <trkpt lat="46.4903" lon="13.75944">
        <ele>835.185092</ele>
        <time>2026-07-12T16:34:56.000Z</time>
      </trkpt>
      <trkpt lat="46.4903" lon="13.75922">
        <ele>835.534946</ele>
        <time>2026-07-12T16:34:59.000Z</time>
      </trkpt>
      <trkpt lat="46.4903" lon="13.75913">
        <ele>835.681165</ele>
        <time>2026-07-12T16:35:00.000Z</time>
      </trkpt>
      <trkpt lat="46.49027" lon="13.7586">
        <ele>836.529046</ele>
        <time>2026-07-12T16:35:07.000Z</time>
      </trkpt>
      <trkpt lat="46.49027" lon="13.75845">
        <ele>836.766863</ele>
        <time>2026-07-12T16:35:09.000Z</time>
      </trkpt>
      <trkpt lat="46.49025" lon="13.75815">
        <ele>837.249857</ele>
        <time>2026-07-12T16:35:13.000Z</time>
      </trkpt>
      <trkpt lat="46.49024" lon="13.7577">
        <ele>837.981322</ele>
        <time>2026-07-12T16:35:19.000Z</time>
      </trkpt>
      <trkpt lat="46.49023" lon="13.75701">
        <ele>839.083786</ele>
        <time>2026-07-12T16:35:28.000Z</time>
      </trkpt>
      <trkpt lat="46.49021" lon="13.7563">
        <ele>839.5675</ele>
        <time>2026-07-12T16:35:37.000Z</time>
      </trkpt>
      <trkpt lat="46.49019" lon="13.75559">
        <ele>839.487667</ele>
        <time>2026-07-12T16:35:46.000Z</time>
      </trkpt>
      <trkpt lat="46.49022" lon="13.75496">
        <ele>839.416761</ele>
        <time>2026-07-12T16:35:54.000Z</time>
      </trkpt>
      <trkpt lat="46.49031" lon="13.75417">
        <ele>839.32742</ele>
        <time>2026-07-12T16:36:04.000Z</time>
      </trkpt>
      <trkpt lat="46.49033" lon="13.7541">
        <ele>839.318774</ele>
        <time>2026-07-12T16:36:05.000Z</time>
      </trkpt>
      <trkpt lat="46.49049" lon="13.75328">
        <ele>840.327788</ele>
        <time>2026-07-12T16:36:16.000Z</time>
      </trkpt>
      <trkpt lat="46.49051" lon="13.7532">
        <ele>840.423359</ele>
        <time>2026-07-12T16:36:17.000Z</time>
      </trkpt>
      <trkpt lat="46.49061" lon="13.75283">
        <ele>840.905211</ele>
        <time>2026-07-12T16:36:22.000Z</time>
      </trkpt>
      <trkpt lat="46.49065" lon="13.75262">
        <ele>841.176398</ele>
        <time>2026-07-12T16:36:25.000Z</time>
      </trkpt>
      <trkpt lat="46.49072" lon="13.75228">
        <ele>841.592032</ele>
        <time>2026-07-12T16:36:30.000Z</time>
      </trkpt>
      <trkpt lat="46.49073" lon="13.75212">
        <ele>841.789035</ele>
        <time>2026-07-12T16:36:32.000Z</time>
      </trkpt>
      <trkpt lat="46.49081" lon="13.75135">
        <ele>842.631182</ele>
        <time>2026-07-12T16:36:42.000Z</time>
      </trkpt>
      <trkpt lat="46.49088" lon="13.75057">
        <ele>843.2395</ele>
        <time>2026-07-12T16:36:52.000Z</time>
      </trkpt>
      <trkpt lat="46.49093" lon="13.74979">
        <ele>843.845936</ele>
        <time>2026-07-12T16:37:02.000Z</time>
      </trkpt>
      <trkpt lat="46.49094" lon="13.74956">
        <ele>844.027903</ele>
        <time>2026-07-12T16:37:05.000Z</time>
      </trkpt>
      <trkpt lat="46.49099" lon="13.74894">
        <ele>844.506938</ele>
        <time>2026-07-12T16:37:13.000Z</time>
      </trkpt>
      <trkpt lat="46.49105" lon="13.74812">
        <ele>845.025337</ele>
        <time>2026-07-12T16:37:23.000Z</time>
      </trkpt>
      <trkpt lat="46.49106" lon="13.74804">
        <ele>845.076194</ele>
        <time>2026-07-12T16:37:24.000Z</time>
      </trkpt>
      <trkpt lat="46.49106" lon="13.74796">
        <ele>845.126255</ele>
        <time>2026-07-12T16:37:25.000Z</time>
      </trkpt>
      <trkpt lat="46.49109" lon="13.74755">
        <ele>845.385832</ele>
        <time>2026-07-12T16:37:30.000Z</time>
      </trkpt>
      <trkpt lat="46.49114" lon="13.74683">
        <ele>845.845677</ele>
        <time>2026-07-12T16:37:39.000Z</time>
      </trkpt>
      <trkpt lat="46.49119" lon="13.74601">
        <ele>846.21311</ele>
        <time>2026-07-12T16:37:49.000Z</time>
      </trkpt>
      <trkpt lat="46.49121" lon="13.74518">
        <ele>846.388859</ele>
        <time>2026-07-12T16:37:59.000Z</time>
      </trkpt>
      <trkpt lat="46.49125" lon="13.74433">
        <ele>846.570145</ele>
        <time>2026-07-12T16:38:09.000Z</time>
      </trkpt>
      <trkpt lat="46.49126" lon="13.74399">
        <ele>846.643768</ele>
        <time>2026-07-12T16:38:13.000Z</time>
      </trkpt>
      <trkpt lat="46.49127" lon="13.74329">
        <ele>846.712642</ele>
        <time>2026-07-12T16:38:21.000Z</time>
      </trkpt>
      <trkpt lat="46.49125" lon="13.74272">
        <ele>846.738437</ele>
        <time>2026-07-12T16:38:28.000Z</time>
      </trkpt>
      <trkpt lat="46.49123" lon="13.74243">
        <ele>846.751745</ele>
        <time>2026-07-12T16:38:32.000Z</time>
      </trkpt>
      <trkpt lat="46.49121" lon="13.74228">
        <ele>846.758279</ele>
        <time>2026-07-12T16:38:34.000Z</time>
      </trkpt>
      <trkpt lat="46.49121" lon="13.74221">
        <ele>846.761772</ele>
        <time>2026-07-12T16:38:35.000Z</time>
      </trkpt>
      <trkpt lat="46.49118" lon="13.74178">
        <ele>846.78118</ele>
        <time>2026-07-12T16:38:40.000Z</time>
      </trkpt>
      <trkpt lat="46.49113" lon="13.74134">
        <ele>846.801237</ele>
        <time>2026-07-12T16:38:45.000Z</time>
      </trkpt>
      <trkpt lat="46.49111" lon="13.74116">
        <ele>846.805629</ele>
        <time>2026-07-12T16:38:47.000Z</time>
      </trkpt>
      <trkpt lat="46.491" lon="13.74045">
        <ele>846.328639</ele>
        <time>2026-07-12T16:38:55.000Z</time>
      </trkpt>
      <trkpt lat="46.49098" lon="13.74036">
        <ele>846.270934</ele>
        <time>2026-07-12T16:38:56.000Z</time>
      </trkpt>
      <trkpt lat="46.49087" lon="13.73966">
        <ele>845.805747</ele>
        <time>2026-07-12T16:39:04.000Z</time>
      </trkpt>
      <trkpt lat="46.49073" lon="13.73888">
        <ele>845.28004</ele>
        <time>2026-07-12T16:39:13.000Z</time>
      </trkpt>
      <trkpt lat="46.49063" lon="13.73837">
        <ele>845.002819</ele>
        <time>2026-07-12T16:39:19.000Z</time>
      </trkpt>
      <trkpt lat="46.49051" lon="13.73779">
        <ele>844.751992</ele>
        <time>2026-07-12T16:39:26.000Z</time>
      </trkpt>
      <trkpt lat="46.49044" lon="13.73744">
        <ele>844.597384</ele>
        <time>2026-07-12T16:39:31.000Z</time>
      </trkpt>
      <trkpt lat="46.49039" lon="13.73722">
        <ele>844.505051</ele>
        <time>2026-07-12T16:39:34.000Z</time>
      </trkpt>
      <trkpt lat="46.49022" lon="13.73653">
        <ele>844.201241</ele>
        <time>2026-07-12T16:39:43.000Z</time>
      </trkpt>
      <trkpt lat="46.49009" lon="13.73577">
        <ele>844.526664</ele>
        <time>2026-07-12T16:39:52.000Z</time>
      </trkpt>
      <trkpt lat="46.49006" lon="13.73517">
        <ele>845.310497</ele>
        <time>2026-07-12T16:39:59.000Z</time>
      </trkpt>
      <trkpt lat="46.49006" lon="13.73509">
        <ele>845.422078</ele>
        <time>2026-07-12T16:40:00.000Z</time>
      </trkpt>
      <trkpt lat="46.4901" lon="13.73467">
        <ele>845.975399</ele>
        <time>2026-07-12T16:40:05.000Z</time>
      </trkpt>
      <trkpt lat="46.49011" lon="13.73459">
        <ele>846.087999</ele>
        <time>2026-07-12T16:40:06.000Z</time>
      </trkpt>
      <trkpt lat="46.49016" lon="13.73425">
        <ele>846.54136</ele>
        <time>2026-07-12T16:40:10.000Z</time>
      </trkpt>
      <trkpt lat="46.49019" lon="13.7339">
        <ele>847.002694</ele>
        <time>2026-07-12T16:40:14.000Z</time>
      </trkpt>
      <trkpt lat="46.49021" lon="13.73381">
        <ele>847.127466</ele>
        <time>2026-07-12T16:40:15.000Z</time>
      </trkpt>
      <trkpt lat="46.49023" lon="13.73372">
        <ele>847.249768</ele>
        <time>2026-07-12T16:40:16.000Z</time>
      </trkpt>
      <trkpt lat="46.49035" lon="13.7333">
        <ele>847.684812</ele>
        <time>2026-07-12T16:40:21.000Z</time>
      </trkpt>
      <trkpt lat="46.49054" lon="13.73283">
        <ele>848.086854</ele>
        <time>2026-07-12T16:40:27.000Z</time>
      </trkpt>
      <trkpt lat="46.49078" lon="13.73236">
        <ele>848.533634</ele>
        <time>2026-07-12T16:40:34.000Z</time>
      </trkpt>
      <trkpt lat="46.49081" lon="13.73229">
        <ele>848.592549</ele>
        <time>2026-07-12T16:40:35.000Z</time>
      </trkpt>
      <trkpt lat="46.49084" lon="13.73223">
        <ele>848.650886</ele>
        <time>2026-07-12T16:40:36.000Z</time>
      </trkpt>
      <trkpt lat="46.49098" lon="13.73196">
        <ele>848.904964</ele>
        <time>2026-07-12T16:40:40.000Z</time>
      </trkpt>
      <trkpt lat="46.49129" lon="13.73139">
        <ele>849.429196</ele>
        <time>2026-07-12T16:40:49.000Z</time>
      </trkpt>
      <trkpt lat="46.49149" lon="13.73098">
        <ele>849.468198</ele>
        <time>2026-07-12T16:40:55.000Z</time>
      </trkpt>
      <trkpt lat="46.49171" lon="13.73053">
        <ele>849.511487</ele>
        <time>2026-07-12T16:41:02.000Z</time>
      </trkpt>
      <trkpt lat="46.49174" lon="13.73047">
        <ele>849.516881</ele>
        <time>2026-07-12T16:41:03.000Z</time>
      </trkpt>
      <trkpt lat="46.4919" lon="13.73019">
        <ele>849.545341</ele>
        <time>2026-07-12T16:41:08.000Z</time>
      </trkpt>
      <trkpt lat="46.49204" lon="13.72995">
        <ele>849.569928</ele>
        <time>2026-07-12T16:41:12.000Z</time>
      </trkpt>
      <trkpt lat="46.4921" lon="13.72981">
        <ele>849.582452</ele>
        <time>2026-07-12T16:41:14.000Z</time>
      </trkpt>
      <trkpt lat="46.49213" lon="13.72975">
        <ele>849.588956</ele>
        <time>2026-07-12T16:41:15.000Z</time>
      </trkpt>
      <trkpt lat="46.49221" lon="13.72962">
        <ele>849.602135</ele>
        <time>2026-07-12T16:41:17.000Z</time>
      </trkpt>
      <trkpt lat="46.49234" lon="13.72935">
        <ele>849.628085</ele>
        <time>2026-07-12T16:41:21.000Z</time>
      </trkpt>
      <trkpt lat="46.49238" lon="13.72929">
        <ele>849.70225</ele>
        <time>2026-07-12T16:41:22.000Z</time>
      </trkpt>
      <trkpt lat="46.49241" lon="13.72922">
        <ele>849.813033</ele>
        <time>2026-07-12T16:41:23.000Z</time>
      </trkpt>
      <trkpt lat="46.49248" lon="13.72908">
        <ele>850.042441</ele>
        <time>2026-07-12T16:41:25.000Z</time>
      </trkpt>
      <trkpt lat="46.4925" lon="13.72901">
        <ele>850.155767</ele>
        <time>2026-07-12T16:41:26.000Z</time>
      </trkpt>
      <trkpt lat="46.49256" lon="13.72886">
        <ele>850.384973</ele>
        <time>2026-07-12T16:41:28.000Z</time>
      </trkpt>
      <trkpt lat="46.4927" lon="13.72847">
        <ele>850.977984</ele>
        <time>2026-07-12T16:41:33.000Z</time>
      </trkpt>
      <trkpt lat="46.49275" lon="13.72832">
        <ele>851.209459</ele>
        <time>2026-07-12T16:41:35.000Z</time>
      </trkpt>
      <trkpt lat="46.49281" lon="13.72799">
        <ele>851.673476</ele>
        <time>2026-07-12T16:41:39.000Z</time>
      </trkpt>
      <trkpt lat="46.49287" lon="13.72757">
        <ele>852.261543</ele>
        <time>2026-07-12T16:41:44.000Z</time>
      </trkpt>
      <trkpt lat="46.49288" lon="13.72748">
        <ele>852.379191</ele>
        <time>2026-07-12T16:41:45.000Z</time>
      </trkpt>
      <trkpt lat="46.49293" lon="13.72689">
        <ele>853.188953</ele>
        <time>2026-07-12T16:41:52.000Z</time>
      </trkpt>
      <trkpt lat="46.49293" lon="13.72653">
        <ele>853.521688</ele>
        <time>2026-07-12T16:41:56.000Z</time>
      </trkpt>
      <trkpt lat="46.49291" lon="13.72635">
        <ele>853.685276</ele>
        <time>2026-07-12T16:41:58.000Z</time>
      </trkpt>
      <trkpt lat="46.49291" lon="13.72626">
        <ele>853.768388</ele>
        <time>2026-07-12T16:41:59.000Z</time>
      </trkpt>
      <trkpt lat="46.4929" lon="13.72617">
        <ele>853.855494</ele>
        <time>2026-07-12T16:42:00.000Z</time>
      </trkpt>
      <trkpt lat="46.49285" lon="13.72581">
        <ele>854.195267</ele>
        <time>2026-07-12T16:42:04.000Z</time>
      </trkpt>
      <trkpt lat="46.49279" lon="13.72538">
        <ele>854.609678</ele>
        <time>2026-07-12T16:42:09.000Z</time>
      </trkpt>
      <trkpt lat="46.49276" lon="13.72529">
        <ele>854.694946</ele>
        <time>2026-07-12T16:42:10.000Z</time>
      </trkpt>
      <trkpt lat="46.49259" lon="13.72469">
        <ele>855.305372</ele>
        <time>2026-07-12T16:42:17.000Z</time>
      </trkpt>
      <trkpt lat="46.49253" lon="13.72451">
        <ele>855.483375</ele>
        <time>2026-07-12T16:42:19.000Z</time>
      </trkpt>
      <trkpt lat="46.49241" lon="13.7242">
        <ele>855.391181</ele>
        <time>2026-07-12T16:42:23.000Z</time>
      </trkpt>
      <trkpt lat="46.49233" lon="13.72396">
        <ele>855.135155</ele>
        <time>2026-07-12T16:42:26.000Z</time>
      </trkpt>
      <trkpt lat="46.49222" lon="13.72372">
        <ele>854.868789</ele>
        <time>2026-07-12T16:42:29.000Z</time>
      </trkpt>
      <trkpt lat="46.49209" lon="13.72343">
        <ele>854.539901</ele>
        <time>2026-07-12T16:42:33.000Z</time>
      </trkpt>
      <trkpt lat="46.49198" lon="13.72324">
        <ele>854.302441</ele>
        <time>2026-07-12T16:42:36.000Z</time>
      </trkpt>
      <trkpt lat="46.49181" lon="13.7229">
        <ele>853.903254</ele>
        <time>2026-07-12T16:42:42.000Z</time>
      </trkpt>
      <trkpt lat="46.49173" lon="13.72275">
        <ele>853.728163</ele>
        <time>2026-07-12T16:42:45.000Z</time>
      </trkpt>
      <trkpt lat="46.49169" lon="13.72267">
        <ele>853.637511</ele>
        <time>2026-07-12T16:42:47.000Z</time>
      </trkpt>
      <trkpt lat="46.49165" lon="13.72264">
        <ele>853.570957</ele>
        <time>2026-07-12T16:42:49.000Z</time>
      </trkpt>
      <trkpt lat="46.49164" lon="13.72264">
        <ele>853.559937</ele>
        <time>2026-07-12T16:42:50.000Z</time>
      </trkpt>
      <trkpt lat="46.49162" lon="13.72258">
        <ele>853.490282</ele>
        <time>2026-07-12T16:44:09.000Z</time>
      </trkpt>
      <trkpt lat="46.49161" lon="13.72255">
        <ele>853.464529</ele>
        <time>2026-07-12T16:44:10.000Z</time>
      </trkpt>
      <trkpt lat="46.49156" lon="13.72235">
        <ele>853.25693</ele>
        <time>2026-07-12T16:44:16.000Z</time>
      </trkpt>
      <trkpt lat="46.49148" lon="13.72219">
        <ele>853.208115</ele>
        <time>2026-07-12T16:44:21.000Z</time>
      </trkpt>
      <trkpt lat="46.49143" lon="13.72209">
        <ele>853.359737</ele>
        <time>2026-07-12T16:44:23.000Z</time>
      </trkpt>
      <trkpt lat="46.49138" lon="13.72198">
        <ele>853.522634</ele>
        <time>2026-07-12T16:44:25.000Z</time>
      </trkpt>
      <trkpt lat="46.4913" lon="13.72179">
        <ele>853.813728</ele>
        <time>2026-07-12T16:44:28.000Z</time>
      </trkpt>
      <trkpt lat="46.49123" lon="13.72165">
        <ele>854.021723</ele>
        <time>2026-07-12T16:44:30.000Z</time>
      </trkpt>
      <trkpt lat="46.49101" lon="13.72106">
        <ele>854.850396</ele>
        <time>2026-07-12T16:44:38.000Z</time>
      </trkpt>
      <trkpt lat="46.4909" lon="13.72062">
        <ele>855.438422</ele>
        <time>2026-07-12T16:44:43.000Z</time>
      </trkpt>
      <trkpt lat="46.49081" lon="13.71997">
        <ele>856.255244</ele>
        <time>2026-07-12T16:44:50.000Z</time>
      </trkpt>
      <trkpt lat="46.49078" lon="13.7197">
        <ele>856.47671</ele>
        <time>2026-07-12T16:44:53.000Z</time>
      </trkpt>
      <trkpt lat="46.49074" lon="13.71942">
        <ele>856.631892</ele>
        <time>2026-07-12T16:44:56.000Z</time>
      </trkpt>
      <trkpt lat="46.49072" lon="13.71869">
        <ele>857.03081</ele>
        <time>2026-07-12T16:45:04.000Z</time>
      </trkpt>
      <trkpt lat="46.49073" lon="13.71851">
        <ele>857.132544</ele>
        <time>2026-07-12T16:45:06.000Z</time>
      </trkpt>
      <trkpt lat="46.49078" lon="13.71814">
        <ele>857.335241</ele>
        <time>2026-07-12T16:45:10.000Z</time>
      </trkpt>
      <trkpt lat="46.49087" lon="13.71762">
        <ele>857.631933</ele>
        <time>2026-07-12T16:45:16.000Z</time>
      </trkpt>
      <trkpt lat="46.49106" lon="13.71703">
        <ele>857.625873</ele>
        <time>2026-07-12T16:45:23.000Z</time>
      </trkpt>
      <trkpt lat="46.49132" lon="13.7165">
        <ele>857.269943</ele>
        <time>2026-07-12T16:45:30.000Z</time>
      </trkpt>
      <trkpt lat="46.49151" lon="13.71591">
        <ele>856.907028</ele>
        <time>2026-07-12T16:45:37.000Z</time>
      </trkpt>
      <trkpt lat="46.49174" lon="13.71515">
        <ele>856.444521</ele>
        <time>2026-07-12T16:45:46.000Z</time>
      </trkpt>
      <trkpt lat="46.4919" lon="13.71465">
        <ele>856.266904</ele>
        <time>2026-07-12T16:45:52.000Z</time>
      </trkpt>
      <trkpt lat="46.49199" lon="13.7144">
        <ele>856.196918</ele>
        <time>2026-07-12T16:45:55.000Z</time>
      </trkpt>
      <trkpt lat="46.49217" lon="13.71388">
        <ele>856.054177</ele>
        <time>2026-07-12T16:46:01.000Z</time>
      </trkpt>
      <trkpt lat="46.49244" lon="13.7131">
        <ele>855.842111</ele>
        <time>2026-07-12T16:46:10.000Z</time>
      </trkpt>
      <trkpt lat="46.49248" lon="13.71302">
        <ele>855.817716</ele>
        <time>2026-07-12T16:46:11.000Z</time>
      </trkpt>
      <trkpt lat="46.49274" lon="13.7123">
        <ele>855.526531</ele>
        <time>2026-07-12T16:46:19.000Z</time>
      </trkpt>
      <trkpt lat="46.49277" lon="13.71221">
        <ele>855.480617</ele>
        <time>2026-07-12T16:46:20.000Z</time>
      </trkpt>
      <trkpt lat="46.49301" lon="13.71156">
        <ele>855.140941</ele>
        <time>2026-07-12T16:46:27.000Z</time>
      </trkpt>
      <trkpt lat="46.49306" lon="13.71148">
        <ele>855.09225</ele>
        <time>2026-07-12T16:46:28.000Z</time>
      </trkpt>
      <trkpt lat="46.4932" lon="13.71125">
        <ele>854.948495</ele>
        <time>2026-07-12T16:46:31.000Z</time>
      </trkpt>
      <trkpt lat="46.49327" lon="13.71106">
        <ele>854.849703</ele>
        <time>2026-07-12T16:46:33.000Z</time>
      </trkpt>
      <trkpt lat="46.49348" lon="13.71049">
        <ele>854.553324</ele>
        <time>2026-07-12T16:46:39.000Z</time>
      </trkpt>
      <trkpt lat="46.49375" lon="13.70973">
        <ele>854.690441</ele>
        <time>2026-07-12T16:46:47.000Z</time>
      </trkpt>
      <trkpt lat="46.49391" lon="13.70909">
        <ele>854.836326</ele>
        <time>2026-07-12T16:46:53.000Z</time>
      </trkpt>
      <trkpt lat="46.49416" lon="13.70834">
        <ele>855.013453</ele>
        <time>2026-07-12T16:47:01.000Z</time>
      </trkpt>
      <trkpt lat="46.49428" lon="13.70799">
        <ele>855.087978</ele>
        <time>2026-07-12T16:47:05.000Z</time>
      </trkpt>
      <trkpt lat="46.49437" lon="13.70773">
        <ele>855.115523</ele>
        <time>2026-07-12T16:47:08.000Z</time>
      </trkpt>
      <trkpt lat="46.4944" lon="13.70765">
        <ele>855.124454</ele>
        <time>2026-07-12T16:47:09.000Z</time>
      </trkpt>
      <trkpt lat="46.49463" lon="13.70701">
        <ele>855.19245</ele>
        <time>2026-07-12T16:47:16.000Z</time>
      </trkpt>
      <trkpt lat="46.4947" lon="13.70683">
        <ele>855.211629</ele>
        <time>2026-07-12T16:47:18.000Z</time>
      </trkpt>
      <trkpt lat="46.49497" lon="13.70607">
        <ele>855.291689</ele>
        <time>2026-07-12T16:47:26.000Z</time>
      </trkpt>
      <trkpt lat="46.49507" lon="13.70579">
        <ele>855.321827</ele>
        <time>2026-07-12T16:47:29.000Z</time>
      </trkpt>
      <trkpt lat="46.49534" lon="13.70504">
        <ele>855.139213</ele>
        <time>2026-07-12T16:47:37.000Z</time>
      </trkpt>
      <trkpt lat="46.49542" lon="13.70483">
        <ele>855.08362</ele>
        <time>2026-07-12T16:47:39.000Z</time>
      </trkpt>
      <trkpt lat="46.49566" lon="13.70414">
        <ele>854.902293</ele>
        <time>2026-07-12T16:47:46.000Z</time>
      </trkpt>
      <trkpt lat="46.49585" lon="13.70355">
        <ele>854.74792</ele>
        <time>2026-07-12T16:47:52.000Z</time>
      </trkpt>
      <trkpt lat="46.49597" lon="13.70305">
        <ele>854.517059</ele>
        <time>2026-07-12T16:47:57.000Z</time>
      </trkpt>
      <trkpt lat="46.49601" lon="13.70284">
        <ele>854.402561</ele>
        <time>2026-07-12T16:47:59.000Z</time>
      </trkpt>
      <trkpt lat="46.49614" lon="13.70212">
        <ele>854.0106</ele>
        <time>2026-07-12T16:48:06.000Z</time>
      </trkpt>
      <trkpt lat="46.49622" lon="13.70126">
        <ele>853.55521</ele>
        <time>2026-07-12T16:48:14.000Z</time>
      </trkpt>
      <trkpt lat="46.49627" lon="13.70083">
        <ele>853.345864</ele>
        <time>2026-07-12T16:48:18.000Z</time>
      </trkpt>
      <trkpt lat="46.49634" lon="13.7001">
        <ele>853.398902</ele>
        <time>2026-07-12T16:48:25.000Z</time>
      </trkpt>
      <trkpt lat="46.49642" lon="13.69927">
        <ele>853.459191</ele>
        <time>2026-07-12T16:48:33.000Z</time>
      </trkpt>
      <trkpt lat="46.49652" lon="13.69845">
        <ele>853.519157</ele>
        <time>2026-07-12T16:48:41.000Z</time>
      </trkpt>
      <trkpt lat="46.49661" lon="13.69763">
        <ele>853.950568</ele>
        <time>2026-07-12T16:48:49.000Z</time>
      </trkpt>
      <trkpt lat="46.49666" lon="13.6972">
        <ele>854.224434</ele>
        <time>2026-07-12T16:48:53.000Z</time>
      </trkpt>
      <trkpt lat="46.49676" lon="13.69636">
        <ele>854.771071</ele>
        <time>2026-07-12T16:49:01.000Z</time>
      </trkpt>
      <trkpt lat="46.4968" lon="13.6956">
        <ele>855.269711</ele>
        <time>2026-07-12T16:49:08.000Z</time>
      </trkpt>
      <trkpt lat="46.49675" lon="13.69488">
        <ele>855.854531</ele>
        <time>2026-07-12T16:49:15.000Z</time>
      </trkpt>
      <trkpt lat="46.4967" lon="13.69416">
        <ele>856.448379</ele>
        <time>2026-07-12T16:49:22.000Z</time>
      </trkpt>
      <trkpt lat="46.49663" lon="13.69343">
        <ele>857.039917</ele>
        <time>2026-07-12T16:49:29.000Z</time>
      </trkpt>
      <trkpt lat="46.49662" lon="13.69333">
        <ele>857.12403</ele>
        <time>2026-07-12T16:49:30.000Z</time>
      </trkpt>
      <trkpt lat="46.49656" lon="13.69285">
        <ele>857.15642</ele>
        <time>2026-07-12T16:49:35.000Z</time>
      </trkpt>
      <trkpt lat="46.49653" lon="13.69266">
        <ele>857.035802</ele>
        <time>2026-07-12T16:49:37.000Z</time>
      </trkpt>
      <trkpt lat="46.49651" lon="13.69248">
        <ele>856.92201</ele>
        <time>2026-07-12T16:49:39.000Z</time>
      </trkpt>
      <trkpt lat="46.49649" lon="13.69228">
        <ele>856.794257</ele>
        <time>2026-07-12T16:49:41.000Z</time>
      </trkpt>
      <trkpt lat="46.4965" lon="13.69185">
        <ele>856.527774</ele>
        <time>2026-07-12T16:49:46.000Z</time>
      </trkpt>
      <trkpt lat="46.49649" lon="13.69176">
        <ele>856.473591</ele>
        <time>2026-07-12T16:49:47.000Z</time>
      </trkpt>
      <trkpt lat="46.49647" lon="13.69134">
        <ele>856.209544</ele>
        <time>2026-07-12T16:49:52.000Z</time>
      </trkpt>
      <trkpt lat="46.49647" lon="13.69117">
        <ele>856.105992</ele>
        <time>2026-07-12T16:49:54.000Z</time>
      </trkpt>
      <trkpt lat="46.49646" lon="13.69108">
        <ele>856.053165</ele>
        <time>2026-07-12T16:49:55.000Z</time>
      </trkpt>
      <trkpt lat="46.49643" lon="13.69076">
        <ele>855.850808</ele>
        <time>2026-07-12T16:49:59.000Z</time>
      </trkpt>
      <trkpt lat="46.49641" lon="13.69059">
        <ele>855.741947</ele>
        <time>2026-07-12T16:50:01.000Z</time>
      </trkpt>
      <trkpt lat="46.49633" lon="13.69035">
        <ele>855.624197</ele>
        <time>2026-07-12T16:50:04.000Z</time>
      </trkpt>
      <trkpt lat="46.49631" lon="13.69027">
        <ele>855.593248</ele>
        <time>2026-07-12T16:50:05.000Z</time>
      </trkpt>
      <trkpt lat="46.49626" lon="13.69005">
        <ele>855.503451</ele>
        <time>2026-07-12T16:50:08.000Z</time>
      </trkpt>
      <trkpt lat="46.49603" lon="13.68947">
        <ele>855.250697</ele>
        <time>2026-07-12T16:50:16.000Z</time>
      </trkpt>
      <trkpt lat="46.49596" lon="13.68924">
        <ele>855.155859</ele>
        <time>2026-07-12T16:50:19.000Z</time>
      </trkpt>
      <trkpt lat="46.49595" lon="13.689">
        <ele>855.065008</ele>
        <time>2026-07-12T16:50:22.000Z</time>
      </trkpt>
      <trkpt lat="46.49588" lon="13.68819">
        <ele>854.756754</ele>
        <time>2026-07-12T16:50:31.000Z</time>
      </trkpt>
      <trkpt lat="46.4958" lon="13.68737">
        <ele>854.527658</ele>
        <time>2026-07-12T16:50:40.000Z</time>
      </trkpt>
      <trkpt lat="46.4958" lon="13.68728">
        <ele>854.504501</ele>
        <time>2026-07-12T16:50:41.000Z</time>
      </trkpt>
      <trkpt lat="46.49583" lon="13.68699">
        <ele>854.429252</ele>
        <time>2026-07-12T16:50:44.000Z</time>
      </trkpt>
      <trkpt lat="46.49586" lon="13.68651">
        <ele>854.304195</ele>
        <time>2026-07-12T16:50:49.000Z</time>
      </trkpt>
      <trkpt lat="46.49586" lon="13.68641">
        <ele>854.279743</ele>
        <time>2026-07-12T16:50:50.000Z</time>
      </trkpt>
      <trkpt lat="46.49585" lon="13.68632">
        <ele>854.254431</ele>
        <time>2026-07-12T16:50:51.000Z</time>
      </trkpt>
      <trkpt lat="46.49578" lon="13.68594">
        <ele>854.153076</ele>
        <time>2026-07-12T16:50:55.000Z</time>
      </trkpt>
      <trkpt lat="46.49576" lon="13.68585">
        <ele>854.12899</ele>
        <time>2026-07-12T16:50:56.000Z</time>
      </trkpt>
      <trkpt lat="46.49568" lon="13.68549">
        <ele>854.031104</ele>
        <time>2026-07-12T16:51:00.000Z</time>
      </trkpt>
      <trkpt lat="46.49549" lon="13.68477">
        <ele>853.718879</ele>
        <time>2026-07-12T16:51:08.000Z</time>
      </trkpt>
      <trkpt lat="46.49529" lon="13.68404">
        <ele>853.399931</ele>
        <time>2026-07-12T16:51:16.000Z</time>
      </trkpt>
      <trkpt lat="46.49507" lon="13.68327">
        <ele>853.061785</ele>
        <time>2026-07-12T16:51:24.000Z</time>
      </trkpt>
      <trkpt lat="46.49485" lon="13.6826">
        <ele>852.20005</ele>
        <time>2026-07-12T16:51:31.000Z</time>
      </trkpt>
      <trkpt lat="46.49456" lon="13.68186">
        <ele>850.93102</ele>
        <time>2026-07-12T16:51:39.000Z</time>
      </trkpt>
      <trkpt lat="46.49452" lon="13.68177">
        <ele>850.784284</ele>
        <time>2026-07-12T16:51:40.000Z</time>
      </trkpt>
      <trkpt lat="46.49431" lon="13.68123">
        <ele>849.861383</ele>
        <time>2026-07-12T16:51:46.000Z</time>
      </trkpt>
      <trkpt lat="46.49408" lon="13.68044">
        <ele>848.890647</ele>
        <time>2026-07-12T16:51:54.000Z</time>
      </trkpt>
      <trkpt lat="46.49403" lon="13.68023">
        <ele>848.750652</ele>
        <time>2026-07-12T16:51:56.000Z</time>
      </trkpt>
      <trkpt lat="46.49398" lon="13.68002">
        <ele>848.613797</ele>
        <time>2026-07-12T16:51:58.000Z</time>
      </trkpt>
      <trkpt lat="46.49397" lon="13.67991">
        <ele>848.546447</ele>
        <time>2026-07-12T16:51:59.000Z</time>
      </trkpt>
      <trkpt lat="46.49385" lon="13.67918">
        <ele>848.085259</ele>
        <time>2026-07-12T16:52:06.000Z</time>
      </trkpt>
      <trkpt lat="46.49379" lon="13.67857">
        <ele>847.701076</ele>
        <time>2026-07-12T16:52:12.000Z</time>
      </trkpt>
      <trkpt lat="46.4938" lon="13.67846">
        <ele>847.638712</ele>
        <time>2026-07-12T16:52:13.000Z</time>
      </trkpt>
      <trkpt lat="46.49381" lon="13.67813">
        <ele>847.500512</ele>
        <time>2026-07-12T16:52:16.000Z</time>
      </trkpt>
      <trkpt lat="46.49382" lon="13.67769">
        <ele>847.542751</ele>
        <time>2026-07-12T16:52:20.000Z</time>
      </trkpt>
      <trkpt lat="46.49386" lon="13.67736">
        <ele>847.575775</ele>
        <time>2026-07-12T16:52:23.000Z</time>
      </trkpt>
      <trkpt lat="46.4939" lon="13.67651">
        <ele>847.657305</ele>
        <time>2026-07-12T16:52:30.000Z</time>
      </trkpt>
      <trkpt lat="46.49397" lon="13.67564">
        <ele>847.741838</ele>
        <time>2026-07-12T16:52:37.000Z</time>
      </trkpt>
      <trkpt lat="46.49399" lon="13.67479">
        <ele>846.586285</ele>
        <time>2026-07-12T16:52:44.000Z</time>
      </trkpt>
      <trkpt lat="46.494" lon="13.67467">
        <ele>846.415043</ele>
        <time>2026-07-12T16:52:45.000Z</time>
      </trkpt>
      <trkpt lat="46.49397" lon="13.67407">
        <ele>845.592759</ele>
        <time>2026-07-12T16:52:50.000Z</time>
      </trkpt>
      <trkpt lat="46.49393" lon="13.67383">
        <ele>845.256337</ele>
        <time>2026-07-12T16:52:52.000Z</time>
      </trkpt>
      <trkpt lat="46.49383" lon="13.67335">
        <ele>844.552375</ele>
        <time>2026-07-12T16:52:56.000Z</time>
      </trkpt>
      <trkpt lat="46.49378" lon="13.67309">
        <ele>844.18499</ele>
        <time>2026-07-12T16:52:58.000Z</time>
      </trkpt>
      <trkpt lat="46.49374" lon="13.67294">
        <ele>843.946769</ele>
        <time>2026-07-12T16:52:59.000Z</time>
      </trkpt>
      <trkpt lat="46.49365" lon="13.67272">
        <ele>843.561295</ele>
        <time>2026-07-12T16:53:01.000Z</time>
      </trkpt>
      <trkpt lat="46.4936" lon="13.67262">
        <ele>843.369305</ele>
        <time>2026-07-12T16:53:02.000Z</time>
      </trkpt>
      <trkpt lat="46.4934" lon="13.6722">
        <ele>842.578609</ele>
        <time>2026-07-12T16:53:06.000Z</time>
      </trkpt>
      <trkpt lat="46.49335" lon="13.6721">
        <ele>842.394199</ele>
        <time>2026-07-12T16:53:07.000Z</time>
      </trkpt>
      <trkpt lat="46.49321" lon="13.67182">
        <ele>841.862503</ele>
        <time>2026-07-12T16:53:10.000Z</time>
      </trkpt>
      <trkpt lat="46.49314" lon="13.67159">
        <ele>841.482351</ele>
        <time>2026-07-12T16:53:12.000Z</time>
      </trkpt>
      <trkpt lat="46.49303" lon="13.6713">
        <ele>840.96359</ele>
        <time>2026-07-12T16:53:15.000Z</time>
      </trkpt>
      <trkpt lat="46.493" lon="13.6712">
        <ele>840.803986</ele>
        <time>2026-07-12T16:53:16.000Z</time>
      </trkpt>
      <trkpt lat="46.49298" lon="13.6711">
        <ele>840.643683</ele>
        <time>2026-07-12T16:53:17.000Z</time>
      </trkpt>
      <trkpt lat="46.4929" lon="13.67067">
        <ele>839.921256</ele>
        <time>2026-07-12T16:53:21.000Z</time>
      </trkpt>
      <trkpt lat="46.49282" lon="13.67013">
        <ele>838.887303</ele>
        <time>2026-07-12T16:53:26.000Z</time>
      </trkpt>
      <trkpt lat="46.49279" lon="13.6699">
        <ele>838.459753</ele>
        <time>2026-07-12T16:53:28.000Z</time>
      </trkpt>
      <trkpt lat="46.49278" lon="13.66944">
        <ele>837.596939</ele>
        <time>2026-07-12T16:53:32.000Z</time>
      </trkpt>
      <trkpt lat="46.49278" lon="13.66923">
        <ele>837.188054</ele>
        <time>2026-07-12T16:53:34.000Z</time>
      </trkpt>
      <trkpt lat="46.49284" lon="13.6686">
        <ele>836.009447</ele>
        <time>2026-07-12T16:53:40.000Z</time>
      </trkpt>
      <trkpt lat="46.49295" lon="13.66808">
        <ele>835.008945</ele>
        <time>2026-07-12T16:53:45.000Z</time>
      </trkpt>
      <trkpt lat="46.49315" lon="13.66754">
        <ele>833.966144</ele>
        <time>2026-07-12T16:53:50.000Z</time>
      </trkpt>
      <trkpt lat="46.49325" lon="13.66734">
        <ele>833.546001</ele>
        <time>2026-07-12T16:53:52.000Z</time>
      </trkpt>
      <trkpt lat="46.49344" lon="13.66693">
        <ele>832.710141</ele>
        <time>2026-07-12T16:53:56.000Z</time>
      </trkpt>
      <trkpt lat="46.49371" lon="13.6662">
        <ele>831.29278</ele>
        <time>2026-07-12T16:54:03.000Z</time>
      </trkpt>
      <trkpt lat="46.49382" lon="13.66548">
        <ele>829.799006</ele>
        <time>2026-07-12T16:54:09.000Z</time>
      </trkpt>
      <trkpt lat="46.49384" lon="13.66525">
        <ele>829.252939</ele>
        <time>2026-07-12T16:54:11.000Z</time>
      </trkpt>
      <trkpt lat="46.49384" lon="13.665">
        <ele>828.695313</ele>
        <time>2026-07-12T16:54:13.000Z</time>
      </trkpt>
      <trkpt lat="46.49382" lon="13.66442">
        <ele>827.383503</ele>
        <time>2026-07-12T16:54:18.000Z</time>
      </trkpt>
      <trkpt lat="46.49381" lon="13.66429">
        <ele>827.09154</ele>
        <time>2026-07-12T16:54:19.000Z</time>
      </trkpt>
      <trkpt lat="46.49376" lon="13.6638">
        <ele>825.960369</ele>
        <time>2026-07-12T16:54:23.000Z</time>
      </trkpt>
      <trkpt lat="46.49361" lon="13.663">
        <ele>824.661385</ele>
        <time>2026-07-12T16:54:30.000Z</time>
      </trkpt>
      <trkpt lat="46.49361" lon="13.66288">
        <ele>824.594085</ele>
        <time>2026-07-12T16:54:31.000Z</time>
      </trkpt>
      <trkpt lat="46.49363" lon="13.66249">
        <ele>824.368896</ele>
        <time>2026-07-12T16:54:34.000Z</time>
      </trkpt>
      <trkpt lat="46.49371" lon="13.6618">
        <ele>823.965351</ele>
        <time>2026-07-12T16:54:40.000Z</time>
      </trkpt>
      <trkpt lat="46.49385" lon="13.66123">
        <ele>823.61769</ele>
        <time>2026-07-12T16:54:45.000Z</time>
      </trkpt>
      <trkpt lat="46.49388" lon="13.66111">
        <ele>823.545454</ele>
        <time>2026-07-12T16:54:46.000Z</time>
      </trkpt>
      <trkpt lat="46.49392" lon="13.661">
        <ele>823.473281</ele>
        <time>2026-07-12T16:54:47.000Z</time>
      </trkpt>
      <trkpt lat="46.49396" lon="13.6609">
        <ele>823.406776</ele>
        <time>2026-07-12T16:54:48.000Z</time>
      </trkpt>
      <trkpt lat="46.49399" lon="13.66079">
        <ele>823.312475</ele>
        <time>2026-07-12T16:54:49.000Z</time>
      </trkpt>
      <trkpt lat="46.49402" lon="13.66069">
        <ele>823.131334</ele>
        <time>2026-07-12T16:54:50.000Z</time>
      </trkpt>
      <trkpt lat="46.49409" lon="13.66049">
        <ele>822.770964</ele>
        <time>2026-07-12T16:54:52.000Z</time>
      </trkpt>
      <trkpt lat="46.49413" lon="13.66039">
        <ele>822.590779</ele>
        <time>2026-07-12T16:54:53.000Z</time>
      </trkpt>
      <trkpt lat="46.49435" lon="13.65971">
        <ele>821.419922</ele>
        <time>2026-07-12T16:54:59.000Z</time>
      </trkpt>
      <trkpt lat="46.49437" lon="13.65959">
        <ele>821.218861</ele>
        <time>2026-07-12T16:55:00.000Z</time>
      </trkpt>
      <trkpt lat="46.49444" lon="13.6592">
        <ele>820.588805</ele>
        <time>2026-07-12T16:55:03.000Z</time>
      </trkpt>
      <trkpt lat="46.49447" lon="13.65868">
        <ele>819.757588</ele>
        <time>2026-07-12T16:55:07.000Z</time>
      </trkpt>
      <trkpt lat="46.49446" lon="13.65855">
        <ele>819.546772</ele>
        <time>2026-07-12T16:55:08.000Z</time>
      </trkpt>
      <trkpt lat="46.4944" lon="13.65775">
        <ele>819.177251</ele>
        <time>2026-07-12T16:55:14.000Z</time>
      </trkpt>
      <trkpt lat="46.49435" lon="13.65735">
        <ele>819.137893</ele>
        <time>2026-07-12T16:55:17.000Z</time>
      </trkpt>
      <trkpt lat="46.49429" lon="13.6571">
        <ele>819.111893</ele>
        <time>2026-07-12T16:55:19.000Z</time>
      </trkpt>
      <trkpt lat="46.49414" lon="13.65636">
        <ele>819.037939</ele>
        <time>2026-07-12T16:55:25.000Z</time>
      </trkpt>
      <trkpt lat="46.49403" lon="13.65566">
        <ele>818.703405</ele>
        <time>2026-07-12T16:55:31.000Z</time>
      </trkpt>
      <trkpt lat="46.49396" lon="13.65517">
        <ele>817.77346</ele>
        <time>2026-07-12T16:55:35.000Z</time>
      </trkpt>
      <trkpt lat="46.49395" lon="13.65505">
        <ele>817.548532</ele>
        <time>2026-07-12T16:55:36.000Z</time>
      </trkpt>
      <trkpt lat="46.49386" lon="13.65431">
        <ele>816.163518</ele>
        <time>2026-07-12T16:55:42.000Z</time>
      </trkpt>
      <trkpt lat="46.49384" lon="13.65407">
        <ele>815.715208</ele>
        <time>2026-07-12T16:55:44.000Z</time>
      </trkpt>
      <trkpt lat="46.4938" lon="13.6536">
        <ele>814.840486</ele>
        <time>2026-07-12T16:55:48.000Z</time>
      </trkpt>
      <trkpt lat="46.49379" lon="13.65312">
        <ele>813.891012</ele>
        <time>2026-07-12T16:55:52.000Z</time>
      </trkpt>
      <trkpt lat="46.49378" lon="13.65274">
        <ele>813.002893</ele>
        <time>2026-07-12T16:55:55.000Z</time>
      </trkpt>
      <trkpt lat="46.49381" lon="13.65198">
        <ele>811.207476</ele>
        <time>2026-07-12T16:56:01.000Z</time>
      </trkpt>
      <trkpt lat="46.49382" lon="13.65172">
        <ele>810.606734</ele>
        <time>2026-07-12T16:56:03.000Z</time>
      </trkpt>
      <trkpt lat="46.49381" lon="13.65135">
        <ele>809.72087</ele>
        <time>2026-07-12T16:56:06.000Z</time>
      </trkpt>
      <trkpt lat="46.49382" lon="13.65122">
        <ele>809.421094</ele>
        <time>2026-07-12T16:56:07.000Z</time>
      </trkpt>
      <trkpt lat="46.49384" lon="13.65083">
        <ele>808.50636</ele>
        <time>2026-07-12T16:56:10.000Z</time>
      </trkpt>
      <trkpt lat="46.49386" lon="13.65023">
        <ele>806.878006</ele>
        <time>2026-07-12T16:56:15.000Z</time>
      </trkpt>
      <trkpt lat="46.49387" lon="13.64938">
        <ele>804.475596</ele>
        <time>2026-07-12T16:56:22.000Z</time>
      </trkpt>
      <trkpt lat="46.49387" lon="13.64916">
        <ele>803.838036</ele>
        <time>2026-07-12T16:56:24.000Z</time>
      </trkpt>
      <trkpt lat="46.49386" lon="13.64879">
        <ele>802.784289</ele>
        <time>2026-07-12T16:56:27.000Z</time>
      </trkpt>
      <trkpt lat="46.49385" lon="13.64866">
        <ele>802.429815</ele>
        <time>2026-07-12T16:56:28.000Z</time>
      </trkpt>
      <trkpt lat="46.49379" lon="13.64818">
        <ele>801.023765</ele>
        <time>2026-07-12T16:56:32.000Z</time>
      </trkpt>
      <trkpt lat="46.49375" lon="13.64793">
        <ele>800.388953</ele>
        <time>2026-07-12T16:56:34.000Z</time>
      </trkpt>
      <trkpt lat="46.49365" lon="13.64715">
        <ele>798.845558</ele>
        <time>2026-07-12T16:56:40.000Z</time>
      </trkpt>
      <trkpt lat="46.49358" lon="13.64665">
        <ele>797.849545</ele>
        <time>2026-07-12T16:56:44.000Z</time>
      </trkpt>
      <trkpt lat="46.49352" lon="13.64625">
        <ele>797.053494</ele>
        <time>2026-07-12T16:56:47.000Z</time>
      </trkpt>
      <trkpt lat="46.49348" lon="13.64599">
        <ele>796.548373</ele>
        <time>2026-07-12T16:56:49.000Z</time>
      </trkpt>
      <trkpt lat="46.49344" lon="13.64564">
        <ele>795.847342</ele>
        <time>2026-07-12T16:56:52.000Z</time>
      </trkpt>
      <trkpt lat="46.49337" lon="13.64514">
        <ele>794.999997</ele>
        <time>2026-07-12T16:56:56.000Z</time>
      </trkpt>
      <trkpt lat="46.49323" lon="13.64431">
        <ele>793.713079</ele>
        <time>2026-07-12T16:57:03.000Z</time>
      </trkpt>
      <trkpt lat="46.49315" lon="13.64397">
        <ele>793.162788</ele>
        <time>2026-07-12T16:57:06.000Z</time>
      </trkpt>
      <trkpt lat="46.49311" lon="13.64372">
        <ele>792.786403</ele>
        <time>2026-07-12T16:57:08.000Z</time>
      </trkpt>
      <trkpt lat="46.49301" lon="13.64294">
        <ele>791.595308</ele>
        <time>2026-07-12T16:57:14.000Z</time>
      </trkpt>
      <trkpt lat="46.49292" lon="13.64236">
        <ele>790.490091</ele>
        <time>2026-07-12T16:57:19.000Z</time>
      </trkpt>
      <trkpt lat="46.49281" lon="13.64163">
        <ele>789.106715</ele>
        <time>2026-07-12T16:57:25.000Z</time>
      </trkpt>
      <trkpt lat="46.49279" lon="13.64141">
        <ele>788.700598</ele>
        <time>2026-07-12T16:57:27.000Z</time>
      </trkpt>
      <trkpt lat="46.49279" lon="13.64133">
        <ele>788.553793</ele>
        <time>2026-07-12T16:57:28.000Z</time>
      </trkpt>
      <trkpt lat="46.49283" lon="13.64109">
        <ele>788.088941</ele>
        <time>2026-07-12T16:57:31.000Z</time>
      </trkpt>
      <trkpt lat="46.49284" lon="13.64099">
        <ele>787.914213</ele>
        <time>2026-07-12T16:57:32.000Z</time>
      </trkpt>
      <trkpt lat="46.49287" lon="13.64054">
        <ele>787.065518</ele>
        <time>2026-07-12T16:57:36.000Z</time>
      </trkpt>
      <trkpt lat="46.493" lon="13.63992">
        <ele>786.23133</ele>
        <time>2026-07-12T16:57:41.000Z</time>
      </trkpt>
      <trkpt lat="46.49303" lon="13.63977">
        <ele>786.071821</ele>
        <time>2026-07-12T16:57:42.000Z</time>
      </trkpt>
      <trkpt lat="46.49318" lon="13.63899">
        <ele>785.231897</ele>
        <time>2026-07-12T16:57:48.000Z</time>
      </trkpt>
      <trkpt lat="46.49321" lon="13.63873">
        <ele>784.951997</ele>
        <time>2026-07-12T16:57:50.000Z</time>
      </trkpt>
      <trkpt lat="46.49325" lon="13.63847">
        <ele>784.682609</ele>
        <time>2026-07-12T16:57:52.000Z</time>
      </trkpt>
      <trkpt lat="46.49334" lon="13.63797">
        <ele>784.142045</ele>
        <time>2026-07-12T16:57:56.000Z</time>
      </trkpt>
      <trkpt lat="46.49344" lon="13.63739">
        <ele>783.38775</ele>
        <time>2026-07-12T16:58:01.000Z</time>
      </trkpt>
      <trkpt lat="46.49358" lon="13.63662">
        <ele>782.320769</ele>
        <time>2026-07-12T16:58:07.000Z</time>
      </trkpt>
      <trkpt lat="46.49363" lon="13.63624">
        <ele>781.805253</ele>
        <time>2026-07-12T16:58:10.000Z</time>
      </trkpt>
      <trkpt lat="46.49372" lon="13.63564">
        <ele>780.983084</ele>
        <time>2026-07-12T16:58:15.000Z</time>
      </trkpt>
      <trkpt lat="46.49387" lon="13.63495">
        <ele>779.758393</ele>
        <time>2026-07-12T16:58:21.000Z</time>
      </trkpt>
      <trkpt lat="46.49398" lon="13.63466">
        <ele>779.089022</ele>
        <time>2026-07-12T16:58:24.000Z</time>
      </trkpt>
      <trkpt lat="46.49416" lon="13.63423">
        <ele>778.037957</ele>
        <time>2026-07-12T16:58:28.000Z</time>
      </trkpt>
      <trkpt lat="46.49446" lon="13.6335">
        <ele>776.274898</ele>
        <time>2026-07-12T16:58:35.000Z</time>
      </trkpt>
      <trkpt lat="46.49459" lon="13.6332">
        <ele>775.542103</ele>
        <time>2026-07-12T16:58:38.000Z</time>
      </trkpt>
      <trkpt lat="46.49477" lon="13.6327">
        <ele>775.088062</ele>
        <time>2026-07-12T16:58:43.000Z</time>
      </trkpt>
      <trkpt lat="46.49486" lon="13.63251">
        <ele>775.082464</ele>
        <time>2026-07-12T16:58:45.000Z</time>
      </trkpt>
      <trkpt lat="46.49491" lon="13.63242">
        <ele>775.079582</ele>
        <time>2026-07-12T16:58:46.000Z</time>
      </trkpt>
      <trkpt lat="46.49496" lon="13.63232">
        <ele>775.076582</ele>
        <time>2026-07-12T16:58:47.000Z</time>
      </trkpt>
      <trkpt lat="46.49512" lon="13.63206">
        <ele>775.068051</ele>
        <time>2026-07-12T16:58:50.000Z</time>
      </trkpt>
      <trkpt lat="46.49517" lon="13.632">
        <ele>775.065851</ele>
        <time>2026-07-12T16:58:51.000Z</time>
      </trkpt>
      <trkpt lat="46.49523" lon="13.63192">
        <ele>775.062956</ele>
        <time>2026-07-12T16:58:52.000Z</time>
      </trkpt>
      <trkpt lat="46.49536" lon="13.63177">
        <ele>775.057016</ele>
        <time>2026-07-12T16:58:54.000Z</time>
      </trkpt>
      <trkpt lat="46.49542" lon="13.6317">
        <ele>775.054115</ele>
        <time>2026-07-12T16:58:55.000Z</time>
      </trkpt>
      <trkpt lat="46.49556" lon="13.63161">
        <ele>775.04875</ele>
        <time>2026-07-12T16:58:57.000Z</time>
      </trkpt>
      <trkpt lat="46.49606" lon="13.6312">
        <ele>775.007386</ele>
        <time>2026-07-12T16:59:04.000Z</time>
      </trkpt>
      <trkpt lat="46.49643" lon="13.63093">
        <ele>774.920749</ele>
        <time>2026-07-12T16:59:09.000Z</time>
      </trkpt>
      <trkpt lat="46.49662" lon="13.63076">
        <ele>774.872942</ele>
        <time>2026-07-12T16:59:12.000Z</time>
      </trkpt>
      <trkpt lat="46.49682" lon="13.6306">
        <ele>774.824102</ele>
        <time>2026-07-12T16:59:15.000Z</time>
      </trkpt>
      <trkpt lat="46.49717" lon="13.63032">
        <ele>774.740725</ele>
        <time>2026-07-12T16:59:20.000Z</time>
      </trkpt>
      <trkpt lat="46.49765" lon="13.62993">
        <ele>774.641756</ele>
        <time>2026-07-12T16:59:27.000Z</time>
      </trkpt>
      <trkpt lat="46.4977" lon="13.62988">
        <ele>774.636307</ele>
        <time>2026-07-12T16:59:28.000Z</time>
      </trkpt>
      <trkpt lat="46.49805" lon="13.62958">
        <ele>774.601202</ele>
        <time>2026-07-12T16:59:33.000Z</time>
      </trkpt>
      <trkpt lat="46.49825" lon="13.62939">
        <ele>774.580497</ele>
        <time>2026-07-12T16:59:36.000Z</time>
      </trkpt>
      <trkpt lat="46.49842" lon="13.6292">
        <ele>774.561429</ele>
        <time>2026-07-12T16:59:39.000Z</time>
      </trkpt>
      <trkpt lat="46.49868" lon="13.62888">
        <ele>774.53217</ele>
        <time>2026-07-12T16:59:43.000Z</time>
      </trkpt>
      <trkpt lat="46.49907" lon="13.62829">
        <ele>774.272035</ele>
        <time>2026-07-12T16:59:50.000Z</time>
      </trkpt>
      <trkpt lat="46.49922" lon="13.62804">
        <ele>773.959231</ele>
        <time>2026-07-12T16:59:53.000Z</time>
      </trkpt>
      <trkpt lat="46.49936" lon="13.62774">
        <ele>773.605089</ele>
        <time>2026-07-12T16:59:56.000Z</time>
      </trkpt>
      <trkpt lat="46.49966" lon="13.62709">
        <ele>772.852504</ele>
        <time>2026-07-12T17:00:03.000Z</time>
      </trkpt>
      <trkpt lat="46.49971" lon="13.62697">
        <ele>772.720847</ele>
        <time>2026-07-12T17:00:04.000Z</time>
      </trkpt>
      <trkpt lat="46.49987" lon="13.62658">
        <ele>772.28703</ele>
        <time>2026-07-12T17:00:08.000Z</time>
      </trkpt>
      <trkpt lat="46.50013" lon="13.62594">
        <ele>770.733863</ele>
        <time>2026-07-12T17:00:14.000Z</time>
      </trkpt>
      <trkpt lat="46.5002" lon="13.62574">
        <ele>770.067494</ele>
        <time>2026-07-12T17:00:16.000Z</time>
      </trkpt>
      <trkpt lat="46.50025" lon="13.62564">
        <ele>769.714953</ele>
        <time>2026-07-12T17:00:17.000Z</time>
      </trkpt>
      <trkpt lat="46.5004" lon="13.62527">
        <ele>768.493268</ele>
        <time>2026-07-12T17:00:21.000Z</time>
      </trkpt>
      <trkpt lat="46.50049" lon="13.62509">
        <ele>767.844664</ele>
        <time>2026-07-12T17:00:23.000Z</time>
      </trkpt>
      <trkpt lat="46.50077" lon="13.6247">
        <ele>766.198084</ele>
        <time>2026-07-12T17:00:28.000Z</time>
      </trkpt>
      <trkpt lat="46.50126" lon="13.6242">
        <ele>764.381278</ele>
        <time>2026-07-12T17:00:35.000Z</time>
      </trkpt>
      <trkpt lat="46.50165" lon="13.6238">
        <ele>764.222484</ele>
        <time>2026-07-12T17:00:41.000Z</time>
      </trkpt>
      <trkpt lat="46.50197" lon="13.62344">
        <ele>764.086069</ele>
        <time>2026-07-12T17:00:46.000Z</time>
      </trkpt>
      <trkpt lat="46.50206" lon="13.62323">
        <ele>764.031124</ele>
        <time>2026-07-12T17:00:48.000Z</time>
      </trkpt>
      <trkpt lat="46.50211" lon="13.62313">
        <ele>764.003195</ele>
        <time>2026-07-12T17:00:49.000Z</time>
      </trkpt>
      <trkpt lat="46.50217" lon="13.62302">
        <ele>763.969743</ele>
        <time>2026-07-12T17:00:50.000Z</time>
      </trkpt>
      <trkpt lat="46.5023" lon="13.62287">
        <ele>763.91429</ele>
        <time>2026-07-12T17:00:52.000Z</time>
      </trkpt>
      <trkpt lat="46.50247" lon="13.62273">
        <ele>763.852448</ele>
        <time>2026-07-12T17:00:54.000Z</time>
      </trkpt>
      <trkpt lat="46.50262" lon="13.62266">
        <ele>763.66239</ele>
        <time>2026-07-12T17:00:56.000Z</time>
      </trkpt>
      <trkpt lat="46.50276" lon="13.62259">
        <ele>763.456414</ele>
        <time>2026-07-12T17:00:58.000Z</time>
      </trkpt>
      <trkpt lat="46.50286" lon="13.62247">
        <ele>763.276324</ele>
        <time>2026-07-12T17:01:00.000Z</time>
      </trkpt>
      <trkpt lat="46.50321" lon="13.62211">
        <ele>762.688612</ele>
        <time>2026-07-12T17:01:06.000Z</time>
      </trkpt>
      <trkpt lat="46.50353" lon="13.62178">
        <ele>762.141058</ele>
        <time>2026-07-12T17:01:11.000Z</time>
      </trkpt>
      <trkpt lat="46.50399" lon="13.6213">
        <ele>761.360987</ele>
        <time>2026-07-12T17:01:18.000Z</time>
      </trkpt>
      <trkpt lat="46.50445" lon="13.62083">
        <ele>761.030697</ele>
        <time>2026-07-12T17:01:25.000Z</time>
      </trkpt>
      <trkpt lat="46.50463" lon="13.62061">
        <ele>760.892696</ele>
        <time>2026-07-12T17:01:28.000Z</time>
      </trkpt>
      <trkpt lat="46.50506" lon="13.62011">
        <ele>760.568979</ele>
        <time>2026-07-12T17:01:35.000Z</time>
      </trkpt>
      <trkpt lat="46.50526" lon="13.61988">
        <ele>760.423004</ele>
        <time>2026-07-12T17:01:38.000Z</time>
      </trkpt>
      <trkpt lat="46.50559" lon="13.61952">
        <ele>759.51457</ele>
        <time>2026-07-12T17:01:43.000Z</time>
      </trkpt>
      <trkpt lat="46.50587" lon="13.61923">
        <ele>758.26707</ele>
        <time>2026-07-12T17:01:47.000Z</time>
      </trkpt>
      <trkpt lat="46.50604" lon="13.61904">
        <ele>757.462944</ele>
        <time>2026-07-12T17:01:50.000Z</time>
      </trkpt>
      <trkpt lat="46.50636" lon="13.61869">
        <ele>756.030269</ele>
        <time>2026-07-12T17:01:55.000Z</time>
      </trkpt>
      <trkpt lat="46.50646" lon="13.61853">
        <ele>755.483018</ele>
        <time>2026-07-12T17:01:57.000Z</time>
      </trkpt>
      <trkpt lat="46.50662" lon="13.61831">
        <ele>754.665775</ele>
        <time>2026-07-12T17:02:00.000Z</time>
      </trkpt>
      <trkpt lat="46.50678" lon="13.61805">
        <ele>753.776359</ele>
        <time>2026-07-12T17:02:03.000Z</time>
      </trkpt>
      <trkpt lat="46.50703" lon="13.61752">
        <ele>752.725353</ele>
        <time>2026-07-12T17:02:09.000Z</time>
      </trkpt>
      <trkpt lat="46.50718" lon="13.61719">
        <ele>752.061305</ele>
        <time>2026-07-12T17:02:13.000Z</time>
      </trkpt>
      <trkpt lat="46.50722" lon="13.61709">
        <ele>751.885492</ele>
        <time>2026-07-12T17:02:14.000Z</time>
      </trkpt>
      <trkpt lat="46.50733" lon="13.6167">
        <ele>751.184492</ele>
        <time>2026-07-12T17:02:18.000Z</time>
      </trkpt>
      <trkpt lat="46.50736" lon="13.61661">
        <ele>751.01389</ele>
        <time>2026-07-12T17:02:19.000Z</time>
      </trkpt>
      <trkpt lat="46.50745" lon="13.61633">
        <ele>750.504503</ele>
        <time>2026-07-12T17:02:22.000Z</time>
      </trkpt>
      <trkpt lat="46.50749" lon="13.61614">
        <ele>750.191631</ele>
        <time>2026-07-12T17:02:24.000Z</time>
      </trkpt>
      <trkpt lat="46.50752" lon="13.61603">
        <ele>749.986237</ele>
        <time>2026-07-12T17:02:25.000Z</time>
      </trkpt>
      <trkpt lat="46.50759" lon="13.61578">
        <ele>749.537604</ele>
        <time>2026-07-12T17:02:28.000Z</time>
      </trkpt>
      <trkpt lat="46.50762" lon="13.6156">
        <ele>749.353843</ele>
        <time>2026-07-12T17:02:30.000Z</time>
      </trkpt>
      <trkpt lat="46.50766" lon="13.61532">
        <ele>749.166237</ele>
        <time>2026-07-12T17:02:33.000Z</time>
      </trkpt>
      <trkpt lat="46.5077" lon="13.61513">
        <ele>749.035986</ele>
        <time>2026-07-12T17:02:35.000Z</time>
      </trkpt>
      <trkpt lat="46.50774" lon="13.61502">
        <ele>748.957321</ele>
        <time>2026-07-12T17:02:36.000Z</time>
      </trkpt>
      <trkpt lat="46.50797" lon="13.61444">
        <ele>748.504007</ele>
        <time>2026-07-12T17:02:43.000Z</time>
      </trkpt>
      <trkpt lat="46.50827" lon="13.61392">
        <ele>748.05493</ele>
        <time>2026-07-12T17:02:50.000Z</time>
      </trkpt>
      <trkpt lat="46.50856" lon="13.61344">
        <ele>747.50435</ele>
        <time>2026-07-12T17:02:57.000Z</time>
      </trkpt>
      <trkpt lat="46.50863" lon="13.6133">
        <ele>747.161086</ele>
        <time>2026-07-12T17:02:59.000Z</time>
      </trkpt>
      <trkpt lat="46.50869" lon="13.61319">
        <ele>746.896976</ele>
        <time>2026-07-12T17:03:01.000Z</time>
      </trkpt>
      <trkpt lat="46.50877" lon="13.61308">
        <ele>746.559888</ele>
        <time>2026-07-12T17:03:03.000Z</time>
      </trkpt>
      <trkpt lat="46.5089" lon="13.61297">
        <ele>746.133361</ele>
        <time>2026-07-12T17:03:05.000Z</time>
      </trkpt>
      <trkpt lat="46.50913" lon="13.61285">
        <ele>745.45853</ele>
        <time>2026-07-12T17:03:08.000Z</time>
      </trkpt>
      <trkpt lat="46.50921" lon="13.61283">
        <ele>745.214509</ele>
        <time>2026-07-12T17:03:09.000Z</time>
      </trkpt>
      <trkpt lat="46.50949" lon="13.61279">
        <ele>744.420038</ele>
        <time>2026-07-12T17:03:12.000Z</time>
      </trkpt>
      <trkpt lat="46.50956" lon="13.61276">
        <ele>744.202923</ele>
        <time>2026-07-12T17:03:13.000Z</time>
      </trkpt>
      <trkpt lat="46.50966" lon="13.61268">
        <ele>743.875684</ele>
        <time>2026-07-12T17:03:14.000Z</time>
      </trkpt>
      <trkpt lat="46.5098" lon="13.61249">
        <ele>743.319849</ele>
        <time>2026-07-12T17:03:16.000Z</time>
      </trkpt>
      <trkpt lat="46.50991" lon="13.61227">
        <ele>742.800283</ele>
        <time>2026-07-12T17:03:18.000Z</time>
      </trkpt>
      <trkpt lat="46.50995" lon="13.61216">
        <ele>742.585888</ele>
        <time>2026-07-12T17:03:19.000Z</time>
      </trkpt>
      <trkpt lat="46.50995" lon="13.61207">
        <ele>742.879707</ele>
        <time>2026-07-12T17:03:20.000Z</time>
      </trkpt>
      <trkpt lat="46.50995" lon="13.61195">
        <ele>743.237557</ele>
        <time>2026-07-12T17:03:21.000Z</time>
      </trkpt>
      <trkpt lat="46.50992" lon="13.61185">
        <ele>743.587384</ele>
        <time>2026-07-12T17:03:22.000Z</time>
      </trkpt>
      <trkpt lat="46.50989" lon="13.61175">
        <ele>743.927367</ele>
        <time>2026-07-12T17:03:23.000Z</time>
      </trkpt>
      <trkpt lat="46.50974" lon="13.61143">
        <ele>745.146697</ele>
        <time>2026-07-12T17:03:27.000Z</time>
      </trkpt>
      <trkpt lat="46.50972" lon="13.61135">
        <ele>745.408838</ele>
        <time>2026-07-12T17:03:28.000Z</time>
      </trkpt>
      <trkpt lat="46.50966" lon="13.61115">
        <ele>746.086334</ele>
        <time>2026-07-12T17:03:31.000Z</time>
      </trkpt>
      <trkpt lat="46.50963" lon="13.61104">
        <ele>746.485635</ele>
        <time>2026-07-12T17:03:33.000Z</time>
      </trkpt>
      <trkpt lat="46.50954" lon="13.6108">
        <ele>747.335382</ele>
        <time>2026-07-12T17:03:38.000Z</time>
      </trkpt>
      <trkpt lat="46.50945" lon="13.6105">
        <ele>748.349861</ele>
        <time>2026-07-12T17:03:45.000Z</time>
      </trkpt>
      <trkpt lat="46.5094" lon="13.61039">
        <ele>748.773652</ele>
        <time>2026-07-12T17:03:48.000Z</time>
      </trkpt>
      <trkpt lat="46.50938" lon="13.61035">
        <ele>748.915991</ele>
        <time>2026-07-12T17:03:49.000Z</time>
      </trkpt>
      <trkpt lat="46.50934" lon="13.61027">
        <ele>749.219116</ele>
        <time>2026-07-12T17:03:51.000Z</time>
      </trkpt>
      <trkpt lat="46.50915" lon="13.60997">
        <ele>750.494925</ele>
        <time>2026-07-12T17:03:59.000Z</time>
      </trkpt>
      <trkpt lat="46.50908" lon="13.60988">
        <ele>750.717494</ele>
        <time>2026-07-12T17:04:01.000Z</time>
      </trkpt>
      <trkpt lat="46.50901" lon="13.60977">
        <ele>750.585994</ele>
        <time>2026-07-12T17:04:04.000Z</time>
      </trkpt>
      <trkpt lat="46.5088" lon="13.60951">
        <ele>750.246484</ele>
        <time>2026-07-12T17:04:10.000Z</time>
      </trkpt>
      <trkpt lat="46.50876" lon="13.60946">
        <ele>750.179553</ele>
        <time>2026-07-12T17:04:11.000Z</time>
      </trkpt>
      <trkpt lat="46.50862" lon="13.60932">
        <ele>749.968818</ele>
        <time>2026-07-12T17:04:14.000Z</time>
      </trkpt>
      <trkpt lat="46.50844" lon="13.60913">
        <ele>749.696251</ele>
        <time>2026-07-12T17:04:17.000Z</time>
      </trkpt>
      <trkpt lat="46.50833" lon="13.60902">
        <ele>749.530503</ele>
        <time>2026-07-12T17:04:19.000Z</time>
      </trkpt>
      <trkpt lat="46.508" lon="13.60865">
        <ele>749.015107</ele>
        <time>2026-07-12T17:04:26.000Z</time>
      </trkpt>
      <trkpt lat="46.50796" lon="13.60859">
        <ele>748.941797</ele>
        <time>2026-07-12T17:04:27.000Z</time>
      </trkpt>
      <trkpt lat="46.50771" lon="13.60822">
        <ele>748.49212</ele>
        <time>2026-07-12T17:04:33.000Z</time>
      </trkpt>
      <trkpt lat="46.50762" lon="13.60808">
        <ele>748.270252</ele>
        <time>2026-07-12T17:04:35.000Z</time>
      </trkpt>
      <trkpt lat="46.50732" lon="13.60763">
        <ele>747.542613</ele>
        <time>2026-07-12T17:04:42.000Z</time>
      </trkpt>
      <trkpt lat="46.50713" lon="13.60734">
        <ele>747.089561</ele>
        <time>2026-07-12T17:04:46.000Z</time>
      </trkpt>
      <trkpt lat="46.50708" lon="13.60715">
        <ele>746.858417</ele>
        <time>2026-07-12T17:04:48.000Z</time>
      </trkpt>
      <trkpt lat="46.50707" lon="13.60694">
        <ele>746.609886</ele>
        <time>2026-07-12T17:04:50.000Z</time>
      </trkpt>
      <trkpt lat="46.50707" lon="13.60671">
        <ele>746.350641</ele>
        <time>2026-07-12T17:04:52.000Z</time>
      </trkpt>
      <trkpt lat="46.50703" lon="13.60651">
        <ele>746.110027</ele>
        <time>2026-07-12T17:04:54.000Z</time>
      </trkpt>
      <trkpt lat="46.507" lon="13.60643">
        <ele>745.999833</ele>
        <time>2026-07-12T17:04:55.000Z</time>
      </trkpt>
      <trkpt lat="46.50695" lon="13.60636">
        <ele>745.891608</ele>
        <time>2026-07-12T17:04:56.000Z</time>
      </trkpt>
      <trkpt lat="46.50685" lon="13.60625">
        <ele>745.683593</ele>
        <time>2026-07-12T17:04:58.000Z</time>
      </trkpt>
      <trkpt lat="46.50661" lon="13.60609">
        <ele>745.875426</ele>
        <time>2026-07-12T17:05:03.000Z</time>
      </trkpt>
      <trkpt lat="46.50632" lon="13.60584">
        <ele>746.543894</ele>
        <time>2026-07-12T17:05:10.000Z</time>
      </trkpt>
      <trkpt lat="46.50629" lon="13.6058">
        <ele>746.629034</ele>
        <time>2026-07-12T17:05:11.000Z</time>
      </trkpt>
      <trkpt lat="46.50619" lon="13.60559">
        <ele>746.978746</ele>
        <time>2026-07-12T17:05:15.000Z</time>
      </trkpt>
      <trkpt lat="46.50617" lon="13.60554">
        <ele>747.060304</ele>
        <time>2026-07-12T17:05:16.000Z</time>
      </trkpt>
      <trkpt lat="46.50613" lon="13.6053">
        <ele>747.38965</ele>
        <time>2026-07-12T17:05:20.000Z</time>
      </trkpt>
      <trkpt lat="46.50612" lon="13.60519">
        <ele>747.54669</ele>
        <time>2026-07-12T17:05:22.000Z</time>
      </trkpt>
      <trkpt lat="46.50611" lon="13.60493">
        <ele>747.902778</ele>
        <time>2026-07-12T17:05:27.000Z</time>
      </trkpt>
      <trkpt lat="46.50612" lon="13.60469">
        <ele>748.237253</ele>
        <time>2026-07-12T17:05:32.000Z</time>
      </trkpt>
      <trkpt lat="46.50613" lon="13.60453">
        <ele>748.459899</ele>
        <time>2026-07-12T17:05:35.000Z</time>
      </trkpt>
      <trkpt lat="46.50615" lon="13.60428">
        <ele>748.805514</ele>
        <time>2026-07-12T17:05:39.000Z</time>
      </trkpt>
      <trkpt lat="46.50612" lon="13.60393">
        <ele>748.906999</ele>
        <time>2026-07-12T17:05:45.000Z</time>
      </trkpt>
      <trkpt lat="46.50605" lon="13.60368">
        <ele>748.4373</ele>
        <time>2026-07-12T17:05:49.000Z</time>
      </trkpt>
      <trkpt lat="46.50602" lon="13.6036">
        <ele>748.275438</ele>
        <time>2026-07-12T17:05:50.000Z</time>
      </trkpt>
      <trkpt lat="46.50599" lon="13.60353">
        <ele>748.130323</ele>
        <time>2026-07-12T17:05:51.000Z</time>
      </trkpt>
      <trkpt lat="46.50598" lon="13.60338">
        <ele>747.865553</ele>
        <time>2026-07-12T17:05:53.000Z</time>
      </trkpt>
      <trkpt lat="46.50602" lon="13.60316">
        <ele>747.482003</ele>
        <time>2026-07-12T17:05:55.000Z</time>
      </trkpt>
      <trkpt lat="46.50605" lon="13.60305">
        <ele>747.277325</ele>
        <time>2026-07-12T17:05:56.000Z</time>
      </trkpt>
      <trkpt lat="46.50616" lon="13.60276">
        <ele>746.700507</ele>
        <time>2026-07-12T17:05:59.000Z</time>
      </trkpt>
      <trkpt lat="46.50628" lon="13.60256">
        <ele>746.241354</ele>
        <time>2026-07-12T17:06:01.000Z</time>
      </trkpt>
      <trkpt lat="46.50668" lon="13.60202">
        <ele>744.868801</ele>
        <time>2026-07-12T17:06:08.000Z</time>
      </trkpt>
      <trkpt lat="46.50674" lon="13.60195">
        <ele>744.671476</ele>
        <time>2026-07-12T17:06:09.000Z</time>
      </trkpt>
      <trkpt lat="46.50719" lon="13.60137">
        <ele>741.895206</ele>
        <time>2026-07-12T17:06:17.000Z</time>
      </trkpt>
      <trkpt lat="46.50757" lon="13.60082">
        <ele>739.362416</ele>
        <time>2026-07-12T17:06:24.000Z</time>
      </trkpt>
      <trkpt lat="46.50762" lon="13.60071">
        <ele>738.933635</ele>
        <time>2026-07-12T17:06:25.000Z</time>
      </trkpt>
      <trkpt lat="46.50771" lon="13.60041">
        <ele>737.889996</ele>
        <time>2026-07-12T17:06:28.000Z</time>
      </trkpt>
      <trkpt lat="46.50779" lon="13.60013">
        <ele>736.886407</ele>
        <time>2026-07-12T17:06:31.000Z</time>
      </trkpt>
      <trkpt lat="46.50786" lon="13.59999">
        <ele>736.301617</ele>
        <time>2026-07-12T17:06:33.000Z</time>
      </trkpt>
      <trkpt lat="46.5079" lon="13.59992">
        <ele>736.061329</ele>
        <time>2026-07-12T17:06:34.000Z</time>
      </trkpt>
      <trkpt lat="46.50791" lon="13.59976">
        <ele>735.871191</ele>
        <time>2026-07-12T17:06:36.000Z</time>
      </trkpt>
      <trkpt lat="46.50784" lon="13.59936">
        <ele>735.358276</ele>
        <time>2026-07-12T17:06:41.000Z</time>
      </trkpt>
      <trkpt lat="46.50779" lon="13.59895">
        <ele>734.851808</ele>
        <time>2026-07-12T17:06:46.000Z</time>
      </trkpt>
      <trkpt lat="46.50777" lon="13.59879">
        <ele>734.659236</ele>
        <time>2026-07-12T17:06:48.000Z</time>
      </trkpt>
      <trkpt lat="46.50775" lon="13.5985">
        <ele>734.296117</ele>
        <time>2026-07-12T17:06:52.000Z</time>
      </trkpt>
      <trkpt lat="46.50773" lon="13.59835">
        <ele>734.113442</ele>
        <time>2026-07-12T17:06:54.000Z</time>
      </trkpt>
      <trkpt lat="46.50767" lon="13.59776">
        <ele>733.385891</ele>
        <time>2026-07-12T17:07:02.000Z</time>
      </trkpt>
      <trkpt lat="46.50766" lon="13.59768">
        <ele>733.292412</ele>
        <time>2026-07-12T17:07:03.000Z</time>
      </trkpt>
      <trkpt lat="46.50757" lon="13.59729">
        <ele>733.003694</ele>
        <time>2026-07-12T17:07:08.000Z</time>
      </trkpt>
      <trkpt lat="46.50748" lon="13.59699">
        <ele>733.382991</ele>
        <time>2026-07-12T17:07:12.000Z</time>
      </trkpt>
      <trkpt lat="46.50734" lon="13.59665">
        <ele>733.840169</ele>
        <time>2026-07-12T17:07:17.000Z</time>
      </trkpt>
      <trkpt lat="46.50713" lon="13.59626">
        <ele>734.407711</ele>
        <time>2026-07-12T17:07:23.000Z</time>
      </trkpt>
      <trkpt lat="46.50685" lon="13.59587">
        <ele>735.056279</ele>
        <time>2026-07-12T17:07:30.000Z</time>
      </trkpt>
      <trkpt lat="46.5066" lon="13.59556">
        <ele>735.605001</ele>
        <time>2026-07-12T17:07:36.000Z</time>
      </trkpt>
      <trkpt lat="46.50651" lon="13.59543">
        <ele>735.819672</ele>
        <time>2026-07-12T17:07:38.000Z</time>
      </trkpt>
      <trkpt lat="46.50611" lon="13.59487">
        <ele>735.706672</ele>
        <time>2026-07-12T17:07:48.000Z</time>
      </trkpt>
      <trkpt lat="46.506" lon="13.59467">
        <ele>735.634835</ele>
        <time>2026-07-12T17:07:51.000Z</time>
      </trkpt>
      <trkpt lat="46.5059" lon="13.59446">
        <ele>735.563505</ele>
        <time>2026-07-12T17:07:54.000Z</time>
      </trkpt>
      <trkpt lat="46.50586" lon="13.5944">
        <ele>735.540722</ele>
        <time>2026-07-12T17:07:55.000Z</time>
      </trkpt>
      <trkpt lat="46.50579" lon="13.59418">
        <ele>735.471291</ele>
        <time>2026-07-12T17:07:58.000Z</time>
      </trkpt>
      <trkpt lat="46.50573" lon="13.59402">
        <ele>735.42138</ele>
        <time>2026-07-12T17:08:00.000Z</time>
      </trkpt>
      <trkpt lat="46.50566" lon="13.59371">
        <ele>735.330751</ele>
        <time>2026-07-12T17:08:04.000Z</time>
      </trkpt>
      <trkpt lat="46.5056" lon="13.59314">
        <ele>735.181206</ele>
        <time>2026-07-12T17:08:11.000Z</time>
      </trkpt>
      <trkpt lat="46.50559" lon="13.59298">
        <ele>735.186951</ele>
        <time>2026-07-12T17:08:13.000Z</time>
      </trkpt>
      <trkpt lat="46.50555" lon="13.59254">
        <ele>735.202195</ele>
        <time>2026-07-12T17:08:18.000Z</time>
      </trkpt>
      <trkpt lat="46.50555" lon="13.59245">
        <ele>735.205184</ele>
        <time>2026-07-12T17:08:19.000Z</time>
      </trkpt>
      <trkpt lat="46.50552" lon="13.59177">
        <ele>735.228941</ele>
        <time>2026-07-12T17:08:27.000Z</time>
      </trkpt>
      <trkpt lat="46.50548" lon="13.59126">
        <ele>735.246698</ele>
        <time>2026-07-12T17:08:33.000Z</time>
      </trkpt>
      <trkpt lat="46.50545" lon="13.59086">
        <ele>735.260828</ele>
        <time>2026-07-12T17:08:38.000Z</time>
      </trkpt>
      <trkpt lat="46.50543" lon="13.59046">
        <ele>735.485752</ele>
        <time>2026-07-12T17:08:43.000Z</time>
      </trkpt>
      <trkpt lat="46.50543" lon="13.59038">
        <ele>735.62103</ele>
        <time>2026-07-12T17:08:44.000Z</time>
      </trkpt>
      <trkpt lat="46.50541" lon="13.59008">
        <ele>736.171976</ele>
        <time>2026-07-12T17:08:48.000Z</time>
      </trkpt>
      <trkpt lat="46.50538" lon="13.58984">
        <ele>736.59971</ele>
        <time>2026-07-12T17:08:51.000Z</time>
      </trkpt>
      <trkpt lat="46.50524" lon="13.58914">
        <ele>737.919958</ele>
        <time>2026-07-12T17:09:01.000Z</time>
      </trkpt>
      <trkpt lat="46.50521" lon="13.58899">
        <ele>738.195978</ele>
        <time>2026-07-12T17:09:03.000Z</time>
      </trkpt>
      <trkpt lat="46.50515" lon="13.5888">
        <ele>738.560052</ele>
        <time>2026-07-12T17:09:06.000Z</time>
      </trkpt>
      <trkpt lat="46.50512" lon="13.58868">
        <ele>738.790949</ele>
        <time>2026-07-12T17:09:08.000Z</time>
      </trkpt>
      <trkpt lat="46.50506" lon="13.58841">
        <ele>739.30108</ele>
        <time>2026-07-12T17:09:12.000Z</time>
      </trkpt>
      <trkpt lat="46.50504" lon="13.58823">
        <ele>739.630751</ele>
        <time>2026-07-12T17:09:15.000Z</time>
      </trkpt>
      <trkpt lat="46.50503" lon="13.58817">
        <ele>739.746825</ele>
        <time>2026-07-12T17:09:16.000Z</time>
      </trkpt>
      <trkpt lat="46.50501" lon="13.58804">
        <ele>739.964496</ele>
        <time>2026-07-12T17:09:18.000Z</time>
      </trkpt>
      <trkpt lat="46.50496" lon="13.58761">
        <ele>740.079654</ele>
        <time>2026-07-12T17:09:25.000Z</time>
      </trkpt>
      <trkpt lat="46.50493" lon="13.58722">
        <ele>740.179533</ele>
        <time>2026-07-12T17:09:31.000Z</time>
      </trkpt>
      <trkpt lat="46.50492" lon="13.58715">
        <ele>740.198614</ele>
        <time>2026-07-12T17:09:32.000Z</time>
      </trkpt>
      <trkpt lat="46.50489" lon="13.58692">
        <ele>740.259227</ele>
        <time>2026-07-12T17:09:36.000Z</time>
      </trkpt>
      <trkpt lat="46.50487" lon="13.58672">
        <ele>740.311134</ele>
        <time>2026-07-12T17:09:39.000Z</time>
      </trkpt>
      <trkpt lat="46.5048" lon="13.58636">
        <ele>740.409486</ele>
        <time>2026-07-12T17:09:45.000Z</time>
      </trkpt>
      <trkpt lat="46.50476" lon="13.58619">
        <ele>740.45674</ele>
        <time>2026-07-12T17:09:48.000Z</time>
      </trkpt>
      <trkpt lat="46.50471" lon="13.586">
        <ele>740.510203</ele>
        <time>2026-07-12T17:09:51.000Z</time>
      </trkpt>
      <trkpt lat="46.50466" lon="13.58581">
        <ele>740.561835</ele>
        <time>2026-07-12T17:09:54.000Z</time>
      </trkpt>
      <trkpt lat="46.50463" lon="13.5857">
        <ele>740.591951</ele>
        <time>2026-07-12T17:09:56.000Z</time>
      </trkpt>
      <trkpt lat="46.5045" lon="13.58523">
        <ele>741.127826</ele>
        <time>2026-07-12T17:10:04.000Z</time>
      </trkpt>
      <trkpt lat="46.50446" lon="13.58499">
        <ele>741.496243</ele>
        <time>2026-07-12T17:10:08.000Z</time>
      </trkpt>
      <trkpt lat="46.50443" lon="13.58479">
        <ele>741.797786</ele>
        <time>2026-07-12T17:10:11.000Z</time>
      </trkpt>
      <trkpt lat="46.50442" lon="13.58473">
        <ele>741.890034</ele>
        <time>2026-07-12T17:10:12.000Z</time>
      </trkpt>
      <trkpt lat="46.50441" lon="13.58419">
        <ele>742.710591</ele>
        <time>2026-07-12T17:10:21.000Z</time>
      </trkpt>
      <trkpt lat="46.50442" lon="13.58394">
        <ele>743.080924</ele>
        <time>2026-07-12T17:10:25.000Z</time>
      </trkpt>
      <trkpt lat="46.50443" lon="13.58382">
        <ele>743.266655</ele>
        <time>2026-07-12T17:10:27.000Z</time>
      </trkpt>
      <trkpt lat="46.50444" lon="13.5837">
        <ele>743.444935</ele>
        <time>2026-07-12T17:10:29.000Z</time>
      </trkpt>
      <trkpt lat="46.50447" lon="13.58351">
        <ele>743.73575</ele>
        <time>2026-07-12T17:10:32.000Z</time>
      </trkpt>
      <trkpt lat="46.50448" lon="13.58345">
        <ele>743.827134</ele>
        <time>2026-07-12T17:10:33.000Z</time>
      </trkpt>
      <trkpt lat="46.50453" lon="13.5832">
        <ele>744.216027</ele>
        <time>2026-07-12T17:10:37.000Z</time>
      </trkpt>
      <trkpt lat="46.50466" lon="13.58266">
        <ele>745.027886</ele>
        <time>2026-07-12T17:10:45.000Z</time>
      </trkpt>
      <trkpt lat="46.5047" lon="13.58246">
        <ele>745.321241</ele>
        <time>2026-07-12T17:10:48.000Z</time>
      </trkpt>
      <trkpt lat="46.50475" lon="13.58226">
        <ele>745.61124</ele>
        <time>2026-07-12T17:10:51.000Z</time>
      </trkpt>
      <trkpt lat="46.50477" lon="13.58213">
        <ele>745.800964</ele>
        <time>2026-07-12T17:10:53.000Z</time>
      </trkpt>
      <trkpt lat="46.50487" lon="13.58151">
        <ele>746.673884</ele>
        <time>2026-07-12T17:11:02.000Z</time>
      </trkpt>
      <trkpt lat="46.50488" lon="13.58131">
        <ele>746.9398</ele>
        <time>2026-07-12T17:11:05.000Z</time>
      </trkpt>
      <trkpt lat="46.50491" lon="13.58113">
        <ele>747.202547</ele>
        <time>2026-07-12T17:11:08.000Z</time>
      </trkpt>
      <trkpt lat="46.50492" lon="13.58088">
        <ele>747.539219</ele>
        <time>2026-07-12T17:11:12.000Z</time>
      </trkpt>
      <trkpt lat="46.5049" lon="13.58065">
        <ele>747.851409</ele>
        <time>2026-07-12T17:11:15.000Z</time>
      </trkpt>
      <trkpt lat="46.50489" lon="13.58038">
        <ele>748.247653</ele>
        <time>2026-07-12T17:11:19.000Z</time>
      </trkpt>
      <trkpt lat="46.50488" lon="13.58026">
        <ele>748.458542</ele>
        <time>2026-07-12T17:11:21.000Z</time>
      </trkpt>
      <trkpt lat="46.50485" lon="13.58002">
        <ele>748.868479</ele>
        <time>2026-07-12T17:11:26.000Z</time>
      </trkpt>
      <trkpt lat="46.50483" lon="13.57994">
        <ele>749.001374</ele>
        <time>2026-07-12T17:11:31.000Z</time>
      </trkpt>
      <trkpt lat="46.50481" lon="13.58001">
        <ele>749.133205</ele>
        <time>2026-07-12T17:12:06.000Z</time>
      </trkpt>
      <trkpt lat="46.50483" lon="13.58009">
        <ele>749.25834</ele>
        <time>2026-07-12T17:12:08.000Z</time>
      </trkpt>
      <trkpt lat="46.50486" lon="13.58034">
        <ele>749.701606</ele>
        <time>2026-07-12T17:12:14.000Z</time>
      </trkpt>
      <trkpt lat="46.50488" lon="13.58037">
        <ele>749.781182</ele>
        <time>2026-07-12T17:12:15.000Z</time>
      </trkpt>
      <trkpt lat="46.50498" lon="13.58037">
        <ele>750.009723</ele>
        <time>2026-07-12T17:12:18.000Z</time>
      </trkpt>
      <trkpt lat="46.50514" lon="13.58016">
        <ele>750.546588</ele>
        <time>2026-07-12T17:12:24.000Z</time>
      </trkpt>
      <trkpt lat="46.50533" lon="13.57996">
        <ele>751.119468</ele>
        <time>2026-07-12T17:12:28.000Z</time>
      </trkpt>
      <trkpt lat="46.50539" lon="13.57986">
        <ele>751.336509</ele>
        <time>2026-07-12T17:12:30.000Z</time>
      </trkpt>
      <trkpt lat="46.50543" lon="13.57975">
        <ele>751.550466</ele>
        <time>2026-07-12T17:12:32.000Z</time>
      </trkpt>
      <trkpt lat="46.50544" lon="13.5797">
        <ele>751.640748</ele>
        <time>2026-07-12T17:12:33.000Z</time>
      </trkpt>
      <trkpt lat="46.50546" lon="13.57952">
        <ele>751.94668</ele>
        <time>2026-07-12T17:12:36.000Z</time>
      </trkpt>
      <trkpt lat="46.50545" lon="13.57921">
        <ele>752.469204</ele>
        <time>2026-07-12T17:12:42.000Z</time>
      </trkpt>
      <trkpt lat="46.50543" lon="13.57906">
        <ele>752.56517</ele>
        <time>2026-07-12T17:12:45.000Z</time>
      </trkpt>
      <trkpt lat="46.50544" lon="13.57893">
        <ele>752.56517</ele>
        <time>2026-07-12T17:12:48.000Z</time>
      </trkpt>
      <trkpt lat="46.50544" lon="13.57888">
        <ele>752.56517</ele>
        <time>2026-07-12T17:12:49.000Z</time>
      </trkpt>
      <trkpt lat="46.50543" lon="13.57871">
        <ele>752.56517</ele>
        <time>2026-07-12T17:12:53.000Z</time>
      </trkpt>
      <trkpt lat="46.50541" lon="13.57849">
        <ele>752.56517</ele>
        <time>2026-07-12T17:12:59.000Z</time>
      </trkpt>
      <trkpt lat="46.50541" lon="13.57846">
        <ele>752.56517</ele>
        <time>2026-07-12T17:13:00.000Z</time>
      </trkpt>
      <trkpt lat="46.50537" lon="13.57817">
        <ele>752.56517</ele>
        <time>2026-07-12T17:13:08.000Z</time>
      </trkpt>
      <trkpt lat="46.50536" lon="13.57806">
        <ele>752.56517</ele>
        <time>2026-07-12T17:13:11.000Z</time>
      </trkpt>
      <trkpt lat="46.50536" lon="13.57802">
        <ele>752.56517</ele>
        <time>2026-07-12T17:13:12.000Z</time>
      </trkpt>
      <trkpt lat="46.50535" lon="13.57791">
        <ele>752.56517</ele>
        <time>2026-07-12T17:13:15.000Z</time>
      </trkpt>
      <trkpt lat="46.50535" lon="13.57783">
        <ele>752.56517</ele>
        <time>2026-07-12T17:13:17.000Z</time>
      </trkpt>
      <trkpt lat="46.50536" lon="13.57777">
        <ele>752.56517</ele>
        <time>2026-07-12T17:13:19.000Z</time>
      </trkpt>
      <trkpt lat="46.50536" lon="13.57773">
        <ele>752.56517</ele>
        <time>2026-07-12T17:13:20.000Z</time>
      </trkpt>
      <trkpt lat="46.50536" lon="13.57767">
        <ele>752.56517</ele>
        <time>2026-07-12T17:13:22.000Z</time>
      </trkpt>
      <trkpt lat="46.50538" lon="13.57756">
        <ele>752.56517</ele>
        <time>2026-07-12T17:13:25.000Z</time>
      </trkpt>
      <trkpt lat="46.50536" lon="13.57733">
        <ele>752.56517</ele>
        <time>2026-07-12T17:13:33.000Z</time>
      </trkpt>
      <trkpt lat="46.50533" lon="13.57714">
        <ele>752.56517</ele>
        <time>2026-07-12T17:13:38.000Z</time>
      </trkpt>
      <trkpt lat="46.50532" lon="13.57703">
        <ele>752.56517</ele>
        <time>2026-07-12T17:13:42.000Z</time>
      </trkpt>
      <trkpt lat="46.50532" lon="13.57696">
        <ele>752.56517</ele>
        <time>2026-07-12T17:13:46.000Z</time>
      </trkpt>
      <trkpt lat="46.50531" lon="13.5769">
        <ele>752.56517</ele>
        <time>2026-07-12T17:13:49.000Z</time>
      </trkpt>
      <trkpt lat="46.50531" lon="13.57677">
        <ele>752.56517</ele>
        <time>2026-07-12T17:13:53.000Z</time>
      </trkpt>
      <trkpt lat="46.50531" lon="13.57673">
        <ele>752.56517</ele>
        <time>2026-07-12T17:13:54.000Z</time>
      </trkpt>
      <trkpt lat="46.5053" lon="13.57667">
        <ele>752.56517</ele>
        <time>2026-07-12T17:13:56.000Z</time>
      </trkpt>
      <trkpt lat="46.50529" lon="13.57657">
        <ele>752.56517</ele>
        <time>2026-07-12T17:13:59.000Z</time>
      </trkpt>
      <trkpt lat="46.50528" lon="13.57655">
        <ele>752.56517</ele>
        <time>2026-07-12T17:14:00.000Z</time>
      </trkpt>
      <trkpt lat="46.50528" lon="13.5765">
        <ele>752.56517</ele>
        <time>2026-07-12T17:14:03.000Z</time>
      </trkpt>
      <trkpt lat="46.50527" lon="13.57636">
        <ele>752.56517</ele>
        <time>2026-07-12T17:14:13.000Z</time>
      </trkpt>
      <trkpt lat="46.50527" lon="13.57634">
        <ele>752.56517</ele>
        <time>2026-07-12T17:14:14.000Z</time>
      </trkpt>
      <trkpt lat="46.50528" lon="13.57631">
        <ele>752.56517</ele>
        <time>2026-07-12T17:14:18.000Z</time>
      </trkpt>
    </trkseg>
  </trk>
</gpx>